<?xml version="1.0" encoding="UTF-8" standalone="no" ?>
<gpx xmlns="http://www.topografix.com/GPX/1/1" xmlns:xsi="http://www.w3.org/2001/XMLSchema-instance" xsi:schemaLocation="http://www.topografix.com/GPX/1/1 http://www.topografix.com/GPX/1/1/gpx.xsd" version="1.1" creator="VisuGPX - https://www.visugpx.com">
  <metadata>
    <name>Comparaison Raid 2017 sortie 07-07-2019</name>
  </metadata>
  <trk>
    <name><![CDATA[RAID DE L'AVY]]></name>
    <trkseg>
      <trkpt lat="43.65029" lon="3.78963">
        <ele>78.9</ele>
        <time>2017-05-21T06:10:45Z</time>
      </trkpt>
      <trkpt lat="43.65029" lon="3.78958">
        <ele>79.3</ele>
        <time>2017-05-21T06:12:13Z</time>
      </trkpt>
      <trkpt lat="43.65032" lon="3.78956">
        <ele>79.3</ele>
        <time>2017-05-21T06:12:16Z</time>
      </trkpt>
      <trkpt lat="43.65035" lon="3.78956">
        <ele>79.2</ele>
        <time>2017-05-21T06:12:19Z</time>
      </trkpt>
      <trkpt lat="43.65038" lon="3.78955">
        <ele>79.2</ele>
        <time>2017-05-21T06:12:21Z</time>
      </trkpt>
      <trkpt lat="43.65042" lon="3.78952">
        <ele>79.1</ele>
        <time>2017-05-21T06:12:31Z</time>
      </trkpt>
      <trkpt lat="43.65044" lon="3.78949">
        <ele>79.1</ele>
        <time>2017-05-21T06:12:34Z</time>
      </trkpt>
      <trkpt lat="43.65046" lon="3.78946">
        <ele>79</ele>
        <time>2017-05-21T06:12:41Z</time>
      </trkpt>
      <trkpt lat="43.65049" lon="3.78944">
        <ele>78.9</ele>
        <time>2017-05-21T06:12:43Z</time>
      </trkpt>
      <trkpt lat="43.65051" lon="3.78941">
        <ele>78.9</ele>
        <time>2017-05-21T06:12:44Z</time>
      </trkpt>
      <trkpt lat="43.65055" lon="3.78938">
        <ele>78.8</ele>
        <time>2017-05-21T06:12:45Z</time>
      </trkpt>
      <trkpt lat="43.65058" lon="3.78935">
        <ele>78.7</ele>
        <time>2017-05-21T06:12:46Z</time>
      </trkpt>
      <trkpt lat="43.65061" lon="3.78933">
        <ele>78.6</ele>
        <time>2017-05-21T06:12:47Z</time>
      </trkpt>
      <trkpt lat="43.65063" lon="3.78932">
        <ele>78.6</ele>
        <time>2017-05-21T06:12:48Z</time>
      </trkpt>
      <trkpt lat="43.65067" lon="3.78931">
        <ele>78</ele>
        <time>2017-05-21T06:12:50Z</time>
      </trkpt>
      <trkpt lat="43.6507" lon="3.78933">
        <ele>75.2</ele>
        <time>2017-05-21T06:12:51Z</time>
      </trkpt>
      <trkpt lat="43.65072" lon="3.78935">
        <ele>74.8</ele>
        <time>2017-05-21T06:12:52Z</time>
      </trkpt>
      <trkpt lat="43.65076" lon="3.78937">
        <ele>74.3</ele>
        <time>2017-05-21T06:12:53Z</time>
      </trkpt>
      <trkpt lat="43.65078" lon="3.78939">
        <ele>73.9</ele>
        <time>2017-05-21T06:12:54Z</time>
      </trkpt>
      <trkpt lat="43.65082" lon="3.78938">
        <ele>73.5</ele>
        <time>2017-05-21T06:12:56Z</time>
      </trkpt>
      <trkpt lat="43.65085" lon="3.7894">
        <ele>73.1</ele>
        <time>2017-05-21T06:12:57Z</time>
      </trkpt>
      <trkpt lat="43.65089" lon="3.78938">
        <ele>72.6</ele>
        <time>2017-05-21T06:12:59Z</time>
      </trkpt>
      <trkpt lat="43.65092" lon="3.78937">
        <ele>72.2</ele>
        <time>2017-05-21T06:13:00Z</time>
      </trkpt>
      <trkpt lat="43.65095" lon="3.78933">
        <ele>71.8</ele>
        <time>2017-05-21T06:13:02Z</time>
      </trkpt>
      <trkpt lat="43.651" lon="3.78929">
        <ele>71.8</ele>
        <time>2017-05-21T06:13:04Z</time>
      </trkpt>
      <trkpt lat="43.65104" lon="3.78926">
        <ele>71.6</ele>
        <time>2017-05-21T06:13:06Z</time>
      </trkpt>
      <trkpt lat="43.65106" lon="3.78923">
        <ele>71.7</ele>
        <time>2017-05-21T06:13:07Z</time>
      </trkpt>
      <trkpt lat="43.65108" lon="3.7892">
        <ele>71.8</ele>
        <time>2017-05-21T06:13:08Z</time>
      </trkpt>
      <trkpt lat="43.65112" lon="3.78916">
        <ele>72.1</ele>
        <time>2017-05-21T06:13:10Z</time>
      </trkpt>
      <trkpt lat="43.65115" lon="3.78913">
        <ele>72</ele>
        <time>2017-05-21T06:13:11Z</time>
      </trkpt>
      <trkpt lat="43.65118" lon="3.78911">
        <ele>72.3</ele>
        <time>2017-05-21T06:13:12Z</time>
      </trkpt>
      <trkpt lat="43.65121" lon="3.78908">
        <ele>72.5</ele>
        <time>2017-05-21T06:13:13Z</time>
      </trkpt>
      <trkpt lat="43.65127" lon="3.78904">
        <ele>72.5</ele>
        <time>2017-05-21T06:13:15Z</time>
      </trkpt>
      <trkpt lat="43.65129" lon="3.78902">
        <ele>72.6</ele>
        <time>2017-05-21T06:13:16Z</time>
      </trkpt>
      <trkpt lat="43.65131" lon="3.78898">
        <ele>72.8</ele>
        <time>2017-05-21T06:13:17Z</time>
      </trkpt>
      <trkpt lat="43.65133" lon="3.78895">
        <ele>72.9</ele>
        <time>2017-05-21T06:13:18Z</time>
      </trkpt>
      <trkpt lat="43.65136" lon="3.7889">
        <ele>73</ele>
        <time>2017-05-21T06:13:20Z</time>
      </trkpt>
      <trkpt lat="43.65138" lon="3.78888">
        <ele>73.1</ele>
        <time>2017-05-21T06:13:22Z</time>
      </trkpt>
      <trkpt lat="43.65141" lon="3.78882">
        <ele>73.3</ele>
        <time>2017-05-21T06:13:24Z</time>
      </trkpt>
      <trkpt lat="43.65144" lon="3.78879">
        <ele>73.3</ele>
        <time>2017-05-21T06:13:26Z</time>
      </trkpt>
      <trkpt lat="43.65145" lon="3.78876">
        <ele>73.4</ele>
        <time>2017-05-21T06:13:27Z</time>
      </trkpt>
      <trkpt lat="43.65147" lon="3.78869">
        <ele>73.9</ele>
        <time>2017-05-21T06:13:29Z</time>
      </trkpt>
      <trkpt lat="43.65148" lon="3.78864">
        <ele>74.3</ele>
        <time>2017-05-21T06:13:31Z</time>
      </trkpt>
      <trkpt lat="43.65146" lon="3.78858">
        <ele>74.6</ele>
        <time>2017-05-21T06:13:33Z</time>
      </trkpt>
      <trkpt lat="43.65146" lon="3.78852">
        <ele>75.3</ele>
        <time>2017-05-21T06:13:35Z</time>
      </trkpt>
      <trkpt lat="43.65145" lon="3.78848">
        <ele>75.4</ele>
        <time>2017-05-21T06:13:36Z</time>
      </trkpt>
      <trkpt lat="43.65145" lon="3.78842">
        <ele>76.2</ele>
        <time>2017-05-21T06:13:38Z</time>
      </trkpt>
      <trkpt lat="43.65145" lon="3.78839">
        <ele>76.7</ele>
        <time>2017-05-21T06:13:39Z</time>
      </trkpt>
      <trkpt lat="43.65145" lon="3.78835">
        <ele>77.1</ele>
        <time>2017-05-21T06:13:40Z</time>
      </trkpt>
      <trkpt lat="43.65145" lon="3.78829">
        <ele>77.6</ele>
        <time>2017-05-21T06:13:41Z</time>
      </trkpt>
      <trkpt lat="43.65146" lon="3.78823">
        <ele>78.3</ele>
        <time>2017-05-21T06:13:43Z</time>
      </trkpt>
      <trkpt lat="43.65148" lon="3.78816">
        <ele>79</ele>
        <time>2017-05-21T06:13:45Z</time>
      </trkpt>
      <trkpt lat="43.6515" lon="3.78813">
        <ele>78.8</ele>
        <time>2017-05-21T06:13:46Z</time>
      </trkpt>
      <trkpt lat="43.65152" lon="3.7881">
        <ele>78.6</ele>
        <time>2017-05-21T06:13:47Z</time>
      </trkpt>
      <trkpt lat="43.65155" lon="3.78808">
        <ele>78.4</ele>
        <time>2017-05-21T06:13:48Z</time>
      </trkpt>
      <trkpt lat="43.65158" lon="3.78805">
        <ele>78.1</ele>
        <time>2017-05-21T06:13:49Z</time>
      </trkpt>
      <trkpt lat="43.65162" lon="3.78803">
        <ele>77.8</ele>
        <time>2017-05-21T06:13:50Z</time>
      </trkpt>
      <trkpt lat="43.65165" lon="3.788">
        <ele>77.4</ele>
        <time>2017-05-21T06:13:51Z</time>
      </trkpt>
      <trkpt lat="43.65169" lon="3.78797">
        <ele>76.9</ele>
        <time>2017-05-21T06:13:52Z</time>
      </trkpt>
      <trkpt lat="43.65173" lon="3.78794">
        <ele>76.4</ele>
        <time>2017-05-21T06:13:53Z</time>
      </trkpt>
      <trkpt lat="43.65176" lon="3.78791">
        <ele>76</ele>
        <time>2017-05-21T06:13:54Z</time>
      </trkpt>
      <trkpt lat="43.6518" lon="3.78789">
        <ele>75.5</ele>
        <time>2017-05-21T06:13:55Z</time>
      </trkpt>
      <trkpt lat="43.65184" lon="3.78786">
        <ele>75</ele>
        <time>2017-05-21T06:13:56Z</time>
      </trkpt>
      <trkpt lat="43.65188" lon="3.78784">
        <ele>74.6</ele>
        <time>2017-05-21T06:13:57Z</time>
      </trkpt>
      <trkpt lat="43.65192" lon="3.78781">
        <ele>74.1</ele>
        <time>2017-05-21T06:13:58Z</time>
      </trkpt>
      <trkpt lat="43.65195" lon="3.78778">
        <ele>73.7</ele>
        <time>2017-05-21T06:13:59Z</time>
      </trkpt>
      <trkpt lat="43.65199" lon="3.78775">
        <ele>73.2</ele>
        <time>2017-05-21T06:14:00Z</time>
      </trkpt>
      <trkpt lat="43.65201" lon="3.78772">
        <ele>72.8</ele>
        <time>2017-05-21T06:14:01Z</time>
      </trkpt>
      <trkpt lat="43.65204" lon="3.78768">
        <ele>72.3</ele>
        <time>2017-05-21T06:14:02Z</time>
      </trkpt>
      <trkpt lat="43.65207" lon="3.78765">
        <ele>71.9</ele>
        <time>2017-05-21T06:14:03Z</time>
      </trkpt>
      <trkpt lat="43.6521" lon="3.7876">
        <ele>71.4</ele>
        <time>2017-05-21T06:14:04Z</time>
      </trkpt>
      <trkpt lat="43.65212" lon="3.78755">
        <ele>70.8</ele>
        <time>2017-05-21T06:14:05Z</time>
      </trkpt>
      <trkpt lat="43.65215" lon="3.78751">
        <ele>70.3</ele>
        <time>2017-05-21T06:14:06Z</time>
      </trkpt>
      <trkpt lat="43.65218" lon="3.78747">
        <ele>69.9</ele>
        <time>2017-05-21T06:14:07Z</time>
      </trkpt>
      <trkpt lat="43.65221" lon="3.78743">
        <ele>69.8</ele>
        <time>2017-05-21T06:14:08Z</time>
      </trkpt>
      <trkpt lat="43.65224" lon="3.7874">
        <ele>69.7</ele>
        <time>2017-05-21T06:14:09Z</time>
      </trkpt>
      <trkpt lat="43.65228" lon="3.78737">
        <ele>69.6</ele>
        <time>2017-05-21T06:14:10Z</time>
      </trkpt>
      <trkpt lat="43.65231" lon="3.78736">
        <ele>69.6</ele>
        <time>2017-05-21T06:14:11Z</time>
      </trkpt>
      <trkpt lat="43.65235" lon="3.78733">
        <ele>69.5</ele>
        <time>2017-05-21T06:14:12Z</time>
      </trkpt>
      <trkpt lat="43.65238" lon="3.78732">
        <ele>69.5</ele>
        <time>2017-05-21T06:14:13Z</time>
      </trkpt>
      <trkpt lat="43.65241" lon="3.7873">
        <ele>69.4</ele>
        <time>2017-05-21T06:14:14Z</time>
      </trkpt>
      <trkpt lat="43.65245" lon="3.78728">
        <ele>69.3</ele>
        <time>2017-05-21T06:14:15Z</time>
      </trkpt>
      <trkpt lat="43.65248" lon="3.78726">
        <ele>69.3</ele>
        <time>2017-05-21T06:14:16Z</time>
      </trkpt>
      <trkpt lat="43.65252" lon="3.78724">
        <ele>69.2</ele>
        <time>2017-05-21T06:14:17Z</time>
      </trkpt>
      <trkpt lat="43.65255" lon="3.78722">
        <ele>69.1</ele>
        <time>2017-05-21T06:14:18Z</time>
      </trkpt>
      <trkpt lat="43.65258" lon="3.7872">
        <ele>69</ele>
        <time>2017-05-21T06:14:19Z</time>
      </trkpt>
      <trkpt lat="43.65261" lon="3.7872">
        <ele>68.9</ele>
        <time>2017-05-21T06:14:20Z</time>
      </trkpt>
      <trkpt lat="43.65264" lon="3.78718">
        <ele>68.8</ele>
        <time>2017-05-21T06:14:21Z</time>
      </trkpt>
      <trkpt lat="43.65267" lon="3.78717">
        <ele>68.6</ele>
        <time>2017-05-21T06:14:22Z</time>
      </trkpt>
      <trkpt lat="43.6527" lon="3.78715">
        <ele>68.5</ele>
        <time>2017-05-21T06:14:23Z</time>
      </trkpt>
      <trkpt lat="43.65275" lon="3.78713">
        <ele>68.2</ele>
        <time>2017-05-21T06:14:25Z</time>
      </trkpt>
      <trkpt lat="43.6528" lon="3.78713">
        <ele>68</ele>
        <time>2017-05-21T06:14:27Z</time>
      </trkpt>
      <trkpt lat="43.65285" lon="3.78711">
        <ele>68</ele>
        <time>2017-05-21T06:14:29Z</time>
      </trkpt>
      <trkpt lat="43.6529" lon="3.78707">
        <ele>68</ele>
        <time>2017-05-21T06:14:31Z</time>
      </trkpt>
      <trkpt lat="43.65293" lon="3.78705">
        <ele>68</ele>
        <time>2017-05-21T06:14:32Z</time>
      </trkpt>
      <trkpt lat="43.65296" lon="3.78703">
        <ele>68</ele>
        <time>2017-05-21T06:14:33Z</time>
      </trkpt>
      <trkpt lat="43.65298" lon="3.78701">
        <ele>68</ele>
        <time>2017-05-21T06:14:34Z</time>
      </trkpt>
      <trkpt lat="43.65301" lon="3.787">
        <ele>68</ele>
        <time>2017-05-21T06:14:35Z</time>
      </trkpt>
      <trkpt lat="43.65304" lon="3.78698">
        <ele>68</ele>
        <time>2017-05-21T06:14:36Z</time>
      </trkpt>
      <trkpt lat="43.65306" lon="3.78696">
        <ele>68</ele>
        <time>2017-05-21T06:14:37Z</time>
      </trkpt>
      <trkpt lat="43.65309" lon="3.78694">
        <ele>68</ele>
        <time>2017-05-21T06:14:38Z</time>
      </trkpt>
      <trkpt lat="43.65312" lon="3.78693">
        <ele>68</ele>
        <time>2017-05-21T06:14:39Z</time>
      </trkpt>
      <trkpt lat="43.65314" lon="3.78691">
        <ele>68</ele>
        <time>2017-05-21T06:14:40Z</time>
      </trkpt>
      <trkpt lat="43.6532" lon="3.78687">
        <ele>67.9</ele>
        <time>2017-05-21T06:14:42Z</time>
      </trkpt>
      <trkpt lat="43.65322" lon="3.78685">
        <ele>67.9</ele>
        <time>2017-05-21T06:14:43Z</time>
      </trkpt>
      <trkpt lat="43.65325" lon="3.78682">
        <ele>67.8</ele>
        <time>2017-05-21T06:14:44Z</time>
      </trkpt>
      <trkpt lat="43.65328" lon="3.78679">
        <ele>67.7</ele>
        <time>2017-05-21T06:14:45Z</time>
      </trkpt>
      <trkpt lat="43.65331" lon="3.78676">
        <ele>67.5</ele>
        <time>2017-05-21T06:14:46Z</time>
      </trkpt>
      <trkpt lat="43.65334" lon="3.78673">
        <ele>67.3</ele>
        <time>2017-05-21T06:14:47Z</time>
      </trkpt>
      <trkpt lat="43.65337" lon="3.7867">
        <ele>67.1</ele>
        <time>2017-05-21T06:14:48Z</time>
      </trkpt>
      <trkpt lat="43.6534" lon="3.78667">
        <ele>66.9</ele>
        <time>2017-05-21T06:14:49Z</time>
      </trkpt>
      <trkpt lat="43.65344" lon="3.78664">
        <ele>66.7</ele>
        <time>2017-05-21T06:14:50Z</time>
      </trkpt>
      <trkpt lat="43.65348" lon="3.78662">
        <ele>66.4</ele>
        <time>2017-05-21T06:14:51Z</time>
      </trkpt>
      <trkpt lat="43.65351" lon="3.78659">
        <ele>66.1</ele>
        <time>2017-05-21T06:14:52Z</time>
      </trkpt>
      <trkpt lat="43.65356" lon="3.78656">
        <ele>65.8</ele>
        <time>2017-05-21T06:14:53Z</time>
      </trkpt>
      <trkpt lat="43.65361" lon="3.78653">
        <ele>65.5</ele>
        <time>2017-05-21T06:14:54Z</time>
      </trkpt>
      <trkpt lat="43.65366" lon="3.78651">
        <ele>65.1</ele>
        <time>2017-05-21T06:14:55Z</time>
      </trkpt>
      <trkpt lat="43.65372" lon="3.78647">
        <ele>64.8</ele>
        <time>2017-05-21T06:14:56Z</time>
      </trkpt>
      <trkpt lat="43.65378" lon="3.78644">
        <ele>64.7</ele>
        <time>2017-05-21T06:14:57Z</time>
      </trkpt>
      <trkpt lat="43.65385" lon="3.78641">
        <ele>64.6</ele>
        <time>2017-05-21T06:14:58Z</time>
      </trkpt>
      <trkpt lat="43.65391" lon="3.78638">
        <ele>64.6</ele>
        <time>2017-05-21T06:14:59Z</time>
      </trkpt>
      <trkpt lat="43.65397" lon="3.78636">
        <ele>64.6</ele>
        <time>2017-05-21T06:15:00Z</time>
      </trkpt>
      <trkpt lat="43.65403" lon="3.78633">
        <ele>64.6</ele>
        <time>2017-05-21T06:15:01Z</time>
      </trkpt>
      <trkpt lat="43.65409" lon="3.7863">
        <ele>64.6</ele>
        <time>2017-05-21T06:15:02Z</time>
      </trkpt>
      <trkpt lat="43.65414" lon="3.78626">
        <ele>64.6</ele>
        <time>2017-05-21T06:15:03Z</time>
      </trkpt>
      <trkpt lat="43.65419" lon="3.78622">
        <ele>64.7</ele>
        <time>2017-05-21T06:15:04Z</time>
      </trkpt>
      <trkpt lat="43.65424" lon="3.78618">
        <ele>64.9</ele>
        <time>2017-05-21T06:15:05Z</time>
      </trkpt>
      <trkpt lat="43.65427" lon="3.78612">
        <ele>65.4</ele>
        <time>2017-05-21T06:15:06Z</time>
      </trkpt>
      <trkpt lat="43.65429" lon="3.78607">
        <ele>65.6</ele>
        <time>2017-05-21T06:15:07Z</time>
      </trkpt>
      <trkpt lat="43.65431" lon="3.786">
        <ele>65.8</ele>
        <time>2017-05-21T06:15:08Z</time>
      </trkpt>
      <trkpt lat="43.65431" lon="3.78594">
        <ele>66</ele>
        <time>2017-05-21T06:15:09Z</time>
      </trkpt>
      <trkpt lat="43.65432" lon="3.78589">
        <ele>66.1</ele>
        <time>2017-05-21T06:15:10Z</time>
      </trkpt>
      <trkpt lat="43.65432" lon="3.78583">
        <ele>66.2</ele>
        <time>2017-05-21T06:15:11Z</time>
      </trkpt>
      <trkpt lat="43.65432" lon="3.78578">
        <ele>66.3</ele>
        <time>2017-05-21T06:15:12Z</time>
      </trkpt>
      <trkpt lat="43.65432" lon="3.78574">
        <ele>66.3</ele>
        <time>2017-05-21T06:15:13Z</time>
      </trkpt>
      <trkpt lat="43.65431" lon="3.7857">
        <ele>66.4</ele>
        <time>2017-05-21T06:15:14Z</time>
      </trkpt>
      <trkpt lat="43.65431" lon="3.78565">
        <ele>66.5</ele>
        <time>2017-05-21T06:15:15Z</time>
      </trkpt>
      <trkpt lat="43.6543" lon="3.78562">
        <ele>66.5</ele>
        <time>2017-05-21T06:15:16Z</time>
      </trkpt>
      <trkpt lat="43.6543" lon="3.78557">
        <ele>66.6</ele>
        <time>2017-05-21T06:15:17Z</time>
      </trkpt>
      <trkpt lat="43.65429" lon="3.78553">
        <ele>66.7</ele>
        <time>2017-05-21T06:15:18Z</time>
      </trkpt>
      <trkpt lat="43.65429" lon="3.78548">
        <ele>66.8</ele>
        <time>2017-05-21T06:15:19Z</time>
      </trkpt>
      <trkpt lat="43.65428" lon="3.78544">
        <ele>66.8</ele>
        <time>2017-05-21T06:15:20Z</time>
      </trkpt>
      <trkpt lat="43.65427" lon="3.78539">
        <ele>66.9</ele>
        <time>2017-05-21T06:15:21Z</time>
      </trkpt>
      <trkpt lat="43.65426" lon="3.78535">
        <ele>67</ele>
        <time>2017-05-21T06:15:22Z</time>
      </trkpt>
      <trkpt lat="43.65426" lon="3.7853">
        <ele>67</ele>
        <time>2017-05-21T06:15:23Z</time>
      </trkpt>
      <trkpt lat="43.65426" lon="3.78525">
        <ele>67.1</ele>
        <time>2017-05-21T06:15:24Z</time>
      </trkpt>
      <trkpt lat="43.65426" lon="3.7852">
        <ele>67.1</ele>
        <time>2017-05-21T06:15:25Z</time>
      </trkpt>
      <trkpt lat="43.65427" lon="3.78515">
        <ele>67.2</ele>
        <time>2017-05-21T06:15:26Z</time>
      </trkpt>
      <trkpt lat="43.65429" lon="3.78511">
        <ele>67.3</ele>
        <time>2017-05-21T06:15:27Z</time>
      </trkpt>
      <trkpt lat="43.6543" lon="3.78506">
        <ele>67.4</ele>
        <time>2017-05-21T06:15:28Z</time>
      </trkpt>
      <trkpt lat="43.65431" lon="3.78501">
        <ele>67.6</ele>
        <time>2017-05-21T06:15:29Z</time>
      </trkpt>
      <trkpt lat="43.65432" lon="3.78497">
        <ele>67.7</ele>
        <time>2017-05-21T06:15:30Z</time>
      </trkpt>
      <trkpt lat="43.65434" lon="3.78492">
        <ele>67.9</ele>
        <time>2017-05-21T06:15:31Z</time>
      </trkpt>
      <trkpt lat="43.65448" lon="3.78454">
        <ele>69.4</ele>
        <time>2017-05-21T06:15:40Z</time>
      </trkpt>
      <trkpt lat="43.65451" lon="3.78447">
        <ele>69.8</ele>
        <time>2017-05-21T06:15:42Z</time>
      </trkpt>
      <trkpt lat="43.65452" lon="3.78443">
        <ele>70</ele>
        <time>2017-05-21T06:15:43Z</time>
      </trkpt>
      <trkpt lat="43.65454" lon="3.7844">
        <ele>70.2</ele>
        <time>2017-05-21T06:15:44Z</time>
      </trkpt>
      <trkpt lat="43.65456" lon="3.78436">
        <ele>70.5</ele>
        <time>2017-05-21T06:15:45Z</time>
      </trkpt>
      <trkpt lat="43.65458" lon="3.78432">
        <ele>70.8</ele>
        <time>2017-05-21T06:15:46Z</time>
      </trkpt>
      <trkpt lat="43.6546" lon="3.78428">
        <ele>71</ele>
        <time>2017-05-21T06:15:47Z</time>
      </trkpt>
      <trkpt lat="43.65462" lon="3.78425">
        <ele>71.2</ele>
        <time>2017-05-21T06:15:48Z</time>
      </trkpt>
      <trkpt lat="43.65464" lon="3.78421">
        <ele>71.4</ele>
        <time>2017-05-21T06:15:49Z</time>
      </trkpt>
      <trkpt lat="43.65466" lon="3.78418">
        <ele>71.7</ele>
        <time>2017-05-21T06:15:50Z</time>
      </trkpt>
      <trkpt lat="43.65468" lon="3.78413">
        <ele>72</ele>
        <time>2017-05-21T06:15:51Z</time>
      </trkpt>
      <trkpt lat="43.6547" lon="3.7841">
        <ele>72.2</ele>
        <time>2017-05-21T06:15:52Z</time>
      </trkpt>
      <trkpt lat="43.65474" lon="3.78408">
        <ele>72.4</ele>
        <time>2017-05-21T06:15:53Z</time>
      </trkpt>
      <trkpt lat="43.65478" lon="3.78402">
        <ele>72.7</ele>
        <time>2017-05-21T06:15:55Z</time>
      </trkpt>
      <trkpt lat="43.6548" lon="3.78399">
        <ele>72.9</ele>
        <time>2017-05-21T06:15:56Z</time>
      </trkpt>
      <trkpt lat="43.65482" lon="3.78396">
        <ele>73.1</ele>
        <time>2017-05-21T06:15:57Z</time>
      </trkpt>
      <trkpt lat="43.65485" lon="3.7839">
        <ele>73.3</ele>
        <time>2017-05-21T06:15:59Z</time>
      </trkpt>
      <trkpt lat="43.65488" lon="3.78386">
        <ele>73.4</ele>
        <time>2017-05-21T06:16:01Z</time>
      </trkpt>
      <trkpt lat="43.65492" lon="3.78381">
        <ele>73.6</ele>
        <time>2017-05-21T06:16:03Z</time>
      </trkpt>
      <trkpt lat="43.65494" lon="3.78377">
        <ele>73.7</ele>
        <time>2017-05-21T06:16:04Z</time>
      </trkpt>
      <trkpt lat="43.65496" lon="3.78372">
        <ele>73.8</ele>
        <time>2017-05-21T06:16:06Z</time>
      </trkpt>
      <trkpt lat="43.65499" lon="3.78368">
        <ele>73.9</ele>
        <time>2017-05-21T06:16:07Z</time>
      </trkpt>
      <trkpt lat="43.65503" lon="3.78363">
        <ele>74.1</ele>
        <time>2017-05-21T06:16:09Z</time>
      </trkpt>
      <trkpt lat="43.65506" lon="3.78361">
        <ele>74.2</ele>
        <time>2017-05-21T06:16:10Z</time>
      </trkpt>
      <trkpt lat="43.6551" lon="3.78358">
        <ele>74.3</ele>
        <time>2017-05-21T06:16:12Z</time>
      </trkpt>
      <trkpt lat="43.65515" lon="3.78354">
        <ele>74.6</ele>
        <time>2017-05-21T06:16:14Z</time>
      </trkpt>
      <trkpt lat="43.65517" lon="3.78352">
        <ele>74.7</ele>
        <time>2017-05-21T06:16:15Z</time>
      </trkpt>
      <trkpt lat="43.65522" lon="3.78347">
        <ele>75.1</ele>
        <time>2017-05-21T06:16:17Z</time>
      </trkpt>
      <trkpt lat="43.65525" lon="3.78344">
        <ele>75.3</ele>
        <time>2017-05-21T06:16:18Z</time>
      </trkpt>
      <trkpt lat="43.65527" lon="3.7834">
        <ele>75.5</ele>
        <time>2017-05-21T06:16:19Z</time>
      </trkpt>
      <trkpt lat="43.6553" lon="3.78337">
        <ele>75.7</ele>
        <time>2017-05-21T06:16:20Z</time>
      </trkpt>
      <trkpt lat="43.65533" lon="3.78333">
        <ele>75.9</ele>
        <time>2017-05-21T06:16:21Z</time>
      </trkpt>
      <trkpt lat="43.65535" lon="3.7833">
        <ele>76.1</ele>
        <time>2017-05-21T06:16:22Z</time>
      </trkpt>
      <trkpt lat="43.65537" lon="3.78327">
        <ele>76.6</ele>
        <time>2017-05-21T06:16:23Z</time>
      </trkpt>
      <trkpt lat="43.65539" lon="3.78324">
        <ele>76.6</ele>
        <time>2017-05-21T06:16:24Z</time>
      </trkpt>
      <trkpt lat="43.65541" lon="3.78321">
        <ele>77</ele>
        <time>2017-05-21T06:16:25Z</time>
      </trkpt>
      <trkpt lat="43.65543" lon="3.78318">
        <ele>77.4</ele>
        <time>2017-05-21T06:16:26Z</time>
      </trkpt>
      <trkpt lat="43.65545" lon="3.78314">
        <ele>77.5</ele>
        <time>2017-05-21T06:16:27Z</time>
      </trkpt>
      <trkpt lat="43.65547" lon="3.7831">
        <ele>77.8</ele>
        <time>2017-05-21T06:16:28Z</time>
      </trkpt>
      <trkpt lat="43.65549" lon="3.78307">
        <ele>78.1</ele>
        <time>2017-05-21T06:16:29Z</time>
      </trkpt>
      <trkpt lat="43.65551" lon="3.78304">
        <ele>78.1</ele>
        <time>2017-05-21T06:16:31Z</time>
      </trkpt>
      <trkpt lat="43.65554" lon="3.78298">
        <ele>78.3</ele>
        <time>2017-05-21T06:16:33Z</time>
      </trkpt>
      <trkpt lat="43.65556" lon="3.78294">
        <ele>78.4</ele>
        <time>2017-05-21T06:16:34Z</time>
      </trkpt>
      <trkpt lat="43.65557" lon="3.7829">
        <ele>78.4</ele>
        <time>2017-05-21T06:16:35Z</time>
      </trkpt>
      <trkpt lat="43.65559" lon="3.78284">
        <ele>78.2</ele>
        <time>2017-05-21T06:16:36Z</time>
      </trkpt>
      <trkpt lat="43.65562" lon="3.78279">
        <ele>78.2</ele>
        <time>2017-05-21T06:16:37Z</time>
      </trkpt>
      <trkpt lat="43.65563" lon="3.78274">
        <ele>78</ele>
        <time>2017-05-21T06:16:38Z</time>
      </trkpt>
      <trkpt lat="43.65564" lon="3.78269">
        <ele>78</ele>
        <time>2017-05-21T06:16:39Z</time>
      </trkpt>
      <trkpt lat="43.65566" lon="3.78264">
        <ele>77.8</ele>
        <time>2017-05-21T06:16:40Z</time>
      </trkpt>
      <trkpt lat="43.65565" lon="3.78256">
        <ele>77.8</ele>
        <time>2017-05-21T06:16:42Z</time>
      </trkpt>
      <trkpt lat="43.65566" lon="3.78248">
        <ele>77.8</ele>
        <time>2017-05-21T06:16:44Z</time>
      </trkpt>
      <trkpt lat="43.65565" lon="3.78244">
        <ele>77.9</ele>
        <time>2017-05-21T06:16:45Z</time>
      </trkpt>
      <trkpt lat="43.65564" lon="3.78239">
        <ele>78.1</ele>
        <time>2017-05-21T06:16:46Z</time>
      </trkpt>
      <trkpt lat="43.65564" lon="3.78235">
        <ele>78.3</ele>
        <time>2017-05-21T06:16:47Z</time>
      </trkpt>
      <trkpt lat="43.65564" lon="3.78231">
        <ele>78.5</ele>
        <time>2017-05-21T06:16:48Z</time>
      </trkpt>
      <trkpt lat="43.65565" lon="3.78225">
        <ele>79.1</ele>
        <time>2017-05-21T06:16:49Z</time>
      </trkpt>
      <trkpt lat="43.65565" lon="3.7822">
        <ele>79.4</ele>
        <time>2017-05-21T06:16:50Z</time>
      </trkpt>
      <trkpt lat="43.65564" lon="3.78212">
        <ele>79.7</ele>
        <time>2017-05-21T06:16:52Z</time>
      </trkpt>
      <trkpt lat="43.65564" lon="3.78207">
        <ele>80.6</ele>
        <time>2017-05-21T06:16:53Z</time>
      </trkpt>
      <trkpt lat="43.65564" lon="3.78201">
        <ele>81</ele>
        <time>2017-05-21T06:16:54Z</time>
      </trkpt>
      <trkpt lat="43.65563" lon="3.78196">
        <ele>81.2</ele>
        <time>2017-05-21T06:16:55Z</time>
      </trkpt>
      <trkpt lat="43.65563" lon="3.78191">
        <ele>82.2</ele>
        <time>2017-05-21T06:16:56Z</time>
      </trkpt>
      <trkpt lat="43.65564" lon="3.78187">
        <ele>82.8</ele>
        <time>2017-05-21T06:16:57Z</time>
      </trkpt>
      <trkpt lat="43.65561" lon="3.7818">
        <ele>83.4</ele>
        <time>2017-05-21T06:16:59Z</time>
      </trkpt>
      <trkpt lat="43.6556" lon="3.78175">
        <ele>83.6</ele>
        <time>2017-05-21T06:17:00Z</time>
      </trkpt>
      <trkpt lat="43.65558" lon="3.78172">
        <ele>84.1</ele>
        <time>2017-05-21T06:17:01Z</time>
      </trkpt>
      <trkpt lat="43.65555" lon="3.78168">
        <ele>84.1</ele>
        <time>2017-05-21T06:17:02Z</time>
      </trkpt>
      <trkpt lat="43.65553" lon="3.78163">
        <ele>84.1</ele>
        <time>2017-05-21T06:17:03Z</time>
      </trkpt>
      <trkpt lat="43.65551" lon="3.7816">
        <ele>84.1</ele>
        <time>2017-05-21T06:17:04Z</time>
      </trkpt>
      <trkpt lat="43.65549" lon="3.78156">
        <ele>84.3</ele>
        <time>2017-05-21T06:17:05Z</time>
      </trkpt>
      <trkpt lat="43.65546" lon="3.78152">
        <ele>84.2</ele>
        <time>2017-05-21T06:17:06Z</time>
      </trkpt>
      <trkpt lat="43.65544" lon="3.78149">
        <ele>83.8</ele>
        <time>2017-05-21T06:17:07Z</time>
      </trkpt>
      <trkpt lat="43.65541" lon="3.78141">
        <ele>83.8</ele>
        <time>2017-05-21T06:17:09Z</time>
      </trkpt>
      <trkpt lat="43.65539" lon="3.78136">
        <ele>83.5</ele>
        <time>2017-05-21T06:17:10Z</time>
      </trkpt>
      <trkpt lat="43.65538" lon="3.78132">
        <ele>83.6</ele>
        <time>2017-05-21T06:17:11Z</time>
      </trkpt>
      <trkpt lat="43.65536" lon="3.78126">
        <ele>83.3</ele>
        <time>2017-05-21T06:17:12Z</time>
      </trkpt>
      <trkpt lat="43.65535" lon="3.78122">
        <ele>83.2</ele>
        <time>2017-05-21T06:17:13Z</time>
      </trkpt>
      <trkpt lat="43.65535" lon="3.78116">
        <ele>83.2</ele>
        <time>2017-05-21T06:17:14Z</time>
      </trkpt>
      <trkpt lat="43.65534" lon="3.7811">
        <ele>83</ele>
        <time>2017-05-21T06:17:15Z</time>
      </trkpt>
      <trkpt lat="43.65533" lon="3.78105">
        <ele>82.6</ele>
        <time>2017-05-21T06:17:16Z</time>
      </trkpt>
      <trkpt lat="43.65532" lon="3.78098">
        <ele>82.5</ele>
        <time>2017-05-21T06:17:17Z</time>
      </trkpt>
      <trkpt lat="43.65533" lon="3.7809">
        <ele>82.7</ele>
        <time>2017-05-21T06:17:18Z</time>
      </trkpt>
      <trkpt lat="43.65534" lon="3.78082">
        <ele>82.4</ele>
        <time>2017-05-21T06:17:19Z</time>
      </trkpt>
      <trkpt lat="43.65535" lon="3.78076">
        <ele>82.2</ele>
        <time>2017-05-21T06:17:20Z</time>
      </trkpt>
      <trkpt lat="43.65536" lon="3.78067">
        <ele>82.2</ele>
        <time>2017-05-21T06:17:21Z</time>
      </trkpt>
      <trkpt lat="43.65536" lon="3.78059">
        <ele>81</ele>
        <time>2017-05-21T06:17:22Z</time>
      </trkpt>
      <trkpt lat="43.65535" lon="3.7805">
        <ele>80.3</ele>
        <time>2017-05-21T06:17:23Z</time>
      </trkpt>
      <trkpt lat="43.65535" lon="3.78042">
        <ele>79.5</ele>
        <time>2017-05-21T06:17:24Z</time>
      </trkpt>
      <trkpt lat="43.65534" lon="3.78035">
        <ele>78.8</ele>
        <time>2017-05-21T06:17:25Z</time>
      </trkpt>
      <trkpt lat="43.65532" lon="3.78029">
        <ele>78.2</ele>
        <time>2017-05-21T06:17:26Z</time>
      </trkpt>
      <trkpt lat="43.6553" lon="3.78023">
        <ele>77.6</ele>
        <time>2017-05-21T06:17:27Z</time>
      </trkpt>
      <trkpt lat="43.65527" lon="3.78018">
        <ele>77.2</ele>
        <time>2017-05-21T06:17:28Z</time>
      </trkpt>
      <trkpt lat="43.65524" lon="3.78012">
        <ele>77.3</ele>
        <time>2017-05-21T06:17:29Z</time>
      </trkpt>
      <trkpt lat="43.65523" lon="3.78005">
        <ele>76.8</ele>
        <time>2017-05-21T06:17:30Z</time>
      </trkpt>
      <trkpt lat="43.65521" lon="3.78">
        <ele>76.8</ele>
        <time>2017-05-21T06:17:31Z</time>
      </trkpt>
      <trkpt lat="43.65519" lon="3.77994">
        <ele>76.3</ele>
        <time>2017-05-21T06:17:32Z</time>
      </trkpt>
      <trkpt lat="43.65517" lon="3.77988">
        <ele>75.8</ele>
        <time>2017-05-21T06:17:33Z</time>
      </trkpt>
      <trkpt lat="43.65515" lon="3.77982">
        <ele>75.9</ele>
        <time>2017-05-21T06:17:34Z</time>
      </trkpt>
      <trkpt lat="43.65512" lon="3.77978">
        <ele>75.6</ele>
        <time>2017-05-21T06:17:35Z</time>
      </trkpt>
      <trkpt lat="43.65508" lon="3.77976">
        <ele>75.2</ele>
        <time>2017-05-21T06:17:36Z</time>
      </trkpt>
      <trkpt lat="43.65504" lon="3.77975">
        <ele>75</ele>
        <time>2017-05-21T06:17:37Z</time>
      </trkpt>
      <trkpt lat="43.65499" lon="3.77973">
        <ele>74.8</ele>
        <time>2017-05-21T06:17:38Z</time>
      </trkpt>
      <trkpt lat="43.65496" lon="3.77969">
        <ele>74.7</ele>
        <time>2017-05-21T06:17:39Z</time>
      </trkpt>
      <trkpt lat="43.65492" lon="3.77964">
        <ele>74.4</ele>
        <time>2017-05-21T06:17:40Z</time>
      </trkpt>
      <trkpt lat="43.65489" lon="3.77959">
        <ele>74.3</ele>
        <time>2017-05-21T06:17:41Z</time>
      </trkpt>
      <trkpt lat="43.65486" lon="3.77953">
        <ele>74.3</ele>
        <time>2017-05-21T06:17:42Z</time>
      </trkpt>
      <trkpt lat="43.65485" lon="3.77946">
        <ele>74.6</ele>
        <time>2017-05-21T06:17:43Z</time>
      </trkpt>
      <trkpt lat="43.65484" lon="3.7794">
        <ele>74.8</ele>
        <time>2017-05-21T06:17:44Z</time>
      </trkpt>
      <trkpt lat="43.65485" lon="3.77933">
        <ele>75.4</ele>
        <time>2017-05-21T06:17:45Z</time>
      </trkpt>
      <trkpt lat="43.65485" lon="3.77927">
        <ele>75.7</ele>
        <time>2017-05-21T06:17:46Z</time>
      </trkpt>
      <trkpt lat="43.65486" lon="3.77921">
        <ele>76.3</ele>
        <time>2017-05-21T06:17:47Z</time>
      </trkpt>
      <trkpt lat="43.65487" lon="3.77916">
        <ele>76.3</ele>
        <time>2017-05-21T06:17:48Z</time>
      </trkpt>
      <trkpt lat="43.65489" lon="3.77909">
        <ele>76.4</ele>
        <time>2017-05-21T06:17:49Z</time>
      </trkpt>
      <trkpt lat="43.65491" lon="3.77904">
        <ele>76.4</ele>
        <time>2017-05-21T06:17:50Z</time>
      </trkpt>
      <trkpt lat="43.65493" lon="3.779">
        <ele>76.5</ele>
        <time>2017-05-21T06:17:51Z</time>
      </trkpt>
      <trkpt lat="43.65493" lon="3.77894">
        <ele>76.8</ele>
        <time>2017-05-21T06:17:52Z</time>
      </trkpt>
      <trkpt lat="43.65494" lon="3.77889">
        <ele>77</ele>
        <time>2017-05-21T06:17:53Z</time>
      </trkpt>
      <trkpt lat="43.65494" lon="3.77884">
        <ele>77.3</ele>
        <time>2017-05-21T06:17:54Z</time>
      </trkpt>
      <trkpt lat="43.65494" lon="3.77879">
        <ele>77.7</ele>
        <time>2017-05-21T06:17:55Z</time>
      </trkpt>
      <trkpt lat="43.65495" lon="3.77873">
        <ele>78.4</ele>
        <time>2017-05-21T06:17:56Z</time>
      </trkpt>
      <trkpt lat="43.65496" lon="3.77868">
        <ele>78.8</ele>
        <time>2017-05-21T06:17:57Z</time>
      </trkpt>
      <trkpt lat="43.65498" lon="3.77865">
        <ele>79.1</ele>
        <time>2017-05-21T06:17:58Z</time>
      </trkpt>
      <trkpt lat="43.65499" lon="3.7786">
        <ele>79.4</ele>
        <time>2017-05-21T06:17:59Z</time>
      </trkpt>
      <trkpt lat="43.655" lon="3.77855">
        <ele>79.4</ele>
        <time>2017-05-21T06:18:00Z</time>
      </trkpt>
      <trkpt lat="43.65502" lon="3.77851">
        <ele>79.7</ele>
        <time>2017-05-21T06:18:01Z</time>
      </trkpt>
      <trkpt lat="43.65503" lon="3.77847">
        <ele>79.7</ele>
        <time>2017-05-21T06:18:02Z</time>
      </trkpt>
      <trkpt lat="43.65505" lon="3.77842">
        <ele>79.7</ele>
        <time>2017-05-21T06:18:03Z</time>
      </trkpt>
      <trkpt lat="43.65507" lon="3.77836">
        <ele>80.1</ele>
        <time>2017-05-21T06:18:04Z</time>
      </trkpt>
      <trkpt lat="43.65508" lon="3.77832">
        <ele>80.4</ele>
        <time>2017-05-21T06:18:05Z</time>
      </trkpt>
      <trkpt lat="43.6551" lon="3.77827">
        <ele>80.5</ele>
        <time>2017-05-21T06:18:06Z</time>
      </trkpt>
      <trkpt lat="43.65512" lon="3.77822">
        <ele>81.1</ele>
        <time>2017-05-21T06:18:07Z</time>
      </trkpt>
      <trkpt lat="43.65512" lon="3.77818">
        <ele>81.2</ele>
        <time>2017-05-21T06:18:08Z</time>
      </trkpt>
      <trkpt lat="43.65512" lon="3.77814">
        <ele>81.2</ele>
        <time>2017-05-21T06:18:09Z</time>
      </trkpt>
      <trkpt lat="43.65512" lon="3.7781">
        <ele>81.3</ele>
        <time>2017-05-21T06:18:10Z</time>
      </trkpt>
      <trkpt lat="43.65513" lon="3.77805">
        <ele>81.5</ele>
        <time>2017-05-21T06:18:11Z</time>
      </trkpt>
      <trkpt lat="43.65513" lon="3.77801">
        <ele>81.5</ele>
        <time>2017-05-21T06:18:35Z</time>
      </trkpt>
      <trkpt lat="43.65512" lon="3.77796">
        <ele>81.6</ele>
        <time>2017-05-21T06:18:37Z</time>
      </trkpt>
      <trkpt lat="43.65511" lon="3.77788">
        <ele>81.7</ele>
        <time>2017-05-21T06:18:39Z</time>
      </trkpt>
      <trkpt lat="43.65505" lon="3.77767">
        <ele>81.6</ele>
        <time>2017-05-21T06:19:05Z</time>
      </trkpt>
      <trkpt lat="43.65505" lon="3.77762">
        <ele>81.4</ele>
        <time>2017-05-21T06:19:06Z</time>
      </trkpt>
      <trkpt lat="43.65506" lon="3.77753">
        <ele>82.3</ele>
        <time>2017-05-21T06:19:07Z</time>
      </trkpt>
      <trkpt lat="43.65505" lon="3.77745">
        <ele>82.1</ele>
        <time>2017-05-21T06:19:08Z</time>
      </trkpt>
      <trkpt lat="43.65505" lon="3.77737">
        <ele>82.3</ele>
        <time>2017-05-21T06:19:09Z</time>
      </trkpt>
      <trkpt lat="43.65505" lon="3.77728">
        <ele>82.1</ele>
        <time>2017-05-21T06:19:10Z</time>
      </trkpt>
      <trkpt lat="43.65504" lon="3.7772">
        <ele>82</ele>
        <time>2017-05-21T06:19:11Z</time>
      </trkpt>
      <trkpt lat="43.65502" lon="3.77713">
        <ele>81.7</ele>
        <time>2017-05-21T06:19:12Z</time>
      </trkpt>
      <trkpt lat="43.65502" lon="3.77708">
        <ele>81.3</ele>
        <time>2017-05-21T06:19:13Z</time>
      </trkpt>
      <trkpt lat="43.65502" lon="3.77704">
        <ele>81.1</ele>
        <time>2017-05-21T06:19:14Z</time>
      </trkpt>
      <trkpt lat="43.65501" lon="3.77699">
        <ele>81</ele>
        <time>2017-05-21T06:19:16Z</time>
      </trkpt>
      <trkpt lat="43.65499" lon="3.77694">
        <ele>80.9</ele>
        <time>2017-05-21T06:19:25Z</time>
      </trkpt>
      <trkpt lat="43.65496" lon="3.77691">
        <ele>80.7</ele>
        <time>2017-05-21T06:19:28Z</time>
      </trkpt>
      <trkpt lat="43.65496" lon="3.77685">
        <ele>80.7</ele>
        <time>2017-05-21T06:19:30Z</time>
      </trkpt>
      <trkpt lat="43.65496" lon="3.7768">
        <ele>80.7</ele>
        <time>2017-05-21T06:19:31Z</time>
      </trkpt>
      <trkpt lat="43.65497" lon="3.77676">
        <ele>80.8</ele>
        <time>2017-05-21T06:19:32Z</time>
      </trkpt>
      <trkpt lat="43.65497" lon="3.77672">
        <ele>80.8</ele>
        <time>2017-05-21T06:19:33Z</time>
      </trkpt>
      <trkpt lat="43.65497" lon="3.77668">
        <ele>80.9</ele>
        <time>2017-05-21T06:19:34Z</time>
      </trkpt>
      <trkpt lat="43.65497" lon="3.77663">
        <ele>81</ele>
        <time>2017-05-21T06:19:35Z</time>
      </trkpt>
      <trkpt lat="43.65496" lon="3.77658">
        <ele>81.1</ele>
        <time>2017-05-21T06:19:36Z</time>
      </trkpt>
      <trkpt lat="43.65496" lon="3.77654">
        <ele>81.1</ele>
        <time>2017-05-21T06:19:37Z</time>
      </trkpt>
      <trkpt lat="43.65496" lon="3.77649">
        <ele>81.2</ele>
        <time>2017-05-21T06:19:38Z</time>
      </trkpt>
      <trkpt lat="43.65496" lon="3.77645">
        <ele>81.4</ele>
        <time>2017-05-21T06:19:39Z</time>
      </trkpt>
      <trkpt lat="43.65494" lon="3.77641">
        <ele>81.5</ele>
        <time>2017-05-21T06:19:40Z</time>
      </trkpt>
      <trkpt lat="43.65493" lon="3.77634">
        <ele>81.5</ele>
        <time>2017-05-21T06:19:42Z</time>
      </trkpt>
      <trkpt lat="43.65492" lon="3.77629">
        <ele>81.8</ele>
        <time>2017-05-21T06:19:43Z</time>
      </trkpt>
      <trkpt lat="43.65493" lon="3.77625">
        <ele>81.5</ele>
        <time>2017-05-21T06:19:44Z</time>
      </trkpt>
      <trkpt lat="43.65494" lon="3.77621">
        <ele>81.5</ele>
        <time>2017-05-21T06:19:45Z</time>
      </trkpt>
      <trkpt lat="43.65495" lon="3.77615">
        <ele>81.7</ele>
        <time>2017-05-21T06:19:46Z</time>
      </trkpt>
      <trkpt lat="43.65495" lon="3.7761">
        <ele>81.8</ele>
        <time>2017-05-21T06:19:47Z</time>
      </trkpt>
      <trkpt lat="43.65495" lon="3.77605">
        <ele>82.1</ele>
        <time>2017-05-21T06:19:48Z</time>
      </trkpt>
      <trkpt lat="43.65495" lon="3.77599">
        <ele>82.9</ele>
        <time>2017-05-21T06:19:49Z</time>
      </trkpt>
      <trkpt lat="43.65495" lon="3.77594">
        <ele>83.3</ele>
        <time>2017-05-21T06:19:50Z</time>
      </trkpt>
      <trkpt lat="43.65495" lon="3.77589">
        <ele>83.7</ele>
        <time>2017-05-21T06:19:51Z</time>
      </trkpt>
      <trkpt lat="43.65497" lon="3.77583">
        <ele>83.6</ele>
        <time>2017-05-21T06:19:52Z</time>
      </trkpt>
      <trkpt lat="43.65498" lon="3.77578">
        <ele>83.9</ele>
        <time>2017-05-21T06:19:53Z</time>
      </trkpt>
      <trkpt lat="43.65498" lon="3.77572">
        <ele>84.3</ele>
        <time>2017-05-21T06:19:54Z</time>
      </trkpt>
      <trkpt lat="43.65496" lon="3.77567">
        <ele>84.4</ele>
        <time>2017-05-21T06:19:55Z</time>
      </trkpt>
      <trkpt lat="43.65496" lon="3.7756">
        <ele>84.6</ele>
        <time>2017-05-21T06:19:56Z</time>
      </trkpt>
      <trkpt lat="43.65497" lon="3.77557">
        <ele>84.5</ele>
        <time>2017-05-21T06:19:57Z</time>
      </trkpt>
      <trkpt lat="43.65499" lon="3.77551">
        <ele>84.4</ele>
        <time>2017-05-21T06:19:58Z</time>
      </trkpt>
      <trkpt lat="43.65501" lon="3.77545">
        <ele>84.4</ele>
        <time>2017-05-21T06:19:59Z</time>
      </trkpt>
      <trkpt lat="43.65502" lon="3.77539">
        <ele>84.3</ele>
        <time>2017-05-21T06:20:00Z</time>
      </trkpt>
      <trkpt lat="43.65504" lon="3.77534">
        <ele>84.3</ele>
        <time>2017-05-21T06:20:01Z</time>
      </trkpt>
      <trkpt lat="43.65505" lon="3.77528">
        <ele>84.2</ele>
        <time>2017-05-21T06:20:02Z</time>
      </trkpt>
      <trkpt lat="43.65506" lon="3.77522">
        <ele>84.2</ele>
        <time>2017-05-21T06:20:03Z</time>
      </trkpt>
      <trkpt lat="43.65508" lon="3.77515">
        <ele>84.1</ele>
        <time>2017-05-21T06:20:04Z</time>
      </trkpt>
      <trkpt lat="43.65508" lon="3.77508">
        <ele>84</ele>
        <time>2017-05-21T06:20:05Z</time>
      </trkpt>
      <trkpt lat="43.65509" lon="3.77502">
        <ele>84</ele>
        <time>2017-05-21T06:20:06Z</time>
      </trkpt>
      <trkpt lat="43.65512" lon="3.77497">
        <ele>83.9</ele>
        <time>2017-05-21T06:20:07Z</time>
      </trkpt>
      <trkpt lat="43.65514" lon="3.7749">
        <ele>83.9</ele>
        <time>2017-05-21T06:20:08Z</time>
      </trkpt>
      <trkpt lat="43.65516" lon="3.77483">
        <ele>83.8</ele>
        <time>2017-05-21T06:20:09Z</time>
      </trkpt>
      <trkpt lat="43.65519" lon="3.77476">
        <ele>83.7</ele>
        <time>2017-05-21T06:20:10Z</time>
      </trkpt>
      <trkpt lat="43.65521" lon="3.77468">
        <ele>83.4</ele>
        <time>2017-05-21T06:20:11Z</time>
      </trkpt>
      <trkpt lat="43.65523" lon="3.77461">
        <ele>83.2</ele>
        <time>2017-05-21T06:20:12Z</time>
      </trkpt>
      <trkpt lat="43.65525" lon="3.77453">
        <ele>82.9</ele>
        <time>2017-05-21T06:20:13Z</time>
      </trkpt>
      <trkpt lat="43.65528" lon="3.77446">
        <ele>82.7</ele>
        <time>2017-05-21T06:20:14Z</time>
      </trkpt>
      <trkpt lat="43.65531" lon="3.7744">
        <ele>82.6</ele>
        <time>2017-05-21T06:20:15Z</time>
      </trkpt>
      <trkpt lat="43.65536" lon="3.77434">
        <ele>82.5</ele>
        <time>2017-05-21T06:20:16Z</time>
      </trkpt>
      <trkpt lat="43.65539" lon="3.77428">
        <ele>82.5</ele>
        <time>2017-05-21T06:20:17Z</time>
      </trkpt>
      <trkpt lat="43.65543" lon="3.77423">
        <ele>82.5</ele>
        <time>2017-05-21T06:20:18Z</time>
      </trkpt>
      <trkpt lat="43.65547" lon="3.77418">
        <ele>82.5</ele>
        <time>2017-05-21T06:20:19Z</time>
      </trkpt>
      <trkpt lat="43.6555" lon="3.77411">
        <ele>82.5</ele>
        <time>2017-05-21T06:20:20Z</time>
      </trkpt>
      <trkpt lat="43.65553" lon="3.77403">
        <ele>82.6</ele>
        <time>2017-05-21T06:20:21Z</time>
      </trkpt>
      <trkpt lat="43.65556" lon="3.77399">
        <ele>82.6</ele>
        <time>2017-05-21T06:20:22Z</time>
      </trkpt>
      <trkpt lat="43.65559" lon="3.77393">
        <ele>82.6</ele>
        <time>2017-05-21T06:20:23Z</time>
      </trkpt>
      <trkpt lat="43.65562" lon="3.77387">
        <ele>82.7</ele>
        <time>2017-05-21T06:20:24Z</time>
      </trkpt>
      <trkpt lat="43.65565" lon="3.77382">
        <ele>82.7</ele>
        <time>2017-05-21T06:20:25Z</time>
      </trkpt>
      <trkpt lat="43.65568" lon="3.77378">
        <ele>82.7</ele>
        <time>2017-05-21T06:20:26Z</time>
      </trkpt>
      <trkpt lat="43.65571" lon="3.77372">
        <ele>82.8</ele>
        <time>2017-05-21T06:20:27Z</time>
      </trkpt>
      <trkpt lat="43.65574" lon="3.77365">
        <ele>82.9</ele>
        <time>2017-05-21T06:20:28Z</time>
      </trkpt>
      <trkpt lat="43.65576" lon="3.77359">
        <ele>83</ele>
        <time>2017-05-21T06:20:29Z</time>
      </trkpt>
      <trkpt lat="43.65578" lon="3.77352">
        <ele>83.2</ele>
        <time>2017-05-21T06:20:30Z</time>
      </trkpt>
      <trkpt lat="43.6558" lon="3.77346">
        <ele>83.5</ele>
        <time>2017-05-21T06:20:31Z</time>
      </trkpt>
      <trkpt lat="43.65582" lon="3.77338">
        <ele>83.8</ele>
        <time>2017-05-21T06:20:32Z</time>
      </trkpt>
      <trkpt lat="43.65583" lon="3.77165">
        <ele>87.4</ele>
        <time>2017-05-21T06:20:59Z</time>
      </trkpt>
      <trkpt lat="43.65581" lon="3.77161">
        <ele>87.5</ele>
        <time>2017-05-21T06:21:00Z</time>
      </trkpt>
      <trkpt lat="43.65581" lon="3.77155">
        <ele>87.7</ele>
        <time>2017-05-21T06:21:01Z</time>
      </trkpt>
      <trkpt lat="43.65579" lon="3.77149">
        <ele>87.9</ele>
        <time>2017-05-21T06:21:02Z</time>
      </trkpt>
      <trkpt lat="43.65578" lon="3.77144">
        <ele>88.3</ele>
        <time>2017-05-21T06:21:03Z</time>
      </trkpt>
      <trkpt lat="43.65579" lon="3.77137">
        <ele>88.8</ele>
        <time>2017-05-21T06:21:04Z</time>
      </trkpt>
      <trkpt lat="43.6558" lon="3.77132">
        <ele>89</ele>
        <time>2017-05-21T06:21:05Z</time>
      </trkpt>
      <trkpt lat="43.6558" lon="3.77126">
        <ele>89.1</ele>
        <time>2017-05-21T06:21:06Z</time>
      </trkpt>
      <trkpt lat="43.6558" lon="3.77119">
        <ele>89.3</ele>
        <time>2017-05-21T06:21:07Z</time>
      </trkpt>
      <trkpt lat="43.6558" lon="3.77113">
        <ele>89.4</ele>
        <time>2017-05-21T06:21:08Z</time>
      </trkpt>
      <trkpt lat="43.6558" lon="3.77107">
        <ele>89.7</ele>
        <time>2017-05-21T06:21:09Z</time>
      </trkpt>
      <trkpt lat="43.65581" lon="3.77101">
        <ele>90</ele>
        <time>2017-05-21T06:21:10Z</time>
      </trkpt>
      <trkpt lat="43.65581" lon="3.77095">
        <ele>90.4</ele>
        <time>2017-05-21T06:21:11Z</time>
      </trkpt>
      <trkpt lat="43.65582" lon="3.77088">
        <ele>90.8</ele>
        <time>2017-05-21T06:21:12Z</time>
      </trkpt>
      <trkpt lat="43.65583" lon="3.77083">
        <ele>91.1</ele>
        <time>2017-05-21T06:21:13Z</time>
      </trkpt>
      <trkpt lat="43.65584" lon="3.77076">
        <ele>91.2</ele>
        <time>2017-05-21T06:21:14Z</time>
      </trkpt>
      <trkpt lat="43.65584" lon="3.7707">
        <ele>91.3</ele>
        <time>2017-05-21T06:21:15Z</time>
      </trkpt>
      <trkpt lat="43.65585" lon="3.77065">
        <ele>91.4</ele>
        <time>2017-05-21T06:21:16Z</time>
      </trkpt>
      <trkpt lat="43.65586" lon="3.77059">
        <ele>91.4</ele>
        <time>2017-05-21T06:21:17Z</time>
      </trkpt>
      <trkpt lat="43.65587" lon="3.77053">
        <ele>91.5</ele>
        <time>2017-05-21T06:21:18Z</time>
      </trkpt>
      <trkpt lat="43.65588" lon="3.77047">
        <ele>91.6</ele>
        <time>2017-05-21T06:21:19Z</time>
      </trkpt>
      <trkpt lat="43.65588" lon="3.77042">
        <ele>91.7</ele>
        <time>2017-05-21T06:21:20Z</time>
      </trkpt>
      <trkpt lat="43.65589" lon="3.77036">
        <ele>91.8</ele>
        <time>2017-05-21T06:21:21Z</time>
      </trkpt>
      <trkpt lat="43.65589" lon="3.77031">
        <ele>92</ele>
        <time>2017-05-21T06:21:22Z</time>
      </trkpt>
      <trkpt lat="43.6559" lon="3.77025">
        <ele>92.2</ele>
        <time>2017-05-21T06:21:23Z</time>
      </trkpt>
      <trkpt lat="43.6559" lon="3.77019">
        <ele>92.6</ele>
        <time>2017-05-21T06:21:24Z</time>
      </trkpt>
      <trkpt lat="43.65592" lon="3.77013">
        <ele>93</ele>
        <time>2017-05-21T06:21:25Z</time>
      </trkpt>
      <trkpt lat="43.65592" lon="3.77008">
        <ele>93.2</ele>
        <time>2017-05-21T06:21:26Z</time>
      </trkpt>
      <trkpt lat="43.65593" lon="3.77002">
        <ele>93.3</ele>
        <time>2017-05-21T06:21:27Z</time>
      </trkpt>
      <trkpt lat="43.65593" lon="3.76997">
        <ele>93.4</ele>
        <time>2017-05-21T06:21:28Z</time>
      </trkpt>
      <trkpt lat="43.65593" lon="3.76991">
        <ele>93.5</ele>
        <time>2017-05-21T06:21:29Z</time>
      </trkpt>
      <trkpt lat="43.65594" lon="3.76985">
        <ele>93.6</ele>
        <time>2017-05-21T06:21:30Z</time>
      </trkpt>
      <trkpt lat="43.65594" lon="3.7698">
        <ele>93.7</ele>
        <time>2017-05-21T06:21:31Z</time>
      </trkpt>
      <trkpt lat="43.65594" lon="3.76975">
        <ele>93.8</ele>
        <time>2017-05-21T06:21:32Z</time>
      </trkpt>
      <trkpt lat="43.65595" lon="3.7697">
        <ele>93.9</ele>
        <time>2017-05-21T06:21:33Z</time>
      </trkpt>
      <trkpt lat="43.65595" lon="3.76964">
        <ele>94</ele>
        <time>2017-05-21T06:21:34Z</time>
      </trkpt>
      <trkpt lat="43.65595" lon="3.7696">
        <ele>94</ele>
        <time>2017-05-21T06:21:35Z</time>
      </trkpt>
      <trkpt lat="43.65595" lon="3.76956">
        <ele>94.1</ele>
        <time>2017-05-21T06:21:36Z</time>
      </trkpt>
      <trkpt lat="43.65595" lon="3.76952">
        <ele>94.2</ele>
        <time>2017-05-21T06:21:37Z</time>
      </trkpt>
      <trkpt lat="43.65595" lon="3.76947">
        <ele>94.4</ele>
        <time>2017-05-21T06:21:38Z</time>
      </trkpt>
      <trkpt lat="43.65596" lon="3.76942">
        <ele>94.5</ele>
        <time>2017-05-21T06:21:39Z</time>
      </trkpt>
      <trkpt lat="43.65594" lon="3.76937">
        <ele>94.7</ele>
        <time>2017-05-21T06:21:40Z</time>
      </trkpt>
      <trkpt lat="43.65592" lon="3.76934">
        <ele>95.1</ele>
        <time>2017-05-21T06:21:41Z</time>
      </trkpt>
      <trkpt lat="43.6559" lon="3.76932">
        <ele>95.5</ele>
        <time>2017-05-21T06:21:42Z</time>
      </trkpt>
      <trkpt lat="43.65584" lon="3.76932">
        <ele>95.4</ele>
        <time>2017-05-21T06:21:44Z</time>
      </trkpt>
      <trkpt lat="43.65582" lon="3.76928">
        <ele>95.4</ele>
        <time>2017-05-21T06:21:45Z</time>
      </trkpt>
      <trkpt lat="43.65582" lon="3.76923">
        <ele>95.4</ele>
        <time>2017-05-21T06:21:46Z</time>
      </trkpt>
      <trkpt lat="43.65582" lon="3.76918">
        <ele>95.5</ele>
        <time>2017-05-21T06:21:47Z</time>
      </trkpt>
      <trkpt lat="43.65582" lon="3.76913">
        <ele>95.6</ele>
        <time>2017-05-21T06:21:48Z</time>
      </trkpt>
      <trkpt lat="43.65582" lon="3.76905">
        <ele>95.7</ele>
        <time>2017-05-21T06:21:49Z</time>
      </trkpt>
      <trkpt lat="43.65581" lon="3.76899">
        <ele>95.7</ele>
        <time>2017-05-21T06:21:50Z</time>
      </trkpt>
      <trkpt lat="43.6558" lon="3.76893">
        <ele>95.6</ele>
        <time>2017-05-21T06:21:51Z</time>
      </trkpt>
      <trkpt lat="43.65579" lon="3.76887">
        <ele>95.4</ele>
        <time>2017-05-21T06:21:52Z</time>
      </trkpt>
      <trkpt lat="43.6558" lon="3.76882">
        <ele>95.1</ele>
        <time>2017-05-21T06:21:53Z</time>
      </trkpt>
      <trkpt lat="43.6558" lon="3.76876">
        <ele>94.8</ele>
        <time>2017-05-21T06:21:54Z</time>
      </trkpt>
      <trkpt lat="43.65579" lon="3.76872">
        <ele>94.3</ele>
        <time>2017-05-21T06:21:55Z</time>
      </trkpt>
      <trkpt lat="43.65578" lon="3.76867">
        <ele>94</ele>
        <time>2017-05-21T06:21:56Z</time>
      </trkpt>
      <trkpt lat="43.65578" lon="3.76861">
        <ele>93.6</ele>
        <time>2017-05-21T06:21:57Z</time>
      </trkpt>
      <trkpt lat="43.65579" lon="3.76857">
        <ele>92.9</ele>
        <time>2017-05-21T06:21:58Z</time>
      </trkpt>
      <trkpt lat="43.65579" lon="3.76852">
        <ele>92.5</ele>
        <time>2017-05-21T06:21:59Z</time>
      </trkpt>
      <trkpt lat="43.65579" lon="3.76847">
        <ele>92.2</ele>
        <time>2017-05-21T06:22:00Z</time>
      </trkpt>
      <trkpt lat="43.65578" lon="3.76843">
        <ele>92</ele>
        <time>2017-05-21T06:22:01Z</time>
      </trkpt>
      <trkpt lat="43.65577" lon="3.76838">
        <ele>91.8</ele>
        <time>2017-05-21T06:22:02Z</time>
      </trkpt>
      <trkpt lat="43.65576" lon="3.76834">
        <ele>91.7</ele>
        <time>2017-05-21T06:22:03Z</time>
      </trkpt>
      <trkpt lat="43.65574" lon="3.7683">
        <ele>91.6</ele>
        <time>2017-05-21T06:22:04Z</time>
      </trkpt>
      <trkpt lat="43.65573" lon="3.76826">
        <ele>91.7</ele>
        <time>2017-05-21T06:22:05Z</time>
      </trkpt>
      <trkpt lat="43.65572" lon="3.76822">
        <ele>91.8</ele>
        <time>2017-05-21T06:22:06Z</time>
      </trkpt>
      <trkpt lat="43.65571" lon="3.76816">
        <ele>92</ele>
        <time>2017-05-21T06:22:08Z</time>
      </trkpt>
      <trkpt lat="43.6557" lon="3.76813">
        <ele>92.3</ele>
        <time>2017-05-21T06:22:09Z</time>
      </trkpt>
      <trkpt lat="43.65568" lon="3.76807">
        <ele>92.6</ele>
        <time>2017-05-21T06:22:11Z</time>
      </trkpt>
      <trkpt lat="43.65566" lon="3.76803">
        <ele>93.1</ele>
        <time>2017-05-21T06:22:13Z</time>
      </trkpt>
      <trkpt lat="43.65568" lon="3.76798">
        <ele>93.1</ele>
        <time>2017-05-21T06:22:15Z</time>
      </trkpt>
      <trkpt lat="43.65572" lon="3.76794">
        <ele>92.9</ele>
        <time>2017-05-21T06:22:17Z</time>
      </trkpt>
      <trkpt lat="43.65575" lon="3.76791">
        <ele>92.7</ele>
        <time>2017-05-21T06:22:18Z</time>
      </trkpt>
      <trkpt lat="43.65578" lon="3.76787">
        <ele>92.4</ele>
        <time>2017-05-21T06:22:19Z</time>
      </trkpt>
      <trkpt lat="43.6558" lon="3.76784">
        <ele>92.1</ele>
        <time>2017-05-21T06:22:20Z</time>
      </trkpt>
      <trkpt lat="43.65581" lon="3.76781">
        <ele>92.1</ele>
        <time>2017-05-21T06:22:21Z</time>
      </trkpt>
      <trkpt lat="43.65583" lon="3.76776">
        <ele>91.9</ele>
        <time>2017-05-21T06:22:22Z</time>
      </trkpt>
      <trkpt lat="43.65585" lon="3.76771">
        <ele>92</ele>
        <time>2017-05-21T06:22:23Z</time>
      </trkpt>
      <trkpt lat="43.65587" lon="3.76767">
        <ele>91.7</ele>
        <time>2017-05-21T06:22:24Z</time>
      </trkpt>
      <trkpt lat="43.6559" lon="3.76763">
        <ele>91.4</ele>
        <time>2017-05-21T06:22:25Z</time>
      </trkpt>
      <trkpt lat="43.65592" lon="3.76759">
        <ele>91.3</ele>
        <time>2017-05-21T06:22:26Z</time>
      </trkpt>
      <trkpt lat="43.65594" lon="3.76755">
        <ele>90.8</ele>
        <time>2017-05-21T06:22:27Z</time>
      </trkpt>
      <trkpt lat="43.65595" lon="3.76751">
        <ele>90.2</ele>
        <time>2017-05-21T06:22:28Z</time>
      </trkpt>
      <trkpt lat="43.65596" lon="3.76748">
        <ele>90.1</ele>
        <time>2017-05-21T06:22:29Z</time>
      </trkpt>
      <trkpt lat="43.65598" lon="3.76743">
        <ele>90</ele>
        <time>2017-05-21T06:22:30Z</time>
      </trkpt>
      <trkpt lat="43.65599" lon="3.76738">
        <ele>89.5</ele>
        <time>2017-05-21T06:22:31Z</time>
      </trkpt>
      <trkpt lat="43.656" lon="3.76734">
        <ele>89.5</ele>
        <time>2017-05-21T06:22:32Z</time>
      </trkpt>
      <trkpt lat="43.65601" lon="3.76729">
        <ele>89.5</ele>
        <time>2017-05-21T06:22:33Z</time>
      </trkpt>
      <trkpt lat="43.65602" lon="3.76724">
        <ele>89.4</ele>
        <time>2017-05-21T06:22:34Z</time>
      </trkpt>
      <trkpt lat="43.65604" lon="3.7672">
        <ele>89.4</ele>
        <time>2017-05-21T06:22:35Z</time>
      </trkpt>
      <trkpt lat="43.65605" lon="3.76716">
        <ele>89.3</ele>
        <time>2017-05-21T06:22:36Z</time>
      </trkpt>
      <trkpt lat="43.65607" lon="3.76713">
        <ele>89.4</ele>
        <time>2017-05-21T06:22:37Z</time>
      </trkpt>
      <trkpt lat="43.65609" lon="3.76711">
        <ele>89.3</ele>
        <time>2017-05-21T06:22:38Z</time>
      </trkpt>
      <trkpt lat="43.65615" lon="3.7671">
        <ele>89</ele>
        <time>2017-05-21T06:22:40Z</time>
      </trkpt>
      <trkpt lat="43.65618" lon="3.7671">
        <ele>88.8</ele>
        <time>2017-05-21T06:22:41Z</time>
      </trkpt>
      <trkpt lat="43.65621" lon="3.7671">
        <ele>88.6</ele>
        <time>2017-05-21T06:22:42Z</time>
      </trkpt>
      <trkpt lat="43.65626" lon="3.7671">
        <ele>88.3</ele>
        <time>2017-05-21T06:22:43Z</time>
      </trkpt>
      <trkpt lat="43.6563" lon="3.76712">
        <ele>88</ele>
        <time>2017-05-21T06:22:44Z</time>
      </trkpt>
      <trkpt lat="43.65635" lon="3.76714">
        <ele>88</ele>
        <time>2017-05-21T06:22:45Z</time>
      </trkpt>
      <trkpt lat="43.65639" lon="3.76717">
        <ele>88.1</ele>
        <time>2017-05-21T06:22:46Z</time>
      </trkpt>
      <trkpt lat="43.65645" lon="3.7672">
        <ele>88.6</ele>
        <time>2017-05-21T06:22:47Z</time>
      </trkpt>
      <trkpt lat="43.6565" lon="3.76721">
        <ele>88.7</ele>
        <time>2017-05-21T06:22:48Z</time>
      </trkpt>
      <trkpt lat="43.65654" lon="3.76723">
        <ele>88.9</ele>
        <time>2017-05-21T06:22:49Z</time>
      </trkpt>
      <trkpt lat="43.65658" lon="3.76723">
        <ele>89.2</ele>
        <time>2017-05-21T06:22:50Z</time>
      </trkpt>
      <trkpt lat="43.65662" lon="3.7672">
        <ele>89.3</ele>
        <time>2017-05-21T06:22:51Z</time>
      </trkpt>
      <trkpt lat="43.65666" lon="3.76716">
        <ele>89.3</ele>
        <time>2017-05-21T06:22:52Z</time>
      </trkpt>
      <trkpt lat="43.65669" lon="3.76712">
        <ele>89.3</ele>
        <time>2017-05-21T06:22:53Z</time>
      </trkpt>
      <trkpt lat="43.6567" lon="3.76707">
        <ele>89.2</ele>
        <time>2017-05-21T06:22:54Z</time>
      </trkpt>
      <trkpt lat="43.65671" lon="3.76701">
        <ele>89.3</ele>
        <time>2017-05-21T06:22:55Z</time>
      </trkpt>
      <trkpt lat="43.65672" lon="3.76696">
        <ele>89.3</ele>
        <time>2017-05-21T06:22:56Z</time>
      </trkpt>
      <trkpt lat="43.65672" lon="3.7669">
        <ele>89.3</ele>
        <time>2017-05-21T06:22:57Z</time>
      </trkpt>
      <trkpt lat="43.65673" lon="3.76685">
        <ele>89.2</ele>
        <time>2017-05-21T06:22:58Z</time>
      </trkpt>
      <trkpt lat="43.65674" lon="3.7668">
        <ele>89.3</ele>
        <time>2017-05-21T06:22:59Z</time>
      </trkpt>
      <trkpt lat="43.65675" lon="3.76675">
        <ele>89.3</ele>
        <time>2017-05-21T06:23:01Z</time>
      </trkpt>
      <trkpt lat="43.65677" lon="3.76674">
        <ele>89.2</ele>
        <time>2017-05-21T06:23:03Z</time>
      </trkpt>
      <trkpt lat="43.6568" lon="3.76674">
        <ele>89</ele>
        <time>2017-05-21T06:23:04Z</time>
      </trkpt>
      <trkpt lat="43.65683" lon="3.76676">
        <ele>88.9</ele>
        <time>2017-05-21T06:23:05Z</time>
      </trkpt>
      <trkpt lat="43.65685" lon="3.76679">
        <ele>88.7</ele>
        <time>2017-05-21T06:23:06Z</time>
      </trkpt>
      <trkpt lat="43.65687" lon="3.76682">
        <ele>88.6</ele>
        <time>2017-05-21T06:23:07Z</time>
      </trkpt>
      <trkpt lat="43.65689" lon="3.76685">
        <ele>88.3</ele>
        <time>2017-05-21T06:23:08Z</time>
      </trkpt>
      <trkpt lat="43.65692" lon="3.76687">
        <ele>88</ele>
        <time>2017-05-21T06:23:10Z</time>
      </trkpt>
      <trkpt lat="43.65694" lon="3.76688">
        <ele>87.7</ele>
        <time>2017-05-21T06:23:13Z</time>
      </trkpt>
      <trkpt lat="43.65696" lon="3.76691">
        <ele>87.6</ele>
        <time>2017-05-21T06:23:19Z</time>
      </trkpt>
      <trkpt lat="43.65699" lon="3.76692">
        <ele>87.3</ele>
        <time>2017-05-21T06:23:23Z</time>
      </trkpt>
      <trkpt lat="43.65702" lon="3.76692">
        <ele>87.1</ele>
        <time>2017-05-21T06:23:34Z</time>
      </trkpt>
      <trkpt lat="43.65705" lon="3.76688">
        <ele>87.2</ele>
        <time>2017-05-21T06:23:38Z</time>
      </trkpt>
      <trkpt lat="43.65705" lon="3.76684">
        <ele>87.4</ele>
        <time>2017-05-21T06:23:40Z</time>
      </trkpt>
      <trkpt lat="43.65703" lon="3.76679">
        <ele>87.9</ele>
        <time>2017-05-21T06:23:42Z</time>
      </trkpt>
      <trkpt lat="43.65702" lon="3.76674">
        <ele>88.1</ele>
        <time>2017-05-21T06:23:44Z</time>
      </trkpt>
      <trkpt lat="43.657" lon="3.76668">
        <ele>88.6</ele>
        <time>2017-05-21T06:23:46Z</time>
      </trkpt>
      <trkpt lat="43.65697" lon="3.76661">
        <ele>88.7</ele>
        <time>2017-05-21T06:23:48Z</time>
      </trkpt>
      <trkpt lat="43.65695" lon="3.76654">
        <ele>88.7</ele>
        <time>2017-05-21T06:23:50Z</time>
      </trkpt>
      <trkpt lat="43.65694" lon="3.76649">
        <ele>88.8</ele>
        <time>2017-05-21T06:23:51Z</time>
      </trkpt>
      <trkpt lat="43.65693" lon="3.76644">
        <ele>88.8</ele>
        <time>2017-05-21T06:23:52Z</time>
      </trkpt>
      <trkpt lat="43.65692" lon="3.76637">
        <ele>88.8</ele>
        <time>2017-05-21T06:23:54Z</time>
      </trkpt>
      <trkpt lat="43.65691" lon="3.76632">
        <ele>89</ele>
        <time>2017-05-21T06:23:55Z</time>
      </trkpt>
      <trkpt lat="43.65691" lon="3.76628">
        <ele>89.2</ele>
        <time>2017-05-21T06:23:56Z</time>
      </trkpt>
      <trkpt lat="43.6569" lon="3.7662">
        <ele>89.6</ele>
        <time>2017-05-21T06:23:58Z</time>
      </trkpt>
      <trkpt lat="43.6569" lon="3.76612">
        <ele>89.8</ele>
        <time>2017-05-21T06:24:00Z</time>
      </trkpt>
      <trkpt lat="43.6569" lon="3.76608">
        <ele>89.8</ele>
        <time>2017-05-21T06:24:01Z</time>
      </trkpt>
      <trkpt lat="43.65689" lon="3.76604">
        <ele>89.9</ele>
        <time>2017-05-21T06:24:02Z</time>
      </trkpt>
      <trkpt lat="43.6569" lon="3.76599">
        <ele>90</ele>
        <time>2017-05-21T06:24:03Z</time>
      </trkpt>
      <trkpt lat="43.65689" lon="3.76595">
        <ele>90</ele>
        <time>2017-05-21T06:24:04Z</time>
      </trkpt>
      <trkpt lat="43.65689" lon="3.76591">
        <ele>90.2</ele>
        <time>2017-05-21T06:24:05Z</time>
      </trkpt>
      <trkpt lat="43.6569" lon="3.76587">
        <ele>90.4</ele>
        <time>2017-05-21T06:24:06Z</time>
      </trkpt>
      <trkpt lat="43.6569" lon="3.76583">
        <ele>90.6</ele>
        <time>2017-05-21T06:24:07Z</time>
      </trkpt>
      <trkpt lat="43.6569" lon="3.76579">
        <ele>91</ele>
        <time>2017-05-21T06:24:08Z</time>
      </trkpt>
      <trkpt lat="43.6569" lon="3.76571">
        <ele>91.9</ele>
        <time>2017-05-21T06:24:10Z</time>
      </trkpt>
      <trkpt lat="43.65691" lon="3.76566">
        <ele>92.4</ele>
        <time>2017-05-21T06:24:11Z</time>
      </trkpt>
      <trkpt lat="43.65691" lon="3.76562">
        <ele>92.9</ele>
        <time>2017-05-21T06:24:12Z</time>
      </trkpt>
      <trkpt lat="43.65691" lon="3.76558">
        <ele>93.6</ele>
        <time>2017-05-21T06:24:13Z</time>
      </trkpt>
      <trkpt lat="43.65692" lon="3.76554">
        <ele>94</ele>
        <time>2017-05-21T06:24:14Z</time>
      </trkpt>
      <trkpt lat="43.65693" lon="3.7655">
        <ele>94.2</ele>
        <time>2017-05-21T06:24:15Z</time>
      </trkpt>
      <trkpt lat="43.65693" lon="3.76546">
        <ele>94.4</ele>
        <time>2017-05-21T06:24:16Z</time>
      </trkpt>
      <trkpt lat="43.65694" lon="3.76542">
        <ele>94.6</ele>
        <time>2017-05-21T06:24:17Z</time>
      </trkpt>
      <trkpt lat="43.65695" lon="3.76538">
        <ele>95</ele>
        <time>2017-05-21T06:24:18Z</time>
      </trkpt>
      <trkpt lat="43.65696" lon="3.76533">
        <ele>95.1</ele>
        <time>2017-05-21T06:24:19Z</time>
      </trkpt>
      <trkpt lat="43.65696" lon="3.76529">
        <ele>95.2</ele>
        <time>2017-05-21T06:24:20Z</time>
      </trkpt>
      <trkpt lat="43.65697" lon="3.76524">
        <ele>95.4</ele>
        <time>2017-05-21T06:24:21Z</time>
      </trkpt>
      <trkpt lat="43.65698" lon="3.76519">
        <ele>96</ele>
        <time>2017-05-21T06:24:22Z</time>
      </trkpt>
      <trkpt lat="43.65698" lon="3.76515">
        <ele>96.3</ele>
        <time>2017-05-21T06:24:23Z</time>
      </trkpt>
      <trkpt lat="43.65701" lon="3.76507">
        <ele>97.1</ele>
        <time>2017-05-21T06:24:25Z</time>
      </trkpt>
      <trkpt lat="43.65702" lon="3.76503">
        <ele>97.2</ele>
        <time>2017-05-21T06:24:26Z</time>
      </trkpt>
      <trkpt lat="43.65702" lon="3.76495">
        <ele>97</ele>
        <time>2017-05-21T06:24:28Z</time>
      </trkpt>
      <trkpt lat="43.65704" lon="3.76487">
        <ele>96.6</ele>
        <time>2017-05-21T06:24:30Z</time>
      </trkpt>
      <trkpt lat="43.65703" lon="3.76483">
        <ele>96.4</ele>
        <time>2017-05-21T06:24:31Z</time>
      </trkpt>
      <trkpt lat="43.65704" lon="3.7648">
        <ele>96.9</ele>
        <time>2017-05-21T06:24:32Z</time>
      </trkpt>
      <trkpt lat="43.65704" lon="3.76475">
        <ele>96.5</ele>
        <time>2017-05-21T06:24:33Z</time>
      </trkpt>
      <trkpt lat="43.65704" lon="3.7647">
        <ele>96.4</ele>
        <time>2017-05-21T06:24:34Z</time>
      </trkpt>
      <trkpt lat="43.65704" lon="3.76466">
        <ele>96.4</ele>
        <time>2017-05-21T06:24:35Z</time>
      </trkpt>
      <trkpt lat="43.65703" lon="3.76461">
        <ele>96.1</ele>
        <time>2017-05-21T06:24:36Z</time>
      </trkpt>
      <trkpt lat="43.65702" lon="3.76456">
        <ele>96.2</ele>
        <time>2017-05-21T06:24:37Z</time>
      </trkpt>
      <trkpt lat="43.65702" lon="3.76452">
        <ele>96.4</ele>
        <time>2017-05-21T06:24:38Z</time>
      </trkpt>
      <trkpt lat="43.65701" lon="3.76443">
        <ele>96.6</ele>
        <time>2017-05-21T06:24:40Z</time>
      </trkpt>
      <trkpt lat="43.65701" lon="3.76439">
        <ele>96.8</ele>
        <time>2017-05-21T06:24:41Z</time>
      </trkpt>
      <trkpt lat="43.657" lon="3.76434">
        <ele>96.8</ele>
        <time>2017-05-21T06:24:42Z</time>
      </trkpt>
      <trkpt lat="43.65699" lon="3.7643">
        <ele>97</ele>
        <time>2017-05-21T06:24:43Z</time>
      </trkpt>
      <trkpt lat="43.65698" lon="3.76426">
        <ele>97.1</ele>
        <time>2017-05-21T06:24:44Z</time>
      </trkpt>
      <trkpt lat="43.65698" lon="3.76421">
        <ele>97.3</ele>
        <time>2017-05-21T06:24:45Z</time>
      </trkpt>
      <trkpt lat="43.65696" lon="3.76418">
        <ele>97.4</ele>
        <time>2017-05-21T06:24:46Z</time>
      </trkpt>
      <trkpt lat="43.65694" lon="3.76414">
        <ele>97.5</ele>
        <time>2017-05-21T06:24:47Z</time>
      </trkpt>
      <trkpt lat="43.65692" lon="3.76408">
        <ele>97.7</ele>
        <time>2017-05-21T06:24:49Z</time>
      </trkpt>
      <trkpt lat="43.6569" lon="3.76404">
        <ele>97.7</ele>
        <time>2017-05-21T06:24:50Z</time>
      </trkpt>
      <trkpt lat="43.65689" lon="3.764">
        <ele>97.9</ele>
        <time>2017-05-21T06:24:51Z</time>
      </trkpt>
      <trkpt lat="43.65685" lon="3.76394">
        <ele>97.9</ele>
        <time>2017-05-21T06:24:53Z</time>
      </trkpt>
      <trkpt lat="43.65684" lon="3.7639">
        <ele>97.8</ele>
        <time>2017-05-21T06:24:54Z</time>
      </trkpt>
      <trkpt lat="43.65683" lon="3.76387">
        <ele>97.8</ele>
        <time>2017-05-21T06:24:55Z</time>
      </trkpt>
      <trkpt lat="43.65681" lon="3.76383">
        <ele>97.7</ele>
        <time>2017-05-21T06:24:56Z</time>
      </trkpt>
      <trkpt lat="43.65681" lon="3.76379">
        <ele>97.8</ele>
        <time>2017-05-21T06:24:57Z</time>
      </trkpt>
      <trkpt lat="43.6568" lon="3.76372">
        <ele>98.2</ele>
        <time>2017-05-21T06:24:59Z</time>
      </trkpt>
      <trkpt lat="43.65679" lon="3.76364">
        <ele>98.4</ele>
        <time>2017-05-21T06:25:01Z</time>
      </trkpt>
      <trkpt lat="43.6568" lon="3.76358">
        <ele>98.8</ele>
        <time>2017-05-21T06:25:03Z</time>
      </trkpt>
      <trkpt lat="43.65681" lon="3.76352">
        <ele>99.1</ele>
        <time>2017-05-21T06:25:05Z</time>
      </trkpt>
      <trkpt lat="43.65684" lon="3.76346">
        <ele>99.5</ele>
        <time>2017-05-21T06:25:07Z</time>
      </trkpt>
      <trkpt lat="43.65685" lon="3.76341">
        <ele>100.1</ele>
        <time>2017-05-21T06:25:09Z</time>
      </trkpt>
      <trkpt lat="43.65687" lon="3.76335">
        <ele>100.4</ele>
        <time>2017-05-21T06:25:11Z</time>
      </trkpt>
      <trkpt lat="43.6569" lon="3.76329">
        <ele>100.6</ele>
        <time>2017-05-21T06:25:13Z</time>
      </trkpt>
      <trkpt lat="43.65692" lon="3.76322">
        <ele>101.1</ele>
        <time>2017-05-21T06:25:15Z</time>
      </trkpt>
      <trkpt lat="43.65694" lon="3.76319">
        <ele>101.3</ele>
        <time>2017-05-21T06:25:16Z</time>
      </trkpt>
      <trkpt lat="43.65696" lon="3.76311">
        <ele>101.6</ele>
        <time>2017-05-21T06:25:18Z</time>
      </trkpt>
      <trkpt lat="43.65698" lon="3.76306">
        <ele>101.7</ele>
        <time>2017-05-21T06:25:19Z</time>
      </trkpt>
      <trkpt lat="43.657" lon="3.76301">
        <ele>101.8</ele>
        <time>2017-05-21T06:25:20Z</time>
      </trkpt>
      <trkpt lat="43.65702" lon="3.76296">
        <ele>101.8</ele>
        <time>2017-05-21T06:25:21Z</time>
      </trkpt>
      <trkpt lat="43.65704" lon="3.7629">
        <ele>101.8</ele>
        <time>2017-05-21T06:25:22Z</time>
      </trkpt>
      <trkpt lat="43.65705" lon="3.76285">
        <ele>101.8</ele>
        <time>2017-05-21T06:25:23Z</time>
      </trkpt>
      <trkpt lat="43.65707" lon="3.76279">
        <ele>101.6</ele>
        <time>2017-05-21T06:25:24Z</time>
      </trkpt>
      <trkpt lat="43.65709" lon="3.76273">
        <ele>101.5</ele>
        <time>2017-05-21T06:25:25Z</time>
      </trkpt>
      <trkpt lat="43.65712" lon="3.76266">
        <ele>101.3</ele>
        <time>2017-05-21T06:25:26Z</time>
      </trkpt>
      <trkpt lat="43.65713" lon="3.76261">
        <ele>101.1</ele>
        <time>2017-05-21T06:25:27Z</time>
      </trkpt>
      <trkpt lat="43.65715" lon="3.76255">
        <ele>101.1</ele>
        <time>2017-05-21T06:25:28Z</time>
      </trkpt>
      <trkpt lat="43.65717" lon="3.76249">
        <ele>101</ele>
        <time>2017-05-21T06:25:29Z</time>
      </trkpt>
      <trkpt lat="43.65719" lon="3.76243">
        <ele>101.1</ele>
        <time>2017-05-21T06:25:30Z</time>
      </trkpt>
      <trkpt lat="43.65721" lon="3.76237">
        <ele>101.3</ele>
        <time>2017-05-21T06:25:31Z</time>
      </trkpt>
      <trkpt lat="43.65723" lon="3.76232">
        <ele>101.3</ele>
        <time>2017-05-21T06:25:32Z</time>
      </trkpt>
      <trkpt lat="43.65725" lon="3.76227">
        <ele>101.4</ele>
        <time>2017-05-21T06:25:33Z</time>
      </trkpt>
      <trkpt lat="43.65727" lon="3.7622">
        <ele>101.8</ele>
        <time>2017-05-21T06:25:34Z</time>
      </trkpt>
      <trkpt lat="43.65727" lon="3.76215">
        <ele>102</ele>
        <time>2017-05-21T06:25:35Z</time>
      </trkpt>
      <trkpt lat="43.65728" lon="3.76209">
        <ele>102.2</ele>
        <time>2017-05-21T06:25:36Z</time>
      </trkpt>
      <trkpt lat="43.65728" lon="3.76203">
        <ele>102.5</ele>
        <time>2017-05-21T06:25:37Z</time>
      </trkpt>
      <trkpt lat="43.65727" lon="3.76198">
        <ele>102.7</ele>
        <time>2017-05-21T06:25:38Z</time>
      </trkpt>
      <trkpt lat="43.65727" lon="3.76193">
        <ele>102.8</ele>
        <time>2017-05-21T06:25:39Z</time>
      </trkpt>
      <trkpt lat="43.65727" lon="3.76187">
        <ele>102.9</ele>
        <time>2017-05-21T06:25:40Z</time>
      </trkpt>
      <trkpt lat="43.65727" lon="3.76182">
        <ele>103</ele>
        <time>2017-05-21T06:25:41Z</time>
      </trkpt>
      <trkpt lat="43.65727" lon="3.76176">
        <ele>103</ele>
        <time>2017-05-21T06:25:42Z</time>
      </trkpt>
      <trkpt lat="43.65728" lon="3.76171">
        <ele>103</ele>
        <time>2017-05-21T06:25:43Z</time>
      </trkpt>
      <trkpt lat="43.65727" lon="3.76166">
        <ele>103</ele>
        <time>2017-05-21T06:25:44Z</time>
      </trkpt>
      <trkpt lat="43.65728" lon="3.7616">
        <ele>103.1</ele>
        <time>2017-05-21T06:25:45Z</time>
      </trkpt>
      <trkpt lat="43.65727" lon="3.76154">
        <ele>103.1</ele>
        <time>2017-05-21T06:25:46Z</time>
      </trkpt>
      <trkpt lat="43.65727" lon="3.76149">
        <ele>103.2</ele>
        <time>2017-05-21T06:25:47Z</time>
      </trkpt>
      <trkpt lat="43.65727" lon="3.76144">
        <ele>103.1</ele>
        <time>2017-05-21T06:25:48Z</time>
      </trkpt>
      <trkpt lat="43.65726" lon="3.7614">
        <ele>103</ele>
        <time>2017-05-21T06:25:49Z</time>
      </trkpt>
      <trkpt lat="43.65726" lon="3.76135">
        <ele>102.9</ele>
        <time>2017-05-21T06:25:50Z</time>
      </trkpt>
      <trkpt lat="43.65726" lon="3.7613">
        <ele>102.8</ele>
        <time>2017-05-21T06:25:51Z</time>
      </trkpt>
      <trkpt lat="43.65726" lon="3.76124">
        <ele>102.7</ele>
        <time>2017-05-21T06:25:52Z</time>
      </trkpt>
      <trkpt lat="43.65727" lon="3.7612">
        <ele>102.5</ele>
        <time>2017-05-21T06:25:53Z</time>
      </trkpt>
      <trkpt lat="43.65728" lon="3.76115">
        <ele>102.4</ele>
        <time>2017-05-21T06:25:54Z</time>
      </trkpt>
      <trkpt lat="43.65728" lon="3.76109">
        <ele>102.2</ele>
        <time>2017-05-21T06:25:55Z</time>
      </trkpt>
      <trkpt lat="43.65728" lon="3.76105">
        <ele>102.3</ele>
        <time>2017-05-21T06:25:56Z</time>
      </trkpt>
      <trkpt lat="43.65728" lon="3.76101">
        <ele>102.3</ele>
        <time>2017-05-21T06:25:57Z</time>
      </trkpt>
      <trkpt lat="43.65729" lon="3.76095">
        <ele>102.6</ele>
        <time>2017-05-21T06:25:58Z</time>
      </trkpt>
      <trkpt lat="43.65729" lon="3.7609">
        <ele>102.6</ele>
        <time>2017-05-21T06:25:59Z</time>
      </trkpt>
      <trkpt lat="43.65729" lon="3.76085">
        <ele>102.7</ele>
        <time>2017-05-21T06:26:00Z</time>
      </trkpt>
      <trkpt lat="43.6573" lon="3.7608">
        <ele>102.7</ele>
        <time>2017-05-21T06:26:01Z</time>
      </trkpt>
      <trkpt lat="43.6573" lon="3.76075">
        <ele>102.6</ele>
        <time>2017-05-21T06:26:02Z</time>
      </trkpt>
      <trkpt lat="43.6573" lon="3.7607">
        <ele>102.6</ele>
        <time>2017-05-21T06:26:03Z</time>
      </trkpt>
      <trkpt lat="43.6573" lon="3.76065">
        <ele>102.6</ele>
        <time>2017-05-21T06:26:04Z</time>
      </trkpt>
      <trkpt lat="43.6573" lon="3.76061">
        <ele>102.7</ele>
        <time>2017-05-21T06:26:05Z</time>
      </trkpt>
      <trkpt lat="43.6573" lon="3.76056">
        <ele>102.8</ele>
        <time>2017-05-21T06:26:06Z</time>
      </trkpt>
      <trkpt lat="43.6573" lon="3.76052">
        <ele>103.1</ele>
        <time>2017-05-21T06:26:07Z</time>
      </trkpt>
      <trkpt lat="43.6573" lon="3.76046">
        <ele>103.4</ele>
        <time>2017-05-21T06:26:08Z</time>
      </trkpt>
      <trkpt lat="43.65731" lon="3.76041">
        <ele>104.2</ele>
        <time>2017-05-21T06:26:09Z</time>
      </trkpt>
      <trkpt lat="43.65731" lon="3.76037">
        <ele>104.6</ele>
        <time>2017-05-21T06:26:10Z</time>
      </trkpt>
      <trkpt lat="43.65731" lon="3.76032">
        <ele>104.9</ele>
        <time>2017-05-21T06:26:11Z</time>
      </trkpt>
      <trkpt lat="43.65731" lon="3.76027">
        <ele>105.2</ele>
        <time>2017-05-21T06:26:12Z</time>
      </trkpt>
      <trkpt lat="43.65732" lon="3.76022">
        <ele>105.5</ele>
        <time>2017-05-21T06:26:13Z</time>
      </trkpt>
      <trkpt lat="43.65732" lon="3.76017">
        <ele>105.7</ele>
        <time>2017-05-21T06:26:14Z</time>
      </trkpt>
      <trkpt lat="43.65732" lon="3.76013">
        <ele>106.2</ele>
        <time>2017-05-21T06:26:15Z</time>
      </trkpt>
      <trkpt lat="43.65732" lon="3.76008">
        <ele>106.3</ele>
        <time>2017-05-21T06:26:16Z</time>
      </trkpt>
      <trkpt lat="43.65731" lon="3.76004">
        <ele>106</ele>
        <time>2017-05-21T06:26:17Z</time>
      </trkpt>
      <trkpt lat="43.65732" lon="3.75999">
        <ele>106.1</ele>
        <time>2017-05-21T06:26:18Z</time>
      </trkpt>
      <trkpt lat="43.65732" lon="3.75994">
        <ele>106.2</ele>
        <time>2017-05-21T06:26:19Z</time>
      </trkpt>
      <trkpt lat="43.65732" lon="3.75989">
        <ele>106.5</ele>
        <time>2017-05-21T06:26:20Z</time>
      </trkpt>
      <trkpt lat="43.65732" lon="3.75985">
        <ele>106.6</ele>
        <time>2017-05-21T06:26:21Z</time>
      </trkpt>
      <trkpt lat="43.65731" lon="3.75981">
        <ele>106.5</ele>
        <time>2017-05-21T06:26:22Z</time>
      </trkpt>
      <trkpt lat="43.65731" lon="3.75976">
        <ele>106.6</ele>
        <time>2017-05-21T06:26:23Z</time>
      </trkpt>
      <trkpt lat="43.6573" lon="3.75971">
        <ele>106.8</ele>
        <time>2017-05-21T06:26:24Z</time>
      </trkpt>
      <trkpt lat="43.6573" lon="3.75966">
        <ele>106.9</ele>
        <time>2017-05-21T06:26:25Z</time>
      </trkpt>
      <trkpt lat="43.65729" lon="3.75961">
        <ele>107.1</ele>
        <time>2017-05-21T06:26:26Z</time>
      </trkpt>
      <trkpt lat="43.65728" lon="3.75957">
        <ele>107.2</ele>
        <time>2017-05-21T06:26:27Z</time>
      </trkpt>
      <trkpt lat="43.65727" lon="3.75953">
        <ele>107.5</ele>
        <time>2017-05-21T06:26:28Z</time>
      </trkpt>
      <trkpt lat="43.65726" lon="3.75949">
        <ele>107.7</ele>
        <time>2017-05-21T06:26:29Z</time>
      </trkpt>
      <trkpt lat="43.65725" lon="3.75944">
        <ele>107.9</ele>
        <time>2017-05-21T06:26:30Z</time>
      </trkpt>
      <trkpt lat="43.65724" lon="3.75941">
        <ele>107.9</ele>
        <time>2017-05-21T06:26:31Z</time>
      </trkpt>
      <trkpt lat="43.65723" lon="3.75933">
        <ele>108.4</ele>
        <time>2017-05-21T06:26:33Z</time>
      </trkpt>
      <trkpt lat="43.65722" lon="3.75929">
        <ele>108.7</ele>
        <time>2017-05-21T06:26:34Z</time>
      </trkpt>
      <trkpt lat="43.65721" lon="3.75925">
        <ele>109.1</ele>
        <time>2017-05-21T06:26:35Z</time>
      </trkpt>
      <trkpt lat="43.6572" lon="3.75921">
        <ele>109.5</ele>
        <time>2017-05-21T06:26:36Z</time>
      </trkpt>
      <trkpt lat="43.65718" lon="3.75914">
        <ele>110</ele>
        <time>2017-05-21T06:26:38Z</time>
      </trkpt>
      <trkpt lat="43.65716" lon="3.75907">
        <ele>110.9</ele>
        <time>2017-05-21T06:26:40Z</time>
      </trkpt>
      <trkpt lat="43.65715" lon="3.75902">
        <ele>111.5</ele>
        <time>2017-05-21T06:26:41Z</time>
      </trkpt>
      <trkpt lat="43.65714" lon="3.75898">
        <ele>112</ele>
        <time>2017-05-21T06:26:42Z</time>
      </trkpt>
      <trkpt lat="43.65714" lon="3.75893">
        <ele>112.4</ele>
        <time>2017-05-21T06:26:43Z</time>
      </trkpt>
      <trkpt lat="43.65713" lon="3.75889">
        <ele>112.8</ele>
        <time>2017-05-21T06:26:44Z</time>
      </trkpt>
      <trkpt lat="43.65711" lon="3.75886">
        <ele>113.1</ele>
        <time>2017-05-21T06:26:45Z</time>
      </trkpt>
      <trkpt lat="43.65709" lon="3.7588">
        <ele>113.5</ele>
        <time>2017-05-21T06:26:47Z</time>
      </trkpt>
      <trkpt lat="43.65707" lon="3.75873">
        <ele>114.3</ele>
        <time>2017-05-21T06:26:49Z</time>
      </trkpt>
      <trkpt lat="43.65707" lon="3.75865">
        <ele>115.3</ele>
        <time>2017-05-21T06:26:51Z</time>
      </trkpt>
      <trkpt lat="43.65705" lon="3.75859">
        <ele>115.8</ele>
        <time>2017-05-21T06:26:53Z</time>
      </trkpt>
      <trkpt lat="43.65704" lon="3.75852">
        <ele>116.7</ele>
        <time>2017-05-21T06:26:55Z</time>
      </trkpt>
      <trkpt lat="43.65704" lon="3.75845">
        <ele>117.2</ele>
        <time>2017-05-21T06:26:57Z</time>
      </trkpt>
      <trkpt lat="43.65704" lon="3.75838">
        <ele>117.9</ele>
        <time>2017-05-21T06:26:59Z</time>
      </trkpt>
      <trkpt lat="43.65704" lon="3.75831">
        <ele>118.1</ele>
        <time>2017-05-21T06:27:01Z</time>
      </trkpt>
      <trkpt lat="43.65704" lon="3.75824">
        <ele>118.4</ele>
        <time>2017-05-21T06:27:03Z</time>
      </trkpt>
      <trkpt lat="43.65705" lon="3.75821">
        <ele>118.5</ele>
        <time>2017-05-21T06:27:04Z</time>
      </trkpt>
      <trkpt lat="43.65706" lon="3.75816">
        <ele>118.6</ele>
        <time>2017-05-21T06:27:05Z</time>
      </trkpt>
      <trkpt lat="43.65706" lon="3.75812">
        <ele>118.7</ele>
        <time>2017-05-21T06:27:06Z</time>
      </trkpt>
      <trkpt lat="43.65705" lon="3.75804">
        <ele>118.9</ele>
        <time>2017-05-21T06:27:08Z</time>
      </trkpt>
      <trkpt lat="43.65704" lon="3.75799">
        <ele>119.2</ele>
        <time>2017-05-21T06:27:10Z</time>
      </trkpt>
      <trkpt lat="43.65704" lon="3.75792">
        <ele>120</ele>
        <time>2017-05-21T06:27:12Z</time>
      </trkpt>
      <trkpt lat="43.65705" lon="3.75787">
        <ele>120.4</ele>
        <time>2017-05-21T06:27:13Z</time>
      </trkpt>
      <trkpt lat="43.65704" lon="3.75781">
        <ele>120.9</ele>
        <time>2017-05-21T06:27:15Z</time>
      </trkpt>
      <trkpt lat="43.65704" lon="3.75775">
        <ele>121.6</ele>
        <time>2017-05-21T06:27:17Z</time>
      </trkpt>
      <trkpt lat="43.65705" lon="3.75768">
        <ele>122</ele>
        <time>2017-05-21T06:27:19Z</time>
      </trkpt>
      <trkpt lat="43.65705" lon="3.75765">
        <ele>122.3</ele>
        <time>2017-05-21T06:27:20Z</time>
      </trkpt>
      <trkpt lat="43.65705" lon="3.75757">
        <ele>122.8</ele>
        <time>2017-05-21T06:27:22Z</time>
      </trkpt>
      <trkpt lat="43.65705" lon="3.75753">
        <ele>123</ele>
        <time>2017-05-21T06:27:23Z</time>
      </trkpt>
      <trkpt lat="43.65705" lon="3.75747">
        <ele>123.2</ele>
        <time>2017-05-21T06:27:25Z</time>
      </trkpt>
      <trkpt lat="43.65704" lon="3.75743">
        <ele>123.3</ele>
        <time>2017-05-21T06:27:26Z</time>
      </trkpt>
      <trkpt lat="43.65704" lon="3.75739">
        <ele>123.9</ele>
        <time>2017-05-21T06:27:27Z</time>
      </trkpt>
      <trkpt lat="43.65703" lon="3.75735">
        <ele>124.1</ele>
        <time>2017-05-21T06:27:28Z</time>
      </trkpt>
      <trkpt lat="43.65702" lon="3.7573">
        <ele>124.2</ele>
        <time>2017-05-21T06:27:29Z</time>
      </trkpt>
      <trkpt lat="43.657" lon="3.75726">
        <ele>124.7</ele>
        <time>2017-05-21T06:27:30Z</time>
      </trkpt>
      <trkpt lat="43.657" lon="3.75722">
        <ele>124.7</ele>
        <time>2017-05-21T06:27:31Z</time>
      </trkpt>
      <trkpt lat="43.65699" lon="3.75719">
        <ele>124.7</ele>
        <time>2017-05-21T06:27:32Z</time>
      </trkpt>
      <trkpt lat="43.65698" lon="3.75711">
        <ele>124.8</ele>
        <time>2017-05-21T06:27:34Z</time>
      </trkpt>
      <trkpt lat="43.65698" lon="3.75707">
        <ele>124.8</ele>
        <time>2017-05-21T06:27:35Z</time>
      </trkpt>
      <trkpt lat="43.65697" lon="3.757">
        <ele>125.1</ele>
        <time>2017-05-21T06:27:37Z</time>
      </trkpt>
      <trkpt lat="43.65696" lon="3.75695">
        <ele>125.2</ele>
        <time>2017-05-21T06:27:38Z</time>
      </trkpt>
      <trkpt lat="43.65696" lon="3.75691">
        <ele>125.3</ele>
        <time>2017-05-21T06:27:39Z</time>
      </trkpt>
      <trkpt lat="43.65696" lon="3.75687">
        <ele>125.4</ele>
        <time>2017-05-21T06:27:40Z</time>
      </trkpt>
      <trkpt lat="43.65696" lon="3.75683">
        <ele>125.6</ele>
        <time>2017-05-21T06:27:41Z</time>
      </trkpt>
      <trkpt lat="43.65696" lon="3.75679">
        <ele>125.9</ele>
        <time>2017-05-21T06:27:42Z</time>
      </trkpt>
      <trkpt lat="43.65695" lon="3.75674">
        <ele>126.1</ele>
        <time>2017-05-21T06:27:43Z</time>
      </trkpt>
      <trkpt lat="43.65695" lon="3.75666">
        <ele>126.3</ele>
        <time>2017-05-21T06:27:45Z</time>
      </trkpt>
      <trkpt lat="43.65695" lon="3.75662">
        <ele>126.4</ele>
        <time>2017-05-21T06:27:46Z</time>
      </trkpt>
      <trkpt lat="43.65696" lon="3.75655">
        <ele>126.4</ele>
        <time>2017-05-21T06:27:48Z</time>
      </trkpt>
      <trkpt lat="43.65696" lon="3.75651">
        <ele>126.4</ele>
        <time>2017-05-21T06:27:49Z</time>
      </trkpt>
      <trkpt lat="43.65696" lon="3.75646">
        <ele>126.4</ele>
        <time>2017-05-21T06:27:50Z</time>
      </trkpt>
      <trkpt lat="43.65696" lon="3.75642">
        <ele>126.4</ele>
        <time>2017-05-21T06:27:51Z</time>
      </trkpt>
      <trkpt lat="43.65695" lon="3.75635">
        <ele>126.4</ele>
        <time>2017-05-21T06:27:53Z</time>
      </trkpt>
      <trkpt lat="43.65695" lon="3.7563">
        <ele>126.5</ele>
        <time>2017-05-21T06:27:54Z</time>
      </trkpt>
      <trkpt lat="43.65696" lon="3.75626">
        <ele>126.6</ele>
        <time>2017-05-21T06:27:55Z</time>
      </trkpt>
      <trkpt lat="43.65696" lon="3.75622">
        <ele>126.8</ele>
        <time>2017-05-21T06:27:56Z</time>
      </trkpt>
      <trkpt lat="43.65697" lon="3.75615">
        <ele>127.3</ele>
        <time>2017-05-21T06:27:58Z</time>
      </trkpt>
      <trkpt lat="43.65696" lon="3.75611">
        <ele>127.6</ele>
        <time>2017-05-21T06:27:59Z</time>
      </trkpt>
      <trkpt lat="43.65697" lon="3.75604">
        <ele>128</ele>
        <time>2017-05-21T06:28:01Z</time>
      </trkpt>
      <trkpt lat="43.65698" lon="3.75597">
        <ele>128.9</ele>
        <time>2017-05-21T06:28:03Z</time>
      </trkpt>
      <trkpt lat="43.65697" lon="3.7559">
        <ele>130</ele>
        <time>2017-05-21T06:28:05Z</time>
      </trkpt>
      <trkpt lat="43.65698" lon="3.75587">
        <ele>130.4</ele>
        <time>2017-05-21T06:28:06Z</time>
      </trkpt>
      <trkpt lat="43.65698" lon="3.75581">
        <ele>130.9</ele>
        <time>2017-05-21T06:28:08Z</time>
      </trkpt>
      <trkpt lat="43.65698" lon="3.75577">
        <ele>131.3</ele>
        <time>2017-05-21T06:28:09Z</time>
      </trkpt>
      <trkpt lat="43.65698" lon="3.75571">
        <ele>131.6</ele>
        <time>2017-05-21T06:28:11Z</time>
      </trkpt>
      <trkpt lat="43.65699" lon="3.75563">
        <ele>132.2</ele>
        <time>2017-05-21T06:28:13Z</time>
      </trkpt>
      <trkpt lat="43.65699" lon="3.7556">
        <ele>132.4</ele>
        <time>2017-05-21T06:28:14Z</time>
      </trkpt>
      <trkpt lat="43.65701" lon="3.75553">
        <ele>132.3</ele>
        <time>2017-05-21T06:28:16Z</time>
      </trkpt>
      <trkpt lat="43.65701" lon="3.75547">
        <ele>132.6</ele>
        <time>2017-05-21T06:28:18Z</time>
      </trkpt>
      <trkpt lat="43.65701" lon="3.7554">
        <ele>132.6</ele>
        <time>2017-05-21T06:28:20Z</time>
      </trkpt>
      <trkpt lat="43.65701" lon="3.75532">
        <ele>132.6</ele>
        <time>2017-05-21T06:28:22Z</time>
      </trkpt>
      <trkpt lat="43.65702" lon="3.75525">
        <ele>132.5</ele>
        <time>2017-05-21T06:28:24Z</time>
      </trkpt>
      <trkpt lat="43.65702" lon="3.75518">
        <ele>132.4</ele>
        <time>2017-05-21T06:28:26Z</time>
      </trkpt>
      <trkpt lat="43.65703" lon="3.75512">
        <ele>132.5</ele>
        <time>2017-05-21T06:28:28Z</time>
      </trkpt>
      <trkpt lat="43.65703" lon="3.75508">
        <ele>132.5</ele>
        <time>2017-05-21T06:28:29Z</time>
      </trkpt>
      <trkpt lat="43.65703" lon="3.75501">
        <ele>132.6</ele>
        <time>2017-05-21T06:28:31Z</time>
      </trkpt>
      <trkpt lat="43.65703" lon="3.75494">
        <ele>132.9</ele>
        <time>2017-05-21T06:28:33Z</time>
      </trkpt>
      <trkpt lat="43.65703" lon="3.75487">
        <ele>133.3</ele>
        <time>2017-05-21T06:28:35Z</time>
      </trkpt>
      <trkpt lat="43.65704" lon="3.75481">
        <ele>133.5</ele>
        <time>2017-05-21T06:28:37Z</time>
      </trkpt>
      <trkpt lat="43.65704" lon="3.75477">
        <ele>134</ele>
        <time>2017-05-21T06:28:38Z</time>
      </trkpt>
      <trkpt lat="43.65704" lon="3.75471">
        <ele>134.4</ele>
        <time>2017-05-21T06:28:40Z</time>
      </trkpt>
      <trkpt lat="43.65705" lon="3.75463">
        <ele>134.6</ele>
        <time>2017-05-21T06:28:42Z</time>
      </trkpt>
      <trkpt lat="43.65705" lon="3.7546">
        <ele>134.7</ele>
        <time>2017-05-21T06:28:43Z</time>
      </trkpt>
      <trkpt lat="43.65705" lon="3.75452">
        <ele>135</ele>
        <time>2017-05-21T06:28:45Z</time>
      </trkpt>
      <trkpt lat="43.65706" lon="3.75446">
        <ele>135.2</ele>
        <time>2017-05-21T06:28:47Z</time>
      </trkpt>
      <trkpt lat="43.65706" lon="3.75439">
        <ele>135.5</ele>
        <time>2017-05-21T06:28:49Z</time>
      </trkpt>
      <trkpt lat="43.65707" lon="3.75432">
        <ele>136.1</ele>
        <time>2017-05-21T06:28:51Z</time>
      </trkpt>
      <trkpt lat="43.65708" lon="3.75425">
        <ele>136.2</ele>
        <time>2017-05-21T06:28:53Z</time>
      </trkpt>
      <trkpt lat="43.65708" lon="3.75419">
        <ele>136.3</ele>
        <time>2017-05-21T06:28:55Z</time>
      </trkpt>
      <trkpt lat="43.65708" lon="3.75413">
        <ele>136.3</ele>
        <time>2017-05-21T06:28:57Z</time>
      </trkpt>
      <trkpt lat="43.65709" lon="3.75407">
        <ele>136.2</ele>
        <time>2017-05-21T06:28:59Z</time>
      </trkpt>
      <trkpt lat="43.6571" lon="3.75401">
        <ele>136</ele>
        <time>2017-05-21T06:29:01Z</time>
      </trkpt>
      <trkpt lat="43.65711" lon="3.75396">
        <ele>136</ele>
        <time>2017-05-21T06:29:03Z</time>
      </trkpt>
      <trkpt lat="43.65711" lon="3.75391">
        <ele>135.9</ele>
        <time>2017-05-21T06:29:05Z</time>
      </trkpt>
      <trkpt lat="43.6571" lon="3.75386">
        <ele>135.9</ele>
        <time>2017-05-21T06:29:07Z</time>
      </trkpt>
      <trkpt lat="43.65709" lon="3.75382">
        <ele>135.9</ele>
        <time>2017-05-21T06:29:10Z</time>
      </trkpt>
      <trkpt lat="43.65709" lon="3.75377">
        <ele>136</ele>
        <time>2017-05-21T06:29:14Z</time>
      </trkpt>
      <trkpt lat="43.65711" lon="3.75374">
        <ele>136</ele>
        <time>2017-05-21T06:29:17Z</time>
      </trkpt>
      <trkpt lat="43.65713" lon="3.75371">
        <ele>135.8</ele>
        <time>2017-05-21T06:29:21Z</time>
      </trkpt>
      <trkpt lat="43.65713" lon="3.75366">
        <ele>135.7</ele>
        <time>2017-05-21T06:29:25Z</time>
      </trkpt>
      <trkpt lat="43.65714" lon="3.7536">
        <ele>135.5</ele>
        <time>2017-05-21T06:29:29Z</time>
      </trkpt>
      <trkpt lat="43.65711" lon="3.75357">
        <ele>135.3</ele>
        <time>2017-05-21T06:29:33Z</time>
      </trkpt>
      <trkpt lat="43.65707" lon="3.75353">
        <ele>135</ele>
        <time>2017-05-21T06:29:38Z</time>
      </trkpt>
      <trkpt lat="43.65705" lon="3.75351">
        <ele>135.2</ele>
        <time>2017-05-21T06:29:39Z</time>
      </trkpt>
      <trkpt lat="43.65702" lon="3.75349">
        <ele>134.8</ele>
        <time>2017-05-21T06:29:40Z</time>
      </trkpt>
      <trkpt lat="43.65699" lon="3.75347">
        <ele>135</ele>
        <time>2017-05-21T06:29:41Z</time>
      </trkpt>
      <trkpt lat="43.65695" lon="3.75344">
        <ele>134.6</ele>
        <time>2017-05-21T06:29:42Z</time>
      </trkpt>
      <trkpt lat="43.65692" lon="3.7534">
        <ele>134.2</ele>
        <time>2017-05-21T06:29:43Z</time>
      </trkpt>
      <trkpt lat="43.65689" lon="3.75337">
        <ele>133.8</ele>
        <time>2017-05-21T06:29:44Z</time>
      </trkpt>
      <trkpt lat="43.65686" lon="3.75333">
        <ele>133.5</ele>
        <time>2017-05-21T06:29:45Z</time>
      </trkpt>
      <trkpt lat="43.65682" lon="3.75329">
        <ele>134</ele>
        <time>2017-05-21T06:29:46Z</time>
      </trkpt>
      <trkpt lat="43.65678" lon="3.75326">
        <ele>133.8</ele>
        <time>2017-05-21T06:29:47Z</time>
      </trkpt>
      <trkpt lat="43.65674" lon="3.75323">
        <ele>133.7</ele>
        <time>2017-05-21T06:29:48Z</time>
      </trkpt>
      <trkpt lat="43.6567" lon="3.75321">
        <ele>134</ele>
        <time>2017-05-21T06:29:49Z</time>
      </trkpt>
      <trkpt lat="43.65665" lon="3.7532">
        <ele>134.3</ele>
        <time>2017-05-21T06:29:50Z</time>
      </trkpt>
      <trkpt lat="43.6566" lon="3.75318">
        <ele>135.2</ele>
        <time>2017-05-21T06:29:51Z</time>
      </trkpt>
      <trkpt lat="43.65654" lon="3.75315">
        <ele>135.4</ele>
        <time>2017-05-21T06:29:52Z</time>
      </trkpt>
      <trkpt lat="43.65648" lon="3.75313">
        <ele>136.6</ele>
        <time>2017-05-21T06:29:53Z</time>
      </trkpt>
      <trkpt lat="43.65643" lon="3.75309">
        <ele>137.6</ele>
        <time>2017-05-21T06:29:54Z</time>
      </trkpt>
      <trkpt lat="43.65638" lon="3.75304">
        <ele>138.8</ele>
        <time>2017-05-21T06:29:55Z</time>
      </trkpt>
      <trkpt lat="43.65633" lon="3.75297">
        <ele>139.3</ele>
        <time>2017-05-21T06:29:56Z</time>
      </trkpt>
      <trkpt lat="43.65629" lon="3.7529">
        <ele>140.5</ele>
        <time>2017-05-21T06:29:57Z</time>
      </trkpt>
      <trkpt lat="43.6563" lon="3.7528">
        <ele>139.1</ele>
        <time>2017-05-21T06:29:58Z</time>
      </trkpt>
      <trkpt lat="43.65631" lon="3.75271">
        <ele>138.5</ele>
        <time>2017-05-21T06:29:59Z</time>
      </trkpt>
      <trkpt lat="43.65631" lon="3.75261">
        <ele>137.8</ele>
        <time>2017-05-21T06:30:00Z</time>
      </trkpt>
      <trkpt lat="43.65632" lon="3.75252">
        <ele>137</ele>
        <time>2017-05-21T06:30:01Z</time>
      </trkpt>
      <trkpt lat="43.65634" lon="3.75242">
        <ele>134.6</ele>
        <time>2017-05-21T06:30:02Z</time>
      </trkpt>
      <trkpt lat="43.65635" lon="3.75232">
        <ele>134.1</ele>
        <time>2017-05-21T06:30:03Z</time>
      </trkpt>
      <trkpt lat="43.65638" lon="3.75221">
        <ele>133.2</ele>
        <time>2017-05-21T06:30:04Z</time>
      </trkpt>
      <trkpt lat="43.65642" lon="3.75209">
        <ele>132</ele>
        <time>2017-05-21T06:30:05Z</time>
      </trkpt>
      <trkpt lat="43.65647" lon="3.752">
        <ele>132.2</ele>
        <time>2017-05-21T06:30:06Z</time>
      </trkpt>
      <trkpt lat="43.65651" lon="3.75189">
        <ele>130.9</ele>
        <time>2017-05-21T06:30:07Z</time>
      </trkpt>
      <trkpt lat="43.65655" lon="3.75178">
        <ele>130.5</ele>
        <time>2017-05-21T06:30:08Z</time>
      </trkpt>
      <trkpt lat="43.65658" lon="3.75166">
        <ele>129.8</ele>
        <time>2017-05-21T06:30:09Z</time>
      </trkpt>
      <trkpt lat="43.65661" lon="3.75157">
        <ele>129</ele>
        <time>2017-05-21T06:30:10Z</time>
      </trkpt>
      <trkpt lat="43.65665" lon="3.75144">
        <ele>128.1</ele>
        <time>2017-05-21T06:30:11Z</time>
      </trkpt>
      <trkpt lat="43.65669" lon="3.75133">
        <ele>127.3</ele>
        <time>2017-05-21T06:30:12Z</time>
      </trkpt>
      <trkpt lat="43.65672" lon="3.75121">
        <ele>127.1</ele>
        <time>2017-05-21T06:30:13Z</time>
      </trkpt>
      <trkpt lat="43.65675" lon="3.75109">
        <ele>126.9</ele>
        <time>2017-05-21T06:30:14Z</time>
      </trkpt>
      <trkpt lat="43.65678" lon="3.75096">
        <ele>126.5</ele>
        <time>2017-05-21T06:30:15Z</time>
      </trkpt>
      <trkpt lat="43.65682" lon="3.75084">
        <ele>126.5</ele>
        <time>2017-05-21T06:30:16Z</time>
      </trkpt>
      <trkpt lat="43.65684" lon="3.75073">
        <ele>126.5</ele>
        <time>2017-05-21T06:30:17Z</time>
      </trkpt>
      <trkpt lat="43.65687" lon="3.75061">
        <ele>126.1</ele>
        <time>2017-05-21T06:30:18Z</time>
      </trkpt>
      <trkpt lat="43.65692" lon="3.7505">
        <ele>123.6</ele>
        <time>2017-05-21T06:30:19Z</time>
      </trkpt>
      <trkpt lat="43.65696" lon="3.75042">
        <ele>122.5</ele>
        <time>2017-05-21T06:30:20Z</time>
      </trkpt>
      <trkpt lat="43.657" lon="3.75034">
        <ele>121.1</ele>
        <time>2017-05-21T06:30:21Z</time>
      </trkpt>
      <trkpt lat="43.65706" lon="3.75028">
        <ele>119.1</ele>
        <time>2017-05-21T06:30:22Z</time>
      </trkpt>
      <trkpt lat="43.65713" lon="3.75024">
        <ele>117.1</ele>
        <time>2017-05-21T06:30:23Z</time>
      </trkpt>
      <trkpt lat="43.65721" lon="3.75021">
        <ele>116.5</ele>
        <time>2017-05-21T06:30:24Z</time>
      </trkpt>
      <trkpt lat="43.65727" lon="3.75018">
        <ele>115.7</ele>
        <time>2017-05-21T06:30:25Z</time>
      </trkpt>
      <trkpt lat="43.65733" lon="3.75016">
        <ele>115.2</ele>
        <time>2017-05-21T06:30:26Z</time>
      </trkpt>
      <trkpt lat="43.65737" lon="3.75015">
        <ele>114.8</ele>
        <time>2017-05-21T06:30:27Z</time>
      </trkpt>
      <trkpt lat="43.65741" lon="3.75015">
        <ele>114.6</ele>
        <time>2017-05-21T06:30:28Z</time>
      </trkpt>
      <trkpt lat="43.65746" lon="3.75014">
        <ele>114.3</ele>
        <time>2017-05-21T06:30:30Z</time>
      </trkpt>
      <trkpt lat="43.65747" lon="3.75011">
        <ele>114.4</ele>
        <time>2017-05-21T06:30:32Z</time>
      </trkpt>
      <trkpt lat="43.65746" lon="3.75005">
        <ele>114.7</ele>
        <time>2017-05-21T06:30:34Z</time>
      </trkpt>
      <trkpt lat="43.65744" lon="3.75003">
        <ele>114.8</ele>
        <time>2017-05-21T06:30:35Z</time>
      </trkpt>
      <trkpt lat="43.65742" lon="3.75001">
        <ele>114.9</ele>
        <time>2017-05-21T06:30:36Z</time>
      </trkpt>
      <trkpt lat="43.65738" lon="3.75002">
        <ele>114.9</ele>
        <time>2017-05-21T06:30:37Z</time>
      </trkpt>
      <trkpt lat="43.65736" lon="3.75004">
        <ele>114.9</ele>
        <time>2017-05-21T06:30:38Z</time>
      </trkpt>
      <trkpt lat="43.65733" lon="3.75005">
        <ele>115</ele>
        <time>2017-05-21T06:30:39Z</time>
      </trkpt>
      <trkpt lat="43.6573" lon="3.75005">
        <ele>115</ele>
        <time>2017-05-21T06:30:40Z</time>
      </trkpt>
      <trkpt lat="43.65727" lon="3.75003">
        <ele>115.1</ele>
        <time>2017-05-21T06:30:41Z</time>
      </trkpt>
      <trkpt lat="43.65724" lon="3.75001">
        <ele>115</ele>
        <time>2017-05-21T06:30:42Z</time>
      </trkpt>
      <trkpt lat="43.65721" lon="3.75">
        <ele>115</ele>
        <time>2017-05-21T06:30:43Z</time>
      </trkpt>
      <trkpt lat="43.65718" lon="3.74997">
        <ele>115.1</ele>
        <time>2017-05-21T06:30:44Z</time>
      </trkpt>
      <trkpt lat="43.65715" lon="3.74994">
        <ele>115.5</ele>
        <time>2017-05-21T06:30:45Z</time>
      </trkpt>
      <trkpt lat="43.65713" lon="3.7499">
        <ele>115.9</ele>
        <time>2017-05-21T06:30:46Z</time>
      </trkpt>
      <trkpt lat="43.65711" lon="3.74987">
        <ele>116</ele>
        <time>2017-05-21T06:30:47Z</time>
      </trkpt>
      <trkpt lat="43.65708" lon="3.74984">
        <ele>116.8</ele>
        <time>2017-05-21T06:30:48Z</time>
      </trkpt>
      <trkpt lat="43.65703" lon="3.74979">
        <ele>118.2</ele>
        <time>2017-05-21T06:30:50Z</time>
      </trkpt>
      <trkpt lat="43.65701" lon="3.74976">
        <ele>118.2</ele>
        <time>2017-05-21T06:30:51Z</time>
      </trkpt>
      <trkpt lat="43.65697" lon="3.74972">
        <ele>119.7</ele>
        <time>2017-05-21T06:30:53Z</time>
      </trkpt>
      <trkpt lat="43.65694" lon="3.74966">
        <ele>120.5</ele>
        <time>2017-05-21T06:30:55Z</time>
      </trkpt>
      <trkpt lat="43.65692" lon="3.74963">
        <ele>120.5</ele>
        <time>2017-05-21T06:30:56Z</time>
      </trkpt>
      <trkpt lat="43.65689" lon="3.74956">
        <ele>121.5</ele>
        <time>2017-05-21T06:30:58Z</time>
      </trkpt>
      <trkpt lat="43.65687" lon="3.74952">
        <ele>122.6</ele>
        <time>2017-05-21T06:30:59Z</time>
      </trkpt>
      <trkpt lat="43.65685" lon="3.74948">
        <ele>122.7</ele>
        <time>2017-05-21T06:31:00Z</time>
      </trkpt>
      <trkpt lat="43.65684" lon="3.74944">
        <ele>124</ele>
        <time>2017-05-21T06:31:01Z</time>
      </trkpt>
      <trkpt lat="43.65682" lon="3.74939">
        <ele>123.9</ele>
        <time>2017-05-21T06:31:02Z</time>
      </trkpt>
      <trkpt lat="43.65681" lon="3.74934">
        <ele>125.2</ele>
        <time>2017-05-21T06:31:03Z</time>
      </trkpt>
      <trkpt lat="43.6568" lon="3.7493">
        <ele>124.9</ele>
        <time>2017-05-21T06:31:04Z</time>
      </trkpt>
      <trkpt lat="43.65679" lon="3.74926">
        <ele>125</ele>
        <time>2017-05-21T06:31:05Z</time>
      </trkpt>
      <trkpt lat="43.65678" lon="3.74921">
        <ele>126.2</ele>
        <time>2017-05-21T06:31:06Z</time>
      </trkpt>
      <trkpt lat="43.65678" lon="3.74917">
        <ele>126</ele>
        <time>2017-05-21T06:31:07Z</time>
      </trkpt>
      <trkpt lat="43.65679" lon="3.74912">
        <ele>124.9</ele>
        <time>2017-05-21T06:31:08Z</time>
      </trkpt>
      <trkpt lat="43.65679" lon="3.74904">
        <ele>125.4</ele>
        <time>2017-05-21T06:31:10Z</time>
      </trkpt>
      <trkpt lat="43.65679" lon="3.749">
        <ele>125.4</ele>
        <time>2017-05-21T06:31:11Z</time>
      </trkpt>
      <trkpt lat="43.6568" lon="3.74896">
        <ele>125.7</ele>
        <time>2017-05-21T06:31:12Z</time>
      </trkpt>
      <trkpt lat="43.65679" lon="3.74892">
        <ele>126.2</ele>
        <time>2017-05-21T06:31:13Z</time>
      </trkpt>
      <trkpt lat="43.65679" lon="3.74888">
        <ele>127.1</ele>
        <time>2017-05-21T06:31:14Z</time>
      </trkpt>
      <trkpt lat="43.65675" lon="3.74882">
        <ele>128.4</ele>
        <time>2017-05-21T06:31:16Z</time>
      </trkpt>
      <trkpt lat="43.65675" lon="3.74875">
        <ele>129</ele>
        <time>2017-05-21T06:31:18Z</time>
      </trkpt>
      <trkpt lat="43.65673" lon="3.74869">
        <ele>130.2</ele>
        <time>2017-05-21T06:31:20Z</time>
      </trkpt>
      <trkpt lat="43.65675" lon="3.74863">
        <ele>130.7</ele>
        <time>2017-05-21T06:31:22Z</time>
      </trkpt>
      <trkpt lat="43.65676" lon="3.74856">
        <ele>131.2</ele>
        <time>2017-05-21T06:31:24Z</time>
      </trkpt>
      <trkpt lat="43.65677" lon="3.7485">
        <ele>131.6</ele>
        <time>2017-05-21T06:31:26Z</time>
      </trkpt>
      <trkpt lat="43.65678" lon="3.74844">
        <ele>132.1</ele>
        <time>2017-05-21T06:31:28Z</time>
      </trkpt>
      <trkpt lat="43.6568" lon="3.74841">
        <ele>131.8</ele>
        <time>2017-05-21T06:31:30Z</time>
      </trkpt>
      <trkpt lat="43.65681" lon="3.74835">
        <ele>132.1</ele>
        <time>2017-05-21T06:31:32Z</time>
      </trkpt>
      <trkpt lat="43.65682" lon="3.7483">
        <ele>132.2</ele>
        <time>2017-05-21T06:31:35Z</time>
      </trkpt>
      <trkpt lat="43.65683" lon="3.74824">
        <ele>132</ele>
        <time>2017-05-21T06:31:38Z</time>
      </trkpt>
      <trkpt lat="43.65686" lon="3.7482">
        <ele>132</ele>
        <time>2017-05-21T06:31:41Z</time>
      </trkpt>
      <trkpt lat="43.65689" lon="3.74822">
        <ele>132.1</ele>
        <time>2017-05-21T06:31:44Z</time>
      </trkpt>
      <trkpt lat="43.65693" lon="3.74824">
        <ele>132.4</ele>
        <time>2017-05-21T06:31:48Z</time>
      </trkpt>
      <trkpt lat="43.65695" lon="3.74827">
        <ele>132.8</ele>
        <time>2017-05-21T06:31:51Z</time>
      </trkpt>
      <trkpt lat="43.65697" lon="3.74831">
        <ele>132.8</ele>
        <time>2017-05-21T06:31:54Z</time>
      </trkpt>
      <trkpt lat="43.657" lon="3.74833">
        <ele>133.2</ele>
        <time>2017-05-21T06:31:56Z</time>
      </trkpt>
      <trkpt lat="43.65702" lon="3.74837">
        <ele>133.6</ele>
        <time>2017-05-21T06:31:58Z</time>
      </trkpt>
      <trkpt lat="43.65703" lon="3.7484">
        <ele>133.3</ele>
        <time>2017-05-21T06:32:00Z</time>
      </trkpt>
      <trkpt lat="43.65704" lon="3.74845">
        <ele>133.3</ele>
        <time>2017-05-21T06:32:02Z</time>
      </trkpt>
      <trkpt lat="43.65706" lon="3.74849">
        <ele>132.7</ele>
        <time>2017-05-21T06:32:04Z</time>
      </trkpt>
      <trkpt lat="43.65708" lon="3.74855">
        <ele>132.4</ele>
        <time>2017-05-21T06:32:06Z</time>
      </trkpt>
      <trkpt lat="43.6571" lon="3.7486">
        <ele>131.8</ele>
        <time>2017-05-21T06:32:08Z</time>
      </trkpt>
      <trkpt lat="43.65711" lon="3.74866">
        <ele>131.4</ele>
        <time>2017-05-21T06:32:10Z</time>
      </trkpt>
      <trkpt lat="43.65712" lon="3.7487">
        <ele>130.1</ele>
        <time>2017-05-21T06:32:11Z</time>
      </trkpt>
      <trkpt lat="43.65715" lon="3.74875">
        <ele>129.5</ele>
        <time>2017-05-21T06:32:12Z</time>
      </trkpt>
      <trkpt lat="43.65717" lon="3.7488">
        <ele>128.9</ele>
        <time>2017-05-21T06:32:13Z</time>
      </trkpt>
      <trkpt lat="43.65719" lon="3.74882">
        <ele>128.9</ele>
        <time>2017-05-21T06:32:14Z</time>
      </trkpt>
      <trkpt lat="43.65722" lon="3.74885">
        <ele>128.3</ele>
        <time>2017-05-21T06:32:15Z</time>
      </trkpt>
      <trkpt lat="43.65724" lon="3.74888">
        <ele>127.8</ele>
        <time>2017-05-21T06:32:16Z</time>
      </trkpt>
      <trkpt lat="43.65727" lon="3.7489">
        <ele>127.9</ele>
        <time>2017-05-21T06:32:17Z</time>
      </trkpt>
      <trkpt lat="43.65729" lon="3.74891">
        <ele>128</ele>
        <time>2017-05-21T06:32:18Z</time>
      </trkpt>
      <trkpt lat="43.65734" lon="3.74891">
        <ele>127.4</ele>
        <time>2017-05-21T06:32:20Z</time>
      </trkpt>
      <trkpt lat="43.65737" lon="3.74891">
        <ele>128</ele>
        <time>2017-05-21T06:32:21Z</time>
      </trkpt>
      <trkpt lat="43.6574" lon="3.74891">
        <ele>128</ele>
        <time>2017-05-21T06:32:22Z</time>
      </trkpt>
      <trkpt lat="43.65743" lon="3.7489">
        <ele>127.9</ele>
        <time>2017-05-21T06:32:23Z</time>
      </trkpt>
      <trkpt lat="43.65746" lon="3.7489">
        <ele>127.9</ele>
        <time>2017-05-21T06:32:24Z</time>
      </trkpt>
      <trkpt lat="43.65749" lon="3.74891">
        <ele>127.8</ele>
        <time>2017-05-21T06:32:25Z</time>
      </trkpt>
      <trkpt lat="43.65753" lon="3.74892">
        <ele>127</ele>
        <time>2017-05-21T06:32:26Z</time>
      </trkpt>
      <trkpt lat="43.65755" lon="3.74892">
        <ele>126.9</ele>
        <time>2017-05-21T06:32:27Z</time>
      </trkpt>
      <trkpt lat="43.65758" lon="3.74891">
        <ele>127.6</ele>
        <time>2017-05-21T06:32:28Z</time>
      </trkpt>
      <trkpt lat="43.65763" lon="3.74893">
        <ele>126.4</ele>
        <time>2017-05-21T06:32:30Z</time>
      </trkpt>
      <trkpt lat="43.65768" lon="3.74893">
        <ele>126.2</ele>
        <time>2017-05-21T06:32:32Z</time>
      </trkpt>
      <trkpt lat="43.65775" lon="3.74892">
        <ele>125.9</ele>
        <time>2017-05-21T06:32:34Z</time>
      </trkpt>
      <trkpt lat="43.65779" lon="3.74889">
        <ele>126.9</ele>
        <time>2017-05-21T06:32:36Z</time>
      </trkpt>
      <trkpt lat="43.65782" lon="3.74886">
        <ele>128</ele>
        <time>2017-05-21T06:32:37Z</time>
      </trkpt>
      <trkpt lat="43.65786" lon="3.74881">
        <ele>129.3</ele>
        <time>2017-05-21T06:32:39Z</time>
      </trkpt>
      <trkpt lat="43.65789" lon="3.74876">
        <ele>130.7</ele>
        <time>2017-05-21T06:32:41Z</time>
      </trkpt>
      <trkpt lat="43.65792" lon="3.74873">
        <ele>132.1</ele>
        <time>2017-05-21T06:32:42Z</time>
      </trkpt>
      <trkpt lat="43.65794" lon="3.74869">
        <ele>133.6</ele>
        <time>2017-05-21T06:32:44Z</time>
      </trkpt>
      <trkpt lat="43.65797" lon="3.74865">
        <ele>134.3</ele>
        <time>2017-05-21T06:32:46Z</time>
      </trkpt>
      <trkpt lat="43.658" lon="3.7486">
        <ele>135.5</ele>
        <time>2017-05-21T06:32:48Z</time>
      </trkpt>
      <trkpt lat="43.65804" lon="3.74853">
        <ele>136</ele>
        <time>2017-05-21T06:32:50Z</time>
      </trkpt>
      <trkpt lat="43.65807" lon="3.74847">
        <ele>138.1</ele>
        <time>2017-05-21T06:32:52Z</time>
      </trkpt>
      <trkpt lat="43.65809" lon="3.74845">
        <ele>138.1</ele>
        <time>2017-05-21T06:32:53Z</time>
      </trkpt>
      <trkpt lat="43.65811" lon="3.74841">
        <ele>138.8</ele>
        <time>2017-05-21T06:32:54Z</time>
      </trkpt>
      <trkpt lat="43.65813" lon="3.74838">
        <ele>139.4</ele>
        <time>2017-05-21T06:32:55Z</time>
      </trkpt>
      <trkpt lat="43.65815" lon="3.74833">
        <ele>140.1</ele>
        <time>2017-05-21T06:32:57Z</time>
      </trkpt>
      <trkpt lat="43.65817" lon="3.74828">
        <ele>140.4</ele>
        <time>2017-05-21T06:32:59Z</time>
      </trkpt>
      <trkpt lat="43.6582" lon="3.74824">
        <ele>140.7</ele>
        <time>2017-05-21T06:33:00Z</time>
      </trkpt>
      <trkpt lat="43.65821" lon="3.74819">
        <ele>141.4</ele>
        <time>2017-05-21T06:33:02Z</time>
      </trkpt>
      <trkpt lat="43.65824" lon="3.74813">
        <ele>142.1</ele>
        <time>2017-05-21T06:33:04Z</time>
      </trkpt>
      <trkpt lat="43.65826" lon="3.74808">
        <ele>141.8</ele>
        <time>2017-05-21T06:33:06Z</time>
      </trkpt>
      <trkpt lat="43.65827" lon="3.74804">
        <ele>142</ele>
        <time>2017-05-21T06:33:07Z</time>
      </trkpt>
      <trkpt lat="43.65828" lon="3.748">
        <ele>141.6</ele>
        <time>2017-05-21T06:33:08Z</time>
      </trkpt>
      <trkpt lat="43.65828" lon="3.74794">
        <ele>142</ele>
        <time>2017-05-21T06:33:10Z</time>
      </trkpt>
      <trkpt lat="43.65831" lon="3.7479">
        <ele>142.5</ele>
        <time>2017-05-21T06:33:11Z</time>
      </trkpt>
      <trkpt lat="43.65833" lon="3.74786">
        <ele>142.3</ele>
        <time>2017-05-21T06:33:12Z</time>
      </trkpt>
      <trkpt lat="43.65836" lon="3.7478">
        <ele>142.2</ele>
        <time>2017-05-21T06:33:14Z</time>
      </trkpt>
      <trkpt lat="43.65838" lon="3.74776">
        <ele>142.1</ele>
        <time>2017-05-21T06:33:15Z</time>
      </trkpt>
      <trkpt lat="43.6584" lon="3.74771">
        <ele>143.7</ele>
        <time>2017-05-21T06:33:17Z</time>
      </trkpt>
      <trkpt lat="43.65843" lon="3.74765">
        <ele>143.7</ele>
        <time>2017-05-21T06:33:19Z</time>
      </trkpt>
      <trkpt lat="43.65845" lon="3.74758">
        <ele>144.3</ele>
        <time>2017-05-21T06:33:21Z</time>
      </trkpt>
      <trkpt lat="43.65846" lon="3.7475">
        <ele>145.1</ele>
        <time>2017-05-21T06:33:23Z</time>
      </trkpt>
      <trkpt lat="43.65848" lon="3.74746">
        <ele>144.5</ele>
        <time>2017-05-21T06:33:24Z</time>
      </trkpt>
      <trkpt lat="43.65851" lon="3.74741">
        <ele>143.9</ele>
        <time>2017-05-21T06:33:25Z</time>
      </trkpt>
      <trkpt lat="43.65853" lon="3.74735">
        <ele>144.5</ele>
        <time>2017-05-21T06:33:27Z</time>
      </trkpt>
      <trkpt lat="43.65855" lon="3.74729">
        <ele>145.5</ele>
        <time>2017-05-21T06:33:28Z</time>
      </trkpt>
      <trkpt lat="43.65857" lon="3.74724">
        <ele>145.2</ele>
        <time>2017-05-21T06:33:29Z</time>
      </trkpt>
      <trkpt lat="43.65859" lon="3.7472">
        <ele>146</ele>
        <time>2017-05-21T06:33:30Z</time>
      </trkpt>
      <trkpt lat="43.6586" lon="3.74716">
        <ele>145.5</ele>
        <time>2017-05-21T06:33:31Z</time>
      </trkpt>
      <trkpt lat="43.65863" lon="3.74712">
        <ele>144.8</ele>
        <time>2017-05-21T06:33:32Z</time>
      </trkpt>
      <trkpt lat="43.65865" lon="3.74706">
        <ele>145.9</ele>
        <time>2017-05-21T06:33:33Z</time>
      </trkpt>
      <trkpt lat="43.65867" lon="3.74701">
        <ele>144.8</ele>
        <time>2017-05-21T06:33:34Z</time>
      </trkpt>
      <trkpt lat="43.65869" lon="3.74695">
        <ele>143.5</ele>
        <time>2017-05-21T06:33:35Z</time>
      </trkpt>
      <trkpt lat="43.65871" lon="3.74688">
        <ele>143.8</ele>
        <time>2017-05-21T06:33:36Z</time>
      </trkpt>
      <trkpt lat="43.65874" lon="3.74682">
        <ele>142.5</ele>
        <time>2017-05-21T06:33:37Z</time>
      </trkpt>
      <trkpt lat="43.65876" lon="3.74676">
        <ele>141.5</ele>
        <time>2017-05-21T06:33:38Z</time>
      </trkpt>
      <trkpt lat="43.65878" lon="3.7467">
        <ele>140.1</ele>
        <time>2017-05-21T06:33:39Z</time>
      </trkpt>
      <trkpt lat="43.65881" lon="3.74663">
        <ele>138.8</ele>
        <time>2017-05-21T06:33:40Z</time>
      </trkpt>
      <trkpt lat="43.65883" lon="3.74657">
        <ele>138.9</ele>
        <time>2017-05-21T06:33:41Z</time>
      </trkpt>
      <trkpt lat="43.65886" lon="3.74649">
        <ele>137.8</ele>
        <time>2017-05-21T06:33:42Z</time>
      </trkpt>
      <trkpt lat="43.65889" lon="3.74642">
        <ele>136.8</ele>
        <time>2017-05-21T06:33:43Z</time>
      </trkpt>
      <trkpt lat="43.65891" lon="3.74637">
        <ele>135.7</ele>
        <time>2017-05-21T06:33:44Z</time>
      </trkpt>
      <trkpt lat="43.65893" lon="3.7463">
        <ele>134.7</ele>
        <time>2017-05-21T06:33:45Z</time>
      </trkpt>
      <trkpt lat="43.65895" lon="3.74622">
        <ele>135.9</ele>
        <time>2017-05-21T06:33:46Z</time>
      </trkpt>
      <trkpt lat="43.65898" lon="3.74616">
        <ele>135.9</ele>
        <time>2017-05-21T06:33:47Z</time>
      </trkpt>
      <trkpt lat="43.65901" lon="3.74609">
        <ele>135</ele>
        <time>2017-05-21T06:33:48Z</time>
      </trkpt>
      <trkpt lat="43.65904" lon="3.74603">
        <ele>135.1</ele>
        <time>2017-05-21T06:33:49Z</time>
      </trkpt>
      <trkpt lat="43.65909" lon="3.74598">
        <ele>133</ele>
        <time>2017-05-21T06:33:50Z</time>
      </trkpt>
      <trkpt lat="43.65914" lon="3.74593">
        <ele>132.7</ele>
        <time>2017-05-21T06:33:51Z</time>
      </trkpt>
      <trkpt lat="43.6592" lon="3.74592">
        <ele>130.1</ele>
        <time>2017-05-21T06:33:52Z</time>
      </trkpt>
      <trkpt lat="43.65927" lon="3.74586">
        <ele>129.3</ele>
        <time>2017-05-21T06:33:53Z</time>
      </trkpt>
      <trkpt lat="43.65933" lon="3.74581">
        <ele>127.4</ele>
        <time>2017-05-21T06:33:54Z</time>
      </trkpt>
      <trkpt lat="43.65942" lon="3.74577">
        <ele>124.9</ele>
        <time>2017-05-21T06:33:55Z</time>
      </trkpt>
      <trkpt lat="43.65951" lon="3.74569">
        <ele>124.9</ele>
        <time>2017-05-21T06:33:56Z</time>
      </trkpt>
      <trkpt lat="43.65957" lon="3.74561">
        <ele>124.7</ele>
        <time>2017-05-21T06:33:57Z</time>
      </trkpt>
      <trkpt lat="43.65965" lon="3.74552">
        <ele>125.8</ele>
        <time>2017-05-21T06:33:58Z</time>
      </trkpt>
      <trkpt lat="43.65972" lon="3.74542">
        <ele>127.1</ele>
        <time>2017-05-21T06:33:59Z</time>
      </trkpt>
      <trkpt lat="43.65979" lon="3.74534">
        <ele>128.1</ele>
        <time>2017-05-21T06:34:00Z</time>
      </trkpt>
      <trkpt lat="43.65986" lon="3.74526">
        <ele>128.2</ele>
        <time>2017-05-21T06:34:01Z</time>
      </trkpt>
      <trkpt lat="43.65993" lon="3.74518">
        <ele>127.3</ele>
        <time>2017-05-21T06:34:02Z</time>
      </trkpt>
      <trkpt lat="43.65998" lon="3.7451">
        <ele>127.4</ele>
        <time>2017-05-21T06:34:03Z</time>
      </trkpt>
      <trkpt lat="43.66005" lon="3.74502">
        <ele>126.9</ele>
        <time>2017-05-21T06:34:04Z</time>
      </trkpt>
      <trkpt lat="43.66012" lon="3.74495">
        <ele>126.8</ele>
        <time>2017-05-21T06:34:05Z</time>
      </trkpt>
      <trkpt lat="43.66016" lon="3.74488">
        <ele>126.9</ele>
        <time>2017-05-21T06:34:06Z</time>
      </trkpt>
      <trkpt lat="43.66021" lon="3.7448">
        <ele>127.4</ele>
        <time>2017-05-21T06:34:07Z</time>
      </trkpt>
      <trkpt lat="43.66024" lon="3.74474">
        <ele>128.4</ele>
        <time>2017-05-21T06:34:08Z</time>
      </trkpt>
      <trkpt lat="43.66027" lon="3.74469">
        <ele>128.6</ele>
        <time>2017-05-21T06:34:09Z</time>
      </trkpt>
      <trkpt lat="43.66029" lon="3.74465">
        <ele>129.5</ele>
        <time>2017-05-21T06:34:10Z</time>
      </trkpt>
      <trkpt lat="43.6603" lon="3.74461">
        <ele>129.8</ele>
        <time>2017-05-21T06:34:12Z</time>
      </trkpt>
      <trkpt lat="43.66034" lon="3.74455">
        <ele>130.2</ele>
        <time>2017-05-21T06:34:14Z</time>
      </trkpt>
      <trkpt lat="43.66037" lon="3.74451">
        <ele>130.5</ele>
        <time>2017-05-21T06:34:16Z</time>
      </trkpt>
      <trkpt lat="43.66041" lon="3.74447">
        <ele>130.7</ele>
        <time>2017-05-21T06:34:18Z</time>
      </trkpt>
      <trkpt lat="43.66043" lon="3.74445">
        <ele>129.9</ele>
        <time>2017-05-21T06:34:20Z</time>
      </trkpt>
      <trkpt lat="43.66046" lon="3.74443">
        <ele>130.1</ele>
        <time>2017-05-21T06:34:22Z</time>
      </trkpt>
      <trkpt lat="43.66049" lon="3.74441">
        <ele>129.5</ele>
        <time>2017-05-21T06:34:23Z</time>
      </trkpt>
      <trkpt lat="43.66051" lon="3.74439">
        <ele>129.9</ele>
        <time>2017-05-21T06:34:25Z</time>
      </trkpt>
      <trkpt lat="43.66054" lon="3.74437">
        <ele>129.9</ele>
        <time>2017-05-21T06:34:26Z</time>
      </trkpt>
      <trkpt lat="43.66056" lon="3.74434">
        <ele>130.5</ele>
        <time>2017-05-21T06:34:27Z</time>
      </trkpt>
      <trkpt lat="43.66058" lon="3.74431">
        <ele>131.2</ele>
        <time>2017-05-21T06:34:29Z</time>
      </trkpt>
      <trkpt lat="43.66061" lon="3.74427">
        <ele>131.8</ele>
        <time>2017-05-21T06:34:31Z</time>
      </trkpt>
      <trkpt lat="43.66064" lon="3.74425">
        <ele>131.2</ele>
        <time>2017-05-21T06:34:32Z</time>
      </trkpt>
      <trkpt lat="43.66065" lon="3.74421">
        <ele>132.3</ele>
        <time>2017-05-21T06:34:34Z</time>
      </trkpt>
      <trkpt lat="43.66067" lon="3.74416">
        <ele>132.5</ele>
        <time>2017-05-21T06:34:36Z</time>
      </trkpt>
      <trkpt lat="43.6607" lon="3.74411">
        <ele>134.1</ele>
        <time>2017-05-21T06:34:37Z</time>
      </trkpt>
      <trkpt lat="43.66072" lon="3.74407">
        <ele>133.3</ele>
        <time>2017-05-21T06:34:38Z</time>
      </trkpt>
      <trkpt lat="43.66074" lon="3.74403">
        <ele>133.3</ele>
        <time>2017-05-21T06:34:39Z</time>
      </trkpt>
      <trkpt lat="43.66076" lon="3.744">
        <ele>134</ele>
        <time>2017-05-21T06:34:40Z</time>
      </trkpt>
      <trkpt lat="43.66078" lon="3.74397">
        <ele>133.8</ele>
        <time>2017-05-21T06:34:41Z</time>
      </trkpt>
      <trkpt lat="43.66081" lon="3.74392">
        <ele>133.6</ele>
        <time>2017-05-21T06:34:43Z</time>
      </trkpt>
      <trkpt lat="43.66084" lon="3.74387">
        <ele>133.4</ele>
        <time>2017-05-21T06:34:44Z</time>
      </trkpt>
      <trkpt lat="43.66085" lon="3.74381">
        <ele>134.1</ele>
        <time>2017-05-21T06:34:46Z</time>
      </trkpt>
      <trkpt lat="43.66087" lon="3.74378">
        <ele>134</ele>
        <time>2017-05-21T06:34:47Z</time>
      </trkpt>
      <trkpt lat="43.66088" lon="3.74375">
        <ele>134.8</ele>
        <time>2017-05-21T06:34:48Z</time>
      </trkpt>
      <trkpt lat="43.66093" lon="3.74371">
        <ele>133.6</ele>
        <time>2017-05-21T06:34:49Z</time>
      </trkpt>
      <trkpt lat="43.66095" lon="3.74366">
        <ele>133.1</ele>
        <time>2017-05-21T06:34:51Z</time>
      </trkpt>
      <trkpt lat="43.66095" lon="3.74359">
        <ele>134.2</ele>
        <time>2017-05-21T06:34:53Z</time>
      </trkpt>
      <trkpt lat="43.66095" lon="3.74355">
        <ele>134.8</ele>
        <time>2017-05-21T06:34:54Z</time>
      </trkpt>
      <trkpt lat="43.66094" lon="3.74349">
        <ele>136.8</ele>
        <time>2017-05-21T06:34:56Z</time>
      </trkpt>
      <trkpt lat="43.66096" lon="3.74343">
        <ele>136.3</ele>
        <time>2017-05-21T06:34:58Z</time>
      </trkpt>
      <trkpt lat="43.66097" lon="3.74338">
        <ele>137.7</ele>
        <time>2017-05-21T06:35:00Z</time>
      </trkpt>
      <trkpt lat="43.66099" lon="3.74331">
        <ele>137.1</ele>
        <time>2017-05-21T06:35:02Z</time>
      </trkpt>
      <trkpt lat="43.66101" lon="3.74327">
        <ele>138</ele>
        <time>2017-05-21T06:35:04Z</time>
      </trkpt>
      <trkpt lat="43.66102" lon="3.74323">
        <ele>137.6</ele>
        <time>2017-05-21T06:35:06Z</time>
      </trkpt>
      <trkpt lat="43.66103" lon="3.74319">
        <ele>138.7</ele>
        <time>2017-05-21T06:35:15Z</time>
      </trkpt>
      <trkpt lat="43.66105" lon="3.74316">
        <ele>138.6</ele>
        <time>2017-05-21T06:35:17Z</time>
      </trkpt>
      <trkpt lat="43.66108" lon="3.74311">
        <ele>138.4</ele>
        <time>2017-05-21T06:35:19Z</time>
      </trkpt>
      <trkpt lat="43.6611" lon="3.74306">
        <ele>139.3</ele>
        <time>2017-05-21T06:35:21Z</time>
      </trkpt>
      <trkpt lat="43.66112" lon="3.74303">
        <ele>139.1</ele>
        <time>2017-05-21T06:35:22Z</time>
      </trkpt>
      <trkpt lat="43.66113" lon="3.74298">
        <ele>140</ele>
        <time>2017-05-21T06:35:24Z</time>
      </trkpt>
      <trkpt lat="43.66115" lon="3.74292">
        <ele>139.7</ele>
        <time>2017-05-21T06:35:26Z</time>
      </trkpt>
      <trkpt lat="43.66116" lon="3.74286">
        <ele>140.5</ele>
        <time>2017-05-21T06:35:28Z</time>
      </trkpt>
      <trkpt lat="43.66118" lon="3.74282">
        <ele>140.7</ele>
        <time>2017-05-21T06:35:30Z</time>
      </trkpt>
      <trkpt lat="43.6612" lon="3.74274">
        <ele>140.1</ele>
        <time>2017-05-21T06:35:32Z</time>
      </trkpt>
      <trkpt lat="43.66122" lon="3.74269">
        <ele>141.4</ele>
        <time>2017-05-21T06:35:33Z</time>
      </trkpt>
      <trkpt lat="43.66123" lon="3.74263">
        <ele>142</ele>
        <time>2017-05-21T06:35:35Z</time>
      </trkpt>
      <trkpt lat="43.66125" lon="3.74258">
        <ele>141.2</ele>
        <time>2017-05-21T06:35:37Z</time>
      </trkpt>
      <trkpt lat="43.66125" lon="3.74254">
        <ele>141.7</ele>
        <time>2017-05-21T06:35:38Z</time>
      </trkpt>
      <trkpt lat="43.66126" lon="3.74248">
        <ele>142.2</ele>
        <time>2017-05-21T06:35:40Z</time>
      </trkpt>
      <trkpt lat="43.66125" lon="3.74243">
        <ele>143.2</ele>
        <time>2017-05-21T06:35:42Z</time>
      </trkpt>
      <trkpt lat="43.66128" lon="3.74241">
        <ele>141.8</ele>
        <time>2017-05-21T06:35:43Z</time>
      </trkpt>
      <trkpt lat="43.66129" lon="3.74237">
        <ele>141.1</ele>
        <time>2017-05-21T06:35:44Z</time>
      </trkpt>
      <trkpt lat="43.6613" lon="3.74233">
        <ele>141.7</ele>
        <time>2017-05-21T06:35:45Z</time>
      </trkpt>
      <trkpt lat="43.6613" lon="3.74227">
        <ele>142.1</ele>
        <time>2017-05-21T06:35:47Z</time>
      </trkpt>
      <trkpt lat="43.66131" lon="3.7422">
        <ele>142.7</ele>
        <time>2017-05-21T06:35:49Z</time>
      </trkpt>
      <trkpt lat="43.66132" lon="3.74216">
        <ele>141.3</ele>
        <time>2017-05-21T06:35:50Z</time>
      </trkpt>
      <trkpt lat="43.66132" lon="3.74211">
        <ele>141.3</ele>
        <time>2017-05-21T06:35:51Z</time>
      </trkpt>
      <trkpt lat="43.66133" lon="3.74207">
        <ele>141.2</ele>
        <time>2017-05-21T06:35:52Z</time>
      </trkpt>
      <trkpt lat="43.66134" lon="3.74199">
        <ele>141</ele>
        <time>2017-05-21T06:35:54Z</time>
      </trkpt>
      <trkpt lat="43.66132" lon="3.74195">
        <ele>140.9</ele>
        <time>2017-05-21T06:35:55Z</time>
      </trkpt>
      <trkpt lat="43.6613" lon="3.74189">
        <ele>142.9</ele>
        <time>2017-05-21T06:35:57Z</time>
      </trkpt>
      <trkpt lat="43.6613" lon="3.74184">
        <ele>142.9</ele>
        <time>2017-05-21T06:35:59Z</time>
      </trkpt>
      <trkpt lat="43.6613" lon="3.74179">
        <ele>143.1</ele>
        <time>2017-05-21T06:36:01Z</time>
      </trkpt>
      <trkpt lat="43.66129" lon="3.74173">
        <ele>143.4</ele>
        <time>2017-05-21T06:36:03Z</time>
      </trkpt>
      <trkpt lat="43.66129" lon="3.74167">
        <ele>143.6</ele>
        <time>2017-05-21T06:36:05Z</time>
      </trkpt>
      <trkpt lat="43.66131" lon="3.74163">
        <ele>143.7</ele>
        <time>2017-05-21T06:36:06Z</time>
      </trkpt>
      <trkpt lat="43.6613" lon="3.74158">
        <ele>143.9</ele>
        <time>2017-05-21T06:36:08Z</time>
      </trkpt>
      <trkpt lat="43.66129" lon="3.74153">
        <ele>144.3</ele>
        <time>2017-05-21T06:36:10Z</time>
      </trkpt>
      <trkpt lat="43.6613" lon="3.74148">
        <ele>144.5</ele>
        <time>2017-05-21T06:36:12Z</time>
      </trkpt>
      <trkpt lat="43.66131" lon="3.74144">
        <ele>144.7</ele>
        <time>2017-05-21T06:36:13Z</time>
      </trkpt>
      <trkpt lat="43.66131" lon="3.7414">
        <ele>144.8</ele>
        <time>2017-05-21T06:36:15Z</time>
      </trkpt>
      <trkpt lat="43.6613" lon="3.74134">
        <ele>145</ele>
        <time>2017-05-21T06:36:17Z</time>
      </trkpt>
      <trkpt lat="43.6613" lon="3.74129">
        <ele>145.1</ele>
        <time>2017-05-21T06:36:19Z</time>
      </trkpt>
      <trkpt lat="43.66131" lon="3.74123">
        <ele>145.3</ele>
        <time>2017-05-21T06:36:21Z</time>
      </trkpt>
      <trkpt lat="43.6613" lon="3.74116">
        <ele>145.4</ele>
        <time>2017-05-21T06:36:23Z</time>
      </trkpt>
      <trkpt lat="43.6613" lon="3.7411">
        <ele>145.4</ele>
        <time>2017-05-21T06:36:25Z</time>
      </trkpt>
      <trkpt lat="43.66128" lon="3.74104">
        <ele>146.8</ele>
        <time>2017-05-21T06:36:27Z</time>
      </trkpt>
      <trkpt lat="43.66125" lon="3.74098">
        <ele>148.1</ele>
        <time>2017-05-21T06:36:29Z</time>
      </trkpt>
      <trkpt lat="43.66123" lon="3.74093">
        <ele>148.2</ele>
        <time>2017-05-21T06:36:31Z</time>
      </trkpt>
      <trkpt lat="43.66122" lon="3.74087">
        <ele>149.7</ele>
        <time>2017-05-21T06:36:33Z</time>
      </trkpt>
      <trkpt lat="43.66123" lon="3.74084">
        <ele>149.9</ele>
        <time>2017-05-21T06:36:35Z</time>
      </trkpt>
      <trkpt lat="43.66124" lon="3.74079">
        <ele>148.8</ele>
        <time>2017-05-21T06:36:37Z</time>
      </trkpt>
      <trkpt lat="43.66125" lon="3.74075">
        <ele>149.2</ele>
        <time>2017-05-21T06:36:38Z</time>
      </trkpt>
      <trkpt lat="43.66127" lon="3.74068">
        <ele>148.3</ele>
        <time>2017-05-21T06:36:40Z</time>
      </trkpt>
      <trkpt lat="43.66129" lon="3.74065">
        <ele>148.8</ele>
        <time>2017-05-21T06:36:41Z</time>
      </trkpt>
      <trkpt lat="43.66131" lon="3.7406">
        <ele>147.9</ele>
        <time>2017-05-21T06:36:43Z</time>
      </trkpt>
      <trkpt lat="43.66135" lon="3.74059">
        <ele>146.7</ele>
        <time>2017-05-21T06:36:45Z</time>
      </trkpt>
      <trkpt lat="43.66138" lon="3.7406">
        <ele>145.6</ele>
        <time>2017-05-21T06:36:47Z</time>
      </trkpt>
      <trkpt lat="43.6614" lon="3.74064">
        <ele>144.1</ele>
        <time>2017-05-21T06:36:50Z</time>
      </trkpt>
      <trkpt lat="43.66142" lon="3.74066">
        <ele>143</ele>
        <time>2017-05-21T06:36:51Z</time>
      </trkpt>
      <trkpt lat="43.66145" lon="3.74068">
        <ele>141.5</ele>
        <time>2017-05-21T06:36:52Z</time>
      </trkpt>
      <trkpt lat="43.66152" lon="3.7407">
        <ele>138.8</ele>
        <time>2017-05-21T06:36:54Z</time>
      </trkpt>
      <trkpt lat="43.66155" lon="3.7407">
        <ele>137.4</ele>
        <time>2017-05-21T06:36:55Z</time>
      </trkpt>
      <trkpt lat="43.66158" lon="3.7407">
        <ele>136.1</ele>
        <time>2017-05-21T06:36:56Z</time>
      </trkpt>
      <trkpt lat="43.66162" lon="3.74069">
        <ele>134.9</ele>
        <time>2017-05-21T06:36:57Z</time>
      </trkpt>
      <trkpt lat="43.66166" lon="3.74069">
        <ele>133.7</ele>
        <time>2017-05-21T06:36:58Z</time>
      </trkpt>
      <trkpt lat="43.6617" lon="3.74066">
        <ele>132</ele>
        <time>2017-05-21T06:36:59Z</time>
      </trkpt>
      <trkpt lat="43.66174" lon="3.74063">
        <ele>130.9</ele>
        <time>2017-05-21T06:37:00Z</time>
      </trkpt>
      <trkpt lat="43.66179" lon="3.7406">
        <ele>129</ele>
        <time>2017-05-21T06:37:01Z</time>
      </trkpt>
      <trkpt lat="43.66184" lon="3.74054">
        <ele>128.8</ele>
        <time>2017-05-21T06:37:02Z</time>
      </trkpt>
      <trkpt lat="43.66188" lon="3.74047">
        <ele>127.2</ele>
        <time>2017-05-21T06:37:03Z</time>
      </trkpt>
      <trkpt lat="43.66192" lon="3.7404">
        <ele>126.9</ele>
        <time>2017-05-21T06:37:04Z</time>
      </trkpt>
      <trkpt lat="43.66194" lon="3.74034">
        <ele>127.3</ele>
        <time>2017-05-21T06:37:05Z</time>
      </trkpt>
      <trkpt lat="43.66196" lon="3.74028">
        <ele>127.3</ele>
        <time>2017-05-21T06:37:06Z</time>
      </trkpt>
      <trkpt lat="43.66198" lon="3.74021">
        <ele>127.1</ele>
        <time>2017-05-21T06:37:07Z</time>
      </trkpt>
      <trkpt lat="43.662" lon="3.74014">
        <ele>128.5</ele>
        <time>2017-05-21T06:37:08Z</time>
      </trkpt>
      <trkpt lat="43.66201" lon="3.74008">
        <ele>128.6</ele>
        <time>2017-05-21T06:37:09Z</time>
      </trkpt>
      <trkpt lat="43.66203" lon="3.74004">
        <ele>129.2</ele>
        <time>2017-05-21T06:37:10Z</time>
      </trkpt>
      <trkpt lat="43.66204" lon="3.74001">
        <ele>128.9</ele>
        <time>2017-05-21T06:37:11Z</time>
      </trkpt>
      <trkpt lat="43.66204" lon="3.73996">
        <ele>129.3</ele>
        <time>2017-05-21T06:37:12Z</time>
      </trkpt>
      <trkpt lat="43.66206" lon="3.73992">
        <ele>129.6</ele>
        <time>2017-05-21T06:37:13Z</time>
      </trkpt>
      <trkpt lat="43.66207" lon="3.73987">
        <ele>129.8</ele>
        <time>2017-05-21T06:37:14Z</time>
      </trkpt>
      <trkpt lat="43.66208" lon="3.73982">
        <ele>128.8</ele>
        <time>2017-05-21T06:37:15Z</time>
      </trkpt>
      <trkpt lat="43.66209" lon="3.73979">
        <ele>128.9</ele>
        <time>2017-05-21T06:37:16Z</time>
      </trkpt>
      <trkpt lat="43.6621" lon="3.73975">
        <ele>127.7</ele>
        <time>2017-05-21T06:37:17Z</time>
      </trkpt>
      <trkpt lat="43.66211" lon="3.73969">
        <ele>127.7</ele>
        <time>2017-05-21T06:37:18Z</time>
      </trkpt>
      <trkpt lat="43.66212" lon="3.73965">
        <ele>127.6</ele>
        <time>2017-05-21T06:37:19Z</time>
      </trkpt>
      <trkpt lat="43.66214" lon="3.73961">
        <ele>126.4</ele>
        <time>2017-05-21T06:37:20Z</time>
      </trkpt>
      <trkpt lat="43.66216" lon="3.73955">
        <ele>126.3</ele>
        <time>2017-05-21T06:37:21Z</time>
      </trkpt>
      <trkpt lat="43.66217" lon="3.73951">
        <ele>125.2</ele>
        <time>2017-05-21T06:37:22Z</time>
      </trkpt>
      <trkpt lat="43.66219" lon="3.73944">
        <ele>125.2</ele>
        <time>2017-05-21T06:37:23Z</time>
      </trkpt>
      <trkpt lat="43.6622" lon="3.73938">
        <ele>124</ele>
        <time>2017-05-21T06:37:24Z</time>
      </trkpt>
      <trkpt lat="43.66222" lon="3.73934">
        <ele>123.1</ele>
        <time>2017-05-21T06:37:25Z</time>
      </trkpt>
      <trkpt lat="43.66226" lon="3.7393">
        <ele>122</ele>
        <time>2017-05-21T06:37:27Z</time>
      </trkpt>
      <trkpt lat="43.66229" lon="3.7393">
        <ele>121</ele>
        <time>2017-05-21T06:37:30Z</time>
      </trkpt>
      <trkpt lat="43.66234" lon="3.73929">
        <ele>120.1</ele>
        <time>2017-05-21T06:37:33Z</time>
      </trkpt>
      <trkpt lat="43.66237" lon="3.73928">
        <ele>119.2</ele>
        <time>2017-05-21T06:37:35Z</time>
      </trkpt>
      <trkpt lat="43.66239" lon="3.73924">
        <ele>118.2</ele>
        <time>2017-05-21T06:37:37Z</time>
      </trkpt>
      <trkpt lat="43.66239" lon="3.7392">
        <ele>118</ele>
        <time>2017-05-21T06:37:39Z</time>
      </trkpt>
      <trkpt lat="43.66242" lon="3.7392">
        <ele>117.3</ele>
        <time>2017-05-21T06:37:40Z</time>
      </trkpt>
      <trkpt lat="43.66245" lon="3.73919">
        <ele>116.6</ele>
        <time>2017-05-21T06:37:41Z</time>
      </trkpt>
      <trkpt lat="43.6625" lon="3.73917">
        <ele>116.2</ele>
        <time>2017-05-21T06:37:42Z</time>
      </trkpt>
      <trkpt lat="43.66255" lon="3.73916">
        <ele>115.2</ele>
        <time>2017-05-21T06:37:43Z</time>
      </trkpt>
      <trkpt lat="43.66259" lon="3.73914">
        <ele>114.9</ele>
        <time>2017-05-21T06:37:44Z</time>
      </trkpt>
      <trkpt lat="43.66264" lon="3.73912">
        <ele>114</ele>
        <time>2017-05-21T06:37:45Z</time>
      </trkpt>
      <trkpt lat="43.66266" lon="3.73915">
        <ele>114.1</ele>
        <time>2017-05-21T06:37:46Z</time>
      </trkpt>
      <trkpt lat="43.66269" lon="3.73918">
        <ele>114.2</ele>
        <time>2017-05-21T06:37:47Z</time>
      </trkpt>
      <trkpt lat="43.66271" lon="3.73923">
        <ele>114.4</ele>
        <time>2017-05-21T06:37:48Z</time>
      </trkpt>
      <trkpt lat="43.66273" lon="3.73929">
        <ele>114.5</ele>
        <time>2017-05-21T06:37:49Z</time>
      </trkpt>
      <trkpt lat="43.66276" lon="3.73935">
        <ele>114.6</ele>
        <time>2017-05-21T06:37:50Z</time>
      </trkpt>
      <trkpt lat="43.66279" lon="3.73942">
        <ele>114.7</ele>
        <time>2017-05-21T06:37:51Z</time>
      </trkpt>
      <trkpt lat="43.66283" lon="3.73949">
        <ele>115</ele>
        <time>2017-05-21T06:37:52Z</time>
      </trkpt>
      <trkpt lat="43.66287" lon="3.73956">
        <ele>115.1</ele>
        <time>2017-05-21T06:37:53Z</time>
      </trkpt>
      <trkpt lat="43.66291" lon="3.73963">
        <ele>114.6</ele>
        <time>2017-05-21T06:37:54Z</time>
      </trkpt>
      <trkpt lat="43.66295" lon="3.7397">
        <ele>114</ele>
        <time>2017-05-21T06:37:55Z</time>
      </trkpt>
      <trkpt lat="43.66298" lon="3.73979">
        <ele>113.2</ele>
        <time>2017-05-21T06:37:56Z</time>
      </trkpt>
      <trkpt lat="43.66299" lon="3.73988">
        <ele>112.5</ele>
        <time>2017-05-21T06:37:57Z</time>
      </trkpt>
      <trkpt lat="43.66298" lon="3.73997">
        <ele>111.8</ele>
        <time>2017-05-21T06:37:58Z</time>
      </trkpt>
      <trkpt lat="43.66297" lon="3.74005">
        <ele>111.3</ele>
        <time>2017-05-21T06:37:59Z</time>
      </trkpt>
      <trkpt lat="43.66294" lon="3.74013">
        <ele>110.5</ele>
        <time>2017-05-21T06:38:00Z</time>
      </trkpt>
      <trkpt lat="43.66292" lon="3.74021">
        <ele>110.1</ele>
        <time>2017-05-21T06:38:01Z</time>
      </trkpt>
      <trkpt lat="43.6629" lon="3.74028">
        <ele>110.1</ele>
        <time>2017-05-21T06:38:02Z</time>
      </trkpt>
      <trkpt lat="43.66288" lon="3.74035">
        <ele>109.7</ele>
        <time>2017-05-21T06:38:03Z</time>
      </trkpt>
      <trkpt lat="43.66285" lon="3.74043">
        <ele>109.7</ele>
        <time>2017-05-21T06:38:04Z</time>
      </trkpt>
      <trkpt lat="43.66284" lon="3.7405">
        <ele>109.9</ele>
        <time>2017-05-21T06:38:05Z</time>
      </trkpt>
      <trkpt lat="43.66282" lon="3.74058">
        <ele>109.8</ele>
        <time>2017-05-21T06:38:06Z</time>
      </trkpt>
      <trkpt lat="43.6628" lon="3.74064">
        <ele>109.8</ele>
        <time>2017-05-21T06:38:07Z</time>
      </trkpt>
      <trkpt lat="43.66279" lon="3.74071">
        <ele>109.6</ele>
        <time>2017-05-21T06:38:08Z</time>
      </trkpt>
      <trkpt lat="43.66277" lon="3.74078">
        <ele>109.5</ele>
        <time>2017-05-21T06:38:09Z</time>
      </trkpt>
      <trkpt lat="43.66274" lon="3.74084">
        <ele>109.7</ele>
        <time>2017-05-21T06:38:10Z</time>
      </trkpt>
      <trkpt lat="43.66272" lon="3.74091">
        <ele>109.7</ele>
        <time>2017-05-21T06:38:11Z</time>
      </trkpt>
      <trkpt lat="43.66271" lon="3.74097">
        <ele>109.4</ele>
        <time>2017-05-21T06:38:12Z</time>
      </trkpt>
      <trkpt lat="43.66269" lon="3.74105">
        <ele>109</ele>
        <time>2017-05-21T06:38:13Z</time>
      </trkpt>
      <trkpt lat="43.66267" lon="3.74112">
        <ele>109.2</ele>
        <time>2017-05-21T06:38:14Z</time>
      </trkpt>
      <trkpt lat="43.66265" lon="3.74119">
        <ele>109.6</ele>
        <time>2017-05-21T06:38:15Z</time>
      </trkpt>
      <trkpt lat="43.66263" lon="3.74126">
        <ele>110</ele>
        <time>2017-05-21T06:38:16Z</time>
      </trkpt>
      <trkpt lat="43.66261" lon="3.74133">
        <ele>110.8</ele>
        <time>2017-05-21T06:38:17Z</time>
      </trkpt>
      <trkpt lat="43.6626" lon="3.7414">
        <ele>111</ele>
        <time>2017-05-21T06:38:18Z</time>
      </trkpt>
      <trkpt lat="43.66258" lon="3.74147">
        <ele>111.4</ele>
        <time>2017-05-21T06:38:19Z</time>
      </trkpt>
      <trkpt lat="43.66256" lon="3.74155">
        <ele>111.4</ele>
        <time>2017-05-21T06:38:20Z</time>
      </trkpt>
      <trkpt lat="43.66254" lon="3.74162">
        <ele>110.8</ele>
        <time>2017-05-21T06:38:21Z</time>
      </trkpt>
      <trkpt lat="43.66252" lon="3.74169">
        <ele>111</ele>
        <time>2017-05-21T06:38:22Z</time>
      </trkpt>
      <trkpt lat="43.66249" lon="3.74177">
        <ele>111.1</ele>
        <time>2017-05-21T06:38:23Z</time>
      </trkpt>
      <trkpt lat="43.66248" lon="3.74184">
        <ele>110.5</ele>
        <time>2017-05-21T06:38:24Z</time>
      </trkpt>
      <trkpt lat="43.66246" lon="3.74193">
        <ele>110.1</ele>
        <time>2017-05-21T06:38:25Z</time>
      </trkpt>
      <trkpt lat="43.66244" lon="3.74201">
        <ele>109.4</ele>
        <time>2017-05-21T06:38:26Z</time>
      </trkpt>
      <trkpt lat="43.66241" lon="3.74209">
        <ele>109.3</ele>
        <time>2017-05-21T06:38:27Z</time>
      </trkpt>
      <trkpt lat="43.66238" lon="3.74217">
        <ele>108.3</ele>
        <time>2017-05-21T06:38:28Z</time>
      </trkpt>
      <trkpt lat="43.66236" lon="3.74225">
        <ele>108.1</ele>
        <time>2017-05-21T06:38:29Z</time>
      </trkpt>
      <trkpt lat="43.66234" lon="3.74235">
        <ele>108.3</ele>
        <time>2017-05-21T06:38:30Z</time>
      </trkpt>
      <trkpt lat="43.66232" lon="3.74243">
        <ele>108.1</ele>
        <time>2017-05-21T06:38:31Z</time>
      </trkpt>
      <trkpt lat="43.6623" lon="3.74252">
        <ele>108.5</ele>
        <time>2017-05-21T06:38:32Z</time>
      </trkpt>
      <trkpt lat="43.66228" lon="3.74261">
        <ele>108.7</ele>
        <time>2017-05-21T06:38:33Z</time>
      </trkpt>
      <trkpt lat="43.66225" lon="3.7427">
        <ele>108.4</ele>
        <time>2017-05-21T06:38:34Z</time>
      </trkpt>
      <trkpt lat="43.66226" lon="3.74279">
        <ele>108.2</ele>
        <time>2017-05-21T06:38:35Z</time>
      </trkpt>
      <trkpt lat="43.66223" lon="3.74288">
        <ele>108.1</ele>
        <time>2017-05-21T06:38:36Z</time>
      </trkpt>
      <trkpt lat="43.66221" lon="3.74296">
        <ele>108</ele>
        <time>2017-05-21T06:38:37Z</time>
      </trkpt>
      <trkpt lat="43.66218" lon="3.74304">
        <ele>108</ele>
        <time>2017-05-21T06:38:38Z</time>
      </trkpt>
      <trkpt lat="43.66216" lon="3.74313">
        <ele>107.8</ele>
        <time>2017-05-21T06:38:39Z</time>
      </trkpt>
      <trkpt lat="43.66214" lon="3.74322">
        <ele>108</ele>
        <time>2017-05-21T06:38:40Z</time>
      </trkpt>
      <trkpt lat="43.66214" lon="3.74331">
        <ele>107.8</ele>
        <time>2017-05-21T06:38:41Z</time>
      </trkpt>
      <trkpt lat="43.66216" lon="3.74339">
        <ele>107.5</ele>
        <time>2017-05-21T06:38:42Z</time>
      </trkpt>
      <trkpt lat="43.66219" lon="3.74347">
        <ele>106.7</ele>
        <time>2017-05-21T06:38:43Z</time>
      </trkpt>
      <trkpt lat="43.66222" lon="3.74354">
        <ele>106.1</ele>
        <time>2017-05-21T06:38:44Z</time>
      </trkpt>
      <trkpt lat="43.66223" lon="3.74362">
        <ele>105.5</ele>
        <time>2017-05-21T06:38:45Z</time>
      </trkpt>
      <trkpt lat="43.66224" lon="3.74371">
        <ele>105.5</ele>
        <time>2017-05-21T06:38:46Z</time>
      </trkpt>
      <trkpt lat="43.66225" lon="3.74379">
        <ele>105.8</ele>
        <time>2017-05-21T06:38:47Z</time>
      </trkpt>
      <trkpt lat="43.66226" lon="3.74387">
        <ele>105.9</ele>
        <time>2017-05-21T06:38:48Z</time>
      </trkpt>
      <trkpt lat="43.66226" lon="3.74395">
        <ele>106.6</ele>
        <time>2017-05-21T06:38:49Z</time>
      </trkpt>
      <trkpt lat="43.66225" lon="3.74404">
        <ele>107.8</ele>
        <time>2017-05-21T06:38:50Z</time>
      </trkpt>
      <trkpt lat="43.66225" lon="3.74411">
        <ele>107.9</ele>
        <time>2017-05-21T06:38:51Z</time>
      </trkpt>
      <trkpt lat="43.66225" lon="3.74419">
        <ele>108.1</ele>
        <time>2017-05-21T06:38:52Z</time>
      </trkpt>
      <trkpt lat="43.66226" lon="3.74428">
        <ele>108.4</ele>
        <time>2017-05-21T06:38:53Z</time>
      </trkpt>
      <trkpt lat="43.66225" lon="3.74437">
        <ele>108.7</ele>
        <time>2017-05-21T06:38:54Z</time>
      </trkpt>
      <trkpt lat="43.66224" lon="3.74447">
        <ele>108.6</ele>
        <time>2017-05-21T06:38:55Z</time>
      </trkpt>
      <trkpt lat="43.66223" lon="3.74456">
        <ele>108.6</ele>
        <time>2017-05-21T06:38:56Z</time>
      </trkpt>
      <trkpt lat="43.66222" lon="3.74465">
        <ele>109</ele>
        <time>2017-05-21T06:38:57Z</time>
      </trkpt>
      <trkpt lat="43.66221" lon="3.74475">
        <ele>109</ele>
        <time>2017-05-21T06:38:58Z</time>
      </trkpt>
      <trkpt lat="43.6622" lon="3.74483">
        <ele>109.1</ele>
        <time>2017-05-21T06:38:59Z</time>
      </trkpt>
      <trkpt lat="43.6622" lon="3.74491">
        <ele>109.1</ele>
        <time>2017-05-21T06:39:00Z</time>
      </trkpt>
      <trkpt lat="43.66219" lon="3.74501">
        <ele>109.2</ele>
        <time>2017-05-21T06:39:01Z</time>
      </trkpt>
      <trkpt lat="43.66219" lon="3.74511">
        <ele>109.1</ele>
        <time>2017-05-21T06:39:02Z</time>
      </trkpt>
      <trkpt lat="43.66219" lon="3.74521">
        <ele>109.5</ele>
        <time>2017-05-21T06:39:03Z</time>
      </trkpt>
      <trkpt lat="43.66218" lon="3.74532">
        <ele>109.6</ele>
        <time>2017-05-21T06:39:04Z</time>
      </trkpt>
      <trkpt lat="43.66218" lon="3.74541">
        <ele>109.6</ele>
        <time>2017-05-21T06:39:05Z</time>
      </trkpt>
      <trkpt lat="43.66218" lon="3.74549">
        <ele>109.6</ele>
        <time>2017-05-21T06:39:06Z</time>
      </trkpt>
      <trkpt lat="43.66218" lon="3.74559">
        <ele>109.5</ele>
        <time>2017-05-21T06:39:07Z</time>
      </trkpt>
      <trkpt lat="43.66219" lon="3.74569">
        <ele>109.1</ele>
        <time>2017-05-21T06:39:08Z</time>
      </trkpt>
      <trkpt lat="43.66219" lon="3.74581">
        <ele>108.2</ele>
        <time>2017-05-21T06:39:09Z</time>
      </trkpt>
      <trkpt lat="43.66219" lon="3.7459">
        <ele>107.5</ele>
        <time>2017-05-21T06:39:10Z</time>
      </trkpt>
      <trkpt lat="43.66218" lon="3.746">
        <ele>106.5</ele>
        <time>2017-05-21T06:39:11Z</time>
      </trkpt>
      <trkpt lat="43.66218" lon="3.7461">
        <ele>106.1</ele>
        <time>2017-05-21T06:39:12Z</time>
      </trkpt>
      <trkpt lat="43.66217" lon="3.74619">
        <ele>105.9</ele>
        <time>2017-05-21T06:39:13Z</time>
      </trkpt>
      <trkpt lat="43.66215" lon="3.74627">
        <ele>106.5</ele>
        <time>2017-05-21T06:39:14Z</time>
      </trkpt>
      <trkpt lat="43.66214" lon="3.74637">
        <ele>106.5</ele>
        <time>2017-05-21T06:39:15Z</time>
      </trkpt>
      <trkpt lat="43.66214" lon="3.74646">
        <ele>106.5</ele>
        <time>2017-05-21T06:39:16Z</time>
      </trkpt>
      <trkpt lat="43.66213" lon="3.74653">
        <ele>106.4</ele>
        <time>2017-05-21T06:39:17Z</time>
      </trkpt>
      <trkpt lat="43.66216" lon="3.74658">
        <ele>106.3</ele>
        <time>2017-05-21T06:39:18Z</time>
      </trkpt>
      <trkpt lat="43.66219" lon="3.7466">
        <ele>105.4</ele>
        <time>2017-05-21T06:39:19Z</time>
      </trkpt>
      <trkpt lat="43.66223" lon="3.7466">
        <ele>105</ele>
        <time>2017-05-21T06:39:20Z</time>
      </trkpt>
      <trkpt lat="43.66229" lon="3.74658">
        <ele>104.1</ele>
        <time>2017-05-21T06:39:21Z</time>
      </trkpt>
      <trkpt lat="43.66234" lon="3.74654">
        <ele>103.6</ele>
        <time>2017-05-21T06:39:22Z</time>
      </trkpt>
      <trkpt lat="43.66238" lon="3.74649">
        <ele>102.3</ele>
        <time>2017-05-21T06:39:23Z</time>
      </trkpt>
      <trkpt lat="43.66242" lon="3.74646">
        <ele>101.7</ele>
        <time>2017-05-21T06:39:24Z</time>
      </trkpt>
      <trkpt lat="43.66247" lon="3.74643">
        <ele>101.1</ele>
        <time>2017-05-21T06:39:25Z</time>
      </trkpt>
      <trkpt lat="43.66252" lon="3.7464">
        <ele>100.1</ele>
        <time>2017-05-21T06:39:26Z</time>
      </trkpt>
      <trkpt lat="43.66257" lon="3.74636">
        <ele>100.1</ele>
        <time>2017-05-21T06:39:27Z</time>
      </trkpt>
      <trkpt lat="43.66261" lon="3.74631">
        <ele>100.1</ele>
        <time>2017-05-21T06:39:28Z</time>
      </trkpt>
      <trkpt lat="43.66265" lon="3.74628">
        <ele>100.2</ele>
        <time>2017-05-21T06:39:29Z</time>
      </trkpt>
      <trkpt lat="43.66269" lon="3.74625">
        <ele>100.2</ele>
        <time>2017-05-21T06:39:30Z</time>
      </trkpt>
      <trkpt lat="43.66272" lon="3.74622">
        <ele>100.3</ele>
        <time>2017-05-21T06:39:31Z</time>
      </trkpt>
      <trkpt lat="43.66275" lon="3.74618">
        <ele>100.4</ele>
        <time>2017-05-21T06:39:32Z</time>
      </trkpt>
      <trkpt lat="43.66277" lon="3.74613">
        <ele>100.5</ele>
        <time>2017-05-21T06:39:33Z</time>
      </trkpt>
      <trkpt lat="43.6628" lon="3.74607">
        <ele>100.6</ele>
        <time>2017-05-21T06:39:34Z</time>
      </trkpt>
      <trkpt lat="43.66282" lon="3.74601">
        <ele>100.9</ele>
        <time>2017-05-21T06:39:35Z</time>
      </trkpt>
      <trkpt lat="43.66284" lon="3.74594">
        <ele>101.2</ele>
        <time>2017-05-21T06:39:36Z</time>
      </trkpt>
      <trkpt lat="43.66286" lon="3.74585">
        <ele>101.6</ele>
        <time>2017-05-21T06:39:37Z</time>
      </trkpt>
      <trkpt lat="43.66288" lon="3.74581">
        <ele>101.9</ele>
        <time>2017-05-21T06:39:38Z</time>
      </trkpt>
      <trkpt lat="43.6629" lon="3.74574">
        <ele>102.2</ele>
        <time>2017-05-21T06:39:39Z</time>
      </trkpt>
      <trkpt lat="43.66293" lon="3.74568">
        <ele>102.4</ele>
        <time>2017-05-21T06:39:40Z</time>
      </trkpt>
      <trkpt lat="43.66297" lon="3.74564">
        <ele>102.5</ele>
        <time>2017-05-21T06:39:41Z</time>
      </trkpt>
      <trkpt lat="43.66302" lon="3.74563">
        <ele>102.7</ele>
        <time>2017-05-21T06:39:42Z</time>
      </trkpt>
      <trkpt lat="43.66307" lon="3.74565">
        <ele>102</ele>
        <time>2017-05-21T06:39:43Z</time>
      </trkpt>
      <trkpt lat="43.66313" lon="3.74569">
        <ele>101</ele>
        <time>2017-05-21T06:39:44Z</time>
      </trkpt>
      <trkpt lat="43.66319" lon="3.74572">
        <ele>100.4</ele>
        <time>2017-05-21T06:39:45Z</time>
      </trkpt>
      <trkpt lat="43.66324" lon="3.74575">
        <ele>100.1</ele>
        <time>2017-05-21T06:39:46Z</time>
      </trkpt>
      <trkpt lat="43.6633" lon="3.74578">
        <ele>100.2</ele>
        <time>2017-05-21T06:39:47Z</time>
      </trkpt>
      <trkpt lat="43.66336" lon="3.74582">
        <ele>100.6</ele>
        <time>2017-05-21T06:39:48Z</time>
      </trkpt>
      <trkpt lat="43.66341" lon="3.74586">
        <ele>100.8</ele>
        <time>2017-05-21T06:39:49Z</time>
      </trkpt>
      <trkpt lat="43.66348" lon="3.74589">
        <ele>101.1</ele>
        <time>2017-05-21T06:39:50Z</time>
      </trkpt>
      <trkpt lat="43.66352" lon="3.74592">
        <ele>101.3</ele>
        <time>2017-05-21T06:39:51Z</time>
      </trkpt>
      <trkpt lat="43.66357" lon="3.74594">
        <ele>101.3</ele>
        <time>2017-05-21T06:39:52Z</time>
      </trkpt>
      <trkpt lat="43.66361" lon="3.74597">
        <ele>101.4</ele>
        <time>2017-05-21T06:39:53Z</time>
      </trkpt>
      <trkpt lat="43.66366" lon="3.74601">
        <ele>101.5</ele>
        <time>2017-05-21T06:39:54Z</time>
      </trkpt>
      <trkpt lat="43.66371" lon="3.74604">
        <ele>101.6</ele>
        <time>2017-05-21T06:39:55Z</time>
      </trkpt>
      <trkpt lat="43.66376" lon="3.74608">
        <ele>101.5</ele>
        <time>2017-05-21T06:39:56Z</time>
      </trkpt>
      <trkpt lat="43.66381" lon="3.7461">
        <ele>101.4</ele>
        <time>2017-05-21T06:39:57Z</time>
      </trkpt>
      <trkpt lat="43.66386" lon="3.74612">
        <ele>101.3</ele>
        <time>2017-05-21T06:39:58Z</time>
      </trkpt>
      <trkpt lat="43.6639" lon="3.74612">
        <ele>101.1</ele>
        <time>2017-05-21T06:39:59Z</time>
      </trkpt>
      <trkpt lat="43.66395" lon="3.74613">
        <ele>101</ele>
        <time>2017-05-21T06:40:00Z</time>
      </trkpt>
      <trkpt lat="43.66399" lon="3.74612">
        <ele>101</ele>
        <time>2017-05-21T06:40:01Z</time>
      </trkpt>
      <trkpt lat="43.66404" lon="3.74611">
        <ele>100.9</ele>
        <time>2017-05-21T06:40:02Z</time>
      </trkpt>
      <trkpt lat="43.66408" lon="3.74609">
        <ele>100.8</ele>
        <time>2017-05-21T06:40:03Z</time>
      </trkpt>
      <trkpt lat="43.66413" lon="3.74608">
        <ele>100.9</ele>
        <time>2017-05-21T06:40:04Z</time>
      </trkpt>
      <trkpt lat="43.66418" lon="3.74608">
        <ele>100.8</ele>
        <time>2017-05-21T06:40:05Z</time>
      </trkpt>
      <trkpt lat="43.66422" lon="3.74608">
        <ele>100.3</ele>
        <time>2017-05-21T06:40:06Z</time>
      </trkpt>
      <trkpt lat="43.66427" lon="3.74609">
        <ele>100</ele>
        <time>2017-05-21T06:40:07Z</time>
      </trkpt>
      <trkpt lat="43.66431" lon="3.74611">
        <ele>99.7</ele>
        <time>2017-05-21T06:40:08Z</time>
      </trkpt>
      <trkpt lat="43.66435" lon="3.74612">
        <ele>99.4</ele>
        <time>2017-05-21T06:40:09Z</time>
      </trkpt>
      <trkpt lat="43.66439" lon="3.74615">
        <ele>98.7</ele>
        <time>2017-05-21T06:40:10Z</time>
      </trkpt>
      <trkpt lat="43.66444" lon="3.74616">
        <ele>98.5</ele>
        <time>2017-05-21T06:40:11Z</time>
      </trkpt>
      <trkpt lat="43.66449" lon="3.74619">
        <ele>97.8</ele>
        <time>2017-05-21T06:40:12Z</time>
      </trkpt>
      <trkpt lat="43.66454" lon="3.74622">
        <ele>97.2</ele>
        <time>2017-05-21T06:40:13Z</time>
      </trkpt>
      <trkpt lat="43.6646" lon="3.74628">
        <ele>96.6</ele>
        <time>2017-05-21T06:40:14Z</time>
      </trkpt>
      <trkpt lat="43.66464" lon="3.74634">
        <ele>95.5</ele>
        <time>2017-05-21T06:40:15Z</time>
      </trkpt>
      <trkpt lat="43.66467" lon="3.74639">
        <ele>95</ele>
        <time>2017-05-21T06:40:16Z</time>
      </trkpt>
      <trkpt lat="43.66472" lon="3.74641">
        <ele>95</ele>
        <time>2017-05-21T06:40:17Z</time>
      </trkpt>
      <trkpt lat="43.66475" lon="3.74642">
        <ele>94.9</ele>
        <time>2017-05-21T06:40:18Z</time>
      </trkpt>
      <trkpt lat="43.6648" lon="3.74638">
        <ele>95.3</ele>
        <time>2017-05-21T06:40:20Z</time>
      </trkpt>
      <trkpt lat="43.66483" lon="3.74634">
        <ele>95.2</ele>
        <time>2017-05-21T06:40:21Z</time>
      </trkpt>
      <trkpt lat="43.66485" lon="3.74629">
        <ele>95.9</ele>
        <time>2017-05-21T06:40:22Z</time>
      </trkpt>
      <trkpt lat="43.66489" lon="3.74624">
        <ele>96.1</ele>
        <time>2017-05-21T06:40:23Z</time>
      </trkpt>
      <trkpt lat="43.66492" lon="3.74618">
        <ele>96.2</ele>
        <time>2017-05-21T06:40:24Z</time>
      </trkpt>
      <trkpt lat="43.66495" lon="3.74613">
        <ele>96.3</ele>
        <time>2017-05-21T06:40:25Z</time>
      </trkpt>
      <trkpt lat="43.66497" lon="3.74609">
        <ele>96.4</ele>
        <time>2017-05-21T06:40:26Z</time>
      </trkpt>
      <trkpt lat="43.665" lon="3.74604">
        <ele>96.5</ele>
        <time>2017-05-21T06:40:27Z</time>
      </trkpt>
      <trkpt lat="43.66502" lon="3.746">
        <ele>96.5</ele>
        <time>2017-05-21T06:40:28Z</time>
      </trkpt>
      <trkpt lat="43.66505" lon="3.74596">
        <ele>96.4</ele>
        <time>2017-05-21T06:40:29Z</time>
      </trkpt>
      <trkpt lat="43.66508" lon="3.74593">
        <ele>96.1</ele>
        <time>2017-05-21T06:40:30Z</time>
      </trkpt>
      <trkpt lat="43.66512" lon="3.74588">
        <ele>95.6</ele>
        <time>2017-05-21T06:40:31Z</time>
      </trkpt>
      <trkpt lat="43.66515" lon="3.74583">
        <ele>95</ele>
        <time>2017-05-21T06:40:32Z</time>
      </trkpt>
      <trkpt lat="43.66517" lon="3.74579">
        <ele>94.4</ele>
        <time>2017-05-21T06:40:33Z</time>
      </trkpt>
      <trkpt lat="43.6652" lon="3.74575">
        <ele>94.3</ele>
        <time>2017-05-21T06:40:34Z</time>
      </trkpt>
      <trkpt lat="43.66523" lon="3.74571">
        <ele>93.8</ele>
        <time>2017-05-21T06:40:35Z</time>
      </trkpt>
      <trkpt lat="43.66526" lon="3.74566">
        <ele>93.5</ele>
        <time>2017-05-21T06:40:36Z</time>
      </trkpt>
      <trkpt lat="43.66528" lon="3.74562">
        <ele>93.3</ele>
        <time>2017-05-21T06:40:37Z</time>
      </trkpt>
      <trkpt lat="43.66531" lon="3.74557">
        <ele>93.2</ele>
        <time>2017-05-21T06:40:38Z</time>
      </trkpt>
      <trkpt lat="43.66534" lon="3.74553">
        <ele>93.2</ele>
        <time>2017-05-21T06:40:39Z</time>
      </trkpt>
      <trkpt lat="43.66537" lon="3.74547">
        <ele>93.8</ele>
        <time>2017-05-21T06:40:40Z</time>
      </trkpt>
      <trkpt lat="43.6654" lon="3.74543">
        <ele>93.9</ele>
        <time>2017-05-21T06:40:41Z</time>
      </trkpt>
      <trkpt lat="43.66543" lon="3.74538">
        <ele>94</ele>
        <time>2017-05-21T06:40:42Z</time>
      </trkpt>
      <trkpt lat="43.66545" lon="3.74533">
        <ele>94</ele>
        <time>2017-05-21T06:40:43Z</time>
      </trkpt>
      <trkpt lat="43.66547" lon="3.74528">
        <ele>94.5</ele>
        <time>2017-05-21T06:40:44Z</time>
      </trkpt>
      <trkpt lat="43.66549" lon="3.74523">
        <ele>94.5</ele>
        <time>2017-05-21T06:40:45Z</time>
      </trkpt>
      <trkpt lat="43.66551" lon="3.74518">
        <ele>95.5</ele>
        <time>2017-05-21T06:40:46Z</time>
      </trkpt>
      <trkpt lat="43.66553" lon="3.74513">
        <ele>95.4</ele>
        <time>2017-05-21T06:40:47Z</time>
      </trkpt>
      <trkpt lat="43.66555" lon="3.74508">
        <ele>95.2</ele>
        <time>2017-05-21T06:40:48Z</time>
      </trkpt>
      <trkpt lat="43.66557" lon="3.74502">
        <ele>95.4</ele>
        <time>2017-05-21T06:40:49Z</time>
      </trkpt>
      <trkpt lat="43.6656" lon="3.74497">
        <ele>94.9</ele>
        <time>2017-05-21T06:40:50Z</time>
      </trkpt>
      <trkpt lat="43.66562" lon="3.74491">
        <ele>94.3</ele>
        <time>2017-05-21T06:40:51Z</time>
      </trkpt>
      <trkpt lat="43.66566" lon="3.74487">
        <ele>93.7</ele>
        <time>2017-05-21T06:40:52Z</time>
      </trkpt>
      <trkpt lat="43.66568" lon="3.74479">
        <ele>93.2</ele>
        <time>2017-05-21T06:40:53Z</time>
      </trkpt>
      <trkpt lat="43.6657" lon="3.74471">
        <ele>92.8</ele>
        <time>2017-05-21T06:40:54Z</time>
      </trkpt>
      <trkpt lat="43.66573" lon="3.74466">
        <ele>92.7</ele>
        <time>2017-05-21T06:40:55Z</time>
      </trkpt>
      <trkpt lat="43.66576" lon="3.7446">
        <ele>92.4</ele>
        <time>2017-05-21T06:40:56Z</time>
      </trkpt>
      <trkpt lat="43.66578" lon="3.74453">
        <ele>92.9</ele>
        <time>2017-05-21T06:40:57Z</time>
      </trkpt>
      <trkpt lat="43.66582" lon="3.74447">
        <ele>92.7</ele>
        <time>2017-05-21T06:40:58Z</time>
      </trkpt>
      <trkpt lat="43.66584" lon="3.7444">
        <ele>93</ele>
        <time>2017-05-21T06:40:59Z</time>
      </trkpt>
      <trkpt lat="43.66586" lon="3.74435">
        <ele>93.1</ele>
        <time>2017-05-21T06:41:00Z</time>
      </trkpt>
      <trkpt lat="43.66589" lon="3.7443">
        <ele>93.2</ele>
        <time>2017-05-21T06:41:01Z</time>
      </trkpt>
      <trkpt lat="43.66592" lon="3.74423">
        <ele>94.2</ele>
        <time>2017-05-21T06:41:02Z</time>
      </trkpt>
      <trkpt lat="43.66594" lon="3.74417">
        <ele>94.4</ele>
        <time>2017-05-21T06:41:03Z</time>
      </trkpt>
      <trkpt lat="43.66597" lon="3.74411">
        <ele>94.6</ele>
        <time>2017-05-21T06:41:04Z</time>
      </trkpt>
      <trkpt lat="43.666" lon="3.74404">
        <ele>95.4</ele>
        <time>2017-05-21T06:41:05Z</time>
      </trkpt>
      <trkpt lat="43.66603" lon="3.74397">
        <ele>96</ele>
        <time>2017-05-21T06:41:06Z</time>
      </trkpt>
      <trkpt lat="43.66606" lon="3.74391">
        <ele>96</ele>
        <time>2017-05-21T06:41:07Z</time>
      </trkpt>
      <trkpt lat="43.66608" lon="3.74385">
        <ele>95.8</ele>
        <time>2017-05-21T06:41:08Z</time>
      </trkpt>
      <trkpt lat="43.66611" lon="3.74378">
        <ele>95.7</ele>
        <time>2017-05-21T06:41:09Z</time>
      </trkpt>
      <trkpt lat="43.66614" lon="3.74372">
        <ele>95.1</ele>
        <time>2017-05-21T06:41:10Z</time>
      </trkpt>
      <trkpt lat="43.66616" lon="3.74365">
        <ele>94.9</ele>
        <time>2017-05-21T06:41:11Z</time>
      </trkpt>
      <trkpt lat="43.6662" lon="3.74358">
        <ele>93.5</ele>
        <time>2017-05-21T06:41:12Z</time>
      </trkpt>
      <trkpt lat="43.66622" lon="3.74352">
        <ele>93.2</ele>
        <time>2017-05-21T06:41:13Z</time>
      </trkpt>
      <trkpt lat="43.66625" lon="3.74346">
        <ele>92.6</ele>
        <time>2017-05-21T06:41:14Z</time>
      </trkpt>
      <trkpt lat="43.66627" lon="3.74339">
        <ele>92.1</ele>
        <time>2017-05-21T06:41:15Z</time>
      </trkpt>
      <trkpt lat="43.66629" lon="3.74332">
        <ele>92</ele>
        <time>2017-05-21T06:41:16Z</time>
      </trkpt>
      <trkpt lat="43.66631" lon="3.74324">
        <ele>91.5</ele>
        <time>2017-05-21T06:41:17Z</time>
      </trkpt>
      <trkpt lat="43.66633" lon="3.74318">
        <ele>90.9</ele>
        <time>2017-05-21T06:41:18Z</time>
      </trkpt>
      <trkpt lat="43.66636" lon="3.74316">
        <ele>90.3</ele>
        <time>2017-05-21T06:41:19Z</time>
      </trkpt>
      <trkpt lat="43.66638" lon="3.74309">
        <ele>90.3</ele>
        <time>2017-05-21T06:41:20Z</time>
      </trkpt>
      <trkpt lat="43.6664" lon="3.74301">
        <ele>90.1</ele>
        <time>2017-05-21T06:41:21Z</time>
      </trkpt>
      <trkpt lat="43.66641" lon="3.74293">
        <ele>90.2</ele>
        <time>2017-05-21T06:41:22Z</time>
      </trkpt>
      <trkpt lat="43.66643" lon="3.74285">
        <ele>90.8</ele>
        <time>2017-05-21T06:41:23Z</time>
      </trkpt>
      <trkpt lat="43.66644" lon="3.74278">
        <ele>90.9</ele>
        <time>2017-05-21T06:41:24Z</time>
      </trkpt>
      <trkpt lat="43.66644" lon="3.74271">
        <ele>91.2</ele>
        <time>2017-05-21T06:41:25Z</time>
      </trkpt>
      <trkpt lat="43.66645" lon="3.74264">
        <ele>90.7</ele>
        <time>2017-05-21T06:41:26Z</time>
      </trkpt>
      <trkpt lat="43.66643" lon="3.74256">
        <ele>91</ele>
        <time>2017-05-21T06:41:27Z</time>
      </trkpt>
      <trkpt lat="43.66641" lon="3.7425">
        <ele>91.1</ele>
        <time>2017-05-21T06:41:28Z</time>
      </trkpt>
      <trkpt lat="43.6664" lon="3.74243">
        <ele>90.9</ele>
        <time>2017-05-21T06:41:29Z</time>
      </trkpt>
      <trkpt lat="43.66639" lon="3.74237">
        <ele>90.6</ele>
        <time>2017-05-21T06:41:30Z</time>
      </trkpt>
      <trkpt lat="43.66638" lon="3.74231">
        <ele>90.7</ele>
        <time>2017-05-21T06:41:31Z</time>
      </trkpt>
      <trkpt lat="43.66637" lon="3.74224">
        <ele>90.2</ele>
        <time>2017-05-21T06:41:32Z</time>
      </trkpt>
      <trkpt lat="43.66635" lon="3.74217">
        <ele>89.5</ele>
        <time>2017-05-21T06:41:33Z</time>
      </trkpt>
      <trkpt lat="43.66635" lon="3.74211">
        <ele>89.3</ele>
        <time>2017-05-21T06:41:34Z</time>
      </trkpt>
      <trkpt lat="43.66634" lon="3.74204">
        <ele>88.5</ele>
        <time>2017-05-21T06:41:35Z</time>
      </trkpt>
      <trkpt lat="43.66634" lon="3.74198">
        <ele>88.1</ele>
        <time>2017-05-21T06:41:36Z</time>
      </trkpt>
      <trkpt lat="43.66634" lon="3.74191">
        <ele>87.5</ele>
        <time>2017-05-21T06:41:37Z</time>
      </trkpt>
      <trkpt lat="43.66634" lon="3.74185">
        <ele>87.2</ele>
        <time>2017-05-21T06:41:38Z</time>
      </trkpt>
      <trkpt lat="43.66634" lon="3.74179">
        <ele>87</ele>
        <time>2017-05-21T06:41:39Z</time>
      </trkpt>
      <trkpt lat="43.66634" lon="3.74172">
        <ele>87</ele>
        <time>2017-05-21T06:41:40Z</time>
      </trkpt>
      <trkpt lat="43.66634" lon="3.74166">
        <ele>87.1</ele>
        <time>2017-05-21T06:41:41Z</time>
      </trkpt>
      <trkpt lat="43.66635" lon="3.74158">
        <ele>87.1</ele>
        <time>2017-05-21T06:41:42Z</time>
      </trkpt>
      <trkpt lat="43.66636" lon="3.74151">
        <ele>87.3</ele>
        <time>2017-05-21T06:41:43Z</time>
      </trkpt>
      <trkpt lat="43.66636" lon="3.74144">
        <ele>87.4</ele>
        <time>2017-05-21T06:41:44Z</time>
      </trkpt>
      <trkpt lat="43.66637" lon="3.74138">
        <ele>87.4</ele>
        <time>2017-05-21T06:41:45Z</time>
      </trkpt>
      <trkpt lat="43.66639" lon="3.74132">
        <ele>87.1</ele>
        <time>2017-05-21T06:41:46Z</time>
      </trkpt>
      <trkpt lat="43.66642" lon="3.74126">
        <ele>86.8</ele>
        <time>2017-05-21T06:41:47Z</time>
      </trkpt>
      <trkpt lat="43.66645" lon="3.74119">
        <ele>86.4</ele>
        <time>2017-05-21T06:41:48Z</time>
      </trkpt>
      <trkpt lat="43.66648" lon="3.74113">
        <ele>86</ele>
        <time>2017-05-21T06:41:49Z</time>
      </trkpt>
      <trkpt lat="43.66651" lon="3.74109">
        <ele>85.8</ele>
        <time>2017-05-21T06:41:50Z</time>
      </trkpt>
      <trkpt lat="43.66653" lon="3.74105">
        <ele>85.6</ele>
        <time>2017-05-21T06:41:51Z</time>
      </trkpt>
      <trkpt lat="43.66655" lon="3.74102">
        <ele>85.5</ele>
        <time>2017-05-21T06:41:52Z</time>
      </trkpt>
      <trkpt lat="43.66659" lon="3.741">
        <ele>85.3</ele>
        <time>2017-05-21T06:41:53Z</time>
      </trkpt>
      <trkpt lat="43.66663" lon="3.74099">
        <ele>85.2</ele>
        <time>2017-05-21T06:41:54Z</time>
      </trkpt>
      <trkpt lat="43.66666" lon="3.74096">
        <ele>84.8</ele>
        <time>2017-05-21T06:41:55Z</time>
      </trkpt>
      <trkpt lat="43.6667" lon="3.74094">
        <ele>84.6</ele>
        <time>2017-05-21T06:41:56Z</time>
      </trkpt>
      <trkpt lat="43.66673" lon="3.74093">
        <ele>84.2</ele>
        <time>2017-05-21T06:41:57Z</time>
      </trkpt>
      <trkpt lat="43.66676" lon="3.74092">
        <ele>84.1</ele>
        <time>2017-05-21T06:41:58Z</time>
      </trkpt>
      <trkpt lat="43.6668" lon="3.7409">
        <ele>83.9</ele>
        <time>2017-05-21T06:42:00Z</time>
      </trkpt>
      <trkpt lat="43.66682" lon="3.74086">
        <ele>83.7</ele>
        <time>2017-05-21T06:42:02Z</time>
      </trkpt>
      <trkpt lat="43.66684" lon="3.7408">
        <ele>83.4</ele>
        <time>2017-05-21T06:42:04Z</time>
      </trkpt>
      <trkpt lat="43.66685" lon="3.74077">
        <ele>83.4</ele>
        <time>2017-05-21T06:42:07Z</time>
      </trkpt>
      <trkpt lat="43.66688" lon="3.74072">
        <ele>83.2</ele>
        <time>2017-05-21T06:42:10Z</time>
      </trkpt>
      <trkpt lat="43.66692" lon="3.74072">
        <ele>83.1</ele>
        <time>2017-05-21T06:42:12Z</time>
      </trkpt>
      <trkpt lat="43.66695" lon="3.7407">
        <ele>82.8</ele>
        <time>2017-05-21T06:42:15Z</time>
      </trkpt>
      <trkpt lat="43.66698" lon="3.74068">
        <ele>82.6</ele>
        <time>2017-05-21T06:42:35Z</time>
      </trkpt>
      <trkpt lat="43.667" lon="3.74066">
        <ele>82.3</ele>
        <time>2017-05-21T06:42:40Z</time>
      </trkpt>
      <trkpt lat="43.66703" lon="3.74066">
        <ele>82.2</ele>
        <time>2017-05-21T06:42:43Z</time>
      </trkpt>
      <trkpt lat="43.66706" lon="3.74064">
        <ele>82</ele>
        <time>2017-05-21T06:42:46Z</time>
      </trkpt>
      <trkpt lat="43.66708" lon="3.7406">
        <ele>81.6</ele>
        <time>2017-05-21T06:42:48Z</time>
      </trkpt>
      <trkpt lat="43.66709" lon="3.74057">
        <ele>81.3</ele>
        <time>2017-05-21T06:42:49Z</time>
      </trkpt>
      <trkpt lat="43.6671" lon="3.74049">
        <ele>80.8</ele>
        <time>2017-05-21T06:42:51Z</time>
      </trkpt>
      <trkpt lat="43.66709" lon="3.74043">
        <ele>80.5</ele>
        <time>2017-05-21T06:42:53Z</time>
      </trkpt>
      <trkpt lat="43.66709" lon="3.74038">
        <ele>80.2</ele>
        <time>2017-05-21T06:42:54Z</time>
      </trkpt>
      <trkpt lat="43.66709" lon="3.74033">
        <ele>79.8</ele>
        <time>2017-05-21T06:42:55Z</time>
      </trkpt>
      <trkpt lat="43.66709" lon="3.74029">
        <ele>79.7</ele>
        <time>2017-05-21T06:42:56Z</time>
      </trkpt>
      <trkpt lat="43.66709" lon="3.74024">
        <ele>79.3</ele>
        <time>2017-05-21T06:42:57Z</time>
      </trkpt>
      <trkpt lat="43.66709" lon="3.7402">
        <ele>79</ele>
        <time>2017-05-21T06:42:58Z</time>
      </trkpt>
      <trkpt lat="43.66712" lon="3.74015">
        <ele>78.7</ele>
        <time>2017-05-21T06:43:00Z</time>
      </trkpt>
      <trkpt lat="43.66718" lon="3.74016">
        <ele>78.6</ele>
        <time>2017-05-21T06:43:02Z</time>
      </trkpt>
      <trkpt lat="43.66722" lon="3.74017">
        <ele>78.7</ele>
        <time>2017-05-21T06:43:03Z</time>
      </trkpt>
      <trkpt lat="43.66724" lon="3.74018">
        <ele>78.7</ele>
        <time>2017-05-21T06:43:04Z</time>
      </trkpt>
      <trkpt lat="43.66728" lon="3.74019">
        <ele>78.7</ele>
        <time>2017-05-21T06:43:05Z</time>
      </trkpt>
      <trkpt lat="43.6673" lon="3.7402">
        <ele>78.8</ele>
        <time>2017-05-21T06:43:06Z</time>
      </trkpt>
      <trkpt lat="43.66734" lon="3.74021">
        <ele>79</ele>
        <time>2017-05-21T06:43:07Z</time>
      </trkpt>
      <trkpt lat="43.66737" lon="3.74022">
        <ele>79.2</ele>
        <time>2017-05-21T06:43:08Z</time>
      </trkpt>
      <trkpt lat="43.66739" lon="3.74022">
        <ele>79.3</ele>
        <time>2017-05-21T06:43:09Z</time>
      </trkpt>
      <trkpt lat="43.66743" lon="3.74023">
        <ele>79.5</ele>
        <time>2017-05-21T06:43:10Z</time>
      </trkpt>
      <trkpt lat="43.66747" lon="3.74024">
        <ele>79.8</ele>
        <time>2017-05-21T06:43:11Z</time>
      </trkpt>
      <trkpt lat="43.6675" lon="3.74025">
        <ele>80.4</ele>
        <time>2017-05-21T06:43:12Z</time>
      </trkpt>
      <trkpt lat="43.66754" lon="3.74027">
        <ele>80.6</ele>
        <time>2017-05-21T06:43:14Z</time>
      </trkpt>
      <trkpt lat="43.6676" lon="3.74028">
        <ele>81.4</ele>
        <time>2017-05-21T06:43:16Z</time>
      </trkpt>
      <trkpt lat="43.66763" lon="3.74029">
        <ele>81.8</ele>
        <time>2017-05-21T06:43:17Z</time>
      </trkpt>
      <trkpt lat="43.66768" lon="3.7403">
        <ele>82.2</ele>
        <time>2017-05-21T06:43:19Z</time>
      </trkpt>
      <trkpt lat="43.6677" lon="3.74031">
        <ele>82.6</ele>
        <time>2017-05-21T06:43:20Z</time>
      </trkpt>
      <trkpt lat="43.66775" lon="3.74032">
        <ele>83.4</ele>
        <time>2017-05-21T06:43:22Z</time>
      </trkpt>
      <trkpt lat="43.66779" lon="3.74034">
        <ele>83.8</ele>
        <time>2017-05-21T06:43:24Z</time>
      </trkpt>
      <trkpt lat="43.66782" lon="3.74034">
        <ele>84.1</ele>
        <time>2017-05-21T06:43:25Z</time>
      </trkpt>
      <trkpt lat="43.66785" lon="3.74035">
        <ele>84.4</ele>
        <time>2017-05-21T06:43:26Z</time>
      </trkpt>
      <trkpt lat="43.66788" lon="3.74036">
        <ele>84.7</ele>
        <time>2017-05-21T06:43:28Z</time>
      </trkpt>
      <trkpt lat="43.66794" lon="3.74038">
        <ele>85.7</ele>
        <time>2017-05-21T06:43:30Z</time>
      </trkpt>
      <trkpt lat="43.66797" lon="3.74039">
        <ele>86.1</ele>
        <time>2017-05-21T06:43:32Z</time>
      </trkpt>
      <trkpt lat="43.668" lon="3.7404">
        <ele>86.5</ele>
        <time>2017-05-21T06:43:34Z</time>
      </trkpt>
      <trkpt lat="43.66804" lon="3.74041">
        <ele>86.8</ele>
        <time>2017-05-21T06:43:36Z</time>
      </trkpt>
      <trkpt lat="43.66806" lon="3.74042">
        <ele>87.4</ele>
        <time>2017-05-21T06:43:37Z</time>
      </trkpt>
      <trkpt lat="43.66809" lon="3.74043">
        <ele>87.8</ele>
        <time>2017-05-21T06:43:39Z</time>
      </trkpt>
      <trkpt lat="43.66813" lon="3.74045">
        <ele>88.3</ele>
        <time>2017-05-21T06:43:41Z</time>
      </trkpt>
      <trkpt lat="43.66816" lon="3.74047">
        <ele>88.9</ele>
        <time>2017-05-21T06:43:43Z</time>
      </trkpt>
      <trkpt lat="43.6682" lon="3.74049">
        <ele>89.3</ele>
        <time>2017-05-21T06:43:45Z</time>
      </trkpt>
      <trkpt lat="43.66824" lon="3.74051">
        <ele>89.8</ele>
        <time>2017-05-21T06:43:47Z</time>
      </trkpt>
      <trkpt lat="43.66827" lon="3.74052">
        <ele>90.1</ele>
        <time>2017-05-21T06:43:49Z</time>
      </trkpt>
      <trkpt lat="43.6683" lon="3.74052">
        <ele>90.4</ele>
        <time>2017-05-21T06:43:51Z</time>
      </trkpt>
      <trkpt lat="43.66833" lon="3.74054">
        <ele>90.5</ele>
        <time>2017-05-21T06:43:53Z</time>
      </trkpt>
      <trkpt lat="43.66836" lon="3.74056">
        <ele>90.7</ele>
        <time>2017-05-21T06:43:56Z</time>
      </trkpt>
      <trkpt lat="43.6684" lon="3.74056">
        <ele>90.7</ele>
        <time>2017-05-21T06:43:59Z</time>
      </trkpt>
      <trkpt lat="43.66844" lon="3.74055">
        <ele>90.7</ele>
        <time>2017-05-21T06:44:02Z</time>
      </trkpt>
      <trkpt lat="43.66846" lon="3.7405">
        <ele>90.7</ele>
        <time>2017-05-21T06:44:05Z</time>
      </trkpt>
      <trkpt lat="43.66846" lon="3.74046">
        <ele>90.7</ele>
        <time>2017-05-21T06:44:07Z</time>
      </trkpt>
      <trkpt lat="43.66847" lon="3.74041">
        <ele>90.7</ele>
        <time>2017-05-21T06:44:10Z</time>
      </trkpt>
      <trkpt lat="43.66851" lon="3.74041">
        <ele>90.7</ele>
        <time>2017-05-21T06:44:13Z</time>
      </trkpt>
      <trkpt lat="43.66854" lon="3.74041">
        <ele>90.8</ele>
        <time>2017-05-21T06:44:15Z</time>
      </trkpt>
      <trkpt lat="43.66858" lon="3.74042">
        <ele>91.3</ele>
        <time>2017-05-21T06:44:18Z</time>
      </trkpt>
      <trkpt lat="43.66861" lon="3.74043">
        <ele>91.3</ele>
        <time>2017-05-21T06:44:20Z</time>
      </trkpt>
      <trkpt lat="43.66865" lon="3.74044">
        <ele>91.4</ele>
        <time>2017-05-21T06:44:22Z</time>
      </trkpt>
      <trkpt lat="43.66868" lon="3.74045">
        <ele>91.8</ele>
        <time>2017-05-21T06:44:23Z</time>
      </trkpt>
      <trkpt lat="43.6687" lon="3.74047">
        <ele>92.1</ele>
        <time>2017-05-21T06:44:25Z</time>
      </trkpt>
      <trkpt lat="43.66873" lon="3.7405">
        <ele>92.4</ele>
        <time>2017-05-21T06:44:27Z</time>
      </trkpt>
      <trkpt lat="43.66876" lon="3.74051">
        <ele>92.9</ele>
        <time>2017-05-21T06:44:29Z</time>
      </trkpt>
      <trkpt lat="43.66879" lon="3.74052">
        <ele>93.2</ele>
        <time>2017-05-21T06:44:31Z</time>
      </trkpt>
      <trkpt lat="43.66882" lon="3.74053">
        <ele>93.5</ele>
        <time>2017-05-21T06:44:33Z</time>
      </trkpt>
      <trkpt lat="43.66885" lon="3.74054">
        <ele>93.9</ele>
        <time>2017-05-21T06:44:35Z</time>
      </trkpt>
      <trkpt lat="43.66888" lon="3.74057">
        <ele>94.3</ele>
        <time>2017-05-21T06:44:38Z</time>
      </trkpt>
      <trkpt lat="43.66891" lon="3.74058">
        <ele>94.7</ele>
        <time>2017-05-21T06:44:41Z</time>
      </trkpt>
      <trkpt lat="43.66895" lon="3.74059">
        <ele>95.4</ele>
        <time>2017-05-21T06:44:43Z</time>
      </trkpt>
      <trkpt lat="43.66897" lon="3.74058">
        <ele>95.7</ele>
        <time>2017-05-21T06:44:45Z</time>
      </trkpt>
      <trkpt lat="43.66902" lon="3.74058">
        <ele>96.3</ele>
        <time>2017-05-21T06:44:48Z</time>
      </trkpt>
      <trkpt lat="43.66904" lon="3.74059">
        <ele>97.2</ele>
        <time>2017-05-21T06:44:50Z</time>
      </trkpt>
      <trkpt lat="43.66908" lon="3.74059">
        <ele>97.6</ele>
        <time>2017-05-21T06:44:52Z</time>
      </trkpt>
      <trkpt lat="43.6691" lon="3.74059">
        <ele>98.3</ele>
        <time>2017-05-21T06:44:54Z</time>
      </trkpt>
      <trkpt lat="43.66914" lon="3.74059">
        <ele>98.9</ele>
        <time>2017-05-21T06:44:57Z</time>
      </trkpt>
      <trkpt lat="43.66918" lon="3.7406">
        <ele>99.7</ele>
        <time>2017-05-21T06:45:00Z</time>
      </trkpt>
      <trkpt lat="43.66921" lon="3.74061">
        <ele>100.8</ele>
        <time>2017-05-21T06:45:03Z</time>
      </trkpt>
      <trkpt lat="43.66924" lon="3.74061">
        <ele>101.3</ele>
        <time>2017-05-21T06:45:04Z</time>
      </trkpt>
      <trkpt lat="43.66927" lon="3.74064">
        <ele>101.6</ele>
        <time>2017-05-21T06:45:07Z</time>
      </trkpt>
      <trkpt lat="43.6693" lon="3.74065">
        <ele>102.1</ele>
        <time>2017-05-21T06:45:10Z</time>
      </trkpt>
      <trkpt lat="43.66933" lon="3.74065">
        <ele>102.5</ele>
        <time>2017-05-21T06:45:12Z</time>
      </trkpt>
      <trkpt lat="43.66936" lon="3.74067">
        <ele>103</ele>
        <time>2017-05-21T06:45:14Z</time>
      </trkpt>
      <trkpt lat="43.66939" lon="3.74068">
        <ele>103.7</ele>
        <time>2017-05-21T06:45:16Z</time>
      </trkpt>
      <trkpt lat="43.66942" lon="3.74069">
        <ele>104</ele>
        <time>2017-05-21T06:45:18Z</time>
      </trkpt>
      <trkpt lat="43.66945" lon="3.74069">
        <ele>104.4</ele>
        <time>2017-05-21T06:45:20Z</time>
      </trkpt>
      <trkpt lat="43.66948" lon="3.74068">
        <ele>104.7</ele>
        <time>2017-05-21T06:45:22Z</time>
      </trkpt>
      <trkpt lat="43.66951" lon="3.74067">
        <ele>104.7</ele>
        <time>2017-05-21T06:45:24Z</time>
      </trkpt>
      <trkpt lat="43.66954" lon="3.74065">
        <ele>105.1</ele>
        <time>2017-05-21T06:45:26Z</time>
      </trkpt>
      <trkpt lat="43.66957" lon="3.74063">
        <ele>105.5</ele>
        <time>2017-05-21T06:45:28Z</time>
      </trkpt>
      <trkpt lat="43.6696" lon="3.74062">
        <ele>105.5</ele>
        <time>2017-05-21T06:45:30Z</time>
      </trkpt>
      <trkpt lat="43.66963" lon="3.7406">
        <ele>106</ele>
        <time>2017-05-21T06:45:32Z</time>
      </trkpt>
      <trkpt lat="43.66966" lon="3.74057">
        <ele>106</ele>
        <time>2017-05-21T06:45:34Z</time>
      </trkpt>
      <trkpt lat="43.66969" lon="3.74054">
        <ele>106</ele>
        <time>2017-05-21T06:45:36Z</time>
      </trkpt>
      <trkpt lat="43.66972" lon="3.74052">
        <ele>106.3</ele>
        <time>2017-05-21T06:45:38Z</time>
      </trkpt>
      <trkpt lat="43.66975" lon="3.7405">
        <ele>106.2</ele>
        <time>2017-05-21T06:45:40Z</time>
      </trkpt>
      <trkpt lat="43.66978" lon="3.74049">
        <ele>106.6</ele>
        <time>2017-05-21T06:45:42Z</time>
      </trkpt>
      <trkpt lat="43.66982" lon="3.74048">
        <ele>107.1</ele>
        <time>2017-05-21T06:45:44Z</time>
      </trkpt>
      <trkpt lat="43.66986" lon="3.7405">
        <ele>108.2</ele>
        <time>2017-05-21T06:45:47Z</time>
      </trkpt>
      <trkpt lat="43.66989" lon="3.74049">
        <ele>108.2</ele>
        <time>2017-05-21T06:45:48Z</time>
      </trkpt>
      <trkpt lat="43.66993" lon="3.74049">
        <ele>109.4</ele>
        <time>2017-05-21T06:45:50Z</time>
      </trkpt>
      <trkpt lat="43.66997" lon="3.74049">
        <ele>109.9</ele>
        <time>2017-05-21T06:45:53Z</time>
      </trkpt>
      <trkpt lat="43.67001" lon="3.74048">
        <ele>110.4</ele>
        <time>2017-05-21T06:45:55Z</time>
      </trkpt>
      <trkpt lat="43.67005" lon="3.74049">
        <ele>111.3</ele>
        <time>2017-05-21T06:45:57Z</time>
      </trkpt>
      <trkpt lat="43.67008" lon="3.7405">
        <ele>112.5</ele>
        <time>2017-05-21T06:46:00Z</time>
      </trkpt>
      <trkpt lat="43.6701" lon="3.74053">
        <ele>112.5</ele>
        <time>2017-05-21T06:46:03Z</time>
      </trkpt>
      <trkpt lat="43.67012" lon="3.74056">
        <ele>113.7</ele>
        <time>2017-05-21T06:46:05Z</time>
      </trkpt>
      <trkpt lat="43.67009" lon="3.74058">
        <ele>113.3</ele>
        <time>2017-05-21T06:46:06Z</time>
      </trkpt>
      <trkpt lat="43.67007" lon="3.74061">
        <ele>113.7</ele>
        <time>2017-05-21T06:46:08Z</time>
      </trkpt>
      <trkpt lat="43.67004" lon="3.74064">
        <ele>114.2</ele>
        <time>2017-05-21T06:46:11Z</time>
      </trkpt>
      <trkpt lat="43.67001" lon="3.74067">
        <ele>114.8</ele>
        <time>2017-05-21T06:46:13Z</time>
      </trkpt>
      <trkpt lat="43.66999" lon="3.74072">
        <ele>115.8</ele>
        <time>2017-05-21T06:46:16Z</time>
      </trkpt>
      <trkpt lat="43.66997" lon="3.74076">
        <ele>115.3</ele>
        <time>2017-05-21T06:46:19Z</time>
      </trkpt>
      <trkpt lat="43.66995" lon="3.74079">
        <ele>115.6</ele>
        <time>2017-05-21T06:46:22Z</time>
      </trkpt>
      <trkpt lat="43.66993" lon="3.74082">
        <ele>116.4</ele>
        <time>2017-05-21T06:46:24Z</time>
      </trkpt>
      <trkpt lat="43.66991" lon="3.74086">
        <ele>116.4</ele>
        <time>2017-05-21T06:46:26Z</time>
      </trkpt>
      <trkpt lat="43.66989" lon="3.7409">
        <ele>116.3</ele>
        <time>2017-05-21T06:46:28Z</time>
      </trkpt>
      <trkpt lat="43.66988" lon="3.74095">
        <ele>117.1</ele>
        <time>2017-05-21T06:46:31Z</time>
      </trkpt>
      <trkpt lat="43.66989" lon="3.74098">
        <ele>117.8</ele>
        <time>2017-05-21T06:46:33Z</time>
      </trkpt>
      <trkpt lat="43.6699" lon="3.74103">
        <ele>119.5</ele>
        <time>2017-05-21T06:46:36Z</time>
      </trkpt>
      <trkpt lat="43.66993" lon="3.74107">
        <ele>121.1</ele>
        <time>2017-05-21T06:46:39Z</time>
      </trkpt>
      <trkpt lat="43.66996" lon="3.74109">
        <ele>121.9</ele>
        <time>2017-05-21T06:46:41Z</time>
      </trkpt>
      <trkpt lat="43.66999" lon="3.7411">
        <ele>122.6</ele>
        <time>2017-05-21T06:46:43Z</time>
      </trkpt>
      <trkpt lat="43.67003" lon="3.74112">
        <ele>123.7</ele>
        <time>2017-05-21T06:46:46Z</time>
      </trkpt>
      <trkpt lat="43.67005" lon="3.74116">
        <ele>124.7</ele>
        <time>2017-05-21T06:46:50Z</time>
      </trkpt>
      <trkpt lat="43.67009" lon="3.74116">
        <ele>125.3</ele>
        <time>2017-05-21T06:46:52Z</time>
      </trkpt>
      <trkpt lat="43.67011" lon="3.74116">
        <ele>125.8</ele>
        <time>2017-05-21T06:46:54Z</time>
      </trkpt>
      <trkpt lat="43.67015" lon="3.74116">
        <ele>126.3</ele>
        <time>2017-05-21T06:46:57Z</time>
      </trkpt>
      <trkpt lat="43.67018" lon="3.74117">
        <ele>126.7</ele>
        <time>2017-05-21T06:47:00Z</time>
      </trkpt>
      <trkpt lat="43.67021" lon="3.7412">
        <ele>127.4</ele>
        <time>2017-05-21T06:47:04Z</time>
      </trkpt>
      <trkpt lat="43.67024" lon="3.74122">
        <ele>127.8</ele>
        <time>2017-05-21T06:47:08Z</time>
      </trkpt>
      <trkpt lat="43.67027" lon="3.74122">
        <ele>128</ele>
        <time>2017-05-21T06:47:10Z</time>
      </trkpt>
      <trkpt lat="43.67029" lon="3.74124">
        <ele>128.7</ele>
        <time>2017-05-21T06:47:15Z</time>
      </trkpt>
      <trkpt lat="43.67033" lon="3.74125">
        <ele>129.1</ele>
        <time>2017-05-21T06:47:18Z</time>
      </trkpt>
      <trkpt lat="43.67036" lon="3.74124">
        <ele>129.6</ele>
        <time>2017-05-21T06:47:21Z</time>
      </trkpt>
      <trkpt lat="43.67039" lon="3.74125">
        <ele>130.1</ele>
        <time>2017-05-21T06:47:24Z</time>
      </trkpt>
      <trkpt lat="43.67043" lon="3.74127">
        <ele>130.6</ele>
        <time>2017-05-21T06:47:26Z</time>
      </trkpt>
      <trkpt lat="43.67046" lon="3.74127">
        <ele>131.2</ele>
        <time>2017-05-21T06:47:28Z</time>
      </trkpt>
      <trkpt lat="43.67049" lon="3.74126">
        <ele>131.7</ele>
        <time>2017-05-21T06:47:30Z</time>
      </trkpt>
      <trkpt lat="43.67052" lon="3.74129">
        <ele>132.7</ele>
        <time>2017-05-21T06:47:33Z</time>
      </trkpt>
      <trkpt lat="43.67055" lon="3.74132">
        <ele>133.7</ele>
        <time>2017-05-21T06:47:37Z</time>
      </trkpt>
      <trkpt lat="43.67059" lon="3.74134">
        <ele>134.2</ele>
        <time>2017-05-21T06:47:39Z</time>
      </trkpt>
      <trkpt lat="43.67061" lon="3.74138">
        <ele>135.2</ele>
        <time>2017-05-21T06:47:42Z</time>
      </trkpt>
      <trkpt lat="43.67063" lon="3.74142">
        <ele>135.7</ele>
        <time>2017-05-21T06:47:46Z</time>
      </trkpt>
      <trkpt lat="43.67064" lon="3.74145">
        <ele>136.7</ele>
        <time>2017-05-21T06:48:00Z</time>
      </trkpt>
      <trkpt lat="43.67068" lon="3.74149">
        <ele>137.3</ele>
        <time>2017-05-21T06:48:03Z</time>
      </trkpt>
      <trkpt lat="43.67069" lon="3.74152">
        <ele>137.8</ele>
        <time>2017-05-21T06:48:06Z</time>
      </trkpt>
      <trkpt lat="43.67071" lon="3.74155">
        <ele>138.8</ele>
        <time>2017-05-21T06:48:17Z</time>
      </trkpt>
      <trkpt lat="43.67073" lon="3.74158">
        <ele>139.8</ele>
        <time>2017-05-21T06:48:19Z</time>
      </trkpt>
      <trkpt lat="43.67076" lon="3.74162">
        <ele>139.8</ele>
        <time>2017-05-21T06:48:22Z</time>
      </trkpt>
      <trkpt lat="43.67078" lon="3.74162">
        <ele>140.6</ele>
        <time>2017-05-21T06:48:27Z</time>
      </trkpt>
      <trkpt lat="43.67081" lon="3.74166">
        <ele>140.9</ele>
        <time>2017-05-21T06:48:32Z</time>
      </trkpt>
      <trkpt lat="43.67085" lon="3.74166">
        <ele>141.2</ele>
        <time>2017-05-21T06:48:35Z</time>
      </trkpt>
      <trkpt lat="43.67087" lon="3.74168">
        <ele>141.7</ele>
        <time>2017-05-21T06:48:39Z</time>
      </trkpt>
      <trkpt lat="43.67091" lon="3.7417">
        <ele>142</ele>
        <time>2017-05-21T06:48:41Z</time>
      </trkpt>
      <trkpt lat="43.67092" lon="3.74174">
        <ele>142.6</ele>
        <time>2017-05-21T06:48:45Z</time>
      </trkpt>
      <trkpt lat="43.67095" lon="3.74176">
        <ele>143.3</ele>
        <time>2017-05-21T06:48:48Z</time>
      </trkpt>
      <trkpt lat="43.67098" lon="3.74177">
        <ele>143.8</ele>
        <time>2017-05-21T06:48:52Z</time>
      </trkpt>
      <trkpt lat="43.671" lon="3.74179">
        <ele>144</ele>
        <time>2017-05-21T06:48:54Z</time>
      </trkpt>
      <trkpt lat="43.67103" lon="3.74181">
        <ele>144.6</ele>
        <time>2017-05-21T06:48:58Z</time>
      </trkpt>
      <trkpt lat="43.67106" lon="3.74183">
        <ele>145.1</ele>
        <time>2017-05-21T06:49:00Z</time>
      </trkpt>
      <trkpt lat="43.67109" lon="3.74184">
        <ele>145.9</ele>
        <time>2017-05-21T06:49:02Z</time>
      </trkpt>
      <trkpt lat="43.6711" lon="3.74188">
        <ele>146</ele>
        <time>2017-05-21T06:49:05Z</time>
      </trkpt>
      <trkpt lat="43.67113" lon="3.7419">
        <ele>146.5</ele>
        <time>2017-05-21T06:49:11Z</time>
      </trkpt>
      <trkpt lat="43.67115" lon="3.74194">
        <ele>147</ele>
        <time>2017-05-21T06:49:13Z</time>
      </trkpt>
      <trkpt lat="43.67117" lon="3.74197">
        <ele>147.4</ele>
        <time>2017-05-21T06:49:16Z</time>
      </trkpt>
      <trkpt lat="43.67119" lon="3.74199">
        <ele>148</ele>
        <time>2017-05-21T06:49:19Z</time>
      </trkpt>
      <trkpt lat="43.67122" lon="3.74202">
        <ele>147.7</ele>
        <time>2017-05-21T06:49:21Z</time>
      </trkpt>
      <trkpt lat="43.67124" lon="3.74205">
        <ele>148</ele>
        <time>2017-05-21T06:49:23Z</time>
      </trkpt>
      <trkpt lat="43.67125" lon="3.74209">
        <ele>148</ele>
        <time>2017-05-21T06:49:26Z</time>
      </trkpt>
      <trkpt lat="43.67127" lon="3.74212">
        <ele>148.3</ele>
        <time>2017-05-21T06:49:28Z</time>
      </trkpt>
      <trkpt lat="43.67128" lon="3.74215">
        <ele>147.9</ele>
        <time>2017-05-21T06:49:30Z</time>
      </trkpt>
      <trkpt lat="43.67131" lon="3.74217">
        <ele>148.6</ele>
        <time>2017-05-21T06:49:33Z</time>
      </trkpt>
      <trkpt lat="43.67132" lon="3.74222">
        <ele>148.5</ele>
        <time>2017-05-21T06:52:40Z</time>
      </trkpt>
      <trkpt lat="43.67133" lon="3.74226">
        <ele>148.5</ele>
        <time>2017-05-21T06:52:43Z</time>
      </trkpt>
      <trkpt lat="43.67136" lon="3.74232">
        <ele>148.4</ele>
        <time>2017-05-21T06:52:45Z</time>
      </trkpt>
      <trkpt lat="43.67136" lon="3.74239">
        <ele>148.2</ele>
        <time>2017-05-21T06:52:47Z</time>
      </trkpt>
      <trkpt lat="43.67133" lon="3.74242">
        <ele>147.6</ele>
        <time>2017-05-21T06:52:48Z</time>
      </trkpt>
      <trkpt lat="43.6713" lon="3.74247">
        <ele>147.1</ele>
        <time>2017-05-21T06:52:49Z</time>
      </trkpt>
      <trkpt lat="43.67127" lon="3.74252">
        <ele>146.5</ele>
        <time>2017-05-21T06:52:50Z</time>
      </trkpt>
      <trkpt lat="43.67124" lon="3.74259">
        <ele>146</ele>
        <time>2017-05-21T06:52:51Z</time>
      </trkpt>
      <trkpt lat="43.6712" lon="3.74266">
        <ele>145.1</ele>
        <time>2017-05-21T06:52:52Z</time>
      </trkpt>
      <trkpt lat="43.67117" lon="3.74274">
        <ele>144.2</ele>
        <time>2017-05-21T06:52:53Z</time>
      </trkpt>
      <trkpt lat="43.67113" lon="3.74282">
        <ele>143.3</ele>
        <time>2017-05-21T06:52:54Z</time>
      </trkpt>
      <trkpt lat="43.67109" lon="3.7429">
        <ele>142.9</ele>
        <time>2017-05-21T06:52:55Z</time>
      </trkpt>
      <trkpt lat="43.67107" lon="3.74297">
        <ele>142.4</ele>
        <time>2017-05-21T06:52:56Z</time>
      </trkpt>
      <trkpt lat="43.67105" lon="3.74305">
        <ele>142.2</ele>
        <time>2017-05-21T06:52:57Z</time>
      </trkpt>
      <trkpt lat="43.67105" lon="3.74311">
        <ele>142.1</ele>
        <time>2017-05-21T06:52:58Z</time>
      </trkpt>
      <trkpt lat="43.67108" lon="3.74316">
        <ele>142.3</ele>
        <time>2017-05-21T06:52:59Z</time>
      </trkpt>
      <trkpt lat="43.6711" lon="3.74321">
        <ele>142.6</ele>
        <time>2017-05-21T06:53:00Z</time>
      </trkpt>
      <trkpt lat="43.67113" lon="3.74327">
        <ele>142.7</ele>
        <time>2017-05-21T06:53:01Z</time>
      </trkpt>
      <trkpt lat="43.67115" lon="3.74331">
        <ele>143</ele>
        <time>2017-05-21T06:53:02Z</time>
      </trkpt>
      <trkpt lat="43.67117" lon="3.74334">
        <ele>143.5</ele>
        <time>2017-05-21T06:53:03Z</time>
      </trkpt>
      <trkpt lat="43.67119" lon="3.74337">
        <ele>143.5</ele>
        <time>2017-05-21T06:53:04Z</time>
      </trkpt>
      <trkpt lat="43.67121" lon="3.7434">
        <ele>144.1</ele>
        <time>2017-05-21T06:53:05Z</time>
      </trkpt>
      <trkpt lat="43.67124" lon="3.74343">
        <ele>144.8</ele>
        <time>2017-05-21T06:53:06Z</time>
      </trkpt>
      <trkpt lat="43.67129" lon="3.74344">
        <ele>145.2</ele>
        <time>2017-05-21T06:53:08Z</time>
      </trkpt>
      <trkpt lat="43.67133" lon="3.74344">
        <ele>146</ele>
        <time>2017-05-21T06:53:10Z</time>
      </trkpt>
      <trkpt lat="43.67137" lon="3.74343">
        <ele>146.4</ele>
        <time>2017-05-21T06:53:12Z</time>
      </trkpt>
      <trkpt lat="43.6714" lon="3.74342">
        <ele>146.4</ele>
        <time>2017-05-21T06:53:14Z</time>
      </trkpt>
      <trkpt lat="43.67143" lon="3.74342">
        <ele>146.7</ele>
        <time>2017-05-21T06:53:16Z</time>
      </trkpt>
      <trkpt lat="43.67146" lon="3.74341">
        <ele>147</ele>
        <time>2017-05-21T06:53:18Z</time>
      </trkpt>
      <trkpt lat="43.6715" lon="3.74341">
        <ele>147.4</ele>
        <time>2017-05-21T06:53:20Z</time>
      </trkpt>
      <trkpt lat="43.67154" lon="3.7434">
        <ele>148.3</ele>
        <time>2017-05-21T06:53:22Z</time>
      </trkpt>
      <trkpt lat="43.67158" lon="3.74339">
        <ele>148.7</ele>
        <time>2017-05-21T06:53:24Z</time>
      </trkpt>
      <trkpt lat="43.67162" lon="3.74337">
        <ele>148.6</ele>
        <time>2017-05-21T06:53:26Z</time>
      </trkpt>
      <trkpt lat="43.67165" lon="3.74336">
        <ele>149</ele>
        <time>2017-05-21T06:53:28Z</time>
      </trkpt>
      <trkpt lat="43.67168" lon="3.74335">
        <ele>149.3</ele>
        <time>2017-05-21T06:53:30Z</time>
      </trkpt>
      <trkpt lat="43.67172" lon="3.74334">
        <ele>150.1</ele>
        <time>2017-05-21T06:53:32Z</time>
      </trkpt>
      <trkpt lat="43.67176" lon="3.74332">
        <ele>150</ele>
        <time>2017-05-21T06:53:34Z</time>
      </trkpt>
      <trkpt lat="43.67179" lon="3.74329">
        <ele>149.9</ele>
        <time>2017-05-21T06:53:36Z</time>
      </trkpt>
      <trkpt lat="43.67183" lon="3.74327">
        <ele>150.5</ele>
        <time>2017-05-21T06:53:38Z</time>
      </trkpt>
      <trkpt lat="43.67188" lon="3.74325">
        <ele>151</ele>
        <time>2017-05-21T06:53:41Z</time>
      </trkpt>
      <trkpt lat="43.67192" lon="3.74325">
        <ele>152</ele>
        <time>2017-05-21T06:53:43Z</time>
      </trkpt>
      <trkpt lat="43.67196" lon="3.74325">
        <ele>152.5</ele>
        <time>2017-05-21T06:53:45Z</time>
      </trkpt>
      <trkpt lat="43.67199" lon="3.74324">
        <ele>152.8</ele>
        <time>2017-05-21T06:53:47Z</time>
      </trkpt>
      <trkpt lat="43.67203" lon="3.74323">
        <ele>153.4</ele>
        <time>2017-05-21T06:53:49Z</time>
      </trkpt>
      <trkpt lat="43.67207" lon="3.74322">
        <ele>154.4</ele>
        <time>2017-05-21T06:53:51Z</time>
      </trkpt>
      <trkpt lat="43.67211" lon="3.74321">
        <ele>154.8</ele>
        <time>2017-05-21T06:53:53Z</time>
      </trkpt>
      <trkpt lat="43.67215" lon="3.74319">
        <ele>155.3</ele>
        <time>2017-05-21T06:53:55Z</time>
      </trkpt>
      <trkpt lat="43.67219" lon="3.74316">
        <ele>156</ele>
        <time>2017-05-21T06:53:57Z</time>
      </trkpt>
      <trkpt lat="43.67222" lon="3.74316">
        <ele>155.9</ele>
        <time>2017-05-21T06:53:58Z</time>
      </trkpt>
      <trkpt lat="43.67225" lon="3.74314">
        <ele>156.3</ele>
        <time>2017-05-21T06:53:59Z</time>
      </trkpt>
      <trkpt lat="43.67229" lon="3.74314">
        <ele>156.5</ele>
        <time>2017-05-21T06:54:00Z</time>
      </trkpt>
      <trkpt lat="43.67233" lon="3.74311">
        <ele>156.5</ele>
        <time>2017-05-21T06:54:01Z</time>
      </trkpt>
      <trkpt lat="43.67237" lon="3.7431">
        <ele>156.5</ele>
        <time>2017-05-21T06:54:02Z</time>
      </trkpt>
      <trkpt lat="43.67241" lon="3.74306">
        <ele>156.4</ele>
        <time>2017-05-21T06:54:03Z</time>
      </trkpt>
      <trkpt lat="43.67245" lon="3.74302">
        <ele>156.3</ele>
        <time>2017-05-21T06:54:04Z</time>
      </trkpt>
      <trkpt lat="43.6725" lon="3.74298">
        <ele>156.2</ele>
        <time>2017-05-21T06:54:05Z</time>
      </trkpt>
      <trkpt lat="43.67255" lon="3.74291">
        <ele>156</ele>
        <time>2017-05-21T06:54:06Z</time>
      </trkpt>
      <trkpt lat="43.67259" lon="3.74287">
        <ele>155.8</ele>
        <time>2017-05-21T06:54:07Z</time>
      </trkpt>
      <trkpt lat="43.67265" lon="3.74285">
        <ele>156</ele>
        <time>2017-05-21T06:54:08Z</time>
      </trkpt>
      <trkpt lat="43.6727" lon="3.74281">
        <ele>155.9</ele>
        <time>2017-05-21T06:54:09Z</time>
      </trkpt>
      <trkpt lat="43.67276" lon="3.7428">
        <ele>155.2</ele>
        <time>2017-05-21T06:54:10Z</time>
      </trkpt>
      <trkpt lat="43.67281" lon="3.74278">
        <ele>154.8</ele>
        <time>2017-05-21T06:54:11Z</time>
      </trkpt>
      <trkpt lat="43.67287" lon="3.74279">
        <ele>154.2</ele>
        <time>2017-05-21T06:54:12Z</time>
      </trkpt>
      <trkpt lat="43.67293" lon="3.74282">
        <ele>153.1</ele>
        <time>2017-05-21T06:54:13Z</time>
      </trkpt>
      <trkpt lat="43.67298" lon="3.74288">
        <ele>152.3</ele>
        <time>2017-05-21T06:54:14Z</time>
      </trkpt>
      <trkpt lat="43.67304" lon="3.74293">
        <ele>151.7</ele>
        <time>2017-05-21T06:54:15Z</time>
      </trkpt>
      <trkpt lat="43.6731" lon="3.74298">
        <ele>151.2</ele>
        <time>2017-05-21T06:54:16Z</time>
      </trkpt>
      <trkpt lat="43.67315" lon="3.74303">
        <ele>151.3</ele>
        <time>2017-05-21T06:54:17Z</time>
      </trkpt>
      <trkpt lat="43.6732" lon="3.74307">
        <ele>150.8</ele>
        <time>2017-05-21T06:54:18Z</time>
      </trkpt>
      <trkpt lat="43.67325" lon="3.74309">
        <ele>150.6</ele>
        <time>2017-05-21T06:54:19Z</time>
      </trkpt>
      <trkpt lat="43.6733" lon="3.7431">
        <ele>150.1</ele>
        <time>2017-05-21T06:54:20Z</time>
      </trkpt>
      <trkpt lat="43.67335" lon="3.74312">
        <ele>150.8</ele>
        <time>2017-05-21T06:54:21Z</time>
      </trkpt>
      <trkpt lat="43.67341" lon="3.74314">
        <ele>150.2</ele>
        <time>2017-05-21T06:54:22Z</time>
      </trkpt>
      <trkpt lat="43.67346" lon="3.74313">
        <ele>150</ele>
        <time>2017-05-21T06:54:23Z</time>
      </trkpt>
      <trkpt lat="43.67349" lon="3.74312">
        <ele>149.8</ele>
        <time>2017-05-21T06:54:24Z</time>
      </trkpt>
      <trkpt lat="43.67353" lon="3.74311">
        <ele>147.9</ele>
        <time>2017-05-21T06:54:25Z</time>
      </trkpt>
      <trkpt lat="43.67356" lon="3.74309">
        <ele>147.7</ele>
        <time>2017-05-21T06:54:26Z</time>
      </trkpt>
      <trkpt lat="43.67359" lon="3.74308">
        <ele>147.6</ele>
        <time>2017-05-21T06:54:27Z</time>
      </trkpt>
      <trkpt lat="43.67362" lon="3.74307">
        <ele>146.3</ele>
        <time>2017-05-21T06:54:28Z</time>
      </trkpt>
      <trkpt lat="43.67365" lon="3.74305">
        <ele>146.1</ele>
        <time>2017-05-21T06:54:29Z</time>
      </trkpt>
      <trkpt lat="43.67368" lon="3.74303">
        <ele>145.2</ele>
        <time>2017-05-21T06:54:30Z</time>
      </trkpt>
      <trkpt lat="43.67371" lon="3.743">
        <ele>144.9</ele>
        <time>2017-05-21T06:54:31Z</time>
      </trkpt>
      <trkpt lat="43.67375" lon="3.743">
        <ele>144.4</ele>
        <time>2017-05-21T06:54:32Z</time>
      </trkpt>
      <trkpt lat="43.67378" lon="3.74302">
        <ele>144.2</ele>
        <time>2017-05-21T06:54:33Z</time>
      </trkpt>
      <trkpt lat="43.67381" lon="3.74303">
        <ele>144</ele>
        <time>2017-05-21T06:54:34Z</time>
      </trkpt>
      <trkpt lat="43.67385" lon="3.74303">
        <ele>143.9</ele>
        <time>2017-05-21T06:54:35Z</time>
      </trkpt>
      <trkpt lat="43.67389" lon="3.74305">
        <ele>144.5</ele>
        <time>2017-05-21T06:54:36Z</time>
      </trkpt>
      <trkpt lat="43.67393" lon="3.74306">
        <ele>144.5</ele>
        <time>2017-05-21T06:54:37Z</time>
      </trkpt>
      <trkpt lat="43.67396" lon="3.74307">
        <ele>144.5</ele>
        <time>2017-05-21T06:54:38Z</time>
      </trkpt>
      <trkpt lat="43.67401" lon="3.74308">
        <ele>145.4</ele>
        <time>2017-05-21T06:54:40Z</time>
      </trkpt>
      <trkpt lat="43.67404" lon="3.74308">
        <ele>145.4</ele>
        <time>2017-05-21T06:54:41Z</time>
      </trkpt>
      <trkpt lat="43.67407" lon="3.74309">
        <ele>145.5</ele>
        <time>2017-05-21T06:54:42Z</time>
      </trkpt>
      <trkpt lat="43.6741" lon="3.74309">
        <ele>145.5</ele>
        <time>2017-05-21T06:54:43Z</time>
      </trkpt>
      <trkpt lat="43.67413" lon="3.7431">
        <ele>145.6</ele>
        <time>2017-05-21T06:54:44Z</time>
      </trkpt>
      <trkpt lat="43.67417" lon="3.74311">
        <ele>145.6</ele>
        <time>2017-05-21T06:54:45Z</time>
      </trkpt>
      <trkpt lat="43.67422" lon="3.74311">
        <ele>145.4</ele>
        <time>2017-05-21T06:54:47Z</time>
      </trkpt>
      <trkpt lat="43.67425" lon="3.74312">
        <ele>146.4</ele>
        <time>2017-05-21T06:54:48Z</time>
      </trkpt>
      <trkpt lat="43.6743" lon="3.74313">
        <ele>145.9</ele>
        <time>2017-05-21T06:54:50Z</time>
      </trkpt>
      <trkpt lat="43.67437" lon="3.74314">
        <ele>145.3</ele>
        <time>2017-05-21T06:54:52Z</time>
      </trkpt>
      <trkpt lat="43.6744" lon="3.74314">
        <ele>145</ele>
        <time>2017-05-21T06:54:53Z</time>
      </trkpt>
      <trkpt lat="43.67443" lon="3.74314">
        <ele>144.8</ele>
        <time>2017-05-21T06:54:54Z</time>
      </trkpt>
      <trkpt lat="43.67448" lon="3.74314">
        <ele>144.6</ele>
        <time>2017-05-21T06:54:55Z</time>
      </trkpt>
      <trkpt lat="43.67452" lon="3.74315">
        <ele>144.3</ele>
        <time>2017-05-21T06:54:56Z</time>
      </trkpt>
      <trkpt lat="43.67456" lon="3.74316">
        <ele>144.1</ele>
        <time>2017-05-21T06:54:57Z</time>
      </trkpt>
      <trkpt lat="43.6746" lon="3.74318">
        <ele>145.2</ele>
        <time>2017-05-21T06:54:58Z</time>
      </trkpt>
      <trkpt lat="43.67464" lon="3.74318">
        <ele>145</ele>
        <time>2017-05-21T06:54:59Z</time>
      </trkpt>
      <trkpt lat="43.67468" lon="3.7432">
        <ele>144.6</ele>
        <time>2017-05-21T06:55:00Z</time>
      </trkpt>
      <trkpt lat="43.67473" lon="3.74321">
        <ele>145.5</ele>
        <time>2017-05-21T06:55:01Z</time>
      </trkpt>
      <trkpt lat="43.67477" lon="3.74321">
        <ele>145.3</ele>
        <time>2017-05-21T06:55:02Z</time>
      </trkpt>
      <trkpt lat="43.67481" lon="3.74321">
        <ele>145</ele>
        <time>2017-05-21T06:55:03Z</time>
      </trkpt>
      <trkpt lat="43.67485" lon="3.7432">
        <ele>143.2</ele>
        <time>2017-05-21T06:55:04Z</time>
      </trkpt>
      <trkpt lat="43.67491" lon="3.74322">
        <ele>143.9</ele>
        <time>2017-05-21T06:55:06Z</time>
      </trkpt>
      <trkpt lat="43.67495" lon="3.74323">
        <ele>143.1</ele>
        <time>2017-05-21T06:55:07Z</time>
      </trkpt>
      <trkpt lat="43.67501" lon="3.74326">
        <ele>143.8</ele>
        <time>2017-05-21T06:55:09Z</time>
      </trkpt>
      <trkpt lat="43.67505" lon="3.74327">
        <ele>143.4</ele>
        <time>2017-05-21T06:55:10Z</time>
      </trkpt>
      <trkpt lat="43.67509" lon="3.74328">
        <ele>142.9</ele>
        <time>2017-05-21T06:55:11Z</time>
      </trkpt>
      <trkpt lat="43.67513" lon="3.74327">
        <ele>142.4</ele>
        <time>2017-05-21T06:55:12Z</time>
      </trkpt>
      <trkpt lat="43.67515" lon="3.74328">
        <ele>142</ele>
        <time>2017-05-21T06:55:13Z</time>
      </trkpt>
      <trkpt lat="43.67522" lon="3.7433">
        <ele>142</ele>
        <time>2017-05-21T06:55:15Z</time>
      </trkpt>
      <trkpt lat="43.67524" lon="3.74332">
        <ele>141.7</ele>
        <time>2017-05-21T06:55:16Z</time>
      </trkpt>
      <trkpt lat="43.67528" lon="3.74333">
        <ele>141.5</ele>
        <time>2017-05-21T06:55:17Z</time>
      </trkpt>
      <trkpt lat="43.67532" lon="3.74335">
        <ele>142.1</ele>
        <time>2017-05-21T06:55:18Z</time>
      </trkpt>
      <trkpt lat="43.67535" lon="3.74336">
        <ele>142</ele>
        <time>2017-05-21T06:55:19Z</time>
      </trkpt>
      <trkpt lat="43.67541" lon="3.74335">
        <ele>141.9</ele>
        <time>2017-05-21T06:55:20Z</time>
      </trkpt>
      <trkpt lat="43.67546" lon="3.74335">
        <ele>141.6</ele>
        <time>2017-05-21T06:55:21Z</time>
      </trkpt>
      <trkpt lat="43.6755" lon="3.74335">
        <ele>141.3</ele>
        <time>2017-05-21T06:55:22Z</time>
      </trkpt>
      <trkpt lat="43.67555" lon="3.74336">
        <ele>140.5</ele>
        <time>2017-05-21T06:55:23Z</time>
      </trkpt>
      <trkpt lat="43.6756" lon="3.74336">
        <ele>139</ele>
        <time>2017-05-21T06:55:25Z</time>
      </trkpt>
      <trkpt lat="43.67564" lon="3.74336">
        <ele>138</ele>
        <time>2017-05-21T06:55:26Z</time>
      </trkpt>
      <trkpt lat="43.67568" lon="3.74336">
        <ele>136.9</ele>
        <time>2017-05-21T06:55:27Z</time>
      </trkpt>
      <trkpt lat="43.67571" lon="3.74336">
        <ele>135.7</ele>
        <time>2017-05-21T06:55:28Z</time>
      </trkpt>
      <trkpt lat="43.67576" lon="3.74339">
        <ele>134.4</ele>
        <time>2017-05-21T06:55:29Z</time>
      </trkpt>
      <trkpt lat="43.6758" lon="3.7434">
        <ele>133.4</ele>
        <time>2017-05-21T06:55:30Z</time>
      </trkpt>
      <trkpt lat="43.67583" lon="3.7434">
        <ele>132.5</ele>
        <time>2017-05-21T06:55:31Z</time>
      </trkpt>
      <trkpt lat="43.67587" lon="3.74346">
        <ele>132.9</ele>
        <time>2017-05-21T06:55:32Z</time>
      </trkpt>
      <trkpt lat="43.6759" lon="3.74347">
        <ele>133.5</ele>
        <time>2017-05-21T06:55:33Z</time>
      </trkpt>
      <trkpt lat="43.67592" lon="3.74349">
        <ele>132.9</ele>
        <time>2017-05-21T06:55:34Z</time>
      </trkpt>
      <trkpt lat="43.67596" lon="3.7435">
        <ele>132.4</ele>
        <time>2017-05-21T06:55:35Z</time>
      </trkpt>
      <trkpt lat="43.676" lon="3.7435">
        <ele>131.9</ele>
        <time>2017-05-21T06:55:37Z</time>
      </trkpt>
      <trkpt lat="43.67603" lon="3.7435">
        <ele>131.6</ele>
        <time>2017-05-21T06:55:38Z</time>
      </trkpt>
      <trkpt lat="43.67606" lon="3.74351">
        <ele>132.5</ele>
        <time>2017-05-21T06:55:39Z</time>
      </trkpt>
      <trkpt lat="43.67611" lon="3.74352">
        <ele>132</ele>
        <time>2017-05-21T06:55:41Z</time>
      </trkpt>
      <trkpt lat="43.67614" lon="3.74353">
        <ele>131.7</ele>
        <time>2017-05-21T06:55:42Z</time>
      </trkpt>
      <trkpt lat="43.67621" lon="3.74355">
        <ele>131.2</ele>
        <time>2017-05-21T06:55:44Z</time>
      </trkpt>
      <trkpt lat="43.67624" lon="3.74355">
        <ele>130.9</ele>
        <time>2017-05-21T06:55:45Z</time>
      </trkpt>
      <trkpt lat="43.67629" lon="3.74356">
        <ele>131.5</ele>
        <time>2017-05-21T06:55:46Z</time>
      </trkpt>
      <trkpt lat="43.67633" lon="3.74355">
        <ele>131.4</ele>
        <time>2017-05-21T06:55:47Z</time>
      </trkpt>
      <trkpt lat="43.67639" lon="3.74355">
        <ele>131.2</ele>
        <time>2017-05-21T06:55:48Z</time>
      </trkpt>
      <trkpt lat="43.67644" lon="3.74357">
        <ele>131.1</ele>
        <time>2017-05-21T06:55:49Z</time>
      </trkpt>
      <trkpt lat="43.67648" lon="3.74359">
        <ele>130.9</ele>
        <time>2017-05-21T06:55:50Z</time>
      </trkpt>
      <trkpt lat="43.67651" lon="3.74359">
        <ele>131.6</ele>
        <time>2017-05-21T06:55:51Z</time>
      </trkpt>
      <trkpt lat="43.67655" lon="3.74361">
        <ele>131.4</ele>
        <time>2017-05-21T06:55:52Z</time>
      </trkpt>
      <trkpt lat="43.67658" lon="3.74361">
        <ele>131.1</ele>
        <time>2017-05-21T06:55:53Z</time>
      </trkpt>
      <trkpt lat="43.67661" lon="3.74363">
        <ele>130.8</ele>
        <time>2017-05-21T06:55:54Z</time>
      </trkpt>
      <trkpt lat="43.67666" lon="3.74365">
        <ele>131.2</ele>
        <time>2017-05-21T06:55:56Z</time>
      </trkpt>
      <trkpt lat="43.6767" lon="3.74367">
        <ele>130.5</ele>
        <time>2017-05-21T06:55:58Z</time>
      </trkpt>
      <trkpt lat="43.67675" lon="3.74369">
        <ele>130.2</ele>
        <time>2017-05-21T06:56:00Z</time>
      </trkpt>
      <trkpt lat="43.67679" lon="3.7437">
        <ele>129.7</ele>
        <time>2017-05-21T06:56:01Z</time>
      </trkpt>
      <trkpt lat="43.67682" lon="3.74371">
        <ele>129.2</ele>
        <time>2017-05-21T06:56:02Z</time>
      </trkpt>
      <trkpt lat="43.67686" lon="3.74372">
        <ele>129.6</ele>
        <time>2017-05-21T06:56:03Z</time>
      </trkpt>
      <trkpt lat="43.6769" lon="3.74374">
        <ele>129.2</ele>
        <time>2017-05-21T06:56:04Z</time>
      </trkpt>
      <trkpt lat="43.67694" lon="3.74375">
        <ele>128.8</ele>
        <time>2017-05-21T06:56:05Z</time>
      </trkpt>
      <trkpt lat="43.67696" lon="3.74376">
        <ele>128.5</ele>
        <time>2017-05-21T06:56:06Z</time>
      </trkpt>
      <trkpt lat="43.677" lon="3.74378">
        <ele>129.2</ele>
        <time>2017-05-21T06:56:08Z</time>
      </trkpt>
      <trkpt lat="43.67703" lon="3.74379">
        <ele>129</ele>
        <time>2017-05-21T06:56:09Z</time>
      </trkpt>
      <trkpt lat="43.67706" lon="3.7438">
        <ele>128.9</ele>
        <time>2017-05-21T06:56:10Z</time>
      </trkpt>
      <trkpt lat="43.67711" lon="3.74383">
        <ele>130.3</ele>
        <time>2017-05-21T06:56:12Z</time>
      </trkpt>
      <trkpt lat="43.67713" lon="3.74384">
        <ele>130.3</ele>
        <time>2017-05-21T06:56:13Z</time>
      </trkpt>
      <trkpt lat="43.67718" lon="3.74386">
        <ele>131.8</ele>
        <time>2017-05-21T06:56:15Z</time>
      </trkpt>
      <trkpt lat="43.67722" lon="3.74389">
        <ele>133.1</ele>
        <time>2017-05-21T06:56:17Z</time>
      </trkpt>
      <trkpt lat="43.67725" lon="3.74391">
        <ele>133</ele>
        <time>2017-05-21T06:56:18Z</time>
      </trkpt>
      <trkpt lat="43.67729" lon="3.74393">
        <ele>132.9</ele>
        <time>2017-05-21T06:56:20Z</time>
      </trkpt>
      <trkpt lat="43.67732" lon="3.74394">
        <ele>133.8</ele>
        <time>2017-05-21T06:56:21Z</time>
      </trkpt>
      <trkpt lat="43.67735" lon="3.74395">
        <ele>133.4</ele>
        <time>2017-05-21T06:56:22Z</time>
      </trkpt>
      <trkpt lat="43.67737" lon="3.74396">
        <ele>133</ele>
        <time>2017-05-21T06:56:23Z</time>
      </trkpt>
      <trkpt lat="43.67742" lon="3.74397">
        <ele>132.6</ele>
        <time>2017-05-21T06:56:25Z</time>
      </trkpt>
      <trkpt lat="43.67746" lon="3.74397">
        <ele>132.2</ele>
        <time>2017-05-21T06:56:26Z</time>
      </trkpt>
      <trkpt lat="43.67749" lon="3.74398">
        <ele>132.7</ele>
        <time>2017-05-21T06:56:27Z</time>
      </trkpt>
      <trkpt lat="43.67752" lon="3.744">
        <ele>132.3</ele>
        <time>2017-05-21T06:56:28Z</time>
      </trkpt>
      <trkpt lat="43.67755" lon="3.74402">
        <ele>131.9</ele>
        <time>2017-05-21T06:56:29Z</time>
      </trkpt>
      <trkpt lat="43.67759" lon="3.74403">
        <ele>132.4</ele>
        <time>2017-05-21T06:56:30Z</time>
      </trkpt>
      <trkpt lat="43.67761" lon="3.74405">
        <ele>132.1</ele>
        <time>2017-05-21T06:56:31Z</time>
      </trkpt>
      <trkpt lat="43.67763" lon="3.74407">
        <ele>132.8</ele>
        <time>2017-05-21T06:56:32Z</time>
      </trkpt>
      <trkpt lat="43.67765" lon="3.74409">
        <ele>132.5</ele>
        <time>2017-05-21T06:56:33Z</time>
      </trkpt>
      <trkpt lat="43.6777" lon="3.74412">
        <ele>133.2</ele>
        <time>2017-05-21T06:56:35Z</time>
      </trkpt>
      <trkpt lat="43.67772" lon="3.74414">
        <ele>133</ele>
        <time>2017-05-21T06:56:36Z</time>
      </trkpt>
      <trkpt lat="43.67776" lon="3.74419">
        <ele>133.8</ele>
        <time>2017-05-21T06:56:38Z</time>
      </trkpt>
      <trkpt lat="43.67778" lon="3.74422">
        <ele>134.6</ele>
        <time>2017-05-21T06:56:39Z</time>
      </trkpt>
      <trkpt lat="43.67782" lon="3.74423">
        <ele>134.5</ele>
        <time>2017-05-21T06:56:40Z</time>
      </trkpt>
      <trkpt lat="43.67787" lon="3.74424">
        <ele>135.2</ele>
        <time>2017-05-21T06:56:42Z</time>
      </trkpt>
      <trkpt lat="43.67791" lon="3.74425">
        <ele>135</ele>
        <time>2017-05-21T06:56:43Z</time>
      </trkpt>
      <trkpt lat="43.67794" lon="3.74425">
        <ele>134.9</ele>
        <time>2017-05-21T06:56:44Z</time>
      </trkpt>
      <trkpt lat="43.67797" lon="3.74425">
        <ele>134.8</ele>
        <time>2017-05-21T06:56:45Z</time>
      </trkpt>
      <trkpt lat="43.67803" lon="3.74424">
        <ele>134.5</ele>
        <time>2017-05-21T06:56:47Z</time>
      </trkpt>
      <trkpt lat="43.67806" lon="3.74421">
        <ele>133.5</ele>
        <time>2017-05-21T06:56:48Z</time>
      </trkpt>
      <trkpt lat="43.6781" lon="3.74419">
        <ele>132.6</ele>
        <time>2017-05-21T06:56:49Z</time>
      </trkpt>
      <trkpt lat="43.67813" lon="3.74418">
        <ele>132.5</ele>
        <time>2017-05-21T06:56:50Z</time>
      </trkpt>
      <trkpt lat="43.67817" lon="3.74416">
        <ele>132.4</ele>
        <time>2017-05-21T06:56:51Z</time>
      </trkpt>
      <trkpt lat="43.67822" lon="3.74414">
        <ele>131.4</ele>
        <time>2017-05-21T06:56:52Z</time>
      </trkpt>
      <trkpt lat="43.67826" lon="3.74412">
        <ele>131.3</ele>
        <time>2017-05-21T06:56:53Z</time>
      </trkpt>
      <trkpt lat="43.6783" lon="3.7441">
        <ele>130.6</ele>
        <time>2017-05-21T06:56:54Z</time>
      </trkpt>
      <trkpt lat="43.67834" lon="3.74408">
        <ele>130.7</ele>
        <time>2017-05-21T06:56:55Z</time>
      </trkpt>
      <trkpt lat="43.67839" lon="3.74408">
        <ele>130.7</ele>
        <time>2017-05-21T06:56:56Z</time>
      </trkpt>
      <trkpt lat="43.67844" lon="3.74408">
        <ele>131</ele>
        <time>2017-05-21T06:56:57Z</time>
      </trkpt>
      <trkpt lat="43.67848" lon="3.74405">
        <ele>130.8</ele>
        <time>2017-05-21T06:56:58Z</time>
      </trkpt>
      <trkpt lat="43.67852" lon="3.74402">
        <ele>130.9</ele>
        <time>2017-05-21T06:56:59Z</time>
      </trkpt>
      <trkpt lat="43.67855" lon="3.74398">
        <ele>131</ele>
        <time>2017-05-21T06:57:00Z</time>
      </trkpt>
      <trkpt lat="43.67858" lon="3.74395">
        <ele>130.8</ele>
        <time>2017-05-21T06:57:01Z</time>
      </trkpt>
      <trkpt lat="43.67862" lon="3.74392">
        <ele>130.9</ele>
        <time>2017-05-21T06:57:02Z</time>
      </trkpt>
      <trkpt lat="43.67867" lon="3.74388">
        <ele>130.9</ele>
        <time>2017-05-21T06:57:03Z</time>
      </trkpt>
      <trkpt lat="43.67872" lon="3.74385">
        <ele>131</ele>
        <time>2017-05-21T06:57:04Z</time>
      </trkpt>
      <trkpt lat="43.67876" lon="3.74383">
        <ele>131.1</ele>
        <time>2017-05-21T06:57:05Z</time>
      </trkpt>
      <trkpt lat="43.67881" lon="3.7438">
        <ele>131.2</ele>
        <time>2017-05-21T06:57:06Z</time>
      </trkpt>
      <trkpt lat="43.67885" lon="3.74378">
        <ele>131.3</ele>
        <time>2017-05-21T06:57:07Z</time>
      </trkpt>
      <trkpt lat="43.67888" lon="3.74377">
        <ele>131.4</ele>
        <time>2017-05-21T06:57:08Z</time>
      </trkpt>
      <trkpt lat="43.67892" lon="3.74373">
        <ele>131.7</ele>
        <time>2017-05-21T06:57:10Z</time>
      </trkpt>
      <trkpt lat="43.67898" lon="3.74368">
        <ele>132.1</ele>
        <time>2017-05-21T06:57:12Z</time>
      </trkpt>
      <trkpt lat="43.679" lon="3.74366">
        <ele>132.3</ele>
        <time>2017-05-21T06:57:13Z</time>
      </trkpt>
      <trkpt lat="43.67903" lon="3.74362">
        <ele>132.5</ele>
        <time>2017-05-21T06:57:14Z</time>
      </trkpt>
      <trkpt lat="43.67905" lon="3.74358">
        <ele>132.5</ele>
        <time>2017-05-21T06:57:15Z</time>
      </trkpt>
      <trkpt lat="43.67906" lon="3.74355">
        <ele>132.4</ele>
        <time>2017-05-21T06:57:16Z</time>
      </trkpt>
      <trkpt lat="43.67908" lon="3.74351">
        <ele>132.5</ele>
        <time>2017-05-21T06:57:17Z</time>
      </trkpt>
      <trkpt lat="43.6791" lon="3.74345">
        <ele>131.8</ele>
        <time>2017-05-21T06:57:18Z</time>
      </trkpt>
      <trkpt lat="43.6791" lon="3.74341">
        <ele>131.4</ele>
        <time>2017-05-21T06:57:19Z</time>
      </trkpt>
      <trkpt lat="43.67912" lon="3.74337">
        <ele>131</ele>
        <time>2017-05-21T06:57:20Z</time>
      </trkpt>
      <trkpt lat="43.67915" lon="3.74331">
        <ele>130.8</ele>
        <time>2017-05-21T06:57:22Z</time>
      </trkpt>
      <trkpt lat="43.67919" lon="3.74332">
        <ele>131</ele>
        <time>2017-05-21T06:57:24Z</time>
      </trkpt>
      <trkpt lat="43.67924" lon="3.74331">
        <ele>131.4</ele>
        <time>2017-05-21T06:57:26Z</time>
      </trkpt>
      <trkpt lat="43.67927" lon="3.7433">
        <ele>131.7</ele>
        <time>2017-05-21T06:57:27Z</time>
      </trkpt>
      <trkpt lat="43.6793" lon="3.74327">
        <ele>131.7</ele>
        <time>2017-05-21T06:57:28Z</time>
      </trkpt>
      <trkpt lat="43.67933" lon="3.74324">
        <ele>131.7</ele>
        <time>2017-05-21T06:57:29Z</time>
      </trkpt>
      <trkpt lat="43.67937" lon="3.74322">
        <ele>131.9</ele>
        <time>2017-05-21T06:57:31Z</time>
      </trkpt>
      <trkpt lat="43.6794" lon="3.74322">
        <ele>132.2</ele>
        <time>2017-05-21T06:57:32Z</time>
      </trkpt>
      <trkpt lat="43.67943" lon="3.74322">
        <ele>132.4</ele>
        <time>2017-05-21T06:57:34Z</time>
      </trkpt>
      <trkpt lat="43.67946" lon="3.74325">
        <ele>132.8</ele>
        <time>2017-05-21T06:57:36Z</time>
      </trkpt>
      <trkpt lat="43.67948" lon="3.74328">
        <ele>132.9</ele>
        <time>2017-05-21T06:57:37Z</time>
      </trkpt>
      <trkpt lat="43.6795" lon="3.74333">
        <ele>133.2</ele>
        <time>2017-05-21T06:57:40Z</time>
      </trkpt>
      <trkpt lat="43.67952" lon="3.74336">
        <ele>133.5</ele>
        <time>2017-05-21T06:57:44Z</time>
      </trkpt>
      <trkpt lat="43.67956" lon="3.74336">
        <ele>133.6</ele>
        <time>2017-05-21T06:57:46Z</time>
      </trkpt>
      <trkpt lat="43.67962" lon="3.74336">
        <ele>133.8</ele>
        <time>2017-05-21T06:57:48Z</time>
      </trkpt>
      <trkpt lat="43.67966" lon="3.74335">
        <ele>133.9</ele>
        <time>2017-05-21T06:57:49Z</time>
      </trkpt>
      <trkpt lat="43.67971" lon="3.74332">
        <ele>134.1</ele>
        <time>2017-05-21T06:57:51Z</time>
      </trkpt>
      <trkpt lat="43.67975" lon="3.7433">
        <ele>134.3</ele>
        <time>2017-05-21T06:57:53Z</time>
      </trkpt>
      <trkpt lat="43.67978" lon="3.74327">
        <ele>134.4</ele>
        <time>2017-05-21T06:57:55Z</time>
      </trkpt>
      <trkpt lat="43.67981" lon="3.74325">
        <ele>134.7</ele>
        <time>2017-05-21T06:57:56Z</time>
      </trkpt>
      <trkpt lat="43.67984" lon="3.74324">
        <ele>134.8</ele>
        <time>2017-05-21T06:57:57Z</time>
      </trkpt>
      <trkpt lat="43.67986" lon="3.74321">
        <ele>135</ele>
        <time>2017-05-21T06:57:58Z</time>
      </trkpt>
      <trkpt lat="43.67989" lon="3.74319">
        <ele>135</ele>
        <time>2017-05-21T06:57:59Z</time>
      </trkpt>
      <trkpt lat="43.67992" lon="3.74317">
        <ele>135.1</ele>
        <time>2017-05-21T06:58:00Z</time>
      </trkpt>
      <trkpt lat="43.67995" lon="3.74316">
        <ele>134.9</ele>
        <time>2017-05-21T06:58:01Z</time>
      </trkpt>
      <trkpt lat="43.67998" lon="3.74316">
        <ele>135.2</ele>
        <time>2017-05-21T06:58:02Z</time>
      </trkpt>
      <trkpt lat="43.68" lon="3.74316">
        <ele>135.2</ele>
        <time>2017-05-21T06:58:03Z</time>
      </trkpt>
      <trkpt lat="43.68006" lon="3.74316">
        <ele>135</ele>
        <time>2017-05-21T06:58:05Z</time>
      </trkpt>
      <trkpt lat="43.6801" lon="3.74316">
        <ele>134.9</ele>
        <time>2017-05-21T06:58:07Z</time>
      </trkpt>
      <trkpt lat="43.68014" lon="3.74314">
        <ele>134.8</ele>
        <time>2017-05-21T06:58:09Z</time>
      </trkpt>
      <trkpt lat="43.68017" lon="3.74312">
        <ele>134.7</ele>
        <time>2017-05-21T06:58:10Z</time>
      </trkpt>
      <trkpt lat="43.6802" lon="3.7431">
        <ele>134.6</ele>
        <time>2017-05-21T06:58:11Z</time>
      </trkpt>
      <trkpt lat="43.68023" lon="3.74306">
        <ele>134.5</ele>
        <time>2017-05-21T06:58:13Z</time>
      </trkpt>
      <trkpt lat="43.68027" lon="3.74301">
        <ele>134.4</ele>
        <time>2017-05-21T06:58:15Z</time>
      </trkpt>
      <trkpt lat="43.6803" lon="3.74297">
        <ele>134.3</ele>
        <time>2017-05-21T06:58:16Z</time>
      </trkpt>
      <trkpt lat="43.68032" lon="3.74294">
        <ele>134.2</ele>
        <time>2017-05-21T06:58:17Z</time>
      </trkpt>
      <trkpt lat="43.68035" lon="3.74292">
        <ele>134</ele>
        <time>2017-05-21T06:58:18Z</time>
      </trkpt>
      <trkpt lat="43.68038" lon="3.7429">
        <ele>134.1</ele>
        <time>2017-05-21T06:58:19Z</time>
      </trkpt>
      <trkpt lat="43.68042" lon="3.74289">
        <ele>134.1</ele>
        <time>2017-05-21T06:58:20Z</time>
      </trkpt>
      <trkpt lat="43.68045" lon="3.7429">
        <ele>134.2</ele>
        <time>2017-05-21T06:58:21Z</time>
      </trkpt>
      <trkpt lat="43.68048" lon="3.74289">
        <ele>134.2</ele>
        <time>2017-05-21T06:58:22Z</time>
      </trkpt>
      <trkpt lat="43.68052" lon="3.74288">
        <ele>134.3</ele>
        <time>2017-05-21T06:58:23Z</time>
      </trkpt>
      <trkpt lat="43.68055" lon="3.74287">
        <ele>134.3</ele>
        <time>2017-05-21T06:58:24Z</time>
      </trkpt>
      <trkpt lat="43.68058" lon="3.74286">
        <ele>134.4</ele>
        <time>2017-05-21T06:58:25Z</time>
      </trkpt>
      <trkpt lat="43.68062" lon="3.74285">
        <ele>134.5</ele>
        <time>2017-05-21T06:58:26Z</time>
      </trkpt>
      <trkpt lat="43.68065" lon="3.74285">
        <ele>134.5</ele>
        <time>2017-05-21T06:58:27Z</time>
      </trkpt>
      <trkpt lat="43.68068" lon="3.74283">
        <ele>134.6</ele>
        <time>2017-05-21T06:58:28Z</time>
      </trkpt>
      <trkpt lat="43.68071" lon="3.74283">
        <ele>134.6</ele>
        <time>2017-05-21T06:58:29Z</time>
      </trkpt>
      <trkpt lat="43.68074" lon="3.74282">
        <ele>134.7</ele>
        <time>2017-05-21T06:58:30Z</time>
      </trkpt>
      <trkpt lat="43.68077" lon="3.74282">
        <ele>134.7</ele>
        <time>2017-05-21T06:58:31Z</time>
      </trkpt>
      <trkpt lat="43.6808" lon="3.74283">
        <ele>134.8</ele>
        <time>2017-05-21T06:58:32Z</time>
      </trkpt>
      <trkpt lat="43.68084" lon="3.74283">
        <ele>134.9</ele>
        <time>2017-05-21T06:58:33Z</time>
      </trkpt>
      <trkpt lat="43.68087" lon="3.74284">
        <ele>134.8</ele>
        <time>2017-05-21T06:58:34Z</time>
      </trkpt>
      <trkpt lat="43.6809" lon="3.74284">
        <ele>134.7</ele>
        <time>2017-05-21T06:58:35Z</time>
      </trkpt>
      <trkpt lat="43.68095" lon="3.74284">
        <ele>134.3</ele>
        <time>2017-05-21T06:58:36Z</time>
      </trkpt>
      <trkpt lat="43.68098" lon="3.74285">
        <ele>134</ele>
        <time>2017-05-21T06:58:37Z</time>
      </trkpt>
      <trkpt lat="43.68102" lon="3.74286">
        <ele>133.8</ele>
        <time>2017-05-21T06:58:38Z</time>
      </trkpt>
      <trkpt lat="43.68105" lon="3.74286">
        <ele>133.5</ele>
        <time>2017-05-21T06:58:39Z</time>
      </trkpt>
      <trkpt lat="43.68109" lon="3.74286">
        <ele>133.2</ele>
        <time>2017-05-21T06:58:40Z</time>
      </trkpt>
      <trkpt lat="43.68112" lon="3.74285">
        <ele>133</ele>
        <time>2017-05-21T06:58:41Z</time>
      </trkpt>
      <trkpt lat="43.68115" lon="3.74286">
        <ele>132.8</ele>
        <time>2017-05-21T06:58:42Z</time>
      </trkpt>
      <trkpt lat="43.68118" lon="3.74285">
        <ele>132.6</ele>
        <time>2017-05-21T06:58:43Z</time>
      </trkpt>
      <trkpt lat="43.68121" lon="3.74285">
        <ele>132.5</ele>
        <time>2017-05-21T06:58:44Z</time>
      </trkpt>
      <trkpt lat="43.68125" lon="3.74284">
        <ele>132.4</ele>
        <time>2017-05-21T06:58:45Z</time>
      </trkpt>
      <trkpt lat="43.68128" lon="3.74283">
        <ele>132.3</ele>
        <time>2017-05-21T06:58:46Z</time>
      </trkpt>
      <trkpt lat="43.68131" lon="3.74282">
        <ele>132.1</ele>
        <time>2017-05-21T06:58:47Z</time>
      </trkpt>
      <trkpt lat="43.68135" lon="3.74281">
        <ele>132.2</ele>
        <time>2017-05-21T06:58:48Z</time>
      </trkpt>
      <trkpt lat="43.68138" lon="3.7428">
        <ele>132.2</ele>
        <time>2017-05-21T06:58:49Z</time>
      </trkpt>
      <trkpt lat="43.68142" lon="3.74279">
        <ele>132.3</ele>
        <time>2017-05-21T06:58:50Z</time>
      </trkpt>
      <trkpt lat="43.68146" lon="3.74277">
        <ele>132.3</ele>
        <time>2017-05-21T06:58:51Z</time>
      </trkpt>
      <trkpt lat="43.68149" lon="3.74276">
        <ele>132.4</ele>
        <time>2017-05-21T06:58:52Z</time>
      </trkpt>
      <trkpt lat="43.68153" lon="3.74275">
        <ele>132.5</ele>
        <time>2017-05-21T06:58:53Z</time>
      </trkpt>
      <trkpt lat="43.68156" lon="3.74274">
        <ele>132.8</ele>
        <time>2017-05-21T06:58:54Z</time>
      </trkpt>
      <trkpt lat="43.6816" lon="3.74272">
        <ele>132.8</ele>
        <time>2017-05-21T06:58:55Z</time>
      </trkpt>
      <trkpt lat="43.68164" lon="3.74269">
        <ele>132.9</ele>
        <time>2017-05-21T06:58:56Z</time>
      </trkpt>
      <trkpt lat="43.68168" lon="3.74267">
        <ele>132.9</ele>
        <time>2017-05-21T06:58:57Z</time>
      </trkpt>
      <trkpt lat="43.68173" lon="3.74265">
        <ele>132.9</ele>
        <time>2017-05-21T06:58:58Z</time>
      </trkpt>
      <trkpt lat="43.68177" lon="3.74262">
        <ele>133</ele>
        <time>2017-05-21T06:58:59Z</time>
      </trkpt>
      <trkpt lat="43.68181" lon="3.74259">
        <ele>133.1</ele>
        <time>2017-05-21T06:59:00Z</time>
      </trkpt>
      <trkpt lat="43.68185" lon="3.74257">
        <ele>133.3</ele>
        <time>2017-05-21T06:59:01Z</time>
      </trkpt>
      <trkpt lat="43.68189" lon="3.74254">
        <ele>133.4</ele>
        <time>2017-05-21T06:59:02Z</time>
      </trkpt>
      <trkpt lat="43.68193" lon="3.74252">
        <ele>133.7</ele>
        <time>2017-05-21T06:59:03Z</time>
      </trkpt>
      <trkpt lat="43.68198" lon="3.74249">
        <ele>133.8</ele>
        <time>2017-05-21T06:59:04Z</time>
      </trkpt>
      <trkpt lat="43.68202" lon="3.74247">
        <ele>133.7</ele>
        <time>2017-05-21T06:59:05Z</time>
      </trkpt>
      <trkpt lat="43.68206" lon="3.74247">
        <ele>133.8</ele>
        <time>2017-05-21T06:59:06Z</time>
      </trkpt>
      <trkpt lat="43.68211" lon="3.74248">
        <ele>134.1</ele>
        <time>2017-05-21T06:59:07Z</time>
      </trkpt>
      <trkpt lat="43.68214" lon="3.74249">
        <ele>134.1</ele>
        <time>2017-05-21T06:59:08Z</time>
      </trkpt>
      <trkpt lat="43.68218" lon="3.7425">
        <ele>134</ele>
        <time>2017-05-21T06:59:09Z</time>
      </trkpt>
      <trkpt lat="43.68222" lon="3.7425">
        <ele>133.8</ele>
        <time>2017-05-21T06:59:10Z</time>
      </trkpt>
      <trkpt lat="43.68227" lon="3.74249">
        <ele>133.6</ele>
        <time>2017-05-21T06:59:11Z</time>
      </trkpt>
      <trkpt lat="43.68233" lon="3.74248">
        <ele>133</ele>
        <time>2017-05-21T06:59:12Z</time>
      </trkpt>
      <trkpt lat="43.68237" lon="3.74247">
        <ele>131.7</ele>
        <time>2017-05-21T06:59:13Z</time>
      </trkpt>
      <trkpt lat="43.68242" lon="3.74247">
        <ele>131.4</ele>
        <time>2017-05-21T06:59:14Z</time>
      </trkpt>
      <trkpt lat="43.68248" lon="3.74247">
        <ele>130.8</ele>
        <time>2017-05-21T06:59:15Z</time>
      </trkpt>
      <trkpt lat="43.68253" lon="3.74248">
        <ele>130.6</ele>
        <time>2017-05-21T06:59:16Z</time>
      </trkpt>
      <trkpt lat="43.68258" lon="3.7425">
        <ele>130.4</ele>
        <time>2017-05-21T06:59:17Z</time>
      </trkpt>
      <trkpt lat="43.68262" lon="3.74251">
        <ele>129.9</ele>
        <time>2017-05-21T06:59:18Z</time>
      </trkpt>
      <trkpt lat="43.68266" lon="3.74253">
        <ele>130</ele>
        <time>2017-05-21T06:59:19Z</time>
      </trkpt>
      <trkpt lat="43.6827" lon="3.74253">
        <ele>129.9</ele>
        <time>2017-05-21T06:59:20Z</time>
      </trkpt>
      <trkpt lat="43.68275" lon="3.74256">
        <ele>129.5</ele>
        <time>2017-05-21T06:59:22Z</time>
      </trkpt>
      <trkpt lat="43.68278" lon="3.74256">
        <ele>129.3</ele>
        <time>2017-05-21T06:59:23Z</time>
      </trkpt>
      <trkpt lat="43.68282" lon="3.74256">
        <ele>129.2</ele>
        <time>2017-05-21T06:59:24Z</time>
      </trkpt>
      <trkpt lat="43.68285" lon="3.74253">
        <ele>129</ele>
        <time>2017-05-21T06:59:25Z</time>
      </trkpt>
      <trkpt lat="43.68288" lon="3.74249">
        <ele>128.6</ele>
        <time>2017-05-21T06:59:26Z</time>
      </trkpt>
      <trkpt lat="43.68291" lon="3.74244">
        <ele>128.3</ele>
        <time>2017-05-21T06:59:27Z</time>
      </trkpt>
      <trkpt lat="43.68293" lon="3.74238">
        <ele>128</ele>
        <time>2017-05-21T06:59:28Z</time>
      </trkpt>
      <trkpt lat="43.68294" lon="3.74232">
        <ele>128</ele>
        <time>2017-05-21T06:59:29Z</time>
      </trkpt>
      <trkpt lat="43.68295" lon="3.74226">
        <ele>128.1</ele>
        <time>2017-05-21T06:59:30Z</time>
      </trkpt>
      <trkpt lat="43.68297" lon="3.7422">
        <ele>128.4</ele>
        <time>2017-05-21T06:59:31Z</time>
      </trkpt>
      <trkpt lat="43.68299" lon="3.74215">
        <ele>128.7</ele>
        <time>2017-05-21T06:59:32Z</time>
      </trkpt>
      <trkpt lat="43.683" lon="3.7421">
        <ele>128.9</ele>
        <time>2017-05-21T06:59:33Z</time>
      </trkpt>
      <trkpt lat="43.68301" lon="3.74206">
        <ele>129.1</ele>
        <time>2017-05-21T06:59:34Z</time>
      </trkpt>
      <trkpt lat="43.68303" lon="3.742">
        <ele>129.5</ele>
        <time>2017-05-21T06:59:35Z</time>
      </trkpt>
      <trkpt lat="43.68305" lon="3.74194">
        <ele>129.6</ele>
        <time>2017-05-21T06:59:36Z</time>
      </trkpt>
      <trkpt lat="43.68308" lon="3.74187">
        <ele>129.7</ele>
        <time>2017-05-21T06:59:37Z</time>
      </trkpt>
      <trkpt lat="43.6831" lon="3.74181">
        <ele>129.6</ele>
        <time>2017-05-21T06:59:38Z</time>
      </trkpt>
      <trkpt lat="43.68312" lon="3.74175">
        <ele>129.4</ele>
        <time>2017-05-21T06:59:39Z</time>
      </trkpt>
      <trkpt lat="43.68315" lon="3.74169">
        <ele>129</ele>
        <time>2017-05-21T06:59:40Z</time>
      </trkpt>
      <trkpt lat="43.68316" lon="3.74165">
        <ele>129</ele>
        <time>2017-05-21T06:59:41Z</time>
      </trkpt>
      <trkpt lat="43.68319" lon="3.74159">
        <ele>129</ele>
        <time>2017-05-21T06:59:43Z</time>
      </trkpt>
      <trkpt lat="43.68322" lon="3.74155">
        <ele>129</ele>
        <time>2017-05-21T06:59:45Z</time>
      </trkpt>
      <trkpt lat="43.68326" lon="3.74153">
        <ele>129</ele>
        <time>2017-05-21T06:59:47Z</time>
      </trkpt>
      <trkpt lat="43.6833" lon="3.74154">
        <ele>129</ele>
        <time>2017-05-21T06:59:49Z</time>
      </trkpt>
      <trkpt lat="43.68332" lon="3.74156">
        <ele>129</ele>
        <time>2017-05-21T06:59:51Z</time>
      </trkpt>
      <trkpt lat="43.68335" lon="3.74157">
        <ele>129</ele>
        <time>2017-05-21T06:59:53Z</time>
      </trkpt>
      <trkpt lat="43.6834" lon="3.74159">
        <ele>129</ele>
        <time>2017-05-21T06:59:56Z</time>
      </trkpt>
      <trkpt lat="43.68339" lon="3.74155">
        <ele>129</ele>
        <time>2017-05-21T07:00:05Z</time>
      </trkpt>
      <trkpt lat="43.6834" lon="3.74159">
        <ele>129</ele>
        <time>2017-05-21T07:00:10Z</time>
      </trkpt>
      <trkpt lat="43.68344" lon="3.74153">
        <ele>129</ele>
        <time>2017-05-21T07:00:35Z</time>
      </trkpt>
      <trkpt lat="43.68343" lon="3.74157">
        <ele>129</ele>
        <time>2017-05-21T07:00:55Z</time>
      </trkpt>
      <trkpt lat="43.68347" lon="3.74156">
        <ele>129</ele>
        <time>2017-05-21T07:01:04Z</time>
      </trkpt>
      <trkpt lat="43.68343" lon="3.74158">
        <ele>129</ele>
        <time>2017-05-21T07:01:51Z</time>
      </trkpt>
      <trkpt lat="43.6834" lon="3.74161">
        <ele>129</ele>
        <time>2017-05-21T07:01:54Z</time>
      </trkpt>
      <trkpt lat="43.68339" lon="3.74158">
        <ele>129</ele>
        <time>2017-05-21T07:02:00Z</time>
      </trkpt>
      <trkpt lat="43.68336" lon="3.74157">
        <ele>129</ele>
        <time>2017-05-21T07:02:09Z</time>
      </trkpt>
      <trkpt lat="43.68333" lon="3.74153">
        <ele>129</ele>
        <time>2017-05-21T07:03:40Z</time>
      </trkpt>
      <trkpt lat="43.6833" lon="3.74151">
        <ele>129</ele>
        <time>2017-05-21T07:03:42Z</time>
      </trkpt>
      <trkpt lat="43.68327" lon="3.74146">
        <ele>129</ele>
        <time>2017-05-21T07:03:44Z</time>
      </trkpt>
      <trkpt lat="43.68326" lon="3.7414">
        <ele>129</ele>
        <time>2017-05-21T07:03:46Z</time>
      </trkpt>
      <trkpt lat="43.68329" lon="3.74136">
        <ele>129</ele>
        <time>2017-05-21T07:03:48Z</time>
      </trkpt>
      <trkpt lat="43.68335" lon="3.74138">
        <ele>129</ele>
        <time>2017-05-21T07:03:50Z</time>
      </trkpt>
      <trkpt lat="43.68338" lon="3.7414">
        <ele>129</ele>
        <time>2017-05-21T07:03:51Z</time>
      </trkpt>
      <trkpt lat="43.68342" lon="3.74142">
        <ele>129</ele>
        <time>2017-05-21T07:03:52Z</time>
      </trkpt>
      <trkpt lat="43.68346" lon="3.74144">
        <ele>129</ele>
        <time>2017-05-21T07:03:53Z</time>
      </trkpt>
      <trkpt lat="43.68349" lon="3.74145">
        <ele>129</ele>
        <time>2017-05-21T07:03:54Z</time>
      </trkpt>
      <trkpt lat="43.68353" lon="3.74147">
        <ele>129</ele>
        <time>2017-05-21T07:03:55Z</time>
      </trkpt>
      <trkpt lat="43.68357" lon="3.74148">
        <ele>129</ele>
        <time>2017-05-21T07:03:56Z</time>
      </trkpt>
      <trkpt lat="43.6836" lon="3.7415">
        <ele>129</ele>
        <time>2017-05-21T07:03:57Z</time>
      </trkpt>
      <trkpt lat="43.68364" lon="3.7415">
        <ele>129</ele>
        <time>2017-05-21T07:03:58Z</time>
      </trkpt>
      <trkpt lat="43.68367" lon="3.74152">
        <ele>129</ele>
        <time>2017-05-21T07:03:59Z</time>
      </trkpt>
      <trkpt lat="43.6837" lon="3.74153">
        <ele>129</ele>
        <time>2017-05-21T07:04:00Z</time>
      </trkpt>
      <trkpt lat="43.68372" lon="3.74156">
        <ele>129.1</ele>
        <time>2017-05-21T07:04:01Z</time>
      </trkpt>
      <trkpt lat="43.68375" lon="3.74159">
        <ele>129.2</ele>
        <time>2017-05-21T07:04:02Z</time>
      </trkpt>
      <trkpt lat="43.68377" lon="3.74163">
        <ele>129.3</ele>
        <time>2017-05-21T07:04:03Z</time>
      </trkpt>
      <trkpt lat="43.68379" lon="3.74167">
        <ele>129.4</ele>
        <time>2017-05-21T07:04:04Z</time>
      </trkpt>
      <trkpt lat="43.6838" lon="3.74171">
        <ele>129.4</ele>
        <time>2017-05-21T07:04:05Z</time>
      </trkpt>
      <trkpt lat="43.68381" lon="3.74178">
        <ele>129.5</ele>
        <time>2017-05-21T07:04:07Z</time>
      </trkpt>
      <trkpt lat="43.68381" lon="3.74184">
        <ele>129.7</ele>
        <time>2017-05-21T07:04:09Z</time>
      </trkpt>
      <trkpt lat="43.68381" lon="3.7419">
        <ele>129.8</ele>
        <time>2017-05-21T07:04:11Z</time>
      </trkpt>
      <trkpt lat="43.68381" lon="3.74196">
        <ele>129.9</ele>
        <time>2017-05-21T07:04:13Z</time>
      </trkpt>
      <trkpt lat="43.6838" lon="3.74201">
        <ele>130</ele>
        <time>2017-05-21T07:04:16Z</time>
      </trkpt>
      <trkpt lat="43.6838" lon="3.74206">
        <ele>130.1</ele>
        <time>2017-05-21T07:04:18Z</time>
      </trkpt>
      <trkpt lat="43.68381" lon="3.74212">
        <ele>130.3</ele>
        <time>2017-05-21T07:04:20Z</time>
      </trkpt>
      <trkpt lat="43.68382" lon="3.74216">
        <ele>130.4</ele>
        <time>2017-05-21T07:04:21Z</time>
      </trkpt>
      <trkpt lat="43.68382" lon="3.74223">
        <ele>130.5</ele>
        <time>2017-05-21T07:04:23Z</time>
      </trkpt>
      <trkpt lat="43.68384" lon="3.7423">
        <ele>130.7</ele>
        <time>2017-05-21T07:04:25Z</time>
      </trkpt>
      <trkpt lat="43.68384" lon="3.74237">
        <ele>130.8</ele>
        <time>2017-05-21T07:04:27Z</time>
      </trkpt>
      <trkpt lat="43.68385" lon="3.74244">
        <ele>130.9</ele>
        <time>2017-05-21T07:04:29Z</time>
      </trkpt>
      <trkpt lat="43.68386" lon="3.7425">
        <ele>131.1</ele>
        <time>2017-05-21T07:04:31Z</time>
      </trkpt>
      <trkpt lat="43.68386" lon="3.74257">
        <ele>131.2</ele>
        <time>2017-05-21T07:04:33Z</time>
      </trkpt>
      <trkpt lat="43.68387" lon="3.74263">
        <ele>131.4</ele>
        <time>2017-05-21T07:04:35Z</time>
      </trkpt>
      <trkpt lat="43.68387" lon="3.7427">
        <ele>131.7</ele>
        <time>2017-05-21T07:04:37Z</time>
      </trkpt>
      <trkpt lat="43.68387" lon="3.74277">
        <ele>131.9</ele>
        <time>2017-05-21T07:04:39Z</time>
      </trkpt>
      <trkpt lat="43.68387" lon="3.74284">
        <ele>132.1</ele>
        <time>2017-05-21T07:04:41Z</time>
      </trkpt>
      <trkpt lat="43.68387" lon="3.74291">
        <ele>132.3</ele>
        <time>2017-05-21T07:04:43Z</time>
      </trkpt>
      <trkpt lat="43.68387" lon="3.74298">
        <ele>132.5</ele>
        <time>2017-05-21T07:04:45Z</time>
      </trkpt>
      <trkpt lat="43.68387" lon="3.74302">
        <ele>132.6</ele>
        <time>2017-05-21T07:04:46Z</time>
      </trkpt>
      <trkpt lat="43.68387" lon="3.74309">
        <ele>132.7</ele>
        <time>2017-05-21T07:04:48Z</time>
      </trkpt>
      <trkpt lat="43.68388" lon="3.74313">
        <ele>132.8</ele>
        <time>2017-05-21T07:04:49Z</time>
      </trkpt>
      <trkpt lat="43.68388" lon="3.7432">
        <ele>133.1</ele>
        <time>2017-05-21T07:04:51Z</time>
      </trkpt>
      <trkpt lat="43.68388" lon="3.74327">
        <ele>133.5</ele>
        <time>2017-05-21T07:04:53Z</time>
      </trkpt>
      <trkpt lat="43.68389" lon="3.74333">
        <ele>133.7</ele>
        <time>2017-05-21T07:04:55Z</time>
      </trkpt>
      <trkpt lat="43.6839" lon="3.74339">
        <ele>133.8</ele>
        <time>2017-05-21T07:04:57Z</time>
      </trkpt>
      <trkpt lat="43.68391" lon="3.74344">
        <ele>133.9</ele>
        <time>2017-05-21T07:04:59Z</time>
      </trkpt>
      <trkpt lat="43.68393" lon="3.74348">
        <ele>134</ele>
        <time>2017-05-21T07:05:01Z</time>
      </trkpt>
      <trkpt lat="43.68395" lon="3.74353">
        <ele>134.1</ele>
        <time>2017-05-21T07:05:03Z</time>
      </trkpt>
      <trkpt lat="43.68397" lon="3.74357">
        <ele>134.2</ele>
        <time>2017-05-21T07:05:04Z</time>
      </trkpt>
      <trkpt lat="43.68398" lon="3.74361">
        <ele>134.3</ele>
        <time>2017-05-21T07:05:05Z</time>
      </trkpt>
      <trkpt lat="43.68399" lon="3.74368">
        <ele>134.5</ele>
        <time>2017-05-21T07:05:07Z</time>
      </trkpt>
      <trkpt lat="43.68401" lon="3.74374">
        <ele>134.6</ele>
        <time>2017-05-21T07:05:09Z</time>
      </trkpt>
      <trkpt lat="43.68403" lon="3.74379">
        <ele>134.9</ele>
        <time>2017-05-21T07:05:11Z</time>
      </trkpt>
      <trkpt lat="43.68405" lon="3.74386">
        <ele>135.3</ele>
        <time>2017-05-21T07:05:13Z</time>
      </trkpt>
      <trkpt lat="43.68406" lon="3.7439">
        <ele>135.5</ele>
        <time>2017-05-21T07:05:14Z</time>
      </trkpt>
      <trkpt lat="43.68407" lon="3.74394">
        <ele>135.8</ele>
        <time>2017-05-21T07:05:15Z</time>
      </trkpt>
      <trkpt lat="43.68409" lon="3.74399">
        <ele>136</ele>
        <time>2017-05-21T07:05:16Z</time>
      </trkpt>
      <trkpt lat="43.68411" lon="3.74405">
        <ele>136.2</ele>
        <time>2017-05-21T07:05:17Z</time>
      </trkpt>
      <trkpt lat="43.68412" lon="3.7441">
        <ele>136.4</ele>
        <time>2017-05-21T07:05:18Z</time>
      </trkpt>
      <trkpt lat="43.68415" lon="3.74417">
        <ele>136.6</ele>
        <time>2017-05-21T07:05:19Z</time>
      </trkpt>
      <trkpt lat="43.68417" lon="3.74423">
        <ele>136.9</ele>
        <time>2017-05-21T07:05:20Z</time>
      </trkpt>
      <trkpt lat="43.68421" lon="3.74428">
        <ele>137</ele>
        <time>2017-05-21T07:05:21Z</time>
      </trkpt>
      <trkpt lat="43.68424" lon="3.74433">
        <ele>137.1</ele>
        <time>2017-05-21T07:05:22Z</time>
      </trkpt>
      <trkpt lat="43.68428" lon="3.74437">
        <ele>137.2</ele>
        <time>2017-05-21T07:05:23Z</time>
      </trkpt>
      <trkpt lat="43.68433" lon="3.74441">
        <ele>137.2</ele>
        <time>2017-05-21T07:05:24Z</time>
      </trkpt>
      <trkpt lat="43.68436" lon="3.74443">
        <ele>137.3</ele>
        <time>2017-05-21T07:05:25Z</time>
      </trkpt>
      <trkpt lat="43.6844" lon="3.74447">
        <ele>137.3</ele>
        <time>2017-05-21T07:05:26Z</time>
      </trkpt>
      <trkpt lat="43.68443" lon="3.74449">
        <ele>137.4</ele>
        <time>2017-05-21T07:05:27Z</time>
      </trkpt>
      <trkpt lat="43.68446" lon="3.74451">
        <ele>137.4</ele>
        <time>2017-05-21T07:05:28Z</time>
      </trkpt>
      <trkpt lat="43.68448" lon="3.74454">
        <ele>137.4</ele>
        <time>2017-05-21T07:05:29Z</time>
      </trkpt>
      <trkpt lat="43.68451" lon="3.74457">
        <ele>137.5</ele>
        <time>2017-05-21T07:05:30Z</time>
      </trkpt>
      <trkpt lat="43.68452" lon="3.7446">
        <ele>137.5</ele>
        <time>2017-05-21T07:05:31Z</time>
      </trkpt>
      <trkpt lat="43.68455" lon="3.74463">
        <ele>137.6</ele>
        <time>2017-05-21T07:05:32Z</time>
      </trkpt>
      <trkpt lat="43.68457" lon="3.74466">
        <ele>137.7</ele>
        <time>2017-05-21T07:05:33Z</time>
      </trkpt>
      <trkpt lat="43.68459" lon="3.74469">
        <ele>137.8</ele>
        <time>2017-05-21T07:05:34Z</time>
      </trkpt>
      <trkpt lat="43.6846" lon="3.74473">
        <ele>138</ele>
        <time>2017-05-21T07:05:35Z</time>
      </trkpt>
      <trkpt lat="43.68461" lon="3.74476">
        <ele>138.1</ele>
        <time>2017-05-21T07:05:36Z</time>
      </trkpt>
      <trkpt lat="43.68464" lon="3.74483">
        <ele>138.3</ele>
        <time>2017-05-21T07:05:38Z</time>
      </trkpt>
      <trkpt lat="43.68466" lon="3.74487">
        <ele>138.4</ele>
        <time>2017-05-21T07:05:39Z</time>
      </trkpt>
      <trkpt lat="43.68467" lon="3.7449">
        <ele>138.5</ele>
        <time>2017-05-21T07:05:40Z</time>
      </trkpt>
      <trkpt lat="43.6847" lon="3.74497">
        <ele>138.9</ele>
        <time>2017-05-21T07:05:42Z</time>
      </trkpt>
      <trkpt lat="43.68472" lon="3.74502">
        <ele>139.2</ele>
        <time>2017-05-21T07:05:43Z</time>
      </trkpt>
      <trkpt lat="43.68474" lon="3.74505">
        <ele>139.4</ele>
        <time>2017-05-21T07:05:44Z</time>
      </trkpt>
      <trkpt lat="43.68475" lon="3.74509">
        <ele>139.6</ele>
        <time>2017-05-21T07:05:45Z</time>
      </trkpt>
      <trkpt lat="43.68478" lon="3.74514">
        <ele>139.8</ele>
        <time>2017-05-21T07:05:47Z</time>
      </trkpt>
      <trkpt lat="43.6848" lon="3.74521">
        <ele>140</ele>
        <time>2017-05-21T07:05:49Z</time>
      </trkpt>
      <trkpt lat="43.68482" lon="3.74527">
        <ele>140.4</ele>
        <time>2017-05-21T07:05:51Z</time>
      </trkpt>
      <trkpt lat="43.68484" lon="3.7453">
        <ele>140.6</ele>
        <time>2017-05-21T07:05:52Z</time>
      </trkpt>
      <trkpt lat="43.68487" lon="3.74534">
        <ele>141</ele>
        <time>2017-05-21T07:05:54Z</time>
      </trkpt>
      <trkpt lat="43.68488" lon="3.74537">
        <ele>141.2</ele>
        <time>2017-05-21T07:05:55Z</time>
      </trkpt>
      <trkpt lat="43.6849" lon="3.74543">
        <ele>141.6</ele>
        <time>2017-05-21T07:05:57Z</time>
      </trkpt>
      <trkpt lat="43.68492" lon="3.74549">
        <ele>142</ele>
        <time>2017-05-21T07:05:59Z</time>
      </trkpt>
      <trkpt lat="43.68493" lon="3.74552">
        <ele>142.3</ele>
        <time>2017-05-21T07:06:00Z</time>
      </trkpt>
      <trkpt lat="43.68496" lon="3.74559">
        <ele>142.9</ele>
        <time>2017-05-21T07:06:02Z</time>
      </trkpt>
      <trkpt lat="43.68497" lon="3.74565">
        <ele>143.4</ele>
        <time>2017-05-21T07:06:04Z</time>
      </trkpt>
      <trkpt lat="43.685" lon="3.74569">
        <ele>143.7</ele>
        <time>2017-05-21T07:06:06Z</time>
      </trkpt>
      <trkpt lat="43.68502" lon="3.74575">
        <ele>144.1</ele>
        <time>2017-05-21T07:06:08Z</time>
      </trkpt>
      <trkpt lat="43.68505" lon="3.7458">
        <ele>144.7</ele>
        <time>2017-05-21T07:06:10Z</time>
      </trkpt>
      <trkpt lat="43.68507" lon="3.74585">
        <ele>145.4</ele>
        <time>2017-05-21T07:06:12Z</time>
      </trkpt>
      <trkpt lat="43.68509" lon="3.7459">
        <ele>145.7</ele>
        <time>2017-05-21T07:06:14Z</time>
      </trkpt>
      <trkpt lat="43.68511" lon="3.74595">
        <ele>146.1</ele>
        <time>2017-05-21T07:06:16Z</time>
      </trkpt>
      <trkpt lat="43.68513" lon="3.74599">
        <ele>146.4</ele>
        <time>2017-05-21T07:06:18Z</time>
      </trkpt>
      <trkpt lat="43.68513" lon="3.74604">
        <ele>146.7</ele>
        <time>2017-05-21T07:06:20Z</time>
      </trkpt>
      <trkpt lat="43.68514" lon="3.74609">
        <ele>147.1</ele>
        <time>2017-05-21T07:06:22Z</time>
      </trkpt>
      <trkpt lat="43.68517" lon="3.74614">
        <ele>147.5</ele>
        <time>2017-05-21T07:06:24Z</time>
      </trkpt>
      <trkpt lat="43.68518" lon="3.74619">
        <ele>147.8</ele>
        <time>2017-05-21T07:06:26Z</time>
      </trkpt>
      <trkpt lat="43.68519" lon="3.74623">
        <ele>148.1</ele>
        <time>2017-05-21T07:06:28Z</time>
      </trkpt>
      <trkpt lat="43.68521" lon="3.74627">
        <ele>148.4</ele>
        <time>2017-05-21T07:06:30Z</time>
      </trkpt>
      <trkpt lat="43.68525" lon="3.74631">
        <ele>148.8</ele>
        <time>2017-05-21T07:06:32Z</time>
      </trkpt>
      <trkpt lat="43.68527" lon="3.74634">
        <ele>148.9</ele>
        <time>2017-05-21T07:06:33Z</time>
      </trkpt>
      <trkpt lat="43.68529" lon="3.74637">
        <ele>149.1</ele>
        <time>2017-05-21T07:06:35Z</time>
      </trkpt>
      <trkpt lat="43.68531" lon="3.74641">
        <ele>149.2</ele>
        <time>2017-05-21T07:06:37Z</time>
      </trkpt>
      <trkpt lat="43.68533" lon="3.74645">
        <ele>149.4</ele>
        <time>2017-05-21T07:06:39Z</time>
      </trkpt>
      <trkpt lat="43.68534" lon="3.7465">
        <ele>149.6</ele>
        <time>2017-05-21T07:06:41Z</time>
      </trkpt>
      <trkpt lat="43.68537" lon="3.74659">
        <ele>150</ele>
        <time>2017-05-21T07:06:43Z</time>
      </trkpt>
      <trkpt lat="43.6854" lon="3.74664">
        <ele>150.2</ele>
        <time>2017-05-21T07:06:45Z</time>
      </trkpt>
      <trkpt lat="43.68543" lon="3.74669">
        <ele>150.5</ele>
        <time>2017-05-21T07:06:47Z</time>
      </trkpt>
      <trkpt lat="43.68546" lon="3.74675">
        <ele>150.8</ele>
        <time>2017-05-21T07:06:49Z</time>
      </trkpt>
      <trkpt lat="43.68548" lon="3.74678">
        <ele>150.9</ele>
        <time>2017-05-21T07:06:50Z</time>
      </trkpt>
      <trkpt lat="43.68553" lon="3.74681">
        <ele>151</ele>
        <time>2017-05-21T07:06:52Z</time>
      </trkpt>
      <trkpt lat="43.68558" lon="3.74681">
        <ele>151.3</ele>
        <time>2017-05-21T07:06:54Z</time>
      </trkpt>
      <trkpt lat="43.68563" lon="3.74681">
        <ele>151.7</ele>
        <time>2017-05-21T07:06:56Z</time>
      </trkpt>
      <trkpt lat="43.68567" lon="3.74678">
        <ele>152</ele>
        <time>2017-05-21T07:06:58Z</time>
      </trkpt>
      <trkpt lat="43.68571" lon="3.74677">
        <ele>152.4</ele>
        <time>2017-05-21T07:07:00Z</time>
      </trkpt>
      <trkpt lat="43.68576" lon="3.74676">
        <ele>152.7</ele>
        <time>2017-05-21T07:07:02Z</time>
      </trkpt>
      <trkpt lat="43.68581" lon="3.74676">
        <ele>153</ele>
        <time>2017-05-21T07:07:04Z</time>
      </trkpt>
      <trkpt lat="43.68585" lon="3.74676">
        <ele>153.3</ele>
        <time>2017-05-21T07:07:06Z</time>
      </trkpt>
      <trkpt lat="43.6859" lon="3.74676">
        <ele>153.6</ele>
        <time>2017-05-21T07:07:08Z</time>
      </trkpt>
      <trkpt lat="43.68593" lon="3.74676">
        <ele>153.9</ele>
        <time>2017-05-21T07:07:10Z</time>
      </trkpt>
      <trkpt lat="43.68597" lon="3.74678">
        <ele>154.2</ele>
        <time>2017-05-21T07:07:12Z</time>
      </trkpt>
      <trkpt lat="43.68601" lon="3.74678">
        <ele>154.4</ele>
        <time>2017-05-21T07:07:13Z</time>
      </trkpt>
      <trkpt lat="43.68605" lon="3.7468">
        <ele>154.7</ele>
        <time>2017-05-21T07:07:15Z</time>
      </trkpt>
      <trkpt lat="43.68609" lon="3.74681">
        <ele>155</ele>
        <time>2017-05-21T07:07:17Z</time>
      </trkpt>
      <trkpt lat="43.68615" lon="3.74683">
        <ele>155.3</ele>
        <time>2017-05-21T07:07:19Z</time>
      </trkpt>
      <trkpt lat="43.68619" lon="3.74684">
        <ele>155.7</ele>
        <time>2017-05-21T07:07:21Z</time>
      </trkpt>
      <trkpt lat="43.68623" lon="3.74686">
        <ele>156</ele>
        <time>2017-05-21T07:07:23Z</time>
      </trkpt>
      <trkpt lat="43.68626" lon="3.74687">
        <ele>156.1</ele>
        <time>2017-05-21T07:07:24Z</time>
      </trkpt>
      <trkpt lat="43.6863" lon="3.74688">
        <ele>156.5</ele>
        <time>2017-05-21T07:07:26Z</time>
      </trkpt>
      <trkpt lat="43.68634" lon="3.74691">
        <ele>156.7</ele>
        <time>2017-05-21T07:07:28Z</time>
      </trkpt>
      <trkpt lat="43.68636" lon="3.74692">
        <ele>156.9</ele>
        <time>2017-05-21T07:07:29Z</time>
      </trkpt>
      <trkpt lat="43.68641" lon="3.74694">
        <ele>157.2</ele>
        <time>2017-05-21T07:07:31Z</time>
      </trkpt>
      <trkpt lat="43.68645" lon="3.74696">
        <ele>157.5</ele>
        <time>2017-05-21T07:07:33Z</time>
      </trkpt>
      <trkpt lat="43.68649" lon="3.74698">
        <ele>157.8</ele>
        <time>2017-05-21T07:07:35Z</time>
      </trkpt>
      <trkpt lat="43.68653" lon="3.74699">
        <ele>158.1</ele>
        <time>2017-05-21T07:07:37Z</time>
      </trkpt>
      <trkpt lat="43.68658" lon="3.74702">
        <ele>158.5</ele>
        <time>2017-05-21T07:07:39Z</time>
      </trkpt>
      <trkpt lat="43.68663" lon="3.74703">
        <ele>158.8</ele>
        <time>2017-05-21T07:07:41Z</time>
      </trkpt>
      <trkpt lat="43.68667" lon="3.74704">
        <ele>159.1</ele>
        <time>2017-05-21T07:07:43Z</time>
      </trkpt>
      <trkpt lat="43.68671" lon="3.74705">
        <ele>159.4</ele>
        <time>2017-05-21T07:07:45Z</time>
      </trkpt>
      <trkpt lat="43.68674" lon="3.74707">
        <ele>159.6</ele>
        <time>2017-05-21T07:07:46Z</time>
      </trkpt>
      <trkpt lat="43.68678" lon="3.74709">
        <ele>160</ele>
        <time>2017-05-21T07:07:48Z</time>
      </trkpt>
      <trkpt lat="43.68683" lon="3.7471">
        <ele>160.4</ele>
        <time>2017-05-21T07:07:50Z</time>
      </trkpt>
      <trkpt lat="43.68687" lon="3.74712">
        <ele>160.7</ele>
        <time>2017-05-21T07:07:52Z</time>
      </trkpt>
      <trkpt lat="43.68691" lon="3.74714">
        <ele>161</ele>
        <time>2017-05-21T07:07:54Z</time>
      </trkpt>
      <trkpt lat="43.68696" lon="3.74715">
        <ele>161</ele>
        <time>2017-05-21T07:07:56Z</time>
      </trkpt>
      <trkpt lat="43.68699" lon="3.74716">
        <ele>161</ele>
        <time>2017-05-21T07:07:58Z</time>
      </trkpt>
      <trkpt lat="43.68701" lon="3.74719">
        <ele>160.1</ele>
        <time>2017-05-21T07:08:00Z</time>
      </trkpt>
      <trkpt lat="43.68702" lon="3.74724">
        <ele>159.5</ele>
        <time>2017-05-21T07:08:02Z</time>
      </trkpt>
      <trkpt lat="43.687" lon="3.74727">
        <ele>159</ele>
        <time>2017-05-21T07:08:04Z</time>
      </trkpt>
      <trkpt lat="43.68697" lon="3.74734">
        <ele>158.3</ele>
        <time>2017-05-21T07:08:06Z</time>
      </trkpt>
      <trkpt lat="43.68695" lon="3.74739">
        <ele>157.6</ele>
        <time>2017-05-21T07:08:07Z</time>
      </trkpt>
      <trkpt lat="43.68693" lon="3.74745">
        <ele>156.8</ele>
        <time>2017-05-21T07:08:08Z</time>
      </trkpt>
      <trkpt lat="43.68691" lon="3.74751">
        <ele>156.3</ele>
        <time>2017-05-21T07:08:09Z</time>
      </trkpt>
      <trkpt lat="43.68688" lon="3.74757">
        <ele>155.8</ele>
        <time>2017-05-21T07:08:10Z</time>
      </trkpt>
      <trkpt lat="43.68685" lon="3.74764">
        <ele>155.4</ele>
        <time>2017-05-21T07:08:11Z</time>
      </trkpt>
      <trkpt lat="43.68683" lon="3.7477">
        <ele>155.4</ele>
        <time>2017-05-21T07:08:12Z</time>
      </trkpt>
      <trkpt lat="43.6868" lon="3.74777">
        <ele>155.5</ele>
        <time>2017-05-21T07:08:13Z</time>
      </trkpt>
      <trkpt lat="43.68679" lon="3.74783">
        <ele>155.6</ele>
        <time>2017-05-21T07:08:14Z</time>
      </trkpt>
      <trkpt lat="43.68677" lon="3.74788">
        <ele>155.8</ele>
        <time>2017-05-21T07:08:15Z</time>
      </trkpt>
      <trkpt lat="43.68674" lon="3.74794">
        <ele>156.2</ele>
        <time>2017-05-21T07:08:16Z</time>
      </trkpt>
      <trkpt lat="43.68671" lon="3.748">
        <ele>156.5</ele>
        <time>2017-05-21T07:08:17Z</time>
      </trkpt>
      <trkpt lat="43.68667" lon="3.74806">
        <ele>156.9</ele>
        <time>2017-05-21T07:08:18Z</time>
      </trkpt>
      <trkpt lat="43.68664" lon="3.74812">
        <ele>157.1</ele>
        <time>2017-05-21T07:08:19Z</time>
      </trkpt>
      <trkpt lat="43.68659" lon="3.74819">
        <ele>157.1</ele>
        <time>2017-05-21T07:08:20Z</time>
      </trkpt>
      <trkpt lat="43.68656" lon="3.74824">
        <ele>157.2</ele>
        <time>2017-05-21T07:08:21Z</time>
      </trkpt>
      <trkpt lat="43.68651" lon="3.7483">
        <ele>157.1</ele>
        <time>2017-05-21T07:08:22Z</time>
      </trkpt>
      <trkpt lat="43.68647" lon="3.74836">
        <ele>157</ele>
        <time>2017-05-21T07:08:23Z</time>
      </trkpt>
      <trkpt lat="43.68642" lon="3.7484">
        <ele>157</ele>
        <time>2017-05-21T07:08:24Z</time>
      </trkpt>
      <trkpt lat="43.68638" lon="3.74846">
        <ele>157</ele>
        <time>2017-05-21T07:08:25Z</time>
      </trkpt>
      <trkpt lat="43.68632" lon="3.7485">
        <ele>156.9</ele>
        <time>2017-05-21T07:08:26Z</time>
      </trkpt>
      <trkpt lat="43.68626" lon="3.74855">
        <ele>156.9</ele>
        <time>2017-05-21T07:08:27Z</time>
      </trkpt>
      <trkpt lat="43.68621" lon="3.7486">
        <ele>157</ele>
        <time>2017-05-21T07:08:28Z</time>
      </trkpt>
      <trkpt lat="43.68614" lon="3.74865">
        <ele>156.8</ele>
        <time>2017-05-21T07:08:29Z</time>
      </trkpt>
      <trkpt lat="43.6861" lon="3.74869">
        <ele>156.6</ele>
        <time>2017-05-21T07:08:30Z</time>
      </trkpt>
      <trkpt lat="43.68607" lon="3.74872">
        <ele>156.4</ele>
        <time>2017-05-21T07:08:31Z</time>
      </trkpt>
      <trkpt lat="43.68603" lon="3.74876">
        <ele>156.2</ele>
        <time>2017-05-21T07:08:32Z</time>
      </trkpt>
      <trkpt lat="43.68599" lon="3.7488">
        <ele>156.4</ele>
        <time>2017-05-21T07:08:33Z</time>
      </trkpt>
      <trkpt lat="43.68596" lon="3.74883">
        <ele>156.5</ele>
        <time>2017-05-21T07:08:34Z</time>
      </trkpt>
      <trkpt lat="43.68594" lon="3.74886">
        <ele>156.7</ele>
        <time>2017-05-21T07:08:35Z</time>
      </trkpt>
      <trkpt lat="43.68592" lon="3.7489">
        <ele>156.9</ele>
        <time>2017-05-21T07:08:36Z</time>
      </trkpt>
      <trkpt lat="43.68591" lon="3.74895">
        <ele>157.1</ele>
        <time>2017-05-21T07:08:37Z</time>
      </trkpt>
      <trkpt lat="43.68591" lon="3.74903">
        <ele>157.8</ele>
        <time>2017-05-21T07:08:39Z</time>
      </trkpt>
      <trkpt lat="43.6859" lon="3.74908">
        <ele>158</ele>
        <time>2017-05-21T07:08:40Z</time>
      </trkpt>
      <trkpt lat="43.68589" lon="3.74913">
        <ele>158</ele>
        <time>2017-05-21T07:08:41Z</time>
      </trkpt>
      <trkpt lat="43.68589" lon="3.74918">
        <ele>158.1</ele>
        <time>2017-05-21T07:08:42Z</time>
      </trkpt>
      <trkpt lat="43.6859" lon="3.74924">
        <ele>158.3</ele>
        <time>2017-05-21T07:08:43Z</time>
      </trkpt>
      <trkpt lat="43.68591" lon="3.74929">
        <ele>158.4</ele>
        <time>2017-05-21T07:08:44Z</time>
      </trkpt>
      <trkpt lat="43.68593" lon="3.74932">
        <ele>158.5</ele>
        <time>2017-05-21T07:08:45Z</time>
      </trkpt>
      <trkpt lat="43.68594" lon="3.74936">
        <ele>158.6</ele>
        <time>2017-05-21T07:08:46Z</time>
      </trkpt>
      <trkpt lat="43.68595" lon="3.7494">
        <ele>158.7</ele>
        <time>2017-05-21T07:08:47Z</time>
      </trkpt>
      <trkpt lat="43.68597" lon="3.74947">
        <ele>158.9</ele>
        <time>2017-05-21T07:08:49Z</time>
      </trkpt>
      <trkpt lat="43.68598" lon="3.74951">
        <ele>159</ele>
        <time>2017-05-21T07:08:50Z</time>
      </trkpt>
      <trkpt lat="43.68601" lon="3.74954">
        <ele>159.2</ele>
        <time>2017-05-21T07:08:51Z</time>
      </trkpt>
      <trkpt lat="43.68604" lon="3.74957">
        <ele>159.3</ele>
        <time>2017-05-21T07:08:52Z</time>
      </trkpt>
      <trkpt lat="43.68606" lon="3.7496">
        <ele>159.5</ele>
        <time>2017-05-21T07:08:53Z</time>
      </trkpt>
      <trkpt lat="43.68608" lon="3.74963">
        <ele>159.7</ele>
        <time>2017-05-21T07:08:54Z</time>
      </trkpt>
      <trkpt lat="43.68611" lon="3.74968">
        <ele>160</ele>
        <time>2017-05-21T07:08:56Z</time>
      </trkpt>
      <trkpt lat="43.68613" lon="3.74971">
        <ele>160.1</ele>
        <time>2017-05-21T07:08:57Z</time>
      </trkpt>
      <trkpt lat="43.68614" lon="3.74974">
        <ele>160.4</ele>
        <time>2017-05-21T07:08:58Z</time>
      </trkpt>
      <trkpt lat="43.68616" lon="3.74977">
        <ele>160.9</ele>
        <time>2017-05-21T07:08:59Z</time>
      </trkpt>
      <trkpt lat="43.68618" lon="3.74981">
        <ele>161.6</ele>
        <time>2017-05-21T07:09:00Z</time>
      </trkpt>
      <trkpt lat="43.68621" lon="3.74988">
        <ele>162.6</ele>
        <time>2017-05-21T07:09:02Z</time>
      </trkpt>
      <trkpt lat="43.68622" lon="3.74991">
        <ele>163</ele>
        <time>2017-05-21T07:09:03Z</time>
      </trkpt>
      <trkpt lat="43.68625" lon="3.74997">
        <ele>163.5</ele>
        <time>2017-05-21T07:09:05Z</time>
      </trkpt>
      <trkpt lat="43.68626" lon="3.75004">
        <ele>163.8</ele>
        <time>2017-05-21T07:09:07Z</time>
      </trkpt>
      <trkpt lat="43.68627" lon="3.7501">
        <ele>164.1</ele>
        <time>2017-05-21T07:09:09Z</time>
      </trkpt>
      <trkpt lat="43.68629" lon="3.75016">
        <ele>164.4</ele>
        <time>2017-05-21T07:09:11Z</time>
      </trkpt>
      <trkpt lat="43.6863" lon="3.75023">
        <ele>164.9</ele>
        <time>2017-05-21T07:09:13Z</time>
      </trkpt>
      <trkpt lat="43.68631" lon="3.75027">
        <ele>165.1</ele>
        <time>2017-05-21T07:09:14Z</time>
      </trkpt>
      <trkpt lat="43.68632" lon="3.75031">
        <ele>165.3</ele>
        <time>2017-05-21T07:09:15Z</time>
      </trkpt>
      <trkpt lat="43.68632" lon="3.75035">
        <ele>165.6</ele>
        <time>2017-05-21T07:09:16Z</time>
      </trkpt>
      <trkpt lat="43.68633" lon="3.75042">
        <ele>166.5</ele>
        <time>2017-05-21T07:09:18Z</time>
      </trkpt>
      <trkpt lat="43.68634" lon="3.75049">
        <ele>167.5</ele>
        <time>2017-05-21T07:09:20Z</time>
      </trkpt>
      <trkpt lat="43.68634" lon="3.75055">
        <ele>168.2</ele>
        <time>2017-05-21T07:09:22Z</time>
      </trkpt>
      <trkpt lat="43.68635" lon="3.7506">
        <ele>168.6</ele>
        <time>2017-05-21T07:09:24Z</time>
      </trkpt>
      <trkpt lat="43.68635" lon="3.75066">
        <ele>169</ele>
        <time>2017-05-21T07:09:26Z</time>
      </trkpt>
      <trkpt lat="43.68635" lon="3.75072">
        <ele>169.3</ele>
        <time>2017-05-21T07:09:28Z</time>
      </trkpt>
      <trkpt lat="43.68634" lon="3.75079">
        <ele>169.7</ele>
        <time>2017-05-21T07:09:30Z</time>
      </trkpt>
      <trkpt lat="43.68632" lon="3.75083">
        <ele>170</ele>
        <time>2017-05-21T07:09:32Z</time>
      </trkpt>
      <trkpt lat="43.68631" lon="3.75089">
        <ele>170.3</ele>
        <time>2017-05-21T07:09:34Z</time>
      </trkpt>
      <trkpt lat="43.68628" lon="3.75093">
        <ele>171.1</ele>
        <time>2017-05-21T07:09:36Z</time>
      </trkpt>
      <trkpt lat="43.68626" lon="3.75099">
        <ele>172.3</ele>
        <time>2017-05-21T07:09:38Z</time>
      </trkpt>
      <trkpt lat="43.68624" lon="3.75104">
        <ele>173.2</ele>
        <time>2017-05-21T07:09:40Z</time>
      </trkpt>
      <trkpt lat="43.68623" lon="3.75109">
        <ele>174.1</ele>
        <time>2017-05-21T07:09:42Z</time>
      </trkpt>
      <trkpt lat="43.68626" lon="3.75113">
        <ele>174.3</ele>
        <time>2017-05-21T07:09:44Z</time>
      </trkpt>
      <trkpt lat="43.68629" lon="3.75115">
        <ele>174.4</ele>
        <time>2017-05-21T07:09:46Z</time>
      </trkpt>
      <trkpt lat="43.68633" lon="3.75116">
        <ele>174.6</ele>
        <time>2017-05-21T07:09:48Z</time>
      </trkpt>
      <trkpt lat="43.68637" lon="3.75116">
        <ele>174.7</ele>
        <time>2017-05-21T07:09:50Z</time>
      </trkpt>
      <trkpt lat="43.68641" lon="3.75116">
        <ele>175</ele>
        <time>2017-05-21T07:09:52Z</time>
      </trkpt>
      <trkpt lat="43.68644" lon="3.75116">
        <ele>175.5</ele>
        <time>2017-05-21T07:09:54Z</time>
      </trkpt>
      <trkpt lat="43.68649" lon="3.75115">
        <ele>176.1</ele>
        <time>2017-05-21T07:09:56Z</time>
      </trkpt>
      <trkpt lat="43.68652" lon="3.75114">
        <ele>176.3</ele>
        <time>2017-05-21T07:09:57Z</time>
      </trkpt>
      <trkpt lat="43.68656" lon="3.75114">
        <ele>176.5</ele>
        <time>2017-05-21T07:09:59Z</time>
      </trkpt>
      <trkpt lat="43.6866" lon="3.75115">
        <ele>176.9</ele>
        <time>2017-05-21T07:10:01Z</time>
      </trkpt>
      <trkpt lat="43.68664" lon="3.75116">
        <ele>177.4</ele>
        <time>2017-05-21T07:10:03Z</time>
      </trkpt>
      <trkpt lat="43.68667" lon="3.75119">
        <ele>177.8</ele>
        <time>2017-05-21T07:10:05Z</time>
      </trkpt>
      <trkpt lat="43.68671" lon="3.75121">
        <ele>178.2</ele>
        <time>2017-05-21T07:10:07Z</time>
      </trkpt>
      <trkpt lat="43.68676" lon="3.75122">
        <ele>178.7</ele>
        <time>2017-05-21T07:10:09Z</time>
      </trkpt>
      <trkpt lat="43.68679" lon="3.75124">
        <ele>179.3</ele>
        <time>2017-05-21T07:10:11Z</time>
      </trkpt>
      <trkpt lat="43.68682" lon="3.75126">
        <ele>179.9</ele>
        <time>2017-05-21T07:10:13Z</time>
      </trkpt>
      <trkpt lat="43.68686" lon="3.75128">
        <ele>180.4</ele>
        <time>2017-05-21T07:10:15Z</time>
      </trkpt>
      <trkpt lat="43.68689" lon="3.7513">
        <ele>181.1</ele>
        <time>2017-05-21T07:10:17Z</time>
      </trkpt>
      <trkpt lat="43.68693" lon="3.75131">
        <ele>181.7</ele>
        <time>2017-05-21T07:10:19Z</time>
      </trkpt>
      <trkpt lat="43.68696" lon="3.75133">
        <ele>182</ele>
        <time>2017-05-21T07:10:21Z</time>
      </trkpt>
      <trkpt lat="43.68699" lon="3.75134">
        <ele>182.2</ele>
        <time>2017-05-21T07:10:23Z</time>
      </trkpt>
      <trkpt lat="43.68702" lon="3.75135">
        <ele>182.4</ele>
        <time>2017-05-21T07:10:25Z</time>
      </trkpt>
      <trkpt lat="43.68706" lon="3.75138">
        <ele>182.7</ele>
        <time>2017-05-21T07:10:27Z</time>
      </trkpt>
      <trkpt lat="43.68709" lon="3.7514">
        <ele>183.1</ele>
        <time>2017-05-21T07:10:29Z</time>
      </trkpt>
      <trkpt lat="43.68713" lon="3.75142">
        <ele>183.5</ele>
        <time>2017-05-21T07:10:31Z</time>
      </trkpt>
      <trkpt lat="43.68718" lon="3.75143">
        <ele>183.6</ele>
        <time>2017-05-21T07:10:33Z</time>
      </trkpt>
      <trkpt lat="43.68721" lon="3.75145">
        <ele>183.6</ele>
        <time>2017-05-21T07:10:35Z</time>
      </trkpt>
      <trkpt lat="43.68724" lon="3.75148">
        <ele>183.6</ele>
        <time>2017-05-21T07:10:37Z</time>
      </trkpt>
      <trkpt lat="43.68728" lon="3.7515">
        <ele>183.7</ele>
        <time>2017-05-21T07:10:40Z</time>
      </trkpt>
      <trkpt lat="43.68732" lon="3.75152">
        <ele>183.7</ele>
        <time>2017-05-21T07:10:42Z</time>
      </trkpt>
      <trkpt lat="43.68735" lon="3.75156">
        <ele>183.8</ele>
        <time>2017-05-21T07:10:44Z</time>
      </trkpt>
      <trkpt lat="43.68738" lon="3.75159">
        <ele>183.8</ele>
        <time>2017-05-21T07:10:45Z</time>
      </trkpt>
      <trkpt lat="43.6874" lon="3.75162">
        <ele>183.8</ele>
        <time>2017-05-21T07:10:46Z</time>
      </trkpt>
      <trkpt lat="43.68744" lon="3.75166">
        <ele>183.8</ele>
        <time>2017-05-21T07:10:47Z</time>
      </trkpt>
      <trkpt lat="43.68747" lon="3.7517">
        <ele>183.8</ele>
        <time>2017-05-21T07:10:48Z</time>
      </trkpt>
      <trkpt lat="43.6875" lon="3.75175">
        <ele>183.8</ele>
        <time>2017-05-21T07:10:49Z</time>
      </trkpt>
      <trkpt lat="43.68752" lon="3.75179">
        <ele>183.9</ele>
        <time>2017-05-21T07:10:50Z</time>
      </trkpt>
      <trkpt lat="43.68754" lon="3.75184">
        <ele>183.9</ele>
        <time>2017-05-21T07:10:51Z</time>
      </trkpt>
      <trkpt lat="43.68756" lon="3.75187">
        <ele>183.9</ele>
        <time>2017-05-21T07:10:52Z</time>
      </trkpt>
      <trkpt lat="43.68758" lon="3.75191">
        <ele>183.9</ele>
        <time>2017-05-21T07:10:53Z</time>
      </trkpt>
      <trkpt lat="43.6876" lon="3.75194">
        <ele>183.9</ele>
        <time>2017-05-21T07:10:54Z</time>
      </trkpt>
      <trkpt lat="43.68762" lon="3.75197">
        <ele>183.9</ele>
        <time>2017-05-21T07:10:55Z</time>
      </trkpt>
      <trkpt lat="43.68765" lon="3.75201">
        <ele>184</ele>
        <time>2017-05-21T07:10:56Z</time>
      </trkpt>
      <trkpt lat="43.68767" lon="3.75204">
        <ele>184</ele>
        <time>2017-05-21T07:10:57Z</time>
      </trkpt>
      <trkpt lat="43.68769" lon="3.75207">
        <ele>184</ele>
        <time>2017-05-21T07:10:58Z</time>
      </trkpt>
      <trkpt lat="43.68771" lon="3.7521">
        <ele>184.1</ele>
        <time>2017-05-21T07:10:59Z</time>
      </trkpt>
      <trkpt lat="43.68773" lon="3.75213">
        <ele>184.1</ele>
        <time>2017-05-21T07:11:00Z</time>
      </trkpt>
      <trkpt lat="43.68775" lon="3.75217">
        <ele>184.2</ele>
        <time>2017-05-21T07:11:01Z</time>
      </trkpt>
      <trkpt lat="43.68777" lon="3.7522">
        <ele>184.2</ele>
        <time>2017-05-21T07:11:02Z</time>
      </trkpt>
      <trkpt lat="43.6878" lon="3.75223">
        <ele>184.3</ele>
        <time>2017-05-21T07:11:03Z</time>
      </trkpt>
      <trkpt lat="43.68781" lon="3.75226">
        <ele>184.4</ele>
        <time>2017-05-21T07:11:04Z</time>
      </trkpt>
      <trkpt lat="43.68785" lon="3.7523">
        <ele>184.5</ele>
        <time>2017-05-21T07:11:06Z</time>
      </trkpt>
      <trkpt lat="43.68787" lon="3.75233">
        <ele>184.6</ele>
        <time>2017-05-21T07:11:07Z</time>
      </trkpt>
      <trkpt lat="43.68791" lon="3.75237">
        <ele>184.9</ele>
        <time>2017-05-21T07:11:09Z</time>
      </trkpt>
      <trkpt lat="43.68795" lon="3.75241">
        <ele>185.3</ele>
        <time>2017-05-21T07:11:11Z</time>
      </trkpt>
      <trkpt lat="43.68799" lon="3.75244">
        <ele>185.7</ele>
        <time>2017-05-21T07:11:13Z</time>
      </trkpt>
      <trkpt lat="43.68803" lon="3.75248">
        <ele>185.8</ele>
        <time>2017-05-21T07:11:15Z</time>
      </trkpt>
      <trkpt lat="43.68807" lon="3.75251">
        <ele>186</ele>
        <time>2017-05-21T07:11:17Z</time>
      </trkpt>
      <trkpt lat="43.6881" lon="3.75254">
        <ele>186.1</ele>
        <time>2017-05-21T07:11:19Z</time>
      </trkpt>
      <trkpt lat="43.68814" lon="3.75256">
        <ele>186.2</ele>
        <time>2017-05-21T07:11:21Z</time>
      </trkpt>
      <trkpt lat="43.68818" lon="3.75259">
        <ele>186.5</ele>
        <time>2017-05-21T07:11:23Z</time>
      </trkpt>
      <trkpt lat="43.68821" lon="3.75261">
        <ele>186.8</ele>
        <time>2017-05-21T07:11:24Z</time>
      </trkpt>
      <trkpt lat="43.68825" lon="3.75263">
        <ele>187.3</ele>
        <time>2017-05-21T07:11:26Z</time>
      </trkpt>
      <trkpt lat="43.68829" lon="3.75266">
        <ele>187.8</ele>
        <time>2017-05-21T07:11:28Z</time>
      </trkpt>
      <trkpt lat="43.68833" lon="3.7527">
        <ele>188.1</ele>
        <time>2017-05-21T07:11:30Z</time>
      </trkpt>
      <trkpt lat="43.68835" lon="3.75273">
        <ele>188.3</ele>
        <time>2017-05-21T07:11:31Z</time>
      </trkpt>
      <trkpt lat="43.68838" lon="3.75276">
        <ele>188.7</ele>
        <time>2017-05-21T07:11:33Z</time>
      </trkpt>
      <trkpt lat="43.68841" lon="3.75278">
        <ele>189.3</ele>
        <time>2017-05-21T07:11:35Z</time>
      </trkpt>
      <trkpt lat="43.68845" lon="3.75282">
        <ele>189.9</ele>
        <time>2017-05-21T07:11:37Z</time>
      </trkpt>
      <trkpt lat="43.68849" lon="3.75287">
        <ele>190.2</ele>
        <time>2017-05-21T07:11:39Z</time>
      </trkpt>
      <trkpt lat="43.68852" lon="3.75291">
        <ele>190.5</ele>
        <time>2017-05-21T07:11:41Z</time>
      </trkpt>
      <trkpt lat="43.68856" lon="3.75294">
        <ele>191.1</ele>
        <time>2017-05-21T07:11:43Z</time>
      </trkpt>
      <trkpt lat="43.68858" lon="3.75299">
        <ele>191.6</ele>
        <time>2017-05-21T07:11:45Z</time>
      </trkpt>
      <trkpt lat="43.68861" lon="3.75303">
        <ele>191.9</ele>
        <time>2017-05-21T07:11:47Z</time>
      </trkpt>
      <trkpt lat="43.68864" lon="3.75307">
        <ele>192.1</ele>
        <time>2017-05-21T07:11:49Z</time>
      </trkpt>
      <trkpt lat="43.68867" lon="3.75312">
        <ele>192.4</ele>
        <time>2017-05-21T07:11:51Z</time>
      </trkpt>
      <trkpt lat="43.6887" lon="3.75316">
        <ele>192.7</ele>
        <time>2017-05-21T07:11:53Z</time>
      </trkpt>
      <trkpt lat="43.68873" lon="3.75321">
        <ele>193.2</ele>
        <time>2017-05-21T07:11:55Z</time>
      </trkpt>
      <trkpt lat="43.68875" lon="3.75325">
        <ele>193.5</ele>
        <time>2017-05-21T07:11:57Z</time>
      </trkpt>
      <trkpt lat="43.68878" lon="3.75329">
        <ele>193.6</ele>
        <time>2017-05-21T07:11:59Z</time>
      </trkpt>
      <trkpt lat="43.68882" lon="3.75335">
        <ele>193.7</ele>
        <time>2017-05-21T07:12:01Z</time>
      </trkpt>
      <trkpt lat="43.68885" lon="3.75338">
        <ele>193.7</ele>
        <time>2017-05-21T07:12:03Z</time>
      </trkpt>
      <trkpt lat="43.68888" lon="3.75341">
        <ele>193.8</ele>
        <time>2017-05-21T07:12:04Z</time>
      </trkpt>
      <trkpt lat="43.68892" lon="3.75344">
        <ele>193.8</ele>
        <time>2017-05-21T07:12:06Z</time>
      </trkpt>
      <trkpt lat="43.68895" lon="3.75345">
        <ele>193.8</ele>
        <time>2017-05-21T07:12:07Z</time>
      </trkpt>
      <trkpt lat="43.68899" lon="3.75347">
        <ele>193.9</ele>
        <time>2017-05-21T07:12:08Z</time>
      </trkpt>
      <trkpt lat="43.68903" lon="3.75347">
        <ele>193.9</ele>
        <time>2017-05-21T07:12:09Z</time>
      </trkpt>
      <trkpt lat="43.68907" lon="3.75348">
        <ele>193.9</ele>
        <time>2017-05-21T07:12:10Z</time>
      </trkpt>
      <trkpt lat="43.68911" lon="3.75349">
        <ele>193.9</ele>
        <time>2017-05-21T07:12:11Z</time>
      </trkpt>
      <trkpt lat="43.68914" lon="3.7535">
        <ele>193.9</ele>
        <time>2017-05-21T07:12:12Z</time>
      </trkpt>
      <trkpt lat="43.68917" lon="3.75351">
        <ele>193.9</ele>
        <time>2017-05-21T07:12:13Z</time>
      </trkpt>
      <trkpt lat="43.6892" lon="3.75351">
        <ele>193.9</ele>
        <time>2017-05-21T07:12:14Z</time>
      </trkpt>
      <trkpt lat="43.68923" lon="3.75352">
        <ele>193.9</ele>
        <time>2017-05-21T07:12:15Z</time>
      </trkpt>
      <trkpt lat="43.68926" lon="3.75353">
        <ele>194</ele>
        <time>2017-05-21T07:12:16Z</time>
      </trkpt>
      <trkpt lat="43.68931" lon="3.75356">
        <ele>194</ele>
        <time>2017-05-21T07:12:18Z</time>
      </trkpt>
      <trkpt lat="43.68935" lon="3.7536">
        <ele>194</ele>
        <time>2017-05-21T07:12:20Z</time>
      </trkpt>
      <trkpt lat="43.68938" lon="3.75365">
        <ele>194</ele>
        <time>2017-05-21T07:12:22Z</time>
      </trkpt>
      <trkpt lat="43.6894" lon="3.7537">
        <ele>194.1</ele>
        <time>2017-05-21T07:12:24Z</time>
      </trkpt>
      <trkpt lat="43.68944" lon="3.75376">
        <ele>194.1</ele>
        <time>2017-05-21T07:12:26Z</time>
      </trkpt>
      <trkpt lat="43.68948" lon="3.75379">
        <ele>194.2</ele>
        <time>2017-05-21T07:12:28Z</time>
      </trkpt>
      <trkpt lat="43.68951" lon="3.75382">
        <ele>194.4</ele>
        <time>2017-05-21T07:12:30Z</time>
      </trkpt>
      <trkpt lat="43.68953" lon="3.75385">
        <ele>194.5</ele>
        <time>2017-05-21T07:12:31Z</time>
      </trkpt>
      <trkpt lat="43.68956" lon="3.75386">
        <ele>194.6</ele>
        <time>2017-05-21T07:12:32Z</time>
      </trkpt>
      <trkpt lat="43.68959" lon="3.7539">
        <ele>194.9</ele>
        <time>2017-05-21T07:12:34Z</time>
      </trkpt>
      <trkpt lat="43.68961" lon="3.75396">
        <ele>195.3</ele>
        <time>2017-05-21T07:12:36Z</time>
      </trkpt>
      <trkpt lat="43.68966" lon="3.75399">
        <ele>195.7</ele>
        <time>2017-05-21T07:12:38Z</time>
      </trkpt>
      <trkpt lat="43.6897" lon="3.75404">
        <ele>195.9</ele>
        <time>2017-05-21T07:12:40Z</time>
      </trkpt>
      <trkpt lat="43.68973" lon="3.75409">
        <ele>196.1</ele>
        <time>2017-05-21T07:12:42Z</time>
      </trkpt>
      <trkpt lat="43.68975" lon="3.75413">
        <ele>196.2</ele>
        <time>2017-05-21T07:12:43Z</time>
      </trkpt>
      <trkpt lat="43.68979" lon="3.75418">
        <ele>196.5</ele>
        <time>2017-05-21T07:12:45Z</time>
      </trkpt>
      <trkpt lat="43.68982" lon="3.75422">
        <ele>196.8</ele>
        <time>2017-05-21T07:12:47Z</time>
      </trkpt>
      <trkpt lat="43.68986" lon="3.75425">
        <ele>197.2</ele>
        <time>2017-05-21T07:12:49Z</time>
      </trkpt>
      <trkpt lat="43.6899" lon="3.75429">
        <ele>197.6</ele>
        <time>2017-05-21T07:12:51Z</time>
      </trkpt>
      <trkpt lat="43.68993" lon="3.75433">
        <ele>197.7</ele>
        <time>2017-05-21T07:12:53Z</time>
      </trkpt>
      <trkpt lat="43.68997" lon="3.75439">
        <ele>197.8</ele>
        <time>2017-05-21T07:12:55Z</time>
      </trkpt>
      <trkpt lat="43.68999" lon="3.75442">
        <ele>197.9</ele>
        <time>2017-05-21T07:12:56Z</time>
      </trkpt>
      <trkpt lat="43.68999" lon="3.75446">
        <ele>198</ele>
        <time>2017-05-21T07:12:57Z</time>
      </trkpt>
      <trkpt lat="43.69003" lon="3.7545">
        <ele>198.2</ele>
        <time>2017-05-21T07:12:59Z</time>
      </trkpt>
      <trkpt lat="43.69005" lon="3.75454">
        <ele>198.3</ele>
        <time>2017-05-21T07:13:01Z</time>
      </trkpt>
      <trkpt lat="43.69008" lon="3.75458">
        <ele>198.6</ele>
        <time>2017-05-21T07:13:03Z</time>
      </trkpt>
      <trkpt lat="43.69011" lon="3.75463">
        <ele>199</ele>
        <time>2017-05-21T07:13:05Z</time>
      </trkpt>
      <trkpt lat="43.69014" lon="3.75467">
        <ele>199.4</ele>
        <time>2017-05-21T07:13:07Z</time>
      </trkpt>
      <trkpt lat="43.69017" lon="3.75471">
        <ele>199.7</ele>
        <time>2017-05-21T07:13:09Z</time>
      </trkpt>
      <trkpt lat="43.69019" lon="3.75475">
        <ele>199.9</ele>
        <time>2017-05-21T07:13:11Z</time>
      </trkpt>
      <trkpt lat="43.69021" lon="3.75479">
        <ele>200</ele>
        <time>2017-05-21T07:13:13Z</time>
      </trkpt>
      <trkpt lat="43.69026" lon="3.75482">
        <ele>200.3</ele>
        <time>2017-05-21T07:13:15Z</time>
      </trkpt>
      <trkpt lat="43.69029" lon="3.75483">
        <ele>200.6</ele>
        <time>2017-05-21T07:13:16Z</time>
      </trkpt>
      <trkpt lat="43.69032" lon="3.75484">
        <ele>200.8</ele>
        <time>2017-05-21T07:13:17Z</time>
      </trkpt>
      <trkpt lat="43.69037" lon="3.75486">
        <ele>201.3</ele>
        <time>2017-05-21T07:13:19Z</time>
      </trkpt>
      <trkpt lat="43.69041" lon="3.75487">
        <ele>201.7</ele>
        <time>2017-05-21T07:13:21Z</time>
      </trkpt>
      <trkpt lat="43.69046" lon="3.75487">
        <ele>202</ele>
        <time>2017-05-21T07:13:23Z</time>
      </trkpt>
      <trkpt lat="43.6905" lon="3.75488">
        <ele>202.1</ele>
        <time>2017-05-21T07:13:25Z</time>
      </trkpt>
      <trkpt lat="43.69054" lon="3.75488">
        <ele>202.3</ele>
        <time>2017-05-21T07:13:27Z</time>
      </trkpt>
      <trkpt lat="43.69057" lon="3.75488">
        <ele>202.4</ele>
        <time>2017-05-21T07:13:28Z</time>
      </trkpt>
      <trkpt lat="43.69062" lon="3.75487">
        <ele>202.6</ele>
        <time>2017-05-21T07:13:30Z</time>
      </trkpt>
      <trkpt lat="43.69066" lon="3.75485">
        <ele>203</ele>
        <time>2017-05-21T07:13:32Z</time>
      </trkpt>
      <trkpt lat="43.6907" lon="3.75483">
        <ele>203.4</ele>
        <time>2017-05-21T07:13:34Z</time>
      </trkpt>
      <trkpt lat="43.69076" lon="3.75481">
        <ele>203.7</ele>
        <time>2017-05-21T07:13:36Z</time>
      </trkpt>
      <trkpt lat="43.69079" lon="3.7548">
        <ele>203.9</ele>
        <time>2017-05-21T07:13:37Z</time>
      </trkpt>
      <trkpt lat="43.69083" lon="3.75478">
        <ele>204.1</ele>
        <time>2017-05-21T07:13:39Z</time>
      </trkpt>
      <trkpt lat="43.69087" lon="3.75477">
        <ele>204.3</ele>
        <time>2017-05-21T07:13:41Z</time>
      </trkpt>
      <trkpt lat="43.69092" lon="3.75475">
        <ele>204.5</ele>
        <time>2017-05-21T07:13:43Z</time>
      </trkpt>
      <trkpt lat="43.69097" lon="3.75474">
        <ele>205</ele>
        <time>2017-05-21T07:13:45Z</time>
      </trkpt>
      <trkpt lat="43.69101" lon="3.75473">
        <ele>205.3</ele>
        <time>2017-05-21T07:13:47Z</time>
      </trkpt>
      <trkpt lat="43.69106" lon="3.75474">
        <ele>205.6</ele>
        <time>2017-05-21T07:13:49Z</time>
      </trkpt>
      <trkpt lat="43.6911" lon="3.75475">
        <ele>205.8</ele>
        <time>2017-05-21T07:13:51Z</time>
      </trkpt>
      <trkpt lat="43.69114" lon="3.75476">
        <ele>206</ele>
        <time>2017-05-21T07:13:53Z</time>
      </trkpt>
      <trkpt lat="43.69119" lon="3.75478">
        <ele>206.2</ele>
        <time>2017-05-21T07:13:55Z</time>
      </trkpt>
      <trkpt lat="43.69121" lon="3.75481">
        <ele>206.3</ele>
        <time>2017-05-21T07:13:56Z</time>
      </trkpt>
      <trkpt lat="43.69126" lon="3.75483">
        <ele>206.5</ele>
        <time>2017-05-21T07:13:58Z</time>
      </trkpt>
      <trkpt lat="43.69131" lon="3.75484">
        <ele>206.9</ele>
        <time>2017-05-21T07:14:00Z</time>
      </trkpt>
      <trkpt lat="43.69133" lon="3.75485">
        <ele>207.2</ele>
        <time>2017-05-21T07:14:01Z</time>
      </trkpt>
      <trkpt lat="43.69137" lon="3.75485">
        <ele>207.5</ele>
        <time>2017-05-21T07:14:02Z</time>
      </trkpt>
      <trkpt lat="43.69141" lon="3.75485">
        <ele>207.8</ele>
        <time>2017-05-21T07:14:04Z</time>
      </trkpt>
      <trkpt lat="43.69145" lon="3.75484">
        <ele>208</ele>
        <time>2017-05-21T07:14:06Z</time>
      </trkpt>
      <trkpt lat="43.69148" lon="3.75483">
        <ele>208.3</ele>
        <time>2017-05-21T07:14:08Z</time>
      </trkpt>
      <trkpt lat="43.69153" lon="3.75481">
        <ele>208.8</ele>
        <time>2017-05-21T07:14:10Z</time>
      </trkpt>
      <trkpt lat="43.69157" lon="3.75482">
        <ele>209.3</ele>
        <time>2017-05-21T07:14:12Z</time>
      </trkpt>
      <trkpt lat="43.69161" lon="3.75483">
        <ele>209.8</ele>
        <time>2017-05-21T07:14:14Z</time>
      </trkpt>
      <trkpt lat="43.69165" lon="3.75482">
        <ele>210.1</ele>
        <time>2017-05-21T07:14:16Z</time>
      </trkpt>
      <trkpt lat="43.6917" lon="3.75482">
        <ele>210.3</ele>
        <time>2017-05-21T07:14:18Z</time>
      </trkpt>
      <trkpt lat="43.69173" lon="3.75482">
        <ele>210.8</ele>
        <time>2017-05-21T07:14:20Z</time>
      </trkpt>
      <trkpt lat="43.69178" lon="3.75484">
        <ele>211.3</ele>
        <time>2017-05-21T07:14:22Z</time>
      </trkpt>
      <trkpt lat="43.69181" lon="3.75486">
        <ele>211.6</ele>
        <time>2017-05-21T07:14:24Z</time>
      </trkpt>
      <trkpt lat="43.69185" lon="3.75487">
        <ele>211.8</ele>
        <time>2017-05-21T07:14:26Z</time>
      </trkpt>
      <trkpt lat="43.69189" lon="3.75489">
        <ele>212</ele>
        <time>2017-05-21T07:14:28Z</time>
      </trkpt>
      <trkpt lat="43.69193" lon="3.7549">
        <ele>212.2</ele>
        <time>2017-05-21T07:14:30Z</time>
      </trkpt>
      <trkpt lat="43.69196" lon="3.75491">
        <ele>212.4</ele>
        <time>2017-05-21T07:14:32Z</time>
      </trkpt>
      <trkpt lat="43.692" lon="3.75491">
        <ele>212.8</ele>
        <time>2017-05-21T07:14:34Z</time>
      </trkpt>
      <trkpt lat="43.69204" lon="3.75493">
        <ele>213.2</ele>
        <time>2017-05-21T07:14:36Z</time>
      </trkpt>
      <trkpt lat="43.69208" lon="3.75494">
        <ele>213.6</ele>
        <time>2017-05-21T07:14:38Z</time>
      </trkpt>
      <trkpt lat="43.69212" lon="3.75495">
        <ele>213.9</ele>
        <time>2017-05-21T07:14:40Z</time>
      </trkpt>
      <trkpt lat="43.69215" lon="3.75497">
        <ele>214.2</ele>
        <time>2017-05-21T07:14:42Z</time>
      </trkpt>
      <trkpt lat="43.69218" lon="3.75499">
        <ele>214.4</ele>
        <time>2017-05-21T07:14:44Z</time>
      </trkpt>
      <trkpt lat="43.69221" lon="3.75502">
        <ele>214.8</ele>
        <time>2017-05-21T07:14:46Z</time>
      </trkpt>
      <trkpt lat="43.69223" lon="3.75505">
        <ele>215.2</ele>
        <time>2017-05-21T07:14:48Z</time>
      </trkpt>
      <trkpt lat="43.69227" lon="3.75508">
        <ele>215.6</ele>
        <time>2017-05-21T07:14:50Z</time>
      </trkpt>
      <trkpt lat="43.6923" lon="3.7551">
        <ele>215.7</ele>
        <time>2017-05-21T07:14:52Z</time>
      </trkpt>
      <trkpt lat="43.69234" lon="3.75513">
        <ele>215.9</ele>
        <time>2017-05-21T07:14:54Z</time>
      </trkpt>
      <trkpt lat="43.69237" lon="3.75515">
        <ele>216.1</ele>
        <time>2017-05-21T07:14:56Z</time>
      </trkpt>
      <trkpt lat="43.6924" lon="3.75518">
        <ele>216.5</ele>
        <time>2017-05-21T07:14:58Z</time>
      </trkpt>
      <trkpt lat="43.69244" lon="3.75521">
        <ele>217.1</ele>
        <time>2017-05-21T07:15:00Z</time>
      </trkpt>
      <trkpt lat="43.69247" lon="3.75523">
        <ele>217.4</ele>
        <time>2017-05-21T07:15:01Z</time>
      </trkpt>
      <trkpt lat="43.6925" lon="3.75526">
        <ele>217.8</ele>
        <time>2017-05-21T07:15:03Z</time>
      </trkpt>
      <trkpt lat="43.69253" lon="3.7553">
        <ele>218</ele>
        <time>2017-05-21T07:15:05Z</time>
      </trkpt>
      <trkpt lat="43.69255" lon="3.75535">
        <ele>218.3</ele>
        <time>2017-05-21T07:15:07Z</time>
      </trkpt>
      <trkpt lat="43.69258" lon="3.75539">
        <ele>218.6</ele>
        <time>2017-05-21T07:15:09Z</time>
      </trkpt>
      <trkpt lat="43.6926" lon="3.75544">
        <ele>219.2</ele>
        <time>2017-05-21T07:15:11Z</time>
      </trkpt>
      <trkpt lat="43.69262" lon="3.75548">
        <ele>219.8</ele>
        <time>2017-05-21T07:15:13Z</time>
      </trkpt>
      <trkpt lat="43.69265" lon="3.75553">
        <ele>220.1</ele>
        <time>2017-05-21T07:15:15Z</time>
      </trkpt>
      <trkpt lat="43.69268" lon="3.75557">
        <ele>220.4</ele>
        <time>2017-05-21T07:15:17Z</time>
      </trkpt>
      <trkpt lat="43.69269" lon="3.75563">
        <ele>221</ele>
        <time>2017-05-21T07:15:20Z</time>
      </trkpt>
      <trkpt lat="43.6927" lon="3.75568">
        <ele>221.6</ele>
        <time>2017-05-21T07:15:22Z</time>
      </trkpt>
      <trkpt lat="43.6927" lon="3.75574">
        <ele>222</ele>
        <time>2017-05-21T07:15:24Z</time>
      </trkpt>
      <trkpt lat="43.69271" lon="3.75579">
        <ele>222.3</ele>
        <time>2017-05-21T07:15:26Z</time>
      </trkpt>
      <trkpt lat="43.69273" lon="3.75583">
        <ele>222.7</ele>
        <time>2017-05-21T07:15:28Z</time>
      </trkpt>
      <trkpt lat="43.69275" lon="3.75586">
        <ele>223.2</ele>
        <time>2017-05-21T07:15:30Z</time>
      </trkpt>
      <trkpt lat="43.69277" lon="3.75591">
        <ele>223.8</ele>
        <time>2017-05-21T07:15:32Z</time>
      </trkpt>
      <trkpt lat="43.69279" lon="3.75595">
        <ele>224</ele>
        <time>2017-05-21T07:15:34Z</time>
      </trkpt>
      <trkpt lat="43.69281" lon="3.75598">
        <ele>224.2</ele>
        <time>2017-05-21T07:15:36Z</time>
      </trkpt>
      <trkpt lat="43.69283" lon="3.75601">
        <ele>224.4</ele>
        <time>2017-05-21T07:15:38Z</time>
      </trkpt>
      <trkpt lat="43.69285" lon="3.75605">
        <ele>224.7</ele>
        <time>2017-05-21T07:15:40Z</time>
      </trkpt>
      <trkpt lat="43.69286" lon="3.75609">
        <ele>225.2</ele>
        <time>2017-05-21T07:15:42Z</time>
      </trkpt>
      <trkpt lat="43.69288" lon="3.75615">
        <ele>225.7</ele>
        <time>2017-05-21T07:15:44Z</time>
      </trkpt>
      <trkpt lat="43.69289" lon="3.7562">
        <ele>226</ele>
        <time>2017-05-21T07:15:46Z</time>
      </trkpt>
      <trkpt lat="43.6929" lon="3.75625">
        <ele>226.3</ele>
        <time>2017-05-21T07:15:48Z</time>
      </trkpt>
      <trkpt lat="43.6929" lon="3.75629">
        <ele>226.6</ele>
        <time>2017-05-21T07:15:50Z</time>
      </trkpt>
      <trkpt lat="43.6929" lon="3.75635">
        <ele>227.2</ele>
        <time>2017-05-21T07:15:52Z</time>
      </trkpt>
      <trkpt lat="43.6929" lon="3.75641">
        <ele>227.6</ele>
        <time>2017-05-21T07:15:54Z</time>
      </trkpt>
      <trkpt lat="43.6929" lon="3.75647">
        <ele>227.9</ele>
        <time>2017-05-21T07:15:56Z</time>
      </trkpt>
      <trkpt lat="43.69289" lon="3.75653">
        <ele>228.2</ele>
        <time>2017-05-21T07:15:58Z</time>
      </trkpt>
      <trkpt lat="43.69289" lon="3.75658">
        <ele>228.6</ele>
        <time>2017-05-21T07:16:00Z</time>
      </trkpt>
      <trkpt lat="43.69288" lon="3.75664">
        <ele>229.2</ele>
        <time>2017-05-21T07:16:02Z</time>
      </trkpt>
      <trkpt lat="43.69287" lon="3.75669">
        <ele>229.5</ele>
        <time>2017-05-21T07:16:04Z</time>
      </trkpt>
      <trkpt lat="43.69286" lon="3.75674">
        <ele>229.7</ele>
        <time>2017-05-21T07:16:06Z</time>
      </trkpt>
      <trkpt lat="43.69285" lon="3.7568">
        <ele>229.9</ele>
        <time>2017-05-21T07:16:08Z</time>
      </trkpt>
      <trkpt lat="43.69285" lon="3.75684">
        <ele>230.1</ele>
        <time>2017-05-21T07:16:10Z</time>
      </trkpt>
      <trkpt lat="43.69285" lon="3.75689">
        <ele>230.3</ele>
        <time>2017-05-21T07:16:12Z</time>
      </trkpt>
      <trkpt lat="43.69286" lon="3.75696">
        <ele>230.7</ele>
        <time>2017-05-21T07:16:14Z</time>
      </trkpt>
      <trkpt lat="43.69287" lon="3.75702">
        <ele>231.2</ele>
        <time>2017-05-21T07:16:16Z</time>
      </trkpt>
      <trkpt lat="43.69288" lon="3.75708">
        <ele>231.7</ele>
        <time>2017-05-21T07:16:18Z</time>
      </trkpt>
      <trkpt lat="43.6929" lon="3.75715">
        <ele>232</ele>
        <time>2017-05-21T07:16:20Z</time>
      </trkpt>
      <trkpt lat="43.69291" lon="3.75721">
        <ele>232.3</ele>
        <time>2017-05-21T07:16:22Z</time>
      </trkpt>
      <trkpt lat="43.69293" lon="3.75727">
        <ele>232.6</ele>
        <time>2017-05-21T07:16:24Z</time>
      </trkpt>
      <trkpt lat="43.69294" lon="3.75733">
        <ele>233</ele>
        <time>2017-05-21T07:16:26Z</time>
      </trkpt>
      <trkpt lat="43.69295" lon="3.75738">
        <ele>233.4</ele>
        <time>2017-05-21T07:16:28Z</time>
      </trkpt>
      <trkpt lat="43.69296" lon="3.75744">
        <ele>233.8</ele>
        <time>2017-05-21T07:16:30Z</time>
      </trkpt>
      <trkpt lat="43.69297" lon="3.7575">
        <ele>233.9</ele>
        <time>2017-05-21T07:16:32Z</time>
      </trkpt>
      <trkpt lat="43.69299" lon="3.75754">
        <ele>234</ele>
        <time>2017-05-21T07:16:34Z</time>
      </trkpt>
      <trkpt lat="43.693" lon="3.7576">
        <ele>234.2</ele>
        <time>2017-05-21T07:16:36Z</time>
      </trkpt>
      <trkpt lat="43.693" lon="3.75765">
        <ele>234.3</ele>
        <time>2017-05-21T07:16:38Z</time>
      </trkpt>
      <trkpt lat="43.69301" lon="3.75771">
        <ele>234.5</ele>
        <time>2017-05-21T07:16:40Z</time>
      </trkpt>
      <trkpt lat="43.69302" lon="3.75777">
        <ele>234.7</ele>
        <time>2017-05-21T07:16:42Z</time>
      </trkpt>
      <trkpt lat="43.69303" lon="3.75783">
        <ele>235.1</ele>
        <time>2017-05-21T07:16:44Z</time>
      </trkpt>
      <trkpt lat="43.69303" lon="3.7579">
        <ele>235.6</ele>
        <time>2017-05-21T07:16:46Z</time>
      </trkpt>
      <trkpt lat="43.69305" lon="3.75795">
        <ele>236</ele>
        <time>2017-05-21T07:16:48Z</time>
      </trkpt>
      <trkpt lat="43.69307" lon="3.75799">
        <ele>236.2</ele>
        <time>2017-05-21T07:16:50Z</time>
      </trkpt>
      <trkpt lat="43.69309" lon="3.75804">
        <ele>236.4</ele>
        <time>2017-05-21T07:16:52Z</time>
      </trkpt>
      <trkpt lat="43.69312" lon="3.75809">
        <ele>236.6</ele>
        <time>2017-05-21T07:16:54Z</time>
      </trkpt>
      <trkpt lat="43.69314" lon="3.75814">
        <ele>236.8</ele>
        <time>2017-05-21T07:16:56Z</time>
      </trkpt>
      <trkpt lat="43.69317" lon="3.75818">
        <ele>237.1</ele>
        <time>2017-05-21T07:16:58Z</time>
      </trkpt>
      <trkpt lat="43.69319" lon="3.75825">
        <ele>237.6</ele>
        <time>2017-05-21T07:17:00Z</time>
      </trkpt>
      <trkpt lat="43.69322" lon="3.7583">
        <ele>238</ele>
        <time>2017-05-21T07:17:02Z</time>
      </trkpt>
      <trkpt lat="43.69324" lon="3.75835">
        <ele>238.2</ele>
        <time>2017-05-21T07:17:04Z</time>
      </trkpt>
      <trkpt lat="43.69325" lon="3.75841">
        <ele>238.4</ele>
        <time>2017-05-21T07:17:06Z</time>
      </trkpt>
      <trkpt lat="43.69327" lon="3.75846">
        <ele>238.5</ele>
        <time>2017-05-21T07:17:08Z</time>
      </trkpt>
      <trkpt lat="43.69331" lon="3.75851">
        <ele>238.7</ele>
        <time>2017-05-21T07:17:10Z</time>
      </trkpt>
      <trkpt lat="43.69332" lon="3.75855">
        <ele>239</ele>
        <time>2017-05-21T07:17:12Z</time>
      </trkpt>
      <trkpt lat="43.69331" lon="3.75859">
        <ele>239.3</ele>
        <time>2017-05-21T07:17:14Z</time>
      </trkpt>
      <trkpt lat="43.69327" lon="3.75859">
        <ele>240.4</ele>
        <time>2017-05-21T07:17:16Z</time>
      </trkpt>
      <trkpt lat="43.69323" lon="3.75858">
        <ele>240.6</ele>
        <time>2017-05-21T07:17:18Z</time>
      </trkpt>
      <trkpt lat="43.69321" lon="3.75856">
        <ele>240.7</ele>
        <time>2017-05-21T07:17:20Z</time>
      </trkpt>
      <trkpt lat="43.69317" lon="3.75855">
        <ele>240.8</ele>
        <time>2017-05-21T07:17:22Z</time>
      </trkpt>
      <trkpt lat="43.69314" lon="3.75855">
        <ele>241</ele>
        <time>2017-05-21T07:17:25Z</time>
      </trkpt>
      <trkpt lat="43.69311" lon="3.75854">
        <ele>241.2</ele>
        <time>2017-05-21T07:17:29Z</time>
      </trkpt>
      <trkpt lat="43.69308" lon="3.75853">
        <ele>241.3</ele>
        <time>2017-05-21T07:17:32Z</time>
      </trkpt>
      <trkpt lat="43.69305" lon="3.75852">
        <ele>241.5</ele>
        <time>2017-05-21T07:17:34Z</time>
      </trkpt>
      <trkpt lat="43.69302" lon="3.75852">
        <ele>241.7</ele>
        <time>2017-05-21T07:17:37Z</time>
      </trkpt>
      <trkpt lat="43.69298" lon="3.75851">
        <ele>242</ele>
        <time>2017-05-21T07:17:39Z</time>
      </trkpt>
      <trkpt lat="43.69294" lon="3.7585">
        <ele>242.3</ele>
        <time>2017-05-21T07:17:42Z</time>
      </trkpt>
      <trkpt lat="43.69291" lon="3.75849">
        <ele>242.5</ele>
        <time>2017-05-21T07:17:44Z</time>
      </trkpt>
      <trkpt lat="43.69287" lon="3.75849">
        <ele>242.9</ele>
        <time>2017-05-21T07:17:46Z</time>
      </trkpt>
      <trkpt lat="43.69284" lon="3.75848">
        <ele>243.3</ele>
        <time>2017-05-21T07:17:48Z</time>
      </trkpt>
      <trkpt lat="43.69281" lon="3.75848">
        <ele>243.6</ele>
        <time>2017-05-21T07:17:49Z</time>
      </trkpt>
      <trkpt lat="43.69277" lon="3.75847">
        <ele>244.1</ele>
        <time>2017-05-21T07:17:51Z</time>
      </trkpt>
      <trkpt lat="43.69273" lon="3.75847">
        <ele>244.4</ele>
        <time>2017-05-21T07:17:53Z</time>
      </trkpt>
      <trkpt lat="43.69268" lon="3.75845">
        <ele>245</ele>
        <time>2017-05-21T07:17:56Z</time>
      </trkpt>
      <trkpt lat="43.69264" lon="3.75843">
        <ele>245.4</ele>
        <time>2017-05-21T07:17:59Z</time>
      </trkpt>
      <trkpt lat="43.6926" lon="3.7584">
        <ele>245.9</ele>
        <time>2017-05-21T07:18:01Z</time>
      </trkpt>
      <trkpt lat="43.69257" lon="3.75839">
        <ele>246</ele>
        <time>2017-05-21T07:18:02Z</time>
      </trkpt>
      <trkpt lat="43.69254" lon="3.75836">
        <ele>246.2</ele>
        <time>2017-05-21T07:18:04Z</time>
      </trkpt>
      <trkpt lat="43.69252" lon="3.75834">
        <ele>246.5</ele>
        <time>2017-05-21T07:18:06Z</time>
      </trkpt>
      <trkpt lat="43.69249" lon="3.75832">
        <ele>246.8</ele>
        <time>2017-05-21T07:18:08Z</time>
      </trkpt>
      <trkpt lat="43.69244" lon="3.75829">
        <ele>247.3</ele>
        <time>2017-05-21T07:18:11Z</time>
      </trkpt>
      <trkpt lat="43.6924" lon="3.75828">
        <ele>247.8</ele>
        <time>2017-05-21T07:18:13Z</time>
      </trkpt>
      <trkpt lat="43.69236" lon="3.75826">
        <ele>248</ele>
        <time>2017-05-21T07:18:15Z</time>
      </trkpt>
      <trkpt lat="43.69233" lon="3.75824">
        <ele>248.2</ele>
        <time>2017-05-21T07:18:17Z</time>
      </trkpt>
      <trkpt lat="43.69229" lon="3.75823">
        <ele>248.5</ele>
        <time>2017-05-21T07:18:19Z</time>
      </trkpt>
      <trkpt lat="43.69226" lon="3.75821">
        <ele>248.7</ele>
        <time>2017-05-21T07:18:21Z</time>
      </trkpt>
      <trkpt lat="43.69221" lon="3.7582">
        <ele>249.2</ele>
        <time>2017-05-21T07:18:23Z</time>
      </trkpt>
      <trkpt lat="43.69217" lon="3.75818">
        <ele>249.6</ele>
        <time>2017-05-21T07:18:25Z</time>
      </trkpt>
      <trkpt lat="43.69213" lon="3.75816">
        <ele>250.2</ele>
        <time>2017-05-21T07:18:27Z</time>
      </trkpt>
      <trkpt lat="43.69209" lon="3.75813">
        <ele>250.6</ele>
        <time>2017-05-21T07:18:29Z</time>
      </trkpt>
      <trkpt lat="43.69206" lon="3.75811">
        <ele>250.8</ele>
        <time>2017-05-21T07:18:31Z</time>
      </trkpt>
      <trkpt lat="43.69203" lon="3.75809">
        <ele>251</ele>
        <time>2017-05-21T07:18:33Z</time>
      </trkpt>
      <trkpt lat="43.69199" lon="3.75808">
        <ele>251.2</ele>
        <time>2017-05-21T07:18:35Z</time>
      </trkpt>
      <trkpt lat="43.69195" lon="3.75806">
        <ele>251.4</ele>
        <time>2017-05-21T07:18:37Z</time>
      </trkpt>
      <trkpt lat="43.69192" lon="3.75804">
        <ele>251.8</ele>
        <time>2017-05-21T07:18:39Z</time>
      </trkpt>
      <trkpt lat="43.69187" lon="3.75803">
        <ele>252.5</ele>
        <time>2017-05-21T07:18:41Z</time>
      </trkpt>
      <trkpt lat="43.69183" lon="3.75803">
        <ele>253.1</ele>
        <time>2017-05-21T07:18:43Z</time>
      </trkpt>
      <trkpt lat="43.6918" lon="3.75805">
        <ele>253.7</ele>
        <time>2017-05-21T07:18:45Z</time>
      </trkpt>
      <trkpt lat="43.69178" lon="3.75809">
        <ele>254.1</ele>
        <time>2017-05-21T07:18:47Z</time>
      </trkpt>
      <trkpt lat="43.69177" lon="3.75813">
        <ele>254.4</ele>
        <time>2017-05-21T07:18:49Z</time>
      </trkpt>
      <trkpt lat="43.69178" lon="3.75817">
        <ele>254.8</ele>
        <time>2017-05-21T07:18:51Z</time>
      </trkpt>
      <trkpt lat="43.69179" lon="3.75821">
        <ele>255.2</ele>
        <time>2017-05-21T07:18:53Z</time>
      </trkpt>
      <trkpt lat="43.6918" lon="3.75824">
        <ele>255.5</ele>
        <time>2017-05-21T07:18:55Z</time>
      </trkpt>
      <trkpt lat="43.69181" lon="3.75829">
        <ele>255.7</ele>
        <time>2017-05-21T07:18:57Z</time>
      </trkpt>
      <trkpt lat="43.69182" lon="3.75834">
        <ele>255.9</ele>
        <time>2017-05-21T07:18:59Z</time>
      </trkpt>
      <trkpt lat="43.69183" lon="3.75839">
        <ele>256.1</ele>
        <time>2017-05-21T07:19:01Z</time>
      </trkpt>
      <trkpt lat="43.69185" lon="3.75843">
        <ele>256.3</ele>
        <time>2017-05-21T07:19:04Z</time>
      </trkpt>
      <trkpt lat="43.69187" lon="3.75848">
        <ele>256.5</ele>
        <time>2017-05-21T07:19:07Z</time>
      </trkpt>
      <trkpt lat="43.69189" lon="3.75853">
        <ele>256.7</ele>
        <time>2017-05-21T07:19:10Z</time>
      </trkpt>
      <trkpt lat="43.6919" lon="3.75857">
        <ele>256.8</ele>
        <time>2017-05-21T07:19:12Z</time>
      </trkpt>
      <trkpt lat="43.6919" lon="3.75861">
        <ele>256.9</ele>
        <time>2017-05-21T07:19:14Z</time>
      </trkpt>
      <trkpt lat="43.69191" lon="3.75867">
        <ele>257</ele>
        <time>2017-05-21T07:19:17Z</time>
      </trkpt>
      <trkpt lat="43.6919" lon="3.7587">
        <ele>257.1</ele>
        <time>2017-05-21T07:19:19Z</time>
      </trkpt>
      <trkpt lat="43.6919" lon="3.75876">
        <ele>257.4</ele>
        <time>2017-05-21T07:19:22Z</time>
      </trkpt>
      <trkpt lat="43.6919" lon="3.7588">
        <ele>257.6</ele>
        <time>2017-05-21T07:19:29Z</time>
      </trkpt>
      <trkpt lat="43.6919" lon="3.75885">
        <ele>257.7</ele>
        <time>2017-05-21T07:19:32Z</time>
      </trkpt>
      <trkpt lat="43.69189" lon="3.75889">
        <ele>258</ele>
        <time>2017-05-21T07:19:37Z</time>
      </trkpt>
      <trkpt lat="43.69188" lon="3.75893">
        <ele>258.4</ele>
        <time>2017-05-21T07:19:42Z</time>
      </trkpt>
      <trkpt lat="43.69187" lon="3.75898">
        <ele>258.8</ele>
        <time>2017-05-21T07:19:47Z</time>
      </trkpt>
      <trkpt lat="43.69186" lon="3.75902">
        <ele>259.1</ele>
        <time>2017-05-21T07:19:51Z</time>
      </trkpt>
      <trkpt lat="43.69184" lon="3.75906">
        <ele>259.6</ele>
        <time>2017-05-21T07:19:55Z</time>
      </trkpt>
      <trkpt lat="43.69182" lon="3.75909">
        <ele>260</ele>
        <time>2017-05-21T07:19:58Z</time>
      </trkpt>
      <trkpt lat="43.6918" lon="3.75913">
        <ele>260.5</ele>
        <time>2017-05-21T07:20:03Z</time>
      </trkpt>
      <trkpt lat="43.69179" lon="3.75916">
        <ele>260.9</ele>
        <time>2017-05-21T07:20:07Z</time>
      </trkpt>
      <trkpt lat="43.69176" lon="3.75919">
        <ele>261.3</ele>
        <time>2017-05-21T07:20:13Z</time>
      </trkpt>
      <trkpt lat="43.69173" lon="3.75922">
        <ele>261.8</ele>
        <time>2017-05-21T07:20:16Z</time>
      </trkpt>
      <trkpt lat="43.6917" lon="3.75925">
        <ele>262.3</ele>
        <time>2017-05-21T07:20:19Z</time>
      </trkpt>
      <trkpt lat="43.69168" lon="3.75927">
        <ele>262.7</ele>
        <time>2017-05-21T07:20:21Z</time>
      </trkpt>
      <trkpt lat="43.69165" lon="3.75931">
        <ele>263.2</ele>
        <time>2017-05-21T07:20:25Z</time>
      </trkpt>
      <trkpt lat="43.69162" lon="3.75935">
        <ele>263.6</ele>
        <time>2017-05-21T07:20:28Z</time>
      </trkpt>
      <trkpt lat="43.6916" lon="3.75938">
        <ele>263.9</ele>
        <time>2017-05-21T07:20:31Z</time>
      </trkpt>
      <trkpt lat="43.69158" lon="3.75942">
        <ele>264.2</ele>
        <time>2017-05-21T07:20:34Z</time>
      </trkpt>
      <trkpt lat="43.69155" lon="3.75944">
        <ele>264.6</ele>
        <time>2017-05-21T07:20:37Z</time>
      </trkpt>
      <trkpt lat="43.69152" lon="3.75948">
        <ele>265.1</ele>
        <time>2017-05-21T07:20:40Z</time>
      </trkpt>
      <trkpt lat="43.6915" lon="3.7595">
        <ele>265.4</ele>
        <time>2017-05-21T07:20:43Z</time>
      </trkpt>
      <trkpt lat="43.69147" lon="3.75952">
        <ele>265.7</ele>
        <time>2017-05-21T07:20:45Z</time>
      </trkpt>
      <trkpt lat="43.69145" lon="3.75956">
        <ele>266.2</ele>
        <time>2017-05-21T07:20:48Z</time>
      </trkpt>
      <trkpt lat="43.69142" lon="3.75959">
        <ele>266.4</ele>
        <time>2017-05-21T07:20:51Z</time>
      </trkpt>
      <trkpt lat="43.69141" lon="3.75963">
        <ele>266.6</ele>
        <time>2017-05-21T07:20:54Z</time>
      </trkpt>
      <trkpt lat="43.69138" lon="3.75965">
        <ele>267</ele>
        <time>2017-05-21T07:23:09Z</time>
      </trkpt>
      <trkpt lat="43.69134" lon="3.75967">
        <ele>267.4</ele>
        <time>2017-05-21T07:23:11Z</time>
      </trkpt>
      <trkpt lat="43.6913" lon="3.7597">
        <ele>267.7</ele>
        <time>2017-05-21T07:23:13Z</time>
      </trkpt>
      <trkpt lat="43.69126" lon="3.75973">
        <ele>267.9</ele>
        <time>2017-05-21T07:23:15Z</time>
      </trkpt>
      <trkpt lat="43.69124" lon="3.75975">
        <ele>268</ele>
        <time>2017-05-21T07:23:16Z</time>
      </trkpt>
      <trkpt lat="43.69121" lon="3.75977">
        <ele>268.2</ele>
        <time>2017-05-21T07:23:17Z</time>
      </trkpt>
      <trkpt lat="43.69118" lon="3.7598">
        <ele>268.3</ele>
        <time>2017-05-21T07:23:18Z</time>
      </trkpt>
      <trkpt lat="43.69114" lon="3.75984">
        <ele>268.5</ele>
        <time>2017-05-21T07:23:20Z</time>
      </trkpt>
      <trkpt lat="43.69112" lon="3.75986">
        <ele>268.6</ele>
        <time>2017-05-21T07:23:21Z</time>
      </trkpt>
      <trkpt lat="43.69107" lon="3.75991">
        <ele>268.9</ele>
        <time>2017-05-21T07:23:23Z</time>
      </trkpt>
      <trkpt lat="43.69105" lon="3.75993">
        <ele>269</ele>
        <time>2017-05-21T07:23:24Z</time>
      </trkpt>
      <trkpt lat="43.69102" lon="3.75996">
        <ele>269.1</ele>
        <time>2017-05-21T07:23:25Z</time>
      </trkpt>
      <trkpt lat="43.691" lon="3.75998">
        <ele>269.3</ele>
        <time>2017-05-21T07:23:26Z</time>
      </trkpt>
      <trkpt lat="43.69097" lon="3.76">
        <ele>269.4</ele>
        <time>2017-05-21T07:23:27Z</time>
      </trkpt>
      <trkpt lat="43.69095" lon="3.76003">
        <ele>269.5</ele>
        <time>2017-05-21T07:23:28Z</time>
      </trkpt>
      <trkpt lat="43.69092" lon="3.76005">
        <ele>269.6</ele>
        <time>2017-05-21T07:23:29Z</time>
      </trkpt>
      <trkpt lat="43.69088" lon="3.76007">
        <ele>269.7</ele>
        <time>2017-05-21T07:23:30Z</time>
      </trkpt>
      <trkpt lat="43.69085" lon="3.76009">
        <ele>269.8</ele>
        <time>2017-05-21T07:23:31Z</time>
      </trkpt>
      <trkpt lat="43.69081" lon="3.7601">
        <ele>269.9</ele>
        <time>2017-05-21T07:23:32Z</time>
      </trkpt>
      <trkpt lat="43.69075" lon="3.76009">
        <ele>270</ele>
        <time>2017-05-21T07:23:34Z</time>
      </trkpt>
      <trkpt lat="43.69071" lon="3.76009">
        <ele>270</ele>
        <time>2017-05-21T07:23:35Z</time>
      </trkpt>
      <trkpt lat="43.69067" lon="3.76008">
        <ele>269.9</ele>
        <time>2017-05-21T07:23:36Z</time>
      </trkpt>
      <trkpt lat="43.69064" lon="3.76007">
        <ele>269.9</ele>
        <time>2017-05-21T07:23:37Z</time>
      </trkpt>
      <trkpt lat="43.69061" lon="3.76006">
        <ele>269.9</ele>
        <time>2017-05-21T07:23:38Z</time>
      </trkpt>
      <trkpt lat="43.69057" lon="3.76005">
        <ele>269.9</ele>
        <time>2017-05-21T07:23:39Z</time>
      </trkpt>
      <trkpt lat="43.69053" lon="3.76005">
        <ele>270</ele>
        <time>2017-05-21T07:23:40Z</time>
      </trkpt>
      <trkpt lat="43.69049" lon="3.76006">
        <ele>270</ele>
        <time>2017-05-21T07:23:41Z</time>
      </trkpt>
      <trkpt lat="43.69045" lon="3.76009">
        <ele>270</ele>
        <time>2017-05-21T07:23:42Z</time>
      </trkpt>
      <trkpt lat="43.69042" lon="3.76011">
        <ele>270</ele>
        <time>2017-05-21T07:23:43Z</time>
      </trkpt>
      <trkpt lat="43.69038" lon="3.76014">
        <ele>270</ele>
        <time>2017-05-21T07:23:44Z</time>
      </trkpt>
      <trkpt lat="43.69035" lon="3.76017">
        <ele>270.1</ele>
        <time>2017-05-21T07:23:45Z</time>
      </trkpt>
      <trkpt lat="43.69031" lon="3.76019">
        <ele>270.1</ele>
        <time>2017-05-21T07:23:46Z</time>
      </trkpt>
      <trkpt lat="43.69028" lon="3.76022">
        <ele>270.1</ele>
        <time>2017-05-21T07:23:47Z</time>
      </trkpt>
      <trkpt lat="43.69024" lon="3.76024">
        <ele>270.2</ele>
        <time>2017-05-21T07:23:48Z</time>
      </trkpt>
      <trkpt lat="43.6902" lon="3.76026">
        <ele>270.2</ele>
        <time>2017-05-21T07:23:49Z</time>
      </trkpt>
      <trkpt lat="43.69016" lon="3.76029">
        <ele>270.2</ele>
        <time>2017-05-21T07:23:50Z</time>
      </trkpt>
      <trkpt lat="43.69012" lon="3.7603">
        <ele>270.2</ele>
        <time>2017-05-21T07:23:51Z</time>
      </trkpt>
      <trkpt lat="43.69008" lon="3.76032">
        <ele>270.3</ele>
        <time>2017-05-21T07:23:52Z</time>
      </trkpt>
      <trkpt lat="43.69006" lon="3.76034">
        <ele>270.3</ele>
        <time>2017-05-21T07:23:53Z</time>
      </trkpt>
      <trkpt lat="43.69002" lon="3.76036">
        <ele>270.3</ele>
        <time>2017-05-21T07:23:54Z</time>
      </trkpt>
      <trkpt lat="43.68998" lon="3.76037">
        <ele>270.3</ele>
        <time>2017-05-21T07:23:55Z</time>
      </trkpt>
      <trkpt lat="43.68995" lon="3.76039">
        <ele>270.3</ele>
        <time>2017-05-21T07:23:56Z</time>
      </trkpt>
      <trkpt lat="43.68992" lon="3.76041">
        <ele>270.3</ele>
        <time>2017-05-21T07:23:57Z</time>
      </trkpt>
      <trkpt lat="43.68989" lon="3.76042">
        <ele>270.3</ele>
        <time>2017-05-21T07:23:58Z</time>
      </trkpt>
      <trkpt lat="43.68987" lon="3.76044">
        <ele>270.3</ele>
        <time>2017-05-21T07:23:59Z</time>
      </trkpt>
      <trkpt lat="43.68983" lon="3.76046">
        <ele>270.2</ele>
        <time>2017-05-21T07:24:00Z</time>
      </trkpt>
      <trkpt lat="43.6898" lon="3.76047">
        <ele>270.2</ele>
        <time>2017-05-21T07:24:01Z</time>
      </trkpt>
      <trkpt lat="43.68978" lon="3.76049">
        <ele>270.1</ele>
        <time>2017-05-21T07:24:02Z</time>
      </trkpt>
      <trkpt lat="43.68975" lon="3.76051">
        <ele>269.9</ele>
        <time>2017-05-21T07:24:03Z</time>
      </trkpt>
      <trkpt lat="43.68971" lon="3.76052">
        <ele>269.8</ele>
        <time>2017-05-21T07:24:04Z</time>
      </trkpt>
      <trkpt lat="43.68968" lon="3.76054">
        <ele>269.7</ele>
        <time>2017-05-21T07:24:05Z</time>
      </trkpt>
      <trkpt lat="43.68966" lon="3.76055">
        <ele>269.6</ele>
        <time>2017-05-21T07:24:06Z</time>
      </trkpt>
      <trkpt lat="43.68963" lon="3.76058">
        <ele>269.5</ele>
        <time>2017-05-21T07:24:07Z</time>
      </trkpt>
      <trkpt lat="43.6896" lon="3.7606">
        <ele>269.4</ele>
        <time>2017-05-21T07:24:08Z</time>
      </trkpt>
      <trkpt lat="43.68957" lon="3.76062">
        <ele>269.4</ele>
        <time>2017-05-21T07:24:09Z</time>
      </trkpt>
      <trkpt lat="43.68954" lon="3.76064">
        <ele>269.3</ele>
        <time>2017-05-21T07:24:10Z</time>
      </trkpt>
      <trkpt lat="43.68949" lon="3.76068">
        <ele>269.1</ele>
        <time>2017-05-21T07:24:12Z</time>
      </trkpt>
      <trkpt lat="43.68946" lon="3.7607">
        <ele>269</ele>
        <time>2017-05-21T07:24:13Z</time>
      </trkpt>
      <trkpt lat="43.68942" lon="3.76072">
        <ele>268.9</ele>
        <time>2017-05-21T07:24:14Z</time>
      </trkpt>
      <trkpt lat="43.68939" lon="3.76073">
        <ele>268.6</ele>
        <time>2017-05-21T07:24:15Z</time>
      </trkpt>
      <trkpt lat="43.68936" lon="3.76075">
        <ele>268.4</ele>
        <time>2017-05-21T07:24:16Z</time>
      </trkpt>
      <trkpt lat="43.68932" lon="3.76077">
        <ele>268.1</ele>
        <time>2017-05-21T07:24:17Z</time>
      </trkpt>
      <trkpt lat="43.68927" lon="3.76079">
        <ele>267.9</ele>
        <time>2017-05-21T07:24:19Z</time>
      </trkpt>
      <trkpt lat="43.68924" lon="3.7608">
        <ele>267.8</ele>
        <time>2017-05-21T07:24:20Z</time>
      </trkpt>
      <trkpt lat="43.6892" lon="3.76082">
        <ele>267.8</ele>
        <time>2017-05-21T07:24:21Z</time>
      </trkpt>
      <trkpt lat="43.68916" lon="3.76082">
        <ele>267.7</ele>
        <time>2017-05-21T07:24:22Z</time>
      </trkpt>
      <trkpt lat="43.68913" lon="3.76083">
        <ele>267.6</ele>
        <time>2017-05-21T07:24:23Z</time>
      </trkpt>
      <trkpt lat="43.68909" lon="3.76084">
        <ele>267.6</ele>
        <time>2017-05-21T07:24:24Z</time>
      </trkpt>
      <trkpt lat="43.68905" lon="3.76084">
        <ele>267.5</ele>
        <time>2017-05-21T07:24:25Z</time>
      </trkpt>
      <trkpt lat="43.68902" lon="3.76084">
        <ele>267.4</ele>
        <time>2017-05-21T07:24:26Z</time>
      </trkpt>
      <trkpt lat="43.68898" lon="3.76084">
        <ele>267.4</ele>
        <time>2017-05-21T07:24:27Z</time>
      </trkpt>
      <trkpt lat="43.68894" lon="3.76084">
        <ele>267.3</ele>
        <time>2017-05-21T07:24:28Z</time>
      </trkpt>
      <trkpt lat="43.6889" lon="3.76085">
        <ele>267.2</ele>
        <time>2017-05-21T07:24:29Z</time>
      </trkpt>
      <trkpt lat="43.68886" lon="3.76085">
        <ele>267.2</ele>
        <time>2017-05-21T07:24:30Z</time>
      </trkpt>
      <trkpt lat="43.68882" lon="3.76084">
        <ele>267.1</ele>
        <time>2017-05-21T07:24:31Z</time>
      </trkpt>
      <trkpt lat="43.68878" lon="3.76084">
        <ele>267</ele>
        <time>2017-05-21T07:24:32Z</time>
      </trkpt>
      <trkpt lat="43.68874" lon="3.76085">
        <ele>266.7</ele>
        <time>2017-05-21T07:24:33Z</time>
      </trkpt>
      <trkpt lat="43.6887" lon="3.76085">
        <ele>266.4</ele>
        <time>2017-05-21T07:24:34Z</time>
      </trkpt>
      <trkpt lat="43.68866" lon="3.76085">
        <ele>266.1</ele>
        <time>2017-05-21T07:24:35Z</time>
      </trkpt>
      <trkpt lat="43.68862" lon="3.76086">
        <ele>265.8</ele>
        <time>2017-05-21T07:24:36Z</time>
      </trkpt>
      <trkpt lat="43.68858" lon="3.76086">
        <ele>265.5</ele>
        <time>2017-05-21T07:24:37Z</time>
      </trkpt>
      <trkpt lat="43.68854" lon="3.76086">
        <ele>265</ele>
        <time>2017-05-21T07:24:38Z</time>
      </trkpt>
      <trkpt lat="43.6885" lon="3.76086">
        <ele>264.5</ele>
        <time>2017-05-21T07:24:39Z</time>
      </trkpt>
      <trkpt lat="43.68846" lon="3.76085">
        <ele>264</ele>
        <time>2017-05-21T07:24:40Z</time>
      </trkpt>
      <trkpt lat="43.68842" lon="3.76086">
        <ele>263.6</ele>
        <time>2017-05-21T07:24:41Z</time>
      </trkpt>
      <trkpt lat="43.68838" lon="3.76084">
        <ele>263.3</ele>
        <time>2017-05-21T07:24:42Z</time>
      </trkpt>
      <trkpt lat="43.68834" lon="3.76082">
        <ele>262.8</ele>
        <time>2017-05-21T07:24:43Z</time>
      </trkpt>
      <trkpt lat="43.6883" lon="3.76079">
        <ele>262.4</ele>
        <time>2017-05-21T07:24:44Z</time>
      </trkpt>
      <trkpt lat="43.68827" lon="3.76075">
        <ele>262.8</ele>
        <time>2017-05-21T07:24:45Z</time>
      </trkpt>
      <trkpt lat="43.68825" lon="3.76069">
        <ele>263.2</ele>
        <time>2017-05-21T07:24:46Z</time>
      </trkpt>
      <trkpt lat="43.68824" lon="3.76064">
        <ele>263.6</ele>
        <time>2017-05-21T07:24:47Z</time>
      </trkpt>
      <trkpt lat="43.68823" lon="3.76059">
        <ele>264</ele>
        <time>2017-05-21T07:24:48Z</time>
      </trkpt>
      <trkpt lat="43.68821" lon="3.76054">
        <ele>264.3</ele>
        <time>2017-05-21T07:24:49Z</time>
      </trkpt>
      <trkpt lat="43.6882" lon="3.7605">
        <ele>264.6</ele>
        <time>2017-05-21T07:24:50Z</time>
      </trkpt>
      <trkpt lat="43.68818" lon="3.76046">
        <ele>264.9</ele>
        <time>2017-05-21T07:24:51Z</time>
      </trkpt>
      <trkpt lat="43.68817" lon="3.76041">
        <ele>265.1</ele>
        <time>2017-05-21T07:24:52Z</time>
      </trkpt>
      <trkpt lat="43.68816" lon="3.76037">
        <ele>265.4</ele>
        <time>2017-05-21T07:24:53Z</time>
      </trkpt>
      <trkpt lat="43.68814" lon="3.76031">
        <ele>265.8</ele>
        <time>2017-05-21T07:24:54Z</time>
      </trkpt>
      <trkpt lat="43.68813" lon="3.76026">
        <ele>266.2</ele>
        <time>2017-05-21T07:24:55Z</time>
      </trkpt>
      <trkpt lat="43.68812" lon="3.76021">
        <ele>266.5</ele>
        <time>2017-05-21T07:24:56Z</time>
      </trkpt>
      <trkpt lat="43.6881" lon="3.76015">
        <ele>266.9</ele>
        <time>2017-05-21T07:24:57Z</time>
      </trkpt>
      <trkpt lat="43.68809" lon="3.76011">
        <ele>267.2</ele>
        <time>2017-05-21T07:24:58Z</time>
      </trkpt>
      <trkpt lat="43.68808" lon="3.76006">
        <ele>267.5</ele>
        <time>2017-05-21T07:24:59Z</time>
      </trkpt>
      <trkpt lat="43.68806" lon="3.76002">
        <ele>267.8</ele>
        <time>2017-05-21T07:25:00Z</time>
      </trkpt>
      <trkpt lat="43.68803" lon="3.75997">
        <ele>268.3</ele>
        <time>2017-05-21T07:25:01Z</time>
      </trkpt>
      <trkpt lat="43.68801" lon="3.75992">
        <ele>268.7</ele>
        <time>2017-05-21T07:25:02Z</time>
      </trkpt>
      <trkpt lat="43.68798" lon="3.75988">
        <ele>269.1</ele>
        <time>2017-05-21T07:25:03Z</time>
      </trkpt>
      <trkpt lat="43.68795" lon="3.75984">
        <ele>269.5</ele>
        <time>2017-05-21T07:25:04Z</time>
      </trkpt>
      <trkpt lat="43.68793" lon="3.7598">
        <ele>269.9</ele>
        <time>2017-05-21T07:25:05Z</time>
      </trkpt>
      <trkpt lat="43.6879" lon="3.75976">
        <ele>270</ele>
        <time>2017-05-21T07:25:06Z</time>
      </trkpt>
      <trkpt lat="43.68787" lon="3.75971">
        <ele>270.1</ele>
        <time>2017-05-21T07:25:07Z</time>
      </trkpt>
      <trkpt lat="43.68784" lon="3.75967">
        <ele>270.1</ele>
        <time>2017-05-21T07:25:08Z</time>
      </trkpt>
      <trkpt lat="43.68781" lon="3.75964">
        <ele>270.2</ele>
        <time>2017-05-21T07:25:09Z</time>
      </trkpt>
      <trkpt lat="43.68778" lon="3.75959">
        <ele>270.2</ele>
        <time>2017-05-21T07:25:10Z</time>
      </trkpt>
      <trkpt lat="43.68775" lon="3.75955">
        <ele>270.3</ele>
        <time>2017-05-21T07:25:11Z</time>
      </trkpt>
      <trkpt lat="43.68773" lon="3.7595">
        <ele>270.3</ele>
        <time>2017-05-21T07:25:12Z</time>
      </trkpt>
      <trkpt lat="43.68771" lon="3.75944">
        <ele>270.4</ele>
        <time>2017-05-21T07:25:13Z</time>
      </trkpt>
      <trkpt lat="43.6877" lon="3.75939">
        <ele>270.5</ele>
        <time>2017-05-21T07:25:14Z</time>
      </trkpt>
      <trkpt lat="43.68769" lon="3.75933">
        <ele>270.5</ele>
        <time>2017-05-21T07:25:15Z</time>
      </trkpt>
      <trkpt lat="43.68768" lon="3.75927">
        <ele>270.6</ele>
        <time>2017-05-21T07:25:16Z</time>
      </trkpt>
      <trkpt lat="43.68767" lon="3.75922">
        <ele>270.7</ele>
        <time>2017-05-21T07:25:17Z</time>
      </trkpt>
      <trkpt lat="43.68766" lon="3.75917">
        <ele>270.8</ele>
        <time>2017-05-21T07:25:18Z</time>
      </trkpt>
      <trkpt lat="43.68765" lon="3.75911">
        <ele>271</ele>
        <time>2017-05-21T07:25:19Z</time>
      </trkpt>
      <trkpt lat="43.68764" lon="3.75906">
        <ele>271.1</ele>
        <time>2017-05-21T07:25:20Z</time>
      </trkpt>
      <trkpt lat="43.68763" lon="3.75901">
        <ele>271.2</ele>
        <time>2017-05-21T07:25:21Z</time>
      </trkpt>
      <trkpt lat="43.68761" lon="3.75897">
        <ele>271.3</ele>
        <time>2017-05-21T07:25:22Z</time>
      </trkpt>
      <trkpt lat="43.68759" lon="3.75891">
        <ele>271.4</ele>
        <time>2017-05-21T07:25:23Z</time>
      </trkpt>
      <trkpt lat="43.68758" lon="3.75887">
        <ele>271.4</ele>
        <time>2017-05-21T07:25:24Z</time>
      </trkpt>
      <trkpt lat="43.68756" lon="3.75882">
        <ele>271.5</ele>
        <time>2017-05-21T07:25:25Z</time>
      </trkpt>
      <trkpt lat="43.68754" lon="3.75877">
        <ele>271.6</ele>
        <time>2017-05-21T07:25:26Z</time>
      </trkpt>
      <trkpt lat="43.68752" lon="3.75872">
        <ele>271.6</ele>
        <time>2017-05-21T07:25:27Z</time>
      </trkpt>
      <trkpt lat="43.6875" lon="3.75867">
        <ele>271.7</ele>
        <time>2017-05-21T07:25:28Z</time>
      </trkpt>
      <trkpt lat="43.68747" lon="3.75863">
        <ele>271.7</ele>
        <time>2017-05-21T07:25:29Z</time>
      </trkpt>
      <trkpt lat="43.68744" lon="3.75859">
        <ele>271.7</ele>
        <time>2017-05-21T07:25:30Z</time>
      </trkpt>
      <trkpt lat="43.68741" lon="3.75855">
        <ele>271.7</ele>
        <time>2017-05-21T07:25:31Z</time>
      </trkpt>
      <trkpt lat="43.68737" lon="3.75851">
        <ele>271.7</ele>
        <time>2017-05-21T07:25:32Z</time>
      </trkpt>
      <trkpt lat="43.68734" lon="3.75847">
        <ele>271.8</ele>
        <time>2017-05-21T07:25:33Z</time>
      </trkpt>
      <trkpt lat="43.6873" lon="3.75843">
        <ele>271.8</ele>
        <time>2017-05-21T07:25:34Z</time>
      </trkpt>
      <trkpt lat="43.68726" lon="3.75839">
        <ele>271.7</ele>
        <time>2017-05-21T07:25:35Z</time>
      </trkpt>
      <trkpt lat="43.68722" lon="3.75835">
        <ele>271.7</ele>
        <time>2017-05-21T07:25:36Z</time>
      </trkpt>
      <trkpt lat="43.68719" lon="3.75831">
        <ele>271.7</ele>
        <time>2017-05-21T07:25:37Z</time>
      </trkpt>
      <trkpt lat="43.68714" lon="3.75826">
        <ele>271.6</ele>
        <time>2017-05-21T07:25:38Z</time>
      </trkpt>
      <trkpt lat="43.68711" lon="3.75822">
        <ele>271.6</ele>
        <time>2017-05-21T07:25:39Z</time>
      </trkpt>
      <trkpt lat="43.68707" lon="3.75818">
        <ele>271.4</ele>
        <time>2017-05-21T07:25:40Z</time>
      </trkpt>
      <trkpt lat="43.68704" lon="3.75815">
        <ele>271.3</ele>
        <time>2017-05-21T07:25:41Z</time>
      </trkpt>
      <trkpt lat="43.687" lon="3.75811">
        <ele>271.2</ele>
        <time>2017-05-21T07:25:42Z</time>
      </trkpt>
      <trkpt lat="43.68695" lon="3.75809">
        <ele>271</ele>
        <time>2017-05-21T07:25:43Z</time>
      </trkpt>
      <trkpt lat="43.6869" lon="3.75805">
        <ele>270.8</ele>
        <time>2017-05-21T07:25:44Z</time>
      </trkpt>
      <trkpt lat="43.68685" lon="3.75804">
        <ele>270.6</ele>
        <time>2017-05-21T07:25:45Z</time>
      </trkpt>
      <trkpt lat="43.6868" lon="3.75803">
        <ele>270.4</ele>
        <time>2017-05-21T07:25:46Z</time>
      </trkpt>
      <trkpt lat="43.68676" lon="3.75802">
        <ele>270.2</ele>
        <time>2017-05-21T07:25:47Z</time>
      </trkpt>
      <trkpt lat="43.68671" lon="3.75803">
        <ele>269.9</ele>
        <time>2017-05-21T07:25:48Z</time>
      </trkpt>
      <trkpt lat="43.68665" lon="3.75804">
        <ele>269.6</ele>
        <time>2017-05-21T07:25:49Z</time>
      </trkpt>
      <trkpt lat="43.68659" lon="3.75805">
        <ele>269.4</ele>
        <time>2017-05-21T07:25:50Z</time>
      </trkpt>
      <trkpt lat="43.68654" lon="3.75808">
        <ele>269.2</ele>
        <time>2017-05-21T07:25:51Z</time>
      </trkpt>
      <trkpt lat="43.68648" lon="3.75809">
        <ele>269</ele>
        <time>2017-05-21T07:25:52Z</time>
      </trkpt>
      <trkpt lat="43.68643" lon="3.75813">
        <ele>268.7</ele>
        <time>2017-05-21T07:25:53Z</time>
      </trkpt>
      <trkpt lat="43.68638" lon="3.75815">
        <ele>268.3</ele>
        <time>2017-05-21T07:25:54Z</time>
      </trkpt>
      <trkpt lat="43.68632" lon="3.75819">
        <ele>268.1</ele>
        <time>2017-05-21T07:25:55Z</time>
      </trkpt>
      <trkpt lat="43.68627" lon="3.75823">
        <ele>267.9</ele>
        <time>2017-05-21T07:25:56Z</time>
      </trkpt>
      <trkpt lat="43.68616" lon="3.75831">
        <ele>267.3</ele>
        <time>2017-05-21T07:25:58Z</time>
      </trkpt>
      <trkpt lat="43.6861" lon="3.75834">
        <ele>267.1</ele>
        <time>2017-05-21T07:25:59Z</time>
      </trkpt>
      <trkpt lat="43.68605" lon="3.75837">
        <ele>267</ele>
        <time>2017-05-21T07:26:00Z</time>
      </trkpt>
      <trkpt lat="43.68599" lon="3.75839">
        <ele>266.9</ele>
        <time>2017-05-21T07:26:01Z</time>
      </trkpt>
      <trkpt lat="43.68593" lon="3.7584">
        <ele>266.7</ele>
        <time>2017-05-21T07:26:02Z</time>
      </trkpt>
      <trkpt lat="43.68587" lon="3.75841">
        <ele>266.6</ele>
        <time>2017-05-21T07:26:03Z</time>
      </trkpt>
      <trkpt lat="43.6858" lon="3.75842">
        <ele>266.5</ele>
        <time>2017-05-21T07:26:04Z</time>
      </trkpt>
      <trkpt lat="43.68574" lon="3.75843">
        <ele>266.4</ele>
        <time>2017-05-21T07:26:05Z</time>
      </trkpt>
      <trkpt lat="43.68568" lon="3.75846">
        <ele>266.4</ele>
        <time>2017-05-21T07:26:06Z</time>
      </trkpt>
      <trkpt lat="43.68562" lon="3.75849">
        <ele>266.4</ele>
        <time>2017-05-21T07:26:07Z</time>
      </trkpt>
      <trkpt lat="43.68557" lon="3.75852">
        <ele>266.5</ele>
        <time>2017-05-21T07:26:08Z</time>
      </trkpt>
      <trkpt lat="43.68552" lon="3.75857">
        <ele>266.5</ele>
        <time>2017-05-21T07:26:09Z</time>
      </trkpt>
      <trkpt lat="43.68547" lon="3.75862">
        <ele>266.6</ele>
        <time>2017-05-21T07:26:10Z</time>
      </trkpt>
      <trkpt lat="43.68542" lon="3.75867">
        <ele>266.6</ele>
        <time>2017-05-21T07:26:11Z</time>
      </trkpt>
      <trkpt lat="43.68539" lon="3.75872">
        <ele>266.7</ele>
        <time>2017-05-21T07:26:12Z</time>
      </trkpt>
      <trkpt lat="43.68535" lon="3.75876">
        <ele>266.7</ele>
        <time>2017-05-21T07:26:13Z</time>
      </trkpt>
      <trkpt lat="43.68531" lon="3.7588">
        <ele>266.8</ele>
        <time>2017-05-21T07:26:14Z</time>
      </trkpt>
      <trkpt lat="43.68528" lon="3.75881">
        <ele>266.8</ele>
        <time>2017-05-21T07:26:15Z</time>
      </trkpt>
      <trkpt lat="43.68522" lon="3.75881">
        <ele>266.9</ele>
        <time>2017-05-21T07:26:16Z</time>
      </trkpt>
      <trkpt lat="43.68516" lon="3.75881">
        <ele>266.9</ele>
        <time>2017-05-21T07:26:17Z</time>
      </trkpt>
      <trkpt lat="43.68511" lon="3.75879">
        <ele>266.9</ele>
        <time>2017-05-21T07:26:18Z</time>
      </trkpt>
      <trkpt lat="43.68505" lon="3.75877">
        <ele>266.8</ele>
        <time>2017-05-21T07:26:19Z</time>
      </trkpt>
      <trkpt lat="43.68501" lon="3.75873">
        <ele>266.8</ele>
        <time>2017-05-21T07:26:20Z</time>
      </trkpt>
      <trkpt lat="43.68496" lon="3.7587">
        <ele>266.7</ele>
        <time>2017-05-21T07:26:21Z</time>
      </trkpt>
      <trkpt lat="43.68491" lon="3.75866">
        <ele>266.7</ele>
        <time>2017-05-21T07:26:22Z</time>
      </trkpt>
      <trkpt lat="43.68487" lon="3.75862">
        <ele>266.6</ele>
        <time>2017-05-21T07:26:23Z</time>
      </trkpt>
      <trkpt lat="43.68484" lon="3.75858">
        <ele>266.6</ele>
        <time>2017-05-21T07:26:24Z</time>
      </trkpt>
      <trkpt lat="43.68479" lon="3.75854">
        <ele>266.5</ele>
        <time>2017-05-21T07:26:25Z</time>
      </trkpt>
      <trkpt lat="43.68474" lon="3.75849">
        <ele>266.4</ele>
        <time>2017-05-21T07:26:26Z</time>
      </trkpt>
      <trkpt lat="43.68469" lon="3.75845">
        <ele>266.3</ele>
        <time>2017-05-21T07:26:27Z</time>
      </trkpt>
      <trkpt lat="43.68465" lon="3.75842">
        <ele>266.2</ele>
        <time>2017-05-21T07:26:28Z</time>
      </trkpt>
      <trkpt lat="43.6846" lon="3.75837">
        <ele>266.1</ele>
        <time>2017-05-21T07:26:29Z</time>
      </trkpt>
      <trkpt lat="43.68456" lon="3.75833">
        <ele>266.1</ele>
        <time>2017-05-21T07:26:30Z</time>
      </trkpt>
      <trkpt lat="43.68451" lon="3.75829">
        <ele>266.3</ele>
        <time>2017-05-21T07:26:31Z</time>
      </trkpt>
      <trkpt lat="43.68448" lon="3.75825">
        <ele>266.5</ele>
        <time>2017-05-21T07:26:32Z</time>
      </trkpt>
      <trkpt lat="43.68443" lon="3.75821">
        <ele>266.6</ele>
        <time>2017-05-21T07:26:33Z</time>
      </trkpt>
      <trkpt lat="43.68439" lon="3.75817">
        <ele>266.8</ele>
        <time>2017-05-21T07:26:34Z</time>
      </trkpt>
      <trkpt lat="43.68433" lon="3.75813">
        <ele>266.9</ele>
        <time>2017-05-21T07:26:35Z</time>
      </trkpt>
      <trkpt lat="43.6843" lon="3.7581">
        <ele>267</ele>
        <time>2017-05-21T07:26:36Z</time>
      </trkpt>
      <trkpt lat="43.68425" lon="3.75806">
        <ele>267.2</ele>
        <time>2017-05-21T07:26:37Z</time>
      </trkpt>
      <trkpt lat="43.68419" lon="3.75802">
        <ele>267.3</ele>
        <time>2017-05-21T07:26:38Z</time>
      </trkpt>
      <trkpt lat="43.68415" lon="3.75798">
        <ele>267.4</ele>
        <time>2017-05-21T07:26:39Z</time>
      </trkpt>
      <trkpt lat="43.68411" lon="3.75794">
        <ele>267.6</ele>
        <time>2017-05-21T07:26:40Z</time>
      </trkpt>
      <trkpt lat="43.68407" lon="3.75791">
        <ele>267.7</ele>
        <time>2017-05-21T07:26:41Z</time>
      </trkpt>
      <trkpt lat="43.68403" lon="3.75787">
        <ele>267.9</ele>
        <time>2017-05-21T07:26:42Z</time>
      </trkpt>
      <trkpt lat="43.68398" lon="3.75784">
        <ele>268</ele>
        <time>2017-05-21T07:26:43Z</time>
      </trkpt>
      <trkpt lat="43.68394" lon="3.7578">
        <ele>268.2</ele>
        <time>2017-05-21T07:26:44Z</time>
      </trkpt>
      <trkpt lat="43.6839" lon="3.75777">
        <ele>268.3</ele>
        <time>2017-05-21T07:26:45Z</time>
      </trkpt>
      <trkpt lat="43.68387" lon="3.75774">
        <ele>268.4</ele>
        <time>2017-05-21T07:26:46Z</time>
      </trkpt>
      <trkpt lat="43.68383" lon="3.75771">
        <ele>268.5</ele>
        <time>2017-05-21T07:26:47Z</time>
      </trkpt>
      <trkpt lat="43.6838" lon="3.75769">
        <ele>268.7</ele>
        <time>2017-05-21T07:26:48Z</time>
      </trkpt>
      <trkpt lat="43.68377" lon="3.75766">
        <ele>268.8</ele>
        <time>2017-05-21T07:26:49Z</time>
      </trkpt>
      <trkpt lat="43.68372" lon="3.75762">
        <ele>269</ele>
        <time>2017-05-21T07:26:50Z</time>
      </trkpt>
      <trkpt lat="43.68369" lon="3.75759">
        <ele>269.2</ele>
        <time>2017-05-21T07:26:51Z</time>
      </trkpt>
      <trkpt lat="43.68365" lon="3.75756">
        <ele>269.4</ele>
        <time>2017-05-21T07:26:52Z</time>
      </trkpt>
      <trkpt lat="43.68363" lon="3.75753">
        <ele>269.5</ele>
        <time>2017-05-21T07:26:53Z</time>
      </trkpt>
      <trkpt lat="43.68359" lon="3.75751">
        <ele>269.7</ele>
        <time>2017-05-21T07:26:54Z</time>
      </trkpt>
      <trkpt lat="43.68356" lon="3.75747">
        <ele>269.9</ele>
        <time>2017-05-21T07:26:55Z</time>
      </trkpt>
      <trkpt lat="43.68352" lon="3.75744">
        <ele>270</ele>
        <time>2017-05-21T07:26:56Z</time>
      </trkpt>
      <trkpt lat="43.68348" lon="3.75741">
        <ele>270.2</ele>
        <time>2017-05-21T07:26:57Z</time>
      </trkpt>
      <trkpt lat="43.68344" lon="3.75738">
        <ele>270.3</ele>
        <time>2017-05-21T07:26:58Z</time>
      </trkpt>
      <trkpt lat="43.68341" lon="3.75735">
        <ele>270.4</ele>
        <time>2017-05-21T07:26:59Z</time>
      </trkpt>
      <trkpt lat="43.68337" lon="3.75733">
        <ele>270.5</ele>
        <time>2017-05-21T07:27:00Z</time>
      </trkpt>
      <trkpt lat="43.68335" lon="3.7573">
        <ele>270.6</ele>
        <time>2017-05-21T07:27:01Z</time>
      </trkpt>
      <trkpt lat="43.68332" lon="3.75727">
        <ele>270.7</ele>
        <time>2017-05-21T07:27:02Z</time>
      </trkpt>
      <trkpt lat="43.68328" lon="3.75723">
        <ele>270.8</ele>
        <time>2017-05-21T07:27:03Z</time>
      </trkpt>
      <trkpt lat="43.68324" lon="3.7572">
        <ele>271</ele>
        <time>2017-05-21T07:27:04Z</time>
      </trkpt>
      <trkpt lat="43.6832" lon="3.75718">
        <ele>271.1</ele>
        <time>2017-05-21T07:27:05Z</time>
      </trkpt>
      <trkpt lat="43.68317" lon="3.75715">
        <ele>271.2</ele>
        <time>2017-05-21T07:27:06Z</time>
      </trkpt>
      <trkpt lat="43.68313" lon="3.75713">
        <ele>271.4</ele>
        <time>2017-05-21T07:27:07Z</time>
      </trkpt>
      <trkpt lat="43.68311" lon="3.7571">
        <ele>271.6</ele>
        <time>2017-05-21T07:27:08Z</time>
      </trkpt>
      <trkpt lat="43.68307" lon="3.75707">
        <ele>271.7</ele>
        <time>2017-05-21T07:27:09Z</time>
      </trkpt>
      <trkpt lat="43.68304" lon="3.75704">
        <ele>271.8</ele>
        <time>2017-05-21T07:27:10Z</time>
      </trkpt>
      <trkpt lat="43.683" lon="3.75701">
        <ele>271.9</ele>
        <time>2017-05-21T07:27:11Z</time>
      </trkpt>
      <trkpt lat="43.68296" lon="3.75699">
        <ele>272</ele>
        <time>2017-05-21T07:27:12Z</time>
      </trkpt>
      <trkpt lat="43.68293" lon="3.75695">
        <ele>272.2</ele>
        <time>2017-05-21T07:27:13Z</time>
      </trkpt>
      <trkpt lat="43.6829" lon="3.75692">
        <ele>272.3</ele>
        <time>2017-05-21T07:27:14Z</time>
      </trkpt>
      <trkpt lat="43.68286" lon="3.75689">
        <ele>272.4</ele>
        <time>2017-05-21T07:27:15Z</time>
      </trkpt>
      <trkpt lat="43.68284" lon="3.75686">
        <ele>272.5</ele>
        <time>2017-05-21T07:27:16Z</time>
      </trkpt>
      <trkpt lat="43.68281" lon="3.75683">
        <ele>272.7</ele>
        <time>2017-05-21T07:27:17Z</time>
      </trkpt>
      <trkpt lat="43.68279" lon="3.7568">
        <ele>272.8</ele>
        <time>2017-05-21T07:27:18Z</time>
      </trkpt>
      <trkpt lat="43.68276" lon="3.75678">
        <ele>272.9</ele>
        <time>2017-05-21T07:27:19Z</time>
      </trkpt>
      <trkpt lat="43.68273" lon="3.75675">
        <ele>273</ele>
        <time>2017-05-21T07:27:20Z</time>
      </trkpt>
      <trkpt lat="43.6827" lon="3.75672">
        <ele>273.2</ele>
        <time>2017-05-21T07:27:21Z</time>
      </trkpt>
      <trkpt lat="43.68267" lon="3.75669">
        <ele>273.3</ele>
        <time>2017-05-21T07:27:22Z</time>
      </trkpt>
      <trkpt lat="43.68264" lon="3.75666">
        <ele>273.4</ele>
        <time>2017-05-21T07:27:23Z</time>
      </trkpt>
      <trkpt lat="43.68261" lon="3.75663">
        <ele>273.5</ele>
        <time>2017-05-21T07:27:24Z</time>
      </trkpt>
      <trkpt lat="43.68258" lon="3.75661">
        <ele>273.6</ele>
        <time>2017-05-21T07:27:25Z</time>
      </trkpt>
      <trkpt lat="43.68255" lon="3.75658">
        <ele>273.7</ele>
        <time>2017-05-21T07:27:26Z</time>
      </trkpt>
      <trkpt lat="43.68251" lon="3.75655">
        <ele>273.8</ele>
        <time>2017-05-21T07:27:27Z</time>
      </trkpt>
      <trkpt lat="43.68248" lon="3.75652">
        <ele>273.9</ele>
        <time>2017-05-21T07:27:28Z</time>
      </trkpt>
      <trkpt lat="43.68244" lon="3.75649">
        <ele>274</ele>
        <time>2017-05-21T07:27:29Z</time>
      </trkpt>
      <trkpt lat="43.68241" lon="3.75646">
        <ele>274.1</ele>
        <time>2017-05-21T07:27:30Z</time>
      </trkpt>
      <trkpt lat="43.68237" lon="3.75643">
        <ele>274.2</ele>
        <time>2017-05-21T07:27:31Z</time>
      </trkpt>
      <trkpt lat="43.68234" lon="3.7564">
        <ele>274.4</ele>
        <time>2017-05-21T07:27:32Z</time>
      </trkpt>
      <trkpt lat="43.68229" lon="3.75637">
        <ele>274.5</ele>
        <time>2017-05-21T07:27:33Z</time>
      </trkpt>
      <trkpt lat="43.68226" lon="3.75635">
        <ele>274.6</ele>
        <time>2017-05-21T07:27:34Z</time>
      </trkpt>
      <trkpt lat="43.68223" lon="3.75633">
        <ele>274.7</ele>
        <time>2017-05-21T07:27:35Z</time>
      </trkpt>
      <trkpt lat="43.6822" lon="3.75631">
        <ele>274.9</ele>
        <time>2017-05-21T07:27:36Z</time>
      </trkpt>
      <trkpt lat="43.68217" lon="3.7563">
        <ele>275</ele>
        <time>2017-05-21T07:27:37Z</time>
      </trkpt>
      <trkpt lat="43.68213" lon="3.75628">
        <ele>275.1</ele>
        <time>2017-05-21T07:27:38Z</time>
      </trkpt>
      <trkpt lat="43.6821" lon="3.75627">
        <ele>275.4</ele>
        <time>2017-05-21T07:27:39Z</time>
      </trkpt>
      <trkpt lat="43.68206" lon="3.75626">
        <ele>275.6</ele>
        <time>2017-05-21T07:27:40Z</time>
      </trkpt>
      <trkpt lat="43.68202" lon="3.75625">
        <ele>276</ele>
        <time>2017-05-21T07:27:41Z</time>
      </trkpt>
      <trkpt lat="43.68198" lon="3.75622">
        <ele>276.2</ele>
        <time>2017-05-21T07:27:42Z</time>
      </trkpt>
      <trkpt lat="43.68196" lon="3.7562">
        <ele>276.3</ele>
        <time>2017-05-21T07:27:43Z</time>
      </trkpt>
      <trkpt lat="43.68192" lon="3.75617">
        <ele>276.3</ele>
        <time>2017-05-21T07:27:44Z</time>
      </trkpt>
      <trkpt lat="43.68189" lon="3.75609">
        <ele>276.2</ele>
        <time>2017-05-21T07:27:46Z</time>
      </trkpt>
      <trkpt lat="43.68187" lon="3.75604">
        <ele>276.2</ele>
        <time>2017-05-21T07:27:47Z</time>
      </trkpt>
      <trkpt lat="43.68185" lon="3.756">
        <ele>276.2</ele>
        <time>2017-05-21T07:27:48Z</time>
      </trkpt>
      <trkpt lat="43.68182" lon="3.75596">
        <ele>276</ele>
        <time>2017-05-21T07:27:49Z</time>
      </trkpt>
      <trkpt lat="43.6818" lon="3.75592">
        <ele>275.9</ele>
        <time>2017-05-21T07:27:50Z</time>
      </trkpt>
      <trkpt lat="43.68178" lon="3.75589">
        <ele>275.8</ele>
        <time>2017-05-21T07:27:51Z</time>
      </trkpt>
      <trkpt lat="43.68176" lon="3.75586">
        <ele>275.6</ele>
        <time>2017-05-21T07:27:52Z</time>
      </trkpt>
      <trkpt lat="43.68173" lon="3.75583">
        <ele>275.3</ele>
        <time>2017-05-21T07:27:54Z</time>
      </trkpt>
      <trkpt lat="43.68171" lon="3.75579">
        <ele>275.2</ele>
        <time>2017-05-21T07:27:57Z</time>
      </trkpt>
      <trkpt lat="43.68174" lon="3.75579">
        <ele>275</ele>
        <time>2017-05-21T07:28:10Z</time>
      </trkpt>
      <trkpt lat="43.68172" lon="3.75575">
        <ele>274.8</ele>
        <time>2017-05-21T07:28:22Z</time>
      </trkpt>
      <trkpt lat="43.68168" lon="3.75572">
        <ele>274.6</ele>
        <time>2017-05-21T07:28:24Z</time>
      </trkpt>
      <trkpt lat="43.68165" lon="3.7557">
        <ele>274.3</ele>
        <time>2017-05-21T07:28:25Z</time>
      </trkpt>
      <trkpt lat="43.68163" lon="3.75568">
        <ele>274.1</ele>
        <time>2017-05-21T07:28:26Z</time>
      </trkpt>
      <trkpt lat="43.68159" lon="3.75565">
        <ele>273.9</ele>
        <time>2017-05-21T07:28:27Z</time>
      </trkpt>
      <trkpt lat="43.68156" lon="3.75562">
        <ele>273.7</ele>
        <time>2017-05-21T07:28:28Z</time>
      </trkpt>
      <trkpt lat="43.68153" lon="3.75559">
        <ele>273.6</ele>
        <time>2017-05-21T07:28:29Z</time>
      </trkpt>
      <trkpt lat="43.6815" lon="3.75557">
        <ele>273.4</ele>
        <time>2017-05-21T07:28:30Z</time>
      </trkpt>
      <trkpt lat="43.68146" lon="3.75554">
        <ele>273.2</ele>
        <time>2017-05-21T07:28:31Z</time>
      </trkpt>
      <trkpt lat="43.68143" lon="3.75549">
        <ele>273</ele>
        <time>2017-05-21T07:28:32Z</time>
      </trkpt>
      <trkpt lat="43.68139" lon="3.75547">
        <ele>272.9</ele>
        <time>2017-05-21T07:28:33Z</time>
      </trkpt>
      <trkpt lat="43.68136" lon="3.75543">
        <ele>272.7</ele>
        <time>2017-05-21T07:28:34Z</time>
      </trkpt>
      <trkpt lat="43.68133" lon="3.7554">
        <ele>272.6</ele>
        <time>2017-05-21T07:28:35Z</time>
      </trkpt>
      <trkpt lat="43.6813" lon="3.75537">
        <ele>272.4</ele>
        <time>2017-05-21T07:28:36Z</time>
      </trkpt>
      <trkpt lat="43.68126" lon="3.75533">
        <ele>272.2</ele>
        <time>2017-05-21T07:28:37Z</time>
      </trkpt>
      <trkpt lat="43.68122" lon="3.7553">
        <ele>271.9</ele>
        <time>2017-05-21T07:28:38Z</time>
      </trkpt>
      <trkpt lat="43.68118" lon="3.75526">
        <ele>271.6</ele>
        <time>2017-05-21T07:28:39Z</time>
      </trkpt>
      <trkpt lat="43.68115" lon="3.75522">
        <ele>271.3</ele>
        <time>2017-05-21T07:28:40Z</time>
      </trkpt>
      <trkpt lat="43.68111" lon="3.7552">
        <ele>271.1</ele>
        <time>2017-05-21T07:28:41Z</time>
      </trkpt>
      <trkpt lat="43.68108" lon="3.75517">
        <ele>270.8</ele>
        <time>2017-05-21T07:28:42Z</time>
      </trkpt>
      <trkpt lat="43.68104" lon="3.75514">
        <ele>270.7</ele>
        <time>2017-05-21T07:28:43Z</time>
      </trkpt>
      <trkpt lat="43.681" lon="3.75512">
        <ele>270.5</ele>
        <time>2017-05-21T07:28:44Z</time>
      </trkpt>
      <trkpt lat="43.68093" lon="3.75508">
        <ele>270.1</ele>
        <time>2017-05-21T07:28:46Z</time>
      </trkpt>
      <trkpt lat="43.6809" lon="3.75506">
        <ele>269.9</ele>
        <time>2017-05-21T07:28:47Z</time>
      </trkpt>
      <trkpt lat="43.68086" lon="3.75504">
        <ele>269.6</ele>
        <time>2017-05-21T07:28:48Z</time>
      </trkpt>
      <trkpt lat="43.68083" lon="3.75502">
        <ele>269.4</ele>
        <time>2017-05-21T07:28:49Z</time>
      </trkpt>
      <trkpt lat="43.6808" lon="3.755">
        <ele>269.2</ele>
        <time>2017-05-21T07:28:50Z</time>
      </trkpt>
      <trkpt lat="43.68077" lon="3.75499">
        <ele>269</ele>
        <time>2017-05-21T07:28:51Z</time>
      </trkpt>
      <trkpt lat="43.68074" lon="3.75497">
        <ele>268.7</ele>
        <time>2017-05-21T07:28:52Z</time>
      </trkpt>
      <trkpt lat="43.68071" lon="3.75495">
        <ele>268.4</ele>
        <time>2017-05-21T07:28:53Z</time>
      </trkpt>
      <trkpt lat="43.68068" lon="3.75494">
        <ele>268.2</ele>
        <time>2017-05-21T07:28:54Z</time>
      </trkpt>
      <trkpt lat="43.68065" lon="3.75492">
        <ele>267.9</ele>
        <time>2017-05-21T07:28:55Z</time>
      </trkpt>
      <trkpt lat="43.68062" lon="3.75491">
        <ele>267.7</ele>
        <time>2017-05-21T07:28:56Z</time>
      </trkpt>
      <trkpt lat="43.68059" lon="3.75488">
        <ele>267.4</ele>
        <time>2017-05-21T07:28:58Z</time>
      </trkpt>
      <trkpt lat="43.68056" lon="3.75486">
        <ele>267.2</ele>
        <time>2017-05-21T07:29:01Z</time>
      </trkpt>
      <trkpt lat="43.68054" lon="3.75481">
        <ele>266.9</ele>
        <time>2017-05-21T07:29:44Z</time>
      </trkpt>
      <trkpt lat="43.68053" lon="3.75478">
        <ele>266.7</ele>
        <time>2017-05-21T07:29:50Z</time>
      </trkpt>
      <trkpt lat="43.68052" lon="3.75484">
        <ele>266.8</ele>
        <time>2017-05-21T07:30:17Z</time>
      </trkpt>
      <trkpt lat="43.68055" lon="3.75487">
        <ele>267.1</ele>
        <time>2017-05-21T07:30:19Z</time>
      </trkpt>
      <trkpt lat="43.68059" lon="3.7549">
        <ele>267.4</ele>
        <time>2017-05-21T07:30:21Z</time>
      </trkpt>
      <trkpt lat="43.68062" lon="3.75492">
        <ele>267.6</ele>
        <time>2017-05-21T07:30:22Z</time>
      </trkpt>
      <trkpt lat="43.68065" lon="3.75494">
        <ele>267.9</ele>
        <time>2017-05-21T07:30:23Z</time>
      </trkpt>
      <trkpt lat="43.6807" lon="3.75497">
        <ele>268.3</ele>
        <time>2017-05-21T07:30:25Z</time>
      </trkpt>
      <trkpt lat="43.68074" lon="3.755">
        <ele>268.8</ele>
        <time>2017-05-21T07:30:27Z</time>
      </trkpt>
      <trkpt lat="43.6808" lon="3.75502">
        <ele>269.2</ele>
        <time>2017-05-21T07:30:29Z</time>
      </trkpt>
      <trkpt lat="43.68084" lon="3.75505">
        <ele>269.5</ele>
        <time>2017-05-21T07:30:31Z</time>
      </trkpt>
      <trkpt lat="43.68089" lon="3.75508">
        <ele>269.9</ele>
        <time>2017-05-21T07:30:33Z</time>
      </trkpt>
      <trkpt lat="43.68094" lon="3.7551">
        <ele>270.2</ele>
        <time>2017-05-21T07:30:35Z</time>
      </trkpt>
      <trkpt lat="43.68097" lon="3.75511">
        <ele>270.4</ele>
        <time>2017-05-21T07:30:36Z</time>
      </trkpt>
      <trkpt lat="43.68099" lon="3.75513">
        <ele>270.5</ele>
        <time>2017-05-21T07:30:37Z</time>
      </trkpt>
      <trkpt lat="43.68105" lon="3.75516">
        <ele>270.7</ele>
        <time>2017-05-21T07:30:39Z</time>
      </trkpt>
      <trkpt lat="43.68108" lon="3.75518">
        <ele>270.9</ele>
        <time>2017-05-21T07:30:40Z</time>
      </trkpt>
      <trkpt lat="43.68111" lon="3.7552">
        <ele>271.1</ele>
        <time>2017-05-21T07:30:41Z</time>
      </trkpt>
      <trkpt lat="43.68113" lon="3.75522">
        <ele>271.3</ele>
        <time>2017-05-21T07:30:42Z</time>
      </trkpt>
      <trkpt lat="43.68116" lon="3.75525">
        <ele>271.5</ele>
        <time>2017-05-21T07:30:43Z</time>
      </trkpt>
      <trkpt lat="43.68119" lon="3.75528">
        <ele>271.8</ele>
        <time>2017-05-21T07:30:44Z</time>
      </trkpt>
      <trkpt lat="43.68122" lon="3.75531">
        <ele>272</ele>
        <time>2017-05-21T07:30:45Z</time>
      </trkpt>
      <trkpt lat="43.68125" lon="3.75534">
        <ele>272.2</ele>
        <time>2017-05-21T07:30:46Z</time>
      </trkpt>
      <trkpt lat="43.68127" lon="3.75537">
        <ele>272.4</ele>
        <time>2017-05-21T07:30:47Z</time>
      </trkpt>
      <trkpt lat="43.6813" lon="3.75539">
        <ele>272.5</ele>
        <time>2017-05-21T07:30:48Z</time>
      </trkpt>
      <trkpt lat="43.68132" lon="3.75541">
        <ele>272.6</ele>
        <time>2017-05-21T07:30:49Z</time>
      </trkpt>
      <trkpt lat="43.68136" lon="3.75547">
        <ele>272.8</ele>
        <time>2017-05-21T07:30:51Z</time>
      </trkpt>
      <trkpt lat="43.68138" lon="3.7555">
        <ele>272.9</ele>
        <time>2017-05-21T07:30:52Z</time>
      </trkpt>
      <trkpt lat="43.6814" lon="3.75552">
        <ele>273</ele>
        <time>2017-05-21T07:30:53Z</time>
      </trkpt>
      <trkpt lat="43.68145" lon="3.75557">
        <ele>273.2</ele>
        <time>2017-05-21T07:30:55Z</time>
      </trkpt>
      <trkpt lat="43.68148" lon="3.75559">
        <ele>273.4</ele>
        <time>2017-05-21T07:30:56Z</time>
      </trkpt>
      <trkpt lat="43.68151" lon="3.75562">
        <ele>273.5</ele>
        <time>2017-05-21T07:30:57Z</time>
      </trkpt>
      <trkpt lat="43.68156" lon="3.75566">
        <ele>273.8</ele>
        <time>2017-05-21T07:30:59Z</time>
      </trkpt>
      <trkpt lat="43.68158" lon="3.75568">
        <ele>274</ele>
        <time>2017-05-21T07:31:00Z</time>
      </trkpt>
      <trkpt lat="43.68163" lon="3.75572">
        <ele>274.2</ele>
        <time>2017-05-21T07:31:02Z</time>
      </trkpt>
      <trkpt lat="43.68165" lon="3.75575">
        <ele>274.5</ele>
        <time>2017-05-21T07:31:03Z</time>
      </trkpt>
      <trkpt lat="43.68167" lon="3.75577">
        <ele>274.7</ele>
        <time>2017-05-21T07:31:04Z</time>
      </trkpt>
      <trkpt lat="43.68172" lon="3.75582">
        <ele>275</ele>
        <time>2017-05-21T07:31:06Z</time>
      </trkpt>
      <trkpt lat="43.68174" lon="3.75584">
        <ele>275.2</ele>
        <time>2017-05-21T07:31:07Z</time>
      </trkpt>
      <trkpt lat="43.68176" lon="3.75588">
        <ele>275.3</ele>
        <time>2017-05-21T07:31:08Z</time>
      </trkpt>
      <trkpt lat="43.68178" lon="3.75592">
        <ele>275.6</ele>
        <time>2017-05-21T07:31:09Z</time>
      </trkpt>
      <trkpt lat="43.6818" lon="3.75595">
        <ele>275.8</ele>
        <time>2017-05-21T07:31:10Z</time>
      </trkpt>
      <trkpt lat="43.68181" lon="3.75599">
        <ele>275.9</ele>
        <time>2017-05-21T07:31:11Z</time>
      </trkpt>
      <trkpt lat="43.68183" lon="3.75602">
        <ele>276</ele>
        <time>2017-05-21T07:31:12Z</time>
      </trkpt>
      <trkpt lat="43.68185" lon="3.75606">
        <ele>276.1</ele>
        <time>2017-05-21T07:31:13Z</time>
      </trkpt>
      <trkpt lat="43.68187" lon="3.75609">
        <ele>276.2</ele>
        <time>2017-05-21T07:31:14Z</time>
      </trkpt>
      <trkpt lat="43.6819" lon="3.75612">
        <ele>276.2</ele>
        <time>2017-05-21T07:31:15Z</time>
      </trkpt>
      <trkpt lat="43.68193" lon="3.75615">
        <ele>276.3</ele>
        <time>2017-05-21T07:31:16Z</time>
      </trkpt>
      <trkpt lat="43.68197" lon="3.75618">
        <ele>276.3</ele>
        <time>2017-05-21T07:31:17Z</time>
      </trkpt>
      <trkpt lat="43.68199" lon="3.7562">
        <ele>276.3</ele>
        <time>2017-05-21T07:31:18Z</time>
      </trkpt>
      <trkpt lat="43.68205" lon="3.75623">
        <ele>276.2</ele>
        <time>2017-05-21T07:31:20Z</time>
      </trkpt>
      <trkpt lat="43.68209" lon="3.75624">
        <ele>275.9</ele>
        <time>2017-05-21T07:31:21Z</time>
      </trkpt>
      <trkpt lat="43.68213" lon="3.75626">
        <ele>275.5</ele>
        <time>2017-05-21T07:31:22Z</time>
      </trkpt>
      <trkpt lat="43.68217" lon="3.75627">
        <ele>275.2</ele>
        <time>2017-05-21T07:31:23Z</time>
      </trkpt>
      <trkpt lat="43.68222" lon="3.7563">
        <ele>275</ele>
        <time>2017-05-21T07:31:24Z</time>
      </trkpt>
      <trkpt lat="43.68225" lon="3.75632">
        <ele>274.8</ele>
        <time>2017-05-21T07:31:25Z</time>
      </trkpt>
      <trkpt lat="43.68229" lon="3.75634">
        <ele>274.7</ele>
        <time>2017-05-21T07:31:26Z</time>
      </trkpt>
      <trkpt lat="43.68233" lon="3.75637">
        <ele>274.5</ele>
        <time>2017-05-21T07:31:27Z</time>
      </trkpt>
      <trkpt lat="43.68237" lon="3.75642">
        <ele>274.4</ele>
        <time>2017-05-21T07:31:28Z</time>
      </trkpt>
      <trkpt lat="43.6824" lon="3.75645">
        <ele>274.2</ele>
        <time>2017-05-21T07:31:29Z</time>
      </trkpt>
      <trkpt lat="43.68244" lon="3.75648">
        <ele>274.1</ele>
        <time>2017-05-21T07:31:30Z</time>
      </trkpt>
      <trkpt lat="43.68247" lon="3.75651">
        <ele>274</ele>
        <time>2017-05-21T07:31:31Z</time>
      </trkpt>
      <trkpt lat="43.68251" lon="3.75655">
        <ele>273.9</ele>
        <time>2017-05-21T07:31:32Z</time>
      </trkpt>
      <trkpt lat="43.68255" lon="3.75657">
        <ele>273.8</ele>
        <time>2017-05-21T07:31:33Z</time>
      </trkpt>
      <trkpt lat="43.68258" lon="3.75661">
        <ele>273.7</ele>
        <time>2017-05-21T07:31:34Z</time>
      </trkpt>
      <trkpt lat="43.68262" lon="3.75664">
        <ele>273.6</ele>
        <time>2017-05-21T07:31:35Z</time>
      </trkpt>
      <trkpt lat="43.68266" lon="3.75667">
        <ele>273.4</ele>
        <time>2017-05-21T07:31:36Z</time>
      </trkpt>
      <trkpt lat="43.68271" lon="3.75671">
        <ele>273.3</ele>
        <time>2017-05-21T07:31:37Z</time>
      </trkpt>
      <trkpt lat="43.68275" lon="3.75675">
        <ele>273.1</ele>
        <time>2017-05-21T07:31:38Z</time>
      </trkpt>
      <trkpt lat="43.68279" lon="3.75678">
        <ele>273</ele>
        <time>2017-05-21T07:31:39Z</time>
      </trkpt>
      <trkpt lat="43.68283" lon="3.75681">
        <ele>272.8</ele>
        <time>2017-05-21T07:31:40Z</time>
      </trkpt>
      <trkpt lat="43.68287" lon="3.75684">
        <ele>272.6</ele>
        <time>2017-05-21T07:31:41Z</time>
      </trkpt>
      <trkpt lat="43.68291" lon="3.75688">
        <ele>272.4</ele>
        <time>2017-05-21T07:31:42Z</time>
      </trkpt>
      <trkpt lat="43.68295" lon="3.75691">
        <ele>272.2</ele>
        <time>2017-05-21T07:31:43Z</time>
      </trkpt>
      <trkpt lat="43.683" lon="3.75696">
        <ele>272.1</ele>
        <time>2017-05-21T07:31:44Z</time>
      </trkpt>
      <trkpt lat="43.68304" lon="3.75699">
        <ele>272</ele>
        <time>2017-05-21T07:31:45Z</time>
      </trkpt>
      <trkpt lat="43.68308" lon="3.75703">
        <ele>271.8</ele>
        <time>2017-05-21T07:31:46Z</time>
      </trkpt>
      <trkpt lat="43.68312" lon="3.75707">
        <ele>271.7</ele>
        <time>2017-05-21T07:31:47Z</time>
      </trkpt>
      <trkpt lat="43.68315" lon="3.75711">
        <ele>271.5</ele>
        <time>2017-05-21T07:31:48Z</time>
      </trkpt>
      <trkpt lat="43.68319" lon="3.75714">
        <ele>271.3</ele>
        <time>2017-05-21T07:31:49Z</time>
      </trkpt>
      <trkpt lat="43.68323" lon="3.75717">
        <ele>271.1</ele>
        <time>2017-05-21T07:31:50Z</time>
      </trkpt>
      <trkpt lat="43.68326" lon="3.75721">
        <ele>271</ele>
        <time>2017-05-21T07:31:51Z</time>
      </trkpt>
      <trkpt lat="43.68329" lon="3.75724">
        <ele>270.9</ele>
        <time>2017-05-21T07:31:52Z</time>
      </trkpt>
      <trkpt lat="43.68333" lon="3.75727">
        <ele>270.7</ele>
        <time>2017-05-21T07:31:53Z</time>
      </trkpt>
      <trkpt lat="43.68337" lon="3.7573">
        <ele>270.6</ele>
        <time>2017-05-21T07:31:54Z</time>
      </trkpt>
      <trkpt lat="43.68341" lon="3.75734">
        <ele>270.5</ele>
        <time>2017-05-21T07:31:55Z</time>
      </trkpt>
      <trkpt lat="43.68344" lon="3.75738">
        <ele>270.4</ele>
        <time>2017-05-21T07:31:56Z</time>
      </trkpt>
      <trkpt lat="43.68349" lon="3.75741">
        <ele>270.2</ele>
        <time>2017-05-21T07:31:57Z</time>
      </trkpt>
      <trkpt lat="43.68353" lon="3.75746">
        <ele>270.1</ele>
        <time>2017-05-21T07:31:58Z</time>
      </trkpt>
      <trkpt lat="43.68357" lon="3.7575">
        <ele>269.9</ele>
        <time>2017-05-21T07:31:59Z</time>
      </trkpt>
      <trkpt lat="43.68361" lon="3.75754">
        <ele>269.7</ele>
        <time>2017-05-21T07:32:00Z</time>
      </trkpt>
      <trkpt lat="43.68365" lon="3.75757">
        <ele>269.5</ele>
        <time>2017-05-21T07:32:01Z</time>
      </trkpt>
      <trkpt lat="43.68369" lon="3.75761">
        <ele>269.2</ele>
        <time>2017-05-21T07:32:02Z</time>
      </trkpt>
      <trkpt lat="43.68374" lon="3.75765">
        <ele>269</ele>
        <time>2017-05-21T07:32:03Z</time>
      </trkpt>
      <trkpt lat="43.68378" lon="3.75769">
        <ele>268.8</ele>
        <time>2017-05-21T07:32:04Z</time>
      </trkpt>
      <trkpt lat="43.68383" lon="3.75773">
        <ele>268.6</ele>
        <time>2017-05-21T07:32:05Z</time>
      </trkpt>
      <trkpt lat="43.68387" lon="3.75776">
        <ele>268.5</ele>
        <time>2017-05-21T07:32:06Z</time>
      </trkpt>
      <trkpt lat="43.68391" lon="3.75779">
        <ele>268.3</ele>
        <time>2017-05-21T07:32:07Z</time>
      </trkpt>
      <trkpt lat="43.68396" lon="3.75783">
        <ele>268.1</ele>
        <time>2017-05-21T07:32:08Z</time>
      </trkpt>
      <trkpt lat="43.684" lon="3.75788">
        <ele>268</ele>
        <time>2017-05-21T07:32:09Z</time>
      </trkpt>
      <trkpt lat="43.68405" lon="3.75792">
        <ele>267.8</ele>
        <time>2017-05-21T07:32:10Z</time>
      </trkpt>
      <trkpt lat="43.68411" lon="3.75796">
        <ele>267.6</ele>
        <time>2017-05-21T07:32:11Z</time>
      </trkpt>
      <trkpt lat="43.68416" lon="3.75801">
        <ele>267.4</ele>
        <time>2017-05-21T07:32:12Z</time>
      </trkpt>
      <trkpt lat="43.68422" lon="3.75805">
        <ele>267.3</ele>
        <time>2017-05-21T07:32:13Z</time>
      </trkpt>
      <trkpt lat="43.68427" lon="3.75808">
        <ele>267.1</ele>
        <time>2017-05-21T07:32:14Z</time>
      </trkpt>
      <trkpt lat="43.68432" lon="3.75814">
        <ele>267</ele>
        <time>2017-05-21T07:32:15Z</time>
      </trkpt>
      <trkpt lat="43.68437" lon="3.75818">
        <ele>266.8</ele>
        <time>2017-05-21T07:32:16Z</time>
      </trkpt>
      <trkpt lat="43.68442" lon="3.75821">
        <ele>266.7</ele>
        <time>2017-05-21T07:32:17Z</time>
      </trkpt>
      <trkpt lat="43.68447" lon="3.75825">
        <ele>266.5</ele>
        <time>2017-05-21T07:32:18Z</time>
      </trkpt>
      <trkpt lat="43.68453" lon="3.7583">
        <ele>266.3</ele>
        <time>2017-05-21T07:32:19Z</time>
      </trkpt>
      <trkpt lat="43.68457" lon="3.75834">
        <ele>266.2</ele>
        <time>2017-05-21T07:32:20Z</time>
      </trkpt>
      <trkpt lat="43.68461" lon="3.75837">
        <ele>266.1</ele>
        <time>2017-05-21T07:32:21Z</time>
      </trkpt>
      <trkpt lat="43.68464" lon="3.7584">
        <ele>266.1</ele>
        <time>2017-05-21T07:32:22Z</time>
      </trkpt>
      <trkpt lat="43.68468" lon="3.75843">
        <ele>266.2</ele>
        <time>2017-05-21T07:32:23Z</time>
      </trkpt>
      <trkpt lat="43.68472" lon="3.75845">
        <ele>266.3</ele>
        <time>2017-05-21T07:32:24Z</time>
      </trkpt>
      <trkpt lat="43.68475" lon="3.75849">
        <ele>266.4</ele>
        <time>2017-05-21T07:32:25Z</time>
      </trkpt>
      <trkpt lat="43.68479" lon="3.75852">
        <ele>266.5</ele>
        <time>2017-05-21T07:32:26Z</time>
      </trkpt>
      <trkpt lat="43.68482" lon="3.75855">
        <ele>266.5</ele>
        <time>2017-05-21T07:32:27Z</time>
      </trkpt>
      <trkpt lat="43.68486" lon="3.75859">
        <ele>266.6</ele>
        <time>2017-05-21T07:32:28Z</time>
      </trkpt>
      <trkpt lat="43.6849" lon="3.75862">
        <ele>266.6</ele>
        <time>2017-05-21T07:32:29Z</time>
      </trkpt>
      <trkpt lat="43.68493" lon="3.75865">
        <ele>266.7</ele>
        <time>2017-05-21T07:32:30Z</time>
      </trkpt>
      <trkpt lat="43.68497" lon="3.75868">
        <ele>266.7</ele>
        <time>2017-05-21T07:32:31Z</time>
      </trkpt>
      <trkpt lat="43.68501" lon="3.75871">
        <ele>266.8</ele>
        <time>2017-05-21T07:32:32Z</time>
      </trkpt>
      <trkpt lat="43.68505" lon="3.75874">
        <ele>266.8</ele>
        <time>2017-05-21T07:32:33Z</time>
      </trkpt>
      <trkpt lat="43.68509" lon="3.75876">
        <ele>266.8</ele>
        <time>2017-05-21T07:32:34Z</time>
      </trkpt>
      <trkpt lat="43.68513" lon="3.75878">
        <ele>266.9</ele>
        <time>2017-05-21T07:32:35Z</time>
      </trkpt>
      <trkpt lat="43.68518" lon="3.75879">
        <ele>266.9</ele>
        <time>2017-05-21T07:32:36Z</time>
      </trkpt>
      <trkpt lat="43.68523" lon="3.75878">
        <ele>266.9</ele>
        <time>2017-05-21T07:32:37Z</time>
      </trkpt>
      <trkpt lat="43.68528" lon="3.75878">
        <ele>266.8</ele>
        <time>2017-05-21T07:32:38Z</time>
      </trkpt>
      <trkpt lat="43.68532" lon="3.75877">
        <ele>266.8</ele>
        <time>2017-05-21T07:32:39Z</time>
      </trkpt>
      <trkpt lat="43.68536" lon="3.75874">
        <ele>266.7</ele>
        <time>2017-05-21T07:32:40Z</time>
      </trkpt>
      <trkpt lat="43.6854" lon="3.75871">
        <ele>266.7</ele>
        <time>2017-05-21T07:32:41Z</time>
      </trkpt>
      <trkpt lat="43.68544" lon="3.75867">
        <ele>266.6</ele>
        <time>2017-05-21T07:32:42Z</time>
      </trkpt>
      <trkpt lat="43.68548" lon="3.75863">
        <ele>266.6</ele>
        <time>2017-05-21T07:32:43Z</time>
      </trkpt>
      <trkpt lat="43.68552" lon="3.75859">
        <ele>266.6</ele>
        <time>2017-05-21T07:32:44Z</time>
      </trkpt>
      <trkpt lat="43.68556" lon="3.75855">
        <ele>266.5</ele>
        <time>2017-05-21T07:32:45Z</time>
      </trkpt>
      <trkpt lat="43.6856" lon="3.75852">
        <ele>266.5</ele>
        <time>2017-05-21T07:32:46Z</time>
      </trkpt>
      <trkpt lat="43.68564" lon="3.75849">
        <ele>266.5</ele>
        <time>2017-05-21T07:32:47Z</time>
      </trkpt>
      <trkpt lat="43.68569" lon="3.75846">
        <ele>266.4</ele>
        <time>2017-05-21T07:32:48Z</time>
      </trkpt>
      <trkpt lat="43.68572" lon="3.75844">
        <ele>266.4</ele>
        <time>2017-05-21T07:32:49Z</time>
      </trkpt>
      <trkpt lat="43.68577" lon="3.75843">
        <ele>266.4</ele>
        <time>2017-05-21T07:32:50Z</time>
      </trkpt>
      <trkpt lat="43.68581" lon="3.75842">
        <ele>266.4</ele>
        <time>2017-05-21T07:32:51Z</time>
      </trkpt>
      <trkpt lat="43.68584" lon="3.75841">
        <ele>266.5</ele>
        <time>2017-05-21T07:32:52Z</time>
      </trkpt>
      <trkpt lat="43.68588" lon="3.7584">
        <ele>266.5</ele>
        <time>2017-05-21T07:32:53Z</time>
      </trkpt>
      <trkpt lat="43.68591" lon="3.7584">
        <ele>266.6</ele>
        <time>2017-05-21T07:32:54Z</time>
      </trkpt>
      <trkpt lat="43.68594" lon="3.7584">
        <ele>266.7</ele>
        <time>2017-05-21T07:32:55Z</time>
      </trkpt>
      <trkpt lat="43.68597" lon="3.75839">
        <ele>266.7</ele>
        <time>2017-05-21T07:32:56Z</time>
      </trkpt>
      <trkpt lat="43.68599" lon="3.75838">
        <ele>266.8</ele>
        <time>2017-05-21T07:32:57Z</time>
      </trkpt>
      <trkpt lat="43.68602" lon="3.75838">
        <ele>266.9</ele>
        <time>2017-05-21T07:32:58Z</time>
      </trkpt>
      <trkpt lat="43.68607" lon="3.75836">
        <ele>266.9</ele>
        <time>2017-05-21T07:33:00Z</time>
      </trkpt>
      <trkpt lat="43.68612" lon="3.75835">
        <ele>267.1</ele>
        <time>2017-05-21T07:33:02Z</time>
      </trkpt>
      <trkpt lat="43.68617" lon="3.75834">
        <ele>267.2</ele>
        <time>2017-05-21T07:33:04Z</time>
      </trkpt>
      <trkpt lat="43.68619" lon="3.75833">
        <ele>267.3</ele>
        <time>2017-05-21T07:33:05Z</time>
      </trkpt>
      <trkpt lat="43.68622" lon="3.75835">
        <ele>267.4</ele>
        <time>2017-05-21T07:33:07Z</time>
      </trkpt>
      <trkpt lat="43.68624" lon="3.75839">
        <ele>267.2</ele>
        <time>2017-05-21T07:33:09Z</time>
      </trkpt>
      <trkpt lat="43.68626" lon="3.75845">
        <ele>267</ele>
        <time>2017-05-21T07:33:11Z</time>
      </trkpt>
      <trkpt lat="43.68628" lon="3.75848">
        <ele>266.9</ele>
        <time>2017-05-21T07:33:13Z</time>
      </trkpt>
      <trkpt lat="43.68632" lon="3.7585">
        <ele>266.9</ele>
        <time>2017-05-21T07:33:15Z</time>
      </trkpt>
      <trkpt lat="43.68637" lon="3.75854">
        <ele>267</ele>
        <time>2017-05-21T07:33:17Z</time>
      </trkpt>
      <trkpt lat="43.6864" lon="3.75858">
        <ele>267.1</ele>
        <time>2017-05-21T07:33:18Z</time>
      </trkpt>
      <trkpt lat="43.68644" lon="3.75862">
        <ele>267.2</ele>
        <time>2017-05-21T07:33:19Z</time>
      </trkpt>
      <trkpt lat="43.68647" lon="3.75864">
        <ele>267.2</ele>
        <time>2017-05-21T07:33:20Z</time>
      </trkpt>
      <trkpt lat="43.6865" lon="3.75865">
        <ele>267.2</ele>
        <time>2017-05-21T07:33:21Z</time>
      </trkpt>
      <trkpt lat="43.68654" lon="3.75867">
        <ele>267.3</ele>
        <time>2017-05-21T07:33:22Z</time>
      </trkpt>
      <trkpt lat="43.68658" lon="3.75873">
        <ele>267.3</ele>
        <time>2017-05-21T07:33:24Z</time>
      </trkpt>
      <trkpt lat="43.68661" lon="3.75876">
        <ele>267.1</ele>
        <time>2017-05-21T07:33:25Z</time>
      </trkpt>
      <trkpt lat="43.68664" lon="3.7588">
        <ele>266.9</ele>
        <time>2017-05-21T07:33:26Z</time>
      </trkpt>
      <trkpt lat="43.68662" lon="3.75887">
        <ele>266.5</ele>
        <time>2017-05-21T07:33:28Z</time>
      </trkpt>
      <trkpt lat="43.6866" lon="3.75892">
        <ele>266.3</ele>
        <time>2017-05-21T07:33:29Z</time>
      </trkpt>
      <trkpt lat="43.6866" lon="3.75897">
        <ele>266</ele>
        <time>2017-05-21T07:33:30Z</time>
      </trkpt>
      <trkpt lat="43.68658" lon="3.75902">
        <ele>265.6</ele>
        <time>2017-05-21T07:33:31Z</time>
      </trkpt>
      <trkpt lat="43.68658" lon="3.75909">
        <ele>264.7</ele>
        <time>2017-05-21T07:33:32Z</time>
      </trkpt>
      <trkpt lat="43.68658" lon="3.75914">
        <ele>264.1</ele>
        <time>2017-05-21T07:33:33Z</time>
      </trkpt>
      <trkpt lat="43.68658" lon="3.75919">
        <ele>263.4</ele>
        <time>2017-05-21T07:33:34Z</time>
      </trkpt>
      <trkpt lat="43.68657" lon="3.75925">
        <ele>262.6</ele>
        <time>2017-05-21T07:33:35Z</time>
      </trkpt>
      <trkpt lat="43.68657" lon="3.7593">
        <ele>260.8</ele>
        <time>2017-05-21T07:33:36Z</time>
      </trkpt>
      <trkpt lat="43.68653" lon="3.75934">
        <ele>260.6</ele>
        <time>2017-05-21T07:33:37Z</time>
      </trkpt>
      <trkpt lat="43.68653" lon="3.75938">
        <ele>259.6</ele>
        <time>2017-05-21T07:33:38Z</time>
      </trkpt>
      <trkpt lat="43.68652" lon="3.75945">
        <ele>257.9</ele>
        <time>2017-05-21T07:33:39Z</time>
      </trkpt>
      <trkpt lat="43.6865" lon="3.7595">
        <ele>257.2</ele>
        <time>2017-05-21T07:33:40Z</time>
      </trkpt>
      <trkpt lat="43.6865" lon="3.75957">
        <ele>256.1</ele>
        <time>2017-05-21T07:33:41Z</time>
      </trkpt>
      <trkpt lat="43.68648" lon="3.75962">
        <ele>255.5</ele>
        <time>2017-05-21T07:33:42Z</time>
      </trkpt>
      <trkpt lat="43.68647" lon="3.75966">
        <ele>255.1</ele>
        <time>2017-05-21T07:33:43Z</time>
      </trkpt>
      <trkpt lat="43.68648" lon="3.75975">
        <ele>254.6</ele>
        <time>2017-05-21T07:33:44Z</time>
      </trkpt>
      <trkpt lat="43.68649" lon="3.7598">
        <ele>254.3</ele>
        <time>2017-05-21T07:33:45Z</time>
      </trkpt>
      <trkpt lat="43.6865" lon="3.75988">
        <ele>253.7</ele>
        <time>2017-05-21T07:33:46Z</time>
      </trkpt>
      <trkpt lat="43.68646" lon="3.75995">
        <ele>253.3</ele>
        <time>2017-05-21T07:33:47Z</time>
      </trkpt>
      <trkpt lat="43.68646" lon="3.76003">
        <ele>253.2</ele>
        <time>2017-05-21T07:33:48Z</time>
      </trkpt>
      <trkpt lat="43.68644" lon="3.7601">
        <ele>252.7</ele>
        <time>2017-05-21T07:33:49Z</time>
      </trkpt>
      <trkpt lat="43.68644" lon="3.76016">
        <ele>252.1</ele>
        <time>2017-05-21T07:33:50Z</time>
      </trkpt>
      <trkpt lat="43.68644" lon="3.76025">
        <ele>251.3</ele>
        <time>2017-05-21T07:33:51Z</time>
      </trkpt>
      <trkpt lat="43.68644" lon="3.76034">
        <ele>250.5</ele>
        <time>2017-05-21T07:33:52Z</time>
      </trkpt>
      <trkpt lat="43.6864" lon="3.76041">
        <ele>250</ele>
        <time>2017-05-21T07:33:53Z</time>
      </trkpt>
      <trkpt lat="43.68639" lon="3.76047">
        <ele>248.9</ele>
        <time>2017-05-21T07:33:54Z</time>
      </trkpt>
      <trkpt lat="43.68639" lon="3.76056">
        <ele>247.9</ele>
        <time>2017-05-21T07:33:55Z</time>
      </trkpt>
      <trkpt lat="43.68636" lon="3.76063">
        <ele>247.6</ele>
        <time>2017-05-21T07:33:56Z</time>
      </trkpt>
      <trkpt lat="43.68635" lon="3.76072">
        <ele>245.7</ele>
        <time>2017-05-21T07:33:57Z</time>
      </trkpt>
      <trkpt lat="43.68635" lon="3.76081">
        <ele>244.2</ele>
        <time>2017-05-21T07:33:58Z</time>
      </trkpt>
      <trkpt lat="43.68636" lon="3.76089">
        <ele>243.5</ele>
        <time>2017-05-21T07:33:59Z</time>
      </trkpt>
      <trkpt lat="43.68637" lon="3.76096">
        <ele>241.8</ele>
        <time>2017-05-21T07:34:00Z</time>
      </trkpt>
      <trkpt lat="43.68638" lon="3.76103">
        <ele>239.9</ele>
        <time>2017-05-21T07:34:01Z</time>
      </trkpt>
      <trkpt lat="43.68643" lon="3.76108">
        <ele>239</ele>
        <time>2017-05-21T07:34:02Z</time>
      </trkpt>
      <trkpt lat="43.68644" lon="3.76117">
        <ele>237.6</ele>
        <time>2017-05-21T07:34:03Z</time>
      </trkpt>
      <trkpt lat="43.68648" lon="3.76127">
        <ele>235.6</ele>
        <time>2017-05-21T07:34:04Z</time>
      </trkpt>
      <trkpt lat="43.68649" lon="3.76133">
        <ele>234.9</ele>
        <time>2017-05-21T07:34:05Z</time>
      </trkpt>
      <trkpt lat="43.68647" lon="3.76141">
        <ele>234</ele>
        <time>2017-05-21T07:34:06Z</time>
      </trkpt>
      <trkpt lat="43.68649" lon="3.76148">
        <ele>233.6</ele>
        <time>2017-05-21T07:34:07Z</time>
      </trkpt>
      <trkpt lat="43.68653" lon="3.76155">
        <ele>233.4</ele>
        <time>2017-05-21T07:34:08Z</time>
      </trkpt>
      <trkpt lat="43.68654" lon="3.76159">
        <ele>233</ele>
        <time>2017-05-21T07:34:09Z</time>
      </trkpt>
      <trkpt lat="43.68655" lon="3.76164">
        <ele>232.6</ele>
        <time>2017-05-21T07:34:10Z</time>
      </trkpt>
      <trkpt lat="43.68656" lon="3.76172">
        <ele>232.1</ele>
        <time>2017-05-21T07:34:11Z</time>
      </trkpt>
      <trkpt lat="43.68657" lon="3.76177">
        <ele>231.5</ele>
        <time>2017-05-21T07:34:12Z</time>
      </trkpt>
      <trkpt lat="43.68658" lon="3.76187">
        <ele>230.4</ele>
        <time>2017-05-21T07:34:13Z</time>
      </trkpt>
      <trkpt lat="43.6866" lon="3.76195">
        <ele>229.9</ele>
        <time>2017-05-21T07:34:14Z</time>
      </trkpt>
      <trkpt lat="43.68664" lon="3.76203">
        <ele>229.8</ele>
        <time>2017-05-21T07:34:15Z</time>
      </trkpt>
      <trkpt lat="43.68662" lon="3.76214">
        <ele>229.4</ele>
        <time>2017-05-21T07:34:16Z</time>
      </trkpt>
      <trkpt lat="43.68664" lon="3.76224">
        <ele>229.3</ele>
        <time>2017-05-21T07:34:17Z</time>
      </trkpt>
      <trkpt lat="43.68662" lon="3.76235">
        <ele>228.9</ele>
        <time>2017-05-21T07:34:18Z</time>
      </trkpt>
      <trkpt lat="43.68662" lon="3.76245">
        <ele>228.5</ele>
        <time>2017-05-21T07:34:19Z</time>
      </trkpt>
      <trkpt lat="43.68662" lon="3.76253">
        <ele>227.7</ele>
        <time>2017-05-21T07:34:20Z</time>
      </trkpt>
      <trkpt lat="43.68658" lon="3.76264">
        <ele>226.7</ele>
        <time>2017-05-21T07:34:21Z</time>
      </trkpt>
      <trkpt lat="43.68656" lon="3.76271">
        <ele>225.3</ele>
        <time>2017-05-21T07:34:22Z</time>
      </trkpt>
      <trkpt lat="43.68655" lon="3.7628">
        <ele>224.2</ele>
        <time>2017-05-21T07:34:23Z</time>
      </trkpt>
      <trkpt lat="43.68654" lon="3.76287">
        <ele>223.1</ele>
        <time>2017-05-21T07:34:24Z</time>
      </trkpt>
      <trkpt lat="43.68656" lon="3.76296">
        <ele>222.4</ele>
        <time>2017-05-21T07:34:25Z</time>
      </trkpt>
      <trkpt lat="43.68657" lon="3.76302">
        <ele>222</ele>
        <time>2017-05-21T07:34:26Z</time>
      </trkpt>
      <trkpt lat="43.68655" lon="3.76312">
        <ele>220.9</ele>
        <time>2017-05-21T07:34:27Z</time>
      </trkpt>
      <trkpt lat="43.68655" lon="3.76323">
        <ele>220.3</ele>
        <time>2017-05-21T07:34:28Z</time>
      </trkpt>
      <trkpt lat="43.68654" lon="3.76334">
        <ele>219.2</ele>
        <time>2017-05-21T07:34:29Z</time>
      </trkpt>
      <trkpt lat="43.68652" lon="3.76346">
        <ele>217</ele>
        <time>2017-05-21T07:34:30Z</time>
      </trkpt>
      <trkpt lat="43.68651" lon="3.76355">
        <ele>215.4</ele>
        <time>2017-05-21T07:34:31Z</time>
      </trkpt>
      <trkpt lat="43.68649" lon="3.76363">
        <ele>214.3</ele>
        <time>2017-05-21T07:34:32Z</time>
      </trkpt>
      <trkpt lat="43.68651" lon="3.76371">
        <ele>213.3</ele>
        <time>2017-05-21T07:34:33Z</time>
      </trkpt>
      <trkpt lat="43.6865" lon="3.76379">
        <ele>211.8</ele>
        <time>2017-05-21T07:34:34Z</time>
      </trkpt>
      <trkpt lat="43.6865" lon="3.76386">
        <ele>210.4</ele>
        <time>2017-05-21T07:34:35Z</time>
      </trkpt>
      <trkpt lat="43.68647" lon="3.76393">
        <ele>208.8</ele>
        <time>2017-05-21T07:34:36Z</time>
      </trkpt>
      <trkpt lat="43.68646" lon="3.76398">
        <ele>206.8</ele>
        <time>2017-05-21T07:34:37Z</time>
      </trkpt>
      <trkpt lat="43.68645" lon="3.76408">
        <ele>205.7</ele>
        <time>2017-05-21T07:34:38Z</time>
      </trkpt>
      <trkpt lat="43.68641" lon="3.76418">
        <ele>204.4</ele>
        <time>2017-05-21T07:34:39Z</time>
      </trkpt>
      <trkpt lat="43.68642" lon="3.76423">
        <ele>203.4</ele>
        <time>2017-05-21T07:34:40Z</time>
      </trkpt>
      <trkpt lat="43.68643" lon="3.76432">
        <ele>202.3</ele>
        <time>2017-05-21T07:34:41Z</time>
      </trkpt>
      <trkpt lat="43.68642" lon="3.76441">
        <ele>201.8</ele>
        <time>2017-05-21T07:34:42Z</time>
      </trkpt>
      <trkpt lat="43.68641" lon="3.7645">
        <ele>200.9</ele>
        <time>2017-05-21T07:34:43Z</time>
      </trkpt>
      <trkpt lat="43.68638" lon="3.76458">
        <ele>200.3</ele>
        <time>2017-05-21T07:34:44Z</time>
      </trkpt>
      <trkpt lat="43.68636" lon="3.76467">
        <ele>199.9</ele>
        <time>2017-05-21T07:34:45Z</time>
      </trkpt>
      <trkpt lat="43.68634" lon="3.76471">
        <ele>199.6</ele>
        <time>2017-05-21T07:34:46Z</time>
      </trkpt>
      <trkpt lat="43.68633" lon="3.76477">
        <ele>199.4</ele>
        <time>2017-05-21T07:34:47Z</time>
      </trkpt>
      <trkpt lat="43.68636" lon="3.76485">
        <ele>198.8</ele>
        <time>2017-05-21T07:34:48Z</time>
      </trkpt>
      <trkpt lat="43.68636" lon="3.76489">
        <ele>198.3</ele>
        <time>2017-05-21T07:34:49Z</time>
      </trkpt>
      <trkpt lat="43.68634" lon="3.76497">
        <ele>197.4</ele>
        <time>2017-05-21T07:34:50Z</time>
      </trkpt>
      <trkpt lat="43.68633" lon="3.76503">
        <ele>197</ele>
        <time>2017-05-21T07:34:52Z</time>
      </trkpt>
      <trkpt lat="43.68628" lon="3.76508">
        <ele>196.5</ele>
        <time>2017-05-21T07:34:53Z</time>
      </trkpt>
      <trkpt lat="43.68626" lon="3.76511">
        <ele>195.9</ele>
        <time>2017-05-21T07:34:54Z</time>
      </trkpt>
      <trkpt lat="43.68624" lon="3.76514">
        <ele>195.3</ele>
        <time>2017-05-21T07:34:55Z</time>
      </trkpt>
      <trkpt lat="43.68622" lon="3.7652">
        <ele>194.6</ele>
        <time>2017-05-21T07:34:56Z</time>
      </trkpt>
      <trkpt lat="43.68616" lon="3.76527">
        <ele>193.2</ele>
        <time>2017-05-21T07:34:57Z</time>
      </trkpt>
      <trkpt lat="43.68611" lon="3.76533">
        <ele>192.5</ele>
        <time>2017-05-21T07:34:58Z</time>
      </trkpt>
      <trkpt lat="43.68606" lon="3.76538">
        <ele>192.9</ele>
        <time>2017-05-21T07:34:59Z</time>
      </trkpt>
      <trkpt lat="43.68604" lon="3.76543">
        <ele>192.9</ele>
        <time>2017-05-21T07:35:00Z</time>
      </trkpt>
      <trkpt lat="43.686" lon="3.76549">
        <ele>192.6</ele>
        <time>2017-05-21T07:35:01Z</time>
      </trkpt>
      <trkpt lat="43.68597" lon="3.76554">
        <ele>191.9</ele>
        <time>2017-05-21T07:35:02Z</time>
      </trkpt>
      <trkpt lat="43.68595" lon="3.7656">
        <ele>191.1</ele>
        <time>2017-05-21T07:35:03Z</time>
      </trkpt>
      <trkpt lat="43.68593" lon="3.76566">
        <ele>190.2</ele>
        <time>2017-05-21T07:35:04Z</time>
      </trkpt>
      <trkpt lat="43.68592" lon="3.76573">
        <ele>189.5</ele>
        <time>2017-05-21T07:35:05Z</time>
      </trkpt>
      <trkpt lat="43.6859" lon="3.76581">
        <ele>188.5</ele>
        <time>2017-05-21T07:35:06Z</time>
      </trkpt>
      <trkpt lat="43.68588" lon="3.7659">
        <ele>187.4</ele>
        <time>2017-05-21T07:35:07Z</time>
      </trkpt>
      <trkpt lat="43.68585" lon="3.76596">
        <ele>186.3</ele>
        <time>2017-05-21T07:35:08Z</time>
      </trkpt>
      <trkpt lat="43.68582" lon="3.76602">
        <ele>185.3</ele>
        <time>2017-05-21T07:35:09Z</time>
      </trkpt>
      <trkpt lat="43.68578" lon="3.76607">
        <ele>184.4</ele>
        <time>2017-05-21T07:35:10Z</time>
      </trkpt>
      <trkpt lat="43.68574" lon="3.76612">
        <ele>183.7</ele>
        <time>2017-05-21T07:35:11Z</time>
      </trkpt>
      <trkpt lat="43.68569" lon="3.76617">
        <ele>182.9</ele>
        <time>2017-05-21T07:35:12Z</time>
      </trkpt>
      <trkpt lat="43.68563" lon="3.7662">
        <ele>182</ele>
        <time>2017-05-21T07:35:13Z</time>
      </trkpt>
      <trkpt lat="43.68557" lon="3.76624">
        <ele>181.3</ele>
        <time>2017-05-21T07:35:14Z</time>
      </trkpt>
      <trkpt lat="43.68554" lon="3.76625">
        <ele>180.9</ele>
        <time>2017-05-21T07:35:15Z</time>
      </trkpt>
      <trkpt lat="43.68549" lon="3.76629">
        <ele>180.3</ele>
        <time>2017-05-21T07:35:16Z</time>
      </trkpt>
      <trkpt lat="43.68544" lon="3.76633">
        <ele>179.6</ele>
        <time>2017-05-21T07:35:17Z</time>
      </trkpt>
      <trkpt lat="43.68538" lon="3.76635">
        <ele>178.8</ele>
        <time>2017-05-21T07:35:18Z</time>
      </trkpt>
      <trkpt lat="43.68532" lon="3.76636">
        <ele>178</ele>
        <time>2017-05-21T07:35:19Z</time>
      </trkpt>
      <trkpt lat="43.68527" lon="3.76636">
        <ele>177.3</ele>
        <time>2017-05-21T07:35:20Z</time>
      </trkpt>
      <trkpt lat="43.68521" lon="3.76638">
        <ele>176.7</ele>
        <time>2017-05-21T07:35:21Z</time>
      </trkpt>
      <trkpt lat="43.68515" lon="3.7664">
        <ele>175.7</ele>
        <time>2017-05-21T07:35:22Z</time>
      </trkpt>
      <trkpt lat="43.68509" lon="3.76642">
        <ele>174.9</ele>
        <time>2017-05-21T07:35:23Z</time>
      </trkpt>
      <trkpt lat="43.68505" lon="3.76645">
        <ele>174.3</ele>
        <time>2017-05-21T07:35:24Z</time>
      </trkpt>
      <trkpt lat="43.68499" lon="3.76648">
        <ele>173.6</ele>
        <time>2017-05-21T07:35:25Z</time>
      </trkpt>
      <trkpt lat="43.68495" lon="3.76651">
        <ele>173</ele>
        <time>2017-05-21T07:35:26Z</time>
      </trkpt>
      <trkpt lat="43.68491" lon="3.76653">
        <ele>172.6</ele>
        <time>2017-05-21T07:35:27Z</time>
      </trkpt>
      <trkpt lat="43.68488" lon="3.76656">
        <ele>172.3</ele>
        <time>2017-05-21T07:35:28Z</time>
      </trkpt>
      <trkpt lat="43.68483" lon="3.7666">
        <ele>171.5</ele>
        <time>2017-05-21T07:35:29Z</time>
      </trkpt>
      <trkpt lat="43.68481" lon="3.76663">
        <ele>171</ele>
        <time>2017-05-21T07:35:30Z</time>
      </trkpt>
      <trkpt lat="43.68478" lon="3.76669">
        <ele>170.5</ele>
        <time>2017-05-21T07:35:31Z</time>
      </trkpt>
      <trkpt lat="43.68475" lon="3.76675">
        <ele>170.1</ele>
        <time>2017-05-21T07:35:32Z</time>
      </trkpt>
      <trkpt lat="43.68473" lon="3.76681">
        <ele>170</ele>
        <time>2017-05-21T07:35:33Z</time>
      </trkpt>
      <trkpt lat="43.68471" lon="3.76688">
        <ele>169.8</ele>
        <time>2017-05-21T07:35:34Z</time>
      </trkpt>
      <trkpt lat="43.68468" lon="3.76695">
        <ele>169.6</ele>
        <time>2017-05-21T07:35:35Z</time>
      </trkpt>
      <trkpt lat="43.68466" lon="3.76701">
        <ele>169.3</ele>
        <time>2017-05-21T07:35:36Z</time>
      </trkpt>
      <trkpt lat="43.68464" lon="3.76707">
        <ele>168.9</ele>
        <time>2017-05-21T07:35:37Z</time>
      </trkpt>
      <trkpt lat="43.68462" lon="3.76713">
        <ele>168.3</ele>
        <time>2017-05-21T07:35:38Z</time>
      </trkpt>
      <trkpt lat="43.68459" lon="3.7672">
        <ele>167.6</ele>
        <time>2017-05-21T07:35:39Z</time>
      </trkpt>
      <trkpt lat="43.68456" lon="3.76724">
        <ele>166.9</ele>
        <time>2017-05-21T07:35:40Z</time>
      </trkpt>
      <trkpt lat="43.68452" lon="3.76728">
        <ele>165.9</ele>
        <time>2017-05-21T07:35:41Z</time>
      </trkpt>
      <trkpt lat="43.68449" lon="3.7673">
        <ele>165.1</ele>
        <time>2017-05-21T07:35:42Z</time>
      </trkpt>
      <trkpt lat="43.68447" lon="3.76732">
        <ele>164.6</ele>
        <time>2017-05-21T07:35:43Z</time>
      </trkpt>
      <trkpt lat="43.68443" lon="3.76733">
        <ele>164.2</ele>
        <time>2017-05-21T07:35:46Z</time>
      </trkpt>
      <trkpt lat="43.68441" lon="3.7673">
        <ele>163.7</ele>
        <time>2017-05-21T07:35:48Z</time>
      </trkpt>
      <trkpt lat="43.6844" lon="3.76725">
        <ele>163.2</ele>
        <time>2017-05-21T07:35:50Z</time>
      </trkpt>
      <trkpt lat="43.68439" lon="3.76721">
        <ele>162.7</ele>
        <time>2017-05-21T07:35:52Z</time>
      </trkpt>
      <trkpt lat="43.68437" lon="3.76716">
        <ele>162.1</ele>
        <time>2017-05-21T07:35:54Z</time>
      </trkpt>
      <trkpt lat="43.68433" lon="3.76712">
        <ele>162.1</ele>
        <time>2017-05-21T07:35:56Z</time>
      </trkpt>
      <trkpt lat="43.68431" lon="3.7671">
        <ele>162.2</ele>
        <time>2017-05-21T07:35:57Z</time>
      </trkpt>
      <trkpt lat="43.68427" lon="3.76704">
        <ele>162.3</ele>
        <time>2017-05-21T07:35:59Z</time>
      </trkpt>
      <trkpt lat="43.68425" lon="3.76701">
        <ele>162.4</ele>
        <time>2017-05-21T07:36:00Z</time>
      </trkpt>
      <trkpt lat="43.68423" lon="3.76695">
        <ele>162.5</ele>
        <time>2017-05-21T07:36:02Z</time>
      </trkpt>
      <trkpt lat="43.68419" lon="3.7669">
        <ele>162.4</ele>
        <time>2017-05-21T07:36:04Z</time>
      </trkpt>
      <trkpt lat="43.68417" lon="3.76687">
        <ele>162.4</ele>
        <time>2017-05-21T07:36:05Z</time>
      </trkpt>
      <trkpt lat="43.68414" lon="3.76682">
        <ele>162.6</ele>
        <time>2017-05-21T07:36:07Z</time>
      </trkpt>
      <trkpt lat="43.68411" lon="3.76677">
        <ele>162.4</ele>
        <time>2017-05-21T07:36:09Z</time>
      </trkpt>
      <trkpt lat="43.6841" lon="3.76673">
        <ele>162.1</ele>
        <time>2017-05-21T07:36:10Z</time>
      </trkpt>
      <trkpt lat="43.68406" lon="3.76668">
        <ele>161.8</ele>
        <time>2017-05-21T07:36:12Z</time>
      </trkpt>
      <trkpt lat="43.68404" lon="3.76663">
        <ele>161.9</ele>
        <time>2017-05-21T07:36:14Z</time>
      </trkpt>
      <trkpt lat="43.68402" lon="3.76658">
        <ele>161.7</ele>
        <time>2017-05-21T07:36:16Z</time>
      </trkpt>
      <trkpt lat="43.68398" lon="3.76654">
        <ele>161.6</ele>
        <time>2017-05-21T07:36:18Z</time>
      </trkpt>
      <trkpt lat="43.68394" lon="3.7665">
        <ele>161.2</ele>
        <time>2017-05-21T07:36:20Z</time>
      </trkpt>
      <trkpt lat="43.68391" lon="3.76648">
        <ele>160.8</ele>
        <time>2017-05-21T07:36:21Z</time>
      </trkpt>
      <trkpt lat="43.68389" lon="3.76644">
        <ele>160.5</ele>
        <time>2017-05-21T07:36:22Z</time>
      </trkpt>
      <trkpt lat="43.68387" lon="3.76641">
        <ele>160.5</ele>
        <time>2017-05-21T07:36:23Z</time>
      </trkpt>
      <trkpt lat="43.68382" lon="3.76637">
        <ele>159.4</ele>
        <time>2017-05-21T07:36:25Z</time>
      </trkpt>
      <trkpt lat="43.68379" lon="3.76637">
        <ele>158.7</ele>
        <time>2017-05-21T07:36:26Z</time>
      </trkpt>
      <trkpt lat="43.68376" lon="3.76638">
        <ele>158.1</ele>
        <time>2017-05-21T07:36:27Z</time>
      </trkpt>
      <trkpt lat="43.68373" lon="3.76642">
        <ele>157.4</ele>
        <time>2017-05-21T07:36:28Z</time>
      </trkpt>
      <trkpt lat="43.68369" lon="3.76645">
        <ele>156.8</ele>
        <time>2017-05-21T07:36:29Z</time>
      </trkpt>
      <trkpt lat="43.68366" lon="3.76649">
        <ele>156.3</ele>
        <time>2017-05-21T07:36:30Z</time>
      </trkpt>
      <trkpt lat="43.68364" lon="3.76653">
        <ele>156.4</ele>
        <time>2017-05-21T07:36:31Z</time>
      </trkpt>
      <trkpt lat="43.68362" lon="3.76659">
        <ele>156.1</ele>
        <time>2017-05-21T07:36:32Z</time>
      </trkpt>
      <trkpt lat="43.68358" lon="3.76664">
        <ele>156.2</ele>
        <time>2017-05-21T07:36:33Z</time>
      </trkpt>
      <trkpt lat="43.68356" lon="3.76671">
        <ele>156.1</ele>
        <time>2017-05-21T07:36:34Z</time>
      </trkpt>
      <trkpt lat="43.68353" lon="3.76677">
        <ele>155.8</ele>
        <time>2017-05-21T07:36:35Z</time>
      </trkpt>
      <trkpt lat="43.68351" lon="3.76683">
        <ele>155.3</ele>
        <time>2017-05-21T07:36:36Z</time>
      </trkpt>
      <trkpt lat="43.68348" lon="3.76687">
        <ele>154.8</ele>
        <time>2017-05-21T07:36:37Z</time>
      </trkpt>
      <trkpt lat="43.68345" lon="3.76691">
        <ele>154.2</ele>
        <time>2017-05-21T07:36:38Z</time>
      </trkpt>
      <trkpt lat="43.68342" lon="3.76695">
        <ele>153.7</ele>
        <time>2017-05-21T07:36:39Z</time>
      </trkpt>
      <trkpt lat="43.68339" lon="3.76699">
        <ele>153.4</ele>
        <time>2017-05-21T07:36:40Z</time>
      </trkpt>
      <trkpt lat="43.68335" lon="3.76703">
        <ele>153.2</ele>
        <time>2017-05-21T07:36:41Z</time>
      </trkpt>
      <trkpt lat="43.68331" lon="3.76707">
        <ele>153.2</ele>
        <time>2017-05-21T07:36:42Z</time>
      </trkpt>
      <trkpt lat="43.68327" lon="3.7671">
        <ele>152.9</ele>
        <time>2017-05-21T07:36:43Z</time>
      </trkpt>
      <trkpt lat="43.68323" lon="3.76715">
        <ele>152.6</ele>
        <time>2017-05-21T07:36:44Z</time>
      </trkpt>
      <trkpt lat="43.68319" lon="3.76719">
        <ele>152.5</ele>
        <time>2017-05-21T07:36:45Z</time>
      </trkpt>
      <trkpt lat="43.68315" lon="3.76722">
        <ele>152.3</ele>
        <time>2017-05-21T07:36:46Z</time>
      </trkpt>
      <trkpt lat="43.68311" lon="3.76726">
        <ele>151.9</ele>
        <time>2017-05-21T07:36:47Z</time>
      </trkpt>
      <trkpt lat="43.68307" lon="3.7673">
        <ele>151.8</ele>
        <time>2017-05-21T07:36:48Z</time>
      </trkpt>
      <trkpt lat="43.68303" lon="3.76735">
        <ele>151.6</ele>
        <time>2017-05-21T07:36:49Z</time>
      </trkpt>
      <trkpt lat="43.68299" lon="3.76739">
        <ele>151.4</ele>
        <time>2017-05-21T07:36:50Z</time>
      </trkpt>
      <trkpt lat="43.68294" lon="3.76742">
        <ele>151.1</ele>
        <time>2017-05-21T07:36:51Z</time>
      </trkpt>
      <trkpt lat="43.68289" lon="3.76746">
        <ele>150.8</ele>
        <time>2017-05-21T07:36:52Z</time>
      </trkpt>
      <trkpt lat="43.68286" lon="3.76749">
        <ele>150.7</ele>
        <time>2017-05-21T07:36:53Z</time>
      </trkpt>
      <trkpt lat="43.68281" lon="3.76751">
        <ele>150.4</ele>
        <time>2017-05-21T07:36:54Z</time>
      </trkpt>
      <trkpt lat="43.68277" lon="3.76753">
        <ele>150.3</ele>
        <time>2017-05-21T07:36:55Z</time>
      </trkpt>
      <trkpt lat="43.68274" lon="3.76757">
        <ele>150.1</ele>
        <time>2017-05-21T07:36:56Z</time>
      </trkpt>
      <trkpt lat="43.68271" lon="3.76762">
        <ele>149.8</ele>
        <time>2017-05-21T07:36:57Z</time>
      </trkpt>
      <trkpt lat="43.68268" lon="3.76766">
        <ele>149.6</ele>
        <time>2017-05-21T07:36:58Z</time>
      </trkpt>
      <trkpt lat="43.68265" lon="3.7677">
        <ele>149.3</ele>
        <time>2017-05-21T07:36:59Z</time>
      </trkpt>
      <trkpt lat="43.68262" lon="3.76774">
        <ele>148.9</ele>
        <time>2017-05-21T07:37:00Z</time>
      </trkpt>
      <trkpt lat="43.68259" lon="3.76779">
        <ele>148.5</ele>
        <time>2017-05-21T07:37:01Z</time>
      </trkpt>
      <trkpt lat="43.68258" lon="3.76783">
        <ele>148.3</ele>
        <time>2017-05-21T07:37:02Z</time>
      </trkpt>
      <trkpt lat="43.68256" lon="3.76788">
        <ele>148.2</ele>
        <time>2017-05-21T07:37:03Z</time>
      </trkpt>
      <trkpt lat="43.68254" lon="3.76793">
        <ele>148</ele>
        <time>2017-05-21T07:37:04Z</time>
      </trkpt>
      <trkpt lat="43.68252" lon="3.76798">
        <ele>147.8</ele>
        <time>2017-05-21T07:37:05Z</time>
      </trkpt>
      <trkpt lat="43.6825" lon="3.76803">
        <ele>147.6</ele>
        <time>2017-05-21T07:37:06Z</time>
      </trkpt>
      <trkpt lat="43.68248" lon="3.76808">
        <ele>147.4</ele>
        <time>2017-05-21T07:37:07Z</time>
      </trkpt>
      <trkpt lat="43.68245" lon="3.76812">
        <ele>147.2</ele>
        <time>2017-05-21T07:37:08Z</time>
      </trkpt>
      <trkpt lat="43.68242" lon="3.76815">
        <ele>147</ele>
        <time>2017-05-21T07:37:09Z</time>
      </trkpt>
      <trkpt lat="43.68238" lon="3.76818">
        <ele>147.1</ele>
        <time>2017-05-21T07:37:10Z</time>
      </trkpt>
      <trkpt lat="43.68234" lon="3.76819">
        <ele>147.1</ele>
        <time>2017-05-21T07:37:11Z</time>
      </trkpt>
      <trkpt lat="43.68229" lon="3.76821">
        <ele>147.1</ele>
        <time>2017-05-21T07:37:12Z</time>
      </trkpt>
      <trkpt lat="43.68224" lon="3.76822">
        <ele>147.2</ele>
        <time>2017-05-21T07:37:13Z</time>
      </trkpt>
      <trkpt lat="43.68219" lon="3.76824">
        <ele>147.2</ele>
        <time>2017-05-21T07:37:14Z</time>
      </trkpt>
      <trkpt lat="43.68215" lon="3.76825">
        <ele>147.2</ele>
        <time>2017-05-21T07:37:15Z</time>
      </trkpt>
      <trkpt lat="43.6821" lon="3.76828">
        <ele>147.2</ele>
        <time>2017-05-21T07:37:16Z</time>
      </trkpt>
      <trkpt lat="43.68206" lon="3.7683">
        <ele>147.2</ele>
        <time>2017-05-21T07:37:17Z</time>
      </trkpt>
      <trkpt lat="43.68201" lon="3.76832">
        <ele>147.2</ele>
        <time>2017-05-21T07:37:18Z</time>
      </trkpt>
      <trkpt lat="43.68197" lon="3.76834">
        <ele>147.1</ele>
        <time>2017-05-21T07:37:19Z</time>
      </trkpt>
      <trkpt lat="43.68192" lon="3.76836">
        <ele>147</ele>
        <time>2017-05-21T07:37:20Z</time>
      </trkpt>
      <trkpt lat="43.68188" lon="3.76839">
        <ele>146.9</ele>
        <time>2017-05-21T07:37:21Z</time>
      </trkpt>
      <trkpt lat="43.68186" lon="3.76842">
        <ele>146.8</ele>
        <time>2017-05-21T07:37:22Z</time>
      </trkpt>
      <trkpt lat="43.68184" lon="3.76845">
        <ele>146.8</ele>
        <time>2017-05-21T07:37:23Z</time>
      </trkpt>
      <trkpt lat="43.68182" lon="3.76851">
        <ele>146.7</ele>
        <time>2017-05-21T07:37:25Z</time>
      </trkpt>
      <trkpt lat="43.68182" lon="3.76857">
        <ele>146.6</ele>
        <time>2017-05-21T07:37:27Z</time>
      </trkpt>
      <trkpt lat="43.68179" lon="3.76862">
        <ele>146.7</ele>
        <time>2017-05-21T07:37:29Z</time>
      </trkpt>
      <trkpt lat="43.68178" lon="3.76868">
        <ele>147.5</ele>
        <time>2017-05-21T07:37:31Z</time>
      </trkpt>
      <trkpt lat="43.68177" lon="3.76871">
        <ele>148.3</ele>
        <time>2017-05-21T07:37:33Z</time>
      </trkpt>
      <trkpt lat="43.68175" lon="3.76875">
        <ele>149</ele>
        <time>2017-05-21T07:37:35Z</time>
      </trkpt>
      <trkpt lat="43.68173" lon="3.76879">
        <ele>149.8</ele>
        <time>2017-05-21T07:37:37Z</time>
      </trkpt>
      <trkpt lat="43.6817" lon="3.76883">
        <ele>150.5</ele>
        <time>2017-05-21T07:37:39Z</time>
      </trkpt>
      <trkpt lat="43.68167" lon="3.76886">
        <ele>150.7</ele>
        <time>2017-05-21T07:37:41Z</time>
      </trkpt>
      <trkpt lat="43.68165" lon="3.76889">
        <ele>151.2</ele>
        <time>2017-05-21T07:37:43Z</time>
      </trkpt>
      <trkpt lat="43.68162" lon="3.76892">
        <ele>151.8</ele>
        <time>2017-05-21T07:37:45Z</time>
      </trkpt>
      <trkpt lat="43.68159" lon="3.76898">
        <ele>152.3</ele>
        <time>2017-05-21T07:37:47Z</time>
      </trkpt>
      <trkpt lat="43.68156" lon="3.76903">
        <ele>152.8</ele>
        <time>2017-05-21T07:37:50Z</time>
      </trkpt>
      <trkpt lat="43.68153" lon="3.76908">
        <ele>153.2</ele>
        <time>2017-05-21T07:37:52Z</time>
      </trkpt>
      <trkpt lat="43.68151" lon="3.76912">
        <ele>153.5</ele>
        <time>2017-05-21T07:37:54Z</time>
      </trkpt>
      <trkpt lat="43.6815" lon="3.76916">
        <ele>153.9</ele>
        <time>2017-05-21T07:37:56Z</time>
      </trkpt>
      <trkpt lat="43.68147" lon="3.7692">
        <ele>154.4</ele>
        <time>2017-05-21T07:37:58Z</time>
      </trkpt>
      <trkpt lat="43.68145" lon="3.76924">
        <ele>154.9</ele>
        <time>2017-05-21T07:38:00Z</time>
      </trkpt>
      <trkpt lat="43.68143" lon="3.76929">
        <ele>155.4</ele>
        <time>2017-05-21T07:38:02Z</time>
      </trkpt>
      <trkpt lat="43.6814" lon="3.76933">
        <ele>156</ele>
        <time>2017-05-21T07:38:04Z</time>
      </trkpt>
      <trkpt lat="43.68137" lon="3.76937">
        <ele>156.6</ele>
        <time>2017-05-21T07:38:06Z</time>
      </trkpt>
      <trkpt lat="43.68134" lon="3.76942">
        <ele>157</ele>
        <time>2017-05-21T07:38:08Z</time>
      </trkpt>
      <trkpt lat="43.68131" lon="3.76947">
        <ele>157.4</ele>
        <time>2017-05-21T07:38:10Z</time>
      </trkpt>
      <trkpt lat="43.68129" lon="3.76951">
        <ele>157.8</ele>
        <time>2017-05-21T07:38:12Z</time>
      </trkpt>
      <trkpt lat="43.68126" lon="3.76956">
        <ele>158.2</ele>
        <time>2017-05-21T07:38:14Z</time>
      </trkpt>
      <trkpt lat="43.68123" lon="3.76961">
        <ele>158.6</ele>
        <time>2017-05-21T07:38:16Z</time>
      </trkpt>
      <trkpt lat="43.68121" lon="3.76965">
        <ele>159.1</ele>
        <time>2017-05-21T07:38:17Z</time>
      </trkpt>
      <trkpt lat="43.68119" lon="3.76967">
        <ele>159.4</ele>
        <time>2017-05-21T07:38:18Z</time>
      </trkpt>
      <trkpt lat="43.68116" lon="3.76973">
        <ele>160.1</ele>
        <time>2017-05-21T07:38:20Z</time>
      </trkpt>
      <trkpt lat="43.68112" lon="3.76978">
        <ele>160.6</ele>
        <time>2017-05-21T07:38:22Z</time>
      </trkpt>
      <trkpt lat="43.68109" lon="3.76982">
        <ele>161.1</ele>
        <time>2017-05-21T07:38:24Z</time>
      </trkpt>
      <trkpt lat="43.68105" lon="3.76986">
        <ele>161.4</ele>
        <time>2017-05-21T07:38:26Z</time>
      </trkpt>
      <trkpt lat="43.68102" lon="3.76992">
        <ele>161.7</ele>
        <time>2017-05-21T07:38:28Z</time>
      </trkpt>
      <trkpt lat="43.681" lon="3.76995">
        <ele>162</ele>
        <time>2017-05-21T07:38:29Z</time>
      </trkpt>
      <trkpt lat="43.68098" lon="3.76998">
        <ele>162.2</ele>
        <time>2017-05-21T07:38:30Z</time>
      </trkpt>
      <trkpt lat="43.68096" lon="3.77001">
        <ele>162.4</ele>
        <time>2017-05-21T07:38:31Z</time>
      </trkpt>
      <trkpt lat="43.68094" lon="3.77005">
        <ele>162.8</ele>
        <time>2017-05-21T07:38:32Z</time>
      </trkpt>
      <trkpt lat="43.68093" lon="3.77008">
        <ele>163</ele>
        <time>2017-05-21T07:38:33Z</time>
      </trkpt>
      <trkpt lat="43.6809" lon="3.77012">
        <ele>163.2</ele>
        <time>2017-05-21T07:38:34Z</time>
      </trkpt>
      <trkpt lat="43.68088" lon="3.77015">
        <ele>163.4</ele>
        <time>2017-05-21T07:38:35Z</time>
      </trkpt>
      <trkpt lat="43.68086" lon="3.77018">
        <ele>163.5</ele>
        <time>2017-05-21T07:38:36Z</time>
      </trkpt>
      <trkpt lat="43.68083" lon="3.77022">
        <ele>163.4</ele>
        <time>2017-05-21T07:38:37Z</time>
      </trkpt>
      <trkpt lat="43.68082" lon="3.77026">
        <ele>163.6</ele>
        <time>2017-05-21T07:38:38Z</time>
      </trkpt>
      <trkpt lat="43.68078" lon="3.77031">
        <ele>163</ele>
        <time>2017-05-21T07:38:40Z</time>
      </trkpt>
      <trkpt lat="43.68076" lon="3.77035">
        <ele>163.1</ele>
        <time>2017-05-21T07:38:41Z</time>
      </trkpt>
      <trkpt lat="43.68074" lon="3.77039">
        <ele>162.9</ele>
        <time>2017-05-21T07:38:42Z</time>
      </trkpt>
      <trkpt lat="43.68073" lon="3.77044">
        <ele>163.1</ele>
        <time>2017-05-21T07:38:43Z</time>
      </trkpt>
      <trkpt lat="43.6807" lon="3.77049">
        <ele>163</ele>
        <time>2017-05-21T07:38:44Z</time>
      </trkpt>
      <trkpt lat="43.68068" lon="3.77053">
        <ele>163</ele>
        <time>2017-05-21T07:38:45Z</time>
      </trkpt>
      <trkpt lat="43.68066" lon="3.77057">
        <ele>163.1</ele>
        <time>2017-05-21T07:38:46Z</time>
      </trkpt>
      <trkpt lat="43.68063" lon="3.77063">
        <ele>163</ele>
        <time>2017-05-21T07:38:47Z</time>
      </trkpt>
      <trkpt lat="43.68061" lon="3.77069">
        <ele>162.5</ele>
        <time>2017-05-21T07:38:48Z</time>
      </trkpt>
      <trkpt lat="43.68058" lon="3.77074">
        <ele>162.1</ele>
        <time>2017-05-21T07:38:49Z</time>
      </trkpt>
      <trkpt lat="43.68056" lon="3.7708">
        <ele>161.4</ele>
        <time>2017-05-21T07:38:50Z</time>
      </trkpt>
      <trkpt lat="43.68054" lon="3.77085">
        <ele>161.4</ele>
        <time>2017-05-21T07:38:51Z</time>
      </trkpt>
      <trkpt lat="43.68053" lon="3.77091">
        <ele>161.2</ele>
        <time>2017-05-21T07:38:52Z</time>
      </trkpt>
      <trkpt lat="43.68051" lon="3.77097">
        <ele>161.3</ele>
        <time>2017-05-21T07:38:53Z</time>
      </trkpt>
      <trkpt lat="43.68051" lon="3.77103">
        <ele>161.3</ele>
        <time>2017-05-21T07:38:54Z</time>
      </trkpt>
      <trkpt lat="43.68051" lon="3.77109">
        <ele>161.4</ele>
        <time>2017-05-21T07:38:55Z</time>
      </trkpt>
      <trkpt lat="43.68051" lon="3.77115">
        <ele>161.4</ele>
        <time>2017-05-21T07:38:56Z</time>
      </trkpt>
      <trkpt lat="43.68051" lon="3.77121">
        <ele>161.5</ele>
        <time>2017-05-21T07:38:57Z</time>
      </trkpt>
      <trkpt lat="43.68051" lon="3.77127">
        <ele>161.6</ele>
        <time>2017-05-21T07:38:58Z</time>
      </trkpt>
      <trkpt lat="43.68052" lon="3.77132">
        <ele>161.4</ele>
        <time>2017-05-21T07:38:59Z</time>
      </trkpt>
      <trkpt lat="43.68052" lon="3.77136">
        <ele>161.5</ele>
        <time>2017-05-21T07:39:00Z</time>
      </trkpt>
      <trkpt lat="43.68053" lon="3.77141">
        <ele>161.6</ele>
        <time>2017-05-21T07:39:01Z</time>
      </trkpt>
      <trkpt lat="43.68054" lon="3.77146">
        <ele>161.7</ele>
        <time>2017-05-21T07:39:02Z</time>
      </trkpt>
      <trkpt lat="43.68054" lon="3.7715">
        <ele>162.1</ele>
        <time>2017-05-21T07:39:03Z</time>
      </trkpt>
      <trkpt lat="43.68055" lon="3.77155">
        <ele>162.1</ele>
        <time>2017-05-21T07:39:04Z</time>
      </trkpt>
      <trkpt lat="43.68055" lon="3.77159">
        <ele>162.2</ele>
        <time>2017-05-21T07:39:05Z</time>
      </trkpt>
      <trkpt lat="43.68055" lon="3.77163">
        <ele>162.4</ele>
        <time>2017-05-21T07:39:06Z</time>
      </trkpt>
      <trkpt lat="43.68056" lon="3.77168">
        <ele>162.6</ele>
        <time>2017-05-21T07:39:07Z</time>
      </trkpt>
      <trkpt lat="43.68057" lon="3.77171">
        <ele>163.1</ele>
        <time>2017-05-21T07:39:08Z</time>
      </trkpt>
      <trkpt lat="43.68057" lon="3.77176">
        <ele>163.4</ele>
        <time>2017-05-21T07:39:09Z</time>
      </trkpt>
      <trkpt lat="43.68057" lon="3.7718">
        <ele>163.7</ele>
        <time>2017-05-21T07:39:10Z</time>
      </trkpt>
      <trkpt lat="43.68058" lon="3.77187">
        <ele>164</ele>
        <time>2017-05-21T07:39:12Z</time>
      </trkpt>
      <trkpt lat="43.68057" lon="3.77191">
        <ele>164.3</ele>
        <time>2017-05-21T07:39:13Z</time>
      </trkpt>
      <trkpt lat="43.68057" lon="3.77197">
        <ele>164.1</ele>
        <time>2017-05-21T07:39:15Z</time>
      </trkpt>
      <trkpt lat="43.68057" lon="3.77204">
        <ele>164.4</ele>
        <time>2017-05-21T07:39:17Z</time>
      </trkpt>
      <trkpt lat="43.68057" lon="3.77208">
        <ele>165.1</ele>
        <time>2017-05-21T07:39:18Z</time>
      </trkpt>
      <trkpt lat="43.68057" lon="3.77212">
        <ele>165.3</ele>
        <time>2017-05-21T07:39:19Z</time>
      </trkpt>
      <trkpt lat="43.68057" lon="3.77216">
        <ele>165.5</ele>
        <time>2017-05-21T07:39:20Z</time>
      </trkpt>
      <trkpt lat="43.68057" lon="3.77222">
        <ele>165.7</ele>
        <time>2017-05-21T07:39:22Z</time>
      </trkpt>
      <trkpt lat="43.68057" lon="3.77226">
        <ele>165.9</ele>
        <time>2017-05-21T07:39:23Z</time>
      </trkpt>
      <trkpt lat="43.68057" lon="3.77232">
        <ele>166.2</ele>
        <time>2017-05-21T07:39:24Z</time>
      </trkpt>
      <trkpt lat="43.68057" lon="3.77238">
        <ele>166.5</ele>
        <time>2017-05-21T07:39:25Z</time>
      </trkpt>
      <trkpt lat="43.68058" lon="3.77244">
        <ele>166.9</ele>
        <time>2017-05-21T07:39:26Z</time>
      </trkpt>
      <trkpt lat="43.68059" lon="3.77251">
        <ele>167.4</ele>
        <time>2017-05-21T07:39:27Z</time>
      </trkpt>
      <trkpt lat="43.68061" lon="3.77256">
        <ele>167.9</ele>
        <time>2017-05-21T07:39:28Z</time>
      </trkpt>
      <trkpt lat="43.68062" lon="3.77259">
        <ele>168.2</ele>
        <time>2017-05-21T07:39:29Z</time>
      </trkpt>
      <trkpt lat="43.68065" lon="3.77263">
        <ele>168.6</ele>
        <time>2017-05-21T07:39:30Z</time>
      </trkpt>
      <trkpt lat="43.68067" lon="3.77265">
        <ele>169</ele>
        <time>2017-05-21T07:39:31Z</time>
      </trkpt>
      <trkpt lat="43.6807" lon="3.77267">
        <ele>169.4</ele>
        <time>2017-05-21T07:39:32Z</time>
      </trkpt>
      <trkpt lat="43.68074" lon="3.7727">
        <ele>169.9</ele>
        <time>2017-05-21T07:39:33Z</time>
      </trkpt>
      <trkpt lat="43.68077" lon="3.77271">
        <ele>170.4</ele>
        <time>2017-05-21T07:39:34Z</time>
      </trkpt>
      <trkpt lat="43.6808" lon="3.77275">
        <ele>170.9</ele>
        <time>2017-05-21T07:39:35Z</time>
      </trkpt>
      <trkpt lat="43.68083" lon="3.77277">
        <ele>171.4</ele>
        <time>2017-05-21T07:39:36Z</time>
      </trkpt>
      <trkpt lat="43.68085" lon="3.7728">
        <ele>171.7</ele>
        <time>2017-05-21T07:39:37Z</time>
      </trkpt>
      <trkpt lat="43.68088" lon="3.77284">
        <ele>172</ele>
        <time>2017-05-21T07:39:39Z</time>
      </trkpt>
      <trkpt lat="43.6809" lon="3.77287">
        <ele>172.1</ele>
        <time>2017-05-21T07:39:40Z</time>
      </trkpt>
      <trkpt lat="43.68092" lon="3.77289">
        <ele>172.3</ele>
        <time>2017-05-21T07:39:41Z</time>
      </trkpt>
      <trkpt lat="43.68095" lon="3.77292">
        <ele>172.3</ele>
        <time>2017-05-21T07:39:42Z</time>
      </trkpt>
      <trkpt lat="43.68098" lon="3.77297">
        <ele>172.4</ele>
        <time>2017-05-21T07:39:44Z</time>
      </trkpt>
      <trkpt lat="43.68101" lon="3.773">
        <ele>172.5</ele>
        <time>2017-05-21T07:39:45Z</time>
      </trkpt>
      <trkpt lat="43.68102" lon="3.77304">
        <ele>172.5</ele>
        <time>2017-05-21T07:39:46Z</time>
      </trkpt>
      <trkpt lat="43.68105" lon="3.77306">
        <ele>172.5</ele>
        <time>2017-05-21T07:39:47Z</time>
      </trkpt>
      <trkpt lat="43.68107" lon="3.77308">
        <ele>172.3</ele>
        <time>2017-05-21T07:39:48Z</time>
      </trkpt>
      <trkpt lat="43.68109" lon="3.77312">
        <ele>172</ele>
        <time>2017-05-21T07:39:49Z</time>
      </trkpt>
      <trkpt lat="43.68114" lon="3.77316">
        <ele>171.5</ele>
        <time>2017-05-21T07:39:50Z</time>
      </trkpt>
      <trkpt lat="43.68118" lon="3.77318">
        <ele>171.2</ele>
        <time>2017-05-21T07:39:51Z</time>
      </trkpt>
      <trkpt lat="43.68121" lon="3.77324">
        <ele>170.9</ele>
        <time>2017-05-21T07:39:53Z</time>
      </trkpt>
      <trkpt lat="43.68125" lon="3.77327">
        <ele>170.5</ele>
        <time>2017-05-21T07:39:54Z</time>
      </trkpt>
      <trkpt lat="43.68127" lon="3.77331">
        <ele>170</ele>
        <time>2017-05-21T07:39:55Z</time>
      </trkpt>
      <trkpt lat="43.68131" lon="3.77334">
        <ele>169.5</ele>
        <time>2017-05-21T07:39:56Z</time>
      </trkpt>
      <trkpt lat="43.68134" lon="3.77337">
        <ele>169</ele>
        <time>2017-05-21T07:39:57Z</time>
      </trkpt>
      <trkpt lat="43.68137" lon="3.77341">
        <ele>168.5</ele>
        <time>2017-05-21T07:39:58Z</time>
      </trkpt>
      <trkpt lat="43.68139" lon="3.77344">
        <ele>168.3</ele>
        <time>2017-05-21T07:39:59Z</time>
      </trkpt>
      <trkpt lat="43.68145" lon="3.77349">
        <ele>168</ele>
        <time>2017-05-21T07:40:01Z</time>
      </trkpt>
      <trkpt lat="43.68148" lon="3.77353">
        <ele>167.7</ele>
        <time>2017-05-21T07:40:03Z</time>
      </trkpt>
      <trkpt lat="43.68151" lon="3.77355">
        <ele>167.4</ele>
        <time>2017-05-21T07:40:04Z</time>
      </trkpt>
      <trkpt lat="43.68155" lon="3.77357">
        <ele>167</ele>
        <time>2017-05-21T07:40:05Z</time>
      </trkpt>
      <trkpt lat="43.68161" lon="3.7736">
        <ele>166.6</ele>
        <time>2017-05-21T07:40:06Z</time>
      </trkpt>
      <trkpt lat="43.68166" lon="3.77361">
        <ele>166.4</ele>
        <time>2017-05-21T07:40:07Z</time>
      </trkpt>
      <trkpt lat="43.68171" lon="3.77362">
        <ele>166.2</ele>
        <time>2017-05-21T07:40:08Z</time>
      </trkpt>
      <trkpt lat="43.68176" lon="3.77364">
        <ele>166</ele>
        <time>2017-05-21T07:40:09Z</time>
      </trkpt>
      <trkpt lat="43.68181" lon="3.77365">
        <ele>165.7</ele>
        <time>2017-05-21T07:40:10Z</time>
      </trkpt>
      <trkpt lat="43.68187" lon="3.77367">
        <ele>165.2</ele>
        <time>2017-05-21T07:40:11Z</time>
      </trkpt>
      <trkpt lat="43.68195" lon="3.77367">
        <ele>164.7</ele>
        <time>2017-05-21T07:40:12Z</time>
      </trkpt>
      <trkpt lat="43.682" lon="3.77369">
        <ele>164.3</ele>
        <time>2017-05-21T07:40:13Z</time>
      </trkpt>
      <trkpt lat="43.68207" lon="3.77372">
        <ele>163.5</ele>
        <time>2017-05-21T07:40:14Z</time>
      </trkpt>
      <trkpt lat="43.68214" lon="3.77375">
        <ele>163.1</ele>
        <time>2017-05-21T07:40:15Z</time>
      </trkpt>
      <trkpt lat="43.6822" lon="3.7738">
        <ele>162.7</ele>
        <time>2017-05-21T07:40:16Z</time>
      </trkpt>
      <trkpt lat="43.68227" lon="3.77385">
        <ele>162</ele>
        <time>2017-05-21T07:40:17Z</time>
      </trkpt>
      <trkpt lat="43.68233" lon="3.77392">
        <ele>161.4</ele>
        <time>2017-05-21T07:40:18Z</time>
      </trkpt>
      <trkpt lat="43.68239" lon="3.77398">
        <ele>161</ele>
        <time>2017-05-21T07:40:19Z</time>
      </trkpt>
      <trkpt lat="43.68246" lon="3.77405">
        <ele>160.5</ele>
        <time>2017-05-21T07:40:20Z</time>
      </trkpt>
      <trkpt lat="43.68253" lon="3.77411">
        <ele>159.8</ele>
        <time>2017-05-21T07:40:21Z</time>
      </trkpt>
      <trkpt lat="43.6826" lon="3.77418">
        <ele>159.5</ele>
        <time>2017-05-21T07:40:22Z</time>
      </trkpt>
      <trkpt lat="43.68267" lon="3.77425">
        <ele>159</ele>
        <time>2017-05-21T07:40:23Z</time>
      </trkpt>
      <trkpt lat="43.68274" lon="3.77431">
        <ele>158.2</ele>
        <time>2017-05-21T07:40:24Z</time>
      </trkpt>
      <trkpt lat="43.68281" lon="3.77439">
        <ele>157.8</ele>
        <time>2017-05-21T07:40:25Z</time>
      </trkpt>
      <trkpt lat="43.68287" lon="3.77445">
        <ele>157</ele>
        <time>2017-05-21T07:40:26Z</time>
      </trkpt>
      <trkpt lat="43.68294" lon="3.77452">
        <ele>156.2</ele>
        <time>2017-05-21T07:40:27Z</time>
      </trkpt>
      <trkpt lat="43.683" lon="3.77458">
        <ele>155.5</ele>
        <time>2017-05-21T07:40:28Z</time>
      </trkpt>
      <trkpt lat="43.68306" lon="3.77466">
        <ele>154.7</ele>
        <time>2017-05-21T07:40:29Z</time>
      </trkpt>
      <trkpt lat="43.68312" lon="3.77474">
        <ele>154.3</ele>
        <time>2017-05-21T07:40:30Z</time>
      </trkpt>
      <trkpt lat="43.68319" lon="3.77482">
        <ele>153.1</ele>
        <time>2017-05-21T07:40:31Z</time>
      </trkpt>
      <trkpt lat="43.68327" lon="3.77489">
        <ele>152.2</ele>
        <time>2017-05-21T07:40:32Z</time>
      </trkpt>
      <trkpt lat="43.68334" lon="3.77495">
        <ele>151.2</ele>
        <time>2017-05-21T07:40:33Z</time>
      </trkpt>
      <trkpt lat="43.6834" lon="3.775">
        <ele>150.6</ele>
        <time>2017-05-21T07:40:34Z</time>
      </trkpt>
      <trkpt lat="43.68348" lon="3.77506">
        <ele>149.5</ele>
        <time>2017-05-21T07:40:35Z</time>
      </trkpt>
      <trkpt lat="43.68357" lon="3.77509">
        <ele>148.6</ele>
        <time>2017-05-21T07:40:36Z</time>
      </trkpt>
      <trkpt lat="43.68365" lon="3.77511">
        <ele>147.5</ele>
        <time>2017-05-21T07:40:37Z</time>
      </trkpt>
      <trkpt lat="43.68371" lon="3.77515">
        <ele>146.9</ele>
        <time>2017-05-21T07:40:38Z</time>
      </trkpt>
      <trkpt lat="43.68378" lon="3.77517">
        <ele>145.8</ele>
        <time>2017-05-21T07:40:39Z</time>
      </trkpt>
      <trkpt lat="43.68385" lon="3.77519">
        <ele>144.6</ele>
        <time>2017-05-21T07:40:40Z</time>
      </trkpt>
      <trkpt lat="43.68392" lon="3.77522">
        <ele>143.7</ele>
        <time>2017-05-21T07:40:41Z</time>
      </trkpt>
      <trkpt lat="43.68399" lon="3.77525">
        <ele>142.8</ele>
        <time>2017-05-21T07:40:42Z</time>
      </trkpt>
      <trkpt lat="43.68406" lon="3.77529">
        <ele>141.7</ele>
        <time>2017-05-21T07:40:43Z</time>
      </trkpt>
      <trkpt lat="43.68412" lon="3.77535">
        <ele>140.5</ele>
        <time>2017-05-21T07:40:44Z</time>
      </trkpt>
      <trkpt lat="43.6842" lon="3.77539">
        <ele>139.5</ele>
        <time>2017-05-21T07:40:45Z</time>
      </trkpt>
      <trkpt lat="43.68427" lon="3.77543">
        <ele>138.4</ele>
        <time>2017-05-21T07:40:46Z</time>
      </trkpt>
      <trkpt lat="43.68434" lon="3.77546">
        <ele>137.2</ele>
        <time>2017-05-21T07:40:47Z</time>
      </trkpt>
      <trkpt lat="43.68441" lon="3.7755">
        <ele>136.2</ele>
        <time>2017-05-21T07:40:48Z</time>
      </trkpt>
      <trkpt lat="43.68448" lon="3.7755">
        <ele>135.2</ele>
        <time>2017-05-21T07:40:49Z</time>
      </trkpt>
      <trkpt lat="43.68454" lon="3.77552">
        <ele>134.7</ele>
        <time>2017-05-21T07:40:50Z</time>
      </trkpt>
      <trkpt lat="43.68459" lon="3.77553">
        <ele>134.1</ele>
        <time>2017-05-21T07:40:51Z</time>
      </trkpt>
      <trkpt lat="43.68464" lon="3.77553">
        <ele>133.5</ele>
        <time>2017-05-21T07:40:52Z</time>
      </trkpt>
      <trkpt lat="43.68469" lon="3.77554">
        <ele>133.1</ele>
        <time>2017-05-21T07:40:53Z</time>
      </trkpt>
      <trkpt lat="43.68472" lon="3.77556">
        <ele>133</ele>
        <time>2017-05-21T07:40:54Z</time>
      </trkpt>
      <trkpt lat="43.68474" lon="3.7756">
        <ele>133.1</ele>
        <time>2017-05-21T07:40:55Z</time>
      </trkpt>
      <trkpt lat="43.68475" lon="3.77566">
        <ele>133.2</ele>
        <time>2017-05-21T07:40:56Z</time>
      </trkpt>
      <trkpt lat="43.68475" lon="3.77571">
        <ele>133.3</ele>
        <time>2017-05-21T07:40:57Z</time>
      </trkpt>
      <trkpt lat="43.68475" lon="3.77577">
        <ele>133.4</ele>
        <time>2017-05-21T07:40:58Z</time>
      </trkpt>
      <trkpt lat="43.68474" lon="3.77583">
        <ele>133.5</ele>
        <time>2017-05-21T07:40:59Z</time>
      </trkpt>
      <trkpt lat="43.68473" lon="3.77588">
        <ele>133.6</ele>
        <time>2017-05-21T07:41:00Z</time>
      </trkpt>
      <trkpt lat="43.68473" lon="3.77595">
        <ele>133.7</ele>
        <time>2017-05-21T07:41:01Z</time>
      </trkpt>
      <trkpt lat="43.68472" lon="3.77602">
        <ele>133.9</ele>
        <time>2017-05-21T07:41:02Z</time>
      </trkpt>
      <trkpt lat="43.68473" lon="3.7761">
        <ele>134</ele>
        <time>2017-05-21T07:41:03Z</time>
      </trkpt>
      <trkpt lat="43.68474" lon="3.77616">
        <ele>134.2</ele>
        <time>2017-05-21T07:41:04Z</time>
      </trkpt>
      <trkpt lat="43.68474" lon="3.77622">
        <ele>134.4</ele>
        <time>2017-05-21T07:41:05Z</time>
      </trkpt>
      <trkpt lat="43.68473" lon="3.77629">
        <ele>134.6</ele>
        <time>2017-05-21T07:41:06Z</time>
      </trkpt>
      <trkpt lat="43.68473" lon="3.77635">
        <ele>134.7</ele>
        <time>2017-05-21T07:41:07Z</time>
      </trkpt>
      <trkpt lat="43.68473" lon="3.77641">
        <ele>134.9</ele>
        <time>2017-05-21T07:41:08Z</time>
      </trkpt>
      <trkpt lat="43.68473" lon="3.77648">
        <ele>134.9</ele>
        <time>2017-05-21T07:41:09Z</time>
      </trkpt>
      <trkpt lat="43.68473" lon="3.77654">
        <ele>135</ele>
        <time>2017-05-21T07:41:10Z</time>
      </trkpt>
      <trkpt lat="43.68473" lon="3.77661">
        <ele>135</ele>
        <time>2017-05-21T07:41:11Z</time>
      </trkpt>
      <trkpt lat="43.68473" lon="3.77668">
        <ele>135.1</ele>
        <time>2017-05-21T07:41:12Z</time>
      </trkpt>
      <trkpt lat="43.68473" lon="3.77676">
        <ele>135.2</ele>
        <time>2017-05-21T07:41:13Z</time>
      </trkpt>
      <trkpt lat="43.68472" lon="3.77683">
        <ele>135.3</ele>
        <time>2017-05-21T07:41:14Z</time>
      </trkpt>
      <trkpt lat="43.68472" lon="3.7769">
        <ele>135.4</ele>
        <time>2017-05-21T07:41:15Z</time>
      </trkpt>
      <trkpt lat="43.68471" lon="3.77698">
        <ele>135.4</ele>
        <time>2017-05-21T07:41:16Z</time>
      </trkpt>
      <trkpt lat="43.6847" lon="3.77704">
        <ele>135.5</ele>
        <time>2017-05-21T07:41:17Z</time>
      </trkpt>
      <trkpt lat="43.6847" lon="3.77712">
        <ele>135.6</ele>
        <time>2017-05-21T07:41:18Z</time>
      </trkpt>
      <trkpt lat="43.68469" lon="3.77719">
        <ele>135.7</ele>
        <time>2017-05-21T07:41:19Z</time>
      </trkpt>
      <trkpt lat="43.68468" lon="3.77726">
        <ele>135.7</ele>
        <time>2017-05-21T07:41:20Z</time>
      </trkpt>
      <trkpt lat="43.68468" lon="3.77733">
        <ele>135.9</ele>
        <time>2017-05-21T07:41:21Z</time>
      </trkpt>
      <trkpt lat="43.68466" lon="3.7774">
        <ele>136.1</ele>
        <time>2017-05-21T07:41:22Z</time>
      </trkpt>
      <trkpt lat="43.68465" lon="3.77746">
        <ele>136.3</ele>
        <time>2017-05-21T07:41:23Z</time>
      </trkpt>
      <trkpt lat="43.68462" lon="3.77753">
        <ele>136.4</ele>
        <time>2017-05-21T07:41:24Z</time>
      </trkpt>
      <trkpt lat="43.6846" lon="3.77758">
        <ele>136.5</ele>
        <time>2017-05-21T07:41:25Z</time>
      </trkpt>
      <trkpt lat="43.68457" lon="3.77764">
        <ele>136.7</ele>
        <time>2017-05-21T07:41:26Z</time>
      </trkpt>
      <trkpt lat="43.68453" lon="3.77769">
        <ele>136.8</ele>
        <time>2017-05-21T07:41:27Z</time>
      </trkpt>
      <trkpt lat="43.68451" lon="3.77774">
        <ele>136.9</ele>
        <time>2017-05-21T07:41:28Z</time>
      </trkpt>
      <trkpt lat="43.68448" lon="3.77781">
        <ele>137</ele>
        <time>2017-05-21T07:41:29Z</time>
      </trkpt>
      <trkpt lat="43.68446" lon="3.77787">
        <ele>137.1</ele>
        <time>2017-05-21T07:41:30Z</time>
      </trkpt>
      <trkpt lat="43.68443" lon="3.77792">
        <ele>137.2</ele>
        <time>2017-05-21T07:41:31Z</time>
      </trkpt>
      <trkpt lat="43.6844" lon="3.77799">
        <ele>137.3</ele>
        <time>2017-05-21T07:41:32Z</time>
      </trkpt>
      <trkpt lat="43.68438" lon="3.77806">
        <ele>137.4</ele>
        <time>2017-05-21T07:41:33Z</time>
      </trkpt>
      <trkpt lat="43.68435" lon="3.77812">
        <ele>137.5</ele>
        <time>2017-05-21T07:41:34Z</time>
      </trkpt>
      <trkpt lat="43.68433" lon="3.77817">
        <ele>137.6</ele>
        <time>2017-05-21T07:41:35Z</time>
      </trkpt>
      <trkpt lat="43.68432" lon="3.77824">
        <ele>137.7</ele>
        <time>2017-05-21T07:41:36Z</time>
      </trkpt>
      <trkpt lat="43.6843" lon="3.77832">
        <ele>138</ele>
        <time>2017-05-21T07:41:37Z</time>
      </trkpt>
      <trkpt lat="43.68427" lon="3.77839">
        <ele>138.3</ele>
        <time>2017-05-21T07:41:38Z</time>
      </trkpt>
      <trkpt lat="43.68425" lon="3.77845">
        <ele>138.5</ele>
        <time>2017-05-21T07:41:39Z</time>
      </trkpt>
      <trkpt lat="43.68423" lon="3.77852">
        <ele>138.7</ele>
        <time>2017-05-21T07:41:40Z</time>
      </trkpt>
      <trkpt lat="43.6842" lon="3.77858">
        <ele>138.9</ele>
        <time>2017-05-21T07:41:41Z</time>
      </trkpt>
      <trkpt lat="43.68417" lon="3.77865">
        <ele>139.1</ele>
        <time>2017-05-21T07:41:42Z</time>
      </trkpt>
      <trkpt lat="43.68414" lon="3.77871">
        <ele>139.3</ele>
        <time>2017-05-21T07:41:43Z</time>
      </trkpt>
      <trkpt lat="43.68411" lon="3.77878">
        <ele>139.5</ele>
        <time>2017-05-21T07:41:44Z</time>
      </trkpt>
      <trkpt lat="43.68409" lon="3.77884">
        <ele>139.6</ele>
        <time>2017-05-21T07:41:45Z</time>
      </trkpt>
      <trkpt lat="43.68407" lon="3.7789">
        <ele>139.8</ele>
        <time>2017-05-21T07:41:46Z</time>
      </trkpt>
      <trkpt lat="43.68403" lon="3.77898">
        <ele>140.1</ele>
        <time>2017-05-21T07:41:47Z</time>
      </trkpt>
      <trkpt lat="43.68401" lon="3.77904">
        <ele>140.5</ele>
        <time>2017-05-21T07:41:48Z</time>
      </trkpt>
      <trkpt lat="43.68398" lon="3.7791">
        <ele>141</ele>
        <time>2017-05-21T07:41:49Z</time>
      </trkpt>
      <trkpt lat="43.68395" lon="3.77916">
        <ele>140.7</ele>
        <time>2017-05-21T07:41:50Z</time>
      </trkpt>
      <trkpt lat="43.68392" lon="3.77921">
        <ele>140.5</ele>
        <time>2017-05-21T07:41:51Z</time>
      </trkpt>
      <trkpt lat="43.68388" lon="3.77927">
        <ele>140.3</ele>
        <time>2017-05-21T07:41:52Z</time>
      </trkpt>
      <trkpt lat="43.68385" lon="3.77933">
        <ele>140.1</ele>
        <time>2017-05-21T07:41:53Z</time>
      </trkpt>
      <trkpt lat="43.68381" lon="3.7794">
        <ele>140</ele>
        <time>2017-05-21T07:41:54Z</time>
      </trkpt>
      <trkpt lat="43.68377" lon="3.77945">
        <ele>139.7</ele>
        <time>2017-05-21T07:41:55Z</time>
      </trkpt>
      <trkpt lat="43.68374" lon="3.77952">
        <ele>139.5</ele>
        <time>2017-05-21T07:41:56Z</time>
      </trkpt>
      <trkpt lat="43.6837" lon="3.77958">
        <ele>139.3</ele>
        <time>2017-05-21T07:41:57Z</time>
      </trkpt>
      <trkpt lat="43.68366" lon="3.77963">
        <ele>138.9</ele>
        <time>2017-05-21T07:41:58Z</time>
      </trkpt>
      <trkpt lat="43.68364" lon="3.77968">
        <ele>138.6</ele>
        <time>2017-05-21T07:41:59Z</time>
      </trkpt>
      <trkpt lat="43.68361" lon="3.77973">
        <ele>138</ele>
        <time>2017-05-21T07:42:00Z</time>
      </trkpt>
      <trkpt lat="43.68359" lon="3.77976">
        <ele>137.5</ele>
        <time>2017-05-21T07:42:01Z</time>
      </trkpt>
      <trkpt lat="43.68358" lon="3.7798">
        <ele>137.1</ele>
        <time>2017-05-21T07:42:02Z</time>
      </trkpt>
      <trkpt lat="43.68359" lon="3.77985">
        <ele>136.9</ele>
        <time>2017-05-21T07:42:04Z</time>
      </trkpt>
      <trkpt lat="43.68363" lon="3.77986">
        <ele>133.5</ele>
        <time>2017-05-21T07:42:06Z</time>
      </trkpt>
      <trkpt lat="43.68369" lon="3.77988">
        <ele>130</ele>
        <time>2017-05-21T07:42:08Z</time>
      </trkpt>
      <trkpt lat="43.68374" lon="3.77987">
        <ele>130</ele>
        <time>2017-05-21T07:42:10Z</time>
      </trkpt>
      <trkpt lat="43.68379" lon="3.77987">
        <ele>130</ele>
        <time>2017-05-21T07:42:12Z</time>
      </trkpt>
      <trkpt lat="43.6838" lon="3.77992">
        <ele>129.2</ele>
        <time>2017-05-21T07:42:15Z</time>
      </trkpt>
      <trkpt lat="43.6838" lon="3.77996">
        <ele>128.7</ele>
        <time>2017-05-21T07:42:16Z</time>
      </trkpt>
      <trkpt lat="43.68379" lon="3.78002">
        <ele>127.9</ele>
        <time>2017-05-21T07:42:18Z</time>
      </trkpt>
      <trkpt lat="43.68378" lon="3.78005">
        <ele>127</ele>
        <time>2017-05-21T07:42:19Z</time>
      </trkpt>
      <trkpt lat="43.68376" lon="3.7801">
        <ele>126.3</ele>
        <time>2017-05-21T07:42:20Z</time>
      </trkpt>
      <trkpt lat="43.68374" lon="3.78013">
        <ele>125.3</ele>
        <time>2017-05-21T07:42:21Z</time>
      </trkpt>
      <trkpt lat="43.68371" lon="3.78017">
        <ele>124.5</ele>
        <time>2017-05-21T07:42:22Z</time>
      </trkpt>
      <trkpt lat="43.68368" lon="3.78021">
        <ele>123.9</ele>
        <time>2017-05-21T07:42:23Z</time>
      </trkpt>
      <trkpt lat="43.68365" lon="3.78025">
        <ele>123.2</ele>
        <time>2017-05-21T07:42:24Z</time>
      </trkpt>
      <trkpt lat="43.68361" lon="3.78029">
        <ele>122.8</ele>
        <time>2017-05-21T07:42:25Z</time>
      </trkpt>
      <trkpt lat="43.68358" lon="3.78033">
        <ele>122.6</ele>
        <time>2017-05-21T07:42:26Z</time>
      </trkpt>
      <trkpt lat="43.68355" lon="3.78037">
        <ele>122.4</ele>
        <time>2017-05-21T07:42:27Z</time>
      </trkpt>
      <trkpt lat="43.68353" lon="3.78042">
        <ele>122.3</ele>
        <time>2017-05-21T07:42:28Z</time>
      </trkpt>
      <trkpt lat="43.68351" lon="3.78046">
        <ele>122.3</ele>
        <time>2017-05-21T07:42:29Z</time>
      </trkpt>
      <trkpt lat="43.68349" lon="3.78051">
        <ele>122.2</ele>
        <time>2017-05-21T07:42:30Z</time>
      </trkpt>
      <trkpt lat="43.68346" lon="3.78055">
        <ele>122.1</ele>
        <time>2017-05-21T07:42:31Z</time>
      </trkpt>
      <trkpt lat="43.68344" lon="3.78061">
        <ele>122.1</ele>
        <time>2017-05-21T07:42:32Z</time>
      </trkpt>
      <trkpt lat="43.68343" lon="3.78067">
        <ele>122</ele>
        <time>2017-05-21T07:42:33Z</time>
      </trkpt>
      <trkpt lat="43.68342" lon="3.78073">
        <ele>122</ele>
        <time>2017-05-21T07:42:34Z</time>
      </trkpt>
      <trkpt lat="43.68341" lon="3.7808">
        <ele>121.9</ele>
        <time>2017-05-21T07:42:35Z</time>
      </trkpt>
      <trkpt lat="43.68341" lon="3.78086">
        <ele>121.8</ele>
        <time>2017-05-21T07:42:36Z</time>
      </trkpt>
      <trkpt lat="43.68341" lon="3.78092">
        <ele>121.8</ele>
        <time>2017-05-21T07:42:37Z</time>
      </trkpt>
      <trkpt lat="43.68342" lon="3.78098">
        <ele>121.5</ele>
        <time>2017-05-21T07:42:38Z</time>
      </trkpt>
      <trkpt lat="43.68343" lon="3.78104">
        <ele>121.3</ele>
        <time>2017-05-21T07:42:39Z</time>
      </trkpt>
      <trkpt lat="43.68346" lon="3.7811">
        <ele>120.9</ele>
        <time>2017-05-21T07:42:40Z</time>
      </trkpt>
      <trkpt lat="43.68348" lon="3.78115">
        <ele>120.6</ele>
        <time>2017-05-21T07:42:41Z</time>
      </trkpt>
      <trkpt lat="43.6835" lon="3.78121">
        <ele>120.3</ele>
        <time>2017-05-21T07:42:42Z</time>
      </trkpt>
      <trkpt lat="43.68353" lon="3.78126">
        <ele>119.9</ele>
        <time>2017-05-21T07:42:43Z</time>
      </trkpt>
      <trkpt lat="43.68356" lon="3.78131">
        <ele>119.4</ele>
        <time>2017-05-21T07:42:44Z</time>
      </trkpt>
      <trkpt lat="43.68359" lon="3.78137">
        <ele>118.8</ele>
        <time>2017-05-21T07:42:45Z</time>
      </trkpt>
      <trkpt lat="43.68362" lon="3.78143">
        <ele>118.2</ele>
        <time>2017-05-21T07:42:46Z</time>
      </trkpt>
      <trkpt lat="43.68365" lon="3.78148">
        <ele>117.3</ele>
        <time>2017-05-21T07:42:47Z</time>
      </trkpt>
      <trkpt lat="43.68367" lon="3.78154">
        <ele>116.6</ele>
        <time>2017-05-21T07:42:48Z</time>
      </trkpt>
      <trkpt lat="43.68369" lon="3.7816">
        <ele>116.1</ele>
        <time>2017-05-21T07:42:49Z</time>
      </trkpt>
      <trkpt lat="43.68371" lon="3.78165">
        <ele>115.6</ele>
        <time>2017-05-21T07:42:50Z</time>
      </trkpt>
      <trkpt lat="43.68373" lon="3.7817">
        <ele>115.2</ele>
        <time>2017-05-21T07:42:51Z</time>
      </trkpt>
      <trkpt lat="43.68375" lon="3.78176">
        <ele>114.7</ele>
        <time>2017-05-21T07:42:52Z</time>
      </trkpt>
      <trkpt lat="43.68377" lon="3.78182">
        <ele>114.2</ele>
        <time>2017-05-21T07:42:53Z</time>
      </trkpt>
      <trkpt lat="43.68378" lon="3.78188">
        <ele>113.7</ele>
        <time>2017-05-21T07:42:54Z</time>
      </trkpt>
      <trkpt lat="43.6838" lon="3.78195">
        <ele>113.2</ele>
        <time>2017-05-21T07:42:55Z</time>
      </trkpt>
      <trkpt lat="43.6838" lon="3.78201">
        <ele>112.8</ele>
        <time>2017-05-21T07:42:56Z</time>
      </trkpt>
      <trkpt lat="43.6838" lon="3.78208">
        <ele>112.3</ele>
        <time>2017-05-21T07:42:57Z</time>
      </trkpt>
      <trkpt lat="43.68379" lon="3.78215">
        <ele>111.8</ele>
        <time>2017-05-21T07:42:58Z</time>
      </trkpt>
      <trkpt lat="43.68379" lon="3.78222">
        <ele>111.4</ele>
        <time>2017-05-21T07:42:59Z</time>
      </trkpt>
      <trkpt lat="43.68378" lon="3.7823">
        <ele>110.9</ele>
        <time>2017-05-21T07:43:00Z</time>
      </trkpt>
      <trkpt lat="43.68376" lon="3.78237">
        <ele>110.5</ele>
        <time>2017-05-21T07:43:01Z</time>
      </trkpt>
      <trkpt lat="43.68374" lon="3.78245">
        <ele>109.9</ele>
        <time>2017-05-21T07:43:02Z</time>
      </trkpt>
      <trkpt lat="43.68372" lon="3.78252">
        <ele>109.5</ele>
        <time>2017-05-21T07:43:03Z</time>
      </trkpt>
      <trkpt lat="43.68369" lon="3.78259">
        <ele>109.1</ele>
        <time>2017-05-21T07:43:04Z</time>
      </trkpt>
      <trkpt lat="43.68366" lon="3.78266">
        <ele>109</ele>
        <time>2017-05-21T07:43:05Z</time>
      </trkpt>
      <trkpt lat="43.68363" lon="3.78273">
        <ele>108.8</ele>
        <time>2017-05-21T07:43:06Z</time>
      </trkpt>
      <trkpt lat="43.68359" lon="3.7828">
        <ele>108.7</ele>
        <time>2017-05-21T07:43:07Z</time>
      </trkpt>
      <trkpt lat="43.68354" lon="3.78286">
        <ele>108.5</ele>
        <time>2017-05-21T07:43:08Z</time>
      </trkpt>
      <trkpt lat="43.68349" lon="3.78292">
        <ele>108.3</ele>
        <time>2017-05-21T07:43:09Z</time>
      </trkpt>
      <trkpt lat="43.68343" lon="3.78297">
        <ele>108.2</ele>
        <time>2017-05-21T07:43:10Z</time>
      </trkpt>
      <trkpt lat="43.68338" lon="3.78303">
        <ele>108.1</ele>
        <time>2017-05-21T07:43:11Z</time>
      </trkpt>
      <trkpt lat="43.68333" lon="3.78307">
        <ele>108</ele>
        <time>2017-05-21T07:43:12Z</time>
      </trkpt>
      <trkpt lat="43.68327" lon="3.78311">
        <ele>108</ele>
        <time>2017-05-21T07:43:13Z</time>
      </trkpt>
      <trkpt lat="43.68321" lon="3.78314">
        <ele>108</ele>
        <time>2017-05-21T07:43:14Z</time>
      </trkpt>
      <trkpt lat="43.68314" lon="3.78316">
        <ele>108</ele>
        <time>2017-05-21T07:43:15Z</time>
      </trkpt>
      <trkpt lat="43.68308" lon="3.78318">
        <ele>108</ele>
        <time>2017-05-21T07:43:16Z</time>
      </trkpt>
      <trkpt lat="43.68303" lon="3.78321">
        <ele>108</ele>
        <time>2017-05-21T07:43:17Z</time>
      </trkpt>
      <trkpt lat="43.68296" lon="3.78324">
        <ele>108</ele>
        <time>2017-05-21T07:43:18Z</time>
      </trkpt>
      <trkpt lat="43.68289" lon="3.78327">
        <ele>108</ele>
        <time>2017-05-21T07:43:19Z</time>
      </trkpt>
      <trkpt lat="43.68283" lon="3.78333">
        <ele>108</ele>
        <time>2017-05-21T07:43:20Z</time>
      </trkpt>
      <trkpt lat="43.68277" lon="3.78335">
        <ele>107.9</ele>
        <time>2017-05-21T07:43:21Z</time>
      </trkpt>
      <trkpt lat="43.68269" lon="3.78338">
        <ele>107.8</ele>
        <time>2017-05-21T07:43:22Z</time>
      </trkpt>
      <trkpt lat="43.68263" lon="3.78342">
        <ele>107.7</ele>
        <time>2017-05-21T07:43:23Z</time>
      </trkpt>
      <trkpt lat="43.68256" lon="3.78346">
        <ele>107.5</ele>
        <time>2017-05-21T07:43:24Z</time>
      </trkpt>
      <trkpt lat="43.6825" lon="3.78351">
        <ele>107.5</ele>
        <time>2017-05-21T07:43:25Z</time>
      </trkpt>
      <trkpt lat="43.68244" lon="3.78355">
        <ele>107.5</ele>
        <time>2017-05-21T07:43:26Z</time>
      </trkpt>
      <trkpt lat="43.68237" lon="3.78361">
        <ele>107.5</ele>
        <time>2017-05-21T07:43:27Z</time>
      </trkpt>
      <trkpt lat="43.68231" lon="3.78367">
        <ele>107.4</ele>
        <time>2017-05-21T07:43:28Z</time>
      </trkpt>
      <trkpt lat="43.68224" lon="3.78373">
        <ele>107.4</ele>
        <time>2017-05-21T07:43:29Z</time>
      </trkpt>
      <trkpt lat="43.68218" lon="3.78377">
        <ele>107.3</ele>
        <time>2017-05-21T07:43:30Z</time>
      </trkpt>
      <trkpt lat="43.68212" lon="3.78383">
        <ele>107.1</ele>
        <time>2017-05-21T07:43:31Z</time>
      </trkpt>
      <trkpt lat="43.68206" lon="3.78388">
        <ele>106.8</ele>
        <time>2017-05-21T07:43:32Z</time>
      </trkpt>
      <trkpt lat="43.682" lon="3.78395">
        <ele>106.6</ele>
        <time>2017-05-21T07:43:33Z</time>
      </trkpt>
      <trkpt lat="43.68195" lon="3.784">
        <ele>106.3</ele>
        <time>2017-05-21T07:43:34Z</time>
      </trkpt>
      <trkpt lat="43.68188" lon="3.78405">
        <ele>106</ele>
        <time>2017-05-21T07:43:35Z</time>
      </trkpt>
      <trkpt lat="43.68183" lon="3.78409">
        <ele>105.6</ele>
        <time>2017-05-21T07:43:36Z</time>
      </trkpt>
      <trkpt lat="43.68176" lon="3.78412">
        <ele>105.2</ele>
        <time>2017-05-21T07:43:37Z</time>
      </trkpt>
      <trkpt lat="43.6817" lon="3.78414">
        <ele>104.8</ele>
        <time>2017-05-21T07:43:38Z</time>
      </trkpt>
      <trkpt lat="43.68164" lon="3.78415">
        <ele>104.3</ele>
        <time>2017-05-21T07:43:39Z</time>
      </trkpt>
      <trkpt lat="43.68159" lon="3.78416">
        <ele>109.8</ele>
        <time>2017-05-21T07:43:40Z</time>
      </trkpt>
      <trkpt lat="43.68156" lon="3.78416">
        <ele>115.3</ele>
        <time>2017-05-21T07:43:41Z</time>
      </trkpt>
      <trkpt lat="43.68153" lon="3.78416">
        <ele>114.9</ele>
        <time>2017-05-21T07:43:42Z</time>
      </trkpt>
      <trkpt lat="43.6815" lon="3.78417">
        <ele>114.7</ele>
        <time>2017-05-21T07:43:45Z</time>
      </trkpt>
      <trkpt lat="43.68147" lon="3.78415">
        <ele>114.5</ele>
        <time>2017-05-21T07:43:56Z</time>
      </trkpt>
      <trkpt lat="43.68142" lon="3.78415">
        <ele>114.4</ele>
        <time>2017-05-21T07:43:58Z</time>
      </trkpt>
      <trkpt lat="43.68138" lon="3.78415">
        <ele>114.2</ele>
        <time>2017-05-21T07:44:00Z</time>
      </trkpt>
      <trkpt lat="43.68135" lon="3.78415">
        <ele>114.1</ele>
        <time>2017-05-21T07:44:06Z</time>
      </trkpt>
      <trkpt lat="43.68132" lon="3.78417">
        <ele>114</ele>
        <time>2017-05-21T07:44:10Z</time>
      </trkpt>
      <trkpt lat="43.6813" lon="3.78419">
        <ele>113.9</ele>
        <time>2017-05-21T07:44:21Z</time>
      </trkpt>
      <trkpt lat="43.68127" lon="3.78422">
        <ele>113.8</ele>
        <time>2017-05-21T07:44:23Z</time>
      </trkpt>
      <trkpt lat="43.68122" lon="3.78425">
        <ele>113.6</ele>
        <time>2017-05-21T07:44:25Z</time>
      </trkpt>
      <trkpt lat="43.68119" lon="3.78427">
        <ele>113.5</ele>
        <time>2017-05-21T07:44:26Z</time>
      </trkpt>
      <trkpt lat="43.68117" lon="3.78429">
        <ele>113.4</ele>
        <time>2017-05-21T07:44:27Z</time>
      </trkpt>
      <trkpt lat="43.68113" lon="3.78431">
        <ele>113.3</ele>
        <time>2017-05-21T07:44:28Z</time>
      </trkpt>
      <trkpt lat="43.68111" lon="3.78433">
        <ele>113.2</ele>
        <time>2017-05-21T07:44:29Z</time>
      </trkpt>
      <trkpt lat="43.68109" lon="3.78437">
        <ele>113</ele>
        <time>2017-05-21T07:44:30Z</time>
      </trkpt>
      <trkpt lat="43.68105" lon="3.78439">
        <ele>112.9</ele>
        <time>2017-05-21T07:44:31Z</time>
      </trkpt>
      <trkpt lat="43.68101" lon="3.78441">
        <ele>112.8</ele>
        <time>2017-05-21T07:44:32Z</time>
      </trkpt>
      <trkpt lat="43.68099" lon="3.78442">
        <ele>112.7</ele>
        <time>2017-05-21T07:44:33Z</time>
      </trkpt>
      <trkpt lat="43.68095" lon="3.78445">
        <ele>112.5</ele>
        <time>2017-05-21T07:44:34Z</time>
      </trkpt>
      <trkpt lat="43.68091" lon="3.78448">
        <ele>112.3</ele>
        <time>2017-05-21T07:44:35Z</time>
      </trkpt>
      <trkpt lat="43.68088" lon="3.7845">
        <ele>112.3</ele>
        <time>2017-05-21T07:44:36Z</time>
      </trkpt>
      <trkpt lat="43.68085" lon="3.78453">
        <ele>112.2</ele>
        <time>2017-05-21T07:44:37Z</time>
      </trkpt>
      <trkpt lat="43.6808" lon="3.78455">
        <ele>112</ele>
        <time>2017-05-21T07:44:38Z</time>
      </trkpt>
      <trkpt lat="43.68076" lon="3.78457">
        <ele>111.9</ele>
        <time>2017-05-21T07:44:39Z</time>
      </trkpt>
      <trkpt lat="43.68072" lon="3.78458">
        <ele>111.8</ele>
        <time>2017-05-21T07:44:40Z</time>
      </trkpt>
      <trkpt lat="43.68068" lon="3.78459">
        <ele>111.7</ele>
        <time>2017-05-21T07:44:41Z</time>
      </trkpt>
      <trkpt lat="43.68063" lon="3.78461">
        <ele>111.4</ele>
        <time>2017-05-21T07:44:42Z</time>
      </trkpt>
      <trkpt lat="43.68059" lon="3.78463">
        <ele>111.2</ele>
        <time>2017-05-21T07:44:43Z</time>
      </trkpt>
      <trkpt lat="43.68053" lon="3.78465">
        <ele>110.7</ele>
        <time>2017-05-21T07:44:44Z</time>
      </trkpt>
      <trkpt lat="43.68048" lon="3.78466">
        <ele>109.6</ele>
        <time>2017-05-21T07:44:45Z</time>
      </trkpt>
      <trkpt lat="43.68043" lon="3.78468">
        <ele>108.5</ele>
        <time>2017-05-21T07:44:46Z</time>
      </trkpt>
      <trkpt lat="43.68038" lon="3.7847">
        <ele>108</ele>
        <time>2017-05-21T07:44:47Z</time>
      </trkpt>
      <trkpt lat="43.68033" lon="3.78472">
        <ele>107.4</ele>
        <time>2017-05-21T07:44:48Z</time>
      </trkpt>
      <trkpt lat="43.68029" lon="3.78474">
        <ele>107.1</ele>
        <time>2017-05-21T07:44:49Z</time>
      </trkpt>
      <trkpt lat="43.68024" lon="3.78476">
        <ele>106.9</ele>
        <time>2017-05-21T07:44:50Z</time>
      </trkpt>
      <trkpt lat="43.6802" lon="3.7848">
        <ele>106.7</ele>
        <time>2017-05-21T07:44:51Z</time>
      </trkpt>
      <trkpt lat="43.68014" lon="3.78482">
        <ele>106.6</ele>
        <time>2017-05-21T07:44:52Z</time>
      </trkpt>
      <trkpt lat="43.68008" lon="3.78484">
        <ele>106.5</ele>
        <time>2017-05-21T07:44:53Z</time>
      </trkpt>
      <trkpt lat="43.68004" lon="3.78487">
        <ele>106.4</ele>
        <time>2017-05-21T07:44:54Z</time>
      </trkpt>
      <trkpt lat="43.67998" lon="3.78489">
        <ele>106.3</ele>
        <time>2017-05-21T07:44:55Z</time>
      </trkpt>
      <trkpt lat="43.67993" lon="3.78491">
        <ele>106.2</ele>
        <time>2017-05-21T07:44:56Z</time>
      </trkpt>
      <trkpt lat="43.67987" lon="3.78495">
        <ele>106.1</ele>
        <time>2017-05-21T07:44:57Z</time>
      </trkpt>
      <trkpt lat="43.67981" lon="3.78497">
        <ele>105.9</ele>
        <time>2017-05-21T07:44:58Z</time>
      </trkpt>
      <trkpt lat="43.67976" lon="3.78499">
        <ele>105.7</ele>
        <time>2017-05-21T07:44:59Z</time>
      </trkpt>
      <trkpt lat="43.6797" lon="3.78501">
        <ele>105.5</ele>
        <time>2017-05-21T07:45:00Z</time>
      </trkpt>
      <trkpt lat="43.67963" lon="3.78504">
        <ele>104.9</ele>
        <time>2017-05-21T07:45:01Z</time>
      </trkpt>
      <trkpt lat="43.67957" lon="3.78506">
        <ele>103.9</ele>
        <time>2017-05-21T07:45:02Z</time>
      </trkpt>
      <trkpt lat="43.67951" lon="3.78509">
        <ele>102.5</ele>
        <time>2017-05-21T07:45:03Z</time>
      </trkpt>
      <trkpt lat="43.67945" lon="3.78512">
        <ele>101.5</ele>
        <time>2017-05-21T07:45:04Z</time>
      </trkpt>
      <trkpt lat="43.6794" lon="3.78514">
        <ele>101</ele>
        <time>2017-05-21T07:45:05Z</time>
      </trkpt>
      <trkpt lat="43.67933" lon="3.78517">
        <ele>100.4</ele>
        <time>2017-05-21T07:45:06Z</time>
      </trkpt>
      <trkpt lat="43.67926" lon="3.78519">
        <ele>100</ele>
        <time>2017-05-21T07:45:07Z</time>
      </trkpt>
      <trkpt lat="43.6792" lon="3.78522">
        <ele>99.7</ele>
        <time>2017-05-21T07:45:08Z</time>
      </trkpt>
      <trkpt lat="43.67913" lon="3.78525">
        <ele>99.5</ele>
        <time>2017-05-21T07:45:09Z</time>
      </trkpt>
      <trkpt lat="43.67907" lon="3.78528">
        <ele>99.4</ele>
        <time>2017-05-21T07:45:10Z</time>
      </trkpt>
      <trkpt lat="43.679" lon="3.7853">
        <ele>99.3</ele>
        <time>2017-05-21T07:45:11Z</time>
      </trkpt>
      <trkpt lat="43.67893" lon="3.78533">
        <ele>99.1</ele>
        <time>2017-05-21T07:45:12Z</time>
      </trkpt>
      <trkpt lat="43.67887" lon="3.78537">
        <ele>98.8</ele>
        <time>2017-05-21T07:45:13Z</time>
      </trkpt>
      <trkpt lat="43.67882" lon="3.7854">
        <ele>98.6</ele>
        <time>2017-05-21T07:45:14Z</time>
      </trkpt>
      <trkpt lat="43.67876" lon="3.78543">
        <ele>98.4</ele>
        <time>2017-05-21T07:45:15Z</time>
      </trkpt>
      <trkpt lat="43.6787" lon="3.78546">
        <ele>98.2</ele>
        <time>2017-05-21T07:45:16Z</time>
      </trkpt>
      <trkpt lat="43.67864" lon="3.78548">
        <ele>98</ele>
        <time>2017-05-21T07:45:17Z</time>
      </trkpt>
      <trkpt lat="43.67859" lon="3.78551">
        <ele>97.9</ele>
        <time>2017-05-21T07:45:18Z</time>
      </trkpt>
      <trkpt lat="43.67853" lon="3.78554">
        <ele>97.5</ele>
        <time>2017-05-21T07:45:19Z</time>
      </trkpt>
      <trkpt lat="43.67847" lon="3.78556">
        <ele>96.8</ele>
        <time>2017-05-21T07:45:20Z</time>
      </trkpt>
      <trkpt lat="43.67841" lon="3.78559">
        <ele>95.7</ele>
        <time>2017-05-21T07:45:21Z</time>
      </trkpt>
      <trkpt lat="43.67835" lon="3.78564">
        <ele>95.1</ele>
        <time>2017-05-21T07:45:22Z</time>
      </trkpt>
      <trkpt lat="43.67829" lon="3.78568">
        <ele>94.3</ele>
        <time>2017-05-21T07:45:23Z</time>
      </trkpt>
      <trkpt lat="43.67823" lon="3.78573">
        <ele>93.9</ele>
        <time>2017-05-21T07:45:24Z</time>
      </trkpt>
      <trkpt lat="43.67817" lon="3.78578">
        <ele>93.6</ele>
        <time>2017-05-21T07:45:25Z</time>
      </trkpt>
      <trkpt lat="43.6781" lon="3.78582">
        <ele>93</ele>
        <time>2017-05-21T07:45:26Z</time>
      </trkpt>
      <trkpt lat="43.67804" lon="3.78587">
        <ele>92</ele>
        <time>2017-05-21T07:45:27Z</time>
      </trkpt>
      <trkpt lat="43.67797" lon="3.78591">
        <ele>91.2</ele>
        <time>2017-05-21T07:45:28Z</time>
      </trkpt>
      <trkpt lat="43.6779" lon="3.78595">
        <ele>90.7</ele>
        <time>2017-05-21T07:45:29Z</time>
      </trkpt>
      <trkpt lat="43.67783" lon="3.78599">
        <ele>90.5</ele>
        <time>2017-05-21T07:45:30Z</time>
      </trkpt>
      <trkpt lat="43.67777" lon="3.78602">
        <ele>90.2</ele>
        <time>2017-05-21T07:45:31Z</time>
      </trkpt>
      <trkpt lat="43.67768" lon="3.78605">
        <ele>90</ele>
        <time>2017-05-21T07:45:32Z</time>
      </trkpt>
      <trkpt lat="43.67761" lon="3.78607">
        <ele>89.9</ele>
        <time>2017-05-21T07:45:33Z</time>
      </trkpt>
      <trkpt lat="43.67753" lon="3.7861">
        <ele>89.8</ele>
        <time>2017-05-21T07:45:34Z</time>
      </trkpt>
      <trkpt lat="43.67746" lon="3.78612">
        <ele>89.7</ele>
        <time>2017-05-21T07:45:35Z</time>
      </trkpt>
      <trkpt lat="43.67739" lon="3.78615">
        <ele>89.6</ele>
        <time>2017-05-21T07:45:36Z</time>
      </trkpt>
      <trkpt lat="43.67731" lon="3.78618">
        <ele>89.5</ele>
        <time>2017-05-21T07:45:37Z</time>
      </trkpt>
      <trkpt lat="43.67726" lon="3.7862">
        <ele>89.4</ele>
        <time>2017-05-21T07:45:38Z</time>
      </trkpt>
      <trkpt lat="43.6772" lon="3.78624">
        <ele>89.1</ele>
        <time>2017-05-21T07:45:39Z</time>
      </trkpt>
      <trkpt lat="43.67714" lon="3.78626">
        <ele>88.8</ele>
        <time>2017-05-21T07:45:40Z</time>
      </trkpt>
      <trkpt lat="43.67709" lon="3.78629">
        <ele>88.5</ele>
        <time>2017-05-21T07:45:41Z</time>
      </trkpt>
      <trkpt lat="43.67702" lon="3.7863">
        <ele>88.2</ele>
        <time>2017-05-21T07:45:42Z</time>
      </trkpt>
      <trkpt lat="43.67698" lon="3.78633">
        <ele>88</ele>
        <time>2017-05-21T07:45:43Z</time>
      </trkpt>
      <trkpt lat="43.67692" lon="3.78635">
        <ele>87.9</ele>
        <time>2017-05-21T07:45:44Z</time>
      </trkpt>
      <trkpt lat="43.67686" lon="3.78637">
        <ele>87.8</ele>
        <time>2017-05-21T07:45:45Z</time>
      </trkpt>
      <trkpt lat="43.6768" lon="3.78638">
        <ele>87.7</ele>
        <time>2017-05-21T07:45:46Z</time>
      </trkpt>
      <trkpt lat="43.67674" lon="3.7864">
        <ele>87.6</ele>
        <time>2017-05-21T07:45:47Z</time>
      </trkpt>
      <trkpt lat="43.67668" lon="3.78643">
        <ele>87.5</ele>
        <time>2017-05-21T07:45:48Z</time>
      </trkpt>
      <trkpt lat="43.67661" lon="3.78644">
        <ele>87.4</ele>
        <time>2017-05-21T07:45:49Z</time>
      </trkpt>
      <trkpt lat="43.67655" lon="3.78645">
        <ele>87.3</ele>
        <time>2017-05-21T07:45:50Z</time>
      </trkpt>
      <trkpt lat="43.67648" lon="3.78647">
        <ele>87.2</ele>
        <time>2017-05-21T07:45:51Z</time>
      </trkpt>
      <trkpt lat="43.67643" lon="3.78648">
        <ele>87.1</ele>
        <time>2017-05-21T07:45:52Z</time>
      </trkpt>
      <trkpt lat="43.67637" lon="3.78649">
        <ele>87</ele>
        <time>2017-05-21T07:45:53Z</time>
      </trkpt>
      <trkpt lat="43.67631" lon="3.7865">
        <ele>86.9</ele>
        <time>2017-05-21T07:45:54Z</time>
      </trkpt>
      <trkpt lat="43.67625" lon="3.78651">
        <ele>86.9</ele>
        <time>2017-05-21T07:45:55Z</time>
      </trkpt>
      <trkpt lat="43.67618" lon="3.78651">
        <ele>86.9</ele>
        <time>2017-05-21T07:45:56Z</time>
      </trkpt>
      <trkpt lat="43.67612" lon="3.78651">
        <ele>86.8</ele>
        <time>2017-05-21T07:45:57Z</time>
      </trkpt>
      <trkpt lat="43.67606" lon="3.78651">
        <ele>86.8</ele>
        <time>2017-05-21T07:45:58Z</time>
      </trkpt>
      <trkpt lat="43.676" lon="3.78652">
        <ele>86.7</ele>
        <time>2017-05-21T07:45:59Z</time>
      </trkpt>
      <trkpt lat="43.67593" lon="3.78652">
        <ele>86.7</ele>
        <time>2017-05-21T07:46:00Z</time>
      </trkpt>
      <trkpt lat="43.67587" lon="3.78651">
        <ele>86.7</ele>
        <time>2017-05-21T07:46:01Z</time>
      </trkpt>
      <trkpt lat="43.67581" lon="3.7865">
        <ele>86.6</ele>
        <time>2017-05-21T07:46:02Z</time>
      </trkpt>
      <trkpt lat="43.67575" lon="3.78651">
        <ele>86.6</ele>
        <time>2017-05-21T07:46:03Z</time>
      </trkpt>
      <trkpt lat="43.67569" lon="3.78651">
        <ele>86.6</ele>
        <time>2017-05-21T07:46:04Z</time>
      </trkpt>
      <trkpt lat="43.67563" lon="3.7865">
        <ele>86.5</ele>
        <time>2017-05-21T07:46:05Z</time>
      </trkpt>
      <trkpt lat="43.67557" lon="3.7865">
        <ele>86.5</ele>
        <time>2017-05-21T07:46:06Z</time>
      </trkpt>
      <trkpt lat="43.67551" lon="3.7865">
        <ele>86.5</ele>
        <time>2017-05-21T07:46:07Z</time>
      </trkpt>
      <trkpt lat="43.67546" lon="3.7865">
        <ele>86.4</ele>
        <time>2017-05-21T07:46:08Z</time>
      </trkpt>
      <trkpt lat="43.6754" lon="3.78649">
        <ele>86.4</ele>
        <time>2017-05-21T07:46:09Z</time>
      </trkpt>
      <trkpt lat="43.67534" lon="3.78649">
        <ele>86.4</ele>
        <time>2017-05-21T07:46:10Z</time>
      </trkpt>
      <trkpt lat="43.67531" lon="3.7865">
        <ele>86.3</ele>
        <time>2017-05-21T07:46:11Z</time>
      </trkpt>
      <trkpt lat="43.67528" lon="3.78653">
        <ele>86.3</ele>
        <time>2017-05-21T07:46:12Z</time>
      </trkpt>
      <trkpt lat="43.67527" lon="3.78659">
        <ele>86.2</ele>
        <time>2017-05-21T07:46:13Z</time>
      </trkpt>
      <trkpt lat="43.67527" lon="3.78665">
        <ele>86.2</ele>
        <time>2017-05-21T07:46:14Z</time>
      </trkpt>
      <trkpt lat="43.67528" lon="3.78672">
        <ele>86.1</ele>
        <time>2017-05-21T07:46:15Z</time>
      </trkpt>
      <trkpt lat="43.6753" lon="3.78678">
        <ele>86</ele>
        <time>2017-05-21T07:46:16Z</time>
      </trkpt>
      <trkpt lat="43.67532" lon="3.78686">
        <ele>85.8</ele>
        <time>2017-05-21T07:46:17Z</time>
      </trkpt>
      <trkpt lat="43.67535" lon="3.78695">
        <ele>85.4</ele>
        <time>2017-05-21T07:46:18Z</time>
      </trkpt>
      <trkpt lat="43.67537" lon="3.78702">
        <ele>85.2</ele>
        <time>2017-05-21T07:46:19Z</time>
      </trkpt>
      <trkpt lat="43.67539" lon="3.7871">
        <ele>84.6</ele>
        <time>2017-05-21T07:46:20Z</time>
      </trkpt>
      <trkpt lat="43.67541" lon="3.78717">
        <ele>83.9</ele>
        <time>2017-05-21T07:46:21Z</time>
      </trkpt>
      <trkpt lat="43.67543" lon="3.78726">
        <ele>83.5</ele>
        <time>2017-05-21T07:46:22Z</time>
      </trkpt>
      <trkpt lat="43.67545" lon="3.78734">
        <ele>82.9</ele>
        <time>2017-05-21T07:46:23Z</time>
      </trkpt>
      <trkpt lat="43.67547" lon="3.78742">
        <ele>82.4</ele>
        <time>2017-05-21T07:46:24Z</time>
      </trkpt>
      <trkpt lat="43.67548" lon="3.7875">
        <ele>81.9</ele>
        <time>2017-05-21T07:46:25Z</time>
      </trkpt>
      <trkpt lat="43.67547" lon="3.78757">
        <ele>81.7</ele>
        <time>2017-05-21T07:46:26Z</time>
      </trkpt>
      <trkpt lat="43.67545" lon="3.78765">
        <ele>81.3</ele>
        <time>2017-05-21T07:46:27Z</time>
      </trkpt>
      <trkpt lat="43.67542" lon="3.78772">
        <ele>81</ele>
        <time>2017-05-21T07:46:28Z</time>
      </trkpt>
      <trkpt lat="43.67537" lon="3.78777">
        <ele>81</ele>
        <time>2017-05-21T07:46:29Z</time>
      </trkpt>
      <trkpt lat="43.67531" lon="3.78781">
        <ele>81</ele>
        <time>2017-05-21T07:46:30Z</time>
      </trkpt>
      <trkpt lat="43.67525" lon="3.78786">
        <ele>81.1</ele>
        <time>2017-05-21T07:46:31Z</time>
      </trkpt>
      <trkpt lat="43.67518" lon="3.7879">
        <ele>81.1</ele>
        <time>2017-05-21T07:46:32Z</time>
      </trkpt>
      <trkpt lat="43.67512" lon="3.78794">
        <ele>81.1</ele>
        <time>2017-05-21T07:46:33Z</time>
      </trkpt>
      <trkpt lat="43.67505" lon="3.78797">
        <ele>81.1</ele>
        <time>2017-05-21T07:46:34Z</time>
      </trkpt>
      <trkpt lat="43.67499" lon="3.788">
        <ele>81.1</ele>
        <time>2017-05-21T07:46:35Z</time>
      </trkpt>
      <trkpt lat="43.67492" lon="3.78803">
        <ele>81</ele>
        <time>2017-05-21T07:46:36Z</time>
      </trkpt>
      <trkpt lat="43.67485" lon="3.78806">
        <ele>80.9</ele>
        <time>2017-05-21T07:46:37Z</time>
      </trkpt>
      <trkpt lat="43.67478" lon="3.78808">
        <ele>80.9</ele>
        <time>2017-05-21T07:46:38Z</time>
      </trkpt>
      <trkpt lat="43.67471" lon="3.78809">
        <ele>81</ele>
        <time>2017-05-21T07:46:39Z</time>
      </trkpt>
      <trkpt lat="43.67464" lon="3.7881">
        <ele>81</ele>
        <time>2017-05-21T07:46:40Z</time>
      </trkpt>
      <trkpt lat="43.67457" lon="3.78809">
        <ele>81.1</ele>
        <time>2017-05-21T07:46:41Z</time>
      </trkpt>
      <trkpt lat="43.6745" lon="3.78808">
        <ele>81</ele>
        <time>2017-05-21T07:46:42Z</time>
      </trkpt>
      <trkpt lat="43.67443" lon="3.78805">
        <ele>80.9</ele>
        <time>2017-05-21T07:46:43Z</time>
      </trkpt>
      <trkpt lat="43.67436" lon="3.78804">
        <ele>80.7</ele>
        <time>2017-05-21T07:46:44Z</time>
      </trkpt>
      <trkpt lat="43.67429" lon="3.78802">
        <ele>80</ele>
        <time>2017-05-21T07:46:45Z</time>
      </trkpt>
      <trkpt lat="43.67424" lon="3.78802">
        <ele>79.7</ele>
        <time>2017-05-21T07:46:46Z</time>
      </trkpt>
      <trkpt lat="43.67419" lon="3.78803">
        <ele>79.1</ele>
        <time>2017-05-21T07:46:47Z</time>
      </trkpt>
      <trkpt lat="43.67416" lon="3.78807">
        <ele>78.9</ele>
        <time>2017-05-21T07:46:48Z</time>
      </trkpt>
      <trkpt lat="43.67413" lon="3.7881">
        <ele>78.7</ele>
        <time>2017-05-21T07:46:49Z</time>
      </trkpt>
      <trkpt lat="43.67413" lon="3.78814">
        <ele>78.9</ele>
        <time>2017-05-21T07:46:50Z</time>
      </trkpt>
      <trkpt lat="43.67412" lon="3.78818">
        <ele>78.9</ele>
        <time>2017-05-21T07:46:51Z</time>
      </trkpt>
      <trkpt lat="43.67412" lon="3.78823">
        <ele>79.3</ele>
        <time>2017-05-21T07:46:52Z</time>
      </trkpt>
      <trkpt lat="43.67411" lon="3.78827">
        <ele>79.2</ele>
        <time>2017-05-21T07:46:53Z</time>
      </trkpt>
      <trkpt lat="43.67411" lon="3.78832">
        <ele>79.3</ele>
        <time>2017-05-21T07:46:54Z</time>
      </trkpt>
      <trkpt lat="43.67412" lon="3.78836">
        <ele>79.7</ele>
        <time>2017-05-21T07:46:55Z</time>
      </trkpt>
      <trkpt lat="43.67413" lon="3.7884">
        <ele>79.9</ele>
        <time>2017-05-21T07:46:56Z</time>
      </trkpt>
      <trkpt lat="43.67414" lon="3.78844">
        <ele>80</ele>
        <time>2017-05-21T07:46:57Z</time>
      </trkpt>
      <trkpt lat="43.67413" lon="3.7885">
        <ele>80.2</ele>
        <time>2017-05-21T07:46:59Z</time>
      </trkpt>
      <trkpt lat="43.67413" lon="3.78855">
        <ele>80.4</ele>
        <time>2017-05-21T07:47:00Z</time>
      </trkpt>
      <trkpt lat="43.67414" lon="3.7886">
        <ele>80.6</ele>
        <time>2017-05-21T07:47:02Z</time>
      </trkpt>
      <trkpt lat="43.67412" lon="3.78864">
        <ele>80.8</ele>
        <time>2017-05-21T07:47:03Z</time>
      </trkpt>
      <trkpt lat="43.67411" lon="3.78868">
        <ele>81</ele>
        <time>2017-05-21T07:47:04Z</time>
      </trkpt>
      <trkpt lat="43.67408" lon="3.78871">
        <ele>81.3</ele>
        <time>2017-05-21T07:47:06Z</time>
      </trkpt>
      <trkpt lat="43.67405" lon="3.7887">
        <ele>81.4</ele>
        <time>2017-05-21T07:47:08Z</time>
      </trkpt>
      <trkpt lat="43.67402" lon="3.78868">
        <ele>81</ele>
        <time>2017-05-21T07:47:09Z</time>
      </trkpt>
      <trkpt lat="43.67399" lon="3.78867">
        <ele>81</ele>
        <time>2017-05-21T07:47:10Z</time>
      </trkpt>
      <trkpt lat="43.67396" lon="3.78865">
        <ele>80.8</ele>
        <time>2017-05-21T07:47:11Z</time>
      </trkpt>
      <trkpt lat="43.67392" lon="3.78863">
        <ele>80.9</ele>
        <time>2017-05-21T07:47:12Z</time>
      </trkpt>
      <trkpt lat="43.67388" lon="3.7886">
        <ele>80.6</ele>
        <time>2017-05-21T07:47:13Z</time>
      </trkpt>
      <trkpt lat="43.67385" lon="3.78859">
        <ele>80.6</ele>
        <time>2017-05-21T07:47:14Z</time>
      </trkpt>
      <trkpt lat="43.67379" lon="3.78857">
        <ele>80.2</ele>
        <time>2017-05-21T07:47:16Z</time>
      </trkpt>
      <trkpt lat="43.67376" lon="3.78856">
        <ele>80.3</ele>
        <time>2017-05-21T07:47:17Z</time>
      </trkpt>
      <trkpt lat="43.67373" lon="3.78856">
        <ele>80.3</ele>
        <time>2017-05-21T07:47:18Z</time>
      </trkpt>
      <trkpt lat="43.6737" lon="3.78855">
        <ele>80.4</ele>
        <time>2017-05-21T07:47:19Z</time>
      </trkpt>
      <trkpt lat="43.67367" lon="3.78854">
        <ele>80.5</ele>
        <time>2017-05-21T07:47:20Z</time>
      </trkpt>
      <trkpt lat="43.67362" lon="3.78853">
        <ele>80.7</ele>
        <time>2017-05-21T07:47:22Z</time>
      </trkpt>
      <trkpt lat="43.67357" lon="3.78852">
        <ele>80.3</ele>
        <time>2017-05-21T07:47:24Z</time>
      </trkpt>
      <trkpt lat="43.67354" lon="3.78851">
        <ele>80.4</ele>
        <time>2017-05-21T07:47:25Z</time>
      </trkpt>
      <trkpt lat="43.67351" lon="3.7885">
        <ele>80.6</ele>
        <time>2017-05-21T07:47:27Z</time>
      </trkpt>
      <trkpt lat="43.67346" lon="3.78852">
        <ele>81.8</ele>
        <time>2017-05-21T07:47:42Z</time>
      </trkpt>
      <trkpt lat="43.67342" lon="3.78855">
        <ele>82</ele>
        <time>2017-05-21T07:47:44Z</time>
      </trkpt>
      <trkpt lat="43.67338" lon="3.78856">
        <ele>82.2</ele>
        <time>2017-05-21T07:47:46Z</time>
      </trkpt>
      <trkpt lat="43.67336" lon="3.78857">
        <ele>82.3</ele>
        <time>2017-05-21T07:48:02Z</time>
      </trkpt>
      <trkpt lat="43.67331" lon="3.78853">
        <ele>82.4</ele>
        <time>2017-05-21T07:48:08Z</time>
      </trkpt>
      <trkpt lat="43.67328" lon="3.78852">
        <ele>81.4</ele>
        <time>2017-05-21T07:48:09Z</time>
      </trkpt>
      <trkpt lat="43.67324" lon="3.7885">
        <ele>81.5</ele>
        <time>2017-05-21T07:48:12Z</time>
      </trkpt>
      <trkpt lat="43.67317" lon="3.78848">
        <ele>81.4</ele>
        <time>2017-05-21T07:48:14Z</time>
      </trkpt>
      <trkpt lat="43.67312" lon="3.78849">
        <ele>81.4</ele>
        <time>2017-05-21T07:48:15Z</time>
      </trkpt>
      <trkpt lat="43.67308" lon="3.78849">
        <ele>81.3</ele>
        <time>2017-05-21T07:48:16Z</time>
      </trkpt>
      <trkpt lat="43.67305" lon="3.78849">
        <ele>81.2</ele>
        <time>2017-05-21T07:48:17Z</time>
      </trkpt>
      <trkpt lat="43.67302" lon="3.78849">
        <ele>81.2</ele>
        <time>2017-05-21T07:48:18Z</time>
      </trkpt>
      <trkpt lat="43.67299" lon="3.7885">
        <ele>81.2</ele>
        <time>2017-05-21T07:48:19Z</time>
      </trkpt>
      <trkpt lat="43.67295" lon="3.78848">
        <ele>81.1</ele>
        <time>2017-05-21T07:48:20Z</time>
      </trkpt>
      <trkpt lat="43.67291" lon="3.78847">
        <ele>80.4</ele>
        <time>2017-05-21T07:48:21Z</time>
      </trkpt>
      <trkpt lat="43.67286" lon="3.78845">
        <ele>80.3</ele>
        <time>2017-05-21T07:48:22Z</time>
      </trkpt>
      <trkpt lat="43.67282" lon="3.78843">
        <ele>79.6</ele>
        <time>2017-05-21T07:48:24Z</time>
      </trkpt>
      <trkpt lat="43.67278" lon="3.78841">
        <ele>79.5</ele>
        <time>2017-05-21T07:48:25Z</time>
      </trkpt>
      <trkpt lat="43.67275" lon="3.78841">
        <ele>79.4</ele>
        <time>2017-05-21T07:48:26Z</time>
      </trkpt>
      <trkpt lat="43.67271" lon="3.78839">
        <ele>78.7</ele>
        <time>2017-05-21T07:48:27Z</time>
      </trkpt>
      <trkpt lat="43.67267" lon="3.78838">
        <ele>78.6</ele>
        <time>2017-05-21T07:48:28Z</time>
      </trkpt>
      <trkpt lat="43.67262" lon="3.78837">
        <ele>78.3</ele>
        <time>2017-05-21T07:48:29Z</time>
      </trkpt>
      <trkpt lat="43.67257" lon="3.78839">
        <ele>78.2</ele>
        <time>2017-05-21T07:48:30Z</time>
      </trkpt>
      <trkpt lat="43.67252" lon="3.78839">
        <ele>78</ele>
        <time>2017-05-21T07:48:31Z</time>
      </trkpt>
      <trkpt lat="43.67245" lon="3.78842">
        <ele>78.3</ele>
        <time>2017-05-21T07:48:33Z</time>
      </trkpt>
      <trkpt lat="43.67241" lon="3.78843">
        <ele>78.3</ele>
        <time>2017-05-21T07:48:34Z</time>
      </trkpt>
      <trkpt lat="43.67237" lon="3.78844">
        <ele>78.9</ele>
        <time>2017-05-21T07:48:35Z</time>
      </trkpt>
      <trkpt lat="43.67233" lon="3.78844">
        <ele>78.9</ele>
        <time>2017-05-21T07:48:36Z</time>
      </trkpt>
      <trkpt lat="43.67229" lon="3.78845">
        <ele>78.9</ele>
        <time>2017-05-21T07:48:37Z</time>
      </trkpt>
      <trkpt lat="43.67225" lon="3.78846">
        <ele>79</ele>
        <time>2017-05-21T07:48:38Z</time>
      </trkpt>
      <trkpt lat="43.67222" lon="3.78848">
        <ele>79</ele>
        <time>2017-05-21T07:48:39Z</time>
      </trkpt>
      <trkpt lat="43.67219" lon="3.78849">
        <ele>79.7</ele>
        <time>2017-05-21T07:48:40Z</time>
      </trkpt>
      <trkpt lat="43.67216" lon="3.78851">
        <ele>79.8</ele>
        <time>2017-05-21T07:48:41Z</time>
      </trkpt>
      <trkpt lat="43.67213" lon="3.78852">
        <ele>79.8</ele>
        <time>2017-05-21T07:48:42Z</time>
      </trkpt>
      <trkpt lat="43.6721" lon="3.78854">
        <ele>80.6</ele>
        <time>2017-05-21T07:48:43Z</time>
      </trkpt>
      <trkpt lat="43.67205" lon="3.78857">
        <ele>80.6</ele>
        <time>2017-05-21T07:48:45Z</time>
      </trkpt>
      <trkpt lat="43.67202" lon="3.78858">
        <ele>81.2</ele>
        <time>2017-05-21T07:48:46Z</time>
      </trkpt>
      <trkpt lat="43.67199" lon="3.78857">
        <ele>81.2</ele>
        <time>2017-05-21T07:48:49Z</time>
      </trkpt>
      <trkpt lat="43.67197" lon="3.78859">
        <ele>81.2</ele>
        <time>2017-05-21T07:48:52Z</time>
      </trkpt>
      <trkpt lat="43.67193" lon="3.78862">
        <ele>81.6</ele>
        <time>2017-05-21T07:48:54Z</time>
      </trkpt>
      <trkpt lat="43.67189" lon="3.78865">
        <ele>81.5</ele>
        <time>2017-05-21T07:48:56Z</time>
      </trkpt>
      <trkpt lat="43.67184" lon="3.78867">
        <ele>81.6</ele>
        <time>2017-05-21T07:48:58Z</time>
      </trkpt>
      <trkpt lat="43.67179" lon="3.78867">
        <ele>81.4</ele>
        <time>2017-05-21T07:49:00Z</time>
      </trkpt>
      <trkpt lat="43.67175" lon="3.78869">
        <ele>81.1</ele>
        <time>2017-05-21T07:49:01Z</time>
      </trkpt>
      <trkpt lat="43.67172" lon="3.7887">
        <ele>81.4</ele>
        <time>2017-05-21T07:49:02Z</time>
      </trkpt>
      <trkpt lat="43.67168" lon="3.7887">
        <ele>81.2</ele>
        <time>2017-05-21T07:49:03Z</time>
      </trkpt>
      <trkpt lat="43.67163" lon="3.78871">
        <ele>81.1</ele>
        <time>2017-05-21T07:49:04Z</time>
      </trkpt>
      <trkpt lat="43.67159" lon="3.78873">
        <ele>80.8</ele>
        <time>2017-05-21T07:49:05Z</time>
      </trkpt>
      <trkpt lat="43.67155" lon="3.78874">
        <ele>81.1</ele>
        <time>2017-05-21T07:49:06Z</time>
      </trkpt>
      <trkpt lat="43.67148" lon="3.78875">
        <ele>80.7</ele>
        <time>2017-05-21T07:49:08Z</time>
      </trkpt>
      <trkpt lat="43.67144" lon="3.78875">
        <ele>80.4</ele>
        <time>2017-05-21T07:49:09Z</time>
      </trkpt>
      <trkpt lat="43.67139" lon="3.78876">
        <ele>80.1</ele>
        <time>2017-05-21T07:49:10Z</time>
      </trkpt>
      <trkpt lat="43.67135" lon="3.78876">
        <ele>79.7</ele>
        <time>2017-05-21T07:49:11Z</time>
      </trkpt>
      <trkpt lat="43.67131" lon="3.78877">
        <ele>79.4</ele>
        <time>2017-05-21T07:49:12Z</time>
      </trkpt>
      <trkpt lat="43.67127" lon="3.78878">
        <ele>79.1</ele>
        <time>2017-05-21T07:49:13Z</time>
      </trkpt>
      <trkpt lat="43.67123" lon="3.78878">
        <ele>78.8</ele>
        <time>2017-05-21T07:49:14Z</time>
      </trkpt>
      <trkpt lat="43.6712" lon="3.78878">
        <ele>78.9</ele>
        <time>2017-05-21T07:49:15Z</time>
      </trkpt>
      <trkpt lat="43.67117" lon="3.7888">
        <ele>78.7</ele>
        <time>2017-05-21T07:49:16Z</time>
      </trkpt>
      <trkpt lat="43.67114" lon="3.78882">
        <ele>78.5</ele>
        <time>2017-05-21T07:49:17Z</time>
      </trkpt>
      <trkpt lat="43.6711" lon="3.78885">
        <ele>78.7</ele>
        <time>2017-05-21T07:49:19Z</time>
      </trkpt>
      <trkpt lat="43.67106" lon="3.78889">
        <ele>79.1</ele>
        <time>2017-05-21T07:49:21Z</time>
      </trkpt>
      <trkpt lat="43.67103" lon="3.78893">
        <ele>79.6</ele>
        <time>2017-05-21T07:49:23Z</time>
      </trkpt>
      <trkpt lat="43.67101" lon="3.78896">
        <ele>80.2</ele>
        <time>2017-05-21T07:49:25Z</time>
      </trkpt>
      <trkpt lat="43.67099" lon="3.789">
        <ele>81</ele>
        <time>2017-05-21T07:49:27Z</time>
      </trkpt>
      <trkpt lat="43.67097" lon="3.78904">
        <ele>81.9</ele>
        <time>2017-05-21T07:49:29Z</time>
      </trkpt>
      <trkpt lat="43.67096" lon="3.78908">
        <ele>81.9</ele>
        <time>2017-05-21T07:49:31Z</time>
      </trkpt>
      <trkpt lat="43.67094" lon="3.78912">
        <ele>82.8</ele>
        <time>2017-05-21T07:49:33Z</time>
      </trkpt>
      <trkpt lat="43.67092" lon="3.78916">
        <ele>83.7</ele>
        <time>2017-05-21T07:49:35Z</time>
      </trkpt>
      <trkpt lat="43.67091" lon="3.7892">
        <ele>84.6</ele>
        <time>2017-05-21T07:49:37Z</time>
      </trkpt>
      <trkpt lat="43.67089" lon="3.78923">
        <ele>85.4</ele>
        <time>2017-05-21T07:49:39Z</time>
      </trkpt>
      <trkpt lat="43.67087" lon="3.78928">
        <ele>86.2</ele>
        <time>2017-05-21T07:49:42Z</time>
      </trkpt>
      <trkpt lat="43.67086" lon="3.78933">
        <ele>87.1</ele>
        <time>2017-05-21T07:49:45Z</time>
      </trkpt>
      <trkpt lat="43.67084" lon="3.78938">
        <ele>87.8</ele>
        <time>2017-05-21T07:49:48Z</time>
      </trkpt>
      <trkpt lat="43.67082" lon="3.78943">
        <ele>89.1</ele>
        <time>2017-05-21T07:49:51Z</time>
      </trkpt>
      <trkpt lat="43.6708" lon="3.78948">
        <ele>89.7</ele>
        <time>2017-05-21T07:49:54Z</time>
      </trkpt>
      <trkpt lat="43.67078" lon="3.78952">
        <ele>90.3</ele>
        <time>2017-05-21T07:49:56Z</time>
      </trkpt>
      <trkpt lat="43.67076" lon="3.78955">
        <ele>90.3</ele>
        <time>2017-05-21T07:49:58Z</time>
      </trkpt>
      <trkpt lat="43.67074" lon="3.78958">
        <ele>90.8</ele>
        <time>2017-05-21T07:50:00Z</time>
      </trkpt>
      <trkpt lat="43.67072" lon="3.78961">
        <ele>91.2</ele>
        <time>2017-05-21T07:50:02Z</time>
      </trkpt>
      <trkpt lat="43.6707" lon="3.78965">
        <ele>91.7</ele>
        <time>2017-05-21T07:50:04Z</time>
      </trkpt>
      <trkpt lat="43.67068" lon="3.78969">
        <ele>91.9</ele>
        <time>2017-05-21T07:50:06Z</time>
      </trkpt>
      <trkpt lat="43.67066" lon="3.78974">
        <ele>91.9</ele>
        <time>2017-05-21T07:50:08Z</time>
      </trkpt>
      <trkpt lat="43.67065" lon="3.78978">
        <ele>92.2</ele>
        <time>2017-05-21T07:50:10Z</time>
      </trkpt>
      <trkpt lat="43.67061" lon="3.78982">
        <ele>92.3</ele>
        <time>2017-05-21T07:50:12Z</time>
      </trkpt>
      <trkpt lat="43.67058" lon="3.78987">
        <ele>92.4</ele>
        <time>2017-05-21T07:50:14Z</time>
      </trkpt>
      <trkpt lat="43.67055" lon="3.78989">
        <ele>92.3</ele>
        <time>2017-05-21T07:50:15Z</time>
      </trkpt>
      <trkpt lat="43.67052" lon="3.78992">
        <ele>92.5</ele>
        <time>2017-05-21T07:50:16Z</time>
      </trkpt>
      <trkpt lat="43.67048" lon="3.78995">
        <ele>92.6</ele>
        <time>2017-05-21T07:50:17Z</time>
      </trkpt>
      <trkpt lat="43.67044" lon="3.78999">
        <ele>92.6</ele>
        <time>2017-05-21T07:50:18Z</time>
      </trkpt>
      <trkpt lat="43.67041" lon="3.79003">
        <ele>92.7</ele>
        <time>2017-05-21T07:50:19Z</time>
      </trkpt>
      <trkpt lat="43.67036" lon="3.79007">
        <ele>92.6</ele>
        <time>2017-05-21T07:50:20Z</time>
      </trkpt>
      <trkpt lat="43.67032" lon="3.79011">
        <ele>92.6</ele>
        <time>2017-05-21T07:50:21Z</time>
      </trkpt>
      <trkpt lat="43.67027" lon="3.79014">
        <ele>92.6</ele>
        <time>2017-05-21T07:50:22Z</time>
      </trkpt>
      <trkpt lat="43.67023" lon="3.79017">
        <ele>92.3</ele>
        <time>2017-05-21T07:50:23Z</time>
      </trkpt>
      <trkpt lat="43.67019" lon="3.7902">
        <ele>92</ele>
        <time>2017-05-21T07:50:24Z</time>
      </trkpt>
      <trkpt lat="43.67016" lon="3.79025">
        <ele>91.7</ele>
        <time>2017-05-21T07:50:25Z</time>
      </trkpt>
      <trkpt lat="43.67012" lon="3.79032">
        <ele>91.3</ele>
        <time>2017-05-21T07:50:26Z</time>
      </trkpt>
      <trkpt lat="43.67009" lon="3.79038">
        <ele>91.2</ele>
        <time>2017-05-21T07:50:27Z</time>
      </trkpt>
      <trkpt lat="43.67006" lon="3.79045">
        <ele>91</ele>
        <time>2017-05-21T07:50:28Z</time>
      </trkpt>
      <trkpt lat="43.67003" lon="3.7905">
        <ele>91.1</ele>
        <time>2017-05-21T07:50:29Z</time>
      </trkpt>
      <trkpt lat="43.67" lon="3.79054">
        <ele>90.8</ele>
        <time>2017-05-21T07:50:30Z</time>
      </trkpt>
      <trkpt lat="43.66996" lon="3.79058">
        <ele>90.7</ele>
        <time>2017-05-21T07:50:31Z</time>
      </trkpt>
      <trkpt lat="43.66992" lon="3.79062">
        <ele>90.4</ele>
        <time>2017-05-21T07:50:32Z</time>
      </trkpt>
      <trkpt lat="43.66987" lon="3.79064">
        <ele>89.8</ele>
        <time>2017-05-21T07:50:33Z</time>
      </trkpt>
      <trkpt lat="43.66983" lon="3.79062">
        <ele>88.8</ele>
        <time>2017-05-21T07:50:34Z</time>
      </trkpt>
      <trkpt lat="43.66978" lon="3.79059">
        <ele>88.5</ele>
        <time>2017-05-21T07:50:35Z</time>
      </trkpt>
      <trkpt lat="43.66975" lon="3.79054">
        <ele>88.1</ele>
        <time>2017-05-21T07:50:36Z</time>
      </trkpt>
      <trkpt lat="43.66973" lon="3.79049">
        <ele>87.9</ele>
        <time>2017-05-21T07:50:37Z</time>
      </trkpt>
      <trkpt lat="43.6697" lon="3.79043">
        <ele>87.7</ele>
        <time>2017-05-21T07:50:38Z</time>
      </trkpt>
      <trkpt lat="43.66967" lon="3.79037">
        <ele>87.4</ele>
        <time>2017-05-21T07:50:39Z</time>
      </trkpt>
      <trkpt lat="43.66963" lon="3.79031">
        <ele>87.1</ele>
        <time>2017-05-21T07:50:40Z</time>
      </trkpt>
      <trkpt lat="43.6696" lon="3.79025">
        <ele>86.6</ele>
        <time>2017-05-21T07:50:41Z</time>
      </trkpt>
      <trkpt lat="43.66957" lon="3.79018">
        <ele>85.7</ele>
        <time>2017-05-21T07:50:42Z</time>
      </trkpt>
      <trkpt lat="43.66954" lon="3.79012">
        <ele>84.9</ele>
        <time>2017-05-21T07:50:43Z</time>
      </trkpt>
      <trkpt lat="43.66951" lon="3.79005">
        <ele>83.8</ele>
        <time>2017-05-21T07:50:44Z</time>
      </trkpt>
      <trkpt lat="43.66947" lon="3.78997">
        <ele>83</ele>
        <time>2017-05-21T07:50:45Z</time>
      </trkpt>
      <trkpt lat="43.66944" lon="3.7899">
        <ele>82.4</ele>
        <time>2017-05-21T07:50:46Z</time>
      </trkpt>
      <trkpt lat="43.66941" lon="3.78982">
        <ele>81.9</ele>
        <time>2017-05-21T07:50:47Z</time>
      </trkpt>
      <trkpt lat="43.66937" lon="3.78973">
        <ele>81.1</ele>
        <time>2017-05-21T07:50:48Z</time>
      </trkpt>
      <trkpt lat="43.66932" lon="3.78964">
        <ele>79.5</ele>
        <time>2017-05-21T07:50:49Z</time>
      </trkpt>
      <trkpt lat="43.66928" lon="3.78955">
        <ele>78.5</ele>
        <time>2017-05-21T07:50:50Z</time>
      </trkpt>
      <trkpt lat="43.66925" lon="3.78946">
        <ele>78</ele>
        <time>2017-05-21T07:50:51Z</time>
      </trkpt>
      <trkpt lat="43.66921" lon="3.78937">
        <ele>77.8</ele>
        <time>2017-05-21T07:50:52Z</time>
      </trkpt>
      <trkpt lat="43.66918" lon="3.78927">
        <ele>77.7</ele>
        <time>2017-05-21T07:50:53Z</time>
      </trkpt>
      <trkpt lat="43.66915" lon="3.78918">
        <ele>77.8</ele>
        <time>2017-05-21T07:50:54Z</time>
      </trkpt>
      <trkpt lat="43.66913" lon="3.78911">
        <ele>77.8</ele>
        <time>2017-05-21T07:50:55Z</time>
      </trkpt>
      <trkpt lat="43.6691" lon="3.78903">
        <ele>77.7</ele>
        <time>2017-05-21T07:50:56Z</time>
      </trkpt>
      <trkpt lat="43.66908" lon="3.78897">
        <ele>77.5</ele>
        <time>2017-05-21T07:50:57Z</time>
      </trkpt>
      <trkpt lat="43.66905" lon="3.7889">
        <ele>77.4</ele>
        <time>2017-05-21T07:50:58Z</time>
      </trkpt>
      <trkpt lat="43.66902" lon="3.78884">
        <ele>77.3</ele>
        <time>2017-05-21T07:50:59Z</time>
      </trkpt>
      <trkpt lat="43.66899" lon="3.78878">
        <ele>77.4</ele>
        <time>2017-05-21T07:51:00Z</time>
      </trkpt>
      <trkpt lat="43.66897" lon="3.78871">
        <ele>77.3</ele>
        <time>2017-05-21T07:51:01Z</time>
      </trkpt>
      <trkpt lat="43.66894" lon="3.78865">
        <ele>77.1</ele>
        <time>2017-05-21T07:51:02Z</time>
      </trkpt>
      <trkpt lat="43.66891" lon="3.78857">
        <ele>76.8</ele>
        <time>2017-05-21T07:51:03Z</time>
      </trkpt>
      <trkpt lat="43.66887" lon="3.7885">
        <ele>76.2</ele>
        <time>2017-05-21T07:51:04Z</time>
      </trkpt>
      <trkpt lat="43.66883" lon="3.78842">
        <ele>75.3</ele>
        <time>2017-05-21T07:51:05Z</time>
      </trkpt>
      <trkpt lat="43.66878" lon="3.78833">
        <ele>74.8</ele>
        <time>2017-05-21T07:51:06Z</time>
      </trkpt>
      <trkpt lat="43.66872" lon="3.78824">
        <ele>74.4</ele>
        <time>2017-05-21T07:51:07Z</time>
      </trkpt>
      <trkpt lat="43.66867" lon="3.78818">
        <ele>74.4</ele>
        <time>2017-05-21T07:51:08Z</time>
      </trkpt>
      <trkpt lat="43.66862" lon="3.78816">
        <ele>74.3</ele>
        <time>2017-05-21T07:51:09Z</time>
      </trkpt>
      <trkpt lat="43.66858" lon="3.78816">
        <ele>74</ele>
        <time>2017-05-21T07:51:10Z</time>
      </trkpt>
      <trkpt lat="43.66854" lon="3.78816">
        <ele>73.9</ele>
        <time>2017-05-21T07:51:11Z</time>
      </trkpt>
      <trkpt lat="43.6685" lon="3.78815">
        <ele>73.8</ele>
        <time>2017-05-21T07:51:12Z</time>
      </trkpt>
      <trkpt lat="43.66846" lon="3.78812">
        <ele>73.7</ele>
        <time>2017-05-21T07:51:13Z</time>
      </trkpt>
      <trkpt lat="43.66842" lon="3.78812">
        <ele>73.3</ele>
        <time>2017-05-21T07:51:14Z</time>
      </trkpt>
      <trkpt lat="43.66837" lon="3.78812">
        <ele>73</ele>
        <time>2017-05-21T07:51:15Z</time>
      </trkpt>
      <trkpt lat="43.66833" lon="3.78814">
        <ele>72.4</ele>
        <time>2017-05-21T07:51:16Z</time>
      </trkpt>
      <trkpt lat="43.66829" lon="3.78813">
        <ele>72</ele>
        <time>2017-05-21T07:51:17Z</time>
      </trkpt>
      <trkpt lat="43.66825" lon="3.7881">
        <ele>71.5</ele>
        <time>2017-05-21T07:51:18Z</time>
      </trkpt>
      <trkpt lat="43.66823" lon="3.78805">
        <ele>71.1</ele>
        <time>2017-05-21T07:51:19Z</time>
      </trkpt>
      <trkpt lat="43.66821" lon="3.788">
        <ele>70.8</ele>
        <time>2017-05-21T07:51:20Z</time>
      </trkpt>
      <trkpt lat="43.66819" lon="3.78794">
        <ele>70.9</ele>
        <time>2017-05-21T07:51:21Z</time>
      </trkpt>
      <trkpt lat="43.66818" lon="3.78788">
        <ele>70.6</ele>
        <time>2017-05-21T07:51:22Z</time>
      </trkpt>
      <trkpt lat="43.66816" lon="3.78782">
        <ele>71</ele>
        <time>2017-05-21T07:51:23Z</time>
      </trkpt>
      <trkpt lat="43.66815" lon="3.78775">
        <ele>70.7</ele>
        <time>2017-05-21T07:51:24Z</time>
      </trkpt>
      <trkpt lat="43.66813" lon="3.78769">
        <ele>71.3</ele>
        <time>2017-05-21T07:51:25Z</time>
      </trkpt>
      <trkpt lat="43.6681" lon="3.78764">
        <ele>71.2</ele>
        <time>2017-05-21T07:51:26Z</time>
      </trkpt>
      <trkpt lat="43.66807" lon="3.78759">
        <ele>71.1</ele>
        <time>2017-05-21T07:51:27Z</time>
      </trkpt>
      <trkpt lat="43.66803" lon="3.78754">
        <ele>71</ele>
        <time>2017-05-21T07:51:28Z</time>
      </trkpt>
      <trkpt lat="43.668" lon="3.7875">
        <ele>70.9</ele>
        <time>2017-05-21T07:51:29Z</time>
      </trkpt>
      <trkpt lat="43.66796" lon="3.78746">
        <ele>70.4</ele>
        <time>2017-05-21T07:51:30Z</time>
      </trkpt>
      <trkpt lat="43.66793" lon="3.78742">
        <ele>70.2</ele>
        <time>2017-05-21T07:51:31Z</time>
      </trkpt>
      <trkpt lat="43.66789" lon="3.78738">
        <ele>70</ele>
        <time>2017-05-21T07:51:32Z</time>
      </trkpt>
      <trkpt lat="43.66786" lon="3.78735">
        <ele>69.8</ele>
        <time>2017-05-21T07:51:33Z</time>
      </trkpt>
      <trkpt lat="43.66783" lon="3.78732">
        <ele>69.5</ele>
        <time>2017-05-21T07:51:34Z</time>
      </trkpt>
      <trkpt lat="43.66779" lon="3.78728">
        <ele>69.3</ele>
        <time>2017-05-21T07:51:36Z</time>
      </trkpt>
      <trkpt lat="43.66777" lon="3.78725">
        <ele>69.2</ele>
        <time>2017-05-21T07:51:38Z</time>
      </trkpt>
      <trkpt lat="43.66775" lon="3.78722">
        <ele>69.4</ele>
        <time>2017-05-21T07:51:40Z</time>
      </trkpt>
      <trkpt lat="43.66773" lon="3.78719">
        <ele>69.4</ele>
        <time>2017-05-21T07:51:44Z</time>
      </trkpt>
      <trkpt lat="43.66769" lon="3.78718">
        <ele>69.1</ele>
        <time>2017-05-21T07:51:50Z</time>
      </trkpt>
      <trkpt lat="43.66766" lon="3.78718">
        <ele>68.8</ele>
        <time>2017-05-21T07:52:09Z</time>
      </trkpt>
      <trkpt lat="43.66763" lon="3.78718">
        <ele>68.6</ele>
        <time>2017-05-21T07:52:14Z</time>
      </trkpt>
      <trkpt lat="43.66761" lon="3.78722">
        <ele>68.1</ele>
        <time>2017-05-21T07:52:18Z</time>
      </trkpt>
      <trkpt lat="43.6676" lon="3.78726">
        <ele>68</ele>
        <time>2017-05-21T07:52:21Z</time>
      </trkpt>
      <trkpt lat="43.66757" lon="3.78729">
        <ele>67.7</ele>
        <time>2017-05-21T07:52:23Z</time>
      </trkpt>
      <trkpt lat="43.66754" lon="3.78728">
        <ele>67.6</ele>
        <time>2017-05-21T07:52:25Z</time>
      </trkpt>
      <trkpt lat="43.6675" lon="3.78727">
        <ele>67.3</ele>
        <time>2017-05-21T07:52:28Z</time>
      </trkpt>
      <trkpt lat="43.66747" lon="3.78728">
        <ele>67.2</ele>
        <time>2017-05-21T07:52:30Z</time>
      </trkpt>
      <trkpt lat="43.66744" lon="3.78727">
        <ele>67.2</ele>
        <time>2017-05-21T07:52:33Z</time>
      </trkpt>
      <trkpt lat="43.6674" lon="3.78727">
        <ele>67.1</ele>
        <time>2017-05-21T07:52:36Z</time>
      </trkpt>
      <trkpt lat="43.66736" lon="3.78728">
        <ele>67</ele>
        <time>2017-05-21T07:52:40Z</time>
      </trkpt>
      <trkpt lat="43.66734" lon="3.78725">
        <ele>67</ele>
        <time>2017-05-21T07:52:43Z</time>
      </trkpt>
      <trkpt lat="43.66732" lon="3.7872">
        <ele>66.9</ele>
        <time>2017-05-21T07:52:46Z</time>
      </trkpt>
      <trkpt lat="43.66727" lon="3.7872">
        <ele>66.9</ele>
        <time>2017-05-21T07:52:48Z</time>
      </trkpt>
      <trkpt lat="43.66724" lon="3.78718">
        <ele>66.9</ele>
        <time>2017-05-21T07:52:52Z</time>
      </trkpt>
      <trkpt lat="43.66721" lon="3.78717">
        <ele>66.9</ele>
        <time>2017-05-21T07:52:56Z</time>
      </trkpt>
      <trkpt lat="43.66718" lon="3.78719">
        <ele>66.9</ele>
        <time>2017-05-21T07:53:01Z</time>
      </trkpt>
      <trkpt lat="43.66715" lon="3.78721">
        <ele>66.9</ele>
        <time>2017-05-21T07:53:06Z</time>
      </trkpt>
      <trkpt lat="43.66712" lon="3.78721">
        <ele>66.9</ele>
        <time>2017-05-21T07:53:08Z</time>
      </trkpt>
      <trkpt lat="43.66709" lon="3.78722">
        <ele>66.9</ele>
        <time>2017-05-21T07:53:10Z</time>
      </trkpt>
      <trkpt lat="43.66704" lon="3.78727">
        <ele>66.9</ele>
        <time>2017-05-21T07:53:13Z</time>
      </trkpt>
      <trkpt lat="43.66699" lon="3.78729">
        <ele>66.8</ele>
        <time>2017-05-21T07:53:15Z</time>
      </trkpt>
      <trkpt lat="43.66696" lon="3.7873">
        <ele>66.8</ele>
        <time>2017-05-21T07:53:16Z</time>
      </trkpt>
      <trkpt lat="43.6669" lon="3.78732">
        <ele>66.8</ele>
        <time>2017-05-21T07:53:18Z</time>
      </trkpt>
      <trkpt lat="43.66687" lon="3.78733">
        <ele>66.8</ele>
        <time>2017-05-21T07:53:19Z</time>
      </trkpt>
      <trkpt lat="43.66684" lon="3.78735">
        <ele>66.8</ele>
        <time>2017-05-21T07:53:20Z</time>
      </trkpt>
      <trkpt lat="43.6668" lon="3.78737">
        <ele>67</ele>
        <time>2017-05-21T07:53:21Z</time>
      </trkpt>
      <trkpt lat="43.66676" lon="3.78736">
        <ele>66.8</ele>
        <time>2017-05-21T07:53:25Z</time>
      </trkpt>
      <trkpt lat="43.66673" lon="3.78734">
        <ele>66.7</ele>
        <time>2017-05-21T07:53:27Z</time>
      </trkpt>
      <trkpt lat="43.6667" lon="3.78732">
        <ele>66.4</ele>
        <time>2017-05-21T07:53:29Z</time>
      </trkpt>
      <trkpt lat="43.66669" lon="3.78728">
        <ele>66.2</ele>
        <time>2017-05-21T07:53:31Z</time>
      </trkpt>
      <trkpt lat="43.66665" lon="3.78727">
        <ele>66</ele>
        <time>2017-05-21T07:53:34Z</time>
      </trkpt>
      <trkpt lat="43.66662" lon="3.78728">
        <ele>66.1</ele>
        <time>2017-05-21T07:53:35Z</time>
      </trkpt>
      <trkpt lat="43.66658" lon="3.78732">
        <ele>66</ele>
        <time>2017-05-21T07:53:37Z</time>
      </trkpt>
      <trkpt lat="43.66655" lon="3.78733">
        <ele>65.9</ele>
        <time>2017-05-21T07:53:39Z</time>
      </trkpt>
      <trkpt lat="43.6665" lon="3.78734">
        <ele>65.5</ele>
        <time>2017-05-21T07:53:41Z</time>
      </trkpt>
      <trkpt lat="43.66647" lon="3.78735">
        <ele>65.3</ele>
        <time>2017-05-21T07:53:42Z</time>
      </trkpt>
      <trkpt lat="43.66643" lon="3.78737">
        <ele>65.1</ele>
        <time>2017-05-21T07:53:44Z</time>
      </trkpt>
      <trkpt lat="43.6664" lon="3.78737">
        <ele>64.9</ele>
        <time>2017-05-21T07:53:45Z</time>
      </trkpt>
      <trkpt lat="43.66638" lon="3.78738">
        <ele>64.6</ele>
        <time>2017-05-21T07:53:46Z</time>
      </trkpt>
      <trkpt lat="43.66635" lon="3.78739">
        <ele>64.4</ele>
        <time>2017-05-21T07:53:47Z</time>
      </trkpt>
      <trkpt lat="43.66632" lon="3.78741">
        <ele>64.1</ele>
        <time>2017-05-21T07:53:48Z</time>
      </trkpt>
      <trkpt lat="43.66629" lon="3.78742">
        <ele>63.9</ele>
        <time>2017-05-21T07:53:49Z</time>
      </trkpt>
      <trkpt lat="43.66626" lon="3.78742">
        <ele>63.9</ele>
        <time>2017-05-21T07:53:50Z</time>
      </trkpt>
      <trkpt lat="43.66622" lon="3.7874">
        <ele>63.4</ele>
        <time>2017-05-21T07:53:51Z</time>
      </trkpt>
      <trkpt lat="43.66619" lon="3.7874">
        <ele>63.2</ele>
        <time>2017-05-21T07:53:52Z</time>
      </trkpt>
      <trkpt lat="43.66616" lon="3.78738">
        <ele>62.9</ele>
        <time>2017-05-21T07:53:53Z</time>
      </trkpt>
      <trkpt lat="43.66613" lon="3.78736">
        <ele>62.7</ele>
        <time>2017-05-21T07:53:54Z</time>
      </trkpt>
      <trkpt lat="43.66609" lon="3.78735">
        <ele>62.5</ele>
        <time>2017-05-21T07:53:55Z</time>
      </trkpt>
      <trkpt lat="43.66604" lon="3.78735">
        <ele>62.3</ele>
        <time>2017-05-21T07:53:56Z</time>
      </trkpt>
      <trkpt lat="43.666" lon="3.78735">
        <ele>61.9</ele>
        <time>2017-05-21T07:53:57Z</time>
      </trkpt>
      <trkpt lat="43.66596" lon="3.78734">
        <ele>61.7</ele>
        <time>2017-05-21T07:53:58Z</time>
      </trkpt>
      <trkpt lat="43.66593" lon="3.78735">
        <ele>61.6</ele>
        <time>2017-05-21T07:53:59Z</time>
      </trkpt>
      <trkpt lat="43.66586" lon="3.78735">
        <ele>61.2</ele>
        <time>2017-05-21T07:54:01Z</time>
      </trkpt>
      <trkpt lat="43.66581" lon="3.78737">
        <ele>60.6</ele>
        <time>2017-05-21T07:54:03Z</time>
      </trkpt>
      <trkpt lat="43.66578" lon="3.78739">
        <ele>60.4</ele>
        <time>2017-05-21T07:54:04Z</time>
      </trkpt>
      <trkpt lat="43.66572" lon="3.78741">
        <ele>60.2</ele>
        <time>2017-05-21T07:54:06Z</time>
      </trkpt>
      <trkpt lat="43.66569" lon="3.78743">
        <ele>60.1</ele>
        <time>2017-05-21T07:54:07Z</time>
      </trkpt>
      <trkpt lat="43.66566" lon="3.78744">
        <ele>60.1</ele>
        <time>2017-05-21T07:54:08Z</time>
      </trkpt>
      <trkpt lat="43.66563" lon="3.78747">
        <ele>60.4</ele>
        <time>2017-05-21T07:54:09Z</time>
      </trkpt>
      <trkpt lat="43.6656" lon="3.78749">
        <ele>60.5</ele>
        <time>2017-05-21T07:54:10Z</time>
      </trkpt>
      <trkpt lat="43.66557" lon="3.78748">
        <ele>60.7</ele>
        <time>2017-05-21T07:54:11Z</time>
      </trkpt>
      <trkpt lat="43.66553" lon="3.78747">
        <ele>61</ele>
        <time>2017-05-21T07:54:12Z</time>
      </trkpt>
      <trkpt lat="43.66549" lon="3.78747">
        <ele>61.3</ele>
        <time>2017-05-21T07:54:13Z</time>
      </trkpt>
      <trkpt lat="43.66546" lon="3.78747">
        <ele>61.6</ele>
        <time>2017-05-21T07:54:14Z</time>
      </trkpt>
      <trkpt lat="43.66542" lon="3.78749">
        <ele>62</ele>
        <time>2017-05-21T07:54:15Z</time>
      </trkpt>
      <trkpt lat="43.66539" lon="3.7875">
        <ele>62.5</ele>
        <time>2017-05-21T07:54:16Z</time>
      </trkpt>
      <trkpt lat="43.66535" lon="3.78751">
        <ele>63.2</ele>
        <time>2017-05-21T07:54:17Z</time>
      </trkpt>
      <trkpt lat="43.66532" lon="3.78752">
        <ele>63.6</ele>
        <time>2017-05-21T07:54:18Z</time>
      </trkpt>
      <trkpt lat="43.66528" lon="3.78753">
        <ele>63.9</ele>
        <time>2017-05-21T07:54:19Z</time>
      </trkpt>
      <trkpt lat="43.66523" lon="3.78753">
        <ele>64.2</ele>
        <time>2017-05-21T07:54:20Z</time>
      </trkpt>
      <trkpt lat="43.66519" lon="3.78754">
        <ele>64.6</ele>
        <time>2017-05-21T07:54:21Z</time>
      </trkpt>
      <trkpt lat="43.66515" lon="3.78755">
        <ele>64.8</ele>
        <time>2017-05-21T07:54:22Z</time>
      </trkpt>
      <trkpt lat="43.6651" lon="3.78756">
        <ele>65.2</ele>
        <time>2017-05-21T07:54:23Z</time>
      </trkpt>
      <trkpt lat="43.66506" lon="3.78757">
        <ele>65.4</ele>
        <time>2017-05-21T07:54:24Z</time>
      </trkpt>
      <trkpt lat="43.66502" lon="3.78758">
        <ele>65.6</ele>
        <time>2017-05-21T07:54:25Z</time>
      </trkpt>
      <trkpt lat="43.66497" lon="3.78759">
        <ele>66</ele>
        <time>2017-05-21T07:54:26Z</time>
      </trkpt>
      <trkpt lat="43.66494" lon="3.78762">
        <ele>66.2</ele>
        <time>2017-05-21T07:54:27Z</time>
      </trkpt>
      <trkpt lat="43.66491" lon="3.78766">
        <ele>66.4</ele>
        <time>2017-05-21T07:54:28Z</time>
      </trkpt>
      <trkpt lat="43.66488" lon="3.7877">
        <ele>66.5</ele>
        <time>2017-05-21T07:54:29Z</time>
      </trkpt>
      <trkpt lat="43.66484" lon="3.78772">
        <ele>66.4</ele>
        <time>2017-05-21T07:54:30Z</time>
      </trkpt>
      <trkpt lat="43.6648" lon="3.78772">
        <ele>66.4</ele>
        <time>2017-05-21T07:54:31Z</time>
      </trkpt>
      <trkpt lat="43.66477" lon="3.78772">
        <ele>66.4</ele>
        <time>2017-05-21T07:54:32Z</time>
      </trkpt>
      <trkpt lat="43.66473" lon="3.78771">
        <ele>66.3</ele>
        <time>2017-05-21T07:54:34Z</time>
      </trkpt>
      <trkpt lat="43.6647" lon="3.7877">
        <ele>66.5</ele>
        <time>2017-05-21T07:54:36Z</time>
      </trkpt>
      <trkpt lat="43.66467" lon="3.78769">
        <ele>66.4</ele>
        <time>2017-05-21T07:54:38Z</time>
      </trkpt>
      <trkpt lat="43.66462" lon="3.78769">
        <ele>66.3</ele>
        <time>2017-05-21T07:54:41Z</time>
      </trkpt>
      <trkpt lat="43.66459" lon="3.78769">
        <ele>66.2</ele>
        <time>2017-05-21T07:54:44Z</time>
      </trkpt>
      <trkpt lat="43.66458" lon="3.78765">
        <ele>66.6</ele>
        <time>2017-05-21T07:54:53Z</time>
      </trkpt>
      <trkpt lat="43.66457" lon="3.78761">
        <ele>67</ele>
        <time>2017-05-21T07:54:56Z</time>
      </trkpt>
      <trkpt lat="43.66454" lon="3.7876">
        <ele>66.9</ele>
        <time>2017-05-21T07:54:58Z</time>
      </trkpt>
      <trkpt lat="43.66451" lon="3.78759">
        <ele>66.8</ele>
        <time>2017-05-21T07:55:00Z</time>
      </trkpt>
      <trkpt lat="43.66449" lon="3.78756">
        <ele>67.3</ele>
        <time>2017-05-21T07:55:04Z</time>
      </trkpt>
      <trkpt lat="43.66447" lon="3.78754">
        <ele>67.8</ele>
        <time>2017-05-21T07:55:13Z</time>
      </trkpt>
      <trkpt lat="43.66443" lon="3.78753">
        <ele>67.8</ele>
        <time>2017-05-21T07:55:17Z</time>
      </trkpt>
      <trkpt lat="43.66441" lon="3.78754">
        <ele>67.3</ele>
        <time>2017-05-21T07:55:19Z</time>
      </trkpt>
      <trkpt lat="43.66437" lon="3.78755">
        <ele>67.4</ele>
        <time>2017-05-21T07:55:23Z</time>
      </trkpt>
      <trkpt lat="43.66436" lon="3.78759">
        <ele>67</ele>
        <time>2017-05-21T07:55:27Z</time>
      </trkpt>
      <trkpt lat="43.66434" lon="3.78763">
        <ele>66.5</ele>
        <time>2017-05-21T07:55:29Z</time>
      </trkpt>
      <trkpt lat="43.66433" lon="3.78769">
        <ele>66.1</ele>
        <time>2017-05-21T07:55:31Z</time>
      </trkpt>
      <trkpt lat="43.6643" lon="3.78773">
        <ele>65.5</ele>
        <time>2017-05-21T07:55:32Z</time>
      </trkpt>
      <trkpt lat="43.66428" lon="3.78781">
        <ele>64.8</ele>
        <time>2017-05-21T07:55:34Z</time>
      </trkpt>
      <trkpt lat="43.66427" lon="3.78785">
        <ele>64.6</ele>
        <time>2017-05-21T07:55:35Z</time>
      </trkpt>
      <trkpt lat="43.66426" lon="3.78792">
        <ele>63.9</ele>
        <time>2017-05-21T07:55:36Z</time>
      </trkpt>
      <trkpt lat="43.66424" lon="3.78798">
        <ele>63.9</ele>
        <time>2017-05-21T07:55:37Z</time>
      </trkpt>
      <trkpt lat="43.66422" lon="3.78803">
        <ele>63.7</ele>
        <time>2017-05-21T07:55:38Z</time>
      </trkpt>
      <trkpt lat="43.66421" lon="3.78807">
        <ele>63.5</ele>
        <time>2017-05-21T07:55:39Z</time>
      </trkpt>
      <trkpt lat="43.66419" lon="3.78811">
        <ele>63.5</ele>
        <time>2017-05-21T07:55:40Z</time>
      </trkpt>
      <trkpt lat="43.66417" lon="3.78815">
        <ele>63.5</ele>
        <time>2017-05-21T07:55:41Z</time>
      </trkpt>
      <trkpt lat="43.66415" lon="3.78818">
        <ele>63.5</ele>
        <time>2017-05-21T07:55:42Z</time>
      </trkpt>
      <trkpt lat="43.66413" lon="3.78822">
        <ele>63.5</ele>
        <time>2017-05-21T07:55:43Z</time>
      </trkpt>
      <trkpt lat="43.6641" lon="3.78826">
        <ele>63.5</ele>
        <time>2017-05-21T07:55:44Z</time>
      </trkpt>
      <trkpt lat="43.66408" lon="3.78831">
        <ele>63.5</ele>
        <time>2017-05-21T07:55:45Z</time>
      </trkpt>
      <trkpt lat="43.66406" lon="3.78836">
        <ele>63.2</ele>
        <time>2017-05-21T07:55:46Z</time>
      </trkpt>
      <trkpt lat="43.66404" lon="3.78841">
        <ele>63.2</ele>
        <time>2017-05-21T07:55:47Z</time>
      </trkpt>
      <trkpt lat="43.66404" lon="3.78845">
        <ele>63.1</ele>
        <time>2017-05-21T07:55:48Z</time>
      </trkpt>
      <trkpt lat="43.66402" lon="3.78849">
        <ele>63.1</ele>
        <time>2017-05-21T07:55:49Z</time>
      </trkpt>
      <trkpt lat="43.664" lon="3.78854">
        <ele>63</ele>
        <time>2017-05-21T07:55:50Z</time>
      </trkpt>
      <trkpt lat="43.66398" lon="3.78858">
        <ele>63</ele>
        <time>2017-05-21T07:55:51Z</time>
      </trkpt>
      <trkpt lat="43.66397" lon="3.78863">
        <ele>62.9</ele>
        <time>2017-05-21T07:55:52Z</time>
      </trkpt>
      <trkpt lat="43.66396" lon="3.78867">
        <ele>62.7</ele>
        <time>2017-05-21T07:55:53Z</time>
      </trkpt>
      <trkpt lat="43.66394" lon="3.78873">
        <ele>62.6</ele>
        <time>2017-05-21T07:55:54Z</time>
      </trkpt>
      <trkpt lat="43.66392" lon="3.78877">
        <ele>62.3</ele>
        <time>2017-05-21T07:55:55Z</time>
      </trkpt>
      <trkpt lat="43.6639" lon="3.78882">
        <ele>62.1</ele>
        <time>2017-05-21T07:55:56Z</time>
      </trkpt>
      <trkpt lat="43.66388" lon="3.78887">
        <ele>61.9</ele>
        <time>2017-05-21T07:55:57Z</time>
      </trkpt>
      <trkpt lat="43.66386" lon="3.78891">
        <ele>62</ele>
        <time>2017-05-21T07:55:58Z</time>
      </trkpt>
      <trkpt lat="43.66385" lon="3.78896">
        <ele>62.1</ele>
        <time>2017-05-21T07:55:59Z</time>
      </trkpt>
      <trkpt lat="43.66383" lon="3.789">
        <ele>62.3</ele>
        <time>2017-05-21T07:56:00Z</time>
      </trkpt>
      <trkpt lat="43.66381" lon="3.78904">
        <ele>62.5</ele>
        <time>2017-05-21T07:56:01Z</time>
      </trkpt>
      <trkpt lat="43.66379" lon="3.78909">
        <ele>62.6</ele>
        <time>2017-05-21T07:56:02Z</time>
      </trkpt>
      <trkpt lat="43.66378" lon="3.78913">
        <ele>62.8</ele>
        <time>2017-05-21T07:56:03Z</time>
      </trkpt>
      <trkpt lat="43.66376" lon="3.78918">
        <ele>62.9</ele>
        <time>2017-05-21T07:56:04Z</time>
      </trkpt>
      <trkpt lat="43.66373" lon="3.78921">
        <ele>62.9</ele>
        <time>2017-05-21T07:56:05Z</time>
      </trkpt>
      <trkpt lat="43.6637" lon="3.78924">
        <ele>62.9</ele>
        <time>2017-05-21T07:56:06Z</time>
      </trkpt>
      <trkpt lat="43.66368" lon="3.78927">
        <ele>62.9</ele>
        <time>2017-05-21T07:56:07Z</time>
      </trkpt>
      <trkpt lat="43.66365" lon="3.7893">
        <ele>62.9</ele>
        <time>2017-05-21T07:56:08Z</time>
      </trkpt>
      <trkpt lat="43.66363" lon="3.78934">
        <ele>62.9</ele>
        <time>2017-05-21T07:56:09Z</time>
      </trkpt>
      <trkpt lat="43.66361" lon="3.78937">
        <ele>63</ele>
        <time>2017-05-21T07:56:10Z</time>
      </trkpt>
      <trkpt lat="43.66357" lon="3.78943">
        <ele>63</ele>
        <time>2017-05-21T07:56:12Z</time>
      </trkpt>
      <trkpt lat="43.66355" lon="3.78946">
        <ele>63</ele>
        <time>2017-05-21T07:56:13Z</time>
      </trkpt>
      <trkpt lat="43.66352" lon="3.78948">
        <ele>63</ele>
        <time>2017-05-21T07:56:14Z</time>
      </trkpt>
      <trkpt lat="43.66349" lon="3.7895">
        <ele>63</ele>
        <time>2017-05-21T07:56:15Z</time>
      </trkpt>
      <trkpt lat="43.66345" lon="3.78953">
        <ele>63</ele>
        <time>2017-05-21T07:56:16Z</time>
      </trkpt>
      <trkpt lat="43.66342" lon="3.78956">
        <ele>62.9</ele>
        <time>2017-05-21T07:56:17Z</time>
      </trkpt>
      <trkpt lat="43.66339" lon="3.78958">
        <ele>62.9</ele>
        <time>2017-05-21T07:56:18Z</time>
      </trkpt>
      <trkpt lat="43.66337" lon="3.78961">
        <ele>62.9</ele>
        <time>2017-05-21T07:56:19Z</time>
      </trkpt>
      <trkpt lat="43.66334" lon="3.78964">
        <ele>63</ele>
        <time>2017-05-21T07:56:20Z</time>
      </trkpt>
      <trkpt lat="43.66331" lon="3.78967">
        <ele>63</ele>
        <time>2017-05-21T07:56:21Z</time>
      </trkpt>
      <trkpt lat="43.66327" lon="3.78968">
        <ele>63.2</ele>
        <time>2017-05-21T07:56:22Z</time>
      </trkpt>
      <trkpt lat="43.66324" lon="3.78971">
        <ele>63.3</ele>
        <time>2017-05-21T07:56:23Z</time>
      </trkpt>
      <trkpt lat="43.66322" lon="3.78975">
        <ele>63.3</ele>
        <time>2017-05-21T07:56:24Z</time>
      </trkpt>
      <trkpt lat="43.66318" lon="3.78978">
        <ele>63.5</ele>
        <time>2017-05-21T07:56:25Z</time>
      </trkpt>
      <trkpt lat="43.66314" lon="3.78981">
        <ele>63.6</ele>
        <time>2017-05-21T07:56:26Z</time>
      </trkpt>
      <trkpt lat="43.6631" lon="3.78981">
        <ele>63.6</ele>
        <time>2017-05-21T07:56:27Z</time>
      </trkpt>
      <trkpt lat="43.66307" lon="3.78982">
        <ele>63.7</ele>
        <time>2017-05-21T07:56:28Z</time>
      </trkpt>
      <trkpt lat="43.66303" lon="3.78982">
        <ele>63.7</ele>
        <time>2017-05-21T07:56:29Z</time>
      </trkpt>
      <trkpt lat="43.66299" lon="3.78983">
        <ele>63.7</ele>
        <time>2017-05-21T07:56:30Z</time>
      </trkpt>
      <trkpt lat="43.66294" lon="3.78984">
        <ele>63.7</ele>
        <time>2017-05-21T07:56:31Z</time>
      </trkpt>
      <trkpt lat="43.6629" lon="3.78985">
        <ele>63.6</ele>
        <time>2017-05-21T07:56:32Z</time>
      </trkpt>
      <trkpt lat="43.66286" lon="3.78988">
        <ele>63.4</ele>
        <time>2017-05-21T07:56:33Z</time>
      </trkpt>
      <trkpt lat="43.66283" lon="3.78989">
        <ele>63.3</ele>
        <time>2017-05-21T07:56:34Z</time>
      </trkpt>
      <trkpt lat="43.66279" lon="3.78989">
        <ele>63.3</ele>
        <time>2017-05-21T07:56:35Z</time>
      </trkpt>
      <trkpt lat="43.66275" lon="3.78989">
        <ele>63.2</ele>
        <time>2017-05-21T07:56:36Z</time>
      </trkpt>
      <trkpt lat="43.66271" lon="3.78991">
        <ele>62.9</ele>
        <time>2017-05-21T07:56:37Z</time>
      </trkpt>
      <trkpt lat="43.66267" lon="3.78994">
        <ele>62.8</ele>
        <time>2017-05-21T07:56:38Z</time>
      </trkpt>
      <trkpt lat="43.66262" lon="3.78994">
        <ele>62.5</ele>
        <time>2017-05-21T07:56:39Z</time>
      </trkpt>
      <trkpt lat="43.66258" lon="3.78994">
        <ele>62.6</ele>
        <time>2017-05-21T07:56:40Z</time>
      </trkpt>
      <trkpt lat="43.66255" lon="3.78994">
        <ele>62.5</ele>
        <time>2017-05-21T07:56:41Z</time>
      </trkpt>
      <trkpt lat="43.66251" lon="3.78993">
        <ele>62.5</ele>
        <time>2017-05-21T07:56:42Z</time>
      </trkpt>
      <trkpt lat="43.66248" lon="3.78992">
        <ele>62.5</ele>
        <time>2017-05-21T07:56:43Z</time>
      </trkpt>
      <trkpt lat="43.66244" lon="3.7899">
        <ele>62.5</ele>
        <time>2017-05-21T07:56:44Z</time>
      </trkpt>
      <trkpt lat="43.66241" lon="3.78987">
        <ele>62.9</ele>
        <time>2017-05-21T07:56:45Z</time>
      </trkpt>
      <trkpt lat="43.66239" lon="3.78984">
        <ele>63.3</ele>
        <time>2017-05-21T07:56:46Z</time>
      </trkpt>
      <trkpt lat="43.66235" lon="3.78982">
        <ele>63.3</ele>
        <time>2017-05-21T07:56:47Z</time>
      </trkpt>
      <trkpt lat="43.66231" lon="3.78981">
        <ele>63.6</ele>
        <time>2017-05-21T07:56:48Z</time>
      </trkpt>
      <trkpt lat="43.66228" lon="3.78979">
        <ele>63.6</ele>
        <time>2017-05-21T07:56:49Z</time>
      </trkpt>
      <trkpt lat="43.66225" lon="3.78977">
        <ele>63.6</ele>
        <time>2017-05-21T07:56:50Z</time>
      </trkpt>
      <trkpt lat="43.66222" lon="3.78975">
        <ele>63.8</ele>
        <time>2017-05-21T07:56:51Z</time>
      </trkpt>
      <trkpt lat="43.66219" lon="3.78973">
        <ele>63.8</ele>
        <time>2017-05-21T07:56:52Z</time>
      </trkpt>
      <trkpt lat="43.66215" lon="3.7897">
        <ele>64</ele>
        <time>2017-05-21T07:56:53Z</time>
      </trkpt>
      <trkpt lat="43.66212" lon="3.78967">
        <ele>64.2</ele>
        <time>2017-05-21T07:56:54Z</time>
      </trkpt>
      <trkpt lat="43.66208" lon="3.78963">
        <ele>64.4</ele>
        <time>2017-05-21T07:56:56Z</time>
      </trkpt>
      <trkpt lat="43.66205" lon="3.78961">
        <ele>64.4</ele>
        <time>2017-05-21T07:56:57Z</time>
      </trkpt>
      <trkpt lat="43.66202" lon="3.78959">
        <ele>64.5</ele>
        <time>2017-05-21T07:56:58Z</time>
      </trkpt>
      <trkpt lat="43.66199" lon="3.78957">
        <ele>64.6</ele>
        <time>2017-05-21T07:56:59Z</time>
      </trkpt>
      <trkpt lat="43.66194" lon="3.78957">
        <ele>64.8</ele>
        <time>2017-05-21T07:57:01Z</time>
      </trkpt>
      <trkpt lat="43.66191" lon="3.78956">
        <ele>64.9</ele>
        <time>2017-05-21T07:57:02Z</time>
      </trkpt>
      <trkpt lat="43.66188" lon="3.78954">
        <ele>65.3</ele>
        <time>2017-05-21T07:57:03Z</time>
      </trkpt>
      <trkpt lat="43.66181" lon="3.78953">
        <ele>65.7</ele>
        <time>2017-05-21T07:57:05Z</time>
      </trkpt>
      <trkpt lat="43.66176" lon="3.78952">
        <ele>66</ele>
        <time>2017-05-21T07:57:07Z</time>
      </trkpt>
      <trkpt lat="43.66171" lon="3.78955">
        <ele>66.4</ele>
        <time>2017-05-21T07:57:09Z</time>
      </trkpt>
      <trkpt lat="43.66167" lon="3.78955">
        <ele>66.6</ele>
        <time>2017-05-21T07:57:10Z</time>
      </trkpt>
      <trkpt lat="43.66164" lon="3.78956">
        <ele>66.4</ele>
        <time>2017-05-21T07:57:11Z</time>
      </trkpt>
      <trkpt lat="43.66161" lon="3.78957">
        <ele>66.5</ele>
        <time>2017-05-21T07:57:12Z</time>
      </trkpt>
      <trkpt lat="43.66158" lon="3.78958">
        <ele>66.6</ele>
        <time>2017-05-21T07:57:13Z</time>
      </trkpt>
      <trkpt lat="43.66155" lon="3.78958">
        <ele>66.6</ele>
        <time>2017-05-21T07:57:14Z</time>
      </trkpt>
      <trkpt lat="43.66152" lon="3.7896">
        <ele>66.4</ele>
        <time>2017-05-21T07:57:15Z</time>
      </trkpt>
      <trkpt lat="43.66147" lon="3.78964">
        <ele>66.5</ele>
        <time>2017-05-21T07:57:17Z</time>
      </trkpt>
      <trkpt lat="43.66143" lon="3.78968">
        <ele>66.3</ele>
        <time>2017-05-21T07:57:18Z</time>
      </trkpt>
      <trkpt lat="43.6614" lon="3.78973">
        <ele>65.8</ele>
        <time>2017-05-21T07:57:19Z</time>
      </trkpt>
      <trkpt lat="43.66138" lon="3.78978">
        <ele>65.6</ele>
        <time>2017-05-21T07:57:20Z</time>
      </trkpt>
      <trkpt lat="43.66134" lon="3.78983">
        <ele>65.4</ele>
        <time>2017-05-21T07:57:21Z</time>
      </trkpt>
      <trkpt lat="43.66131" lon="3.78987">
        <ele>65.3</ele>
        <time>2017-05-21T07:57:22Z</time>
      </trkpt>
      <trkpt lat="43.66129" lon="3.78991">
        <ele>65.3</ele>
        <time>2017-05-21T07:57:23Z</time>
      </trkpt>
      <trkpt lat="43.66127" lon="3.78995">
        <ele>65.1</ele>
        <time>2017-05-21T07:57:24Z</time>
      </trkpt>
      <trkpt lat="43.66126" lon="3.79002">
        <ele>65.2</ele>
        <time>2017-05-21T07:57:25Z</time>
      </trkpt>
      <trkpt lat="43.66125" lon="3.79009">
        <ele>64.9</ele>
        <time>2017-05-21T07:57:26Z</time>
      </trkpt>
      <trkpt lat="43.66123" lon="3.79015">
        <ele>64.7</ele>
        <time>2017-05-21T07:57:27Z</time>
      </trkpt>
      <trkpt lat="43.66122" lon="3.7902">
        <ele>64.5</ele>
        <time>2017-05-21T07:57:28Z</time>
      </trkpt>
      <trkpt lat="43.66121" lon="3.79026">
        <ele>64.4</ele>
        <time>2017-05-21T07:57:29Z</time>
      </trkpt>
      <trkpt lat="43.66119" lon="3.79032">
        <ele>64.5</ele>
        <time>2017-05-21T07:57:30Z</time>
      </trkpt>
      <trkpt lat="43.66118" lon="3.79038">
        <ele>64.2</ele>
        <time>2017-05-21T07:57:31Z</time>
      </trkpt>
      <trkpt lat="43.66115" lon="3.79043">
        <ele>64.2</ele>
        <time>2017-05-21T07:57:32Z</time>
      </trkpt>
      <trkpt lat="43.66112" lon="3.79045">
        <ele>64.4</ele>
        <time>2017-05-21T07:57:33Z</time>
      </trkpt>
      <trkpt lat="43.66107" lon="3.79047">
        <ele>64.6</ele>
        <time>2017-05-21T07:57:34Z</time>
      </trkpt>
      <trkpt lat="43.66103" lon="3.79047">
        <ele>64.7</ele>
        <time>2017-05-21T07:57:35Z</time>
      </trkpt>
      <trkpt lat="43.66099" lon="3.79048">
        <ele>64.9</ele>
        <time>2017-05-21T07:57:36Z</time>
      </trkpt>
      <trkpt lat="43.66094" lon="3.79048">
        <ele>65.2</ele>
        <time>2017-05-21T07:57:37Z</time>
      </trkpt>
      <trkpt lat="43.6609" lon="3.79048">
        <ele>65.3</ele>
        <time>2017-05-21T07:57:38Z</time>
      </trkpt>
      <trkpt lat="43.66086" lon="3.79048">
        <ele>65.4</ele>
        <time>2017-05-21T07:57:39Z</time>
      </trkpt>
      <trkpt lat="43.66081" lon="3.79047">
        <ele>65.3</ele>
        <time>2017-05-21T07:57:40Z</time>
      </trkpt>
      <trkpt lat="43.66076" lon="3.79046">
        <ele>65.2</ele>
        <time>2017-05-21T07:57:41Z</time>
      </trkpt>
      <trkpt lat="43.66072" lon="3.79042">
        <ele>65.2</ele>
        <time>2017-05-21T07:57:42Z</time>
      </trkpt>
      <trkpt lat="43.66069" lon="3.79038">
        <ele>65.2</ele>
        <time>2017-05-21T07:57:43Z</time>
      </trkpt>
      <trkpt lat="43.66065" lon="3.79035">
        <ele>65.2</ele>
        <time>2017-05-21T07:57:44Z</time>
      </trkpt>
      <trkpt lat="43.66061" lon="3.79033">
        <ele>65</ele>
        <time>2017-05-21T07:57:45Z</time>
      </trkpt>
      <trkpt lat="43.66057" lon="3.79031">
        <ele>64.9</ele>
        <time>2017-05-21T07:57:47Z</time>
      </trkpt>
      <trkpt lat="43.66055" lon="3.79032">
        <ele>64.9</ele>
        <time>2017-05-21T07:57:55Z</time>
      </trkpt>
      <trkpt lat="43.66052" lon="3.79033">
        <ele>64.6</ele>
        <time>2017-05-21T07:57:58Z</time>
      </trkpt>
      <trkpt lat="43.66048" lon="3.79036">
        <ele>64.4</ele>
        <time>2017-05-21T07:58:01Z</time>
      </trkpt>
      <trkpt lat="43.66045" lon="3.79039">
        <ele>64.2</ele>
        <time>2017-05-21T07:58:03Z</time>
      </trkpt>
      <trkpt lat="43.66044" lon="3.79043">
        <ele>64</ele>
        <time>2017-05-21T07:58:06Z</time>
      </trkpt>
      <trkpt lat="43.66042" lon="3.79047">
        <ele>63.8</ele>
        <time>2017-05-21T07:58:08Z</time>
      </trkpt>
      <trkpt lat="43.6604" lon="3.79051">
        <ele>63.7</ele>
        <time>2017-05-21T07:58:13Z</time>
      </trkpt>
      <trkpt lat="43.66036" lon="3.79054">
        <ele>63.8</ele>
        <time>2017-05-21T07:58:18Z</time>
      </trkpt>
      <trkpt lat="43.66032" lon="3.79053">
        <ele>64</ele>
        <time>2017-05-21T07:58:20Z</time>
      </trkpt>
      <trkpt lat="43.66029" lon="3.79053">
        <ele>64.1</ele>
        <time>2017-05-21T07:58:21Z</time>
      </trkpt>
      <trkpt lat="43.66027" lon="3.79056">
        <ele>64</ele>
        <time>2017-05-21T07:58:23Z</time>
      </trkpt>
      <trkpt lat="43.66027" lon="3.79062">
        <ele>63.8</ele>
        <time>2017-05-21T07:58:27Z</time>
      </trkpt>
      <trkpt lat="43.66029" lon="3.79067">
        <ele>63.6</ele>
        <time>2017-05-21T07:58:29Z</time>
      </trkpt>
      <trkpt lat="43.66028" lon="3.79071">
        <ele>63.3</ele>
        <time>2017-05-21T07:58:32Z</time>
      </trkpt>
      <trkpt lat="43.6603" lon="3.79076">
        <ele>63.2</ele>
        <time>2017-05-21T07:58:34Z</time>
      </trkpt>
      <trkpt lat="43.66034" lon="3.7908">
        <ele>63.1</ele>
        <time>2017-05-21T07:58:36Z</time>
      </trkpt>
      <trkpt lat="43.66032" lon="3.79084">
        <ele>63.1</ele>
        <time>2017-05-21T07:58:38Z</time>
      </trkpt>
      <trkpt lat="43.66036" lon="3.79086">
        <ele>63</ele>
        <time>2017-05-21T07:58:39Z</time>
      </trkpt>
      <trkpt lat="43.66038" lon="3.79089">
        <ele>63</ele>
        <time>2017-05-21T07:58:40Z</time>
      </trkpt>
      <trkpt lat="43.6604" lon="3.79093">
        <ele>63.2</ele>
        <time>2017-05-21T07:58:42Z</time>
      </trkpt>
      <trkpt lat="43.66042" lon="3.79096">
        <ele>63.1</ele>
        <time>2017-05-21T07:58:44Z</time>
      </trkpt>
      <trkpt lat="43.66043" lon="3.791">
        <ele>63.2</ele>
        <time>2017-05-21T07:58:45Z</time>
      </trkpt>
      <trkpt lat="43.66045" lon="3.79106">
        <ele>63.3</ele>
        <time>2017-05-21T07:58:47Z</time>
      </trkpt>
      <trkpt lat="43.66047" lon="3.79111">
        <ele>63.6</ele>
        <time>2017-05-21T07:58:49Z</time>
      </trkpt>
      <trkpt lat="43.66047" lon="3.79115">
        <ele>63.8</ele>
        <time>2017-05-21T07:58:52Z</time>
      </trkpt>
      <trkpt lat="43.66046" lon="3.7912">
        <ele>64.2</ele>
        <time>2017-05-21T07:58:57Z</time>
      </trkpt>
      <trkpt lat="43.66045" lon="3.79123">
        <ele>64.5</ele>
        <time>2017-05-21T07:59:00Z</time>
      </trkpt>
      <trkpt lat="43.66047" lon="3.79127">
        <ele>64.9</ele>
        <time>2017-05-21T07:59:02Z</time>
      </trkpt>
      <trkpt lat="43.66047" lon="3.79131">
        <ele>65.3</ele>
        <time>2017-05-21T07:59:04Z</time>
      </trkpt>
      <trkpt lat="43.66047" lon="3.79136">
        <ele>65.7</ele>
        <time>2017-05-21T07:59:06Z</time>
      </trkpt>
      <trkpt lat="43.66049" lon="3.79143">
        <ele>66.1</ele>
        <time>2017-05-21T07:59:08Z</time>
      </trkpt>
      <trkpt lat="43.66051" lon="3.79149">
        <ele>66.6</ele>
        <time>2017-05-21T07:59:10Z</time>
      </trkpt>
      <trkpt lat="43.66053" lon="3.79152">
        <ele>66.6</ele>
        <time>2017-05-21T07:59:11Z</time>
      </trkpt>
      <trkpt lat="43.66054" lon="3.79156">
        <ele>66.7</ele>
        <time>2017-05-21T07:59:12Z</time>
      </trkpt>
      <trkpt lat="43.66056" lon="3.79161">
        <ele>66.9</ele>
        <time>2017-05-21T07:59:14Z</time>
      </trkpt>
      <trkpt lat="43.66057" lon="3.79168">
        <ele>67</ele>
        <time>2017-05-21T07:59:16Z</time>
      </trkpt>
      <trkpt lat="43.66057" lon="3.79175">
        <ele>67.1</ele>
        <time>2017-05-21T07:59:18Z</time>
      </trkpt>
      <trkpt lat="43.66057" lon="3.7918">
        <ele>67.1</ele>
        <time>2017-05-21T07:59:20Z</time>
      </trkpt>
      <trkpt lat="43.66058" lon="3.79184">
        <ele>67.1</ele>
        <time>2017-05-21T07:59:21Z</time>
      </trkpt>
      <trkpt lat="43.66057" lon="3.79188">
        <ele>67.2</ele>
        <time>2017-05-21T07:59:23Z</time>
      </trkpt>
      <trkpt lat="43.66055" lon="3.79192">
        <ele>67.3</ele>
        <time>2017-05-21T07:59:25Z</time>
      </trkpt>
      <trkpt lat="43.66054" lon="3.79196">
        <ele>67.3</ele>
        <time>2017-05-21T07:59:27Z</time>
      </trkpt>
      <trkpt lat="43.66052" lon="3.792">
        <ele>67.4</ele>
        <time>2017-05-21T07:59:29Z</time>
      </trkpt>
      <trkpt lat="43.66051" lon="3.79206">
        <ele>67.5</ele>
        <time>2017-05-21T07:59:32Z</time>
      </trkpt>
      <trkpt lat="43.6605" lon="3.79209">
        <ele>67.6</ele>
        <time>2017-05-21T07:59:35Z</time>
      </trkpt>
      <trkpt lat="43.66049" lon="3.79205">
        <ele>67.7</ele>
        <time>2017-05-21T07:59:55Z</time>
      </trkpt>
      <trkpt lat="43.6605" lon="3.79202">
        <ele>67.8</ele>
        <time>2017-05-21T08:00:14Z</time>
      </trkpt>
      <trkpt lat="43.6605" lon="3.79198">
        <ele>67.9</ele>
        <time>2017-05-21T08:01:12Z</time>
      </trkpt>
      <trkpt lat="43.6605" lon="3.79202">
        <ele>68</ele>
        <time>2017-05-21T08:01:38Z</time>
      </trkpt>
      <trkpt lat="43.66053" lon="3.79203">
        <ele>68.1</ele>
        <time>2017-05-21T08:02:57Z</time>
      </trkpt>
      <trkpt lat="43.6605" lon="3.79212">
        <ele>68.3</ele>
        <time>2017-05-21T08:05:23Z</time>
      </trkpt>
      <trkpt lat="43.6605" lon="3.79216">
        <ele>68.4</ele>
        <time>2017-05-21T08:05:26Z</time>
      </trkpt>
      <trkpt lat="43.66048" lon="3.79219">
        <ele>68.6</ele>
        <time>2017-05-21T08:05:38Z</time>
      </trkpt>
      <trkpt lat="43.66046" lon="3.79222">
        <ele>68.7</ele>
        <time>2017-05-21T08:05:41Z</time>
      </trkpt>
      <trkpt lat="43.66045" lon="3.79226">
        <ele>68.8</ele>
        <time>2017-05-21T08:06:03Z</time>
      </trkpt>
      <trkpt lat="43.66043" lon="3.79231">
        <ele>69</ele>
        <time>2017-05-21T08:06:06Z</time>
      </trkpt>
      <trkpt lat="43.66041" lon="3.79235">
        <ele>69.2</ele>
        <time>2017-05-21T08:06:08Z</time>
      </trkpt>
      <trkpt lat="43.66041" lon="3.7924">
        <ele>69.4</ele>
        <time>2017-05-21T08:06:10Z</time>
      </trkpt>
      <trkpt lat="43.66041" lon="3.79245">
        <ele>69.6</ele>
        <time>2017-05-21T08:06:13Z</time>
      </trkpt>
      <trkpt lat="43.66041" lon="3.79249">
        <ele>69.8</ele>
        <time>2017-05-21T08:06:15Z</time>
      </trkpt>
      <trkpt lat="43.66041" lon="3.79255">
        <ele>70.1</ele>
        <time>2017-05-21T08:06:18Z</time>
      </trkpt>
      <trkpt lat="43.6604" lon="3.7926">
        <ele>70.3</ele>
        <time>2017-05-21T08:06:20Z</time>
      </trkpt>
      <trkpt lat="43.66038" lon="3.79265">
        <ele>70.6</ele>
        <time>2017-05-21T08:06:22Z</time>
      </trkpt>
      <trkpt lat="43.66036" lon="3.7927">
        <ele>71</ele>
        <time>2017-05-21T08:06:24Z</time>
      </trkpt>
      <trkpt lat="43.66033" lon="3.79273">
        <ele>71</ele>
        <time>2017-05-21T08:06:26Z</time>
      </trkpt>
      <trkpt lat="43.66031" lon="3.7928">
        <ele>71</ele>
        <time>2017-05-21T08:06:28Z</time>
      </trkpt>
      <trkpt lat="43.66029" lon="3.79284">
        <ele>71</ele>
        <time>2017-05-21T08:06:30Z</time>
      </trkpt>
      <trkpt lat="43.66027" lon="3.79288">
        <ele>71</ele>
        <time>2017-05-21T08:06:32Z</time>
      </trkpt>
      <trkpt lat="43.66024" lon="3.79292">
        <ele>71</ele>
        <time>2017-05-21T08:06:34Z</time>
      </trkpt>
      <trkpt lat="43.66022" lon="3.79297">
        <ele>71</ele>
        <time>2017-05-21T08:06:36Z</time>
      </trkpt>
      <trkpt lat="43.66019" lon="3.79301">
        <ele>71</ele>
        <time>2017-05-21T08:06:38Z</time>
      </trkpt>
      <trkpt lat="43.66017" lon="3.79306">
        <ele>71</ele>
        <time>2017-05-21T08:06:40Z</time>
      </trkpt>
      <trkpt lat="43.66018" lon="3.7931">
        <ele>71</ele>
        <time>2017-05-21T08:06:44Z</time>
      </trkpt>
      <trkpt lat="43.66017" lon="3.79313">
        <ele>71</ele>
        <time>2017-05-21T08:06:47Z</time>
      </trkpt>
      <trkpt lat="43.66017" lon="3.79318">
        <ele>71</ele>
        <time>2017-05-21T08:06:49Z</time>
      </trkpt>
      <trkpt lat="43.66018" lon="3.79323">
        <ele>71</ele>
        <time>2017-05-21T08:06:51Z</time>
      </trkpt>
      <trkpt lat="43.6602" lon="3.79326">
        <ele>71</ele>
        <time>2017-05-21T08:06:53Z</time>
      </trkpt>
      <trkpt lat="43.66022" lon="3.79332">
        <ele>72.5</ele>
        <time>2017-05-21T08:06:55Z</time>
      </trkpt>
      <trkpt lat="43.66023" lon="3.79337">
        <ele>73.3</ele>
        <time>2017-05-21T08:06:57Z</time>
      </trkpt>
      <trkpt lat="43.66024" lon="3.79343">
        <ele>74.2</ele>
        <time>2017-05-21T08:06:59Z</time>
      </trkpt>
      <trkpt lat="43.66023" lon="3.79347">
        <ele>75</ele>
        <time>2017-05-21T08:07:01Z</time>
      </trkpt>
      <trkpt lat="43.66023" lon="3.79353">
        <ele>75.9</ele>
        <time>2017-05-21T08:07:03Z</time>
      </trkpt>
      <trkpt lat="43.66023" lon="3.79358">
        <ele>76.8</ele>
        <time>2017-05-21T08:07:05Z</time>
      </trkpt>
      <trkpt lat="43.66022" lon="3.79364">
        <ele>77.4</ele>
        <time>2017-05-21T08:07:07Z</time>
      </trkpt>
      <trkpt lat="43.66022" lon="3.7937">
        <ele>77.8</ele>
        <time>2017-05-21T08:07:09Z</time>
      </trkpt>
      <trkpt lat="43.66022" lon="3.79375">
        <ele>78.1</ele>
        <time>2017-05-21T08:07:11Z</time>
      </trkpt>
      <trkpt lat="43.66022" lon="3.79379">
        <ele>78.4</ele>
        <time>2017-05-21T08:07:13Z</time>
      </trkpt>
      <trkpt lat="43.66023" lon="3.79384">
        <ele>78.6</ele>
        <time>2017-05-21T08:07:15Z</time>
      </trkpt>
      <trkpt lat="43.66023" lon="3.79388">
        <ele>78.8</ele>
        <time>2017-05-21T08:07:17Z</time>
      </trkpt>
      <trkpt lat="43.66024" lon="3.79393">
        <ele>79</ele>
        <time>2017-05-21T08:07:19Z</time>
      </trkpt>
      <trkpt lat="43.66025" lon="3.79397">
        <ele>79.2</ele>
        <time>2017-05-21T08:07:20Z</time>
      </trkpt>
      <trkpt lat="43.66026" lon="3.79402">
        <ele>79.6</ele>
        <time>2017-05-21T08:07:22Z</time>
      </trkpt>
      <trkpt lat="43.66027" lon="3.79407">
        <ele>80</ele>
        <time>2017-05-21T08:07:24Z</time>
      </trkpt>
      <trkpt lat="43.66028" lon="3.79412">
        <ele>80.5</ele>
        <time>2017-05-21T08:07:26Z</time>
      </trkpt>
      <trkpt lat="43.66029" lon="3.79419">
        <ele>81.5</ele>
        <time>2017-05-21T08:07:28Z</time>
      </trkpt>
      <trkpt lat="43.6603" lon="3.79425">
        <ele>82.4</ele>
        <time>2017-05-21T08:07:30Z</time>
      </trkpt>
      <trkpt lat="43.66031" lon="3.79431">
        <ele>83.1</ele>
        <time>2017-05-21T08:07:32Z</time>
      </trkpt>
      <trkpt lat="43.66032" lon="3.79438">
        <ele>83.4</ele>
        <time>2017-05-21T08:07:34Z</time>
      </trkpt>
      <trkpt lat="43.66032" lon="3.79443">
        <ele>83.7</ele>
        <time>2017-05-21T08:07:36Z</time>
      </trkpt>
      <trkpt lat="43.66032" lon="3.79449">
        <ele>84</ele>
        <time>2017-05-21T08:07:38Z</time>
      </trkpt>
      <trkpt lat="43.66031" lon="3.79455">
        <ele>84.2</ele>
        <time>2017-05-21T08:07:40Z</time>
      </trkpt>
      <trkpt lat="43.6603" lon="3.79462">
        <ele>84.4</ele>
        <time>2017-05-21T08:07:42Z</time>
      </trkpt>
      <trkpt lat="43.6603" lon="3.79468">
        <ele>84.6</ele>
        <time>2017-05-21T08:07:44Z</time>
      </trkpt>
      <trkpt lat="43.6603" lon="3.79473">
        <ele>84.8</ele>
        <time>2017-05-21T08:07:46Z</time>
      </trkpt>
      <trkpt lat="43.6603" lon="3.79479">
        <ele>85</ele>
        <time>2017-05-21T08:07:48Z</time>
      </trkpt>
      <trkpt lat="43.6603" lon="3.79485">
        <ele>85.2</ele>
        <time>2017-05-21T08:07:50Z</time>
      </trkpt>
      <trkpt lat="43.66029" lon="3.79491">
        <ele>85.5</ele>
        <time>2017-05-21T08:07:52Z</time>
      </trkpt>
      <trkpt lat="43.66028" lon="3.79495">
        <ele>85.8</ele>
        <time>2017-05-21T08:07:54Z</time>
      </trkpt>
      <trkpt lat="43.66027" lon="3.79499">
        <ele>86</ele>
        <time>2017-05-21T08:07:56Z</time>
      </trkpt>
      <trkpt lat="43.66026" lon="3.79504">
        <ele>86.2</ele>
        <time>2017-05-21T08:07:58Z</time>
      </trkpt>
      <trkpt lat="43.66027" lon="3.79509">
        <ele>86.5</ele>
        <time>2017-05-21T08:08:00Z</time>
      </trkpt>
      <trkpt lat="43.66027" lon="3.79513">
        <ele>86.7</ele>
        <time>2017-05-21T08:08:01Z</time>
      </trkpt>
      <trkpt lat="43.66027" lon="3.79517">
        <ele>87</ele>
        <time>2017-05-21T08:08:02Z</time>
      </trkpt>
      <trkpt lat="43.66027" lon="3.79524">
        <ele>87.8</ele>
        <time>2017-05-21T08:08:04Z</time>
      </trkpt>
      <trkpt lat="43.66027" lon="3.7953">
        <ele>88.6</ele>
        <time>2017-05-21T08:08:06Z</time>
      </trkpt>
      <trkpt lat="43.66028" lon="3.79536">
        <ele>89.2</ele>
        <time>2017-05-21T08:08:08Z</time>
      </trkpt>
      <trkpt lat="43.66028" lon="3.79542">
        <ele>89.7</ele>
        <time>2017-05-21T08:08:10Z</time>
      </trkpt>
      <trkpt lat="43.66029" lon="3.79548">
        <ele>90.1</ele>
        <time>2017-05-21T08:08:12Z</time>
      </trkpt>
      <trkpt lat="43.66029" lon="3.79555">
        <ele>90.4</ele>
        <time>2017-05-21T08:08:14Z</time>
      </trkpt>
      <trkpt lat="43.66029" lon="3.79562">
        <ele>90.7</ele>
        <time>2017-05-21T08:08:16Z</time>
      </trkpt>
      <trkpt lat="43.66029" lon="3.79568">
        <ele>91</ele>
        <time>2017-05-21T08:08:18Z</time>
      </trkpt>
      <trkpt lat="43.6603" lon="3.79574">
        <ele>91.3</ele>
        <time>2017-05-21T08:08:20Z</time>
      </trkpt>
      <trkpt lat="43.6603" lon="3.79578">
        <ele>91.8</ele>
        <time>2017-05-21T08:08:21Z</time>
      </trkpt>
      <trkpt lat="43.6603" lon="3.79584">
        <ele>92.5</ele>
        <time>2017-05-21T08:08:23Z</time>
      </trkpt>
      <trkpt lat="43.66031" lon="3.7959">
        <ele>93</ele>
        <time>2017-05-21T08:08:25Z</time>
      </trkpt>
      <trkpt lat="43.6603" lon="3.79596">
        <ele>93.4</ele>
        <time>2017-05-21T08:08:27Z</time>
      </trkpt>
      <trkpt lat="43.6603" lon="3.79603">
        <ele>93.7</ele>
        <time>2017-05-21T08:08:29Z</time>
      </trkpt>
      <trkpt lat="43.6603" lon="3.79609">
        <ele>94.2</ele>
        <time>2017-05-21T08:08:31Z</time>
      </trkpt>
      <trkpt lat="43.66029" lon="3.79615">
        <ele>95.1</ele>
        <time>2017-05-21T08:08:33Z</time>
      </trkpt>
      <trkpt lat="43.66028" lon="3.79622">
        <ele>96.1</ele>
        <time>2017-05-21T08:08:35Z</time>
      </trkpt>
      <trkpt lat="43.66027" lon="3.79628">
        <ele>97</ele>
        <time>2017-05-21T08:08:37Z</time>
      </trkpt>
      <trkpt lat="43.66026" lon="3.79632">
        <ele>97.5</ele>
        <time>2017-05-21T08:08:38Z</time>
      </trkpt>
      <trkpt lat="43.66025" lon="3.79638">
        <ele>97.9</ele>
        <time>2017-05-21T08:08:40Z</time>
      </trkpt>
      <trkpt lat="43.66023" lon="3.79644">
        <ele>98.2</ele>
        <time>2017-05-21T08:08:42Z</time>
      </trkpt>
      <trkpt lat="43.66022" lon="3.7965">
        <ele>98.5</ele>
        <time>2017-05-21T08:08:44Z</time>
      </trkpt>
      <trkpt lat="43.6602" lon="3.79655">
        <ele>98.8</ele>
        <time>2017-05-21T08:08:46Z</time>
      </trkpt>
      <trkpt lat="43.66019" lon="3.79661">
        <ele>99.4</ele>
        <time>2017-05-21T08:08:48Z</time>
      </trkpt>
      <trkpt lat="43.66018" lon="3.79666">
        <ele>100.2</ele>
        <time>2017-05-21T08:08:50Z</time>
      </trkpt>
      <trkpt lat="43.66018" lon="3.79671">
        <ele>100.9</ele>
        <time>2017-05-21T08:08:52Z</time>
      </trkpt>
      <trkpt lat="43.66017" lon="3.79676">
        <ele>101.5</ele>
        <time>2017-05-21T08:08:54Z</time>
      </trkpt>
      <trkpt lat="43.66017" lon="3.79681">
        <ele>101.9</ele>
        <time>2017-05-21T08:08:56Z</time>
      </trkpt>
      <trkpt lat="43.66018" lon="3.79684">
        <ele>102.4</ele>
        <time>2017-05-21T08:08:58Z</time>
      </trkpt>
      <trkpt lat="43.66021" lon="3.79684">
        <ele>104</ele>
        <time>2017-05-21T08:09:00Z</time>
      </trkpt>
      <trkpt lat="43.66022" lon="3.79679">
        <ele>104</ele>
        <time>2017-05-21T08:09:02Z</time>
      </trkpt>
      <trkpt lat="43.66024" lon="3.79674">
        <ele>104</ele>
        <time>2017-05-21T08:09:04Z</time>
      </trkpt>
      <trkpt lat="43.66025" lon="3.7967">
        <ele>104.1</ele>
        <time>2017-05-21T08:09:05Z</time>
      </trkpt>
      <trkpt lat="43.66027" lon="3.79667">
        <ele>104.1</ele>
        <time>2017-05-21T08:09:06Z</time>
      </trkpt>
      <trkpt lat="43.66028" lon="3.79663">
        <ele>104.1</ele>
        <time>2017-05-21T08:09:07Z</time>
      </trkpt>
      <trkpt lat="43.6603" lon="3.7966">
        <ele>104.2</ele>
        <time>2017-05-21T08:09:08Z</time>
      </trkpt>
      <trkpt lat="43.66033" lon="3.79656">
        <ele>104.3</ele>
        <time>2017-05-21T08:09:09Z</time>
      </trkpt>
      <trkpt lat="43.66035" lon="3.79653">
        <ele>104.3</ele>
        <time>2017-05-21T08:09:10Z</time>
      </trkpt>
      <trkpt lat="43.66038" lon="3.7965">
        <ele>104.4</ele>
        <time>2017-05-21T08:09:11Z</time>
      </trkpt>
      <trkpt lat="43.6604" lon="3.79646">
        <ele>104.5</ele>
        <time>2017-05-21T08:09:12Z</time>
      </trkpt>
      <trkpt lat="43.66043" lon="3.79643">
        <ele>104.6</ele>
        <time>2017-05-21T08:09:13Z</time>
      </trkpt>
      <trkpt lat="43.66045" lon="3.7964">
        <ele>104.8</ele>
        <time>2017-05-21T08:09:14Z</time>
      </trkpt>
      <trkpt lat="43.66048" lon="3.79637">
        <ele>105</ele>
        <time>2017-05-21T08:09:15Z</time>
      </trkpt>
      <trkpt lat="43.6605" lon="3.79635">
        <ele>105.1</ele>
        <time>2017-05-21T08:09:16Z</time>
      </trkpt>
      <trkpt lat="43.66052" lon="3.79632">
        <ele>105.2</ele>
        <time>2017-05-21T08:09:17Z</time>
      </trkpt>
      <trkpt lat="43.66054" lon="3.7963">
        <ele>105.2</ele>
        <time>2017-05-21T08:09:18Z</time>
      </trkpt>
      <trkpt lat="43.66057" lon="3.79627">
        <ele>105.3</ele>
        <time>2017-05-21T08:09:19Z</time>
      </trkpt>
      <trkpt lat="43.66059" lon="3.79625">
        <ele>105.3</ele>
        <time>2017-05-21T08:09:20Z</time>
      </trkpt>
      <trkpt lat="43.66062" lon="3.79624">
        <ele>105.3</ele>
        <time>2017-05-21T08:09:21Z</time>
      </trkpt>
      <trkpt lat="43.66067" lon="3.79622">
        <ele>105.3</ele>
        <time>2017-05-21T08:09:23Z</time>
      </trkpt>
      <trkpt lat="43.66072" lon="3.79622">
        <ele>105.4</ele>
        <time>2017-05-21T08:09:25Z</time>
      </trkpt>
      <trkpt lat="43.66076" lon="3.79625">
        <ele>105.4</ele>
        <time>2017-05-21T08:09:27Z</time>
      </trkpt>
      <trkpt lat="43.66079" lon="3.79626">
        <ele>105.5</ele>
        <time>2017-05-21T08:09:29Z</time>
      </trkpt>
      <trkpt lat="43.66082" lon="3.79628">
        <ele>105.5</ele>
        <time>2017-05-21T08:09:31Z</time>
      </trkpt>
      <trkpt lat="43.66084" lon="3.79631">
        <ele>105.6</ele>
        <time>2017-05-21T08:09:33Z</time>
      </trkpt>
      <trkpt lat="43.66087" lon="3.79634">
        <ele>105.6</ele>
        <time>2017-05-21T08:09:35Z</time>
      </trkpt>
      <trkpt lat="43.66091" lon="3.79639">
        <ele>105.7</ele>
        <time>2017-05-21T08:09:37Z</time>
      </trkpt>
      <trkpt lat="43.66094" lon="3.79643">
        <ele>105.8</ele>
        <time>2017-05-21T08:09:39Z</time>
      </trkpt>
      <trkpt lat="43.66098" lon="3.79647">
        <ele>105.9</ele>
        <time>2017-05-21T08:09:41Z</time>
      </trkpt>
      <trkpt lat="43.661" lon="3.79649">
        <ele>106</ele>
        <time>2017-05-21T08:09:42Z</time>
      </trkpt>
      <trkpt lat="43.66104" lon="3.79653">
        <ele>106.2</ele>
        <time>2017-05-21T08:09:44Z</time>
      </trkpt>
      <trkpt lat="43.66107" lon="3.79657">
        <ele>106.4</ele>
        <time>2017-05-21T08:09:46Z</time>
      </trkpt>
      <trkpt lat="43.66111" lon="3.79662">
        <ele>106.6</ele>
        <time>2017-05-21T08:09:48Z</time>
      </trkpt>
      <trkpt lat="43.66113" lon="3.79665">
        <ele>106.6</ele>
        <time>2017-05-21T08:09:49Z</time>
      </trkpt>
      <trkpt lat="43.66117" lon="3.79669">
        <ele>106.7</ele>
        <time>2017-05-21T08:09:51Z</time>
      </trkpt>
      <trkpt lat="43.66121" lon="3.79674">
        <ele>106.8</ele>
        <time>2017-05-21T08:09:53Z</time>
      </trkpt>
      <trkpt lat="43.66123" lon="3.79676">
        <ele>106.9</ele>
        <time>2017-05-21T08:09:54Z</time>
      </trkpt>
      <trkpt lat="43.66126" lon="3.7968">
        <ele>106.9</ele>
        <time>2017-05-21T08:09:55Z</time>
      </trkpt>
      <trkpt lat="43.66129" lon="3.79682">
        <ele>107</ele>
        <time>2017-05-21T08:09:56Z</time>
      </trkpt>
      <trkpt lat="43.66133" lon="3.79687">
        <ele>107.1</ele>
        <time>2017-05-21T08:09:58Z</time>
      </trkpt>
      <trkpt lat="43.66136" lon="3.79689">
        <ele>107.2</ele>
        <time>2017-05-21T08:09:59Z</time>
      </trkpt>
      <trkpt lat="43.66138" lon="3.79692">
        <ele>107.2</ele>
        <time>2017-05-21T08:10:00Z</time>
      </trkpt>
      <trkpt lat="43.66141" lon="3.79695">
        <ele>107.3</ele>
        <time>2017-05-21T08:10:01Z</time>
      </trkpt>
      <trkpt lat="43.66143" lon="3.79697">
        <ele>107.3</ele>
        <time>2017-05-21T08:10:02Z</time>
      </trkpt>
      <trkpt lat="43.66145" lon="3.797">
        <ele>107.4</ele>
        <time>2017-05-21T08:10:03Z</time>
      </trkpt>
      <trkpt lat="43.66148" lon="3.79703">
        <ele>107.6</ele>
        <time>2017-05-21T08:10:04Z</time>
      </trkpt>
      <trkpt lat="43.6615" lon="3.79706">
        <ele>107.7</ele>
        <time>2017-05-21T08:10:05Z</time>
      </trkpt>
      <trkpt lat="43.66153" lon="3.79709">
        <ele>107.9</ele>
        <time>2017-05-21T08:10:06Z</time>
      </trkpt>
      <trkpt lat="43.66155" lon="3.79712">
        <ele>108.1</ele>
        <time>2017-05-21T08:10:07Z</time>
      </trkpt>
      <trkpt lat="43.66157" lon="3.79715">
        <ele>108.1</ele>
        <time>2017-05-21T08:10:08Z</time>
      </trkpt>
      <trkpt lat="43.66159" lon="3.79719">
        <ele>108.2</ele>
        <time>2017-05-21T08:10:09Z</time>
      </trkpt>
      <trkpt lat="43.66162" lon="3.79723">
        <ele>108.2</ele>
        <time>2017-05-21T08:10:10Z</time>
      </trkpt>
      <trkpt lat="43.66165" lon="3.79725">
        <ele>108.3</ele>
        <time>2017-05-21T08:10:11Z</time>
      </trkpt>
      <trkpt lat="43.66168" lon="3.79729">
        <ele>108.3</ele>
        <time>2017-05-21T08:10:12Z</time>
      </trkpt>
      <trkpt lat="43.6617" lon="3.79732">
        <ele>108.3</ele>
        <time>2017-05-21T08:10:13Z</time>
      </trkpt>
      <trkpt lat="43.66173" lon="3.79735">
        <ele>108.4</ele>
        <time>2017-05-21T08:10:14Z</time>
      </trkpt>
      <trkpt lat="43.66175" lon="3.79737">
        <ele>108.4</ele>
        <time>2017-05-21T08:10:15Z</time>
      </trkpt>
      <trkpt lat="43.66178" lon="3.79739">
        <ele>108.4</ele>
        <time>2017-05-21T08:10:16Z</time>
      </trkpt>
      <trkpt lat="43.66181" lon="3.79742">
        <ele>108.4</ele>
        <time>2017-05-21T08:10:17Z</time>
      </trkpt>
      <trkpt lat="43.66183" lon="3.79745">
        <ele>108.4</ele>
        <time>2017-05-21T08:10:18Z</time>
      </trkpt>
      <trkpt lat="43.66186" lon="3.79746">
        <ele>108.5</ele>
        <time>2017-05-21T08:10:19Z</time>
      </trkpt>
      <trkpt lat="43.66189" lon="3.79749">
        <ele>108.5</ele>
        <time>2017-05-21T08:10:20Z</time>
      </trkpt>
      <trkpt lat="43.66192" lon="3.79752">
        <ele>108.5</ele>
        <time>2017-05-21T08:10:21Z</time>
      </trkpt>
      <trkpt lat="43.66195" lon="3.79754">
        <ele>108.5</ele>
        <time>2017-05-21T08:10:22Z</time>
      </trkpt>
      <trkpt lat="43.66198" lon="3.79757">
        <ele>108.6</ele>
        <time>2017-05-21T08:10:23Z</time>
      </trkpt>
      <trkpt lat="43.66201" lon="3.79759">
        <ele>108.6</ele>
        <time>2017-05-21T08:10:24Z</time>
      </trkpt>
      <trkpt lat="43.66204" lon="3.79762">
        <ele>108.6</ele>
        <time>2017-05-21T08:10:25Z</time>
      </trkpt>
      <trkpt lat="43.66208" lon="3.79764">
        <ele>108.7</ele>
        <time>2017-05-21T08:10:26Z</time>
      </trkpt>
      <trkpt lat="43.6621" lon="3.79766">
        <ele>108.7</ele>
        <time>2017-05-21T08:10:27Z</time>
      </trkpt>
      <trkpt lat="43.66213" lon="3.79768">
        <ele>108.8</ele>
        <time>2017-05-21T08:10:28Z</time>
      </trkpt>
      <trkpt lat="43.66216" lon="3.7977">
        <ele>108.8</ele>
        <time>2017-05-21T08:10:29Z</time>
      </trkpt>
      <trkpt lat="43.66219" lon="3.79772">
        <ele>108.9</ele>
        <time>2017-05-21T08:10:30Z</time>
      </trkpt>
      <trkpt lat="43.66222" lon="3.79775">
        <ele>108.9</ele>
        <time>2017-05-21T08:10:31Z</time>
      </trkpt>
      <trkpt lat="43.66227" lon="3.79779">
        <ele>109.2</ele>
        <time>2017-05-21T08:10:33Z</time>
      </trkpt>
      <trkpt lat="43.6623" lon="3.79782">
        <ele>109.4</ele>
        <time>2017-05-21T08:10:34Z</time>
      </trkpt>
      <trkpt lat="43.66233" lon="3.79784">
        <ele>109.6</ele>
        <time>2017-05-21T08:10:35Z</time>
      </trkpt>
      <trkpt lat="43.66235" lon="3.79787">
        <ele>109.7</ele>
        <time>2017-05-21T08:10:36Z</time>
      </trkpt>
      <trkpt lat="43.66237" lon="3.79791">
        <ele>109.9</ele>
        <time>2017-05-21T08:10:37Z</time>
      </trkpt>
      <trkpt lat="43.6624" lon="3.79793">
        <ele>110</ele>
        <time>2017-05-21T08:10:38Z</time>
      </trkpt>
      <trkpt lat="43.66244" lon="3.79796">
        <ele>110.1</ele>
        <time>2017-05-21T08:10:39Z</time>
      </trkpt>
      <trkpt lat="43.66247" lon="3.79799">
        <ele>110.2</ele>
        <time>2017-05-21T08:10:40Z</time>
      </trkpt>
      <trkpt lat="43.6625" lon="3.79806">
        <ele>110.3</ele>
        <time>2017-05-21T08:10:42Z</time>
      </trkpt>
      <trkpt lat="43.66254" lon="3.79809">
        <ele>110.4</ele>
        <time>2017-05-21T08:10:43Z</time>
      </trkpt>
      <trkpt lat="43.66255" lon="3.79813">
        <ele>110.4</ele>
        <time>2017-05-21T08:10:44Z</time>
      </trkpt>
      <trkpt lat="43.66258" lon="3.79817">
        <ele>110.5</ele>
        <time>2017-05-21T08:10:45Z</time>
      </trkpt>
      <trkpt lat="43.66259" lon="3.79821">
        <ele>110.6</ele>
        <time>2017-05-21T08:10:46Z</time>
      </trkpt>
      <trkpt lat="43.6626" lon="3.79826">
        <ele>110.7</ele>
        <time>2017-05-21T08:10:47Z</time>
      </trkpt>
      <trkpt lat="43.66261" lon="3.7983">
        <ele>110.9</ele>
        <time>2017-05-21T08:10:48Z</time>
      </trkpt>
      <trkpt lat="43.66262" lon="3.79834">
        <ele>111</ele>
        <time>2017-05-21T08:10:49Z</time>
      </trkpt>
      <trkpt lat="43.66263" lon="3.79838">
        <ele>111.1</ele>
        <time>2017-05-21T08:10:50Z</time>
      </trkpt>
      <trkpt lat="43.66264" lon="3.79843">
        <ele>111.3</ele>
        <time>2017-05-21T08:10:51Z</time>
      </trkpt>
      <trkpt lat="43.66266" lon="3.79847">
        <ele>111.3</ele>
        <time>2017-05-21T08:10:52Z</time>
      </trkpt>
      <trkpt lat="43.66268" lon="3.79851">
        <ele>111.4</ele>
        <time>2017-05-21T08:10:53Z</time>
      </trkpt>
      <trkpt lat="43.66273" lon="3.79855">
        <ele>111.4</ele>
        <time>2017-05-21T08:10:54Z</time>
      </trkpt>
      <trkpt lat="43.66276" lon="3.79855">
        <ele>111.4</ele>
        <time>2017-05-21T08:10:55Z</time>
      </trkpt>
      <trkpt lat="43.66279" lon="3.79855">
        <ele>111.4</ele>
        <time>2017-05-21T08:10:56Z</time>
      </trkpt>
      <trkpt lat="43.66283" lon="3.79855">
        <ele>111.4</ele>
        <time>2017-05-21T08:10:57Z</time>
      </trkpt>
      <trkpt lat="43.66287" lon="3.79855">
        <ele>111.4</ele>
        <time>2017-05-21T08:10:58Z</time>
      </trkpt>
      <trkpt lat="43.6629" lon="3.79854">
        <ele>111.4</ele>
        <time>2017-05-21T08:10:59Z</time>
      </trkpt>
      <trkpt lat="43.66293" lon="3.79852">
        <ele>111.4</ele>
        <time>2017-05-21T08:11:00Z</time>
      </trkpt>
      <trkpt lat="43.66297" lon="3.79851">
        <ele>111.3</ele>
        <time>2017-05-21T08:11:01Z</time>
      </trkpt>
      <trkpt lat="43.66301" lon="3.79849">
        <ele>111.3</ele>
        <time>2017-05-21T08:11:02Z</time>
      </trkpt>
      <trkpt lat="43.66304" lon="3.79849">
        <ele>111.3</ele>
        <time>2017-05-21T08:11:03Z</time>
      </trkpt>
      <trkpt lat="43.66308" lon="3.79849">
        <ele>111.3</ele>
        <time>2017-05-21T08:11:04Z</time>
      </trkpt>
      <trkpt lat="43.66311" lon="3.7985">
        <ele>111.3</ele>
        <time>2017-05-21T08:11:05Z</time>
      </trkpt>
      <trkpt lat="43.66314" lon="3.79851">
        <ele>111.3</ele>
        <time>2017-05-21T08:11:06Z</time>
      </trkpt>
      <trkpt lat="43.66319" lon="3.79853">
        <ele>111.3</ele>
        <time>2017-05-21T08:11:08Z</time>
      </trkpt>
      <trkpt lat="43.66323" lon="3.79856">
        <ele>111.4</ele>
        <time>2017-05-21T08:11:09Z</time>
      </trkpt>
      <trkpt lat="43.66325" lon="3.79859">
        <ele>111.4</ele>
        <time>2017-05-21T08:11:10Z</time>
      </trkpt>
      <trkpt lat="43.66328" lon="3.7986">
        <ele>111.4</ele>
        <time>2017-05-21T08:11:11Z</time>
      </trkpt>
      <trkpt lat="43.66331" lon="3.79864">
        <ele>111.4</ele>
        <time>2017-05-21T08:11:12Z</time>
      </trkpt>
      <trkpt lat="43.66335" lon="3.79871">
        <ele>111.5</ele>
        <time>2017-05-21T08:11:14Z</time>
      </trkpt>
      <trkpt lat="43.66337" lon="3.79874">
        <ele>111.6</ele>
        <time>2017-05-21T08:11:15Z</time>
      </trkpt>
      <trkpt lat="43.66339" lon="3.79877">
        <ele>111.6</ele>
        <time>2017-05-21T08:11:16Z</time>
      </trkpt>
      <trkpt lat="43.66343" lon="3.79883">
        <ele>111.8</ele>
        <time>2017-05-21T08:11:18Z</time>
      </trkpt>
      <trkpt lat="43.66347" lon="3.79887">
        <ele>112.1</ele>
        <time>2017-05-21T08:11:19Z</time>
      </trkpt>
      <trkpt lat="43.66348" lon="3.7989">
        <ele>112.3</ele>
        <time>2017-05-21T08:11:20Z</time>
      </trkpt>
      <trkpt lat="43.66351" lon="3.79892">
        <ele>112.5</ele>
        <time>2017-05-21T08:11:21Z</time>
      </trkpt>
      <trkpt lat="43.66353" lon="3.79896">
        <ele>112.6</ele>
        <time>2017-05-21T08:11:22Z</time>
      </trkpt>
      <trkpt lat="43.66355" lon="3.799">
        <ele>112.7</ele>
        <time>2017-05-21T08:11:23Z</time>
      </trkpt>
      <trkpt lat="43.66357" lon="3.79904">
        <ele>112.8</ele>
        <time>2017-05-21T08:11:24Z</time>
      </trkpt>
      <trkpt lat="43.66359" lon="3.79909">
        <ele>112.9</ele>
        <time>2017-05-21T08:11:25Z</time>
      </trkpt>
      <trkpt lat="43.6636" lon="3.79913">
        <ele>113</ele>
        <time>2017-05-21T08:11:26Z</time>
      </trkpt>
      <trkpt lat="43.66361" lon="3.79917">
        <ele>113.1</ele>
        <time>2017-05-21T08:11:27Z</time>
      </trkpt>
      <trkpt lat="43.66363" lon="3.79921">
        <ele>113.2</ele>
        <time>2017-05-21T08:11:28Z</time>
      </trkpt>
      <trkpt lat="43.66365" lon="3.79926">
        <ele>113.3</ele>
        <time>2017-05-21T08:11:29Z</time>
      </trkpt>
      <trkpt lat="43.66366" lon="3.79931">
        <ele>113.4</ele>
        <time>2017-05-21T08:11:30Z</time>
      </trkpt>
      <trkpt lat="43.66367" lon="3.79935">
        <ele>113.6</ele>
        <time>2017-05-21T08:11:31Z</time>
      </trkpt>
      <trkpt lat="43.6637" lon="3.7994">
        <ele>113.8</ele>
        <time>2017-05-21T08:11:33Z</time>
      </trkpt>
      <trkpt lat="43.66372" lon="3.79945">
        <ele>114</ele>
        <time>2017-05-21T08:11:34Z</time>
      </trkpt>
      <trkpt lat="43.66376" lon="3.7995">
        <ele>114.1</ele>
        <time>2017-05-21T08:11:35Z</time>
      </trkpt>
      <trkpt lat="43.66379" lon="3.79952">
        <ele>114.2</ele>
        <time>2017-05-21T08:11:36Z</time>
      </trkpt>
      <trkpt lat="43.66383" lon="3.79955">
        <ele>114.2</ele>
        <time>2017-05-21T08:11:37Z</time>
      </trkpt>
      <trkpt lat="43.66387" lon="3.79958">
        <ele>114.2</ele>
        <time>2017-05-21T08:11:38Z</time>
      </trkpt>
      <trkpt lat="43.66391" lon="3.7996">
        <ele>114.2</ele>
        <time>2017-05-21T08:11:39Z</time>
      </trkpt>
      <trkpt lat="43.66395" lon="3.79961">
        <ele>114.2</ele>
        <time>2017-05-21T08:11:40Z</time>
      </trkpt>
      <trkpt lat="43.66398" lon="3.79962">
        <ele>114.2</ele>
        <time>2017-05-21T08:11:41Z</time>
      </trkpt>
      <trkpt lat="43.66402" lon="3.79964">
        <ele>114.2</ele>
        <time>2017-05-21T08:11:42Z</time>
      </trkpt>
      <trkpt lat="43.66406" lon="3.79967">
        <ele>114.2</ele>
        <time>2017-05-21T08:11:43Z</time>
      </trkpt>
      <trkpt lat="43.6641" lon="3.79968">
        <ele>114.2</ele>
        <time>2017-05-21T08:11:44Z</time>
      </trkpt>
      <trkpt lat="43.66414" lon="3.79971">
        <ele>114.1</ele>
        <time>2017-05-21T08:11:45Z</time>
      </trkpt>
      <trkpt lat="43.66419" lon="3.79973">
        <ele>114.1</ele>
        <time>2017-05-21T08:11:46Z</time>
      </trkpt>
      <trkpt lat="43.66424" lon="3.79976">
        <ele>114.1</ele>
        <time>2017-05-21T08:11:47Z</time>
      </trkpt>
      <trkpt lat="43.66426" lon="3.79978">
        <ele>114.1</ele>
        <time>2017-05-21T08:11:48Z</time>
      </trkpt>
      <trkpt lat="43.66431" lon="3.79979">
        <ele>114.1</ele>
        <time>2017-05-21T08:11:49Z</time>
      </trkpt>
      <trkpt lat="43.66436" lon="3.79981">
        <ele>114</ele>
        <time>2017-05-21T08:11:50Z</time>
      </trkpt>
      <trkpt lat="43.66439" lon="3.79984">
        <ele>114</ele>
        <time>2017-05-21T08:11:51Z</time>
      </trkpt>
      <trkpt lat="43.66443" lon="3.79987">
        <ele>113.9</ele>
        <time>2017-05-21T08:11:52Z</time>
      </trkpt>
      <trkpt lat="43.66446" lon="3.7999">
        <ele>113.9</ele>
        <time>2017-05-21T08:11:53Z</time>
      </trkpt>
      <trkpt lat="43.6645" lon="3.79992">
        <ele>113.9</ele>
        <time>2017-05-21T08:11:54Z</time>
      </trkpt>
      <trkpt lat="43.66455" lon="3.79995">
        <ele>113.8</ele>
        <time>2017-05-21T08:11:56Z</time>
      </trkpt>
      <trkpt lat="43.66457" lon="3.79998">
        <ele>113.8</ele>
        <time>2017-05-21T08:11:57Z</time>
      </trkpt>
      <trkpt lat="43.6646" lon="3.8">
        <ele>113.8</ele>
        <time>2017-05-21T08:11:58Z</time>
      </trkpt>
      <trkpt lat="43.66463" lon="3.80003">
        <ele>113.8</ele>
        <time>2017-05-21T08:11:59Z</time>
      </trkpt>
      <trkpt lat="43.66467" lon="3.80007">
        <ele>113.7</ele>
        <time>2017-05-21T08:12:00Z</time>
      </trkpt>
      <trkpt lat="43.66471" lon="3.8001">
        <ele>113.7</ele>
        <time>2017-05-21T08:12:01Z</time>
      </trkpt>
      <trkpt lat="43.66476" lon="3.80013">
        <ele>113.7</ele>
        <time>2017-05-21T08:12:02Z</time>
      </trkpt>
      <trkpt lat="43.6648" lon="3.80015">
        <ele>113.7</ele>
        <time>2017-05-21T08:12:03Z</time>
      </trkpt>
      <trkpt lat="43.66483" lon="3.80017">
        <ele>113.6</ele>
        <time>2017-05-21T08:12:04Z</time>
      </trkpt>
      <trkpt lat="43.66487" lon="3.80019">
        <ele>113.6</ele>
        <time>2017-05-21T08:12:05Z</time>
      </trkpt>
      <trkpt lat="43.6649" lon="3.8002">
        <ele>113.6</ele>
        <time>2017-05-21T08:12:06Z</time>
      </trkpt>
      <trkpt lat="43.66494" lon="3.80021">
        <ele>113.6</ele>
        <time>2017-05-21T08:12:07Z</time>
      </trkpt>
      <trkpt lat="43.66498" lon="3.80021">
        <ele>113.6</ele>
        <time>2017-05-21T08:12:08Z</time>
      </trkpt>
      <trkpt lat="43.66502" lon="3.80023">
        <ele>113.6</ele>
        <time>2017-05-21T08:12:09Z</time>
      </trkpt>
      <trkpt lat="43.66505" lon="3.80025">
        <ele>113.5</ele>
        <time>2017-05-21T08:12:10Z</time>
      </trkpt>
      <trkpt lat="43.66509" lon="3.80028">
        <ele>113.5</ele>
        <time>2017-05-21T08:12:11Z</time>
      </trkpt>
      <trkpt lat="43.66513" lon="3.8003">
        <ele>113.5</ele>
        <time>2017-05-21T08:12:12Z</time>
      </trkpt>
      <trkpt lat="43.66517" lon="3.80033">
        <ele>113.5</ele>
        <time>2017-05-21T08:12:13Z</time>
      </trkpt>
      <trkpt lat="43.6652" lon="3.80035">
        <ele>113.5</ele>
        <time>2017-05-21T08:12:14Z</time>
      </trkpt>
      <trkpt lat="43.66523" lon="3.80036">
        <ele>113.5</ele>
        <time>2017-05-21T08:12:15Z</time>
      </trkpt>
      <trkpt lat="43.66527" lon="3.80039">
        <ele>113.4</ele>
        <time>2017-05-21T08:12:16Z</time>
      </trkpt>
      <trkpt lat="43.66531" lon="3.80045">
        <ele>113.4</ele>
        <time>2017-05-21T08:12:17Z</time>
      </trkpt>
      <trkpt lat="43.66534" lon="3.80048">
        <ele>113.4</ele>
        <time>2017-05-21T08:12:18Z</time>
      </trkpt>
      <trkpt lat="43.66539" lon="3.80049">
        <ele>113.4</ele>
        <time>2017-05-21T08:12:19Z</time>
      </trkpt>
      <trkpt lat="43.66543" lon="3.80053">
        <ele>113.3</ele>
        <time>2017-05-21T08:12:20Z</time>
      </trkpt>
      <trkpt lat="43.66546" lon="3.80056">
        <ele>113.3</ele>
        <time>2017-05-21T08:12:21Z</time>
      </trkpt>
      <trkpt lat="43.66551" lon="3.80061">
        <ele>113.3</ele>
        <time>2017-05-21T08:12:22Z</time>
      </trkpt>
      <trkpt lat="43.66555" lon="3.80064">
        <ele>113.3</ele>
        <time>2017-05-21T08:12:23Z</time>
      </trkpt>
      <trkpt lat="43.66558" lon="3.80067">
        <ele>113.3</ele>
        <time>2017-05-21T08:12:24Z</time>
      </trkpt>
      <trkpt lat="43.66561" lon="3.80072">
        <ele>113.3</ele>
        <time>2017-05-21T08:12:25Z</time>
      </trkpt>
      <trkpt lat="43.66565" lon="3.80075">
        <ele>113.3</ele>
        <time>2017-05-21T08:12:26Z</time>
      </trkpt>
      <trkpt lat="43.66568" lon="3.80079">
        <ele>113.4</ele>
        <time>2017-05-21T08:12:27Z</time>
      </trkpt>
      <trkpt lat="43.66571" lon="3.80082">
        <ele>113.4</ele>
        <time>2017-05-21T08:12:28Z</time>
      </trkpt>
      <trkpt lat="43.66574" lon="3.80083">
        <ele>113.4</ele>
        <time>2017-05-21T08:12:29Z</time>
      </trkpt>
      <trkpt lat="43.66578" lon="3.80087">
        <ele>113.4</ele>
        <time>2017-05-21T08:12:30Z</time>
      </trkpt>
      <trkpt lat="43.66581" lon="3.80091">
        <ele>113.4</ele>
        <time>2017-05-21T08:12:31Z</time>
      </trkpt>
      <trkpt lat="43.66584" lon="3.80094">
        <ele>113.4</ele>
        <time>2017-05-21T08:12:32Z</time>
      </trkpt>
      <trkpt lat="43.66588" lon="3.80097">
        <ele>113.5</ele>
        <time>2017-05-21T08:12:33Z</time>
      </trkpt>
      <trkpt lat="43.66591" lon="3.80101">
        <ele>113.5</ele>
        <time>2017-05-21T08:12:34Z</time>
      </trkpt>
      <trkpt lat="43.66594" lon="3.80104">
        <ele>113.6</ele>
        <time>2017-05-21T08:12:35Z</time>
      </trkpt>
      <trkpt lat="43.66597" lon="3.80107">
        <ele>113.6</ele>
        <time>2017-05-21T08:12:36Z</time>
      </trkpt>
      <trkpt lat="43.666" lon="3.80112">
        <ele>113.8</ele>
        <time>2017-05-21T08:12:38Z</time>
      </trkpt>
      <trkpt lat="43.66605" lon="3.80118">
        <ele>114</ele>
        <time>2017-05-21T08:12:40Z</time>
      </trkpt>
      <trkpt lat="43.66609" lon="3.80122">
        <ele>114.2</ele>
        <time>2017-05-21T08:12:41Z</time>
      </trkpt>
      <trkpt lat="43.66612" lon="3.80126">
        <ele>114.3</ele>
        <time>2017-05-21T08:12:42Z</time>
      </trkpt>
      <trkpt lat="43.66616" lon="3.80131">
        <ele>114.4</ele>
        <time>2017-05-21T08:12:43Z</time>
      </trkpt>
      <trkpt lat="43.6662" lon="3.80135">
        <ele>114.4</ele>
        <time>2017-05-21T08:12:44Z</time>
      </trkpt>
      <trkpt lat="43.66625" lon="3.80139">
        <ele>114.4</ele>
        <time>2017-05-21T08:12:45Z</time>
      </trkpt>
      <trkpt lat="43.66628" lon="3.80139">
        <ele>114.4</ele>
        <time>2017-05-21T08:12:46Z</time>
      </trkpt>
      <trkpt lat="43.66634" lon="3.8014">
        <ele>114.5</ele>
        <time>2017-05-21T08:12:47Z</time>
      </trkpt>
      <trkpt lat="43.66637" lon="3.8014">
        <ele>114.5</ele>
        <time>2017-05-21T08:12:48Z</time>
      </trkpt>
      <trkpt lat="43.6664" lon="3.80138">
        <ele>114.4</ele>
        <time>2017-05-21T08:12:49Z</time>
      </trkpt>
      <trkpt lat="43.66644" lon="3.80139">
        <ele>114.4</ele>
        <time>2017-05-21T08:12:50Z</time>
      </trkpt>
      <trkpt lat="43.66648" lon="3.80141">
        <ele>114.4</ele>
        <time>2017-05-21T08:12:51Z</time>
      </trkpt>
      <trkpt lat="43.66652" lon="3.80142">
        <ele>114.4</ele>
        <time>2017-05-21T08:12:53Z</time>
      </trkpt>
      <trkpt lat="43.66658" lon="3.80144">
        <ele>114.4</ele>
        <time>2017-05-21T08:12:55Z</time>
      </trkpt>
      <trkpt lat="43.66661" lon="3.80146">
        <ele>114.4</ele>
        <time>2017-05-21T08:12:56Z</time>
      </trkpt>
      <trkpt lat="43.66665" lon="3.80147">
        <ele>114.4</ele>
        <time>2017-05-21T08:12:57Z</time>
      </trkpt>
      <trkpt lat="43.6667" lon="3.80148">
        <ele>114.4</ele>
        <time>2017-05-21T08:12:58Z</time>
      </trkpt>
      <trkpt lat="43.66674" lon="3.8015">
        <ele>114.4</ele>
        <time>2017-05-21T08:12:59Z</time>
      </trkpt>
      <trkpt lat="43.66678" lon="3.80151">
        <ele>114.3</ele>
        <time>2017-05-21T08:13:00Z</time>
      </trkpt>
      <trkpt lat="43.66681" lon="3.80156">
        <ele>114.3</ele>
        <time>2017-05-21T08:13:01Z</time>
      </trkpt>
      <trkpt lat="43.66683" lon="3.80159">
        <ele>114.3</ele>
        <time>2017-05-21T08:13:02Z</time>
      </trkpt>
      <trkpt lat="43.66687" lon="3.80161">
        <ele>114.3</ele>
        <time>2017-05-21T08:13:03Z</time>
      </trkpt>
      <trkpt lat="43.66692" lon="3.80164">
        <ele>114.4</ele>
        <time>2017-05-21T08:13:04Z</time>
      </trkpt>
      <trkpt lat="43.66696" lon="3.80165">
        <ele>114.4</ele>
        <time>2017-05-21T08:13:05Z</time>
      </trkpt>
      <trkpt lat="43.66701" lon="3.80167">
        <ele>114.5</ele>
        <time>2017-05-21T08:13:06Z</time>
      </trkpt>
      <trkpt lat="43.66705" lon="3.80168">
        <ele>114.5</ele>
        <time>2017-05-21T08:13:07Z</time>
      </trkpt>
      <trkpt lat="43.66707" lon="3.80169">
        <ele>114.6</ele>
        <time>2017-05-21T08:13:08Z</time>
      </trkpt>
      <trkpt lat="43.66711" lon="3.80171">
        <ele>114.7</ele>
        <time>2017-05-21T08:13:09Z</time>
      </trkpt>
      <trkpt lat="43.66713" lon="3.80173">
        <ele>114.8</ele>
        <time>2017-05-21T08:13:10Z</time>
      </trkpt>
      <trkpt lat="43.66716" lon="3.80176">
        <ele>114.9</ele>
        <time>2017-05-21T08:13:11Z</time>
      </trkpt>
      <trkpt lat="43.66718" lon="3.80177">
        <ele>115</ele>
        <time>2017-05-21T08:13:12Z</time>
      </trkpt>
      <trkpt lat="43.66721" lon="3.80179">
        <ele>115.2</ele>
        <time>2017-05-21T08:13:13Z</time>
      </trkpt>
      <trkpt lat="43.66727" lon="3.80179">
        <ele>115.5</ele>
        <time>2017-05-21T08:13:14Z</time>
      </trkpt>
      <trkpt lat="43.66729" lon="3.80181">
        <ele>115.6</ele>
        <time>2017-05-21T08:13:15Z</time>
      </trkpt>
      <trkpt lat="43.66732" lon="3.80182">
        <ele>115.6</ele>
        <time>2017-05-21T08:13:16Z</time>
      </trkpt>
      <trkpt lat="43.66736" lon="3.80186">
        <ele>115.8</ele>
        <time>2017-05-21T08:13:18Z</time>
      </trkpt>
      <trkpt lat="43.66741" lon="3.80191">
        <ele>115.9</ele>
        <time>2017-05-21T08:13:21Z</time>
      </trkpt>
      <trkpt lat="43.66745" lon="3.80192">
        <ele>116.1</ele>
        <time>2017-05-21T08:13:23Z</time>
      </trkpt>
      <trkpt lat="43.6675" lon="3.80195">
        <ele>116.2</ele>
        <time>2017-05-21T08:13:25Z</time>
      </trkpt>
      <trkpt lat="43.66754" lon="3.80199">
        <ele>116.5</ele>
        <time>2017-05-21T08:13:26Z</time>
      </trkpt>
      <trkpt lat="43.66756" lon="3.802">
        <ele>116.6</ele>
        <time>2017-05-21T08:13:27Z</time>
      </trkpt>
      <trkpt lat="43.66759" lon="3.80201">
        <ele>116.8</ele>
        <time>2017-05-21T08:13:28Z</time>
      </trkpt>
      <trkpt lat="43.66762" lon="3.80203">
        <ele>117</ele>
        <time>2017-05-21T08:13:29Z</time>
      </trkpt>
      <trkpt lat="43.66764" lon="3.80206">
        <ele>117.1</ele>
        <time>2017-05-21T08:13:30Z</time>
      </trkpt>
      <trkpt lat="43.66766" lon="3.80209">
        <ele>117.3</ele>
        <time>2017-05-21T08:13:31Z</time>
      </trkpt>
      <trkpt lat="43.6677" lon="3.80212">
        <ele>117.4</ele>
        <time>2017-05-21T08:13:33Z</time>
      </trkpt>
      <trkpt lat="43.66774" lon="3.80214">
        <ele>117.5</ele>
        <time>2017-05-21T08:13:34Z</time>
      </trkpt>
      <trkpt lat="43.66777" lon="3.80216">
        <ele>117.6</ele>
        <time>2017-05-21T08:13:35Z</time>
      </trkpt>
      <trkpt lat="43.66782" lon="3.80218">
        <ele>117.8</ele>
        <time>2017-05-21T08:13:37Z</time>
      </trkpt>
      <trkpt lat="43.66785" lon="3.8022">
        <ele>117.9</ele>
        <time>2017-05-21T08:13:38Z</time>
      </trkpt>
      <trkpt lat="43.66788" lon="3.80221">
        <ele>118</ele>
        <time>2017-05-21T08:13:39Z</time>
      </trkpt>
      <trkpt lat="43.6679" lon="3.80221">
        <ele>118.2</ele>
        <time>2017-05-21T08:13:40Z</time>
      </trkpt>
      <trkpt lat="43.66796" lon="3.80222">
        <ele>118.6</ele>
        <time>2017-05-21T08:13:41Z</time>
      </trkpt>
      <trkpt lat="43.668" lon="3.80223">
        <ele>118.8</ele>
        <time>2017-05-21T08:13:42Z</time>
      </trkpt>
      <trkpt lat="43.66804" lon="3.80223">
        <ele>118.9</ele>
        <time>2017-05-21T08:13:43Z</time>
      </trkpt>
      <trkpt lat="43.66808" lon="3.80222">
        <ele>119</ele>
        <time>2017-05-21T08:13:44Z</time>
      </trkpt>
      <trkpt lat="43.66811" lon="3.80222">
        <ele>119</ele>
        <time>2017-05-21T08:13:45Z</time>
      </trkpt>
      <trkpt lat="43.66814" lon="3.80222">
        <ele>119.1</ele>
        <time>2017-05-21T08:13:46Z</time>
      </trkpt>
      <trkpt lat="43.66819" lon="3.8022">
        <ele>119.2</ele>
        <time>2017-05-21T08:13:48Z</time>
      </trkpt>
      <trkpt lat="43.66821" lon="3.80218">
        <ele>119.3</ele>
        <time>2017-05-21T08:13:49Z</time>
      </trkpt>
      <trkpt lat="43.66825" lon="3.80217">
        <ele>119.4</ele>
        <time>2017-05-21T08:13:50Z</time>
      </trkpt>
      <trkpt lat="43.66829" lon="3.80215">
        <ele>119.5</ele>
        <time>2017-05-21T08:13:52Z</time>
      </trkpt>
      <trkpt lat="43.66831" lon="3.80214">
        <ele>119.6</ele>
        <time>2017-05-21T08:13:53Z</time>
      </trkpt>
      <trkpt lat="43.66834" lon="3.80213">
        <ele>119.7</ele>
        <time>2017-05-21T08:13:54Z</time>
      </trkpt>
      <trkpt lat="43.66837" lon="3.80212">
        <ele>119.9</ele>
        <time>2017-05-21T08:13:55Z</time>
      </trkpt>
      <trkpt lat="43.6684" lon="3.80211">
        <ele>120</ele>
        <time>2017-05-21T08:13:56Z</time>
      </trkpt>
      <trkpt lat="43.66846" lon="3.80211">
        <ele>120.4</ele>
        <time>2017-05-21T08:13:58Z</time>
      </trkpt>
      <trkpt lat="43.66851" lon="3.80213">
        <ele>120.6</ele>
        <time>2017-05-21T08:14:00Z</time>
      </trkpt>
      <trkpt lat="43.66854" lon="3.80213">
        <ele>120.7</ele>
        <time>2017-05-21T08:14:01Z</time>
      </trkpt>
      <trkpt lat="43.66858" lon="3.80214">
        <ele>120.9</ele>
        <time>2017-05-21T08:14:03Z</time>
      </trkpt>
      <trkpt lat="43.66863" lon="3.80215">
        <ele>121</ele>
        <time>2017-05-21T08:14:05Z</time>
      </trkpt>
      <trkpt lat="43.66867" lon="3.80217">
        <ele>121.1</ele>
        <time>2017-05-21T08:14:07Z</time>
      </trkpt>
      <trkpt lat="43.6687" lon="3.80217">
        <ele>121.2</ele>
        <time>2017-05-21T08:14:08Z</time>
      </trkpt>
      <trkpt lat="43.66875" lon="3.80219">
        <ele>121.3</ele>
        <time>2017-05-21T08:14:10Z</time>
      </trkpt>
      <trkpt lat="43.66881" lon="3.80222">
        <ele>121.8</ele>
        <time>2017-05-21T08:14:12Z</time>
      </trkpt>
      <trkpt lat="43.66884" lon="3.80223">
        <ele>122.1</ele>
        <time>2017-05-21T08:14:13Z</time>
      </trkpt>
      <trkpt lat="43.66887" lon="3.80227">
        <ele>122.4</ele>
        <time>2017-05-21T08:14:14Z</time>
      </trkpt>
      <trkpt lat="43.6689" lon="3.80229">
        <ele>122.7</ele>
        <time>2017-05-21T08:14:15Z</time>
      </trkpt>
      <trkpt lat="43.66893" lon="3.8023">
        <ele>122.9</ele>
        <time>2017-05-21T08:14:16Z</time>
      </trkpt>
      <trkpt lat="43.66896" lon="3.80232">
        <ele>123.2</ele>
        <time>2017-05-21T08:14:17Z</time>
      </trkpt>
      <trkpt lat="43.669" lon="3.80236">
        <ele>123.5</ele>
        <time>2017-05-21T08:14:19Z</time>
      </trkpt>
      <trkpt lat="43.66902" lon="3.80237">
        <ele>123.7</ele>
        <time>2017-05-21T08:14:20Z</time>
      </trkpt>
      <trkpt lat="43.66905" lon="3.80239">
        <ele>123.7</ele>
        <time>2017-05-21T08:14:21Z</time>
      </trkpt>
      <trkpt lat="43.66909" lon="3.80242">
        <ele>123.8</ele>
        <time>2017-05-21T08:14:23Z</time>
      </trkpt>
      <trkpt lat="43.66912" lon="3.80244">
        <ele>123.8</ele>
        <time>2017-05-21T08:14:24Z</time>
      </trkpt>
      <trkpt lat="43.66913" lon="3.80249">
        <ele>123.9</ele>
        <time>2017-05-21T08:14:26Z</time>
      </trkpt>
      <trkpt lat="43.66911" lon="3.80252">
        <ele>123.9</ele>
        <time>2017-05-21T08:14:28Z</time>
      </trkpt>
      <trkpt lat="43.66908" lon="3.80251">
        <ele>123.8</ele>
        <time>2017-05-21T08:14:30Z</time>
      </trkpt>
      <trkpt lat="43.66905" lon="3.8025">
        <ele>123.7</ele>
        <time>2017-05-21T08:14:33Z</time>
      </trkpt>
      <trkpt lat="43.66901" lon="3.80248">
        <ele>123.7</ele>
        <time>2017-05-21T08:14:36Z</time>
      </trkpt>
      <trkpt lat="43.66897" lon="3.80246">
        <ele>123.6</ele>
        <time>2017-05-21T08:14:38Z</time>
      </trkpt>
      <trkpt lat="43.66893" lon="3.80245">
        <ele>123.5</ele>
        <time>2017-05-21T08:14:40Z</time>
      </trkpt>
      <trkpt lat="43.6689" lon="3.80245">
        <ele>123.4</ele>
        <time>2017-05-21T08:14:41Z</time>
      </trkpt>
      <trkpt lat="43.66885" lon="3.80245">
        <ele>123.3</ele>
        <time>2017-05-21T08:14:43Z</time>
      </trkpt>
      <trkpt lat="43.6688" lon="3.80244">
        <ele>123.2</ele>
        <time>2017-05-21T08:14:45Z</time>
      </trkpt>
      <trkpt lat="43.66875" lon="3.80244">
        <ele>123.2</ele>
        <time>2017-05-21T08:14:47Z</time>
      </trkpt>
      <trkpt lat="43.66873" lon="3.80246">
        <ele>123.2</ele>
        <time>2017-05-21T08:14:49Z</time>
      </trkpt>
      <trkpt lat="43.66868" lon="3.80248">
        <ele>123.2</ele>
        <time>2017-05-21T08:14:51Z</time>
      </trkpt>
      <trkpt lat="43.66865" lon="3.80247">
        <ele>123.2</ele>
        <time>2017-05-21T08:14:52Z</time>
      </trkpt>
      <trkpt lat="43.66862" lon="3.80249">
        <ele>123.2</ele>
        <time>2017-05-21T08:14:53Z</time>
      </trkpt>
      <trkpt lat="43.66859" lon="3.80251">
        <ele>123.2</ele>
        <time>2017-05-21T08:14:54Z</time>
      </trkpt>
      <trkpt lat="43.66856" lon="3.80252">
        <ele>123.3</ele>
        <time>2017-05-21T08:14:55Z</time>
      </trkpt>
      <trkpt lat="43.66853" lon="3.80254">
        <ele>123.4</ele>
        <time>2017-05-21T08:14:56Z</time>
      </trkpt>
      <trkpt lat="43.66851" lon="3.80257">
        <ele>123.6</ele>
        <time>2017-05-21T08:14:57Z</time>
      </trkpt>
      <trkpt lat="43.66848" lon="3.80259">
        <ele>123.7</ele>
        <time>2017-05-21T08:14:58Z</time>
      </trkpt>
      <trkpt lat="43.66845" lon="3.80261">
        <ele>123.9</ele>
        <time>2017-05-21T08:14:59Z</time>
      </trkpt>
      <trkpt lat="43.66842" lon="3.80262">
        <ele>124.2</ele>
        <time>2017-05-21T08:15:00Z</time>
      </trkpt>
      <trkpt lat="43.66839" lon="3.80263">
        <ele>124.4</ele>
        <time>2017-05-21T08:15:01Z</time>
      </trkpt>
      <trkpt lat="43.66836" lon="3.80266">
        <ele>124.7</ele>
        <time>2017-05-21T08:15:02Z</time>
      </trkpt>
      <trkpt lat="43.66832" lon="3.8027">
        <ele>125</ele>
        <time>2017-05-21T08:15:04Z</time>
      </trkpt>
      <trkpt lat="43.66829" lon="3.80272">
        <ele>125.2</ele>
        <time>2017-05-21T08:15:05Z</time>
      </trkpt>
      <trkpt lat="43.66825" lon="3.80273">
        <ele>125.5</ele>
        <time>2017-05-21T08:15:06Z</time>
      </trkpt>
      <trkpt lat="43.66822" lon="3.80274">
        <ele>125.7</ele>
        <time>2017-05-21T08:15:07Z</time>
      </trkpt>
      <trkpt lat="43.66819" lon="3.80275">
        <ele>125.8</ele>
        <time>2017-05-21T08:15:08Z</time>
      </trkpt>
      <trkpt lat="43.66814" lon="3.80277">
        <ele>126</ele>
        <time>2017-05-21T08:15:10Z</time>
      </trkpt>
      <trkpt lat="43.66811" lon="3.80278">
        <ele>126.2</ele>
        <time>2017-05-21T08:15:12Z</time>
      </trkpt>
      <trkpt lat="43.66807" lon="3.80278">
        <ele>126.3</ele>
        <time>2017-05-21T08:15:13Z</time>
      </trkpt>
      <trkpt lat="43.66803" lon="3.80277">
        <ele>126.3</ele>
        <time>2017-05-21T08:15:15Z</time>
      </trkpt>
      <trkpt lat="43.668" lon="3.80276">
        <ele>126.4</ele>
        <time>2017-05-21T08:15:18Z</time>
      </trkpt>
      <trkpt lat="43.66795" lon="3.80276">
        <ele>126.5</ele>
        <time>2017-05-21T08:15:20Z</time>
      </trkpt>
      <trkpt lat="43.66792" lon="3.80277">
        <ele>126.6</ele>
        <time>2017-05-21T08:15:21Z</time>
      </trkpt>
      <trkpt lat="43.66788" lon="3.80277">
        <ele>126.6</ele>
        <time>2017-05-21T08:15:23Z</time>
      </trkpt>
      <trkpt lat="43.66785" lon="3.80276">
        <ele>126.6</ele>
        <time>2017-05-21T08:15:24Z</time>
      </trkpt>
      <trkpt lat="43.6678" lon="3.80275">
        <ele>126.7</ele>
        <time>2017-05-21T08:15:26Z</time>
      </trkpt>
      <trkpt lat="43.66777" lon="3.80275">
        <ele>126.7</ele>
        <time>2017-05-21T08:15:27Z</time>
      </trkpt>
      <trkpt lat="43.66771" lon="3.80275">
        <ele>126.8</ele>
        <time>2017-05-21T08:15:29Z</time>
      </trkpt>
      <trkpt lat="43.66767" lon="3.80274">
        <ele>126.8</ele>
        <time>2017-05-21T08:15:30Z</time>
      </trkpt>
      <trkpt lat="43.66764" lon="3.80273">
        <ele>126.9</ele>
        <time>2017-05-21T08:15:31Z</time>
      </trkpt>
      <trkpt lat="43.66759" lon="3.80276">
        <ele>127</ele>
        <time>2017-05-21T08:15:33Z</time>
      </trkpt>
      <trkpt lat="43.66754" lon="3.80276">
        <ele>127</ele>
        <time>2017-05-21T08:15:34Z</time>
      </trkpt>
      <trkpt lat="43.66744" lon="3.80273">
        <ele>127.2</ele>
        <time>2017-05-21T08:15:35Z</time>
      </trkpt>
      <trkpt lat="43.66741" lon="3.80274">
        <ele>127.3</ele>
        <time>2017-05-21T08:15:36Z</time>
      </trkpt>
      <trkpt lat="43.66736" lon="3.80276">
        <ele>127.4</ele>
        <time>2017-05-21T08:15:38Z</time>
      </trkpt>
      <trkpt lat="43.66732" lon="3.80276">
        <ele>127.5</ele>
        <time>2017-05-21T08:15:39Z</time>
      </trkpt>
      <trkpt lat="43.6673" lon="3.80277">
        <ele>127.5</ele>
        <time>2017-05-21T08:15:40Z</time>
      </trkpt>
      <trkpt lat="43.66725" lon="3.80278">
        <ele>127.6</ele>
        <time>2017-05-21T08:15:42Z</time>
      </trkpt>
      <trkpt lat="43.66722" lon="3.80276">
        <ele>127.7</ele>
        <time>2017-05-21T08:15:43Z</time>
      </trkpt>
      <trkpt lat="43.66718" lon="3.80276">
        <ele>127.8</ele>
        <time>2017-05-21T08:15:44Z</time>
      </trkpt>
      <trkpt lat="43.66714" lon="3.80277">
        <ele>128</ele>
        <time>2017-05-21T08:15:46Z</time>
      </trkpt>
      <trkpt lat="43.6671" lon="3.80278">
        <ele>128.1</ele>
        <time>2017-05-21T08:15:48Z</time>
      </trkpt>
      <trkpt lat="43.66707" lon="3.80279">
        <ele>128.2</ele>
        <time>2017-05-21T08:15:50Z</time>
      </trkpt>
      <trkpt lat="43.66705" lon="3.80284">
        <ele>128.4</ele>
        <time>2017-05-21T08:15:54Z</time>
      </trkpt>
      <trkpt lat="43.66701" lon="3.80283">
        <ele>128.6</ele>
        <time>2017-05-21T08:17:32Z</time>
      </trkpt>
      <trkpt lat="43.66698" lon="3.80282">
        <ele>128.7</ele>
        <time>2017-05-21T08:17:37Z</time>
      </trkpt>
      <trkpt lat="43.66694" lon="3.80282">
        <ele>128.9</ele>
        <time>2017-05-21T08:17:41Z</time>
      </trkpt>
      <trkpt lat="43.6669" lon="3.80281">
        <ele>129.1</ele>
        <time>2017-05-21T08:17:44Z</time>
      </trkpt>
      <trkpt lat="43.66685" lon="3.8028">
        <ele>129.3</ele>
        <time>2017-05-21T08:17:46Z</time>
      </trkpt>
      <trkpt lat="43.66681" lon="3.80279">
        <ele>129.5</ele>
        <time>2017-05-21T08:17:48Z</time>
      </trkpt>
      <trkpt lat="43.66678" lon="3.80278">
        <ele>129.6</ele>
        <time>2017-05-21T08:17:49Z</time>
      </trkpt>
      <trkpt lat="43.66675" lon="3.80278">
        <ele>129.8</ele>
        <time>2017-05-21T08:17:51Z</time>
      </trkpt>
      <trkpt lat="43.66669" lon="3.80276">
        <ele>130</ele>
        <time>2017-05-21T08:17:53Z</time>
      </trkpt>
      <trkpt lat="43.66666" lon="3.80275">
        <ele>130.2</ele>
        <time>2017-05-21T08:17:54Z</time>
      </trkpt>
      <trkpt lat="43.66661" lon="3.80275">
        <ele>130.5</ele>
        <time>2017-05-21T08:17:56Z</time>
      </trkpt>
      <trkpt lat="43.66658" lon="3.80274">
        <ele>130.7</ele>
        <time>2017-05-21T08:17:57Z</time>
      </trkpt>
      <trkpt lat="43.66652" lon="3.80273">
        <ele>131</ele>
        <time>2017-05-21T08:17:59Z</time>
      </trkpt>
      <trkpt lat="43.66649" lon="3.80272">
        <ele>131.1</ele>
        <time>2017-05-21T08:18:00Z</time>
      </trkpt>
      <trkpt lat="43.66645" lon="3.80272">
        <ele>131.3</ele>
        <time>2017-05-21T08:18:01Z</time>
      </trkpt>
      <trkpt lat="43.66642" lon="3.80272">
        <ele>131.5</ele>
        <time>2017-05-21T08:18:03Z</time>
      </trkpt>
      <trkpt lat="43.66639" lon="3.80272">
        <ele>131.7</ele>
        <time>2017-05-21T08:18:04Z</time>
      </trkpt>
      <trkpt lat="43.66635" lon="3.80274">
        <ele>131.9</ele>
        <time>2017-05-21T08:18:06Z</time>
      </trkpt>
      <trkpt lat="43.66631" lon="3.80276">
        <ele>132.1</ele>
        <time>2017-05-21T08:18:08Z</time>
      </trkpt>
      <trkpt lat="43.66628" lon="3.80277">
        <ele>132.3</ele>
        <time>2017-05-21T08:18:09Z</time>
      </trkpt>
      <trkpt lat="43.66623" lon="3.80278">
        <ele>132.6</ele>
        <time>2017-05-21T08:18:11Z</time>
      </trkpt>
      <trkpt lat="43.6662" lon="3.80279">
        <ele>132.7</ele>
        <time>2017-05-21T08:18:12Z</time>
      </trkpt>
      <trkpt lat="43.66616" lon="3.80279">
        <ele>132.9</ele>
        <time>2017-05-21T08:18:13Z</time>
      </trkpt>
      <trkpt lat="43.66614" lon="3.8028">
        <ele>133.1</ele>
        <time>2017-05-21T08:18:14Z</time>
      </trkpt>
      <trkpt lat="43.66611" lon="3.80281">
        <ele>133.2</ele>
        <time>2017-05-21T08:18:15Z</time>
      </trkpt>
      <trkpt lat="43.66607" lon="3.80282">
        <ele>133.4</ele>
        <time>2017-05-21T08:18:17Z</time>
      </trkpt>
      <trkpt lat="43.66602" lon="3.80283">
        <ele>133.7</ele>
        <time>2017-05-21T08:18:19Z</time>
      </trkpt>
      <trkpt lat="43.66599" lon="3.80281">
        <ele>133.8</ele>
        <time>2017-05-21T08:18:20Z</time>
      </trkpt>
      <trkpt lat="43.66596" lon="3.8028">
        <ele>134</ele>
        <time>2017-05-21T08:18:21Z</time>
      </trkpt>
      <trkpt lat="43.66592" lon="3.80278">
        <ele>134</ele>
        <time>2017-05-21T08:18:22Z</time>
      </trkpt>
      <trkpt lat="43.66586" lon="3.80275">
        <ele>134.1</ele>
        <time>2017-05-21T08:18:24Z</time>
      </trkpt>
      <trkpt lat="43.66583" lon="3.80273">
        <ele>134.2</ele>
        <time>2017-05-21T08:18:25Z</time>
      </trkpt>
      <trkpt lat="43.66581" lon="3.8027">
        <ele>134.2</ele>
        <time>2017-05-21T08:18:26Z</time>
      </trkpt>
      <trkpt lat="43.66579" lon="3.80265">
        <ele>134.2</ele>
        <time>2017-05-21T08:18:27Z</time>
      </trkpt>
      <trkpt lat="43.66577" lon="3.80261">
        <ele>134.3</ele>
        <time>2017-05-21T08:18:28Z</time>
      </trkpt>
      <trkpt lat="43.66575" lon="3.80258">
        <ele>134.3</ele>
        <time>2017-05-21T08:18:29Z</time>
      </trkpt>
      <trkpt lat="43.66571" lon="3.80254">
        <ele>134.4</ele>
        <time>2017-05-21T08:18:31Z</time>
      </trkpt>
      <trkpt lat="43.66568" lon="3.80249">
        <ele>134.5</ele>
        <time>2017-05-21T08:18:32Z</time>
      </trkpt>
      <trkpt lat="43.66564" lon="3.80245">
        <ele>134.5</ele>
        <time>2017-05-21T08:18:33Z</time>
      </trkpt>
      <trkpt lat="43.66559" lon="3.8024">
        <ele>134.6</ele>
        <time>2017-05-21T08:18:34Z</time>
      </trkpt>
      <trkpt lat="43.66556" lon="3.80237">
        <ele>134.7</ele>
        <time>2017-05-21T08:18:35Z</time>
      </trkpt>
      <trkpt lat="43.66553" lon="3.80234">
        <ele>134.7</ele>
        <time>2017-05-21T08:18:36Z</time>
      </trkpt>
      <trkpt lat="43.6655" lon="3.80231">
        <ele>134.8</ele>
        <time>2017-05-21T08:18:37Z</time>
      </trkpt>
      <trkpt lat="43.66547" lon="3.80228">
        <ele>134.8</ele>
        <time>2017-05-21T08:18:38Z</time>
      </trkpt>
      <trkpt lat="43.66545" lon="3.80224">
        <ele>134.9</ele>
        <time>2017-05-21T08:18:39Z</time>
      </trkpt>
      <trkpt lat="43.66542" lon="3.80222">
        <ele>134.9</ele>
        <time>2017-05-21T08:18:40Z</time>
      </trkpt>
      <trkpt lat="43.66539" lon="3.8022">
        <ele>135</ele>
        <time>2017-05-21T08:18:41Z</time>
      </trkpt>
      <trkpt lat="43.66536" lon="3.80218">
        <ele>135</ele>
        <time>2017-05-21T08:18:42Z</time>
      </trkpt>
      <trkpt lat="43.66533" lon="3.80216">
        <ele>135.1</ele>
        <time>2017-05-21T08:18:43Z</time>
      </trkpt>
      <trkpt lat="43.6653" lon="3.80216">
        <ele>135.2</ele>
        <time>2017-05-21T08:18:44Z</time>
      </trkpt>
      <trkpt lat="43.66528" lon="3.80213">
        <ele>135.2</ele>
        <time>2017-05-21T08:18:45Z</time>
      </trkpt>
      <trkpt lat="43.66524" lon="3.80212">
        <ele>135.3</ele>
        <time>2017-05-21T08:18:46Z</time>
      </trkpt>
      <trkpt lat="43.66521" lon="3.8021">
        <ele>135.4</ele>
        <time>2017-05-21T08:18:47Z</time>
      </trkpt>
      <trkpt lat="43.66518" lon="3.80208">
        <ele>135.5</ele>
        <time>2017-05-21T08:18:48Z</time>
      </trkpt>
      <trkpt lat="43.66514" lon="3.80206">
        <ele>135.6</ele>
        <time>2017-05-21T08:18:50Z</time>
      </trkpt>
      <trkpt lat="43.66511" lon="3.80203">
        <ele>135.7</ele>
        <time>2017-05-21T08:18:51Z</time>
      </trkpt>
      <trkpt lat="43.66507" lon="3.80203">
        <ele>136</ele>
        <time>2017-05-21T08:18:52Z</time>
      </trkpt>
      <trkpt lat="43.66505" lon="3.80201">
        <ele>136</ele>
        <time>2017-05-21T08:18:53Z</time>
      </trkpt>
      <trkpt lat="43.66502" lon="3.80199">
        <ele>136.1</ele>
        <time>2017-05-21T08:18:54Z</time>
      </trkpt>
      <trkpt lat="43.66499" lon="3.80198">
        <ele>136.1</ele>
        <time>2017-05-21T08:18:55Z</time>
      </trkpt>
      <trkpt lat="43.66494" lon="3.80195">
        <ele>136.2</ele>
        <time>2017-05-21T08:18:57Z</time>
      </trkpt>
      <trkpt lat="43.66491" lon="3.80194">
        <ele>136.2</ele>
        <time>2017-05-21T08:18:58Z</time>
      </trkpt>
      <trkpt lat="43.66486" lon="3.80191">
        <ele>136.3</ele>
        <time>2017-05-21T08:19:00Z</time>
      </trkpt>
      <trkpt lat="43.66483" lon="3.8019">
        <ele>136.4</ele>
        <time>2017-05-21T08:19:01Z</time>
      </trkpt>
      <trkpt lat="43.66478" lon="3.80186">
        <ele>136.5</ele>
        <time>2017-05-21T08:19:03Z</time>
      </trkpt>
      <trkpt lat="43.66476" lon="3.80184">
        <ele>136.6</ele>
        <time>2017-05-21T08:19:04Z</time>
      </trkpt>
      <trkpt lat="43.6647" lon="3.80182">
        <ele>137</ele>
        <time>2017-05-21T08:19:06Z</time>
      </trkpt>
      <trkpt lat="43.66465" lon="3.80179">
        <ele>137.3</ele>
        <time>2017-05-21T08:19:08Z</time>
      </trkpt>
      <trkpt lat="43.66463" lon="3.80177">
        <ele>137.3</ele>
        <time>2017-05-21T08:19:09Z</time>
      </trkpt>
      <trkpt lat="43.6646" lon="3.80175">
        <ele>137.4</ele>
        <time>2017-05-21T08:19:11Z</time>
      </trkpt>
      <trkpt lat="43.66458" lon="3.80172">
        <ele>137.5</ele>
        <time>2017-05-21T08:19:12Z</time>
      </trkpt>
      <trkpt lat="43.66454" lon="3.8017">
        <ele>137.6</ele>
        <time>2017-05-21T08:19:14Z</time>
      </trkpt>
      <trkpt lat="43.66451" lon="3.80169">
        <ele>137.7</ele>
        <time>2017-05-21T08:19:15Z</time>
      </trkpt>
      <trkpt lat="43.66445" lon="3.80166">
        <ele>137.9</ele>
        <time>2017-05-21T08:19:17Z</time>
      </trkpt>
      <trkpt lat="43.66442" lon="3.80167">
        <ele>138</ele>
        <time>2017-05-21T08:19:18Z</time>
      </trkpt>
      <trkpt lat="43.66439" lon="3.80165">
        <ele>138.3</ele>
        <time>2017-05-21T08:19:19Z</time>
      </trkpt>
      <trkpt lat="43.66435" lon="3.80164">
        <ele>138.6</ele>
        <time>2017-05-21T08:19:21Z</time>
      </trkpt>
      <trkpt lat="43.66431" lon="3.80164">
        <ele>138.9</ele>
        <time>2017-05-21T08:19:23Z</time>
      </trkpt>
      <trkpt lat="43.66425" lon="3.80162">
        <ele>139.1</ele>
        <time>2017-05-21T08:19:25Z</time>
      </trkpt>
      <trkpt lat="43.66423" lon="3.80161">
        <ele>139.2</ele>
        <time>2017-05-21T08:19:26Z</time>
      </trkpt>
      <trkpt lat="43.6642" lon="3.8016">
        <ele>139.2</ele>
        <time>2017-05-21T08:19:27Z</time>
      </trkpt>
      <trkpt lat="43.66416" lon="3.80159">
        <ele>139.3</ele>
        <time>2017-05-21T08:19:28Z</time>
      </trkpt>
      <trkpt lat="43.66413" lon="3.80157">
        <ele>139.4</ele>
        <time>2017-05-21T08:19:29Z</time>
      </trkpt>
      <trkpt lat="43.6641" lon="3.80157">
        <ele>139.4</ele>
        <time>2017-05-21T08:19:31Z</time>
      </trkpt>
      <trkpt lat="43.66405" lon="3.80156">
        <ele>139.5</ele>
        <time>2017-05-21T08:19:33Z</time>
      </trkpt>
      <trkpt lat="43.664" lon="3.80154">
        <ele>139.7</ele>
        <time>2017-05-21T08:19:35Z</time>
      </trkpt>
      <trkpt lat="43.66394" lon="3.80153">
        <ele>139.9</ele>
        <time>2017-05-21T08:19:37Z</time>
      </trkpt>
      <trkpt lat="43.66391" lon="3.80154">
        <ele>140.1</ele>
        <time>2017-05-21T08:19:39Z</time>
      </trkpt>
      <trkpt lat="43.66388" lon="3.80156">
        <ele>140.3</ele>
        <time>2017-05-21T08:19:41Z</time>
      </trkpt>
      <trkpt lat="43.66382" lon="3.80156">
        <ele>140.6</ele>
        <time>2017-05-21T08:19:43Z</time>
      </trkpt>
      <trkpt lat="43.66377" lon="3.80154">
        <ele>140.7</ele>
        <time>2017-05-21T08:19:44Z</time>
      </trkpt>
      <trkpt lat="43.66373" lon="3.80154">
        <ele>140.7</ele>
        <time>2017-05-21T08:19:45Z</time>
      </trkpt>
      <trkpt lat="43.66368" lon="3.80153">
        <ele>140.8</ele>
        <time>2017-05-21T08:19:46Z</time>
      </trkpt>
      <trkpt lat="43.66364" lon="3.80153">
        <ele>140.9</ele>
        <time>2017-05-21T08:19:48Z</time>
      </trkpt>
      <trkpt lat="43.6636" lon="3.80153">
        <ele>140.9</ele>
        <time>2017-05-21T08:19:49Z</time>
      </trkpt>
      <trkpt lat="43.66355" lon="3.80152">
        <ele>141.1</ele>
        <time>2017-05-21T08:19:51Z</time>
      </trkpt>
      <trkpt lat="43.6635" lon="3.80151">
        <ele>141.2</ele>
        <time>2017-05-21T08:19:53Z</time>
      </trkpt>
      <trkpt lat="43.66347" lon="3.80152">
        <ele>141.3</ele>
        <time>2017-05-21T08:19:54Z</time>
      </trkpt>
      <trkpt lat="43.6634" lon="3.80149">
        <ele>141.8</ele>
        <time>2017-05-21T08:19:55Z</time>
      </trkpt>
      <trkpt lat="43.66335" lon="3.80148">
        <ele>142.1</ele>
        <time>2017-05-21T08:19:56Z</time>
      </trkpt>
      <trkpt lat="43.66327" lon="3.80148">
        <ele>142.3</ele>
        <time>2017-05-21T08:19:58Z</time>
      </trkpt>
      <trkpt lat="43.66324" lon="3.80148">
        <ele>142.3</ele>
        <time>2017-05-21T08:19:59Z</time>
      </trkpt>
      <trkpt lat="43.6632" lon="3.80149">
        <ele>142.4</ele>
        <time>2017-05-21T08:20:00Z</time>
      </trkpt>
      <trkpt lat="43.66317" lon="3.8015">
        <ele>142.5</ele>
        <time>2017-05-21T08:20:01Z</time>
      </trkpt>
      <trkpt lat="43.66314" lon="3.80153">
        <ele>142.6</ele>
        <time>2017-05-21T08:20:03Z</time>
      </trkpt>
      <trkpt lat="43.66312" lon="3.80155">
        <ele>142.7</ele>
        <time>2017-05-21T08:20:05Z</time>
      </trkpt>
      <trkpt lat="43.66308" lon="3.80156">
        <ele>142.8</ele>
        <time>2017-05-21T08:20:06Z</time>
      </trkpt>
      <trkpt lat="43.66302" lon="3.80159">
        <ele>143</ele>
        <time>2017-05-21T08:20:08Z</time>
      </trkpt>
      <trkpt lat="43.663" lon="3.80161">
        <ele>143.1</ele>
        <time>2017-05-21T08:20:09Z</time>
      </trkpt>
      <trkpt lat="43.66297" lon="3.80162">
        <ele>143.3</ele>
        <time>2017-05-21T08:20:10Z</time>
      </trkpt>
      <trkpt lat="43.66293" lon="3.80163">
        <ele>143.5</ele>
        <time>2017-05-21T08:20:11Z</time>
      </trkpt>
      <trkpt lat="43.6629" lon="3.80165">
        <ele>143.6</ele>
        <time>2017-05-21T08:20:12Z</time>
      </trkpt>
      <trkpt lat="43.66283" lon="3.80168">
        <ele>143.9</ele>
        <time>2017-05-21T08:20:14Z</time>
      </trkpt>
      <trkpt lat="43.66281" lon="3.80171">
        <ele>143.9</ele>
        <time>2017-05-21T08:20:15Z</time>
      </trkpt>
      <trkpt lat="43.66278" lon="3.80174">
        <ele>144</ele>
        <time>2017-05-21T08:20:16Z</time>
      </trkpt>
      <trkpt lat="43.66274" lon="3.80176">
        <ele>144.1</ele>
        <time>2017-05-21T08:20:17Z</time>
      </trkpt>
      <trkpt lat="43.66271" lon="3.80179">
        <ele>144.2</ele>
        <time>2017-05-21T08:20:18Z</time>
      </trkpt>
      <trkpt lat="43.66269" lon="3.80182">
        <ele>144.3</ele>
        <time>2017-05-21T08:20:19Z</time>
      </trkpt>
      <trkpt lat="43.66265" lon="3.80185">
        <ele>144.4</ele>
        <time>2017-05-21T08:20:20Z</time>
      </trkpt>
      <trkpt lat="43.66262" lon="3.80186">
        <ele>144.5</ele>
        <time>2017-05-21T08:20:21Z</time>
      </trkpt>
      <trkpt lat="43.6626" lon="3.8019">
        <ele>144.7</ele>
        <time>2017-05-21T08:20:22Z</time>
      </trkpt>
      <trkpt lat="43.66257" lon="3.80192">
        <ele>144.9</ele>
        <time>2017-05-21T08:20:23Z</time>
      </trkpt>
      <trkpt lat="43.66254" lon="3.80195">
        <ele>145.1</ele>
        <time>2017-05-21T08:20:24Z</time>
      </trkpt>
      <trkpt lat="43.66251" lon="3.80196">
        <ele>145.2</ele>
        <time>2017-05-21T08:20:25Z</time>
      </trkpt>
      <trkpt lat="43.66248" lon="3.80198">
        <ele>145.3</ele>
        <time>2017-05-21T08:20:26Z</time>
      </trkpt>
      <trkpt lat="43.66245" lon="3.80199">
        <ele>145.4</ele>
        <time>2017-05-21T08:20:27Z</time>
      </trkpt>
      <trkpt lat="43.66241" lon="3.80201">
        <ele>145.4</ele>
        <time>2017-05-21T08:20:29Z</time>
      </trkpt>
      <trkpt lat="43.66236" lon="3.80204">
        <ele>145.5</ele>
        <time>2017-05-21T08:20:31Z</time>
      </trkpt>
      <trkpt lat="43.66232" lon="3.80203">
        <ele>145.5</ele>
        <time>2017-05-21T08:20:32Z</time>
      </trkpt>
      <trkpt lat="43.66231" lon="3.80207">
        <ele>145.5</ele>
        <time>2017-05-21T08:20:34Z</time>
      </trkpt>
      <trkpt lat="43.66228" lon="3.80209">
        <ele>145.5</ele>
        <time>2017-05-21T08:20:35Z</time>
      </trkpt>
      <trkpt lat="43.66223" lon="3.80212">
        <ele>145.6</ele>
        <time>2017-05-21T08:20:37Z</time>
      </trkpt>
      <trkpt lat="43.6622" lon="3.80214">
        <ele>145.6</ele>
        <time>2017-05-21T08:20:38Z</time>
      </trkpt>
      <trkpt lat="43.66214" lon="3.80213">
        <ele>145.6</ele>
        <time>2017-05-21T08:20:39Z</time>
      </trkpt>
      <trkpt lat="43.66208" lon="3.80212">
        <ele>145.6</ele>
        <time>2017-05-21T08:20:40Z</time>
      </trkpt>
      <trkpt lat="43.66205" lon="3.80213">
        <ele>145.6</ele>
        <time>2017-05-21T08:20:41Z</time>
      </trkpt>
      <trkpt lat="43.66201" lon="3.80213">
        <ele>145.6</ele>
        <time>2017-05-21T08:20:42Z</time>
      </trkpt>
      <trkpt lat="43.66197" lon="3.80214">
        <ele>145.6</ele>
        <time>2017-05-21T08:20:43Z</time>
      </trkpt>
      <trkpt lat="43.66194" lon="3.80215">
        <ele>145.5</ele>
        <time>2017-05-21T08:20:44Z</time>
      </trkpt>
      <trkpt lat="43.66188" lon="3.80215">
        <ele>145.5</ele>
        <time>2017-05-21T08:20:45Z</time>
      </trkpt>
      <trkpt lat="43.66183" lon="3.80215">
        <ele>145.5</ele>
        <time>2017-05-21T08:20:46Z</time>
      </trkpt>
      <trkpt lat="43.66179" lon="3.80216">
        <ele>145.5</ele>
        <time>2017-05-21T08:20:47Z</time>
      </trkpt>
      <trkpt lat="43.66175" lon="3.80216">
        <ele>145.5</ele>
        <time>2017-05-21T08:20:48Z</time>
      </trkpt>
      <trkpt lat="43.66172" lon="3.80217">
        <ele>145.5</ele>
        <time>2017-05-21T08:20:49Z</time>
      </trkpt>
      <trkpt lat="43.66166" lon="3.80218">
        <ele>145.4</ele>
        <time>2017-05-21T08:20:51Z</time>
      </trkpt>
      <trkpt lat="43.66161" lon="3.80218">
        <ele>145.4</ele>
        <time>2017-05-21T08:20:52Z</time>
      </trkpt>
      <trkpt lat="43.66157" lon="3.80218">
        <ele>145.3</ele>
        <time>2017-05-21T08:20:53Z</time>
      </trkpt>
      <trkpt lat="43.66151" lon="3.8022">
        <ele>145.3</ele>
        <time>2017-05-21T08:20:55Z</time>
      </trkpt>
      <trkpt lat="43.66147" lon="3.80221">
        <ele>145.3</ele>
        <time>2017-05-21T08:20:56Z</time>
      </trkpt>
      <trkpt lat="43.66143" lon="3.80221">
        <ele>145.3</ele>
        <time>2017-05-21T08:20:57Z</time>
      </trkpt>
      <trkpt lat="43.66139" lon="3.80221">
        <ele>145.2</ele>
        <time>2017-05-21T08:20:58Z</time>
      </trkpt>
      <trkpt lat="43.66136" lon="3.80221">
        <ele>145.2</ele>
        <time>2017-05-21T08:20:59Z</time>
      </trkpt>
      <trkpt lat="43.66132" lon="3.80222">
        <ele>145.1</ele>
        <time>2017-05-21T08:21:00Z</time>
      </trkpt>
      <trkpt lat="43.66129" lon="3.80223">
        <ele>145.1</ele>
        <time>2017-05-21T08:21:01Z</time>
      </trkpt>
      <trkpt lat="43.66125" lon="3.80222">
        <ele>145</ele>
        <time>2017-05-21T08:21:02Z</time>
      </trkpt>
      <trkpt lat="43.66121" lon="3.80221">
        <ele>145</ele>
        <time>2017-05-21T08:21:03Z</time>
      </trkpt>
      <trkpt lat="43.66117" lon="3.80221">
        <ele>145</ele>
        <time>2017-05-21T08:21:04Z</time>
      </trkpt>
      <trkpt lat="43.66114" lon="3.8022">
        <ele>144.9</ele>
        <time>2017-05-21T08:21:05Z</time>
      </trkpt>
      <trkpt lat="43.66109" lon="3.80222">
        <ele>144.9</ele>
        <time>2017-05-21T08:21:07Z</time>
      </trkpt>
      <trkpt lat="43.66107" lon="3.80228">
        <ele>144.9</ele>
        <time>2017-05-21T08:21:09Z</time>
      </trkpt>
      <trkpt lat="43.66108" lon="3.80232">
        <ele>145.2</ele>
        <time>2017-05-21T08:21:10Z</time>
      </trkpt>
      <trkpt lat="43.66109" lon="3.80238">
        <ele>145.4</ele>
        <time>2017-05-21T08:21:12Z</time>
      </trkpt>
      <trkpt lat="43.6611" lon="3.80242">
        <ele>145.6</ele>
        <time>2017-05-21T08:21:13Z</time>
      </trkpt>
      <trkpt lat="43.66111" lon="3.80247">
        <ele>145.8</ele>
        <time>2017-05-21T08:21:14Z</time>
      </trkpt>
      <trkpt lat="43.66112" lon="3.80251">
        <ele>146</ele>
        <time>2017-05-21T08:21:15Z</time>
      </trkpt>
      <trkpt lat="43.66114" lon="3.80255">
        <ele>146.1</ele>
        <time>2017-05-21T08:21:16Z</time>
      </trkpt>
      <trkpt lat="43.66116" lon="3.80259">
        <ele>146.1</ele>
        <time>2017-05-21T08:21:17Z</time>
      </trkpt>
      <trkpt lat="43.66119" lon="3.80264">
        <ele>146.1</ele>
        <time>2017-05-21T08:21:19Z</time>
      </trkpt>
      <trkpt lat="43.66122" lon="3.80267">
        <ele>146.1</ele>
        <time>2017-05-21T08:21:20Z</time>
      </trkpt>
      <trkpt lat="43.66125" lon="3.80269">
        <ele>146.1</ele>
        <time>2017-05-21T08:21:21Z</time>
      </trkpt>
      <trkpt lat="43.66126" lon="3.80274">
        <ele>146.1</ele>
        <time>2017-05-21T08:21:22Z</time>
      </trkpt>
      <trkpt lat="43.66128" lon="3.80278">
        <ele>146.2</ele>
        <time>2017-05-21T08:21:23Z</time>
      </trkpt>
      <trkpt lat="43.66131" lon="3.80282">
        <ele>146.3</ele>
        <time>2017-05-21T08:21:24Z</time>
      </trkpt>
      <trkpt lat="43.66133" lon="3.80286">
        <ele>146.3</ele>
        <time>2017-05-21T08:21:25Z</time>
      </trkpt>
      <trkpt lat="43.66135" lon="3.80289">
        <ele>146.4</ele>
        <time>2017-05-21T08:21:26Z</time>
      </trkpt>
      <trkpt lat="43.66137" lon="3.80293">
        <ele>146.5</ele>
        <time>2017-05-21T08:21:27Z</time>
      </trkpt>
      <trkpt lat="43.6614" lon="3.80298">
        <ele>146.5</ele>
        <time>2017-05-21T08:21:28Z</time>
      </trkpt>
      <trkpt lat="43.66143" lon="3.80303">
        <ele>146.6</ele>
        <time>2017-05-21T08:21:29Z</time>
      </trkpt>
      <trkpt lat="43.66145" lon="3.80307">
        <ele>146.5</ele>
        <time>2017-05-21T08:21:30Z</time>
      </trkpt>
      <trkpt lat="43.66146" lon="3.80312">
        <ele>146.3</ele>
        <time>2017-05-21T08:21:31Z</time>
      </trkpt>
      <trkpt lat="43.66148" lon="3.80318">
        <ele>146.2</ele>
        <time>2017-05-21T08:21:32Z</time>
      </trkpt>
      <trkpt lat="43.66148" lon="3.80324">
        <ele>145.9</ele>
        <time>2017-05-21T08:21:33Z</time>
      </trkpt>
      <trkpt lat="43.66148" lon="3.8033">
        <ele>145.6</ele>
        <time>2017-05-21T08:21:34Z</time>
      </trkpt>
      <trkpt lat="43.66148" lon="3.80336">
        <ele>145.4</ele>
        <time>2017-05-21T08:21:35Z</time>
      </trkpt>
      <trkpt lat="43.66149" lon="3.80345">
        <ele>145.2</ele>
        <time>2017-05-21T08:21:36Z</time>
      </trkpt>
      <trkpt lat="43.66149" lon="3.80351">
        <ele>145</ele>
        <time>2017-05-21T08:21:37Z</time>
      </trkpt>
      <trkpt lat="43.66148" lon="3.80356">
        <ele>145</ele>
        <time>2017-05-21T08:21:38Z</time>
      </trkpt>
      <trkpt lat="43.66146" lon="3.8036">
        <ele>144.9</ele>
        <time>2017-05-21T08:21:39Z</time>
      </trkpt>
      <trkpt lat="43.66145" lon="3.80364">
        <ele>144.9</ele>
        <time>2017-05-21T08:21:40Z</time>
      </trkpt>
      <trkpt lat="43.66143" lon="3.80368">
        <ele>144.9</ele>
        <time>2017-05-21T08:21:41Z</time>
      </trkpt>
      <trkpt lat="43.66141" lon="3.80373">
        <ele>144.9</ele>
        <time>2017-05-21T08:21:42Z</time>
      </trkpt>
      <trkpt lat="43.66139" lon="3.80378">
        <ele>145</ele>
        <time>2017-05-21T08:21:43Z</time>
      </trkpt>
      <trkpt lat="43.66137" lon="3.80383">
        <ele>145.1</ele>
        <time>2017-05-21T08:21:44Z</time>
      </trkpt>
      <trkpt lat="43.66137" lon="3.80388">
        <ele>145.1</ele>
        <time>2017-05-21T08:21:45Z</time>
      </trkpt>
      <trkpt lat="43.66136" lon="3.80393">
        <ele>145.2</ele>
        <time>2017-05-21T08:21:46Z</time>
      </trkpt>
      <trkpt lat="43.66135" lon="3.804">
        <ele>145.2</ele>
        <time>2017-05-21T08:21:47Z</time>
      </trkpt>
      <trkpt lat="43.66136" lon="3.80405">
        <ele>145.2</ele>
        <time>2017-05-21T08:21:48Z</time>
      </trkpt>
      <trkpt lat="43.66136" lon="3.80411">
        <ele>145.3</ele>
        <time>2017-05-21T08:21:49Z</time>
      </trkpt>
      <trkpt lat="43.66137" lon="3.80417">
        <ele>145.3</ele>
        <time>2017-05-21T08:21:50Z</time>
      </trkpt>
      <trkpt lat="43.66136" lon="3.80424">
        <ele>145.3</ele>
        <time>2017-05-21T08:21:51Z</time>
      </trkpt>
      <trkpt lat="43.66132" lon="3.8043">
        <ele>145.4</ele>
        <time>2017-05-21T08:21:52Z</time>
      </trkpt>
      <trkpt lat="43.66129" lon="3.80434">
        <ele>145.5</ele>
        <time>2017-05-21T08:21:53Z</time>
      </trkpt>
      <trkpt lat="43.66125" lon="3.80437">
        <ele>145.6</ele>
        <time>2017-05-21T08:21:54Z</time>
      </trkpt>
      <trkpt lat="43.66121" lon="3.80439">
        <ele>145.7</ele>
        <time>2017-05-21T08:21:55Z</time>
      </trkpt>
      <trkpt lat="43.66116" lon="3.8044">
        <ele>145.7</ele>
        <time>2017-05-21T08:21:56Z</time>
      </trkpt>
      <trkpt lat="43.66111" lon="3.80441">
        <ele>145.6</ele>
        <time>2017-05-21T08:21:57Z</time>
      </trkpt>
      <trkpt lat="43.66106" lon="3.80442">
        <ele>145.3</ele>
        <time>2017-05-21T08:21:58Z</time>
      </trkpt>
      <trkpt lat="43.66101" lon="3.80443">
        <ele>144.8</ele>
        <time>2017-05-21T08:21:59Z</time>
      </trkpt>
      <trkpt lat="43.66097" lon="3.80443">
        <ele>144.5</ele>
        <time>2017-05-21T08:22:00Z</time>
      </trkpt>
      <trkpt lat="43.66092" lon="3.80442">
        <ele>144.3</ele>
        <time>2017-05-21T08:22:01Z</time>
      </trkpt>
      <trkpt lat="43.66088" lon="3.80442">
        <ele>143.9</ele>
        <time>2017-05-21T08:22:02Z</time>
      </trkpt>
      <trkpt lat="43.66083" lon="3.80442">
        <ele>143.8</ele>
        <time>2017-05-21T08:22:03Z</time>
      </trkpt>
      <trkpt lat="43.66079" lon="3.8044">
        <ele>143.6</ele>
        <time>2017-05-21T08:22:04Z</time>
      </trkpt>
      <trkpt lat="43.66074" lon="3.80439">
        <ele>143.7</ele>
        <time>2017-05-21T08:22:05Z</time>
      </trkpt>
      <trkpt lat="43.66068" lon="3.80439">
        <ele>143.9</ele>
        <time>2017-05-21T08:22:07Z</time>
      </trkpt>
      <trkpt lat="43.66064" lon="3.80438">
        <ele>144.3</ele>
        <time>2017-05-21T08:22:08Z</time>
      </trkpt>
      <trkpt lat="43.66057" lon="3.80436">
        <ele>144.7</ele>
        <time>2017-05-21T08:22:09Z</time>
      </trkpt>
      <trkpt lat="43.66052" lon="3.80436">
        <ele>145</ele>
        <time>2017-05-21T08:22:10Z</time>
      </trkpt>
      <trkpt lat="43.66047" lon="3.80437">
        <ele>145.4</ele>
        <time>2017-05-21T08:22:11Z</time>
      </trkpt>
      <trkpt lat="43.66042" lon="3.80436">
        <ele>145.5</ele>
        <time>2017-05-21T08:22:12Z</time>
      </trkpt>
      <trkpt lat="43.66036" lon="3.80435">
        <ele>145.7</ele>
        <time>2017-05-21T08:22:13Z</time>
      </trkpt>
      <trkpt lat="43.66032" lon="3.80435">
        <ele>145.9</ele>
        <time>2017-05-21T08:22:14Z</time>
      </trkpt>
      <trkpt lat="43.66026" lon="3.80436">
        <ele>146.2</ele>
        <time>2017-05-21T08:22:15Z</time>
      </trkpt>
      <trkpt lat="43.66022" lon="3.80437">
        <ele>146.3</ele>
        <time>2017-05-21T08:22:16Z</time>
      </trkpt>
      <trkpt lat="43.66017" lon="3.80437">
        <ele>146.2</ele>
        <time>2017-05-21T08:22:17Z</time>
      </trkpt>
      <trkpt lat="43.66012" lon="3.80438">
        <ele>146.2</ele>
        <time>2017-05-21T08:22:18Z</time>
      </trkpt>
      <trkpt lat="43.66007" lon="3.80439">
        <ele>146</ele>
        <time>2017-05-21T08:22:19Z</time>
      </trkpt>
      <trkpt lat="43.66002" lon="3.80439">
        <ele>145.8</ele>
        <time>2017-05-21T08:22:20Z</time>
      </trkpt>
      <trkpt lat="43.65997" lon="3.8044">
        <ele>145.6</ele>
        <time>2017-05-21T08:22:21Z</time>
      </trkpt>
      <trkpt lat="43.65992" lon="3.80439">
        <ele>145.4</ele>
        <time>2017-05-21T08:22:22Z</time>
      </trkpt>
      <trkpt lat="43.65987" lon="3.80438">
        <ele>145.2</ele>
        <time>2017-05-21T08:22:23Z</time>
      </trkpt>
      <trkpt lat="43.65982" lon="3.80437">
        <ele>145</ele>
        <time>2017-05-21T08:22:24Z</time>
      </trkpt>
      <trkpt lat="43.65978" lon="3.80436">
        <ele>144.9</ele>
        <time>2017-05-21T08:22:25Z</time>
      </trkpt>
      <trkpt lat="43.65974" lon="3.80435">
        <ele>144.8</ele>
        <time>2017-05-21T08:22:26Z</time>
      </trkpt>
      <trkpt lat="43.65969" lon="3.80436">
        <ele>144.8</ele>
        <time>2017-05-21T08:22:27Z</time>
      </trkpt>
      <trkpt lat="43.65966" lon="3.80439">
        <ele>144.7</ele>
        <time>2017-05-21T08:22:28Z</time>
      </trkpt>
      <trkpt lat="43.65964" lon="3.80442">
        <ele>144.7</ele>
        <time>2017-05-21T08:22:29Z</time>
      </trkpt>
      <trkpt lat="43.6596" lon="3.80444">
        <ele>144.7</ele>
        <time>2017-05-21T08:22:30Z</time>
      </trkpt>
      <trkpt lat="43.65957" lon="3.80444">
        <ele>144.7</ele>
        <time>2017-05-21T08:22:31Z</time>
      </trkpt>
      <trkpt lat="43.65954" lon="3.80441">
        <ele>144.8</ele>
        <time>2017-05-21T08:22:32Z</time>
      </trkpt>
      <trkpt lat="43.65952" lon="3.80438">
        <ele>144.9</ele>
        <time>2017-05-21T08:22:33Z</time>
      </trkpt>
      <trkpt lat="43.6595" lon="3.80434">
        <ele>144.9</ele>
        <time>2017-05-21T08:22:34Z</time>
      </trkpt>
      <trkpt lat="43.65948" lon="3.80429">
        <ele>145</ele>
        <time>2017-05-21T08:22:35Z</time>
      </trkpt>
      <trkpt lat="43.65946" lon="3.80425">
        <ele>145</ele>
        <time>2017-05-21T08:22:36Z</time>
      </trkpt>
      <trkpt lat="43.65943" lon="3.80419">
        <ele>145</ele>
        <time>2017-05-21T08:22:37Z</time>
      </trkpt>
      <trkpt lat="43.65941" lon="3.80414">
        <ele>145.1</ele>
        <time>2017-05-21T08:22:38Z</time>
      </trkpt>
      <trkpt lat="43.65938" lon="3.80409">
        <ele>145.1</ele>
        <time>2017-05-21T08:22:39Z</time>
      </trkpt>
      <trkpt lat="43.65935" lon="3.80402">
        <ele>145.2</ele>
        <time>2017-05-21T08:22:40Z</time>
      </trkpt>
      <trkpt lat="43.65932" lon="3.80397">
        <ele>145.1</ele>
        <time>2017-05-21T08:22:41Z</time>
      </trkpt>
      <trkpt lat="43.65928" lon="3.80394">
        <ele>144.9</ele>
        <time>2017-05-21T08:22:42Z</time>
      </trkpt>
      <trkpt lat="43.65925" lon="3.80395">
        <ele>144.9</ele>
        <time>2017-05-21T08:22:43Z</time>
      </trkpt>
      <trkpt lat="43.65922" lon="3.80398">
        <ele>144.9</ele>
        <time>2017-05-21T08:22:44Z</time>
      </trkpt>
      <trkpt lat="43.6592" lon="3.80401">
        <ele>144.9</ele>
        <time>2017-05-21T08:22:45Z</time>
      </trkpt>
      <trkpt lat="43.65918" lon="3.80403">
        <ele>144.9</ele>
        <time>2017-05-21T08:22:46Z</time>
      </trkpt>
      <trkpt lat="43.65916" lon="3.80406">
        <ele>145</ele>
        <time>2017-05-21T08:22:47Z</time>
      </trkpt>
      <trkpt lat="43.65913" lon="3.80409">
        <ele>145</ele>
        <time>2017-05-21T08:22:48Z</time>
      </trkpt>
      <trkpt lat="43.65911" lon="3.80413">
        <ele>145</ele>
        <time>2017-05-21T08:22:49Z</time>
      </trkpt>
      <trkpt lat="43.65908" lon="3.80418">
        <ele>145.1</ele>
        <time>2017-05-21T08:22:50Z</time>
      </trkpt>
      <trkpt lat="43.65906" lon="3.80421">
        <ele>145.1</ele>
        <time>2017-05-21T08:22:51Z</time>
      </trkpt>
      <trkpt lat="43.65905" lon="3.80425">
        <ele>145.1</ele>
        <time>2017-05-21T08:22:52Z</time>
      </trkpt>
      <trkpt lat="43.65903" lon="3.80429">
        <ele>145</ele>
        <time>2017-05-21T08:22:53Z</time>
      </trkpt>
      <trkpt lat="43.65899" lon="3.80434">
        <ele>144.6</ele>
        <time>2017-05-21T08:22:55Z</time>
      </trkpt>
      <trkpt lat="43.65896" lon="3.80436">
        <ele>144.3</ele>
        <time>2017-05-21T08:22:56Z</time>
      </trkpt>
      <trkpt lat="43.65892" lon="3.80434">
        <ele>144.2</ele>
        <time>2017-05-21T08:22:58Z</time>
      </trkpt>
      <trkpt lat="43.65888" lon="3.80428">
        <ele>144.2</ele>
        <time>2017-05-21T08:23:00Z</time>
      </trkpt>
      <trkpt lat="43.65884" lon="3.80425">
        <ele>144.1</ele>
        <time>2017-05-21T08:23:01Z</time>
      </trkpt>
      <trkpt lat="43.65881" lon="3.80423">
        <ele>143.9</ele>
        <time>2017-05-21T08:23:02Z</time>
      </trkpt>
      <trkpt lat="43.65879" lon="3.80419">
        <ele>143.8</ele>
        <time>2017-05-21T08:23:03Z</time>
      </trkpt>
      <trkpt lat="43.65874" lon="3.80414">
        <ele>143.4</ele>
        <time>2017-05-21T08:23:05Z</time>
      </trkpt>
      <trkpt lat="43.65872" lon="3.80411">
        <ele>143.4</ele>
        <time>2017-05-21T08:23:06Z</time>
      </trkpt>
      <trkpt lat="43.65868" lon="3.80408">
        <ele>143</ele>
        <time>2017-05-21T08:23:07Z</time>
      </trkpt>
      <trkpt lat="43.65865" lon="3.80406">
        <ele>143.1</ele>
        <time>2017-05-21T08:23:08Z</time>
      </trkpt>
      <trkpt lat="43.65861" lon="3.80402">
        <ele>142.7</ele>
        <time>2017-05-21T08:23:09Z</time>
      </trkpt>
      <trkpt lat="43.65858" lon="3.804">
        <ele>142.7</ele>
        <time>2017-05-21T08:23:10Z</time>
      </trkpt>
      <trkpt lat="43.65855" lon="3.80397">
        <ele>142.9</ele>
        <time>2017-05-21T08:23:11Z</time>
      </trkpt>
      <trkpt lat="43.6585" lon="3.80392">
        <ele>143</ele>
        <time>2017-05-21T08:23:13Z</time>
      </trkpt>
      <trkpt lat="43.65847" lon="3.8039">
        <ele>143</ele>
        <time>2017-05-21T08:23:14Z</time>
      </trkpt>
      <trkpt lat="43.65844" lon="3.80387">
        <ele>143.1</ele>
        <time>2017-05-21T08:23:15Z</time>
      </trkpt>
      <trkpt lat="43.65841" lon="3.80385">
        <ele>143.1</ele>
        <time>2017-05-21T08:23:16Z</time>
      </trkpt>
      <trkpt lat="43.65838" lon="3.80383">
        <ele>143.3</ele>
        <time>2017-05-21T08:23:17Z</time>
      </trkpt>
      <trkpt lat="43.65833" lon="3.80379">
        <ele>143.3</ele>
        <time>2017-05-21T08:23:19Z</time>
      </trkpt>
      <trkpt lat="43.65831" lon="3.80376">
        <ele>143.3</ele>
        <time>2017-05-21T08:23:20Z</time>
      </trkpt>
      <trkpt lat="43.65826" lon="3.80371">
        <ele>143.7</ele>
        <time>2017-05-21T08:23:22Z</time>
      </trkpt>
      <trkpt lat="43.65823" lon="3.80369">
        <ele>143.7</ele>
        <time>2017-05-21T08:23:23Z</time>
      </trkpt>
      <trkpt lat="43.65821" lon="3.80367">
        <ele>144</ele>
        <time>2017-05-21T08:23:24Z</time>
      </trkpt>
      <trkpt lat="43.65818" lon="3.80365">
        <ele>144.1</ele>
        <time>2017-05-21T08:23:25Z</time>
      </trkpt>
      <trkpt lat="43.65815" lon="3.80363">
        <ele>144.5</ele>
        <time>2017-05-21T08:23:26Z</time>
      </trkpt>
      <trkpt lat="43.65811" lon="3.80361">
        <ele>144.5</ele>
        <time>2017-05-21T08:23:27Z</time>
      </trkpt>
      <trkpt lat="43.65809" lon="3.80359">
        <ele>144.6</ele>
        <time>2017-05-21T08:23:28Z</time>
      </trkpt>
      <trkpt lat="43.65806" lon="3.80357">
        <ele>144.9</ele>
        <time>2017-05-21T08:23:29Z</time>
      </trkpt>
      <trkpt lat="43.65802" lon="3.80355">
        <ele>144.9</ele>
        <time>2017-05-21T08:23:30Z</time>
      </trkpt>
      <trkpt lat="43.658" lon="3.80353">
        <ele>145.2</ele>
        <time>2017-05-21T08:23:31Z</time>
      </trkpt>
      <trkpt lat="43.65797" lon="3.80351">
        <ele>145.1</ele>
        <time>2017-05-21T08:23:32Z</time>
      </trkpt>
      <trkpt lat="43.65793" lon="3.80348">
        <ele>145.3</ele>
        <time>2017-05-21T08:23:34Z</time>
      </trkpt>
      <trkpt lat="43.6579" lon="3.80347">
        <ele>145.2</ele>
        <time>2017-05-21T08:23:35Z</time>
      </trkpt>
      <trkpt lat="43.65787" lon="3.80346">
        <ele>145.2</ele>
        <time>2017-05-21T08:23:36Z</time>
      </trkpt>
      <trkpt lat="43.65784" lon="3.80346">
        <ele>145.2</ele>
        <time>2017-05-21T08:23:37Z</time>
      </trkpt>
      <trkpt lat="43.65781" lon="3.80346">
        <ele>145.1</ele>
        <time>2017-05-21T08:23:38Z</time>
      </trkpt>
      <trkpt lat="43.65778" lon="3.80346">
        <ele>144.8</ele>
        <time>2017-05-21T08:23:39Z</time>
      </trkpt>
      <trkpt lat="43.65775" lon="3.80347">
        <ele>144.6</ele>
        <time>2017-05-21T08:23:40Z</time>
      </trkpt>
      <trkpt lat="43.65769" lon="3.80348">
        <ele>144.4</ele>
        <time>2017-05-21T08:23:42Z</time>
      </trkpt>
      <trkpt lat="43.65766" lon="3.80348">
        <ele>144.2</ele>
        <time>2017-05-21T08:23:43Z</time>
      </trkpt>
      <trkpt lat="43.65763" lon="3.80348">
        <ele>144</ele>
        <time>2017-05-21T08:23:44Z</time>
      </trkpt>
      <trkpt lat="43.65759" lon="3.80348">
        <ele>143.7</ele>
        <time>2017-05-21T08:23:45Z</time>
      </trkpt>
      <trkpt lat="43.65755" lon="3.80348">
        <ele>143.5</ele>
        <time>2017-05-21T08:23:46Z</time>
      </trkpt>
      <trkpt lat="43.65751" lon="3.80348">
        <ele>143.4</ele>
        <time>2017-05-21T08:23:47Z</time>
      </trkpt>
      <trkpt lat="43.65747" lon="3.80349">
        <ele>143.2</ele>
        <time>2017-05-21T08:23:48Z</time>
      </trkpt>
      <trkpt lat="43.65743" lon="3.80349">
        <ele>143.1</ele>
        <time>2017-05-21T08:23:49Z</time>
      </trkpt>
      <trkpt lat="43.6574" lon="3.80349">
        <ele>143</ele>
        <time>2017-05-21T08:23:50Z</time>
      </trkpt>
      <trkpt lat="43.65736" lon="3.80349">
        <ele>142.9</ele>
        <time>2017-05-21T08:23:51Z</time>
      </trkpt>
      <trkpt lat="43.65733" lon="3.80348">
        <ele>142.9</ele>
        <time>2017-05-21T08:23:52Z</time>
      </trkpt>
      <trkpt lat="43.65729" lon="3.80347">
        <ele>142.9</ele>
        <time>2017-05-21T08:23:53Z</time>
      </trkpt>
      <trkpt lat="43.65725" lon="3.80345">
        <ele>143.1</ele>
        <time>2017-05-21T08:23:54Z</time>
      </trkpt>
      <trkpt lat="43.65722" lon="3.80342">
        <ele>143.1</ele>
        <time>2017-05-21T08:23:55Z</time>
      </trkpt>
      <trkpt lat="43.65718" lon="3.8034">
        <ele>143.3</ele>
        <time>2017-05-21T08:23:56Z</time>
      </trkpt>
      <trkpt lat="43.65715" lon="3.80338">
        <ele>143.2</ele>
        <time>2017-05-21T08:23:57Z</time>
      </trkpt>
      <trkpt lat="43.65711" lon="3.80335">
        <ele>143.4</ele>
        <time>2017-05-21T08:23:58Z</time>
      </trkpt>
      <trkpt lat="43.65708" lon="3.80333">
        <ele>143.5</ele>
        <time>2017-05-21T08:23:59Z</time>
      </trkpt>
      <trkpt lat="43.65705" lon="3.80331">
        <ele>143.5</ele>
        <time>2017-05-21T08:24:00Z</time>
      </trkpt>
      <trkpt lat="43.65702" lon="3.80328">
        <ele>143.7</ele>
        <time>2017-05-21T08:24:01Z</time>
      </trkpt>
      <trkpt lat="43.65699" lon="3.80326">
        <ele>143.7</ele>
        <time>2017-05-21T08:24:02Z</time>
      </trkpt>
      <trkpt lat="43.65695" lon="3.80325">
        <ele>143.7</ele>
        <time>2017-05-21T08:24:03Z</time>
      </trkpt>
      <trkpt lat="43.65692" lon="3.80322">
        <ele>144</ele>
        <time>2017-05-21T08:24:04Z</time>
      </trkpt>
      <trkpt lat="43.65688" lon="3.80321">
        <ele>144</ele>
        <time>2017-05-21T08:24:05Z</time>
      </trkpt>
      <trkpt lat="43.65684" lon="3.80319">
        <ele>144.3</ele>
        <time>2017-05-21T08:24:06Z</time>
      </trkpt>
      <trkpt lat="43.6568" lon="3.80318">
        <ele>144.2</ele>
        <time>2017-05-21T08:24:07Z</time>
      </trkpt>
      <trkpt lat="43.65675" lon="3.80318">
        <ele>144</ele>
        <time>2017-05-21T08:24:08Z</time>
      </trkpt>
      <trkpt lat="43.65671" lon="3.80318">
        <ele>143.9</ele>
        <time>2017-05-21T08:24:09Z</time>
      </trkpt>
      <trkpt lat="43.65666" lon="3.80318">
        <ele>143.6</ele>
        <time>2017-05-21T08:24:10Z</time>
      </trkpt>
      <trkpt lat="43.65662" lon="3.80319">
        <ele>143.4</ele>
        <time>2017-05-21T08:24:11Z</time>
      </trkpt>
      <trkpt lat="43.65658" lon="3.80319">
        <ele>143.2</ele>
        <time>2017-05-21T08:24:12Z</time>
      </trkpt>
      <trkpt lat="43.65654" lon="3.8032">
        <ele>142.7</ele>
        <time>2017-05-21T08:24:13Z</time>
      </trkpt>
      <trkpt lat="43.65649" lon="3.8032">
        <ele>142.5</ele>
        <time>2017-05-21T08:24:14Z</time>
      </trkpt>
      <trkpt lat="43.65644" lon="3.8032">
        <ele>142.1</ele>
        <time>2017-05-21T08:24:15Z</time>
      </trkpt>
      <trkpt lat="43.65639" lon="3.8032">
        <ele>141.9</ele>
        <time>2017-05-21T08:24:16Z</time>
      </trkpt>
      <trkpt lat="43.65635" lon="3.80318">
        <ele>141.6</ele>
        <time>2017-05-21T08:24:17Z</time>
      </trkpt>
      <trkpt lat="43.6563" lon="3.80314">
        <ele>141.3</ele>
        <time>2017-05-21T08:24:18Z</time>
      </trkpt>
      <trkpt lat="43.65628" lon="3.80312">
        <ele>141.2</ele>
        <time>2017-05-21T08:24:19Z</time>
      </trkpt>
      <trkpt lat="43.65625" lon="3.80308">
        <ele>140.9</ele>
        <time>2017-05-21T08:24:20Z</time>
      </trkpt>
      <trkpt lat="43.65621" lon="3.80303">
        <ele>140.7</ele>
        <time>2017-05-21T08:24:21Z</time>
      </trkpt>
      <trkpt lat="43.65617" lon="3.803">
        <ele>140.5</ele>
        <time>2017-05-21T08:24:22Z</time>
      </trkpt>
      <trkpt lat="43.65614" lon="3.80296">
        <ele>140.4</ele>
        <time>2017-05-21T08:24:23Z</time>
      </trkpt>
      <trkpt lat="43.6561" lon="3.80293">
        <ele>140.4</ele>
        <time>2017-05-21T08:24:24Z</time>
      </trkpt>
      <trkpt lat="43.65606" lon="3.80289">
        <ele>140.4</ele>
        <time>2017-05-21T08:24:25Z</time>
      </trkpt>
      <trkpt lat="43.65602" lon="3.80286">
        <ele>140.5</ele>
        <time>2017-05-21T08:24:26Z</time>
      </trkpt>
      <trkpt lat="43.65598" lon="3.80282">
        <ele>140.5</ele>
        <time>2017-05-21T08:24:27Z</time>
      </trkpt>
      <trkpt lat="43.65594" lon="3.80279">
        <ele>140.8</ele>
        <time>2017-05-21T08:24:28Z</time>
      </trkpt>
      <trkpt lat="43.65589" lon="3.80277">
        <ele>140.9</ele>
        <time>2017-05-21T08:24:29Z</time>
      </trkpt>
      <trkpt lat="43.65585" lon="3.80276">
        <ele>141.1</ele>
        <time>2017-05-21T08:24:30Z</time>
      </trkpt>
      <trkpt lat="43.65579" lon="3.80274">
        <ele>141.3</ele>
        <time>2017-05-21T08:24:31Z</time>
      </trkpt>
      <trkpt lat="43.65574" lon="3.80272">
        <ele>141.3</ele>
        <time>2017-05-21T08:24:32Z</time>
      </trkpt>
      <trkpt lat="43.6557" lon="3.80268">
        <ele>141.2</ele>
        <time>2017-05-21T08:24:33Z</time>
      </trkpt>
      <trkpt lat="43.65568" lon="3.80264">
        <ele>141.1</ele>
        <time>2017-05-21T08:24:34Z</time>
      </trkpt>
      <trkpt lat="43.65565" lon="3.80257">
        <ele>141</ele>
        <time>2017-05-21T08:24:35Z</time>
      </trkpt>
      <trkpt lat="43.65565" lon="3.8025">
        <ele>141</ele>
        <time>2017-05-21T08:24:36Z</time>
      </trkpt>
      <trkpt lat="43.65565" lon="3.80244">
        <ele>141</ele>
        <time>2017-05-21T08:24:37Z</time>
      </trkpt>
      <trkpt lat="43.65566" lon="3.80238">
        <ele>141.3</ele>
        <time>2017-05-21T08:24:38Z</time>
      </trkpt>
      <trkpt lat="43.65565" lon="3.8023">
        <ele>141.5</ele>
        <time>2017-05-21T08:24:39Z</time>
      </trkpt>
      <trkpt lat="43.65566" lon="3.80225">
        <ele>141.9</ele>
        <time>2017-05-21T08:24:40Z</time>
      </trkpt>
      <trkpt lat="43.65565" lon="3.80221">
        <ele>142</ele>
        <time>2017-05-21T08:24:41Z</time>
      </trkpt>
      <trkpt lat="43.65564" lon="3.80217">
        <ele>141.9</ele>
        <time>2017-05-21T08:24:43Z</time>
      </trkpt>
      <trkpt lat="43.6556" lon="3.80219">
        <ele>141.8</ele>
        <time>2017-05-21T08:24:45Z</time>
      </trkpt>
      <trkpt lat="43.65558" lon="3.80222">
        <ele>141.5</ele>
        <time>2017-05-21T08:24:46Z</time>
      </trkpt>
      <trkpt lat="43.65555" lon="3.80223">
        <ele>141.5</ele>
        <time>2017-05-21T08:24:47Z</time>
      </trkpt>
      <trkpt lat="43.65552" lon="3.80225">
        <ele>141.2</ele>
        <time>2017-05-21T08:24:48Z</time>
      </trkpt>
      <trkpt lat="43.65548" lon="3.80227">
        <ele>140.9</ele>
        <time>2017-05-21T08:24:49Z</time>
      </trkpt>
      <trkpt lat="43.65546" lon="3.80229">
        <ele>140.9</ele>
        <time>2017-05-21T08:24:50Z</time>
      </trkpt>
      <trkpt lat="43.65543" lon="3.80231">
        <ele>140.6</ele>
        <time>2017-05-21T08:24:51Z</time>
      </trkpt>
      <trkpt lat="43.6554" lon="3.80232">
        <ele>140.5</ele>
        <time>2017-05-21T08:24:52Z</time>
      </trkpt>
      <trkpt lat="43.65534" lon="3.80234">
        <ele>140.3</ele>
        <time>2017-05-21T08:24:54Z</time>
      </trkpt>
      <trkpt lat="43.65531" lon="3.80236">
        <ele>140.2</ele>
        <time>2017-05-21T08:24:55Z</time>
      </trkpt>
      <trkpt lat="43.65527" lon="3.80236">
        <ele>140.2</ele>
        <time>2017-05-21T08:24:56Z</time>
      </trkpt>
      <trkpt lat="43.65523" lon="3.80237">
        <ele>140.1</ele>
        <time>2017-05-21T08:24:57Z</time>
      </trkpt>
      <trkpt lat="43.65519" lon="3.80238">
        <ele>140</ele>
        <time>2017-05-21T08:24:58Z</time>
      </trkpt>
      <trkpt lat="43.65515" lon="3.8024">
        <ele>139.9</ele>
        <time>2017-05-21T08:24:59Z</time>
      </trkpt>
      <trkpt lat="43.65511" lon="3.80244">
        <ele>139.6</ele>
        <time>2017-05-21T08:25:00Z</time>
      </trkpt>
      <trkpt lat="43.65508" lon="3.80247">
        <ele>139.4</ele>
        <time>2017-05-21T08:25:01Z</time>
      </trkpt>
      <trkpt lat="43.65503" lon="3.8025">
        <ele>139.1</ele>
        <time>2017-05-21T08:25:02Z</time>
      </trkpt>
      <trkpt lat="43.65499" lon="3.80254">
        <ele>138.8</ele>
        <time>2017-05-21T08:25:03Z</time>
      </trkpt>
      <trkpt lat="43.65495" lon="3.80257">
        <ele>138.2</ele>
        <time>2017-05-21T08:25:04Z</time>
      </trkpt>
      <trkpt lat="43.65491" lon="3.8026">
        <ele>137.8</ele>
        <time>2017-05-21T08:25:05Z</time>
      </trkpt>
      <trkpt lat="43.65487" lon="3.80264">
        <ele>137.1</ele>
        <time>2017-05-21T08:25:06Z</time>
      </trkpt>
      <trkpt lat="43.65483" lon="3.80269">
        <ele>135.9</ele>
        <time>2017-05-21T08:25:07Z</time>
      </trkpt>
      <trkpt lat="43.65481" lon="3.80275">
        <ele>134.9</ele>
        <time>2017-05-21T08:25:08Z</time>
      </trkpt>
      <trkpt lat="43.6548" lon="3.80281">
        <ele>134.5</ele>
        <time>2017-05-21T08:25:09Z</time>
      </trkpt>
      <trkpt lat="43.6548" lon="3.80286">
        <ele>133.8</ele>
        <time>2017-05-21T08:25:10Z</time>
      </trkpt>
      <trkpt lat="43.65481" lon="3.80292">
        <ele>133.5</ele>
        <time>2017-05-21T08:25:11Z</time>
      </trkpt>
      <trkpt lat="43.65482" lon="3.80298">
        <ele>133.1</ele>
        <time>2017-05-21T08:25:12Z</time>
      </trkpt>
      <trkpt lat="43.65484" lon="3.80303">
        <ele>133.4</ele>
        <time>2017-05-21T08:25:13Z</time>
      </trkpt>
      <trkpt lat="43.65486" lon="3.80308">
        <ele>132.8</ele>
        <time>2017-05-21T08:25:14Z</time>
      </trkpt>
      <trkpt lat="43.6549" lon="3.80311">
        <ele>133.9</ele>
        <time>2017-05-21T08:25:15Z</time>
      </trkpt>
      <trkpt lat="43.65494" lon="3.80313">
        <ele>134</ele>
        <time>2017-05-21T08:25:16Z</time>
      </trkpt>
      <trkpt lat="43.65497" lon="3.80316">
        <ele>133.9</ele>
        <time>2017-05-21T08:25:17Z</time>
      </trkpt>
      <trkpt lat="43.65501" lon="3.80318">
        <ele>134.1</ele>
        <time>2017-05-21T08:25:18Z</time>
      </trkpt>
      <trkpt lat="43.65505" lon="3.80323">
        <ele>133.9</ele>
        <time>2017-05-21T08:25:20Z</time>
      </trkpt>
      <trkpt lat="43.65504" lon="3.8033">
        <ele>132.8</ele>
        <time>2017-05-21T08:25:22Z</time>
      </trkpt>
      <trkpt lat="43.65502" lon="3.80333">
        <ele>132.2</ele>
        <time>2017-05-21T08:25:23Z</time>
      </trkpt>
      <trkpt lat="43.65501" lon="3.80337">
        <ele>131.9</ele>
        <time>2017-05-21T08:25:24Z</time>
      </trkpt>
      <trkpt lat="43.655" lon="3.80341">
        <ele>131.4</ele>
        <time>2017-05-21T08:25:25Z</time>
      </trkpt>
      <trkpt lat="43.65502" lon="3.80346">
        <ele>130.3</ele>
        <time>2017-05-21T08:25:27Z</time>
      </trkpt>
      <trkpt lat="43.65506" lon="3.80352">
        <ele>129.9</ele>
        <time>2017-05-21T08:25:29Z</time>
      </trkpt>
      <trkpt lat="43.65509" lon="3.80356">
        <ele>129.6</ele>
        <time>2017-05-21T08:25:30Z</time>
      </trkpt>
      <trkpt lat="43.65512" lon="3.8036">
        <ele>129.4</ele>
        <time>2017-05-21T08:25:31Z</time>
      </trkpt>
      <trkpt lat="43.65514" lon="3.80363">
        <ele>129.8</ele>
        <time>2017-05-21T08:25:32Z</time>
      </trkpt>
      <trkpt lat="43.65518" lon="3.80368">
        <ele>128.8</ele>
        <time>2017-05-21T08:25:33Z</time>
      </trkpt>
      <trkpt lat="43.65522" lon="3.80369">
        <ele>129</ele>
        <time>2017-05-21T08:25:34Z</time>
      </trkpt>
      <trkpt lat="43.65527" lon="3.80372">
        <ele>128.5</ele>
        <time>2017-05-21T08:25:35Z</time>
      </trkpt>
      <trkpt lat="43.65531" lon="3.80374">
        <ele>128.6</ele>
        <time>2017-05-21T08:25:36Z</time>
      </trkpt>
      <trkpt lat="43.65535" lon="3.80376">
        <ele>127.9</ele>
        <time>2017-05-21T08:25:37Z</time>
      </trkpt>
      <trkpt lat="43.6554" lon="3.80378">
        <ele>128.4</ele>
        <time>2017-05-21T08:25:38Z</time>
      </trkpt>
      <trkpt lat="43.65543" lon="3.8038">
        <ele>128.6</ele>
        <time>2017-05-21T08:25:39Z</time>
      </trkpt>
      <trkpt lat="43.65547" lon="3.80383">
        <ele>128.3</ele>
        <time>2017-05-21T08:25:40Z</time>
      </trkpt>
      <trkpt lat="43.65552" lon="3.80385">
        <ele>128.5</ele>
        <time>2017-05-21T08:25:41Z</time>
      </trkpt>
      <trkpt lat="43.65558" lon="3.80386">
        <ele>129</ele>
        <time>2017-05-21T08:25:42Z</time>
      </trkpt>
      <trkpt lat="43.65564" lon="3.80388">
        <ele>129.2</ele>
        <time>2017-05-21T08:25:43Z</time>
      </trkpt>
      <trkpt lat="43.65569" lon="3.80388">
        <ele>129.6</ele>
        <time>2017-05-21T08:25:44Z</time>
      </trkpt>
      <trkpt lat="43.65573" lon="3.8039">
        <ele>129.3</ele>
        <time>2017-05-21T08:25:45Z</time>
      </trkpt>
      <trkpt lat="43.6558" lon="3.80391">
        <ele>129.9</ele>
        <time>2017-05-21T08:25:46Z</time>
      </trkpt>
      <trkpt lat="43.65583" lon="3.8039">
        <ele>130</ele>
        <time>2017-05-21T08:25:47Z</time>
      </trkpt>
      <trkpt lat="43.65588" lon="3.80393">
        <ele>130.2</ele>
        <time>2017-05-21T08:25:48Z</time>
      </trkpt>
      <trkpt lat="43.65593" lon="3.80396">
        <ele>130</ele>
        <time>2017-05-21T08:25:49Z</time>
      </trkpt>
      <trkpt lat="43.65597" lon="3.80399">
        <ele>129.3</ele>
        <time>2017-05-21T08:25:50Z</time>
      </trkpt>
      <trkpt lat="43.65601" lon="3.80401">
        <ele>129.6</ele>
        <time>2017-05-21T08:25:51Z</time>
      </trkpt>
      <trkpt lat="43.65606" lon="3.80404">
        <ele>128.9</ele>
        <time>2017-05-21T08:25:52Z</time>
      </trkpt>
      <trkpt lat="43.65611" lon="3.8041">
        <ele>128</ele>
        <time>2017-05-21T08:25:53Z</time>
      </trkpt>
      <trkpt lat="43.65616" lon="3.80415">
        <ele>126.1</ele>
        <time>2017-05-21T08:25:54Z</time>
      </trkpt>
      <trkpt lat="43.65622" lon="3.80419">
        <ele>125.5</ele>
        <time>2017-05-21T08:25:55Z</time>
      </trkpt>
      <trkpt lat="43.65629" lon="3.80422">
        <ele>125.8</ele>
        <time>2017-05-21T08:25:56Z</time>
      </trkpt>
      <trkpt lat="43.65636" lon="3.80424">
        <ele>125.3</ele>
        <time>2017-05-21T08:25:57Z</time>
      </trkpt>
      <trkpt lat="43.65643" lon="3.80424">
        <ele>125.3</ele>
        <time>2017-05-21T08:25:58Z</time>
      </trkpt>
      <trkpt lat="43.65649" lon="3.80426">
        <ele>125.4</ele>
        <time>2017-05-21T08:25:59Z</time>
      </trkpt>
      <trkpt lat="43.65653" lon="3.80428">
        <ele>124.9</ele>
        <time>2017-05-21T08:26:00Z</time>
      </trkpt>
      <trkpt lat="43.65659" lon="3.8043">
        <ele>125.2</ele>
        <time>2017-05-21T08:26:01Z</time>
      </trkpt>
      <trkpt lat="43.65664" lon="3.80431">
        <ele>125.7</ele>
        <time>2017-05-21T08:26:02Z</time>
      </trkpt>
      <trkpt lat="43.65669" lon="3.80431">
        <ele>125.9</ele>
        <time>2017-05-21T08:26:03Z</time>
      </trkpt>
      <trkpt lat="43.65673" lon="3.80432">
        <ele>126.1</ele>
        <time>2017-05-21T08:26:04Z</time>
      </trkpt>
      <trkpt lat="43.65679" lon="3.80434">
        <ele>126.5</ele>
        <time>2017-05-21T08:26:05Z</time>
      </trkpt>
      <trkpt lat="43.65683" lon="3.80434">
        <ele>127.3</ele>
        <time>2017-05-21T08:26:06Z</time>
      </trkpt>
      <trkpt lat="43.65687" lon="3.80435">
        <ele>127.7</ele>
        <time>2017-05-21T08:26:07Z</time>
      </trkpt>
      <trkpt lat="43.65691" lon="3.80438">
        <ele>127.2</ele>
        <time>2017-05-21T08:26:08Z</time>
      </trkpt>
      <trkpt lat="43.65694" lon="3.8044">
        <ele>127.7</ele>
        <time>2017-05-21T08:26:09Z</time>
      </trkpt>
      <trkpt lat="43.65699" lon="3.80442">
        <ele>127</ele>
        <time>2017-05-21T08:26:10Z</time>
      </trkpt>
      <trkpt lat="43.65703" lon="3.80443">
        <ele>127.2</ele>
        <time>2017-05-21T08:26:11Z</time>
      </trkpt>
      <trkpt lat="43.65706" lon="3.80445">
        <ele>126.6</ele>
        <time>2017-05-21T08:26:12Z</time>
      </trkpt>
      <trkpt lat="43.65709" lon="3.80447">
        <ele>126.8</ele>
        <time>2017-05-21T08:26:13Z</time>
      </trkpt>
      <trkpt lat="43.65713" lon="3.8045">
        <ele>126.2</ele>
        <time>2017-05-21T08:26:14Z</time>
      </trkpt>
      <trkpt lat="43.65717" lon="3.80451">
        <ele>126.5</ele>
        <time>2017-05-21T08:26:15Z</time>
      </trkpt>
      <trkpt lat="43.6572" lon="3.80453">
        <ele>126.6</ele>
        <time>2017-05-21T08:26:16Z</time>
      </trkpt>
      <trkpt lat="43.65723" lon="3.80457">
        <ele>125.7</ele>
        <time>2017-05-21T08:26:17Z</time>
      </trkpt>
      <trkpt lat="43.65726" lon="3.80461">
        <ele>124.7</ele>
        <time>2017-05-21T08:26:18Z</time>
      </trkpt>
      <trkpt lat="43.65729" lon="3.80464">
        <ele>123.7</ele>
        <time>2017-05-21T08:26:19Z</time>
      </trkpt>
      <trkpt lat="43.65733" lon="3.80465">
        <ele>123.7</ele>
        <time>2017-05-21T08:26:20Z</time>
      </trkpt>
      <trkpt lat="43.65738" lon="3.80466">
        <ele>122.7</ele>
        <time>2017-05-21T08:26:21Z</time>
      </trkpt>
      <trkpt lat="43.65741" lon="3.80467">
        <ele>122.8</ele>
        <time>2017-05-21T08:26:22Z</time>
      </trkpt>
      <trkpt lat="43.65746" lon="3.80467">
        <ele>122.8</ele>
        <time>2017-05-21T08:26:23Z</time>
      </trkpt>
      <trkpt lat="43.6575" lon="3.80468">
        <ele>122.7</ele>
        <time>2017-05-21T08:26:24Z</time>
      </trkpt>
      <trkpt lat="43.65754" lon="3.8047">
        <ele>122.7</ele>
        <time>2017-05-21T08:26:25Z</time>
      </trkpt>
      <trkpt lat="43.65758" lon="3.80472">
        <ele>121.6</ele>
        <time>2017-05-21T08:26:26Z</time>
      </trkpt>
      <trkpt lat="43.65763" lon="3.80473">
        <ele>121.7</ele>
        <time>2017-05-21T08:26:27Z</time>
      </trkpt>
      <trkpt lat="43.65768" lon="3.80473">
        <ele>121.8</ele>
        <time>2017-05-21T08:26:28Z</time>
      </trkpt>
      <trkpt lat="43.65773" lon="3.80474">
        <ele>122.1</ele>
        <time>2017-05-21T08:26:29Z</time>
      </trkpt>
      <trkpt lat="43.65777" lon="3.80475">
        <ele>121.4</ele>
        <time>2017-05-21T08:26:30Z</time>
      </trkpt>
      <trkpt lat="43.6578" lon="3.80477">
        <ele>121.7</ele>
        <time>2017-05-21T08:26:31Z</time>
      </trkpt>
      <trkpt lat="43.65784" lon="3.80478">
        <ele>122.1</ele>
        <time>2017-05-21T08:26:32Z</time>
      </trkpt>
      <trkpt lat="43.65791" lon="3.80482">
        <ele>122.4</ele>
        <time>2017-05-21T08:26:34Z</time>
      </trkpt>
      <trkpt lat="43.65795" lon="3.80485">
        <ele>121.6</ele>
        <time>2017-05-21T08:26:35Z</time>
      </trkpt>
      <trkpt lat="43.65799" lon="3.80486">
        <ele>122</ele>
        <time>2017-05-21T08:26:36Z</time>
      </trkpt>
      <trkpt lat="43.65805" lon="3.80486">
        <ele>122.6</ele>
        <time>2017-05-21T08:26:37Z</time>
      </trkpt>
      <trkpt lat="43.6581" lon="3.80488">
        <ele>121.8</ele>
        <time>2017-05-21T08:26:38Z</time>
      </trkpt>
      <trkpt lat="43.65814" lon="3.8049">
        <ele>122.1</ele>
        <time>2017-05-21T08:26:39Z</time>
      </trkpt>
      <trkpt lat="43.65818" lon="3.80491">
        <ele>122.4</ele>
        <time>2017-05-21T08:26:40Z</time>
      </trkpt>
      <trkpt lat="43.65823" lon="3.8049">
        <ele>123</ele>
        <time>2017-05-21T08:26:41Z</time>
      </trkpt>
      <trkpt lat="43.65828" lon="3.80493">
        <ele>122.7</ele>
        <time>2017-05-21T08:26:43Z</time>
      </trkpt>
      <trkpt lat="43.65832" lon="3.80495">
        <ele>123</ele>
        <time>2017-05-21T08:26:44Z</time>
      </trkpt>
      <trkpt lat="43.65836" lon="3.80497">
        <ele>122.6</ele>
        <time>2017-05-21T08:26:45Z</time>
      </trkpt>
      <trkpt lat="43.65839" lon="3.805">
        <ele>123</ele>
        <time>2017-05-21T08:26:46Z</time>
      </trkpt>
      <trkpt lat="43.65842" lon="3.80502">
        <ele>122.7</ele>
        <time>2017-05-21T08:26:47Z</time>
      </trkpt>
      <trkpt lat="43.65845" lon="3.80504">
        <ele>123.2</ele>
        <time>2017-05-21T08:26:48Z</time>
      </trkpt>
      <trkpt lat="43.65849" lon="3.80509">
        <ele>122.9</ele>
        <time>2017-05-21T08:26:49Z</time>
      </trkpt>
      <trkpt lat="43.65853" lon="3.80511">
        <ele>122.6</ele>
        <time>2017-05-21T08:26:50Z</time>
      </trkpt>
      <trkpt lat="43.65857" lon="3.80514">
        <ele>122.7</ele>
        <time>2017-05-21T08:26:51Z</time>
      </trkpt>
      <trkpt lat="43.65861" lon="3.80517">
        <ele>123.1</ele>
        <time>2017-05-21T08:26:52Z</time>
      </trkpt>
      <trkpt lat="43.65864" lon="3.80521">
        <ele>122.6</ele>
        <time>2017-05-21T08:26:53Z</time>
      </trkpt>
      <trkpt lat="43.65867" lon="3.80524">
        <ele>122.2</ele>
        <time>2017-05-21T08:26:54Z</time>
      </trkpt>
      <trkpt lat="43.65872" lon="3.80526">
        <ele>123.1</ele>
        <time>2017-05-21T08:26:55Z</time>
      </trkpt>
      <trkpt lat="43.65875" lon="3.80528">
        <ele>122.7</ele>
        <time>2017-05-21T08:26:56Z</time>
      </trkpt>
      <trkpt lat="43.65878" lon="3.80531">
        <ele>122.4</ele>
        <time>2017-05-21T08:26:57Z</time>
      </trkpt>
      <trkpt lat="43.6588" lon="3.80534">
        <ele>122.3</ele>
        <time>2017-05-21T08:26:58Z</time>
      </trkpt>
      <trkpt lat="43.65889" lon="3.80536">
        <ele>122.6</ele>
        <time>2017-05-21T08:27:00Z</time>
      </trkpt>
      <trkpt lat="43.65894" lon="3.80537">
        <ele>123.3</ele>
        <time>2017-05-21T08:27:01Z</time>
      </trkpt>
      <trkpt lat="43.659" lon="3.80542">
        <ele>123</ele>
        <time>2017-05-21T08:27:03Z</time>
      </trkpt>
      <trkpt lat="43.65903" lon="3.80544">
        <ele>122.4</ele>
        <time>2017-05-21T08:27:04Z</time>
      </trkpt>
      <trkpt lat="43.65908" lon="3.80548">
        <ele>121.7</ele>
        <time>2017-05-21T08:27:06Z</time>
      </trkpt>
      <trkpt lat="43.6591" lon="3.80549">
        <ele>121.9</ele>
        <time>2017-05-21T08:27:07Z</time>
      </trkpt>
      <trkpt lat="43.65913" lon="3.80552">
        <ele>122.1</ele>
        <time>2017-05-21T08:27:08Z</time>
      </trkpt>
      <trkpt lat="43.65916" lon="3.80555">
        <ele>121.4</ele>
        <time>2017-05-21T08:27:09Z</time>
      </trkpt>
      <trkpt lat="43.65922" lon="3.80557">
        <ele>121</ele>
        <time>2017-05-21T08:27:10Z</time>
      </trkpt>
      <trkpt lat="43.65925" lon="3.8056">
        <ele>121.2</ele>
        <time>2017-05-21T08:27:11Z</time>
      </trkpt>
      <trkpt lat="43.6593" lon="3.80563">
        <ele>120.6</ele>
        <time>2017-05-21T08:27:12Z</time>
      </trkpt>
      <trkpt lat="43.65934" lon="3.80566">
        <ele>120.3</ele>
        <time>2017-05-21T08:27:13Z</time>
      </trkpt>
      <trkpt lat="43.65938" lon="3.80567">
        <ele>120.5</ele>
        <time>2017-05-21T08:27:14Z</time>
      </trkpt>
      <trkpt lat="43.65942" lon="3.80569">
        <ele>120.7</ele>
        <time>2017-05-21T08:27:15Z</time>
      </trkpt>
      <trkpt lat="43.65946" lon="3.80568">
        <ele>120.9</ele>
        <time>2017-05-21T08:27:16Z</time>
      </trkpt>
      <trkpt lat="43.6595" lon="3.80568">
        <ele>121</ele>
        <time>2017-05-21T08:27:17Z</time>
      </trkpt>
      <trkpt lat="43.65954" lon="3.80568">
        <ele>121</ele>
        <time>2017-05-21T08:27:18Z</time>
      </trkpt>
      <trkpt lat="43.65957" lon="3.80569">
        <ele>120.2</ele>
        <time>2017-05-21T08:27:19Z</time>
      </trkpt>
      <trkpt lat="43.6596" lon="3.80572">
        <ele>120.3</ele>
        <time>2017-05-21T08:27:20Z</time>
      </trkpt>
      <trkpt lat="43.65962" lon="3.80576">
        <ele>119.5</ele>
        <time>2017-05-21T08:27:21Z</time>
      </trkpt>
      <trkpt lat="43.65967" lon="3.80581">
        <ele>118.7</ele>
        <time>2017-05-21T08:27:22Z</time>
      </trkpt>
      <trkpt lat="43.6597" lon="3.80582">
        <ele>118.2</ele>
        <time>2017-05-21T08:27:23Z</time>
      </trkpt>
      <trkpt lat="43.65973" lon="3.80584">
        <ele>118.4</ele>
        <time>2017-05-21T08:27:24Z</time>
      </trkpt>
      <trkpt lat="43.65976" lon="3.80585">
        <ele>118.7</ele>
        <time>2017-05-21T08:27:25Z</time>
      </trkpt>
      <trkpt lat="43.65981" lon="3.80585">
        <ele>119.7</ele>
        <time>2017-05-21T08:27:27Z</time>
      </trkpt>
      <trkpt lat="43.65985" lon="3.80584">
        <ele>120.3</ele>
        <time>2017-05-21T08:27:29Z</time>
      </trkpt>
      <trkpt lat="43.65989" lon="3.80584">
        <ele>121</ele>
        <time>2017-05-21T08:27:31Z</time>
      </trkpt>
      <trkpt lat="43.65993" lon="3.80584">
        <ele>122.2</ele>
        <time>2017-05-21T08:27:33Z</time>
      </trkpt>
      <trkpt lat="43.65996" lon="3.80586">
        <ele>121.9</ele>
        <time>2017-05-21T08:27:35Z</time>
      </trkpt>
      <trkpt lat="43.66" lon="3.8059">
        <ele>122.3</ele>
        <time>2017-05-21T08:27:37Z</time>
      </trkpt>
      <trkpt lat="43.66002" lon="3.80592">
        <ele>121.7</ele>
        <time>2017-05-21T08:27:38Z</time>
      </trkpt>
      <trkpt lat="43.66005" lon="3.80596">
        <ele>121.2</ele>
        <time>2017-05-21T08:27:40Z</time>
      </trkpt>
      <trkpt lat="43.6601" lon="3.80601">
        <ele>120.8</ele>
        <time>2017-05-21T08:27:42Z</time>
      </trkpt>
      <trkpt lat="43.66012" lon="3.80604">
        <ele>120.7</ele>
        <time>2017-05-21T08:27:43Z</time>
      </trkpt>
      <trkpt lat="43.66014" lon="3.80607">
        <ele>121.4</ele>
        <time>2017-05-21T08:27:44Z</time>
      </trkpt>
      <trkpt lat="43.66017" lon="3.8061">
        <ele>120.9</ele>
        <time>2017-05-21T08:27:45Z</time>
      </trkpt>
      <trkpt lat="43.66022" lon="3.80613">
        <ele>121.7</ele>
        <time>2017-05-21T08:27:47Z</time>
      </trkpt>
      <trkpt lat="43.66025" lon="3.80619">
        <ele>121.7</ele>
        <time>2017-05-21T08:27:49Z</time>
      </trkpt>
      <trkpt lat="43.66026" lon="3.80624">
        <ele>120.9</ele>
        <time>2017-05-21T08:27:50Z</time>
      </trkpt>
      <trkpt lat="43.6603" lon="3.80629">
        <ele>120.6</ele>
        <time>2017-05-21T08:27:52Z</time>
      </trkpt>
      <trkpt lat="43.66034" lon="3.80631">
        <ele>120</ele>
        <time>2017-05-21T08:27:53Z</time>
      </trkpt>
      <trkpt lat="43.66035" lon="3.80635">
        <ele>119</ele>
        <time>2017-05-21T08:27:54Z</time>
      </trkpt>
      <trkpt lat="43.66036" lon="3.80639">
        <ele>118.5</ele>
        <time>2017-05-21T08:27:55Z</time>
      </trkpt>
      <trkpt lat="43.66039" lon="3.80643">
        <ele>118.1</ele>
        <time>2017-05-21T08:27:56Z</time>
      </trkpt>
      <trkpt lat="43.66043" lon="3.80646">
        <ele>118.4</ele>
        <time>2017-05-21T08:27:57Z</time>
      </trkpt>
      <trkpt lat="43.66046" lon="3.80648">
        <ele>117.9</ele>
        <time>2017-05-21T08:27:58Z</time>
      </trkpt>
      <trkpt lat="43.66049" lon="3.80649">
        <ele>118.3</ele>
        <time>2017-05-21T08:28:00Z</time>
      </trkpt>
      <trkpt lat="43.66052" lon="3.80651">
        <ele>118.6</ele>
        <time>2017-05-21T08:28:01Z</time>
      </trkpt>
      <trkpt lat="43.66056" lon="3.80652">
        <ele>118.1</ele>
        <time>2017-05-21T08:28:03Z</time>
      </trkpt>
      <trkpt lat="43.66058" lon="3.80658">
        <ele>117.6</ele>
        <time>2017-05-21T08:28:05Z</time>
      </trkpt>
      <trkpt lat="43.66062" lon="3.80662">
        <ele>117.3</ele>
        <time>2017-05-21T08:28:06Z</time>
      </trkpt>
      <trkpt lat="43.66065" lon="3.80669">
        <ele>116.4</ele>
        <time>2017-05-21T08:28:08Z</time>
      </trkpt>
      <trkpt lat="43.66068" lon="3.8067">
        <ele>117</ele>
        <time>2017-05-21T08:28:09Z</time>
      </trkpt>
      <trkpt lat="43.6607" lon="3.80673">
        <ele>116.8</ele>
        <time>2017-05-21T08:28:10Z</time>
      </trkpt>
      <trkpt lat="43.66072" lon="3.80675">
        <ele>116.8</ele>
        <time>2017-05-21T08:28:11Z</time>
      </trkpt>
      <trkpt lat="43.66075" lon="3.80677">
        <ele>116.4</ele>
        <time>2017-05-21T08:28:12Z</time>
      </trkpt>
      <trkpt lat="43.66079" lon="3.80678">
        <ele>116.9</ele>
        <time>2017-05-21T08:28:13Z</time>
      </trkpt>
      <trkpt lat="43.66082" lon="3.80679">
        <ele>117.3</ele>
        <time>2017-05-21T08:28:14Z</time>
      </trkpt>
      <trkpt lat="43.66085" lon="3.80682">
        <ele>116.7</ele>
        <time>2017-05-21T08:28:15Z</time>
      </trkpt>
      <trkpt lat="43.66087" lon="3.80685">
        <ele>117.1</ele>
        <time>2017-05-21T08:28:16Z</time>
      </trkpt>
      <trkpt lat="43.66089" lon="3.80688">
        <ele>116</ele>
        <time>2017-05-21T08:28:18Z</time>
      </trkpt>
      <trkpt lat="43.66092" lon="3.80691">
        <ele>115.9</ele>
        <time>2017-05-21T08:28:19Z</time>
      </trkpt>
      <trkpt lat="43.66097" lon="3.80696">
        <ele>115.6</ele>
        <time>2017-05-21T08:28:21Z</time>
      </trkpt>
      <trkpt lat="43.66099" lon="3.80698">
        <ele>115.2</ele>
        <time>2017-05-21T08:28:23Z</time>
      </trkpt>
      <trkpt lat="43.66102" lon="3.807">
        <ele>115.6</ele>
        <time>2017-05-21T08:28:24Z</time>
      </trkpt>
      <trkpt lat="43.66106" lon="3.80704">
        <ele>115.1</ele>
        <time>2017-05-21T08:28:25Z</time>
      </trkpt>
      <trkpt lat="43.6611" lon="3.80709">
        <ele>114.4</ele>
        <time>2017-05-21T08:28:27Z</time>
      </trkpt>
      <trkpt lat="43.66113" lon="3.80711">
        <ele>113.7</ele>
        <time>2017-05-21T08:28:28Z</time>
      </trkpt>
      <trkpt lat="43.66117" lon="3.80714">
        <ele>114.4</ele>
        <time>2017-05-21T08:28:30Z</time>
      </trkpt>
      <trkpt lat="43.6612" lon="3.80715">
        <ele>113.8</ele>
        <time>2017-05-21T08:28:31Z</time>
      </trkpt>
      <trkpt lat="43.66123" lon="3.80716">
        <ele>114.1</ele>
        <time>2017-05-21T08:28:33Z</time>
      </trkpt>
      <trkpt lat="43.66127" lon="3.80717">
        <ele>114.5</ele>
        <time>2017-05-21T08:28:35Z</time>
      </trkpt>
      <trkpt lat="43.66131" lon="3.80718">
        <ele>114.8</ele>
        <time>2017-05-21T08:28:37Z</time>
      </trkpt>
      <trkpt lat="43.66135" lon="3.80721">
        <ele>114.2</ele>
        <time>2017-05-21T08:28:41Z</time>
      </trkpt>
      <trkpt lat="43.66137" lon="3.80722">
        <ele>114.4</ele>
        <time>2017-05-21T08:28:44Z</time>
      </trkpt>
      <trkpt lat="43.66141" lon="3.80723">
        <ele>114.5</ele>
        <time>2017-05-21T08:28:49Z</time>
      </trkpt>
      <trkpt lat="43.66144" lon="3.80727">
        <ele>114</ele>
        <time>2017-05-21T08:28:53Z</time>
      </trkpt>
      <trkpt lat="43.66148" lon="3.80729">
        <ele>113.6</ele>
        <time>2017-05-21T08:28:55Z</time>
      </trkpt>
      <trkpt lat="43.66153" lon="3.80729">
        <ele>113.9</ele>
        <time>2017-05-21T08:28:57Z</time>
      </trkpt>
      <trkpt lat="43.66155" lon="3.80731">
        <ele>114.2</ele>
        <time>2017-05-21T08:28:58Z</time>
      </trkpt>
      <trkpt lat="43.66157" lon="3.80734">
        <ele>113.8</ele>
        <time>2017-05-21T08:28:59Z</time>
      </trkpt>
      <trkpt lat="43.66161" lon="3.80737">
        <ele>113.3</ele>
        <time>2017-05-21T08:29:00Z</time>
      </trkpt>
      <trkpt lat="43.66164" lon="3.8074">
        <ele>113.7</ele>
        <time>2017-05-21T08:29:01Z</time>
      </trkpt>
      <trkpt lat="43.66169" lon="3.80742">
        <ele>113.4</ele>
        <time>2017-05-21T08:29:02Z</time>
      </trkpt>
      <trkpt lat="43.66172" lon="3.8074">
        <ele>114.7</ele>
        <time>2017-05-21T08:29:03Z</time>
      </trkpt>
      <trkpt lat="43.66175" lon="3.80743">
        <ele>114.4</ele>
        <time>2017-05-21T08:29:04Z</time>
      </trkpt>
      <trkpt lat="43.66179" lon="3.80748">
        <ele>114.8</ele>
        <time>2017-05-21T08:29:06Z</time>
      </trkpt>
      <trkpt lat="43.66181" lon="3.8075">
        <ele>113.9</ele>
        <time>2017-05-21T08:29:07Z</time>
      </trkpt>
      <trkpt lat="43.66186" lon="3.80754">
        <ele>114.8</ele>
        <time>2017-05-21T08:29:09Z</time>
      </trkpt>
      <trkpt lat="43.66194" lon="3.80764">
        <ele>111.7</ele>
        <time>2017-05-21T08:29:13Z</time>
      </trkpt>
      <trkpt lat="43.66194" lon="3.80768">
        <ele>110.5</ele>
        <time>2017-05-21T08:29:14Z</time>
      </trkpt>
      <trkpt lat="43.66195" lon="3.80772">
        <ele>109.6</ele>
        <time>2017-05-21T08:29:15Z</time>
      </trkpt>
      <trkpt lat="43.66197" lon="3.80778">
        <ele>109</ele>
        <time>2017-05-21T08:29:16Z</time>
      </trkpt>
      <trkpt lat="43.66199" lon="3.80782">
        <ele>108.4</ele>
        <time>2017-05-21T08:29:17Z</time>
      </trkpt>
      <trkpt lat="43.66203" lon="3.80789">
        <ele>107.5</ele>
        <time>2017-05-21T08:29:19Z</time>
      </trkpt>
      <trkpt lat="43.66212" lon="3.80791">
        <ele>108.8</ele>
        <time>2017-05-21T08:29:21Z</time>
      </trkpt>
      <trkpt lat="43.66214" lon="3.80795">
        <ele>108.7</ele>
        <time>2017-05-21T08:29:23Z</time>
      </trkpt>
      <trkpt lat="43.66218" lon="3.80797">
        <ele>108.5</ele>
        <time>2017-05-21T08:29:24Z</time>
      </trkpt>
      <trkpt lat="43.6622" lon="3.808">
        <ele>108.9</ele>
        <time>2017-05-21T08:29:26Z</time>
      </trkpt>
      <trkpt lat="43.66223" lon="3.80806">
        <ele>108.4</ele>
        <time>2017-05-21T08:29:29Z</time>
      </trkpt>
      <trkpt lat="43.66225" lon="3.8081">
        <ele>107.9</ele>
        <time>2017-05-21T08:29:30Z</time>
      </trkpt>
      <trkpt lat="43.66226" lon="3.80814">
        <ele>107.7</ele>
        <time>2017-05-21T08:29:33Z</time>
      </trkpt>
      <trkpt lat="43.66228" lon="3.80817">
        <ele>107.6</ele>
        <time>2017-05-21T08:29:36Z</time>
      </trkpt>
      <trkpt lat="43.66231" lon="3.80819">
        <ele>107.4</ele>
        <time>2017-05-21T08:29:38Z</time>
      </trkpt>
      <trkpt lat="43.66234" lon="3.80822">
        <ele>107.1</ele>
        <time>2017-05-21T08:29:40Z</time>
      </trkpt>
      <trkpt lat="43.66237" lon="3.80827">
        <ele>106.9</ele>
        <time>2017-05-21T08:29:42Z</time>
      </trkpt>
      <trkpt lat="43.66243" lon="3.8083">
        <ele>107.8</ele>
        <time>2017-05-21T08:29:44Z</time>
      </trkpt>
      <trkpt lat="43.66245" lon="3.80833">
        <ele>107.6</ele>
        <time>2017-05-21T08:29:45Z</time>
      </trkpt>
      <trkpt lat="43.66249" lon="3.80838">
        <ele>107.4</ele>
        <time>2017-05-21T08:29:47Z</time>
      </trkpt>
      <trkpt lat="43.66252" lon="3.8084">
        <ele>107.1</ele>
        <time>2017-05-21T08:29:48Z</time>
      </trkpt>
      <trkpt lat="43.66257" lon="3.80842">
        <ele>107.8</ele>
        <time>2017-05-21T08:29:50Z</time>
      </trkpt>
      <trkpt lat="43.66261" lon="3.80842">
        <ele>108.2</ele>
        <time>2017-05-21T08:29:51Z</time>
      </trkpt>
      <trkpt lat="43.66264" lon="3.80844">
        <ele>108</ele>
        <time>2017-05-21T08:29:52Z</time>
      </trkpt>
      <trkpt lat="43.66267" lon="3.80847">
        <ele>108.3</ele>
        <time>2017-05-21T08:29:54Z</time>
      </trkpt>
      <trkpt lat="43.66269" lon="3.80851">
        <ele>107.9</ele>
        <time>2017-05-21T08:29:56Z</time>
      </trkpt>
      <trkpt lat="43.66272" lon="3.80852">
        <ele>107.9</ele>
        <time>2017-05-21T08:29:57Z</time>
      </trkpt>
      <trkpt lat="43.66275" lon="3.80853">
        <ele>107.4</ele>
        <time>2017-05-21T08:29:59Z</time>
      </trkpt>
      <trkpt lat="43.66278" lon="3.80856">
        <ele>107.6</ele>
        <time>2017-05-21T08:30:01Z</time>
      </trkpt>
      <trkpt lat="43.66282" lon="3.80858">
        <ele>107</ele>
        <time>2017-05-21T08:30:03Z</time>
      </trkpt>
      <trkpt lat="43.66284" lon="3.80859">
        <ele>107</ele>
        <time>2017-05-21T08:30:04Z</time>
      </trkpt>
      <trkpt lat="43.66287" lon="3.80863">
        <ele>106.4</ele>
        <time>2017-05-21T08:30:07Z</time>
      </trkpt>
      <trkpt lat="43.6629" lon="3.80866">
        <ele>105.8</ele>
        <time>2017-05-21T08:30:09Z</time>
      </trkpt>
      <trkpt lat="43.66293" lon="3.80867">
        <ele>106</ele>
        <time>2017-05-21T08:30:11Z</time>
      </trkpt>
      <trkpt lat="43.66296" lon="3.80874">
        <ele>104.8</ele>
        <time>2017-05-21T08:30:13Z</time>
      </trkpt>
      <trkpt lat="43.66298" lon="3.80878">
        <ele>104.4</ele>
        <time>2017-05-21T08:30:14Z</time>
      </trkpt>
      <trkpt lat="43.66299" lon="3.80885">
        <ele>103.7</ele>
        <time>2017-05-21T08:30:16Z</time>
      </trkpt>
      <trkpt lat="43.66298" lon="3.80893">
        <ele>102.5</ele>
        <time>2017-05-21T08:30:18Z</time>
      </trkpt>
      <trkpt lat="43.66297" lon="3.80899">
        <ele>101.8</ele>
        <time>2017-05-21T08:30:19Z</time>
      </trkpt>
      <trkpt lat="43.66298" lon="3.80903">
        <ele>101</ele>
        <time>2017-05-21T08:30:20Z</time>
      </trkpt>
      <trkpt lat="43.66299" lon="3.80909">
        <ele>99.4</ele>
        <time>2017-05-21T08:30:21Z</time>
      </trkpt>
      <trkpt lat="43.66299" lon="3.80913">
        <ele>98.7</ele>
        <time>2017-05-21T08:30:22Z</time>
      </trkpt>
      <trkpt lat="43.66301" lon="3.80917">
        <ele>98.8</ele>
        <time>2017-05-21T08:30:23Z</time>
      </trkpt>
      <trkpt lat="43.66303" lon="3.8092">
        <ele>98.8</ele>
        <time>2017-05-21T08:30:24Z</time>
      </trkpt>
      <trkpt lat="43.66303" lon="3.80925">
        <ele>98.8</ele>
        <time>2017-05-21T08:30:25Z</time>
      </trkpt>
      <trkpt lat="43.66304" lon="3.80929">
        <ele>98.1</ele>
        <time>2017-05-21T08:30:26Z</time>
      </trkpt>
      <trkpt lat="43.66305" lon="3.80935">
        <ele>96.7</ele>
        <time>2017-05-21T08:30:27Z</time>
      </trkpt>
      <trkpt lat="43.66307" lon="3.8094">
        <ele>96.8</ele>
        <time>2017-05-21T08:30:28Z</time>
      </trkpt>
      <trkpt lat="43.66307" lon="3.80945">
        <ele>96.2</ele>
        <time>2017-05-21T08:30:29Z</time>
      </trkpt>
      <trkpt lat="43.66307" lon="3.80949">
        <ele>95.7</ele>
        <time>2017-05-21T08:30:30Z</time>
      </trkpt>
      <trkpt lat="43.66309" lon="3.80955">
        <ele>95.9</ele>
        <time>2017-05-21T08:30:32Z</time>
      </trkpt>
      <trkpt lat="43.66314" lon="3.80959">
        <ele>96.1</ele>
        <time>2017-05-21T08:30:34Z</time>
      </trkpt>
      <trkpt lat="43.66315" lon="3.80964">
        <ele>95</ele>
        <time>2017-05-21T08:30:36Z</time>
      </trkpt>
      <trkpt lat="43.66316" lon="3.80968">
        <ele>95.2</ele>
        <time>2017-05-21T08:30:40Z</time>
      </trkpt>
      <trkpt lat="43.66319" lon="3.80973">
        <ele>95.3</ele>
        <time>2017-05-21T08:30:43Z</time>
      </trkpt>
      <trkpt lat="43.66322" lon="3.80974">
        <ele>96</ele>
        <time>2017-05-21T08:30:49Z</time>
      </trkpt>
      <trkpt lat="43.66324" lon="3.80977">
        <ele>95.3</ele>
        <time>2017-05-21T08:31:01Z</time>
      </trkpt>
      <trkpt lat="43.66326" lon="3.80982">
        <ele>95.3</ele>
        <time>2017-05-21T08:31:03Z</time>
      </trkpt>
      <trkpt lat="43.66328" lon="3.80987">
        <ele>94.4</ele>
        <time>2017-05-21T08:31:05Z</time>
      </trkpt>
      <trkpt lat="43.66328" lon="3.80992">
        <ele>94.2</ele>
        <time>2017-05-21T08:31:07Z</time>
      </trkpt>
      <trkpt lat="43.66328" lon="3.80997">
        <ele>93.4</ele>
        <time>2017-05-21T08:31:09Z</time>
      </trkpt>
      <trkpt lat="43.66331" lon="3.81003">
        <ele>92.2</ele>
        <time>2017-05-21T08:31:11Z</time>
      </trkpt>
      <trkpt lat="43.66333" lon="3.81006">
        <ele>92.2</ele>
        <time>2017-05-21T08:31:13Z</time>
      </trkpt>
      <trkpt lat="43.66334" lon="3.81012">
        <ele>90.2</ele>
        <time>2017-05-21T08:31:15Z</time>
      </trkpt>
      <trkpt lat="43.66334" lon="3.81017">
        <ele>89.2</ele>
        <time>2017-05-21T08:31:17Z</time>
      </trkpt>
      <trkpt lat="43.66334" lon="3.81023">
        <ele>88.3</ele>
        <time>2017-05-21T08:31:19Z</time>
      </trkpt>
      <trkpt lat="43.66336" lon="3.81027">
        <ele>87.4</ele>
        <time>2017-05-21T08:31:20Z</time>
      </trkpt>
      <trkpt lat="43.66336" lon="3.81032">
        <ele>86.6</ele>
        <time>2017-05-21T08:31:21Z</time>
      </trkpt>
      <trkpt lat="43.66334" lon="3.81037">
        <ele>85.2</ele>
        <time>2017-05-21T08:31:22Z</time>
      </trkpt>
      <trkpt lat="43.66334" lon="3.81042">
        <ele>84.5</ele>
        <time>2017-05-21T08:31:23Z</time>
      </trkpt>
      <trkpt lat="43.66336" lon="3.81049">
        <ele>83.9</ele>
        <time>2017-05-21T08:31:25Z</time>
      </trkpt>
      <trkpt lat="43.66339" lon="3.81051">
        <ele>83.5</ele>
        <time>2017-05-21T08:31:26Z</time>
      </trkpt>
      <trkpt lat="43.66343" lon="3.81054">
        <ele>83.7</ele>
        <time>2017-05-21T08:31:27Z</time>
      </trkpt>
      <trkpt lat="43.66345" lon="3.81058">
        <ele>83.6</ele>
        <time>2017-05-21T08:31:28Z</time>
      </trkpt>
      <trkpt lat="43.66347" lon="3.81062">
        <ele>83.6</ele>
        <time>2017-05-21T08:31:29Z</time>
      </trkpt>
      <trkpt lat="43.66349" lon="3.81066">
        <ele>83</ele>
        <time>2017-05-21T08:31:30Z</time>
      </trkpt>
      <trkpt lat="43.66352" lon="3.8107">
        <ele>82.9</ele>
        <time>2017-05-21T08:31:31Z</time>
      </trkpt>
      <trkpt lat="43.66354" lon="3.81074">
        <ele>82.8</ele>
        <time>2017-05-21T08:31:32Z</time>
      </trkpt>
      <trkpt lat="43.66356" lon="3.81077">
        <ele>82.7</ele>
        <time>2017-05-21T08:31:33Z</time>
      </trkpt>
      <trkpt lat="43.66358" lon="3.8108">
        <ele>82.1</ele>
        <time>2017-05-21T08:31:34Z</time>
      </trkpt>
      <trkpt lat="43.6636" lon="3.81084">
        <ele>82.1</ele>
        <time>2017-05-21T08:31:35Z</time>
      </trkpt>
      <trkpt lat="43.66363" lon="3.81087">
        <ele>82.5</ele>
        <time>2017-05-21T08:31:36Z</time>
      </trkpt>
      <trkpt lat="43.66366" lon="3.81089">
        <ele>82.5</ele>
        <time>2017-05-21T08:31:37Z</time>
      </trkpt>
      <trkpt lat="43.6637" lon="3.8109">
        <ele>83</ele>
        <time>2017-05-21T08:31:38Z</time>
      </trkpt>
      <trkpt lat="43.66373" lon="3.81091">
        <ele>83.6</ele>
        <time>2017-05-21T08:31:39Z</time>
      </trkpt>
      <trkpt lat="43.66376" lon="3.81093">
        <ele>83.9</ele>
        <time>2017-05-21T08:31:40Z</time>
      </trkpt>
      <trkpt lat="43.66379" lon="3.81094">
        <ele>84.6</ele>
        <time>2017-05-21T08:31:41Z</time>
      </trkpt>
      <trkpt lat="43.66382" lon="3.81096">
        <ele>85.3</ele>
        <time>2017-05-21T08:31:42Z</time>
      </trkpt>
      <trkpt lat="43.66386" lon="3.811">
        <ele>85.5</ele>
        <time>2017-05-21T08:31:44Z</time>
      </trkpt>
      <trkpt lat="43.66389" lon="3.811">
        <ele>86.1</ele>
        <time>2017-05-21T08:31:45Z</time>
      </trkpt>
      <trkpt lat="43.66392" lon="3.81102">
        <ele>86.2</ele>
        <time>2017-05-21T08:31:46Z</time>
      </trkpt>
      <trkpt lat="43.66395" lon="3.81108">
        <ele>86.2</ele>
        <time>2017-05-21T08:31:48Z</time>
      </trkpt>
      <trkpt lat="43.66397" lon="3.81111">
        <ele>86.2</ele>
        <time>2017-05-21T08:31:49Z</time>
      </trkpt>
      <trkpt lat="43.66401" lon="3.81116">
        <ele>86.1</ele>
        <time>2017-05-21T08:31:51Z</time>
      </trkpt>
      <trkpt lat="43.66404" lon="3.81121">
        <ele>85.8</ele>
        <time>2017-05-21T08:31:53Z</time>
      </trkpt>
      <trkpt lat="43.66406" lon="3.81125">
        <ele>85.6</ele>
        <time>2017-05-21T08:31:54Z</time>
      </trkpt>
      <trkpt lat="43.66408" lon="3.81129">
        <ele>85.1</ele>
        <time>2017-05-21T08:31:55Z</time>
      </trkpt>
      <trkpt lat="43.66411" lon="3.81132">
        <ele>85.2</ele>
        <time>2017-05-21T08:31:57Z</time>
      </trkpt>
      <trkpt lat="43.66414" lon="3.81133">
        <ele>85.5</ele>
        <time>2017-05-21T08:31:58Z</time>
      </trkpt>
      <trkpt lat="43.66417" lon="3.81135">
        <ele>85.9</ele>
        <time>2017-05-21T08:31:59Z</time>
      </trkpt>
      <trkpt lat="43.66422" lon="3.81135">
        <ele>86.7</ele>
        <time>2017-05-21T08:32:01Z</time>
      </trkpt>
      <trkpt lat="43.66425" lon="3.81137">
        <ele>86.9</ele>
        <time>2017-05-21T08:32:03Z</time>
      </trkpt>
      <trkpt lat="43.66429" lon="3.81138">
        <ele>87.4</ele>
        <time>2017-05-21T08:32:05Z</time>
      </trkpt>
      <trkpt lat="43.66432" lon="3.8114">
        <ele>87.9</ele>
        <time>2017-05-21T08:32:06Z</time>
      </trkpt>
      <trkpt lat="43.66436" lon="3.81141">
        <ele>88</ele>
        <time>2017-05-21T08:32:08Z</time>
      </trkpt>
      <trkpt lat="43.66439" lon="3.81143">
        <ele>88.4</ele>
        <time>2017-05-21T08:32:10Z</time>
      </trkpt>
      <trkpt lat="43.66443" lon="3.81145">
        <ele>88.6</ele>
        <time>2017-05-21T08:32:12Z</time>
      </trkpt>
      <trkpt lat="43.66446" lon="3.81145">
        <ele>88.5</ele>
        <time>2017-05-21T08:32:43Z</time>
      </trkpt>
      <trkpt lat="43.66448" lon="3.81147">
        <ele>88.8</ele>
        <time>2017-05-21T08:32:45Z</time>
      </trkpt>
      <trkpt lat="43.66451" lon="3.81148">
        <ele>89.1</ele>
        <time>2017-05-21T08:32:50Z</time>
      </trkpt>
      <trkpt lat="43.66454" lon="3.8115">
        <ele>89.1</ele>
        <time>2017-05-21T08:33:50Z</time>
      </trkpt>
      <trkpt lat="43.66456" lon="3.81152">
        <ele>89.5</ele>
        <time>2017-05-21T08:33:52Z</time>
      </trkpt>
      <trkpt lat="43.6646" lon="3.81152">
        <ele>90</ele>
        <time>2017-05-21T08:33:54Z</time>
      </trkpt>
      <trkpt lat="43.66463" lon="3.81154">
        <ele>90.3</ele>
        <time>2017-05-21T08:33:56Z</time>
      </trkpt>
      <trkpt lat="43.66466" lon="3.81156">
        <ele>90.8</ele>
        <time>2017-05-21T08:33:58Z</time>
      </trkpt>
      <trkpt lat="43.66469" lon="3.81158">
        <ele>91.3</ele>
        <time>2017-05-21T08:34:00Z</time>
      </trkpt>
      <trkpt lat="43.66473" lon="3.81159">
        <ele>91.8</ele>
        <time>2017-05-21T08:34:02Z</time>
      </trkpt>
      <trkpt lat="43.66477" lon="3.81161">
        <ele>92.9</ele>
        <time>2017-05-21T08:34:04Z</time>
      </trkpt>
      <trkpt lat="43.66481" lon="3.81163">
        <ele>93.4</ele>
        <time>2017-05-21T08:34:06Z</time>
      </trkpt>
      <trkpt lat="43.66484" lon="3.81165">
        <ele>94</ele>
        <time>2017-05-21T08:34:09Z</time>
      </trkpt>
      <trkpt lat="43.66486" lon="3.81168">
        <ele>94</ele>
        <time>2017-05-21T08:34:11Z</time>
      </trkpt>
      <trkpt lat="43.6649" lon="3.81168">
        <ele>95.1</ele>
        <time>2017-05-21T08:34:13Z</time>
      </trkpt>
      <trkpt lat="43.66493" lon="3.8117">
        <ele>95.6</ele>
        <time>2017-05-21T08:34:15Z</time>
      </trkpt>
      <trkpt lat="43.66496" lon="3.81174">
        <ele>96.1</ele>
        <time>2017-05-21T08:34:19Z</time>
      </trkpt>
      <trkpt lat="43.665" lon="3.81175">
        <ele>96.6</ele>
        <time>2017-05-21T08:34:21Z</time>
      </trkpt>
      <trkpt lat="43.66502" lon="3.81179">
        <ele>97.3</ele>
        <time>2017-05-21T08:34:23Z</time>
      </trkpt>
      <trkpt lat="43.66505" lon="3.81183">
        <ele>97.8</ele>
        <time>2017-05-21T08:34:26Z</time>
      </trkpt>
      <trkpt lat="43.66508" lon="3.81184">
        <ele>98.7</ele>
        <time>2017-05-21T08:34:28Z</time>
      </trkpt>
      <trkpt lat="43.66511" lon="3.81189">
        <ele>99.1</ele>
        <time>2017-05-21T08:34:32Z</time>
      </trkpt>
      <trkpt lat="43.66514" lon="3.81191">
        <ele>99.7</ele>
        <time>2017-05-21T08:34:35Z</time>
      </trkpt>
      <trkpt lat="43.66516" lon="3.81195">
        <ele>100.8</ele>
        <time>2017-05-21T08:34:38Z</time>
      </trkpt>
      <trkpt lat="43.66518" lon="3.81199">
        <ele>102</ele>
        <time>2017-05-21T08:34:41Z</time>
      </trkpt>
      <trkpt lat="43.6652" lon="3.81202">
        <ele>102.7</ele>
        <time>2017-05-21T08:34:43Z</time>
      </trkpt>
      <trkpt lat="43.66521" lon="3.81206">
        <ele>104</ele>
        <time>2017-05-21T08:34:48Z</time>
      </trkpt>
      <trkpt lat="43.66521" lon="3.8121">
        <ele>104.9</ele>
        <time>2017-05-21T08:34:52Z</time>
      </trkpt>
      <trkpt lat="43.66521" lon="3.81215">
        <ele>105.9</ele>
        <time>2017-05-21T08:35:09Z</time>
      </trkpt>
      <trkpt lat="43.66522" lon="3.81218">
        <ele>106.9</ele>
        <time>2017-05-21T08:35:30Z</time>
      </trkpt>
      <trkpt lat="43.66522" lon="3.81223">
        <ele>107.9</ele>
        <time>2017-05-21T08:35:39Z</time>
      </trkpt>
      <trkpt lat="43.66524" lon="3.81225">
        <ele>108.1</ele>
        <time>2017-05-21T08:35:45Z</time>
      </trkpt>
      <trkpt lat="43.66525" lon="3.8123">
        <ele>109.1</ele>
        <time>2017-05-21T08:35:50Z</time>
      </trkpt>
      <trkpt lat="43.66525" lon="3.81234">
        <ele>110</ele>
        <time>2017-05-21T08:35:58Z</time>
      </trkpt>
      <trkpt lat="43.66521" lon="3.81237">
        <ele>109.6</ele>
        <time>2017-05-21T08:36:46Z</time>
      </trkpt>
      <trkpt lat="43.66516" lon="3.8124">
        <ele>108.9</ele>
        <time>2017-05-21T08:36:48Z</time>
      </trkpt>
      <trkpt lat="43.66513" lon="3.81241">
        <ele>108.6</ele>
        <time>2017-05-21T08:36:49Z</time>
      </trkpt>
      <trkpt lat="43.6651" lon="3.81243">
        <ele>108.1</ele>
        <time>2017-05-21T08:36:50Z</time>
      </trkpt>
      <trkpt lat="43.66505" lon="3.81242">
        <ele>107.4</ele>
        <time>2017-05-21T08:36:51Z</time>
      </trkpt>
      <trkpt lat="43.66499" lon="3.81242">
        <ele>106.5</ele>
        <time>2017-05-21T08:36:52Z</time>
      </trkpt>
      <trkpt lat="43.66493" lon="3.81242">
        <ele>105.2</ele>
        <time>2017-05-21T08:36:53Z</time>
      </trkpt>
      <trkpt lat="43.66486" lon="3.81242">
        <ele>105</ele>
        <time>2017-05-21T08:36:54Z</time>
      </trkpt>
      <trkpt lat="43.6648" lon="3.81243">
        <ele>105</ele>
        <time>2017-05-21T08:36:55Z</time>
      </trkpt>
      <trkpt lat="43.66471" lon="3.81242">
        <ele>104.9</ele>
        <time>2017-05-21T08:36:56Z</time>
      </trkpt>
      <trkpt lat="43.66463" lon="3.81241">
        <ele>104.9</ele>
        <time>2017-05-21T08:36:57Z</time>
      </trkpt>
      <trkpt lat="43.66455" lon="3.81241">
        <ele>104.5</ele>
        <time>2017-05-21T08:36:58Z</time>
      </trkpt>
      <trkpt lat="43.66448" lon="3.81241">
        <ele>104.3</ele>
        <time>2017-05-21T08:36:59Z</time>
      </trkpt>
      <trkpt lat="43.66441" lon="3.81241">
        <ele>104.1</ele>
        <time>2017-05-21T08:37:00Z</time>
      </trkpt>
      <trkpt lat="43.66434" lon="3.81242">
        <ele>103.6</ele>
        <time>2017-05-21T08:37:01Z</time>
      </trkpt>
      <trkpt lat="43.66426" lon="3.81243">
        <ele>103.4</ele>
        <time>2017-05-21T08:37:02Z</time>
      </trkpt>
      <trkpt lat="43.66419" lon="3.81243">
        <ele>103.1</ele>
        <time>2017-05-21T08:37:03Z</time>
      </trkpt>
      <trkpt lat="43.66411" lon="3.81244">
        <ele>102.8</ele>
        <time>2017-05-21T08:37:04Z</time>
      </trkpt>
      <trkpt lat="43.66403" lon="3.81243">
        <ele>102.5</ele>
        <time>2017-05-21T08:37:05Z</time>
      </trkpt>
      <trkpt lat="43.66395" lon="3.81243">
        <ele>102.3</ele>
        <time>2017-05-21T08:37:06Z</time>
      </trkpt>
      <trkpt lat="43.66387" lon="3.81243">
        <ele>102.2</ele>
        <time>2017-05-21T08:37:07Z</time>
      </trkpt>
      <trkpt lat="43.66378" lon="3.81243">
        <ele>101.9</ele>
        <time>2017-05-21T08:37:08Z</time>
      </trkpt>
      <trkpt lat="43.66369" lon="3.81241">
        <ele>101.5</ele>
        <time>2017-05-21T08:37:09Z</time>
      </trkpt>
      <trkpt lat="43.6636" lon="3.81241">
        <ele>101.3</ele>
        <time>2017-05-21T08:37:10Z</time>
      </trkpt>
      <trkpt lat="43.66351" lon="3.81242">
        <ele>100.9</ele>
        <time>2017-05-21T08:37:11Z</time>
      </trkpt>
      <trkpt lat="43.66344" lon="3.81244">
        <ele>100.4</ele>
        <time>2017-05-21T08:37:12Z</time>
      </trkpt>
      <trkpt lat="43.66336" lon="3.81245">
        <ele>99.9</ele>
        <time>2017-05-21T08:37:13Z</time>
      </trkpt>
      <trkpt lat="43.66327" lon="3.81245">
        <ele>99.3</ele>
        <time>2017-05-21T08:37:14Z</time>
      </trkpt>
      <trkpt lat="43.6632" lon="3.81245">
        <ele>98.9</ele>
        <time>2017-05-21T08:37:15Z</time>
      </trkpt>
      <trkpt lat="43.66312" lon="3.81246">
        <ele>98.5</ele>
        <time>2017-05-21T08:37:16Z</time>
      </trkpt>
      <trkpt lat="43.66304" lon="3.81249">
        <ele>97.8</ele>
        <time>2017-05-21T08:37:17Z</time>
      </trkpt>
      <trkpt lat="43.66295" lon="3.81251">
        <ele>97.3</ele>
        <time>2017-05-21T08:37:18Z</time>
      </trkpt>
      <trkpt lat="43.66286" lon="3.81255">
        <ele>96.6</ele>
        <time>2017-05-21T08:37:19Z</time>
      </trkpt>
      <trkpt lat="43.66279" lon="3.8126">
        <ele>96.1</ele>
        <time>2017-05-21T08:37:20Z</time>
      </trkpt>
      <trkpt lat="43.66273" lon="3.81265">
        <ele>95.7</ele>
        <time>2017-05-21T08:37:21Z</time>
      </trkpt>
      <trkpt lat="43.66266" lon="3.81268">
        <ele>95.1</ele>
        <time>2017-05-21T08:37:22Z</time>
      </trkpt>
      <trkpt lat="43.66258" lon="3.8127">
        <ele>93.9</ele>
        <time>2017-05-21T08:37:23Z</time>
      </trkpt>
      <trkpt lat="43.6625" lon="3.8127">
        <ele>93</ele>
        <time>2017-05-21T08:37:24Z</time>
      </trkpt>
      <trkpt lat="43.66243" lon="3.81271">
        <ele>92.3</ele>
        <time>2017-05-21T08:37:25Z</time>
      </trkpt>
      <trkpt lat="43.66235" lon="3.81273">
        <ele>91.3</ele>
        <time>2017-05-21T08:37:26Z</time>
      </trkpt>
      <trkpt lat="43.66228" lon="3.81275">
        <ele>90.5</ele>
        <time>2017-05-21T08:37:27Z</time>
      </trkpt>
      <trkpt lat="43.6622" lon="3.81279">
        <ele>89.7</ele>
        <time>2017-05-21T08:37:28Z</time>
      </trkpt>
      <trkpt lat="43.66211" lon="3.81282">
        <ele>88.4</ele>
        <time>2017-05-21T08:37:29Z</time>
      </trkpt>
      <trkpt lat="43.66203" lon="3.81288">
        <ele>87.9</ele>
        <time>2017-05-21T08:37:30Z</time>
      </trkpt>
      <trkpt lat="43.66195" lon="3.81293">
        <ele>87.5</ele>
        <time>2017-05-21T08:37:31Z</time>
      </trkpt>
      <trkpt lat="43.66186" lon="3.81297">
        <ele>87.1</ele>
        <time>2017-05-21T08:37:32Z</time>
      </trkpt>
      <trkpt lat="43.66177" lon="3.81303">
        <ele>86.6</ele>
        <time>2017-05-21T08:37:33Z</time>
      </trkpt>
      <trkpt lat="43.66168" lon="3.81309">
        <ele>85.5</ele>
        <time>2017-05-21T08:37:34Z</time>
      </trkpt>
      <trkpt lat="43.66161" lon="3.81315">
        <ele>85.1</ele>
        <time>2017-05-21T08:37:35Z</time>
      </trkpt>
      <trkpt lat="43.66153" lon="3.81321">
        <ele>84.7</ele>
        <time>2017-05-21T08:37:36Z</time>
      </trkpt>
      <trkpt lat="43.66144" lon="3.81327">
        <ele>84.4</ele>
        <time>2017-05-21T08:37:37Z</time>
      </trkpt>
      <trkpt lat="43.66136" lon="3.81332">
        <ele>84</ele>
        <time>2017-05-21T08:37:38Z</time>
      </trkpt>
      <trkpt lat="43.66128" lon="3.81337">
        <ele>83.5</ele>
        <time>2017-05-21T08:37:39Z</time>
      </trkpt>
      <trkpt lat="43.6612" lon="3.81342">
        <ele>82.8</ele>
        <time>2017-05-21T08:37:40Z</time>
      </trkpt>
      <trkpt lat="43.66111" lon="3.81347">
        <ele>82.3</ele>
        <time>2017-05-21T08:37:41Z</time>
      </trkpt>
      <trkpt lat="43.66103" lon="3.81351">
        <ele>82</ele>
        <time>2017-05-21T08:37:42Z</time>
      </trkpt>
      <trkpt lat="43.66096" lon="3.81356">
        <ele>81.7</ele>
        <time>2017-05-21T08:37:43Z</time>
      </trkpt>
      <trkpt lat="43.66088" lon="3.8136">
        <ele>81.5</ele>
        <time>2017-05-21T08:37:44Z</time>
      </trkpt>
      <trkpt lat="43.6608" lon="3.81364">
        <ele>81.4</ele>
        <time>2017-05-21T08:37:45Z</time>
      </trkpt>
      <trkpt lat="43.66071" lon="3.81366">
        <ele>81.2</ele>
        <time>2017-05-21T08:37:46Z</time>
      </trkpt>
      <trkpt lat="43.66063" lon="3.8137">
        <ele>81.1</ele>
        <time>2017-05-21T08:37:47Z</time>
      </trkpt>
      <trkpt lat="43.66054" lon="3.81374">
        <ele>81</ele>
        <time>2017-05-21T08:37:48Z</time>
      </trkpt>
      <trkpt lat="43.66046" lon="3.81378">
        <ele>80.9</ele>
        <time>2017-05-21T08:37:49Z</time>
      </trkpt>
      <trkpt lat="43.66037" lon="3.81381">
        <ele>80.8</ele>
        <time>2017-05-21T08:37:50Z</time>
      </trkpt>
      <trkpt lat="43.66029" lon="3.81384">
        <ele>80.8</ele>
        <time>2017-05-21T08:37:51Z</time>
      </trkpt>
      <trkpt lat="43.6602" lon="3.81386">
        <ele>80.7</ele>
        <time>2017-05-21T08:37:52Z</time>
      </trkpt>
      <trkpt lat="43.66012" lon="3.81387">
        <ele>80.6</ele>
        <time>2017-05-21T08:37:53Z</time>
      </trkpt>
      <trkpt lat="43.66002" lon="3.8139">
        <ele>80.5</ele>
        <time>2017-05-21T08:37:54Z</time>
      </trkpt>
      <trkpt lat="43.65995" lon="3.81391">
        <ele>80.4</ele>
        <time>2017-05-21T08:37:55Z</time>
      </trkpt>
      <trkpt lat="43.65988" lon="3.81394">
        <ele>80.3</ele>
        <time>2017-05-21T08:37:56Z</time>
      </trkpt>
      <trkpt lat="43.65981" lon="3.81398">
        <ele>80.3</ele>
        <time>2017-05-21T08:37:57Z</time>
      </trkpt>
      <trkpt lat="43.65975" lon="3.81402">
        <ele>80.2</ele>
        <time>2017-05-21T08:37:58Z</time>
      </trkpt>
      <trkpt lat="43.65968" lon="3.81406">
        <ele>80.2</ele>
        <time>2017-05-21T08:37:59Z</time>
      </trkpt>
      <trkpt lat="43.65961" lon="3.81409">
        <ele>80.1</ele>
        <time>2017-05-21T08:38:00Z</time>
      </trkpt>
      <trkpt lat="43.65955" lon="3.81411">
        <ele>80.1</ele>
        <time>2017-05-21T08:38:01Z</time>
      </trkpt>
      <trkpt lat="43.65949" lon="3.81412">
        <ele>80</ele>
        <time>2017-05-21T08:38:02Z</time>
      </trkpt>
      <trkpt lat="43.65945" lon="3.81408">
        <ele>80</ele>
        <time>2017-05-21T08:38:03Z</time>
      </trkpt>
      <trkpt lat="43.65943" lon="3.81403">
        <ele>80</ele>
        <time>2017-05-21T08:38:04Z</time>
      </trkpt>
      <trkpt lat="43.65942" lon="3.81395">
        <ele>79.6</ele>
        <time>2017-05-21T08:38:05Z</time>
      </trkpt>
      <trkpt lat="43.65941" lon="3.81388">
        <ele>79.5</ele>
        <time>2017-05-21T08:38:06Z</time>
      </trkpt>
      <trkpt lat="43.6594" lon="3.8138">
        <ele>79.4</ele>
        <time>2017-05-21T08:38:07Z</time>
      </trkpt>
      <trkpt lat="43.65938" lon="3.81372">
        <ele>79.5</ele>
        <time>2017-05-21T08:38:08Z</time>
      </trkpt>
      <trkpt lat="43.65935" lon="3.81365">
        <ele>79.6</ele>
        <time>2017-05-21T08:38:09Z</time>
      </trkpt>
      <trkpt lat="43.65932" lon="3.81356">
        <ele>79.6</ele>
        <time>2017-05-21T08:38:10Z</time>
      </trkpt>
      <trkpt lat="43.6593" lon="3.81348">
        <ele>79.2</ele>
        <time>2017-05-21T08:38:11Z</time>
      </trkpt>
      <trkpt lat="43.65926" lon="3.8134">
        <ele>79.1</ele>
        <time>2017-05-21T08:38:12Z</time>
      </trkpt>
      <trkpt lat="43.65923" lon="3.81333">
        <ele>79</ele>
        <time>2017-05-21T08:38:13Z</time>
      </trkpt>
      <trkpt lat="43.6592" lon="3.81325">
        <ele>79.1</ele>
        <time>2017-05-21T08:38:14Z</time>
      </trkpt>
      <trkpt lat="43.65917" lon="3.81319">
        <ele>79.3</ele>
        <time>2017-05-21T08:38:15Z</time>
      </trkpt>
      <trkpt lat="43.65915" lon="3.81311">
        <ele>79.5</ele>
        <time>2017-05-21T08:38:16Z</time>
      </trkpt>
      <trkpt lat="43.65913" lon="3.81304">
        <ele>79.7</ele>
        <time>2017-05-21T08:38:17Z</time>
      </trkpt>
      <trkpt lat="43.65912" lon="3.81296">
        <ele>79.7</ele>
        <time>2017-05-21T08:38:18Z</time>
      </trkpt>
      <trkpt lat="43.65912" lon="3.81288">
        <ele>79.8</ele>
        <time>2017-05-21T08:38:19Z</time>
      </trkpt>
      <trkpt lat="43.65913" lon="3.8128">
        <ele>79.8</ele>
        <time>2017-05-21T08:38:20Z</time>
      </trkpt>
      <trkpt lat="43.65914" lon="3.81273">
        <ele>79.9</ele>
        <time>2017-05-21T08:38:21Z</time>
      </trkpt>
      <trkpt lat="43.65916" lon="3.81265">
        <ele>80</ele>
        <time>2017-05-21T08:38:22Z</time>
      </trkpt>
      <trkpt lat="43.65917" lon="3.81258">
        <ele>80</ele>
        <time>2017-05-21T08:38:23Z</time>
      </trkpt>
      <trkpt lat="43.65919" lon="3.8125">
        <ele>80</ele>
        <time>2017-05-21T08:38:24Z</time>
      </trkpt>
      <trkpt lat="43.65922" lon="3.81244">
        <ele>79.9</ele>
        <time>2017-05-21T08:38:25Z</time>
      </trkpt>
      <trkpt lat="43.65924" lon="3.81238">
        <ele>79.7</ele>
        <time>2017-05-21T08:38:26Z</time>
      </trkpt>
      <trkpt lat="43.65925" lon="3.81231">
        <ele>79.4</ele>
        <time>2017-05-21T08:38:27Z</time>
      </trkpt>
      <trkpt lat="43.65925" lon="3.81224">
        <ele>79.2</ele>
        <time>2017-05-21T08:38:28Z</time>
      </trkpt>
      <trkpt lat="43.65924" lon="3.81217">
        <ele>79</ele>
        <time>2017-05-21T08:38:29Z</time>
      </trkpt>
      <trkpt lat="43.65923" lon="3.81211">
        <ele>78.9</ele>
        <time>2017-05-21T08:38:30Z</time>
      </trkpt>
      <trkpt lat="43.65921" lon="3.81206">
        <ele>78.9</ele>
        <time>2017-05-21T08:38:31Z</time>
      </trkpt>
      <trkpt lat="43.65917" lon="3.81201">
        <ele>79</ele>
        <time>2017-05-21T08:38:32Z</time>
      </trkpt>
      <trkpt lat="43.65913" lon="3.812">
        <ele>79</ele>
        <time>2017-05-21T08:38:33Z</time>
      </trkpt>
      <trkpt lat="43.65909" lon="3.81199">
        <ele>79</ele>
        <time>2017-05-21T08:38:34Z</time>
      </trkpt>
      <trkpt lat="43.65905" lon="3.81198">
        <ele>78.9</ele>
        <time>2017-05-21T08:38:35Z</time>
      </trkpt>
      <trkpt lat="43.659" lon="3.81198">
        <ele>78.8</ele>
        <time>2017-05-21T08:38:36Z</time>
      </trkpt>
      <trkpt lat="43.65895" lon="3.81197">
        <ele>78.6</ele>
        <time>2017-05-21T08:38:37Z</time>
      </trkpt>
      <trkpt lat="43.6589" lon="3.81196">
        <ele>78.4</ele>
        <time>2017-05-21T08:38:38Z</time>
      </trkpt>
      <trkpt lat="43.65885" lon="3.81195">
        <ele>78.1</ele>
        <time>2017-05-21T08:38:39Z</time>
      </trkpt>
      <trkpt lat="43.6588" lon="3.81194">
        <ele>77.9</ele>
        <time>2017-05-21T08:38:40Z</time>
      </trkpt>
      <trkpt lat="43.65874" lon="3.81193">
        <ele>77.7</ele>
        <time>2017-05-21T08:38:41Z</time>
      </trkpt>
      <trkpt lat="43.65869" lon="3.81192">
        <ele>77.5</ele>
        <time>2017-05-21T08:38:42Z</time>
      </trkpt>
      <trkpt lat="43.65863" lon="3.81191">
        <ele>77.2</ele>
        <time>2017-05-21T08:38:43Z</time>
      </trkpt>
      <trkpt lat="43.65857" lon="3.8119">
        <ele>77</ele>
        <time>2017-05-21T08:38:44Z</time>
      </trkpt>
      <trkpt lat="43.65852" lon="3.8119">
        <ele>76.9</ele>
        <time>2017-05-21T08:38:45Z</time>
      </trkpt>
      <trkpt lat="43.65847" lon="3.81188">
        <ele>76.7</ele>
        <time>2017-05-21T08:38:46Z</time>
      </trkpt>
      <trkpt lat="43.65842" lon="3.81185">
        <ele>76.5</ele>
        <time>2017-05-21T08:38:47Z</time>
      </trkpt>
      <trkpt lat="43.65835" lon="3.81182">
        <ele>76.7</ele>
        <time>2017-05-21T08:38:48Z</time>
      </trkpt>
      <trkpt lat="43.6583" lon="3.81177">
        <ele>76.9</ele>
        <time>2017-05-21T08:38:49Z</time>
      </trkpt>
      <trkpt lat="43.65825" lon="3.81173">
        <ele>77.1</ele>
        <time>2017-05-21T08:38:50Z</time>
      </trkpt>
      <trkpt lat="43.6582" lon="3.81169">
        <ele>77.2</ele>
        <time>2017-05-21T08:38:51Z</time>
      </trkpt>
      <trkpt lat="43.65815" lon="3.81166">
        <ele>77.3</ele>
        <time>2017-05-21T08:38:52Z</time>
      </trkpt>
      <trkpt lat="43.65812" lon="3.81164">
        <ele>77.4</ele>
        <time>2017-05-21T08:38:53Z</time>
      </trkpt>
      <trkpt lat="43.65808" lon="3.8116">
        <ele>77.7</ele>
        <time>2017-05-21T08:38:54Z</time>
      </trkpt>
      <trkpt lat="43.65804" lon="3.81158">
        <ele>77.8</ele>
        <time>2017-05-21T08:38:55Z</time>
      </trkpt>
      <trkpt lat="43.65799" lon="3.81155">
        <ele>77.9</ele>
        <time>2017-05-21T08:38:56Z</time>
      </trkpt>
      <trkpt lat="43.65795" lon="3.8115">
        <ele>77.9</ele>
        <time>2017-05-21T08:38:57Z</time>
      </trkpt>
      <trkpt lat="43.65791" lon="3.81145">
        <ele>77.9</ele>
        <time>2017-05-21T08:38:58Z</time>
      </trkpt>
      <trkpt lat="43.65788" lon="3.81139">
        <ele>78</ele>
        <time>2017-05-21T08:38:59Z</time>
      </trkpt>
      <trkpt lat="43.65785" lon="3.81134">
        <ele>78.3</ele>
        <time>2017-05-21T08:39:00Z</time>
      </trkpt>
      <trkpt lat="43.65783" lon="3.81128">
        <ele>78.7</ele>
        <time>2017-05-21T08:39:01Z</time>
      </trkpt>
      <trkpt lat="43.65781" lon="3.81122">
        <ele>78.8</ele>
        <time>2017-05-21T08:39:02Z</time>
      </trkpt>
      <trkpt lat="43.65778" lon="3.81116">
        <ele>78.7</ele>
        <time>2017-05-21T08:39:03Z</time>
      </trkpt>
      <trkpt lat="43.65773" lon="3.8111">
        <ele>78.5</ele>
        <time>2017-05-21T08:39:04Z</time>
      </trkpt>
      <trkpt lat="43.6577" lon="3.81105">
        <ele>78.2</ele>
        <time>2017-05-21T08:39:05Z</time>
      </trkpt>
      <trkpt lat="43.65766" lon="3.81101">
        <ele>78.1</ele>
        <time>2017-05-21T08:39:06Z</time>
      </trkpt>
      <trkpt lat="43.65763" lon="3.81097">
        <ele>78</ele>
        <time>2017-05-21T08:39:07Z</time>
      </trkpt>
      <trkpt lat="43.65758" lon="3.81093">
        <ele>77.9</ele>
        <time>2017-05-21T08:39:08Z</time>
      </trkpt>
      <trkpt lat="43.65755" lon="3.81091">
        <ele>77.8</ele>
        <time>2017-05-21T08:39:09Z</time>
      </trkpt>
      <trkpt lat="43.65751" lon="3.81087">
        <ele>77.8</ele>
        <time>2017-05-21T08:39:10Z</time>
      </trkpt>
      <trkpt lat="43.65747" lon="3.81082">
        <ele>77.8</ele>
        <time>2017-05-21T08:39:11Z</time>
      </trkpt>
      <trkpt lat="43.65743" lon="3.81079">
        <ele>77.7</ele>
        <time>2017-05-21T08:39:12Z</time>
      </trkpt>
      <trkpt lat="43.65738" lon="3.81075">
        <ele>77.4</ele>
        <time>2017-05-21T08:39:13Z</time>
      </trkpt>
      <trkpt lat="43.65735" lon="3.81071">
        <ele>77.3</ele>
        <time>2017-05-21T08:39:14Z</time>
      </trkpt>
      <trkpt lat="43.65731" lon="3.81068">
        <ele>77.1</ele>
        <time>2017-05-21T08:39:15Z</time>
      </trkpt>
      <trkpt lat="43.65726" lon="3.81064">
        <ele>76.9</ele>
        <time>2017-05-21T08:39:16Z</time>
      </trkpt>
      <trkpt lat="43.65723" lon="3.8106">
        <ele>76.8</ele>
        <time>2017-05-21T08:39:17Z</time>
      </trkpt>
      <trkpt lat="43.6572" lon="3.81056">
        <ele>76.7</ele>
        <time>2017-05-21T08:39:18Z</time>
      </trkpt>
      <trkpt lat="43.65717" lon="3.8105">
        <ele>76.6</ele>
        <time>2017-05-21T08:39:19Z</time>
      </trkpt>
      <trkpt lat="43.65714" lon="3.81046">
        <ele>76.6</ele>
        <time>2017-05-21T08:39:20Z</time>
      </trkpt>
      <trkpt lat="43.6571" lon="3.81041">
        <ele>76.7</ele>
        <time>2017-05-21T08:39:21Z</time>
      </trkpt>
      <trkpt lat="43.65707" lon="3.81036">
        <ele>76.8</ele>
        <time>2017-05-21T08:39:22Z</time>
      </trkpt>
      <trkpt lat="43.65703" lon="3.81031">
        <ele>77.1</ele>
        <time>2017-05-21T08:39:23Z</time>
      </trkpt>
      <trkpt lat="43.657" lon="3.81026">
        <ele>77.4</ele>
        <time>2017-05-21T08:39:24Z</time>
      </trkpt>
      <trkpt lat="43.65698" lon="3.81021">
        <ele>77.5</ele>
        <time>2017-05-21T08:39:25Z</time>
      </trkpt>
      <trkpt lat="43.65695" lon="3.81015">
        <ele>77.5</ele>
        <time>2017-05-21T08:39:26Z</time>
      </trkpt>
      <trkpt lat="43.65692" lon="3.81009">
        <ele>77.4</ele>
        <time>2017-05-21T08:39:27Z</time>
      </trkpt>
      <trkpt lat="43.65689" lon="3.81004">
        <ele>77.3</ele>
        <time>2017-05-21T08:39:28Z</time>
      </trkpt>
      <trkpt lat="43.65685" lon="3.80999">
        <ele>77.3</ele>
        <time>2017-05-21T08:39:29Z</time>
      </trkpt>
      <trkpt lat="43.65682" lon="3.80994">
        <ele>77.2</ele>
        <time>2017-05-21T08:39:30Z</time>
      </trkpt>
      <trkpt lat="43.65678" lon="3.80989">
        <ele>77.2</ele>
        <time>2017-05-21T08:39:31Z</time>
      </trkpt>
      <trkpt lat="43.65676" lon="3.80985">
        <ele>77</ele>
        <time>2017-05-21T08:39:32Z</time>
      </trkpt>
      <trkpt lat="43.65672" lon="3.80981">
        <ele>76.8</ele>
        <time>2017-05-21T08:39:33Z</time>
      </trkpt>
      <trkpt lat="43.65668" lon="3.80976">
        <ele>76.5</ele>
        <time>2017-05-21T08:39:34Z</time>
      </trkpt>
      <trkpt lat="43.65665" lon="3.80972">
        <ele>76.2</ele>
        <time>2017-05-21T08:39:35Z</time>
      </trkpt>
      <trkpt lat="43.65661" lon="3.80967">
        <ele>76.1</ele>
        <time>2017-05-21T08:39:36Z</time>
      </trkpt>
      <trkpt lat="43.65657" lon="3.80963">
        <ele>76</ele>
        <time>2017-05-21T08:39:37Z</time>
      </trkpt>
      <trkpt lat="43.65653" lon="3.80959">
        <ele>76</ele>
        <time>2017-05-21T08:39:38Z</time>
      </trkpt>
      <trkpt lat="43.65649" lon="3.80954">
        <ele>76.1</ele>
        <time>2017-05-21T08:39:39Z</time>
      </trkpt>
      <trkpt lat="43.65645" lon="3.80949">
        <ele>76.1</ele>
        <time>2017-05-21T08:39:40Z</time>
      </trkpt>
      <trkpt lat="43.65641" lon="3.80945">
        <ele>76</ele>
        <time>2017-05-21T08:39:41Z</time>
      </trkpt>
      <trkpt lat="43.65638" lon="3.80941">
        <ele>76</ele>
        <time>2017-05-21T08:39:42Z</time>
      </trkpt>
      <trkpt lat="43.65634" lon="3.80936">
        <ele>75.9</ele>
        <time>2017-05-21T08:39:43Z</time>
      </trkpt>
      <trkpt lat="43.65632" lon="3.80933">
        <ele>75.9</ele>
        <time>2017-05-21T08:39:44Z</time>
      </trkpt>
      <trkpt lat="43.65628" lon="3.80928">
        <ele>75.9</ele>
        <time>2017-05-21T08:39:45Z</time>
      </trkpt>
      <trkpt lat="43.65624" lon="3.80923">
        <ele>75.9</ele>
        <time>2017-05-21T08:39:46Z</time>
      </trkpt>
      <trkpt lat="43.65621" lon="3.80919">
        <ele>75.8</ele>
        <time>2017-05-21T08:39:47Z</time>
      </trkpt>
      <trkpt lat="43.65616" lon="3.80915">
        <ele>76</ele>
        <time>2017-05-21T08:39:48Z</time>
      </trkpt>
      <trkpt lat="43.65612" lon="3.8091">
        <ele>76.2</ele>
        <time>2017-05-21T08:39:49Z</time>
      </trkpt>
      <trkpt lat="43.65607" lon="3.80906">
        <ele>76.4</ele>
        <time>2017-05-21T08:39:50Z</time>
      </trkpt>
      <trkpt lat="43.65603" lon="3.80903">
        <ele>76.5</ele>
        <time>2017-05-21T08:39:51Z</time>
      </trkpt>
      <trkpt lat="43.65598" lon="3.80901">
        <ele>76.6</ele>
        <time>2017-05-21T08:39:52Z</time>
      </trkpt>
      <trkpt lat="43.65593" lon="3.80899">
        <ele>76.7</ele>
        <time>2017-05-21T08:39:53Z</time>
      </trkpt>
      <trkpt lat="43.65589" lon="3.80895">
        <ele>76.7</ele>
        <time>2017-05-21T08:39:54Z</time>
      </trkpt>
      <trkpt lat="43.65585" lon="3.80893">
        <ele>76.7</ele>
        <time>2017-05-21T08:39:55Z</time>
      </trkpt>
      <trkpt lat="43.6558" lon="3.80891">
        <ele>76.7</ele>
        <time>2017-05-21T08:39:56Z</time>
      </trkpt>
      <trkpt lat="43.65575" lon="3.80888">
        <ele>76.6</ele>
        <time>2017-05-21T08:39:57Z</time>
      </trkpt>
      <trkpt lat="43.6557" lon="3.80886">
        <ele>76.4</ele>
        <time>2017-05-21T08:39:58Z</time>
      </trkpt>
      <trkpt lat="43.65564" lon="3.80884">
        <ele>76.2</ele>
        <time>2017-05-21T08:39:59Z</time>
      </trkpt>
      <trkpt lat="43.65559" lon="3.80884">
        <ele>76</ele>
        <time>2017-05-21T08:40:00Z</time>
      </trkpt>
      <trkpt lat="43.65554" lon="3.80882">
        <ele>75.8</ele>
        <time>2017-05-21T08:40:01Z</time>
      </trkpt>
      <trkpt lat="43.65548" lon="3.8088">
        <ele>75.5</ele>
        <time>2017-05-21T08:40:02Z</time>
      </trkpt>
      <trkpt lat="43.65542" lon="3.80878">
        <ele>75.3</ele>
        <time>2017-05-21T08:40:03Z</time>
      </trkpt>
      <trkpt lat="43.65538" lon="3.80877">
        <ele>75.2</ele>
        <time>2017-05-21T08:40:04Z</time>
      </trkpt>
      <trkpt lat="43.65534" lon="3.80876">
        <ele>75.2</ele>
        <time>2017-05-21T08:40:05Z</time>
      </trkpt>
      <trkpt lat="43.65528" lon="3.80874">
        <ele>75.1</ele>
        <time>2017-05-21T08:40:06Z</time>
      </trkpt>
      <trkpt lat="43.65523" lon="3.80873">
        <ele>75.3</ele>
        <time>2017-05-21T08:40:07Z</time>
      </trkpt>
      <trkpt lat="43.65518" lon="3.80871">
        <ele>75.4</ele>
        <time>2017-05-21T08:40:08Z</time>
      </trkpt>
      <trkpt lat="43.65513" lon="3.8087">
        <ele>75.4</ele>
        <time>2017-05-21T08:40:09Z</time>
      </trkpt>
      <trkpt lat="43.65508" lon="3.80868">
        <ele>75.4</ele>
        <time>2017-05-21T08:40:10Z</time>
      </trkpt>
      <trkpt lat="43.65504" lon="3.80865">
        <ele>75.5</ele>
        <time>2017-05-21T08:40:11Z</time>
      </trkpt>
      <trkpt lat="43.655" lon="3.80859">
        <ele>75.5</ele>
        <time>2017-05-21T08:40:12Z</time>
      </trkpt>
      <trkpt lat="43.65498" lon="3.80853">
        <ele>75.5</ele>
        <time>2017-05-21T08:40:13Z</time>
      </trkpt>
      <trkpt lat="43.65497" lon="3.80847">
        <ele>75.7</ele>
        <time>2017-05-21T08:40:14Z</time>
      </trkpt>
      <trkpt lat="43.65497" lon="3.8084">
        <ele>75.9</ele>
        <time>2017-05-21T08:40:15Z</time>
      </trkpt>
      <trkpt lat="43.65496" lon="3.80832">
        <ele>76.3</ele>
        <time>2017-05-21T08:40:16Z</time>
      </trkpt>
      <trkpt lat="43.65497" lon="3.80827">
        <ele>76.6</ele>
        <time>2017-05-21T08:40:17Z</time>
      </trkpt>
      <trkpt lat="43.65498" lon="3.80822">
        <ele>76.8</ele>
        <time>2017-05-21T08:40:18Z</time>
      </trkpt>
      <trkpt lat="43.65499" lon="3.80817">
        <ele>77.1</ele>
        <time>2017-05-21T08:40:19Z</time>
      </trkpt>
      <trkpt lat="43.65499" lon="3.80811">
        <ele>77.5</ele>
        <time>2017-05-21T08:40:20Z</time>
      </trkpt>
      <trkpt lat="43.655" lon="3.80806">
        <ele>78</ele>
        <time>2017-05-21T08:40:21Z</time>
      </trkpt>
      <trkpt lat="43.65502" lon="3.80801">
        <ele>78.6</ele>
        <time>2017-05-21T08:40:22Z</time>
      </trkpt>
      <trkpt lat="43.65501" lon="3.80795">
        <ele>79</ele>
        <time>2017-05-21T08:40:23Z</time>
      </trkpt>
      <trkpt lat="43.65501" lon="3.8079">
        <ele>79.5</ele>
        <time>2017-05-21T08:40:24Z</time>
      </trkpt>
      <trkpt lat="43.65501" lon="3.80785">
        <ele>79.9</ele>
        <time>2017-05-21T08:40:25Z</time>
      </trkpt>
      <trkpt lat="43.65499" lon="3.80782">
        <ele>80.3</ele>
        <time>2017-05-21T08:40:26Z</time>
      </trkpt>
      <trkpt lat="43.65497" lon="3.80779">
        <ele>80.6</ele>
        <time>2017-05-21T08:40:27Z</time>
      </trkpt>
      <trkpt lat="43.65495" lon="3.80776">
        <ele>80.9</ele>
        <time>2017-05-21T08:40:28Z</time>
      </trkpt>
      <trkpt lat="43.65492" lon="3.80773">
        <ele>81</ele>
        <time>2017-05-21T08:40:29Z</time>
      </trkpt>
      <trkpt lat="43.65489" lon="3.80771">
        <ele>81</ele>
        <time>2017-05-21T08:40:30Z</time>
      </trkpt>
      <trkpt lat="43.65485" lon="3.80768">
        <ele>81.2</ele>
        <time>2017-05-21T08:40:31Z</time>
      </trkpt>
      <trkpt lat="43.65481" lon="3.80764">
        <ele>81.4</ele>
        <time>2017-05-21T08:40:32Z</time>
      </trkpt>
      <trkpt lat="43.65477" lon="3.80763">
        <ele>81.7</ele>
        <time>2017-05-21T08:40:33Z</time>
      </trkpt>
      <trkpt lat="43.65473" lon="3.80761">
        <ele>82</ele>
        <time>2017-05-21T08:40:34Z</time>
      </trkpt>
      <trkpt lat="43.65469" lon="3.8076">
        <ele>82.2</ele>
        <time>2017-05-21T08:40:35Z</time>
      </trkpt>
      <trkpt lat="43.65465" lon="3.80758">
        <ele>82.5</ele>
        <time>2017-05-21T08:40:36Z</time>
      </trkpt>
      <trkpt lat="43.65461" lon="3.80758">
        <ele>82.4</ele>
        <time>2017-05-21T08:40:37Z</time>
      </trkpt>
      <trkpt lat="43.65456" lon="3.80757">
        <ele>82.3</ele>
        <time>2017-05-21T08:40:38Z</time>
      </trkpt>
      <trkpt lat="43.65452" lon="3.80757">
        <ele>82.2</ele>
        <time>2017-05-21T08:40:39Z</time>
      </trkpt>
      <trkpt lat="43.65449" lon="3.80757">
        <ele>82.1</ele>
        <time>2017-05-21T08:40:40Z</time>
      </trkpt>
      <trkpt lat="43.65445" lon="3.80757">
        <ele>82.1</ele>
        <time>2017-05-21T08:40:41Z</time>
      </trkpt>
      <trkpt lat="43.65441" lon="3.80757">
        <ele>82.2</ele>
        <time>2017-05-21T08:40:42Z</time>
      </trkpt>
      <trkpt lat="43.65437" lon="3.80757">
        <ele>82.2</ele>
        <time>2017-05-21T08:40:43Z</time>
      </trkpt>
      <trkpt lat="43.65432" lon="3.80756">
        <ele>82.2</ele>
        <time>2017-05-21T08:40:44Z</time>
      </trkpt>
      <trkpt lat="43.65428" lon="3.80756">
        <ele>82.2</ele>
        <time>2017-05-21T08:40:45Z</time>
      </trkpt>
      <trkpt lat="43.65425" lon="3.80756">
        <ele>82.3</ele>
        <time>2017-05-21T08:40:46Z</time>
      </trkpt>
      <trkpt lat="43.65421" lon="3.80755">
        <ele>82.4</ele>
        <time>2017-05-21T08:40:47Z</time>
      </trkpt>
      <trkpt lat="43.65416" lon="3.80753">
        <ele>82.8</ele>
        <time>2017-05-21T08:40:48Z</time>
      </trkpt>
      <trkpt lat="43.65412" lon="3.80752">
        <ele>83</ele>
        <time>2017-05-21T08:40:49Z</time>
      </trkpt>
      <trkpt lat="43.65407" lon="3.80749">
        <ele>83.3</ele>
        <time>2017-05-21T08:40:50Z</time>
      </trkpt>
      <trkpt lat="43.65402" lon="3.80747">
        <ele>83.8</ele>
        <time>2017-05-21T08:40:51Z</time>
      </trkpt>
      <trkpt lat="43.65397" lon="3.80745">
        <ele>84.2</ele>
        <time>2017-05-21T08:40:52Z</time>
      </trkpt>
      <trkpt lat="43.65393" lon="3.80743">
        <ele>84.7</ele>
        <time>2017-05-21T08:40:53Z</time>
      </trkpt>
      <trkpt lat="43.65388" lon="3.80741">
        <ele>85</ele>
        <time>2017-05-21T08:40:54Z</time>
      </trkpt>
      <trkpt lat="43.65383" lon="3.80739">
        <ele>85.2</ele>
        <time>2017-05-21T08:40:55Z</time>
      </trkpt>
      <trkpt lat="43.65378" lon="3.80737">
        <ele>85.5</ele>
        <time>2017-05-21T08:40:56Z</time>
      </trkpt>
      <trkpt lat="43.65373" lon="3.80736">
        <ele>85.7</ele>
        <time>2017-05-21T08:40:57Z</time>
      </trkpt>
      <trkpt lat="43.65368" lon="3.80735">
        <ele>86.1</ele>
        <time>2017-05-21T08:40:58Z</time>
      </trkpt>
      <trkpt lat="43.65363" lon="3.80733">
        <ele>86.4</ele>
        <time>2017-05-21T08:40:59Z</time>
      </trkpt>
      <trkpt lat="43.65359" lon="3.80733">
        <ele>86.5</ele>
        <time>2017-05-21T08:41:00Z</time>
      </trkpt>
      <trkpt lat="43.65353" lon="3.80734">
        <ele>86.8</ele>
        <time>2017-05-21T08:41:01Z</time>
      </trkpt>
      <trkpt lat="43.65348" lon="3.80739">
        <ele>86.5</ele>
        <time>2017-05-21T08:41:02Z</time>
      </trkpt>
      <trkpt lat="43.65343" lon="3.80745">
        <ele>86</ele>
        <time>2017-05-21T08:41:03Z</time>
      </trkpt>
      <trkpt lat="43.65339" lon="3.80752">
        <ele>85.6</ele>
        <time>2017-05-21T08:41:04Z</time>
      </trkpt>
      <trkpt lat="43.65335" lon="3.8076">
        <ele>85.3</ele>
        <time>2017-05-21T08:41:05Z</time>
      </trkpt>
      <trkpt lat="43.65332" lon="3.80769">
        <ele>84.9</ele>
        <time>2017-05-21T08:41:06Z</time>
      </trkpt>
      <trkpt lat="43.65328" lon="3.80777">
        <ele>84.6</ele>
        <time>2017-05-21T08:41:07Z</time>
      </trkpt>
      <trkpt lat="43.65325" lon="3.80787">
        <ele>84.2</ele>
        <time>2017-05-21T08:41:08Z</time>
      </trkpt>
      <trkpt lat="43.65321" lon="3.80796">
        <ele>83.7</ele>
        <time>2017-05-21T08:41:09Z</time>
      </trkpt>
      <trkpt lat="43.65316" lon="3.80805">
        <ele>83.1</ele>
        <time>2017-05-21T08:41:10Z</time>
      </trkpt>
      <trkpt lat="43.65311" lon="3.80814">
        <ele>82.2</ele>
        <time>2017-05-21T08:41:11Z</time>
      </trkpt>
      <trkpt lat="43.65307" lon="3.80823">
        <ele>80.9</ele>
        <time>2017-05-21T08:41:12Z</time>
      </trkpt>
      <trkpt lat="43.65303" lon="3.80831">
        <ele>79.8</ele>
        <time>2017-05-21T08:41:13Z</time>
      </trkpt>
      <trkpt lat="43.65299" lon="3.8084">
        <ele>79</ele>
        <time>2017-05-21T08:41:14Z</time>
      </trkpt>
      <trkpt lat="43.65294" lon="3.80849">
        <ele>78.5</ele>
        <time>2017-05-21T08:41:15Z</time>
      </trkpt>
      <trkpt lat="43.65291" lon="3.80858">
        <ele>78.1</ele>
        <time>2017-05-21T08:41:16Z</time>
      </trkpt>
      <trkpt lat="43.65286" lon="3.80866">
        <ele>77.6</ele>
        <time>2017-05-21T08:41:17Z</time>
      </trkpt>
      <trkpt lat="43.65282" lon="3.80874">
        <ele>76.9</ele>
        <time>2017-05-21T08:41:18Z</time>
      </trkpt>
      <trkpt lat="43.65277" lon="3.80884">
        <ele>75.9</ele>
        <time>2017-05-21T08:41:19Z</time>
      </trkpt>
      <trkpt lat="43.65273" lon="3.80892">
        <ele>75.5</ele>
        <time>2017-05-21T08:41:20Z</time>
      </trkpt>
      <trkpt lat="43.65269" lon="3.809">
        <ele>75.3</ele>
        <time>2017-05-21T08:41:21Z</time>
      </trkpt>
      <trkpt lat="43.65266" lon="3.80907">
        <ele>75.1</ele>
        <time>2017-05-21T08:41:22Z</time>
      </trkpt>
      <trkpt lat="43.65262" lon="3.80915">
        <ele>75</ele>
        <time>2017-05-21T08:41:23Z</time>
      </trkpt>
      <trkpt lat="43.65258" lon="3.80922">
        <ele>74.6</ele>
        <time>2017-05-21T08:41:24Z</time>
      </trkpt>
      <trkpt lat="43.65255" lon="3.8093">
        <ele>73.9</ele>
        <time>2017-05-21T08:41:25Z</time>
      </trkpt>
      <trkpt lat="43.65253" lon="3.80938">
        <ele>73</ele>
        <time>2017-05-21T08:41:26Z</time>
      </trkpt>
      <trkpt lat="43.65251" lon="3.80947">
        <ele>73</ele>
        <time>2017-05-21T08:41:27Z</time>
      </trkpt>
      <trkpt lat="43.65249" lon="3.80956">
        <ele>73</ele>
        <time>2017-05-21T08:41:28Z</time>
      </trkpt>
      <trkpt lat="43.65246" lon="3.80963">
        <ele>73</ele>
        <time>2017-05-21T08:41:29Z</time>
      </trkpt>
      <trkpt lat="43.65242" lon="3.8097">
        <ele>73</ele>
        <time>2017-05-21T08:41:30Z</time>
      </trkpt>
      <trkpt lat="43.65239" lon="3.80977">
        <ele>73</ele>
        <time>2017-05-21T08:41:31Z</time>
      </trkpt>
      <trkpt lat="43.65236" lon="3.80983">
        <ele>73</ele>
        <time>2017-05-21T08:41:32Z</time>
      </trkpt>
      <trkpt lat="43.65233" lon="3.80992">
        <ele>73</ele>
        <time>2017-05-21T08:41:33Z</time>
      </trkpt>
      <trkpt lat="43.65229" lon="3.81">
        <ele>73</ele>
        <time>2017-05-21T08:41:34Z</time>
      </trkpt>
      <trkpt lat="43.65225" lon="3.81007">
        <ele>73</ele>
        <time>2017-05-21T08:41:35Z</time>
      </trkpt>
      <trkpt lat="43.65222" lon="3.81014">
        <ele>73</ele>
        <time>2017-05-21T08:41:36Z</time>
      </trkpt>
      <trkpt lat="43.65218" lon="3.81021">
        <ele>73</ele>
        <time>2017-05-21T08:41:37Z</time>
      </trkpt>
      <trkpt lat="43.65214" lon="3.81027">
        <ele>73</ele>
        <time>2017-05-21T08:41:38Z</time>
      </trkpt>
      <trkpt lat="43.6521" lon="3.81033">
        <ele>73.1</ele>
        <time>2017-05-21T08:41:39Z</time>
      </trkpt>
      <trkpt lat="43.65205" lon="3.81039">
        <ele>73.3</ele>
        <time>2017-05-21T08:41:40Z</time>
      </trkpt>
      <trkpt lat="43.65201" lon="3.81043">
        <ele>73.7</ele>
        <time>2017-05-21T08:41:41Z</time>
      </trkpt>
      <trkpt lat="43.65196" lon="3.81049">
        <ele>74.2</ele>
        <time>2017-05-21T08:41:42Z</time>
      </trkpt>
      <trkpt lat="43.65192" lon="3.81055">
        <ele>74.8</ele>
        <time>2017-05-21T08:41:43Z</time>
      </trkpt>
      <trkpt lat="43.65189" lon="3.8106">
        <ele>75.2</ele>
        <time>2017-05-21T08:41:44Z</time>
      </trkpt>
      <trkpt lat="43.65186" lon="3.81065">
        <ele>75.5</ele>
        <time>2017-05-21T08:41:45Z</time>
      </trkpt>
      <trkpt lat="43.65183" lon="3.8107">
        <ele>75.8</ele>
        <time>2017-05-21T08:41:46Z</time>
      </trkpt>
      <trkpt lat="43.6518" lon="3.81077">
        <ele>76.1</ele>
        <time>2017-05-21T08:41:47Z</time>
      </trkpt>
      <trkpt lat="43.65177" lon="3.81083">
        <ele>76.3</ele>
        <time>2017-05-21T08:41:48Z</time>
      </trkpt>
      <trkpt lat="43.65175" lon="3.8109">
        <ele>76.7</ele>
        <time>2017-05-21T08:41:49Z</time>
      </trkpt>
      <trkpt lat="43.65172" lon="3.81097">
        <ele>77</ele>
        <time>2017-05-21T08:41:50Z</time>
      </trkpt>
      <trkpt lat="43.6517" lon="3.81103">
        <ele>77.2</ele>
        <time>2017-05-21T08:41:51Z</time>
      </trkpt>
      <trkpt lat="43.65168" lon="3.8111">
        <ele>77.2</ele>
        <time>2017-05-21T08:41:52Z</time>
      </trkpt>
      <trkpt lat="43.65167" lon="3.81116">
        <ele>77.2</ele>
        <time>2017-05-21T08:41:53Z</time>
      </trkpt>
      <trkpt lat="43.65165" lon="3.81122">
        <ele>77.1</ele>
        <time>2017-05-21T08:41:54Z</time>
      </trkpt>
      <trkpt lat="43.65163" lon="3.81127">
        <ele>77</ele>
        <time>2017-05-21T08:41:55Z</time>
      </trkpt>
      <trkpt lat="43.65161" lon="3.81132">
        <ele>76.9</ele>
        <time>2017-05-21T08:41:56Z</time>
      </trkpt>
      <trkpt lat="43.65159" lon="3.81138">
        <ele>76.9</ele>
        <time>2017-05-21T08:41:57Z</time>
      </trkpt>
      <trkpt lat="43.65156" lon="3.81144">
        <ele>77</ele>
        <time>2017-05-21T08:41:58Z</time>
      </trkpt>
      <trkpt lat="43.65153" lon="3.81149">
        <ele>77</ele>
        <time>2017-05-21T08:41:59Z</time>
      </trkpt>
      <trkpt lat="43.65151" lon="3.81156">
        <ele>77</ele>
        <time>2017-05-21T08:42:00Z</time>
      </trkpt>
      <trkpt lat="43.65148" lon="3.81165">
        <ele>76.8</ele>
        <time>2017-05-21T08:42:01Z</time>
      </trkpt>
      <trkpt lat="43.65145" lon="3.81172">
        <ele>76.6</ele>
        <time>2017-05-21T08:42:02Z</time>
      </trkpt>
      <trkpt lat="43.65142" lon="3.81182">
        <ele>76.4</ele>
        <time>2017-05-21T08:42:03Z</time>
      </trkpt>
      <trkpt lat="43.65138" lon="3.81191">
        <ele>76.2</ele>
        <time>2017-05-21T08:42:04Z</time>
      </trkpt>
      <trkpt lat="43.65135" lon="3.81201">
        <ele>76</ele>
        <time>2017-05-21T08:42:05Z</time>
      </trkpt>
      <trkpt lat="43.65131" lon="3.81211">
        <ele>75.5</ele>
        <time>2017-05-21T08:42:06Z</time>
      </trkpt>
      <trkpt lat="43.65127" lon="3.81221">
        <ele>74.5</ele>
        <time>2017-05-21T08:42:07Z</time>
      </trkpt>
      <trkpt lat="43.65123" lon="3.81232">
        <ele>73.4</ele>
        <time>2017-05-21T08:42:08Z</time>
      </trkpt>
      <trkpt lat="43.65119" lon="3.81244">
        <ele>72.1</ele>
        <time>2017-05-21T08:42:09Z</time>
      </trkpt>
      <trkpt lat="43.65114" lon="3.81254">
        <ele>71</ele>
        <time>2017-05-21T08:42:10Z</time>
      </trkpt>
      <trkpt lat="43.6511" lon="3.81265">
        <ele>71</ele>
        <time>2017-05-21T08:42:11Z</time>
      </trkpt>
      <trkpt lat="43.65105" lon="3.81274">
        <ele>71</ele>
        <time>2017-05-21T08:42:12Z</time>
      </trkpt>
      <trkpt lat="43.651" lon="3.81282">
        <ele>70.7</ele>
        <time>2017-05-21T08:42:13Z</time>
      </trkpt>
      <trkpt lat="43.65096" lon="3.81291">
        <ele>70.2</ele>
        <time>2017-05-21T08:42:14Z</time>
      </trkpt>
      <trkpt lat="43.65091" lon="3.81301">
        <ele>69</ele>
        <time>2017-05-21T08:42:15Z</time>
      </trkpt>
      <trkpt lat="43.65085" lon="3.81309">
        <ele>68.4</ele>
        <time>2017-05-21T08:42:16Z</time>
      </trkpt>
      <trkpt lat="43.65078" lon="3.81318">
        <ele>68</ele>
        <time>2017-05-21T08:42:17Z</time>
      </trkpt>
      <trkpt lat="43.65073" lon="3.81328">
        <ele>67.9</ele>
        <time>2017-05-21T08:42:18Z</time>
      </trkpt>
      <trkpt lat="43.65067" lon="3.81337">
        <ele>66.1</ele>
        <time>2017-05-21T08:42:19Z</time>
      </trkpt>
      <trkpt lat="43.65061" lon="3.81346">
        <ele>66.5</ele>
        <time>2017-05-21T08:42:20Z</time>
      </trkpt>
      <trkpt lat="43.65058" lon="3.81355">
        <ele>67.2</ele>
        <time>2017-05-21T08:42:21Z</time>
      </trkpt>
      <trkpt lat="43.65054" lon="3.81364">
        <ele>67.8</ele>
        <time>2017-05-21T08:42:22Z</time>
      </trkpt>
      <trkpt lat="43.6505" lon="3.81372">
        <ele>68.3</ele>
        <time>2017-05-21T08:42:23Z</time>
      </trkpt>
      <trkpt lat="43.65047" lon="3.8138">
        <ele>68.9</ele>
        <time>2017-05-21T08:42:24Z</time>
      </trkpt>
      <trkpt lat="43.65044" lon="3.81388">
        <ele>69.5</ele>
        <time>2017-05-21T08:42:25Z</time>
      </trkpt>
      <trkpt lat="43.65041" lon="3.81396">
        <ele>70.2</ele>
        <time>2017-05-21T08:42:26Z</time>
      </trkpt>
      <trkpt lat="43.65037" lon="3.81403">
        <ele>70.9</ele>
        <time>2017-05-21T08:42:27Z</time>
      </trkpt>
      <trkpt lat="43.65034" lon="3.8141">
        <ele>71.7</ele>
        <time>2017-05-21T08:42:28Z</time>
      </trkpt>
      <trkpt lat="43.65031" lon="3.81417">
        <ele>72.4</ele>
        <time>2017-05-21T08:42:29Z</time>
      </trkpt>
      <trkpt lat="43.65029" lon="3.81422">
        <ele>72.9</ele>
        <time>2017-05-21T08:42:30Z</time>
      </trkpt>
      <trkpt lat="43.65026" lon="3.81428">
        <ele>73.5</ele>
        <time>2017-05-21T08:42:31Z</time>
      </trkpt>
      <trkpt lat="43.65023" lon="3.81434">
        <ele>74.1</ele>
        <time>2017-05-21T08:42:32Z</time>
      </trkpt>
      <trkpt lat="43.6502" lon="3.81439">
        <ele>74.7</ele>
        <time>2017-05-21T08:42:33Z</time>
      </trkpt>
      <trkpt lat="43.65017" lon="3.81444">
        <ele>75.4</ele>
        <time>2017-05-21T08:42:34Z</time>
      </trkpt>
      <trkpt lat="43.65015" lon="3.81449">
        <ele>76</ele>
        <time>2017-05-21T08:42:35Z</time>
      </trkpt>
      <trkpt lat="43.65013" lon="3.81454">
        <ele>76.5</ele>
        <time>2017-05-21T08:42:36Z</time>
      </trkpt>
      <trkpt lat="43.65009" lon="3.81458">
        <ele>77.1</ele>
        <time>2017-05-21T08:42:37Z</time>
      </trkpt>
      <trkpt lat="43.65007" lon="3.81462">
        <ele>77.7</ele>
        <time>2017-05-21T08:42:38Z</time>
      </trkpt>
      <trkpt lat="43.65002" lon="3.81463">
        <ele>78</ele>
        <time>2017-05-21T08:42:40Z</time>
      </trkpt>
      <trkpt lat="43.65" lon="3.81461">
        <ele>78</ele>
        <time>2017-05-21T08:42:41Z</time>
      </trkpt>
      <trkpt lat="43.64997" lon="3.81457">
        <ele>77.7</ele>
        <time>2017-05-21T08:42:42Z</time>
      </trkpt>
      <trkpt lat="43.64995" lon="3.81453">
        <ele>77.6</ele>
        <time>2017-05-21T08:42:43Z</time>
      </trkpt>
      <trkpt lat="43.64992" lon="3.81447">
        <ele>77.4</ele>
        <time>2017-05-21T08:42:44Z</time>
      </trkpt>
      <trkpt lat="43.64991" lon="3.81442">
        <ele>77.3</ele>
        <time>2017-05-21T08:42:45Z</time>
      </trkpt>
      <trkpt lat="43.64988" lon="3.81436">
        <ele>77.1</ele>
        <time>2017-05-21T08:42:46Z</time>
      </trkpt>
      <trkpt lat="43.64985" lon="3.8143">
        <ele>76.9</ele>
        <time>2017-05-21T08:42:47Z</time>
      </trkpt>
      <trkpt lat="43.64982" lon="3.81424">
        <ele>76.7</ele>
        <time>2017-05-21T08:42:48Z</time>
      </trkpt>
      <trkpt lat="43.64979" lon="3.81418">
        <ele>76.6</ele>
        <time>2017-05-21T08:42:49Z</time>
      </trkpt>
      <trkpt lat="43.64976" lon="3.81411">
        <ele>76.4</ele>
        <time>2017-05-21T08:42:50Z</time>
      </trkpt>
      <trkpt lat="43.64973" lon="3.81402">
        <ele>76.1</ele>
        <time>2017-05-21T08:42:51Z</time>
      </trkpt>
      <trkpt lat="43.6497" lon="3.81396">
        <ele>75.9</ele>
        <time>2017-05-21T08:42:52Z</time>
      </trkpt>
      <trkpt lat="43.64967" lon="3.81389">
        <ele>75.7</ele>
        <time>2017-05-21T08:42:53Z</time>
      </trkpt>
      <trkpt lat="43.64964" lon="3.81382">
        <ele>75.5</ele>
        <time>2017-05-21T08:42:54Z</time>
      </trkpt>
      <trkpt lat="43.64961" lon="3.81374">
        <ele>75.3</ele>
        <time>2017-05-21T08:42:55Z</time>
      </trkpt>
      <trkpt lat="43.64958" lon="3.81367">
        <ele>75.1</ele>
        <time>2017-05-21T08:42:56Z</time>
      </trkpt>
      <trkpt lat="43.64954" lon="3.81361">
        <ele>74.8</ele>
        <time>2017-05-21T08:42:57Z</time>
      </trkpt>
      <trkpt lat="43.64951" lon="3.81355">
        <ele>74.6</ele>
        <time>2017-05-21T08:42:58Z</time>
      </trkpt>
      <trkpt lat="43.64946" lon="3.81349">
        <ele>74.3</ele>
        <time>2017-05-21T08:42:59Z</time>
      </trkpt>
      <trkpt lat="43.64941" lon="3.81343">
        <ele>74</ele>
        <time>2017-05-21T08:43:00Z</time>
      </trkpt>
      <trkpt lat="43.64935" lon="3.81336">
        <ele>73.7</ele>
        <time>2017-05-21T08:43:01Z</time>
      </trkpt>
      <trkpt lat="43.6493" lon="3.81331">
        <ele>73.5</ele>
        <time>2017-05-21T08:43:02Z</time>
      </trkpt>
      <trkpt lat="43.64925" lon="3.81327">
        <ele>73.2</ele>
        <time>2017-05-21T08:43:03Z</time>
      </trkpt>
      <trkpt lat="43.64919" lon="3.81322">
        <ele>73</ele>
        <time>2017-05-21T08:43:04Z</time>
      </trkpt>
      <trkpt lat="43.64913" lon="3.81319">
        <ele>72.8</ele>
        <time>2017-05-21T08:43:05Z</time>
      </trkpt>
      <trkpt lat="43.64908" lon="3.81316">
        <ele>72.6</ele>
        <time>2017-05-21T08:43:06Z</time>
      </trkpt>
      <trkpt lat="43.64902" lon="3.81313">
        <ele>72.4</ele>
        <time>2017-05-21T08:43:07Z</time>
      </trkpt>
      <trkpt lat="43.64897" lon="3.81312">
        <ele>72.2</ele>
        <time>2017-05-21T08:43:08Z</time>
      </trkpt>
      <trkpt lat="43.64891" lon="3.81311">
        <ele>71.9</ele>
        <time>2017-05-21T08:43:09Z</time>
      </trkpt>
      <trkpt lat="43.64885" lon="3.81311">
        <ele>71.6</ele>
        <time>2017-05-21T08:43:10Z</time>
      </trkpt>
      <trkpt lat="43.6488" lon="3.81313">
        <ele>71.3</ele>
        <time>2017-05-21T08:43:11Z</time>
      </trkpt>
      <trkpt lat="43.64873" lon="3.81314">
        <ele>71.1</ele>
        <time>2017-05-21T08:43:12Z</time>
      </trkpt>
      <trkpt lat="43.64866" lon="3.81315">
        <ele>70.5</ele>
        <time>2017-05-21T08:43:13Z</time>
      </trkpt>
      <trkpt lat="43.64859" lon="3.81314">
        <ele>69.8</ele>
        <time>2017-05-21T08:43:14Z</time>
      </trkpt>
      <trkpt lat="43.64851" lon="3.81311">
        <ele>69</ele>
        <time>2017-05-21T08:43:15Z</time>
      </trkpt>
      <trkpt lat="43.64842" lon="3.81306">
        <ele>68.2</ele>
        <time>2017-05-21T08:43:16Z</time>
      </trkpt>
      <trkpt lat="43.64834" lon="3.81302">
        <ele>67.8</ele>
        <time>2017-05-21T08:43:17Z</time>
      </trkpt>
      <trkpt lat="43.64826" lon="3.81298">
        <ele>67.4</ele>
        <time>2017-05-21T08:43:18Z</time>
      </trkpt>
      <trkpt lat="43.64818" lon="3.81297">
        <ele>67</ele>
        <time>2017-05-21T08:43:19Z</time>
      </trkpt>
      <trkpt lat="43.64809" lon="3.81295">
        <ele>66.3</ele>
        <time>2017-05-21T08:43:20Z</time>
      </trkpt>
      <trkpt lat="43.648" lon="3.81294">
        <ele>65.8</ele>
        <time>2017-05-21T08:43:21Z</time>
      </trkpt>
      <trkpt lat="43.6479" lon="3.81293">
        <ele>65.5</ele>
        <time>2017-05-21T08:43:22Z</time>
      </trkpt>
      <trkpt lat="43.64782" lon="3.81291">
        <ele>65.1</ele>
        <time>2017-05-21T08:43:23Z</time>
      </trkpt>
      <trkpt lat="43.64772" lon="3.81289">
        <ele>64.8</ele>
        <time>2017-05-21T08:43:24Z</time>
      </trkpt>
      <trkpt lat="43.64763" lon="3.81288">
        <ele>64.4</ele>
        <time>2017-05-21T08:43:25Z</time>
      </trkpt>
      <trkpt lat="43.64754" lon="3.81285">
        <ele>64.1</ele>
        <time>2017-05-21T08:43:26Z</time>
      </trkpt>
      <trkpt lat="43.64746" lon="3.81282">
        <ele>63.8</ele>
        <time>2017-05-21T08:43:27Z</time>
      </trkpt>
      <trkpt lat="43.64737" lon="3.8128">
        <ele>63.6</ele>
        <time>2017-05-21T08:43:28Z</time>
      </trkpt>
      <trkpt lat="43.64731" lon="3.81275">
        <ele>63.5</ele>
        <time>2017-05-21T08:43:29Z</time>
      </trkpt>
      <trkpt lat="43.64725" lon="3.81269">
        <ele>63.4</ele>
        <time>2017-05-21T08:43:30Z</time>
      </trkpt>
      <trkpt lat="43.64719" lon="3.81262">
        <ele>63.3</ele>
        <time>2017-05-21T08:43:31Z</time>
      </trkpt>
      <trkpt lat="43.64716" lon="3.81253">
        <ele>63.2</ele>
        <time>2017-05-21T08:43:32Z</time>
      </trkpt>
      <trkpt lat="43.64714" lon="3.81246">
        <ele>63.1</ele>
        <time>2017-05-21T08:43:33Z</time>
      </trkpt>
      <trkpt lat="43.64711" lon="3.81241">
        <ele>63.1</ele>
        <time>2017-05-21T08:43:34Z</time>
      </trkpt>
      <trkpt lat="43.64707" lon="3.81236">
        <ele>63</ele>
        <time>2017-05-21T08:43:35Z</time>
      </trkpt>
      <trkpt lat="43.64703" lon="3.81231">
        <ele>63</ele>
        <time>2017-05-21T08:43:36Z</time>
      </trkpt>
      <trkpt lat="43.64698" lon="3.81224">
        <ele>63</ele>
        <time>2017-05-21T08:43:37Z</time>
      </trkpt>
      <trkpt lat="43.64696" lon="3.81216">
        <ele>62.9</ele>
        <time>2017-05-21T08:43:38Z</time>
      </trkpt>
      <trkpt lat="43.64694" lon="3.81208">
        <ele>62.8</ele>
        <time>2017-05-21T08:43:39Z</time>
      </trkpt>
      <trkpt lat="43.64692" lon="3.81198">
        <ele>62.7</ele>
        <time>2017-05-21T08:43:40Z</time>
      </trkpt>
      <trkpt lat="43.64689" lon="3.81189">
        <ele>62.6</ele>
        <time>2017-05-21T08:43:41Z</time>
      </trkpt>
      <trkpt lat="43.64687" lon="3.8118">
        <ele>62.5</ele>
        <time>2017-05-21T08:43:42Z</time>
      </trkpt>
      <trkpt lat="43.64684" lon="3.81171">
        <ele>62.4</ele>
        <time>2017-05-21T08:43:43Z</time>
      </trkpt>
      <trkpt lat="43.64681" lon="3.81162">
        <ele>62.3</ele>
        <time>2017-05-21T08:43:44Z</time>
      </trkpt>
      <trkpt lat="43.64677" lon="3.81152">
        <ele>62.2</ele>
        <time>2017-05-21T08:43:45Z</time>
      </trkpt>
      <trkpt lat="43.64673" lon="3.81144">
        <ele>62</ele>
        <time>2017-05-21T08:43:46Z</time>
      </trkpt>
      <trkpt lat="43.64667" lon="3.81136">
        <ele>62.3</ele>
        <time>2017-05-21T08:43:47Z</time>
      </trkpt>
      <trkpt lat="43.64662" lon="3.81128">
        <ele>62.8</ele>
        <time>2017-05-21T08:43:48Z</time>
      </trkpt>
      <trkpt lat="43.64656" lon="3.81121">
        <ele>63.2</ele>
        <time>2017-05-21T08:43:49Z</time>
      </trkpt>
      <trkpt lat="43.64652" lon="3.81114">
        <ele>63.6</ele>
        <time>2017-05-21T08:43:50Z</time>
      </trkpt>
      <trkpt lat="43.64647" lon="3.81107">
        <ele>64</ele>
        <time>2017-05-21T08:43:51Z</time>
      </trkpt>
      <trkpt lat="43.64641" lon="3.81099">
        <ele>64.1</ele>
        <time>2017-05-21T08:43:52Z</time>
      </trkpt>
      <trkpt lat="43.64635" lon="3.81092">
        <ele>64.3</ele>
        <time>2017-05-21T08:43:53Z</time>
      </trkpt>
      <trkpt lat="43.6463" lon="3.81086">
        <ele>64.4</ele>
        <time>2017-05-21T08:43:54Z</time>
      </trkpt>
      <trkpt lat="43.64625" lon="3.8108">
        <ele>64.5</ele>
        <time>2017-05-21T08:43:55Z</time>
      </trkpt>
      <trkpt lat="43.6462" lon="3.81075">
        <ele>64.6</ele>
        <time>2017-05-21T08:43:56Z</time>
      </trkpt>
      <trkpt lat="43.64617" lon="3.81072">
        <ele>64.7</ele>
        <time>2017-05-21T08:43:57Z</time>
      </trkpt>
      <trkpt lat="43.64612" lon="3.81067">
        <ele>64.9</ele>
        <time>2017-05-21T08:43:58Z</time>
      </trkpt>
      <trkpt lat="43.6461" lon="3.81059">
        <ele>65</ele>
        <time>2017-05-21T08:43:59Z</time>
      </trkpt>
      <trkpt lat="43.6461" lon="3.81051">
        <ele>65</ele>
        <time>2017-05-21T08:44:00Z</time>
      </trkpt>
      <trkpt lat="43.64609" lon="3.81042">
        <ele>65</ele>
        <time>2017-05-21T08:44:01Z</time>
      </trkpt>
      <trkpt lat="43.64606" lon="3.81034">
        <ele>65</ele>
        <time>2017-05-21T08:44:02Z</time>
      </trkpt>
      <trkpt lat="43.64602" lon="3.8103">
        <ele>65</ele>
        <time>2017-05-21T08:44:03Z</time>
      </trkpt>
      <trkpt lat="43.64596" lon="3.81028">
        <ele>65</ele>
        <time>2017-05-21T08:44:04Z</time>
      </trkpt>
      <trkpt lat="43.6459" lon="3.81026">
        <ele>65</ele>
        <time>2017-05-21T08:44:05Z</time>
      </trkpt>
      <trkpt lat="43.64583" lon="3.81022">
        <ele>65</ele>
        <time>2017-05-21T08:44:06Z</time>
      </trkpt>
      <trkpt lat="43.64577" lon="3.8102">
        <ele>64.4</ele>
        <time>2017-05-21T08:44:07Z</time>
      </trkpt>
      <trkpt lat="43.6457" lon="3.81015">
        <ele>64</ele>
        <time>2017-05-21T08:44:08Z</time>
      </trkpt>
      <trkpt lat="43.64563" lon="3.81009">
        <ele>63.6</ele>
        <time>2017-05-21T08:44:09Z</time>
      </trkpt>
      <trkpt lat="43.64556" lon="3.81005">
        <ele>63.1</ele>
        <time>2017-05-21T08:44:10Z</time>
      </trkpt>
      <trkpt lat="43.6455" lon="3.81">
        <ele>62.5</ele>
        <time>2017-05-21T08:44:11Z</time>
      </trkpt>
      <trkpt lat="43.64542" lon="3.80997">
        <ele>62</ele>
        <time>2017-05-21T08:44:12Z</time>
      </trkpt>
      <trkpt lat="43.64536" lon="3.80995">
        <ele>62</ele>
        <time>2017-05-21T08:44:13Z</time>
      </trkpt>
      <trkpt lat="43.64529" lon="3.80991">
        <ele>62</ele>
        <time>2017-05-21T08:44:14Z</time>
      </trkpt>
      <trkpt lat="43.64523" lon="3.80987">
        <ele>61.8</ele>
        <time>2017-05-21T08:44:15Z</time>
      </trkpt>
      <trkpt lat="43.64518" lon="3.80981">
        <ele>61.2</ele>
        <time>2017-05-21T08:44:16Z</time>
      </trkpt>
      <trkpt lat="43.64512" lon="3.80975">
        <ele>61</ele>
        <time>2017-05-21T08:44:17Z</time>
      </trkpt>
      <trkpt lat="43.64506" lon="3.80969">
        <ele>61</ele>
        <time>2017-05-21T08:44:18Z</time>
      </trkpt>
      <trkpt lat="43.64501" lon="3.80963">
        <ele>61</ele>
        <time>2017-05-21T08:44:19Z</time>
      </trkpt>
      <trkpt lat="43.64495" lon="3.80954">
        <ele>61</ele>
        <time>2017-05-21T08:44:20Z</time>
      </trkpt>
      <trkpt lat="43.64491" lon="3.80947">
        <ele>61.2</ele>
        <time>2017-05-21T08:44:21Z</time>
      </trkpt>
      <trkpt lat="43.64486" lon="3.80938">
        <ele>61.7</ele>
        <time>2017-05-21T08:44:22Z</time>
      </trkpt>
      <trkpt lat="43.64481" lon="3.8093">
        <ele>62.4</ele>
        <time>2017-05-21T08:44:23Z</time>
      </trkpt>
      <trkpt lat="43.64478" lon="3.80923">
        <ele>63.2</ele>
        <time>2017-05-21T08:44:24Z</time>
      </trkpt>
      <trkpt lat="43.64474" lon="3.80916">
        <ele>63.9</ele>
        <time>2017-05-21T08:44:25Z</time>
      </trkpt>
      <trkpt lat="43.6447" lon="3.80909">
        <ele>64</ele>
        <time>2017-05-21T08:44:26Z</time>
      </trkpt>
      <trkpt lat="43.64467" lon="3.80902">
        <ele>64.5</ele>
        <time>2017-05-21T08:44:27Z</time>
      </trkpt>
      <trkpt lat="43.64464" lon="3.80894">
        <ele>65</ele>
        <time>2017-05-21T08:44:28Z</time>
      </trkpt>
      <trkpt lat="43.64462" lon="3.80887">
        <ele>65.7</ele>
        <time>2017-05-21T08:44:29Z</time>
      </trkpt>
      <trkpt lat="43.64459" lon="3.80879">
        <ele>65.9</ele>
        <time>2017-05-21T08:44:30Z</time>
      </trkpt>
      <trkpt lat="43.64455" lon="3.8087">
        <ele>66.1</ele>
        <time>2017-05-21T08:44:31Z</time>
      </trkpt>
      <trkpt lat="43.64451" lon="3.80863">
        <ele>66.2</ele>
        <time>2017-05-21T08:44:32Z</time>
      </trkpt>
      <trkpt lat="43.64445" lon="3.80856">
        <ele>66.6</ele>
        <time>2017-05-21T08:44:33Z</time>
      </trkpt>
      <trkpt lat="43.6444" lon="3.80849">
        <ele>66.5</ele>
        <time>2017-05-21T08:44:34Z</time>
      </trkpt>
      <trkpt lat="43.64434" lon="3.80844">
        <ele>66.8</ele>
        <time>2017-05-21T08:44:35Z</time>
      </trkpt>
      <trkpt lat="43.64428" lon="3.80838">
        <ele>66.8</ele>
        <time>2017-05-21T08:44:36Z</time>
      </trkpt>
      <trkpt lat="43.64423" lon="3.80832">
        <ele>67.1</ele>
        <time>2017-05-21T08:44:37Z</time>
      </trkpt>
      <trkpt lat="43.64418" lon="3.80825">
        <ele>67</ele>
        <time>2017-05-21T08:44:38Z</time>
      </trkpt>
      <trkpt lat="43.64414" lon="3.80818">
        <ele>67</ele>
        <time>2017-05-21T08:44:39Z</time>
      </trkpt>
      <trkpt lat="43.64413" lon="3.80809">
        <ele>67</ele>
        <time>2017-05-21T08:44:40Z</time>
      </trkpt>
      <trkpt lat="43.64413" lon="3.808">
        <ele>67</ele>
        <time>2017-05-21T08:44:41Z</time>
      </trkpt>
      <trkpt lat="43.64415" lon="3.80792">
        <ele>67</ele>
        <time>2017-05-21T08:44:42Z</time>
      </trkpt>
      <trkpt lat="43.64416" lon="3.80783">
        <ele>67</ele>
        <time>2017-05-21T08:44:43Z</time>
      </trkpt>
      <trkpt lat="43.64415" lon="3.80775">
        <ele>67</ele>
        <time>2017-05-21T08:44:44Z</time>
      </trkpt>
      <trkpt lat="43.64414" lon="3.80767">
        <ele>66.9</ele>
        <time>2017-05-21T08:44:45Z</time>
      </trkpt>
      <trkpt lat="43.64411" lon="3.80761">
        <ele>66.8</ele>
        <time>2017-05-21T08:44:46Z</time>
      </trkpt>
      <trkpt lat="43.64407" lon="3.80756">
        <ele>66.9</ele>
        <time>2017-05-21T08:44:47Z</time>
      </trkpt>
      <trkpt lat="43.64404" lon="3.8075">
        <ele>67</ele>
        <time>2017-05-21T08:44:48Z</time>
      </trkpt>
      <trkpt lat="43.64402" lon="3.80743">
        <ele>67.1</ele>
        <time>2017-05-21T08:44:49Z</time>
      </trkpt>
      <trkpt lat="43.644" lon="3.80736">
        <ele>66.9</ele>
        <time>2017-05-21T08:44:50Z</time>
      </trkpt>
      <trkpt lat="43.64399" lon="3.80728">
        <ele>66.7</ele>
        <time>2017-05-21T08:44:51Z</time>
      </trkpt>
      <trkpt lat="43.64398" lon="3.80721">
        <ele>66.5</ele>
        <time>2017-05-21T08:44:52Z</time>
      </trkpt>
      <trkpt lat="43.64396" lon="3.80713">
        <ele>66.1</ele>
        <time>2017-05-21T08:44:53Z</time>
      </trkpt>
      <trkpt lat="43.64393" lon="3.80706">
        <ele>66</ele>
        <time>2017-05-21T08:44:54Z</time>
      </trkpt>
      <trkpt lat="43.6439" lon="3.80701">
        <ele>66.1</ele>
        <time>2017-05-21T08:44:55Z</time>
      </trkpt>
      <trkpt lat="43.64386" lon="3.80696">
        <ele>66.2</ele>
        <time>2017-05-21T08:44:56Z</time>
      </trkpt>
      <trkpt lat="43.64383" lon="3.80691">
        <ele>66.7</ele>
        <time>2017-05-21T08:44:57Z</time>
      </trkpt>
      <trkpt lat="43.64379" lon="3.80687">
        <ele>67</ele>
        <time>2017-05-21T08:44:58Z</time>
      </trkpt>
      <trkpt lat="43.64376" lon="3.80682">
        <ele>67.3</ele>
        <time>2017-05-21T08:44:59Z</time>
      </trkpt>
      <trkpt lat="43.64372" lon="3.80677">
        <ele>67.8</ele>
        <time>2017-05-21T08:45:00Z</time>
      </trkpt>
      <trkpt lat="43.64369" lon="3.80673">
        <ele>67.9</ele>
        <time>2017-05-21T08:45:01Z</time>
      </trkpt>
      <trkpt lat="43.64365" lon="3.80668">
        <ele>68</ele>
        <time>2017-05-21T08:45:02Z</time>
      </trkpt>
      <trkpt lat="43.64362" lon="3.80663">
        <ele>68</ele>
        <time>2017-05-21T08:45:03Z</time>
      </trkpt>
      <trkpt lat="43.6436" lon="3.80657">
        <ele>68</ele>
        <time>2017-05-21T08:45:04Z</time>
      </trkpt>
      <trkpt lat="43.64359" lon="3.8065">
        <ele>68</ele>
        <time>2017-05-21T08:45:05Z</time>
      </trkpt>
      <trkpt lat="43.6436" lon="3.80642">
        <ele>68</ele>
        <time>2017-05-21T08:45:06Z</time>
      </trkpt>
      <trkpt lat="43.6436" lon="3.80635">
        <ele>68</ele>
        <time>2017-05-21T08:45:07Z</time>
      </trkpt>
      <trkpt lat="43.64361" lon="3.80626">
        <ele>68</ele>
        <time>2017-05-21T08:45:08Z</time>
      </trkpt>
      <trkpt lat="43.6436" lon="3.8062">
        <ele>68</ele>
        <time>2017-05-21T08:45:09Z</time>
      </trkpt>
      <trkpt lat="43.64359" lon="3.80613">
        <ele>68</ele>
        <time>2017-05-21T08:45:10Z</time>
      </trkpt>
      <trkpt lat="43.64356" lon="3.80609">
        <ele>68</ele>
        <time>2017-05-21T08:45:11Z</time>
      </trkpt>
      <trkpt lat="43.64352" lon="3.80605">
        <ele>69.3</ele>
        <time>2017-05-21T08:45:12Z</time>
      </trkpt>
      <trkpt lat="43.64348" lon="3.80603">
        <ele>70</ele>
        <time>2017-05-21T08:45:13Z</time>
      </trkpt>
      <trkpt lat="43.64345" lon="3.80599">
        <ele>70.6</ele>
        <time>2017-05-21T08:45:14Z</time>
      </trkpt>
      <trkpt lat="43.64341" lon="3.80595">
        <ele>71.2</ele>
        <time>2017-05-21T08:45:15Z</time>
      </trkpt>
      <trkpt lat="43.64337" lon="3.80591">
        <ele>71.9</ele>
        <time>2017-05-21T08:45:16Z</time>
      </trkpt>
      <trkpt lat="43.64333" lon="3.80588">
        <ele>72.6</ele>
        <time>2017-05-21T08:45:17Z</time>
      </trkpt>
      <trkpt lat="43.6433" lon="3.80584">
        <ele>73.3</ele>
        <time>2017-05-21T08:45:18Z</time>
      </trkpt>
      <trkpt lat="43.64326" lon="3.80581">
        <ele>73.9</ele>
        <time>2017-05-21T08:45:19Z</time>
      </trkpt>
      <trkpt lat="43.64323" lon="3.80578">
        <ele>74.7</ele>
        <time>2017-05-21T08:45:20Z</time>
      </trkpt>
      <trkpt lat="43.6432" lon="3.80573">
        <ele>75.6</ele>
        <time>2017-05-21T08:45:21Z</time>
      </trkpt>
      <trkpt lat="43.64316" lon="3.8057">
        <ele>76.6</ele>
        <time>2017-05-21T08:45:22Z</time>
      </trkpt>
      <trkpt lat="43.64313" lon="3.80567">
        <ele>77.2</ele>
        <time>2017-05-21T08:45:23Z</time>
      </trkpt>
      <trkpt lat="43.6431" lon="3.80565">
        <ele>77.9</ele>
        <time>2017-05-21T08:45:24Z</time>
      </trkpt>
      <trkpt lat="43.64306" lon="3.80562">
        <ele>78.6</ele>
        <time>2017-05-21T08:45:26Z</time>
      </trkpt>
      <trkpt lat="43.64302" lon="3.80561">
        <ele>79.4</ele>
        <time>2017-05-21T08:45:28Z</time>
      </trkpt>
      <trkpt lat="43.64297" lon="3.80558">
        <ele>80.2</ele>
        <time>2017-05-21T08:45:30Z</time>
      </trkpt>
      <trkpt lat="43.64294" lon="3.80557">
        <ele>80.6</ele>
        <time>2017-05-21T08:45:31Z</time>
      </trkpt>
      <trkpt lat="43.64291" lon="3.80554">
        <ele>81.1</ele>
        <time>2017-05-21T08:45:32Z</time>
      </trkpt>
      <trkpt lat="43.64289" lon="3.80552">
        <ele>81.6</ele>
        <time>2017-05-21T08:45:34Z</time>
      </trkpt>
      <trkpt lat="43.64285" lon="3.80547">
        <ele>82.5</ele>
        <time>2017-05-21T08:45:36Z</time>
      </trkpt>
      <trkpt lat="43.64283" lon="3.80543">
        <ele>83.1</ele>
        <time>2017-05-21T08:45:38Z</time>
      </trkpt>
      <trkpt lat="43.64282" lon="3.80538">
        <ele>83.7</ele>
        <time>2017-05-21T08:45:40Z</time>
      </trkpt>
      <trkpt lat="43.64281" lon="3.80533">
        <ele>83.5</ele>
        <time>2017-05-21T08:45:42Z</time>
      </trkpt>
      <trkpt lat="43.64282" lon="3.80528">
        <ele>83.2</ele>
        <time>2017-05-21T08:45:44Z</time>
      </trkpt>
      <trkpt lat="43.64284" lon="3.80523">
        <ele>82.6</ele>
        <time>2017-05-21T08:45:46Z</time>
      </trkpt>
      <trkpt lat="43.64286" lon="3.80519">
        <ele>82.2</ele>
        <time>2017-05-21T08:45:47Z</time>
      </trkpt>
      <trkpt lat="43.64288" lon="3.80513">
        <ele>81.7</ele>
        <time>2017-05-21T08:45:48Z</time>
      </trkpt>
      <trkpt lat="43.64291" lon="3.80509">
        <ele>81.4</ele>
        <time>2017-05-21T08:45:49Z</time>
      </trkpt>
      <trkpt lat="43.64294" lon="3.80504">
        <ele>81.2</ele>
        <time>2017-05-21T08:45:50Z</time>
      </trkpt>
      <trkpt lat="43.64298" lon="3.80498">
        <ele>80.9</ele>
        <time>2017-05-21T08:45:51Z</time>
      </trkpt>
      <trkpt lat="43.64302" lon="3.80492">
        <ele>80.5</ele>
        <time>2017-05-21T08:45:52Z</time>
      </trkpt>
      <trkpt lat="43.64306" lon="3.80485">
        <ele>79.8</ele>
        <time>2017-05-21T08:45:53Z</time>
      </trkpt>
      <trkpt lat="43.6431" lon="3.80479">
        <ele>78.8</ele>
        <time>2017-05-21T08:45:54Z</time>
      </trkpt>
      <trkpt lat="43.64314" lon="3.80472">
        <ele>77.8</ele>
        <time>2017-05-21T08:45:55Z</time>
      </trkpt>
      <trkpt lat="43.64319" lon="3.80465">
        <ele>76.8</ele>
        <time>2017-05-21T08:45:56Z</time>
      </trkpt>
      <trkpt lat="43.64324" lon="3.80456">
        <ele>75.6</ele>
        <time>2017-05-21T08:45:57Z</time>
      </trkpt>
      <trkpt lat="43.64329" lon="3.80449">
        <ele>74.6</ele>
        <time>2017-05-21T08:45:58Z</time>
      </trkpt>
      <trkpt lat="43.64334" lon="3.80441">
        <ele>73.6</ele>
        <time>2017-05-21T08:45:59Z</time>
      </trkpt>
      <trkpt lat="43.64339" lon="3.80432">
        <ele>72.6</ele>
        <time>2017-05-21T08:46:00Z</time>
      </trkpt>
      <trkpt lat="43.64344" lon="3.80423">
        <ele>71.5</ele>
        <time>2017-05-21T08:46:01Z</time>
      </trkpt>
      <trkpt lat="43.6435" lon="3.80416">
        <ele>70.7</ele>
        <time>2017-05-21T08:46:02Z</time>
      </trkpt>
      <trkpt lat="43.64355" lon="3.80408">
        <ele>70.2</ele>
        <time>2017-05-21T08:46:03Z</time>
      </trkpt>
      <trkpt lat="43.64362" lon="3.80399">
        <ele>69.3</ele>
        <time>2017-05-21T08:46:04Z</time>
      </trkpt>
      <trkpt lat="43.64366" lon="3.8039">
        <ele>69</ele>
        <time>2017-05-21T08:46:05Z</time>
      </trkpt>
      <trkpt lat="43.64372" lon="3.80382">
        <ele>68.5</ele>
        <time>2017-05-21T08:46:06Z</time>
      </trkpt>
      <trkpt lat="43.64378" lon="3.80373">
        <ele>67.7</ele>
        <time>2017-05-21T08:46:07Z</time>
      </trkpt>
      <trkpt lat="43.64383" lon="3.80365">
        <ele>67.1</ele>
        <time>2017-05-21T08:46:08Z</time>
      </trkpt>
      <trkpt lat="43.64389" lon="3.80357">
        <ele>66.6</ele>
        <time>2017-05-21T08:46:09Z</time>
      </trkpt>
      <trkpt lat="43.64394" lon="3.80348">
        <ele>66.2</ele>
        <time>2017-05-21T08:46:10Z</time>
      </trkpt>
      <trkpt lat="43.644" lon="3.80339">
        <ele>66</ele>
        <time>2017-05-21T08:46:11Z</time>
      </trkpt>
      <trkpt lat="43.64404" lon="3.8033">
        <ele>66</ele>
        <time>2017-05-21T08:46:12Z</time>
      </trkpt>
      <trkpt lat="43.64408" lon="3.8032">
        <ele>66</ele>
        <time>2017-05-21T08:46:13Z</time>
      </trkpt>
      <trkpt lat="43.64413" lon="3.8031">
        <ele>65.8</ele>
        <time>2017-05-21T08:46:14Z</time>
      </trkpt>
      <trkpt lat="43.64418" lon="3.80301">
        <ele>65.6</ele>
        <time>2017-05-21T08:46:15Z</time>
      </trkpt>
      <trkpt lat="43.64422" lon="3.8029">
        <ele>65.2</ele>
        <time>2017-05-21T08:46:16Z</time>
      </trkpt>
      <trkpt lat="43.64424" lon="3.80279">
        <ele>64.7</ele>
        <time>2017-05-21T08:46:17Z</time>
      </trkpt>
      <trkpt lat="43.64425" lon="3.80268">
        <ele>64</ele>
        <time>2017-05-21T08:46:18Z</time>
      </trkpt>
      <trkpt lat="43.64424" lon="3.80257">
        <ele>63.5</ele>
        <time>2017-05-21T08:46:19Z</time>
      </trkpt>
      <trkpt lat="43.64422" lon="3.80246">
        <ele>63.2</ele>
        <time>2017-05-21T08:46:20Z</time>
      </trkpt>
      <trkpt lat="43.64419" lon="3.80234">
        <ele>62.8</ele>
        <time>2017-05-21T08:46:21Z</time>
      </trkpt>
      <trkpt lat="43.64417" lon="3.80223">
        <ele>62.4</ele>
        <time>2017-05-21T08:46:22Z</time>
      </trkpt>
      <trkpt lat="43.64416" lon="3.80211">
        <ele>62</ele>
        <time>2017-05-21T08:46:23Z</time>
      </trkpt>
      <trkpt lat="43.64416" lon="3.80199">
        <ele>61.6</ele>
        <time>2017-05-21T08:46:24Z</time>
      </trkpt>
      <trkpt lat="43.64417" lon="3.80187">
        <ele>61</ele>
        <time>2017-05-21T08:46:25Z</time>
      </trkpt>
      <trkpt lat="43.64419" lon="3.80174">
        <ele>60.2</ele>
        <time>2017-05-21T08:46:26Z</time>
      </trkpt>
      <trkpt lat="43.64422" lon="3.80162">
        <ele>60</ele>
        <time>2017-05-21T08:46:27Z</time>
      </trkpt>
      <trkpt lat="43.64426" lon="3.80151">
        <ele>58.6</ele>
        <time>2017-05-21T08:46:28Z</time>
      </trkpt>
      <trkpt lat="43.6443" lon="3.8014">
        <ele>57.3</ele>
        <time>2017-05-21T08:46:29Z</time>
      </trkpt>
      <trkpt lat="43.64436" lon="3.80131">
        <ele>56</ele>
        <time>2017-05-21T08:46:30Z</time>
      </trkpt>
      <trkpt lat="43.64442" lon="3.80122">
        <ele>56</ele>
        <time>2017-05-21T08:46:31Z</time>
      </trkpt>
      <trkpt lat="43.64447" lon="3.80114">
        <ele>56</ele>
        <time>2017-05-21T08:46:32Z</time>
      </trkpt>
      <trkpt lat="43.64454" lon="3.80107">
        <ele>56.1</ele>
        <time>2017-05-21T08:46:33Z</time>
      </trkpt>
      <trkpt lat="43.6446" lon="3.801">
        <ele>56.2</ele>
        <time>2017-05-21T08:46:34Z</time>
      </trkpt>
      <trkpt lat="43.64465" lon="3.80094">
        <ele>56.4</ele>
        <time>2017-05-21T08:46:35Z</time>
      </trkpt>
      <trkpt lat="43.64471" lon="3.80087">
        <ele>56.5</ele>
        <time>2017-05-21T08:46:36Z</time>
      </trkpt>
      <trkpt lat="43.64477" lon="3.80082">
        <ele>56.5</ele>
        <time>2017-05-21T08:46:37Z</time>
      </trkpt>
      <trkpt lat="43.64483" lon="3.80078">
        <ele>56.3</ele>
        <time>2017-05-21T08:46:38Z</time>
      </trkpt>
      <trkpt lat="43.64489" lon="3.80076">
        <ele>56.3</ele>
        <time>2017-05-21T08:46:39Z</time>
      </trkpt>
      <trkpt lat="43.64494" lon="3.80079">
        <ele>56.2</ele>
        <time>2017-05-21T08:46:40Z</time>
      </trkpt>
      <trkpt lat="43.64499" lon="3.80083">
        <ele>56.2</ele>
        <time>2017-05-21T08:46:41Z</time>
      </trkpt>
      <trkpt lat="43.64503" lon="3.80087">
        <ele>56.2</ele>
        <time>2017-05-21T08:46:42Z</time>
      </trkpt>
      <trkpt lat="43.64508" lon="3.8009">
        <ele>56.4</ele>
        <time>2017-05-21T08:46:43Z</time>
      </trkpt>
      <trkpt lat="43.64513" lon="3.80093">
        <ele>56.8</ele>
        <time>2017-05-21T08:46:44Z</time>
      </trkpt>
      <trkpt lat="43.64516" lon="3.80096">
        <ele>57</ele>
        <time>2017-05-21T08:46:45Z</time>
      </trkpt>
      <trkpt lat="43.6452" lon="3.80097">
        <ele>57</ele>
        <time>2017-05-21T08:46:46Z</time>
      </trkpt>
      <trkpt lat="43.64524" lon="3.80097">
        <ele>57.2</ele>
        <time>2017-05-21T08:46:47Z</time>
      </trkpt>
      <trkpt lat="43.64527" lon="3.80094">
        <ele>57.3</ele>
        <time>2017-05-21T08:46:48Z</time>
      </trkpt>
      <trkpt lat="43.6453" lon="3.8009">
        <ele>57.5</ele>
        <time>2017-05-21T08:46:49Z</time>
      </trkpt>
      <trkpt lat="43.64533" lon="3.80086">
        <ele>57.6</ele>
        <time>2017-05-21T08:46:50Z</time>
      </trkpt>
      <trkpt lat="43.64536" lon="3.80081">
        <ele>57.8</ele>
        <time>2017-05-21T08:46:51Z</time>
      </trkpt>
      <trkpt lat="43.64539" lon="3.80076">
        <ele>58</ele>
        <time>2017-05-21T08:46:52Z</time>
      </trkpt>
      <trkpt lat="43.64541" lon="3.80069">
        <ele>57.9</ele>
        <time>2017-05-21T08:46:53Z</time>
      </trkpt>
      <trkpt lat="43.64544" lon="3.80064">
        <ele>57.8</ele>
        <time>2017-05-21T08:46:54Z</time>
      </trkpt>
      <trkpt lat="43.64547" lon="3.80058">
        <ele>57.7</ele>
        <time>2017-05-21T08:46:55Z</time>
      </trkpt>
      <trkpt lat="43.6455" lon="3.80051">
        <ele>57.6</ele>
        <time>2017-05-21T08:46:56Z</time>
      </trkpt>
      <trkpt lat="43.64552" lon="3.80046">
        <ele>57.5</ele>
        <time>2017-05-21T08:46:57Z</time>
      </trkpt>
      <trkpt lat="43.64555" lon="3.80039">
        <ele>57.5</ele>
        <time>2017-05-21T08:46:58Z</time>
      </trkpt>
      <trkpt lat="43.64558" lon="3.80034">
        <ele>57.4</ele>
        <time>2017-05-21T08:46:59Z</time>
      </trkpt>
      <trkpt lat="43.6456" lon="3.80027">
        <ele>57.3</ele>
        <time>2017-05-21T08:47:00Z</time>
      </trkpt>
      <trkpt lat="43.64563" lon="3.8002">
        <ele>57.2</ele>
        <time>2017-05-21T08:47:01Z</time>
      </trkpt>
      <trkpt lat="43.64565" lon="3.80014">
        <ele>57.2</ele>
        <time>2017-05-21T08:47:02Z</time>
      </trkpt>
      <trkpt lat="43.64565" lon="3.80007">
        <ele>57.1</ele>
        <time>2017-05-21T08:47:03Z</time>
      </trkpt>
      <trkpt lat="43.64564" lon="3.79998">
        <ele>57</ele>
        <time>2017-05-21T08:47:04Z</time>
      </trkpt>
      <trkpt lat="43.64561" lon="3.79992">
        <ele>56.9</ele>
        <time>2017-05-21T08:47:05Z</time>
      </trkpt>
      <trkpt lat="43.64556" lon="3.79985">
        <ele>56.8</ele>
        <time>2017-05-21T08:47:06Z</time>
      </trkpt>
      <trkpt lat="43.64551" lon="3.7998">
        <ele>56.7</ele>
        <time>2017-05-21T08:47:07Z</time>
      </trkpt>
      <trkpt lat="43.64545" lon="3.79974">
        <ele>56.7</ele>
        <time>2017-05-21T08:47:08Z</time>
      </trkpt>
      <trkpt lat="43.6454" lon="3.79968">
        <ele>56.9</ele>
        <time>2017-05-21T08:47:09Z</time>
      </trkpt>
      <trkpt lat="43.64535" lon="3.79962">
        <ele>57</ele>
        <time>2017-05-21T08:47:10Z</time>
      </trkpt>
      <trkpt lat="43.6453" lon="3.79955">
        <ele>57</ele>
        <time>2017-05-21T08:47:11Z</time>
      </trkpt>
      <trkpt lat="43.64523" lon="3.79949">
        <ele>56.8</ele>
        <time>2017-05-21T08:47:12Z</time>
      </trkpt>
      <trkpt lat="43.64518" lon="3.79942">
        <ele>56.6</ele>
        <time>2017-05-21T08:47:13Z</time>
      </trkpt>
      <trkpt lat="43.64511" lon="3.79937">
        <ele>56.3</ele>
        <time>2017-05-21T08:47:14Z</time>
      </trkpt>
      <trkpt lat="43.64505" lon="3.7993">
        <ele>56</ele>
        <time>2017-05-21T08:47:15Z</time>
      </trkpt>
      <trkpt lat="43.64499" lon="3.79924">
        <ele>55.7</ele>
        <time>2017-05-21T08:47:16Z</time>
      </trkpt>
      <trkpt lat="43.64492" lon="3.79917">
        <ele>55.5</ele>
        <time>2017-05-21T08:47:17Z</time>
      </trkpt>
      <trkpt lat="43.64486" lon="3.7991">
        <ele>55.2</ele>
        <time>2017-05-21T08:47:18Z</time>
      </trkpt>
      <trkpt lat="43.6448" lon="3.79904">
        <ele>55</ele>
        <time>2017-05-21T08:47:19Z</time>
      </trkpt>
      <trkpt lat="43.64474" lon="3.79898">
        <ele>54.8</ele>
        <time>2017-05-21T08:47:20Z</time>
      </trkpt>
      <trkpt lat="43.64469" lon="3.79891">
        <ele>54.6</ele>
        <time>2017-05-21T08:47:21Z</time>
      </trkpt>
      <trkpt lat="43.64462" lon="3.79885">
        <ele>54.5</ele>
        <time>2017-05-21T08:47:22Z</time>
      </trkpt>
      <trkpt lat="43.64457" lon="3.79878">
        <ele>54.4</ele>
        <time>2017-05-21T08:47:23Z</time>
      </trkpt>
      <trkpt lat="43.64451" lon="3.79872">
        <ele>54.3</ele>
        <time>2017-05-21T08:47:24Z</time>
      </trkpt>
      <trkpt lat="43.64446" lon="3.79865">
        <ele>54.2</ele>
        <time>2017-05-21T08:47:25Z</time>
      </trkpt>
      <trkpt lat="43.64443" lon="3.79858">
        <ele>54.2</ele>
        <time>2017-05-21T08:47:26Z</time>
      </trkpt>
      <trkpt lat="43.64443" lon="3.79851">
        <ele>54.1</ele>
        <time>2017-05-21T08:47:27Z</time>
      </trkpt>
      <trkpt lat="43.64444" lon="3.79843">
        <ele>54.1</ele>
        <time>2017-05-21T08:47:28Z</time>
      </trkpt>
      <trkpt lat="43.64447" lon="3.79835">
        <ele>54.1</ele>
        <time>2017-05-21T08:47:29Z</time>
      </trkpt>
      <trkpt lat="43.6445" lon="3.79829">
        <ele>54.5</ele>
        <time>2017-05-21T08:47:30Z</time>
      </trkpt>
      <trkpt lat="43.64453" lon="3.79823">
        <ele>55.2</ele>
        <time>2017-05-21T08:47:31Z</time>
      </trkpt>
      <trkpt lat="43.64455" lon="3.79817">
        <ele>55.5</ele>
        <time>2017-05-21T08:47:32Z</time>
      </trkpt>
      <trkpt lat="43.64457" lon="3.7981">
        <ele>56.2</ele>
        <time>2017-05-21T08:47:33Z</time>
      </trkpt>
      <trkpt lat="43.64458" lon="3.79804">
        <ele>56.5</ele>
        <time>2017-05-21T08:47:34Z</time>
      </trkpt>
      <trkpt lat="43.6446" lon="3.79797">
        <ele>56.5</ele>
        <time>2017-05-21T08:47:35Z</time>
      </trkpt>
      <trkpt lat="43.64464" lon="3.79791">
        <ele>56.5</ele>
        <time>2017-05-21T08:47:36Z</time>
      </trkpt>
      <trkpt lat="43.64467" lon="3.79784">
        <ele>56.6</ele>
        <time>2017-05-21T08:47:37Z</time>
      </trkpt>
      <trkpt lat="43.64469" lon="3.7978">
        <ele>56.6</ele>
        <time>2017-05-21T08:47:38Z</time>
      </trkpt>
      <trkpt lat="43.64473" lon="3.79775">
        <ele>56.6</ele>
        <time>2017-05-21T08:47:39Z</time>
      </trkpt>
      <trkpt lat="43.64477" lon="3.79772">
        <ele>56.6</ele>
        <time>2017-05-21T08:47:40Z</time>
      </trkpt>
      <trkpt lat="43.6448" lon="3.79768">
        <ele>56.7</ele>
        <time>2017-05-21T08:47:41Z</time>
      </trkpt>
      <trkpt lat="43.64484" lon="3.79763">
        <ele>56.7</ele>
        <time>2017-05-21T08:47:42Z</time>
      </trkpt>
      <trkpt lat="43.64488" lon="3.79757">
        <ele>56.7</ele>
        <time>2017-05-21T08:47:43Z</time>
      </trkpt>
      <trkpt lat="43.64491" lon="3.79751">
        <ele>56.7</ele>
        <time>2017-05-21T08:47:44Z</time>
      </trkpt>
      <trkpt lat="43.64496" lon="3.79746">
        <ele>56.8</ele>
        <time>2017-05-21T08:47:45Z</time>
      </trkpt>
      <trkpt lat="43.645" lon="3.79739">
        <ele>56.8</ele>
        <time>2017-05-21T08:47:46Z</time>
      </trkpt>
      <trkpt lat="43.64502" lon="3.79732">
        <ele>56.8</ele>
        <time>2017-05-21T08:47:47Z</time>
      </trkpt>
      <trkpt lat="43.64506" lon="3.79725">
        <ele>56.9</ele>
        <time>2017-05-21T08:47:48Z</time>
      </trkpt>
      <trkpt lat="43.6451" lon="3.79718">
        <ele>56.9</ele>
        <time>2017-05-21T08:47:49Z</time>
      </trkpt>
      <trkpt lat="43.64512" lon="3.79713">
        <ele>56.9</ele>
        <time>2017-05-21T08:47:50Z</time>
      </trkpt>
      <trkpt lat="43.64515" lon="3.79706">
        <ele>57</ele>
        <time>2017-05-21T08:47:51Z</time>
      </trkpt>
      <trkpt lat="43.64518" lon="3.797">
        <ele>57</ele>
        <time>2017-05-21T08:47:52Z</time>
      </trkpt>
      <trkpt lat="43.64521" lon="3.79692">
        <ele>57.1</ele>
        <time>2017-05-21T08:47:53Z</time>
      </trkpt>
      <trkpt lat="43.64524" lon="3.79685">
        <ele>57.1</ele>
        <time>2017-05-21T08:47:54Z</time>
      </trkpt>
      <trkpt lat="43.64526" lon="3.79678">
        <ele>57.1</ele>
        <time>2017-05-21T08:47:55Z</time>
      </trkpt>
      <trkpt lat="43.64529" lon="3.79671">
        <ele>57.2</ele>
        <time>2017-05-21T08:47:56Z</time>
      </trkpt>
      <trkpt lat="43.6453" lon="3.79663">
        <ele>57.2</ele>
        <time>2017-05-21T08:47:57Z</time>
      </trkpt>
      <trkpt lat="43.64532" lon="3.79655">
        <ele>57.3</ele>
        <time>2017-05-21T08:47:58Z</time>
      </trkpt>
      <trkpt lat="43.64535" lon="3.79648">
        <ele>57.3</ele>
        <time>2017-05-21T08:47:59Z</time>
      </trkpt>
      <trkpt lat="43.64538" lon="3.79641">
        <ele>57.5</ele>
        <time>2017-05-21T08:48:00Z</time>
      </trkpt>
      <trkpt lat="43.64542" lon="3.79633">
        <ele>57.6</ele>
        <time>2017-05-21T08:48:01Z</time>
      </trkpt>
      <trkpt lat="43.64545" lon="3.79627">
        <ele>57.6</ele>
        <time>2017-05-21T08:48:02Z</time>
      </trkpt>
      <trkpt lat="43.64548" lon="3.79619">
        <ele>57.7</ele>
        <time>2017-05-21T08:48:03Z</time>
      </trkpt>
      <trkpt lat="43.64551" lon="3.79611">
        <ele>57.7</ele>
        <time>2017-05-21T08:48:04Z</time>
      </trkpt>
      <trkpt lat="43.64554" lon="3.79604">
        <ele>57.8</ele>
        <time>2017-05-21T08:48:05Z</time>
      </trkpt>
      <trkpt lat="43.64556" lon="3.79599">
        <ele>57.8</ele>
        <time>2017-05-21T08:48:06Z</time>
      </trkpt>
      <trkpt lat="43.64559" lon="3.79592">
        <ele>57.9</ele>
        <time>2017-05-21T08:48:07Z</time>
      </trkpt>
      <trkpt lat="43.64562" lon="3.79586">
        <ele>57.9</ele>
        <time>2017-05-21T08:48:08Z</time>
      </trkpt>
      <trkpt lat="43.64565" lon="3.79578">
        <ele>57.9</ele>
        <time>2017-05-21T08:48:09Z</time>
      </trkpt>
      <trkpt lat="43.64568" lon="3.79572">
        <ele>58</ele>
        <time>2017-05-21T08:48:10Z</time>
      </trkpt>
      <trkpt lat="43.64571" lon="3.79566">
        <ele>58.2</ele>
        <time>2017-05-21T08:48:11Z</time>
      </trkpt>
      <trkpt lat="43.64573" lon="3.79559">
        <ele>58.7</ele>
        <time>2017-05-21T08:48:12Z</time>
      </trkpt>
      <trkpt lat="43.64575" lon="3.79552">
        <ele>59.1</ele>
        <time>2017-05-21T08:48:13Z</time>
      </trkpt>
      <trkpt lat="43.64575" lon="3.79545">
        <ele>59.6</ele>
        <time>2017-05-21T08:48:14Z</time>
      </trkpt>
      <trkpt lat="43.64577" lon="3.79539">
        <ele>60</ele>
        <time>2017-05-21T08:48:15Z</time>
      </trkpt>
      <trkpt lat="43.64579" lon="3.79533">
        <ele>60.4</ele>
        <time>2017-05-21T08:48:16Z</time>
      </trkpt>
      <trkpt lat="43.64581" lon="3.79527">
        <ele>60.8</ele>
        <time>2017-05-21T08:48:17Z</time>
      </trkpt>
      <trkpt lat="43.64583" lon="3.79521">
        <ele>61.2</ele>
        <time>2017-05-21T08:48:18Z</time>
      </trkpt>
      <trkpt lat="43.64585" lon="3.79515">
        <ele>61.7</ele>
        <time>2017-05-21T08:48:19Z</time>
      </trkpt>
      <trkpt lat="43.64587" lon="3.79508">
        <ele>62.1</ele>
        <time>2017-05-21T08:48:20Z</time>
      </trkpt>
      <trkpt lat="43.64589" lon="3.79502">
        <ele>62.5</ele>
        <time>2017-05-21T08:48:21Z</time>
      </trkpt>
      <trkpt lat="43.64591" lon="3.79497">
        <ele>62.9</ele>
        <time>2017-05-21T08:48:22Z</time>
      </trkpt>
      <trkpt lat="43.64594" lon="3.79492">
        <ele>63.3</ele>
        <time>2017-05-21T08:48:23Z</time>
      </trkpt>
      <trkpt lat="43.64597" lon="3.79487">
        <ele>63.8</ele>
        <time>2017-05-21T08:48:24Z</time>
      </trkpt>
      <trkpt lat="43.64597" lon="3.79482">
        <ele>64.2</ele>
        <time>2017-05-21T08:48:25Z</time>
      </trkpt>
      <trkpt lat="43.646" lon="3.79477">
        <ele>64.6</ele>
        <time>2017-05-21T08:48:26Z</time>
      </trkpt>
      <trkpt lat="43.646" lon="3.79472">
        <ele>65</ele>
        <time>2017-05-21T08:48:27Z</time>
      </trkpt>
      <trkpt lat="43.64599" lon="3.79468">
        <ele>65</ele>
        <time>2017-05-21T08:48:28Z</time>
      </trkpt>
      <trkpt lat="43.64597" lon="3.79464">
        <ele>65</ele>
        <time>2017-05-21T08:48:29Z</time>
      </trkpt>
      <trkpt lat="43.64595" lon="3.79457">
        <ele>65</ele>
        <time>2017-05-21T08:48:31Z</time>
      </trkpt>
      <trkpt lat="43.64594" lon="3.79454">
        <ele>65</ele>
        <time>2017-05-21T08:48:32Z</time>
      </trkpt>
      <trkpt lat="43.64596" lon="3.79451">
        <ele>65.5</ele>
        <time>2017-05-21T08:48:34Z</time>
      </trkpt>
      <trkpt lat="43.64599" lon="3.79449">
        <ele>65.9</ele>
        <time>2017-05-21T08:48:35Z</time>
      </trkpt>
      <trkpt lat="43.64601" lon="3.79444">
        <ele>66.5</ele>
        <time>2017-05-21T08:48:36Z</time>
      </trkpt>
      <trkpt lat="43.64603" lon="3.79439">
        <ele>66.7</ele>
        <time>2017-05-21T08:48:37Z</time>
      </trkpt>
      <trkpt lat="43.64607" lon="3.79436">
        <ele>67</ele>
        <time>2017-05-21T08:48:38Z</time>
      </trkpt>
      <trkpt lat="43.6461" lon="3.79431">
        <ele>67.2</ele>
        <time>2017-05-21T08:48:39Z</time>
      </trkpt>
      <trkpt lat="43.64613" lon="3.79426">
        <ele>67.5</ele>
        <time>2017-05-21T08:48:40Z</time>
      </trkpt>
      <trkpt lat="43.64616" lon="3.7942">
        <ele>67.8</ele>
        <time>2017-05-21T08:48:41Z</time>
      </trkpt>
      <trkpt lat="43.64621" lon="3.79417">
        <ele>68</ele>
        <time>2017-05-21T08:48:42Z</time>
      </trkpt>
      <trkpt lat="43.64623" lon="3.79412">
        <ele>68.2</ele>
        <time>2017-05-21T08:48:43Z</time>
      </trkpt>
      <trkpt lat="43.64624" lon="3.79406">
        <ele>68.3</ele>
        <time>2017-05-21T08:48:44Z</time>
      </trkpt>
      <trkpt lat="43.64626" lon="3.79403">
        <ele>68.5</ele>
        <time>2017-05-21T08:48:45Z</time>
      </trkpt>
      <trkpt lat="43.64629" lon="3.79398">
        <ele>68.7</ele>
        <time>2017-05-21T08:48:46Z</time>
      </trkpt>
      <trkpt lat="43.64633" lon="3.79394">
        <ele>68.9</ele>
        <time>2017-05-21T08:48:47Z</time>
      </trkpt>
      <trkpt lat="43.64635" lon="3.79389">
        <ele>69.1</ele>
        <time>2017-05-21T08:48:48Z</time>
      </trkpt>
      <trkpt lat="43.64637" lon="3.79384">
        <ele>69.3</ele>
        <time>2017-05-21T08:48:49Z</time>
      </trkpt>
      <trkpt lat="43.6464" lon="3.7938">
        <ele>69.4</ele>
        <time>2017-05-21T08:48:50Z</time>
      </trkpt>
      <trkpt lat="43.6464" lon="3.79375">
        <ele>69.5</ele>
        <time>2017-05-21T08:48:51Z</time>
      </trkpt>
      <trkpt lat="43.64642" lon="3.7937">
        <ele>69.7</ele>
        <time>2017-05-21T08:48:52Z</time>
      </trkpt>
      <trkpt lat="43.64644" lon="3.79364">
        <ele>69.8</ele>
        <time>2017-05-21T08:48:53Z</time>
      </trkpt>
      <trkpt lat="43.64647" lon="3.79357">
        <ele>70</ele>
        <time>2017-05-21T08:48:54Z</time>
      </trkpt>
      <trkpt lat="43.64648" lon="3.79352">
        <ele>70.2</ele>
        <time>2017-05-21T08:48:55Z</time>
      </trkpt>
      <trkpt lat="43.64649" lon="3.79348">
        <ele>70.3</ele>
        <time>2017-05-21T08:48:56Z</time>
      </trkpt>
      <trkpt lat="43.6465" lon="3.79343">
        <ele>70.4</ele>
        <time>2017-05-21T08:48:57Z</time>
      </trkpt>
      <trkpt lat="43.64651" lon="3.79339">
        <ele>70.5</ele>
        <time>2017-05-21T08:48:58Z</time>
      </trkpt>
      <trkpt lat="43.64652" lon="3.79334">
        <ele>70.6</ele>
        <time>2017-05-21T08:48:59Z</time>
      </trkpt>
      <trkpt lat="43.64654" lon="3.79328">
        <ele>70.8</ele>
        <time>2017-05-21T08:49:00Z</time>
      </trkpt>
      <trkpt lat="43.64655" lon="3.79322">
        <ele>70.9</ele>
        <time>2017-05-21T08:49:01Z</time>
      </trkpt>
      <trkpt lat="43.64656" lon="3.79316">
        <ele>71.1</ele>
        <time>2017-05-21T08:49:02Z</time>
      </trkpt>
      <trkpt lat="43.64658" lon="3.79313">
        <ele>71.2</ele>
        <time>2017-05-21T08:49:03Z</time>
      </trkpt>
      <trkpt lat="43.64661" lon="3.79308">
        <ele>71.4</ele>
        <time>2017-05-21T08:49:04Z</time>
      </trkpt>
      <trkpt lat="43.64662" lon="3.79303">
        <ele>71.5</ele>
        <time>2017-05-21T08:49:05Z</time>
      </trkpt>
      <trkpt lat="43.64666" lon="3.79299">
        <ele>71.8</ele>
        <time>2017-05-21T08:49:06Z</time>
      </trkpt>
      <trkpt lat="43.64669" lon="3.79294">
        <ele>72</ele>
        <time>2017-05-21T08:49:07Z</time>
      </trkpt>
      <trkpt lat="43.64673" lon="3.79292">
        <ele>72.3</ele>
        <time>2017-05-21T08:49:08Z</time>
      </trkpt>
      <trkpt lat="43.64678" lon="3.79291">
        <ele>72.9</ele>
        <time>2017-05-21T08:49:09Z</time>
      </trkpt>
      <trkpt lat="43.64683" lon="3.79289">
        <ele>73.4</ele>
        <time>2017-05-21T08:49:10Z</time>
      </trkpt>
      <trkpt lat="43.64688" lon="3.79286">
        <ele>73.8</ele>
        <time>2017-05-21T08:49:11Z</time>
      </trkpt>
      <trkpt lat="43.64694" lon="3.79282">
        <ele>74.3</ele>
        <time>2017-05-21T08:49:12Z</time>
      </trkpt>
      <trkpt lat="43.64697" lon="3.79278">
        <ele>74.7</ele>
        <time>2017-05-21T08:49:13Z</time>
      </trkpt>
      <trkpt lat="43.64699" lon="3.79274">
        <ele>75</ele>
        <time>2017-05-21T08:49:14Z</time>
      </trkpt>
      <trkpt lat="43.64703" lon="3.79268">
        <ele>75.4</ele>
        <time>2017-05-21T08:49:15Z</time>
      </trkpt>
      <trkpt lat="43.64704" lon="3.79264">
        <ele>75.6</ele>
        <time>2017-05-21T08:49:16Z</time>
      </trkpt>
      <trkpt lat="43.64705" lon="3.7926">
        <ele>75.8</ele>
        <time>2017-05-21T08:49:17Z</time>
      </trkpt>
      <trkpt lat="43.64706" lon="3.79256">
        <ele>76</ele>
        <time>2017-05-21T08:49:18Z</time>
      </trkpt>
      <trkpt lat="43.64707" lon="3.79252">
        <ele>76.2</ele>
        <time>2017-05-21T08:49:19Z</time>
      </trkpt>
      <trkpt lat="43.6471" lon="3.79248">
        <ele>76.4</ele>
        <time>2017-05-21T08:49:20Z</time>
      </trkpt>
      <trkpt lat="43.64712" lon="3.79244">
        <ele>76.6</ele>
        <time>2017-05-21T08:49:21Z</time>
      </trkpt>
      <trkpt lat="43.64715" lon="3.79241">
        <ele>76.8</ele>
        <time>2017-05-21T08:49:22Z</time>
      </trkpt>
      <trkpt lat="43.64718" lon="3.79238">
        <ele>77.1</ele>
        <time>2017-05-21T08:49:23Z</time>
      </trkpt>
      <trkpt lat="43.6472" lon="3.79234">
        <ele>77.7</ele>
        <time>2017-05-21T08:49:24Z</time>
      </trkpt>
      <trkpt lat="43.64723" lon="3.79232">
        <ele>78.4</ele>
        <time>2017-05-21T08:49:25Z</time>
      </trkpt>
      <trkpt lat="43.64726" lon="3.79229">
        <ele>79.1</ele>
        <time>2017-05-21T08:49:26Z</time>
      </trkpt>
      <trkpt lat="43.64729" lon="3.79226">
        <ele>79.9</ele>
        <time>2017-05-21T08:49:27Z</time>
      </trkpt>
      <trkpt lat="43.6473" lon="3.79222">
        <ele>80.5</ele>
        <time>2017-05-21T08:49:28Z</time>
      </trkpt>
      <trkpt lat="43.64733" lon="3.79219">
        <ele>81.1</ele>
        <time>2017-05-21T08:49:29Z</time>
      </trkpt>
      <trkpt lat="43.64736" lon="3.79215">
        <ele>81.6</ele>
        <time>2017-05-21T08:49:30Z</time>
      </trkpt>
      <trkpt lat="43.64739" lon="3.79212">
        <ele>82</ele>
        <time>2017-05-21T08:49:31Z</time>
      </trkpt>
      <trkpt lat="43.64743" lon="3.79208">
        <ele>82.2</ele>
        <time>2017-05-21T08:49:32Z</time>
      </trkpt>
      <trkpt lat="43.64746" lon="3.79204">
        <ele>82.4</ele>
        <time>2017-05-21T08:49:33Z</time>
      </trkpt>
      <trkpt lat="43.64748" lon="3.79198">
        <ele>82.6</ele>
        <time>2017-05-21T08:49:34Z</time>
      </trkpt>
      <trkpt lat="43.6475" lon="3.79194">
        <ele>82.8</ele>
        <time>2017-05-21T08:49:35Z</time>
      </trkpt>
      <trkpt lat="43.64752" lon="3.79189">
        <ele>83</ele>
        <time>2017-05-21T08:49:36Z</time>
      </trkpt>
      <trkpt lat="43.64754" lon="3.79185">
        <ele>83.1</ele>
        <time>2017-05-21T08:49:37Z</time>
      </trkpt>
      <trkpt lat="43.64756" lon="3.79182">
        <ele>83.3</ele>
        <time>2017-05-21T08:49:38Z</time>
      </trkpt>
      <trkpt lat="43.64758" lon="3.7918">
        <ele>83.4</ele>
        <time>2017-05-21T08:49:39Z</time>
      </trkpt>
      <trkpt lat="43.64761" lon="3.79178">
        <ele>83.5</ele>
        <time>2017-05-21T08:49:40Z</time>
      </trkpt>
      <trkpt lat="43.64765" lon="3.79173">
        <ele>83.7</ele>
        <time>2017-05-21T08:49:41Z</time>
      </trkpt>
      <trkpt lat="43.64769" lon="3.7917">
        <ele>84</ele>
        <time>2017-05-21T08:49:42Z</time>
      </trkpt>
      <trkpt lat="43.64774" lon="3.79167">
        <ele>83.9</ele>
        <time>2017-05-21T08:49:43Z</time>
      </trkpt>
      <trkpt lat="43.64778" lon="3.79165">
        <ele>83.9</ele>
        <time>2017-05-21T08:49:44Z</time>
      </trkpt>
      <trkpt lat="43.64782" lon="3.79161">
        <ele>83.8</ele>
        <time>2017-05-21T08:49:45Z</time>
      </trkpt>
      <trkpt lat="43.64786" lon="3.79159">
        <ele>83.7</ele>
        <time>2017-05-21T08:49:46Z</time>
      </trkpt>
      <trkpt lat="43.6479" lon="3.79156">
        <ele>83.7</ele>
        <time>2017-05-21T08:49:47Z</time>
      </trkpt>
      <trkpt lat="43.64795" lon="3.79152">
        <ele>83.6</ele>
        <time>2017-05-21T08:49:48Z</time>
      </trkpt>
      <trkpt lat="43.64799" lon="3.79148">
        <ele>83.6</ele>
        <time>2017-05-21T08:49:49Z</time>
      </trkpt>
      <trkpt lat="43.64802" lon="3.79143">
        <ele>83.5</ele>
        <time>2017-05-21T08:49:50Z</time>
      </trkpt>
      <trkpt lat="43.64807" lon="3.79141">
        <ele>83.5</ele>
        <time>2017-05-21T08:49:51Z</time>
      </trkpt>
      <trkpt lat="43.64813" lon="3.79139">
        <ele>83.4</ele>
        <time>2017-05-21T08:49:52Z</time>
      </trkpt>
      <trkpt lat="43.64816" lon="3.79135">
        <ele>83.4</ele>
        <time>2017-05-21T08:49:53Z</time>
      </trkpt>
      <trkpt lat="43.64819" lon="3.79131">
        <ele>83.3</ele>
        <time>2017-05-21T08:49:54Z</time>
      </trkpt>
      <trkpt lat="43.64823" lon="3.79126">
        <ele>83.3</ele>
        <time>2017-05-21T08:49:55Z</time>
      </trkpt>
      <trkpt lat="43.64826" lon="3.79121">
        <ele>83.2</ele>
        <time>2017-05-21T08:49:56Z</time>
      </trkpt>
      <trkpt lat="43.64829" lon="3.79117">
        <ele>83.2</ele>
        <time>2017-05-21T08:49:57Z</time>
      </trkpt>
      <trkpt lat="43.64833" lon="3.79112">
        <ele>83.1</ele>
        <time>2017-05-21T08:49:58Z</time>
      </trkpt>
      <trkpt lat="43.64837" lon="3.79108">
        <ele>83</ele>
        <time>2017-05-21T08:49:59Z</time>
      </trkpt>
      <trkpt lat="43.64839" lon="3.79102">
        <ele>83</ele>
        <time>2017-05-21T08:50:00Z</time>
      </trkpt>
      <trkpt lat="43.64842" lon="3.79097">
        <ele>82.9</ele>
        <time>2017-05-21T08:50:01Z</time>
      </trkpt>
      <trkpt lat="43.64846" lon="3.79094">
        <ele>82.8</ele>
        <time>2017-05-21T08:50:02Z</time>
      </trkpt>
      <trkpt lat="43.64849" lon="3.7909">
        <ele>82.8</ele>
        <time>2017-05-21T08:50:03Z</time>
      </trkpt>
      <trkpt lat="43.64852" lon="3.79087">
        <ele>82.7</ele>
        <time>2017-05-21T08:50:04Z</time>
      </trkpt>
      <trkpt lat="43.64854" lon="3.79083">
        <ele>82.7</ele>
        <time>2017-05-21T08:50:05Z</time>
      </trkpt>
      <trkpt lat="43.64858" lon="3.79079">
        <ele>82.6</ele>
        <time>2017-05-21T08:50:06Z</time>
      </trkpt>
      <trkpt lat="43.64863" lon="3.79075">
        <ele>82.5</ele>
        <time>2017-05-21T08:50:07Z</time>
      </trkpt>
      <trkpt lat="43.64867" lon="3.79072">
        <ele>82.4</ele>
        <time>2017-05-21T08:50:08Z</time>
      </trkpt>
      <trkpt lat="43.6487" lon="3.79067">
        <ele>82.3</ele>
        <time>2017-05-21T08:50:09Z</time>
      </trkpt>
      <trkpt lat="43.64873" lon="3.79062">
        <ele>82.3</ele>
        <time>2017-05-21T08:50:10Z</time>
      </trkpt>
      <trkpt lat="43.64878" lon="3.79058">
        <ele>82.2</ele>
        <time>2017-05-21T08:50:11Z</time>
      </trkpt>
      <trkpt lat="43.64882" lon="3.79054">
        <ele>82.1</ele>
        <time>2017-05-21T08:50:12Z</time>
      </trkpt>
      <trkpt lat="43.64886" lon="3.79052">
        <ele>82</ele>
        <time>2017-05-21T08:50:13Z</time>
      </trkpt>
      <trkpt lat="43.64889" lon="3.79049">
        <ele>82</ele>
        <time>2017-05-21T08:50:14Z</time>
      </trkpt>
      <trkpt lat="43.64893" lon="3.79045">
        <ele>81.9</ele>
        <time>2017-05-21T08:50:15Z</time>
      </trkpt>
      <trkpt lat="43.64897" lon="3.79043">
        <ele>81.8</ele>
        <time>2017-05-21T08:50:16Z</time>
      </trkpt>
      <trkpt lat="43.64901" lon="3.79041">
        <ele>81.7</ele>
        <time>2017-05-21T08:50:17Z</time>
      </trkpt>
      <trkpt lat="43.64905" lon="3.79038">
        <ele>81.7</ele>
        <time>2017-05-21T08:50:18Z</time>
      </trkpt>
      <trkpt lat="43.64911" lon="3.79036">
        <ele>81.6</ele>
        <time>2017-05-21T08:50:19Z</time>
      </trkpt>
      <trkpt lat="43.64915" lon="3.79033">
        <ele>81.5</ele>
        <time>2017-05-21T08:50:20Z</time>
      </trkpt>
      <trkpt lat="43.6492" lon="3.7903">
        <ele>81.4</ele>
        <time>2017-05-21T08:50:21Z</time>
      </trkpt>
      <trkpt lat="43.64926" lon="3.79026">
        <ele>81.3</ele>
        <time>2017-05-21T08:50:22Z</time>
      </trkpt>
      <trkpt lat="43.64931" lon="3.79022">
        <ele>81.2</ele>
        <time>2017-05-21T08:50:23Z</time>
      </trkpt>
      <trkpt lat="43.64935" lon="3.79017">
        <ele>81.1</ele>
        <time>2017-05-21T08:50:24Z</time>
      </trkpt>
      <trkpt lat="43.64938" lon="3.79014">
        <ele>81</ele>
        <time>2017-05-21T08:50:25Z</time>
      </trkpt>
      <trkpt lat="43.64942" lon="3.79009">
        <ele>80.9</ele>
        <time>2017-05-21T08:50:26Z</time>
      </trkpt>
      <trkpt lat="43.64948" lon="3.79007">
        <ele>80.8</ele>
        <time>2017-05-21T08:50:27Z</time>
      </trkpt>
      <trkpt lat="43.64954" lon="3.79003">
        <ele>80.7</ele>
        <time>2017-05-21T08:50:28Z</time>
      </trkpt>
      <trkpt lat="43.64958" lon="3.79002">
        <ele>80.6</ele>
        <time>2017-05-21T08:50:29Z</time>
      </trkpt>
      <trkpt lat="43.64963" lon="3.79001">
        <ele>80.5</ele>
        <time>2017-05-21T08:50:30Z</time>
      </trkpt>
      <trkpt lat="43.64968" lon="3.78998">
        <ele>80.5</ele>
        <time>2017-05-21T08:50:31Z</time>
      </trkpt>
      <trkpt lat="43.64973" lon="3.78998">
        <ele>80.4</ele>
        <time>2017-05-21T08:50:32Z</time>
      </trkpt>
      <trkpt lat="43.64977" lon="3.78997">
        <ele>80.3</ele>
        <time>2017-05-21T08:50:33Z</time>
      </trkpt>
      <trkpt lat="43.64985" lon="3.78995">
        <ele>80.2</ele>
        <time>2017-05-21T08:50:34Z</time>
      </trkpt>
      <trkpt lat="43.64988" lon="3.78994">
        <ele>80.1</ele>
        <time>2017-05-21T08:50:35Z</time>
      </trkpt>
      <trkpt lat="43.64993" lon="3.78991">
        <ele>80.1</ele>
        <time>2017-05-21T08:50:36Z</time>
      </trkpt>
      <trkpt lat="43.64997" lon="3.7899">
        <ele>80</ele>
        <time>2017-05-21T08:50:37Z</time>
      </trkpt>
      <trkpt lat="43.65" lon="3.78987">
        <ele>79.9</ele>
        <time>2017-05-21T08:50:38Z</time>
      </trkpt>
      <trkpt lat="43.65005" lon="3.78983">
        <ele>79.9</ele>
        <time>2017-05-21T08:50:40Z</time>
      </trkpt>
      <trkpt lat="43.65008" lon="3.78982">
        <ele>79.8</ele>
        <time>2017-05-21T08:50:41Z</time>
      </trkpt>
      <trkpt lat="43.65012" lon="3.78982">
        <ele>79.7</ele>
        <time>2017-05-21T08:50:42Z</time>
      </trkpt>
      <trkpt lat="43.65017" lon="3.7898">
        <ele>79.7</ele>
        <time>2017-05-21T08:50:44Z</time>
      </trkpt>
      <trkpt lat="43.65021" lon="3.78977">
        <ele>79.6</ele>
        <time>2017-05-21T08:50:46Z</time>
      </trkpt>
      <trkpt lat="43.65024" lon="3.78975">
        <ele>79.5</ele>
        <time>2017-05-21T08:50:48Z</time>
      </trkpt>
      <trkpt lat="43.65026" lon="3.78973">
        <ele>79.5</ele>
        <time>2017-05-21T08:50:50Z</time>
      </trkpt>
      <trkpt lat="43.65029" lon="3.78971">
        <ele>79.4</ele>
        <time>2017-05-21T08:50:54Z</time>
      </trkpt>
    </trkseg>
  </trk>
  <trk>
    <name><![CDATA[Sortie à vélo matinale]]></name>
    <trkseg>
      <trkpt lat="43.67516" lon="3.85139">
        <ele>83.4</ele>
        <time>2019-07-07T04:24:31Z</time>
      </trkpt>
      <trkpt lat="43.67515" lon="3.85134">
        <ele>83.5</ele>
        <time>2019-07-07T04:24:32Z</time>
      </trkpt>
      <trkpt lat="43.67515" lon="3.85129">
        <ele>83.5</ele>
        <time>2019-07-07T04:24:33Z</time>
      </trkpt>
      <trkpt lat="43.67516" lon="3.85125">
        <ele>83.5</ele>
        <time>2019-07-07T04:24:34Z</time>
      </trkpt>
      <trkpt lat="43.67518" lon="3.85122">
        <ele>83.5</ele>
        <time>2019-07-07T04:24:35Z</time>
      </trkpt>
      <trkpt lat="43.67521" lon="3.85118">
        <ele>83.5</ele>
        <time>2019-07-07T04:24:36Z</time>
      </trkpt>
      <trkpt lat="43.67523" lon="3.85115">
        <ele>83.5</ele>
        <time>2019-07-07T04:24:37Z</time>
      </trkpt>
      <trkpt lat="43.67526" lon="3.85114">
        <ele>83.4</ele>
        <time>2019-07-07T04:24:38Z</time>
      </trkpt>
      <trkpt lat="43.67528" lon="3.85109">
        <ele>83.2</ele>
        <time>2019-07-07T04:24:39Z</time>
      </trkpt>
      <trkpt lat="43.67528" lon="3.85104">
        <ele>83.1</ele>
        <time>2019-07-07T04:24:40Z</time>
      </trkpt>
      <trkpt lat="43.67525" lon="3.85101">
        <ele>83</ele>
        <time>2019-07-07T04:24:42Z</time>
      </trkpt>
      <trkpt lat="43.67523" lon="3.85098">
        <ele>83</ele>
        <time>2019-07-07T04:24:43Z</time>
      </trkpt>
      <trkpt lat="43.6752" lon="3.85096">
        <ele>82.9</ele>
        <time>2019-07-07T04:24:45Z</time>
      </trkpt>
      <trkpt lat="43.67518" lon="3.85093">
        <ele>82.9</ele>
        <time>2019-07-07T04:24:47Z</time>
      </trkpt>
      <trkpt lat="43.67515" lon="3.85086">
        <ele>82.8</ele>
        <time>2019-07-07T04:24:49Z</time>
      </trkpt>
      <trkpt lat="43.67512" lon="3.85083">
        <ele>82.7</ele>
        <time>2019-07-07T04:24:50Z</time>
      </trkpt>
      <trkpt lat="43.67511" lon="3.8508">
        <ele>82.7</ele>
        <time>2019-07-07T04:24:51Z</time>
      </trkpt>
      <trkpt lat="43.67507" lon="3.85072">
        <ele>82.7</ele>
        <time>2019-07-07T04:24:53Z</time>
      </trkpt>
      <trkpt lat="43.67503" lon="3.85066">
        <ele>82.7</ele>
        <time>2019-07-07T04:24:55Z</time>
      </trkpt>
      <trkpt lat="43.67501" lon="3.85059">
        <ele>82.8</ele>
        <time>2019-07-07T04:24:57Z</time>
      </trkpt>
      <trkpt lat="43.67498" lon="3.85053">
        <ele>82.8</ele>
        <time>2019-07-07T04:24:59Z</time>
      </trkpt>
      <trkpt lat="43.67497" lon="3.85049">
        <ele>82.8</ele>
        <time>2019-07-07T04:25:00Z</time>
      </trkpt>
      <trkpt lat="43.67494" lon="3.85044">
        <ele>82.8</ele>
        <time>2019-07-07T04:25:02Z</time>
      </trkpt>
      <trkpt lat="43.67493" lon="3.85037">
        <ele>82.8</ele>
        <time>2019-07-07T04:25:03Z</time>
      </trkpt>
      <trkpt lat="43.67489" lon="3.85031">
        <ele>82.7</ele>
        <time>2019-07-07T04:25:05Z</time>
      </trkpt>
      <trkpt lat="43.67489" lon="3.85027">
        <ele>82.7</ele>
        <time>2019-07-07T04:25:06Z</time>
      </trkpt>
      <trkpt lat="43.67488" lon="3.85023">
        <ele>82.7</ele>
        <time>2019-07-07T04:25:07Z</time>
      </trkpt>
      <trkpt lat="43.67487" lon="3.85019">
        <ele>82.7</ele>
        <time>2019-07-07T04:25:08Z</time>
      </trkpt>
      <trkpt lat="43.67484" lon="3.85014">
        <ele>82.7</ele>
        <time>2019-07-07T04:25:10Z</time>
      </trkpt>
      <trkpt lat="43.67481" lon="3.8501">
        <ele>82.8</ele>
        <time>2019-07-07T04:25:11Z</time>
      </trkpt>
      <trkpt lat="43.67478" lon="3.85006">
        <ele>82.9</ele>
        <time>2019-07-07T04:25:12Z</time>
      </trkpt>
      <trkpt lat="43.67477" lon="3.85001">
        <ele>83</ele>
        <time>2019-07-07T04:25:13Z</time>
      </trkpt>
      <trkpt lat="43.67475" lon="3.84995">
        <ele>83.2</ele>
        <time>2019-07-07T04:25:15Z</time>
      </trkpt>
      <trkpt lat="43.67472" lon="3.84989">
        <ele>83.3</ele>
        <time>2019-07-07T04:25:17Z</time>
      </trkpt>
      <trkpt lat="43.67469" lon="3.84982">
        <ele>83.5</ele>
        <time>2019-07-07T04:25:18Z</time>
      </trkpt>
      <trkpt lat="43.67467" lon="3.84979">
        <ele>83.6</ele>
        <time>2019-07-07T04:25:19Z</time>
      </trkpt>
      <trkpt lat="43.67465" lon="3.84975">
        <ele>83.6</ele>
        <time>2019-07-07T04:25:20Z</time>
      </trkpt>
      <trkpt lat="43.67462" lon="3.84968">
        <ele>83.7</ele>
        <time>2019-07-07T04:25:22Z</time>
      </trkpt>
      <trkpt lat="43.67459" lon="3.84962">
        <ele>83.8</ele>
        <time>2019-07-07T04:25:24Z</time>
      </trkpt>
      <trkpt lat="43.67458" lon="3.84959">
        <ele>83.8</ele>
        <time>2019-07-07T04:25:25Z</time>
      </trkpt>
      <trkpt lat="43.67456" lon="3.84955">
        <ele>83.9</ele>
        <time>2019-07-07T04:25:26Z</time>
      </trkpt>
      <trkpt lat="43.67455" lon="3.8495">
        <ele>84</ele>
        <time>2019-07-07T04:25:27Z</time>
      </trkpt>
      <trkpt lat="43.67453" lon="3.84946">
        <ele>84.1</ele>
        <time>2019-07-07T04:25:28Z</time>
      </trkpt>
      <trkpt lat="43.67449" lon="3.84941">
        <ele>84.2</ele>
        <time>2019-07-07T04:25:30Z</time>
      </trkpt>
      <trkpt lat="43.67447" lon="3.84938">
        <ele>84.2</ele>
        <time>2019-07-07T04:25:31Z</time>
      </trkpt>
      <trkpt lat="43.67445" lon="3.84931">
        <ele>84.4</ele>
        <time>2019-07-07T04:25:33Z</time>
      </trkpt>
      <trkpt lat="43.67442" lon="3.84927">
        <ele>84.5</ele>
        <time>2019-07-07T04:25:34Z</time>
      </trkpt>
      <trkpt lat="43.67441" lon="3.84923">
        <ele>84.7</ele>
        <time>2019-07-07T04:25:35Z</time>
      </trkpt>
      <trkpt lat="43.67439" lon="3.84919">
        <ele>84.8</ele>
        <time>2019-07-07T04:25:36Z</time>
      </trkpt>
      <trkpt lat="43.67437" lon="3.84916">
        <ele>85</ele>
        <time>2019-07-07T04:25:37Z</time>
      </trkpt>
      <trkpt lat="43.67435" lon="3.84912">
        <ele>85.2</ele>
        <time>2019-07-07T04:25:38Z</time>
      </trkpt>
      <trkpt lat="43.67435" lon="3.84904">
        <ele>85.5</ele>
        <time>2019-07-07T04:25:40Z</time>
      </trkpt>
      <trkpt lat="43.67432" lon="3.84903">
        <ele>85.7</ele>
        <time>2019-07-07T04:25:41Z</time>
      </trkpt>
      <trkpt lat="43.67428" lon="3.84898">
        <ele>85.9</ele>
        <time>2019-07-07T04:25:43Z</time>
      </trkpt>
      <trkpt lat="43.67426" lon="3.84894">
        <ele>86.1</ele>
        <time>2019-07-07T04:25:44Z</time>
      </trkpt>
      <trkpt lat="43.67423" lon="3.84892">
        <ele>86.1</ele>
        <time>2019-07-07T04:25:45Z</time>
      </trkpt>
      <trkpt lat="43.67421" lon="3.84888">
        <ele>86.2</ele>
        <time>2019-07-07T04:25:46Z</time>
      </trkpt>
      <trkpt lat="43.67418" lon="3.84885">
        <ele>86.3</ele>
        <time>2019-07-07T04:25:47Z</time>
      </trkpt>
      <trkpt lat="43.67417" lon="3.84882">
        <ele>86.4</ele>
        <time>2019-07-07T04:25:48Z</time>
      </trkpt>
      <trkpt lat="43.67414" lon="3.84881">
        <ele>86.5</ele>
        <time>2019-07-07T04:25:49Z</time>
      </trkpt>
      <trkpt lat="43.67412" lon="3.84874">
        <ele>86.7</ele>
        <time>2019-07-07T04:25:50Z</time>
      </trkpt>
      <trkpt lat="43.67411" lon="3.8487">
        <ele>86.9</ele>
        <time>2019-07-07T04:25:51Z</time>
      </trkpt>
      <trkpt lat="43.6741" lon="3.84864">
        <ele>87.1</ele>
        <time>2019-07-07T04:25:52Z</time>
      </trkpt>
      <trkpt lat="43.67405" lon="3.84861">
        <ele>87.4</ele>
        <time>2019-07-07T04:25:53Z</time>
      </trkpt>
      <trkpt lat="43.67406" lon="3.8485">
        <ele>87.7</ele>
        <time>2019-07-07T04:25:54Z</time>
      </trkpt>
      <trkpt lat="43.67404" lon="3.84845">
        <ele>87.9</ele>
        <time>2019-07-07T04:25:55Z</time>
      </trkpt>
      <trkpt lat="43.67402" lon="3.84841">
        <ele>88</ele>
        <time>2019-07-07T04:25:56Z</time>
      </trkpt>
      <trkpt lat="43.67399" lon="3.84836">
        <ele>88.1</ele>
        <time>2019-07-07T04:25:58Z</time>
      </trkpt>
      <trkpt lat="43.67395" lon="3.84834">
        <ele>88.1</ele>
        <time>2019-07-07T04:25:59Z</time>
      </trkpt>
      <trkpt lat="43.67393" lon="3.84831">
        <ele>88.2</ele>
        <time>2019-07-07T04:26:00Z</time>
      </trkpt>
      <trkpt lat="43.67391" lon="3.84826">
        <ele>88.2</ele>
        <time>2019-07-07T04:26:01Z</time>
      </trkpt>
      <trkpt lat="43.6739" lon="3.84821">
        <ele>88.3</ele>
        <time>2019-07-07T04:26:02Z</time>
      </trkpt>
      <trkpt lat="43.67388" lon="3.84818">
        <ele>88.3</ele>
        <time>2019-07-07T04:26:03Z</time>
      </trkpt>
      <trkpt lat="43.67386" lon="3.84814">
        <ele>88.5</ele>
        <time>2019-07-07T04:26:04Z</time>
      </trkpt>
      <trkpt lat="43.67384" lon="3.84811">
        <ele>88.5</ele>
        <time>2019-07-07T04:26:05Z</time>
      </trkpt>
      <trkpt lat="43.67381" lon="3.84808">
        <ele>88.7</ele>
        <time>2019-07-07T04:26:06Z</time>
      </trkpt>
      <trkpt lat="43.6738" lon="3.84805">
        <ele>88.8</ele>
        <time>2019-07-07T04:26:07Z</time>
      </trkpt>
      <trkpt lat="43.67379" lon="3.848">
        <ele>89</ele>
        <time>2019-07-07T04:26:08Z</time>
      </trkpt>
      <trkpt lat="43.6738" lon="3.84794">
        <ele>89.4</ele>
        <time>2019-07-07T04:26:09Z</time>
      </trkpt>
      <trkpt lat="43.6738" lon="3.84788">
        <ele>89.8</ele>
        <time>2019-07-07T04:26:10Z</time>
      </trkpt>
      <trkpt lat="43.6738" lon="3.84782">
        <ele>90.1</ele>
        <time>2019-07-07T04:26:11Z</time>
      </trkpt>
      <trkpt lat="43.6738" lon="3.84776">
        <ele>90.4</ele>
        <time>2019-07-07T04:26:12Z</time>
      </trkpt>
      <trkpt lat="43.67379" lon="3.84771">
        <ele>90.6</ele>
        <time>2019-07-07T04:26:13Z</time>
      </trkpt>
      <trkpt lat="43.67379" lon="3.84765">
        <ele>90.9</ele>
        <time>2019-07-07T04:26:14Z</time>
      </trkpt>
      <trkpt lat="43.67378" lon="3.8476">
        <ele>91</ele>
        <time>2019-07-07T04:26:15Z</time>
      </trkpt>
      <trkpt lat="43.67377" lon="3.84754">
        <ele>91.2</ele>
        <time>2019-07-07T04:26:17Z</time>
      </trkpt>
      <trkpt lat="43.67377" lon="3.84746">
        <ele>91.4</ele>
        <time>2019-07-07T04:26:19Z</time>
      </trkpt>
      <trkpt lat="43.67376" lon="3.84742">
        <ele>91.5</ele>
        <time>2019-07-07T04:26:20Z</time>
      </trkpt>
      <trkpt lat="43.67374" lon="3.84738">
        <ele>91.6</ele>
        <time>2019-07-07T04:26:21Z</time>
      </trkpt>
      <trkpt lat="43.67372" lon="3.84734">
        <ele>91.7</ele>
        <time>2019-07-07T04:26:23Z</time>
      </trkpt>
      <trkpt lat="43.67372" lon="3.8473">
        <ele>91.8</ele>
        <time>2019-07-07T04:26:25Z</time>
      </trkpt>
      <trkpt lat="43.67369" lon="3.84725">
        <ele>92</ele>
        <time>2019-07-07T04:26:27Z</time>
      </trkpt>
      <trkpt lat="43.67369" lon="3.84717">
        <ele>92.2</ele>
        <time>2019-07-07T04:26:28Z</time>
      </trkpt>
      <trkpt lat="43.67369" lon="3.84711">
        <ele>92.4</ele>
        <time>2019-07-07T04:26:29Z</time>
      </trkpt>
      <trkpt lat="43.6737" lon="3.84706">
        <ele>92.6</ele>
        <time>2019-07-07T04:26:30Z</time>
      </trkpt>
      <trkpt lat="43.67369" lon="3.84702">
        <ele>92.8</ele>
        <time>2019-07-07T04:26:31Z</time>
      </trkpt>
      <trkpt lat="43.67368" lon="3.84698">
        <ele>92.9</ele>
        <time>2019-07-07T04:26:32Z</time>
      </trkpt>
      <trkpt lat="43.67368" lon="3.84694">
        <ele>93.1</ele>
        <time>2019-07-07T04:26:33Z</time>
      </trkpt>
      <trkpt lat="43.67367" lon="3.84689">
        <ele>93.3</ele>
        <time>2019-07-07T04:26:34Z</time>
      </trkpt>
      <trkpt lat="43.67366" lon="3.84685">
        <ele>93.5</ele>
        <time>2019-07-07T04:26:35Z</time>
      </trkpt>
      <trkpt lat="43.67364" lon="3.84682">
        <ele>93.7</ele>
        <time>2019-07-07T04:26:36Z</time>
      </trkpt>
      <trkpt lat="43.6736" lon="3.84676">
        <ele>94</ele>
        <time>2019-07-07T04:26:38Z</time>
      </trkpt>
      <trkpt lat="43.67358" lon="3.84669">
        <ele>94.5</ele>
        <time>2019-07-07T04:26:40Z</time>
      </trkpt>
      <trkpt lat="43.67355" lon="3.84665">
        <ele>94.7</ele>
        <time>2019-07-07T04:26:41Z</time>
      </trkpt>
      <trkpt lat="43.67356" lon="3.8466">
        <ele>95</ele>
        <time>2019-07-07T04:26:42Z</time>
      </trkpt>
      <trkpt lat="43.67357" lon="3.84656">
        <ele>95.3</ele>
        <time>2019-07-07T04:26:43Z</time>
      </trkpt>
      <trkpt lat="43.67355" lon="3.84652">
        <ele>95.5</ele>
        <time>2019-07-07T04:26:44Z</time>
      </trkpt>
      <trkpt lat="43.67353" lon="3.84648">
        <ele>95.7</ele>
        <time>2019-07-07T04:26:45Z</time>
      </trkpt>
      <trkpt lat="43.67352" lon="3.84642">
        <ele>96.1</ele>
        <time>2019-07-07T04:26:47Z</time>
      </trkpt>
      <trkpt lat="43.67347" lon="3.84643">
        <ele>96.5</ele>
        <time>2019-07-07T04:26:48Z</time>
      </trkpt>
      <trkpt lat="43.67347" lon="3.84635">
        <ele>96.9</ele>
        <time>2019-07-07T04:26:49Z</time>
      </trkpt>
      <trkpt lat="43.67344" lon="3.84629">
        <ele>97.3</ele>
        <time>2019-07-07T04:26:51Z</time>
      </trkpt>
      <trkpt lat="43.6734" lon="3.84626">
        <ele>97.5</ele>
        <time>2019-07-07T04:26:53Z</time>
      </trkpt>
      <trkpt lat="43.67339" lon="3.84621">
        <ele>97.7</ele>
        <time>2019-07-07T04:26:54Z</time>
      </trkpt>
      <trkpt lat="43.67338" lon="3.84617">
        <ele>97.9</ele>
        <time>2019-07-07T04:26:55Z</time>
      </trkpt>
      <trkpt lat="43.67336" lon="3.84613">
        <ele>98</ele>
        <time>2019-07-07T04:26:56Z</time>
      </trkpt>
      <trkpt lat="43.67337" lon="3.84607">
        <ele>98.4</ele>
        <time>2019-07-07T04:26:57Z</time>
      </trkpt>
      <trkpt lat="43.67335" lon="3.84602">
        <ele>98.4</ele>
        <time>2019-07-07T04:26:58Z</time>
      </trkpt>
      <trkpt lat="43.67333" lon="3.84598">
        <ele>98.4</ele>
        <time>2019-07-07T04:26:59Z</time>
      </trkpt>
      <trkpt lat="43.67332" lon="3.84593">
        <ele>98.4</ele>
        <time>2019-07-07T04:27:00Z</time>
      </trkpt>
      <trkpt lat="43.6733" lon="3.84589">
        <ele>98.5</ele>
        <time>2019-07-07T04:27:01Z</time>
      </trkpt>
      <trkpt lat="43.67329" lon="3.84584">
        <ele>98.5</ele>
        <time>2019-07-07T04:27:02Z</time>
      </trkpt>
      <trkpt lat="43.67327" lon="3.8458">
        <ele>98.6</ele>
        <time>2019-07-07T04:27:03Z</time>
      </trkpt>
      <trkpt lat="43.67326" lon="3.84576">
        <ele>98.6</ele>
        <time>2019-07-07T04:27:04Z</time>
      </trkpt>
      <trkpt lat="43.67324" lon="3.84571">
        <ele>98.7</ele>
        <time>2019-07-07T04:27:05Z</time>
      </trkpt>
      <trkpt lat="43.67322" lon="3.84566">
        <ele>98.8</ele>
        <time>2019-07-07T04:27:06Z</time>
      </trkpt>
      <trkpt lat="43.6732" lon="3.8456">
        <ele>99</ele>
        <time>2019-07-07T04:27:07Z</time>
      </trkpt>
      <trkpt lat="43.67319" lon="3.84556">
        <ele>99.1</ele>
        <time>2019-07-07T04:27:08Z</time>
      </trkpt>
      <trkpt lat="43.67316" lon="3.84549">
        <ele>99.2</ele>
        <time>2019-07-07T04:27:09Z</time>
      </trkpt>
      <trkpt lat="43.67316" lon="3.84539">
        <ele>99.4</ele>
        <time>2019-07-07T04:27:10Z</time>
      </trkpt>
      <trkpt lat="43.67316" lon="3.84527">
        <ele>99.5</ele>
        <time>2019-07-07T04:27:11Z</time>
      </trkpt>
      <trkpt lat="43.67313" lon="3.84521">
        <ele>99.6</ele>
        <time>2019-07-07T04:27:12Z</time>
      </trkpt>
      <trkpt lat="43.6731" lon="3.84513">
        <ele>99.5</ele>
        <time>2019-07-07T04:27:13Z</time>
      </trkpt>
      <trkpt lat="43.67306" lon="3.84506">
        <ele>99.5</ele>
        <time>2019-07-07T04:27:14Z</time>
      </trkpt>
      <trkpt lat="43.67302" lon="3.84501">
        <ele>99.4</ele>
        <time>2019-07-07T04:27:15Z</time>
      </trkpt>
      <trkpt lat="43.67298" lon="3.84492">
        <ele>99.3</ele>
        <time>2019-07-07T04:27:16Z</time>
      </trkpt>
      <trkpt lat="43.67295" lon="3.8448">
        <ele>99.1</ele>
        <time>2019-07-07T04:27:17Z</time>
      </trkpt>
      <trkpt lat="43.67294" lon="3.84471">
        <ele>98.8</ele>
        <time>2019-07-07T04:27:18Z</time>
      </trkpt>
      <trkpt lat="43.67294" lon="3.8446">
        <ele>97.2</ele>
        <time>2019-07-07T04:27:19Z</time>
      </trkpt>
      <trkpt lat="43.67292" lon="3.8445">
        <ele>96.3</ele>
        <time>2019-07-07T04:27:20Z</time>
      </trkpt>
      <trkpt lat="43.6729" lon="3.84441">
        <ele>95.4</ele>
        <time>2019-07-07T04:27:21Z</time>
      </trkpt>
      <trkpt lat="43.67287" lon="3.84434">
        <ele>94.7</ele>
        <time>2019-07-07T04:27:22Z</time>
      </trkpt>
      <trkpt lat="43.67282" lon="3.84428">
        <ele>93.5</ele>
        <time>2019-07-07T04:27:23Z</time>
      </trkpt>
      <trkpt lat="43.67278" lon="3.84421">
        <ele>93.3</ele>
        <time>2019-07-07T04:27:24Z</time>
      </trkpt>
      <trkpt lat="43.67274" lon="3.84413">
        <ele>93.2</ele>
        <time>2019-07-07T04:27:25Z</time>
      </trkpt>
      <trkpt lat="43.67268" lon="3.84407">
        <ele>93.2</ele>
        <time>2019-07-07T04:27:26Z</time>
      </trkpt>
      <trkpt lat="43.67262" lon="3.84401">
        <ele>93.1</ele>
        <time>2019-07-07T04:27:27Z</time>
      </trkpt>
      <trkpt lat="43.67257" lon="3.84394">
        <ele>92.9</ele>
        <time>2019-07-07T04:27:28Z</time>
      </trkpt>
      <trkpt lat="43.67252" lon="3.84387">
        <ele>92.8</ele>
        <time>2019-07-07T04:27:29Z</time>
      </trkpt>
      <trkpt lat="43.67245" lon="3.84381">
        <ele>92.5</ele>
        <time>2019-07-07T04:27:30Z</time>
      </trkpt>
      <trkpt lat="43.67238" lon="3.84378">
        <ele>92.3</ele>
        <time>2019-07-07T04:27:31Z</time>
      </trkpt>
      <trkpt lat="43.67231" lon="3.84372">
        <ele>92.1</ele>
        <time>2019-07-07T04:27:32Z</time>
      </trkpt>
      <trkpt lat="43.67225" lon="3.84366">
        <ele>91.8</ele>
        <time>2019-07-07T04:27:33Z</time>
      </trkpt>
      <trkpt lat="43.67217" lon="3.84359">
        <ele>91.6</ele>
        <time>2019-07-07T04:27:34Z</time>
      </trkpt>
      <trkpt lat="43.67213" lon="3.84349">
        <ele>91.3</ele>
        <time>2019-07-07T04:27:35Z</time>
      </trkpt>
      <trkpt lat="43.6721" lon="3.84336">
        <ele>91</ele>
        <time>2019-07-07T04:27:36Z</time>
      </trkpt>
      <trkpt lat="43.67208" lon="3.84324">
        <ele>90.7</ele>
        <time>2019-07-07T04:27:37Z</time>
      </trkpt>
      <trkpt lat="43.67207" lon="3.8431">
        <ele>90.4</ele>
        <time>2019-07-07T04:27:38Z</time>
      </trkpt>
      <trkpt lat="43.672" lon="3.84305">
        <ele>90.1</ele>
        <time>2019-07-07T04:27:39Z</time>
      </trkpt>
      <trkpt lat="43.67196" lon="3.84293">
        <ele>89.8</ele>
        <time>2019-07-07T04:27:40Z</time>
      </trkpt>
      <trkpt lat="43.67188" lon="3.84291">
        <ele>89.6</ele>
        <time>2019-07-07T04:27:41Z</time>
      </trkpt>
      <trkpt lat="43.67179" lon="3.8429">
        <ele>89.3</ele>
        <time>2019-07-07T04:27:42Z</time>
      </trkpt>
      <trkpt lat="43.67172" lon="3.84286">
        <ele>89</ele>
        <time>2019-07-07T04:27:43Z</time>
      </trkpt>
      <trkpt lat="43.67164" lon="3.84281">
        <ele>88.8</ele>
        <time>2019-07-07T04:27:44Z</time>
      </trkpt>
      <trkpt lat="43.67159" lon="3.84274">
        <ele>88.5</ele>
        <time>2019-07-07T04:27:45Z</time>
      </trkpt>
      <trkpt lat="43.67154" lon="3.84267">
        <ele>88.3</ele>
        <time>2019-07-07T04:27:46Z</time>
      </trkpt>
      <trkpt lat="43.67148" lon="3.84258">
        <ele>88</ele>
        <time>2019-07-07T04:27:47Z</time>
      </trkpt>
      <trkpt lat="43.67142" lon="3.84252">
        <ele>87.8</ele>
        <time>2019-07-07T04:27:48Z</time>
      </trkpt>
      <trkpt lat="43.67135" lon="3.84247">
        <ele>87.5</ele>
        <time>2019-07-07T04:27:49Z</time>
      </trkpt>
      <trkpt lat="43.67131" lon="3.84238">
        <ele>87.3</ele>
        <time>2019-07-07T04:27:50Z</time>
      </trkpt>
      <trkpt lat="43.67125" lon="3.84232">
        <ele>87</ele>
        <time>2019-07-07T04:27:51Z</time>
      </trkpt>
      <trkpt lat="43.67118" lon="3.84227">
        <ele>86.7</ele>
        <time>2019-07-07T04:27:52Z</time>
      </trkpt>
      <trkpt lat="43.67113" lon="3.8422">
        <ele>86.5</ele>
        <time>2019-07-07T04:27:53Z</time>
      </trkpt>
      <trkpt lat="43.67105" lon="3.84219">
        <ele>86.2</ele>
        <time>2019-07-07T04:27:54Z</time>
      </trkpt>
      <trkpt lat="43.67097" lon="3.84216">
        <ele>86</ele>
        <time>2019-07-07T04:27:55Z</time>
      </trkpt>
      <trkpt lat="43.67089" lon="3.84218">
        <ele>85.8</ele>
        <time>2019-07-07T04:27:56Z</time>
      </trkpt>
      <trkpt lat="43.6708" lon="3.84216">
        <ele>85.6</ele>
        <time>2019-07-07T04:27:57Z</time>
      </trkpt>
      <trkpt lat="43.67074" lon="3.84209">
        <ele>85.4</ele>
        <time>2019-07-07T04:27:58Z</time>
      </trkpt>
      <trkpt lat="43.67068" lon="3.84202">
        <ele>85.2</ele>
        <time>2019-07-07T04:27:59Z</time>
      </trkpt>
      <trkpt lat="43.67061" lon="3.84197">
        <ele>85</ele>
        <time>2019-07-07T04:28:00Z</time>
      </trkpt>
      <trkpt lat="43.67056" lon="3.8419">
        <ele>84.7</ele>
        <time>2019-07-07T04:28:01Z</time>
      </trkpt>
      <trkpt lat="43.67049" lon="3.84187">
        <ele>84.3</ele>
        <time>2019-07-07T04:28:02Z</time>
      </trkpt>
      <trkpt lat="43.6704" lon="3.84184">
        <ele>84</ele>
        <time>2019-07-07T04:28:03Z</time>
      </trkpt>
      <trkpt lat="43.67034" lon="3.84182">
        <ele>83.7</ele>
        <time>2019-07-07T04:28:04Z</time>
      </trkpt>
      <trkpt lat="43.67025" lon="3.84181">
        <ele>83.4</ele>
        <time>2019-07-07T04:28:05Z</time>
      </trkpt>
      <trkpt lat="43.67015" lon="3.84181">
        <ele>83.1</ele>
        <time>2019-07-07T04:28:06Z</time>
      </trkpt>
      <trkpt lat="43.67007" lon="3.84176">
        <ele>82.8</ele>
        <time>2019-07-07T04:28:07Z</time>
      </trkpt>
      <trkpt lat="43.67" lon="3.8417">
        <ele>82.5</ele>
        <time>2019-07-07T04:28:08Z</time>
      </trkpt>
      <trkpt lat="43.66991" lon="3.84163">
        <ele>82.1</ele>
        <time>2019-07-07T04:28:09Z</time>
      </trkpt>
      <trkpt lat="43.66981" lon="3.8416">
        <ele>81.7</ele>
        <time>2019-07-07T04:28:10Z</time>
      </trkpt>
      <trkpt lat="43.66974" lon="3.84154">
        <ele>81.3</ele>
        <time>2019-07-07T04:28:11Z</time>
      </trkpt>
      <trkpt lat="43.66965" lon="3.8415">
        <ele>80.8</ele>
        <time>2019-07-07T04:28:12Z</time>
      </trkpt>
      <trkpt lat="43.66956" lon="3.84144">
        <ele>80</ele>
        <time>2019-07-07T04:28:13Z</time>
      </trkpt>
      <trkpt lat="43.66948" lon="3.84136">
        <ele>79</ele>
        <time>2019-07-07T04:28:14Z</time>
      </trkpt>
      <trkpt lat="43.66942" lon="3.84125">
        <ele>77.7</ele>
        <time>2019-07-07T04:28:15Z</time>
      </trkpt>
      <trkpt lat="43.66934" lon="3.84117">
        <ele>76.5</ele>
        <time>2019-07-07T04:28:16Z</time>
      </trkpt>
      <trkpt lat="43.66924" lon="3.84115">
        <ele>75.7</ele>
        <time>2019-07-07T04:28:17Z</time>
      </trkpt>
      <trkpt lat="43.66915" lon="3.84114">
        <ele>75.9</ele>
        <time>2019-07-07T04:28:18Z</time>
      </trkpt>
      <trkpt lat="43.66905" lon="3.84115">
        <ele>75.6</ele>
        <time>2019-07-07T04:28:19Z</time>
      </trkpt>
      <trkpt lat="43.66896" lon="3.84114">
        <ele>75.3</ele>
        <time>2019-07-07T04:28:20Z</time>
      </trkpt>
      <trkpt lat="43.66889" lon="3.8411">
        <ele>75.2</ele>
        <time>2019-07-07T04:28:21Z</time>
      </trkpt>
      <trkpt lat="43.66884" lon="3.84105">
        <ele>75.1</ele>
        <time>2019-07-07T04:28:22Z</time>
      </trkpt>
      <trkpt lat="43.66882" lon="3.84099">
        <ele>75.1</ele>
        <time>2019-07-07T04:28:23Z</time>
      </trkpt>
      <trkpt lat="43.66884" lon="3.8409">
        <ele>74.5</ele>
        <time>2019-07-07T04:28:24Z</time>
      </trkpt>
      <trkpt lat="43.66885" lon="3.84083">
        <ele>74.1</ele>
        <time>2019-07-07T04:28:25Z</time>
      </trkpt>
      <trkpt lat="43.66887" lon="3.84077">
        <ele>73.8</ele>
        <time>2019-07-07T04:28:26Z</time>
      </trkpt>
      <trkpt lat="43.6689" lon="3.84072">
        <ele>73.5</ele>
        <time>2019-07-07T04:28:27Z</time>
      </trkpt>
      <trkpt lat="43.66893" lon="3.84069">
        <ele>73.2</ele>
        <time>2019-07-07T04:28:28Z</time>
      </trkpt>
      <trkpt lat="43.66896" lon="3.84065">
        <ele>73</ele>
        <time>2019-07-07T04:28:29Z</time>
      </trkpt>
      <trkpt lat="43.66901" lon="3.84057">
        <ele>72.6</ele>
        <time>2019-07-07T04:28:30Z</time>
      </trkpt>
      <trkpt lat="43.66904" lon="3.84052">
        <ele>72.5</ele>
        <time>2019-07-07T04:28:31Z</time>
      </trkpt>
      <trkpt lat="43.66905" lon="3.84048">
        <ele>72.4</ele>
        <time>2019-07-07T04:28:32Z</time>
      </trkpt>
      <trkpt lat="43.66907" lon="3.84043">
        <ele>72.2</ele>
        <time>2019-07-07T04:28:33Z</time>
      </trkpt>
      <trkpt lat="43.6691" lon="3.84034">
        <ele>72</ele>
        <time>2019-07-07T04:28:34Z</time>
      </trkpt>
      <trkpt lat="43.6691" lon="3.84029">
        <ele>71.9</ele>
        <time>2019-07-07T04:28:35Z</time>
      </trkpt>
      <trkpt lat="43.66912" lon="3.84026">
        <ele>71.9</ele>
        <time>2019-07-07T04:28:36Z</time>
      </trkpt>
      <trkpt lat="43.66912" lon="3.84018">
        <ele>72.2</ele>
        <time>2019-07-07T04:28:38Z</time>
      </trkpt>
      <trkpt lat="43.66914" lon="3.84013">
        <ele>72.4</ele>
        <time>2019-07-07T04:28:39Z</time>
      </trkpt>
      <trkpt lat="43.66913" lon="3.84006">
        <ele>72.6</ele>
        <time>2019-07-07T04:28:40Z</time>
      </trkpt>
      <trkpt lat="43.66914" lon="3.84001">
        <ele>72.7</ele>
        <time>2019-07-07T04:28:41Z</time>
      </trkpt>
      <trkpt lat="43.66912" lon="3.83995">
        <ele>72.9</ele>
        <time>2019-07-07T04:28:43Z</time>
      </trkpt>
      <trkpt lat="43.66911" lon="3.83988">
        <ele>73</ele>
        <time>2019-07-07T04:28:44Z</time>
      </trkpt>
      <trkpt lat="43.6691" lon="3.83983">
        <ele>73.2</ele>
        <time>2019-07-07T04:28:45Z</time>
      </trkpt>
      <trkpt lat="43.66908" lon="3.83978">
        <ele>73.3</ele>
        <time>2019-07-07T04:28:46Z</time>
      </trkpt>
      <trkpt lat="43.66907" lon="3.83972">
        <ele>73.4</ele>
        <time>2019-07-07T04:28:47Z</time>
      </trkpt>
      <trkpt lat="43.66905" lon="3.83965">
        <ele>73.6</ele>
        <time>2019-07-07T04:28:48Z</time>
      </trkpt>
      <trkpt lat="43.66903" lon="3.8396">
        <ele>73.7</ele>
        <time>2019-07-07T04:28:49Z</time>
      </trkpt>
      <trkpt lat="43.669" lon="3.83957">
        <ele>73.8</ele>
        <time>2019-07-07T04:28:50Z</time>
      </trkpt>
      <trkpt lat="43.66897" lon="3.83953">
        <ele>74</ele>
        <time>2019-07-07T04:28:51Z</time>
      </trkpt>
      <trkpt lat="43.66893" lon="3.83951">
        <ele>74.2</ele>
        <time>2019-07-07T04:28:52Z</time>
      </trkpt>
      <trkpt lat="43.66892" lon="3.83947">
        <ele>74.3</ele>
        <time>2019-07-07T04:28:53Z</time>
      </trkpt>
      <trkpt lat="43.6689" lon="3.83943">
        <ele>74.5</ele>
        <time>2019-07-07T04:28:54Z</time>
      </trkpt>
      <trkpt lat="43.66887" lon="3.8394">
        <ele>74.6</ele>
        <time>2019-07-07T04:28:55Z</time>
      </trkpt>
      <trkpt lat="43.66885" lon="3.83937">
        <ele>74.7</ele>
        <time>2019-07-07T04:28:56Z</time>
      </trkpt>
      <trkpt lat="43.66883" lon="3.83933">
        <ele>74.8</ele>
        <time>2019-07-07T04:28:57Z</time>
      </trkpt>
      <trkpt lat="43.66883" lon="3.83923">
        <ele>75</ele>
        <time>2019-07-07T04:28:59Z</time>
      </trkpt>
      <trkpt lat="43.66882" lon="3.83918">
        <ele>75.1</ele>
        <time>2019-07-07T04:29:00Z</time>
      </trkpt>
      <trkpt lat="43.66881" lon="3.83913">
        <ele>75.1</ele>
        <time>2019-07-07T04:29:01Z</time>
      </trkpt>
      <trkpt lat="43.6688" lon="3.83909">
        <ele>75.2</ele>
        <time>2019-07-07T04:29:02Z</time>
      </trkpt>
      <trkpt lat="43.66882" lon="3.83903">
        <ele>75.3</ele>
        <time>2019-07-07T04:29:03Z</time>
      </trkpt>
      <trkpt lat="43.66881" lon="3.83899">
        <ele>75.4</ele>
        <time>2019-07-07T04:29:04Z</time>
      </trkpt>
      <trkpt lat="43.6688" lon="3.83892">
        <ele>75.6</ele>
        <time>2019-07-07T04:29:05Z</time>
      </trkpt>
      <trkpt lat="43.66878" lon="3.83887">
        <ele>75.7</ele>
        <time>2019-07-07T04:29:06Z</time>
      </trkpt>
      <trkpt lat="43.6688" lon="3.8388">
        <ele>75.8</ele>
        <time>2019-07-07T04:29:07Z</time>
      </trkpt>
      <trkpt lat="43.66882" lon="3.83872">
        <ele>76</ele>
        <time>2019-07-07T04:29:08Z</time>
      </trkpt>
      <trkpt lat="43.66884" lon="3.83864">
        <ele>76.2</ele>
        <time>2019-07-07T04:29:09Z</time>
      </trkpt>
      <trkpt lat="43.6688" lon="3.83859">
        <ele>76.4</ele>
        <time>2019-07-07T04:29:11Z</time>
      </trkpt>
      <trkpt lat="43.66878" lon="3.83856">
        <ele>76.5</ele>
        <time>2019-07-07T04:29:12Z</time>
      </trkpt>
      <trkpt lat="43.6688" lon="3.83849">
        <ele>76.8</ele>
        <time>2019-07-07T04:29:14Z</time>
      </trkpt>
      <trkpt lat="43.66879" lon="3.83839">
        <ele>77.2</ele>
        <time>2019-07-07T04:29:16Z</time>
      </trkpt>
      <trkpt lat="43.6688" lon="3.83835">
        <ele>77.4</ele>
        <time>2019-07-07T04:29:17Z</time>
      </trkpt>
      <trkpt lat="43.66877" lon="3.83833">
        <ele>77.6</ele>
        <time>2019-07-07T04:29:18Z</time>
      </trkpt>
      <trkpt lat="43.66877" lon="3.83828">
        <ele>77.8</ele>
        <time>2019-07-07T04:29:19Z</time>
      </trkpt>
      <trkpt lat="43.66874" lon="3.83824">
        <ele>78.1</ele>
        <time>2019-07-07T04:29:21Z</time>
      </trkpt>
      <trkpt lat="43.66871" lon="3.83821">
        <ele>78.3</ele>
        <time>2019-07-07T04:29:22Z</time>
      </trkpt>
      <trkpt lat="43.66869" lon="3.83818">
        <ele>78.4</ele>
        <time>2019-07-07T04:29:23Z</time>
      </trkpt>
      <trkpt lat="43.66866" lon="3.83815">
        <ele>78.7</ele>
        <time>2019-07-07T04:29:24Z</time>
      </trkpt>
      <trkpt lat="43.66866" lon="3.83809">
        <ele>78.9</ele>
        <time>2019-07-07T04:29:26Z</time>
      </trkpt>
      <trkpt lat="43.66865" lon="3.83805">
        <ele>79.1</ele>
        <time>2019-07-07T04:29:27Z</time>
      </trkpt>
      <trkpt lat="43.66864" lon="3.83798">
        <ele>79.3</ele>
        <time>2019-07-07T04:29:28Z</time>
      </trkpt>
      <trkpt lat="43.66864" lon="3.83795">
        <ele>79.4</ele>
        <time>2019-07-07T04:29:29Z</time>
      </trkpt>
      <trkpt lat="43.66863" lon="3.8379">
        <ele>79.5</ele>
        <time>2019-07-07T04:29:30Z</time>
      </trkpt>
      <trkpt lat="43.66862" lon="3.83785">
        <ele>79.5</ele>
        <time>2019-07-07T04:29:31Z</time>
      </trkpt>
      <trkpt lat="43.66862" lon="3.8378">
        <ele>79.6</ele>
        <time>2019-07-07T04:29:32Z</time>
      </trkpt>
      <trkpt lat="43.66862" lon="3.83774">
        <ele>79.7</ele>
        <time>2019-07-07T04:29:33Z</time>
      </trkpt>
      <trkpt lat="43.66861" lon="3.83769">
        <ele>79.8</ele>
        <time>2019-07-07T04:29:34Z</time>
      </trkpt>
      <trkpt lat="43.66859" lon="3.83765">
        <ele>79.8</ele>
        <time>2019-07-07T04:29:35Z</time>
      </trkpt>
      <trkpt lat="43.6686" lon="3.83759">
        <ele>79.9</ele>
        <time>2019-07-07T04:29:36Z</time>
      </trkpt>
      <trkpt lat="43.6686" lon="3.83753">
        <ele>80</ele>
        <time>2019-07-07T04:29:37Z</time>
      </trkpt>
      <trkpt lat="43.66859" lon="3.83748">
        <ele>80</ele>
        <time>2019-07-07T04:29:38Z</time>
      </trkpt>
      <trkpt lat="43.6686" lon="3.83742">
        <ele>80.1</ele>
        <time>2019-07-07T04:29:39Z</time>
      </trkpt>
      <trkpt lat="43.66864" lon="3.83736">
        <ele>80.3</ele>
        <time>2019-07-07T04:29:40Z</time>
      </trkpt>
      <trkpt lat="43.66865" lon="3.83732">
        <ele>80.4</ele>
        <time>2019-07-07T04:29:41Z</time>
      </trkpt>
      <trkpt lat="43.66867" lon="3.83727">
        <ele>80.6</ele>
        <time>2019-07-07T04:29:42Z</time>
      </trkpt>
      <trkpt lat="43.66868" lon="3.83722">
        <ele>80.8</ele>
        <time>2019-07-07T04:29:43Z</time>
      </trkpt>
      <trkpt lat="43.66869" lon="3.83718">
        <ele>81</ele>
        <time>2019-07-07T04:29:44Z</time>
      </trkpt>
      <trkpt lat="43.6687" lon="3.83708">
        <ele>81.4</ele>
        <time>2019-07-07T04:29:46Z</time>
      </trkpt>
      <trkpt lat="43.6687" lon="3.83703">
        <ele>81.6</ele>
        <time>2019-07-07T04:29:47Z</time>
      </trkpt>
      <trkpt lat="43.6687" lon="3.83696">
        <ele>82.1</ele>
        <time>2019-07-07T04:29:49Z</time>
      </trkpt>
      <trkpt lat="43.66871" lon="3.83691">
        <ele>82.1</ele>
        <time>2019-07-07T04:29:50Z</time>
      </trkpt>
      <trkpt lat="43.66872" lon="3.83686">
        <ele>82.1</ele>
        <time>2019-07-07T04:29:52Z</time>
      </trkpt>
      <trkpt lat="43.66872" lon="3.83681">
        <ele>82.1</ele>
        <time>2019-07-07T04:29:53Z</time>
      </trkpt>
      <trkpt lat="43.66873" lon="3.83672">
        <ele>82.2</ele>
        <time>2019-07-07T04:29:55Z</time>
      </trkpt>
      <trkpt lat="43.66872" lon="3.83668">
        <ele>82.2</ele>
        <time>2019-07-07T04:29:56Z</time>
      </trkpt>
      <trkpt lat="43.66872" lon="3.83664">
        <ele>82.2</ele>
        <time>2019-07-07T04:29:57Z</time>
      </trkpt>
      <trkpt lat="43.66871" lon="3.83659">
        <ele>82.3</ele>
        <time>2019-07-07T04:29:59Z</time>
      </trkpt>
      <trkpt lat="43.66871" lon="3.83655">
        <ele>82.4</ele>
        <time>2019-07-07T04:30:00Z</time>
      </trkpt>
      <trkpt lat="43.6687" lon="3.83651">
        <ele>82.4</ele>
        <time>2019-07-07T04:30:01Z</time>
      </trkpt>
      <trkpt lat="43.66868" lon="3.83646">
        <ele>82.6</ele>
        <time>2019-07-07T04:30:03Z</time>
      </trkpt>
      <trkpt lat="43.66866" lon="3.83639">
        <ele>82.9</ele>
        <time>2019-07-07T04:30:05Z</time>
      </trkpt>
      <trkpt lat="43.66863" lon="3.83636">
        <ele>83.2</ele>
        <time>2019-07-07T04:30:07Z</time>
      </trkpt>
      <trkpt lat="43.66861" lon="3.83632">
        <ele>83.4</ele>
        <time>2019-07-07T04:30:10Z</time>
      </trkpt>
      <trkpt lat="43.66858" lon="3.83624">
        <ele>83.8</ele>
        <time>2019-07-07T04:30:12Z</time>
      </trkpt>
      <trkpt lat="43.66855" lon="3.83617">
        <ele>84.3</ele>
        <time>2019-07-07T04:30:14Z</time>
      </trkpt>
      <trkpt lat="43.66852" lon="3.83614">
        <ele>84.5</ele>
        <time>2019-07-07T04:30:15Z</time>
      </trkpt>
      <trkpt lat="43.6685" lon="3.8361">
        <ele>84.7</ele>
        <time>2019-07-07T04:30:16Z</time>
      </trkpt>
      <trkpt lat="43.66843" lon="3.83599">
        <ele>85.5</ele>
        <time>2019-07-07T04:30:20Z</time>
      </trkpt>
      <trkpt lat="43.6684" lon="3.836">
        <ele>85.8</ele>
        <time>2019-07-07T04:30:21Z</time>
      </trkpt>
      <trkpt lat="43.66836" lon="3.83598">
        <ele>86.1</ele>
        <time>2019-07-07T04:30:23Z</time>
      </trkpt>
      <trkpt lat="43.66832" lon="3.83596">
        <ele>86.5</ele>
        <time>2019-07-07T04:30:25Z</time>
      </trkpt>
      <trkpt lat="43.66828" lon="3.83593">
        <ele>86.7</ele>
        <time>2019-07-07T04:30:27Z</time>
      </trkpt>
      <trkpt lat="43.66824" lon="3.83596">
        <ele>87</ele>
        <time>2019-07-07T04:30:30Z</time>
      </trkpt>
      <trkpt lat="43.66821" lon="3.83595">
        <ele>87.2</ele>
        <time>2019-07-07T04:30:37Z</time>
      </trkpt>
      <trkpt lat="43.66819" lon="3.83595">
        <ele>87.3</ele>
        <time>2019-07-07T04:30:38Z</time>
      </trkpt>
      <trkpt lat="43.66815" lon="3.83596">
        <ele>87.6</ele>
        <time>2019-07-07T04:30:39Z</time>
      </trkpt>
      <trkpt lat="43.66811" lon="3.83597">
        <ele>87.9</ele>
        <time>2019-07-07T04:30:40Z</time>
      </trkpt>
      <trkpt lat="43.66807" lon="3.83597">
        <ele>88.1</ele>
        <time>2019-07-07T04:30:44Z</time>
      </trkpt>
      <trkpt lat="43.66804" lon="3.83598">
        <ele>88.2</ele>
        <time>2019-07-07T04:30:45Z</time>
      </trkpt>
      <trkpt lat="43.66802" lon="3.83597">
        <ele>88.3</ele>
        <time>2019-07-07T04:30:47Z</time>
      </trkpt>
      <trkpt lat="43.66797" lon="3.83597">
        <ele>88.5</ele>
        <time>2019-07-07T04:30:48Z</time>
      </trkpt>
      <trkpt lat="43.66792" lon="3.83595">
        <ele>88.7</ele>
        <time>2019-07-07T04:30:51Z</time>
      </trkpt>
      <trkpt lat="43.66789" lon="3.83596">
        <ele>88.8</ele>
        <time>2019-07-07T04:30:52Z</time>
      </trkpt>
      <trkpt lat="43.66786" lon="3.83596">
        <ele>88.9</ele>
        <time>2019-07-07T04:30:54Z</time>
      </trkpt>
      <trkpt lat="43.66783" lon="3.83595">
        <ele>89</ele>
        <time>2019-07-07T04:30:56Z</time>
      </trkpt>
      <trkpt lat="43.66777" lon="3.83592">
        <ele>89.4</ele>
        <time>2019-07-07T04:31:00Z</time>
      </trkpt>
      <trkpt lat="43.66774" lon="3.83592">
        <ele>89.5</ele>
        <time>2019-07-07T04:31:01Z</time>
      </trkpt>
      <trkpt lat="43.66771" lon="3.83589">
        <ele>89.8</ele>
        <time>2019-07-07T04:31:03Z</time>
      </trkpt>
      <trkpt lat="43.66768" lon="3.83589">
        <ele>90</ele>
        <time>2019-07-07T04:31:04Z</time>
      </trkpt>
      <trkpt lat="43.66764" lon="3.83588">
        <ele>90.3</ele>
        <time>2019-07-07T04:31:06Z</time>
      </trkpt>
      <trkpt lat="43.66761" lon="3.83586">
        <ele>90.5</ele>
        <time>2019-07-07T04:31:07Z</time>
      </trkpt>
      <trkpt lat="43.66757" lon="3.83585">
        <ele>90.7</ele>
        <time>2019-07-07T04:31:08Z</time>
      </trkpt>
      <trkpt lat="43.66754" lon="3.83582">
        <ele>90.9</ele>
        <time>2019-07-07T04:31:09Z</time>
      </trkpt>
      <trkpt lat="43.66751" lon="3.83578">
        <ele>91</ele>
        <time>2019-07-07T04:31:10Z</time>
      </trkpt>
      <trkpt lat="43.6675" lon="3.83572">
        <ele>91.2</ele>
        <time>2019-07-07T04:31:11Z</time>
      </trkpt>
      <trkpt lat="43.66748" lon="3.83567">
        <ele>91.3</ele>
        <time>2019-07-07T04:31:12Z</time>
      </trkpt>
      <trkpt lat="43.66747" lon="3.83563">
        <ele>91.5</ele>
        <time>2019-07-07T04:31:13Z</time>
      </trkpt>
      <trkpt lat="43.66744" lon="3.83559">
        <ele>91.6</ele>
        <time>2019-07-07T04:31:14Z</time>
      </trkpt>
      <trkpt lat="43.66743" lon="3.83553">
        <ele>91.8</ele>
        <time>2019-07-07T04:31:15Z</time>
      </trkpt>
      <trkpt lat="43.66741" lon="3.83548">
        <ele>92.1</ele>
        <time>2019-07-07T04:31:16Z</time>
      </trkpt>
      <trkpt lat="43.66739" lon="3.83541">
        <ele>92.4</ele>
        <time>2019-07-07T04:31:17Z</time>
      </trkpt>
      <trkpt lat="43.66739" lon="3.83536">
        <ele>92.5</ele>
        <time>2019-07-07T04:31:18Z</time>
      </trkpt>
      <trkpt lat="43.66737" lon="3.83531">
        <ele>92.7</ele>
        <time>2019-07-07T04:31:19Z</time>
      </trkpt>
      <trkpt lat="43.66737" lon="3.83525">
        <ele>92.8</ele>
        <time>2019-07-07T04:31:20Z</time>
      </trkpt>
      <trkpt lat="43.66737" lon="3.83516">
        <ele>92.9</ele>
        <time>2019-07-07T04:31:21Z</time>
      </trkpt>
      <trkpt lat="43.66735" lon="3.83505">
        <ele>93</ele>
        <time>2019-07-07T04:31:23Z</time>
      </trkpt>
      <trkpt lat="43.66735" lon="3.83501">
        <ele>93.1</ele>
        <time>2019-07-07T04:31:24Z</time>
      </trkpt>
      <trkpt lat="43.66733" lon="3.83495">
        <ele>93.2</ele>
        <time>2019-07-07T04:31:25Z</time>
      </trkpt>
      <trkpt lat="43.66733" lon="3.83489">
        <ele>93.3</ele>
        <time>2019-07-07T04:31:26Z</time>
      </trkpt>
      <trkpt lat="43.66732" lon="3.83483">
        <ele>93.4</ele>
        <time>2019-07-07T04:31:27Z</time>
      </trkpt>
      <trkpt lat="43.66729" lon="3.83479">
        <ele>93.8</ele>
        <time>2019-07-07T04:31:28Z</time>
      </trkpt>
      <trkpt lat="43.66724" lon="3.83477">
        <ele>94.8</ele>
        <time>2019-07-07T04:31:29Z</time>
      </trkpt>
      <trkpt lat="43.66722" lon="3.83474">
        <ele>95.3</ele>
        <time>2019-07-07T04:31:30Z</time>
      </trkpt>
      <trkpt lat="43.66719" lon="3.83472">
        <ele>95.3</ele>
        <time>2019-07-07T04:31:33Z</time>
      </trkpt>
      <trkpt lat="43.66717" lon="3.83468">
        <ele>95.8</ele>
        <time>2019-07-07T04:31:35Z</time>
      </trkpt>
      <trkpt lat="43.66714" lon="3.83467">
        <ele>96.2</ele>
        <time>2019-07-07T04:31:40Z</time>
      </trkpt>
      <trkpt lat="43.66711" lon="3.83469">
        <ele>96.7</ele>
        <time>2019-07-07T04:31:42Z</time>
      </trkpt>
      <trkpt lat="43.66709" lon="3.83471">
        <ele>96.9</ele>
        <time>2019-07-07T04:31:44Z</time>
      </trkpt>
      <trkpt lat="43.66704" lon="3.83471">
        <ele>97.4</ele>
        <time>2019-07-07T04:31:46Z</time>
      </trkpt>
      <trkpt lat="43.66701" lon="3.83469">
        <ele>98.1</ele>
        <time>2019-07-07T04:31:48Z</time>
      </trkpt>
      <trkpt lat="43.66697" lon="3.83468">
        <ele>99.3</ele>
        <time>2019-07-07T04:31:49Z</time>
      </trkpt>
      <trkpt lat="43.66692" lon="3.83465">
        <ele>99.9</ele>
        <time>2019-07-07T04:31:51Z</time>
      </trkpt>
      <trkpt lat="43.6669" lon="3.83462">
        <ele>100.5</ele>
        <time>2019-07-07T04:31:53Z</time>
      </trkpt>
      <trkpt lat="43.66686" lon="3.83462">
        <ele>101</ele>
        <time>2019-07-07T04:31:55Z</time>
      </trkpt>
      <trkpt lat="43.66682" lon="3.83463">
        <ele>101.5</ele>
        <time>2019-07-07T04:31:57Z</time>
      </trkpt>
      <trkpt lat="43.66677" lon="3.8346">
        <ele>102.7</ele>
        <time>2019-07-07T04:31:59Z</time>
      </trkpt>
      <trkpt lat="43.66674" lon="3.83463">
        <ele>103.1</ele>
        <time>2019-07-07T04:32:01Z</time>
      </trkpt>
      <trkpt lat="43.6667" lon="3.83463">
        <ele>103.6</ele>
        <time>2019-07-07T04:32:03Z</time>
      </trkpt>
      <trkpt lat="43.66666" lon="3.83462">
        <ele>104.1</ele>
        <time>2019-07-07T04:32:07Z</time>
      </trkpt>
      <trkpt lat="43.66662" lon="3.83461">
        <ele>105.4</ele>
        <time>2019-07-07T04:32:09Z</time>
      </trkpt>
      <trkpt lat="43.66658" lon="3.83462">
        <ele>105.7</ele>
        <time>2019-07-07T04:32:10Z</time>
      </trkpt>
      <trkpt lat="43.66654" lon="3.83461">
        <ele>106.4</ele>
        <time>2019-07-07T04:32:12Z</time>
      </trkpt>
      <trkpt lat="43.66648" lon="3.8346">
        <ele>107.3</ele>
        <time>2019-07-07T04:32:16Z</time>
      </trkpt>
      <trkpt lat="43.66645" lon="3.8346">
        <ele>107.8</ele>
        <time>2019-07-07T04:32:17Z</time>
      </trkpt>
      <trkpt lat="43.66643" lon="3.83459">
        <ele>108.2</ele>
        <time>2019-07-07T04:32:18Z</time>
      </trkpt>
      <trkpt lat="43.66638" lon="3.83461">
        <ele>108.7</ele>
        <time>2019-07-07T04:32:20Z</time>
      </trkpt>
      <trkpt lat="43.66636" lon="3.83458">
        <ele>109.1</ele>
        <time>2019-07-07T04:32:22Z</time>
      </trkpt>
      <trkpt lat="43.66633" lon="3.83458">
        <ele>109.5</ele>
        <time>2019-07-07T04:32:23Z</time>
      </trkpt>
      <trkpt lat="43.6663" lon="3.83457">
        <ele>110</ele>
        <time>2019-07-07T04:32:24Z</time>
      </trkpt>
      <trkpt lat="43.66624" lon="3.83456">
        <ele>110.4</ele>
        <time>2019-07-07T04:32:26Z</time>
      </trkpt>
      <trkpt lat="43.6662" lon="3.83454">
        <ele>110.6</ele>
        <time>2019-07-07T04:32:28Z</time>
      </trkpt>
      <trkpt lat="43.66615" lon="3.83452">
        <ele>111.2</ele>
        <time>2019-07-07T04:32:30Z</time>
      </trkpt>
      <trkpt lat="43.66611" lon="3.83454">
        <ele>111.1</ele>
        <time>2019-07-07T04:32:32Z</time>
      </trkpt>
      <trkpt lat="43.66606" lon="3.83451">
        <ele>111.5</ele>
        <time>2019-07-07T04:32:34Z</time>
      </trkpt>
      <trkpt lat="43.66603" lon="3.83448">
        <ele>111.8</ele>
        <time>2019-07-07T04:32:36Z</time>
      </trkpt>
      <trkpt lat="43.66601" lon="3.83444">
        <ele>112.1</ele>
        <time>2019-07-07T04:32:37Z</time>
      </trkpt>
      <trkpt lat="43.666" lon="3.83437">
        <ele>112.3</ele>
        <time>2019-07-07T04:32:38Z</time>
      </trkpt>
      <trkpt lat="43.66597" lon="3.83438">
        <ele>112.4</ele>
        <time>2019-07-07T04:32:39Z</time>
      </trkpt>
      <trkpt lat="43.66597" lon="3.83431">
        <ele>112.9</ele>
        <time>2019-07-07T04:32:40Z</time>
      </trkpt>
      <trkpt lat="43.66597" lon="3.83426">
        <ele>113.1</ele>
        <time>2019-07-07T04:32:41Z</time>
      </trkpt>
      <trkpt lat="43.66596" lon="3.83421">
        <ele>113.4</ele>
        <time>2019-07-07T04:32:42Z</time>
      </trkpt>
      <trkpt lat="43.66594" lon="3.83415">
        <ele>113.8</ele>
        <time>2019-07-07T04:32:44Z</time>
      </trkpt>
      <trkpt lat="43.66594" lon="3.83411">
        <ele>113.9</ele>
        <time>2019-07-07T04:32:45Z</time>
      </trkpt>
      <trkpt lat="43.66591" lon="3.83405">
        <ele>114.5</ele>
        <time>2019-07-07T04:32:47Z</time>
      </trkpt>
      <trkpt lat="43.6659" lon="3.834">
        <ele>114.6</ele>
        <time>2019-07-07T04:32:49Z</time>
      </trkpt>
      <trkpt lat="43.66588" lon="3.83394">
        <ele>114.9</ele>
        <time>2019-07-07T04:32:51Z</time>
      </trkpt>
      <trkpt lat="43.66587" lon="3.8339">
        <ele>115</ele>
        <time>2019-07-07T04:32:52Z</time>
      </trkpt>
      <trkpt lat="43.66586" lon="3.83387">
        <ele>115.1</ele>
        <time>2019-07-07T04:32:53Z</time>
      </trkpt>
      <trkpt lat="43.66586" lon="3.83382">
        <ele>115.3</ele>
        <time>2019-07-07T04:32:54Z</time>
      </trkpt>
      <trkpt lat="43.66586" lon="3.83378">
        <ele>115.5</ele>
        <time>2019-07-07T04:32:55Z</time>
      </trkpt>
      <trkpt lat="43.66585" lon="3.83373">
        <ele>115.7</ele>
        <time>2019-07-07T04:32:56Z</time>
      </trkpt>
      <trkpt lat="43.66584" lon="3.83369">
        <ele>115.9</ele>
        <time>2019-07-07T04:32:57Z</time>
      </trkpt>
      <trkpt lat="43.66583" lon="3.83364">
        <ele>116.1</ele>
        <time>2019-07-07T04:32:58Z</time>
      </trkpt>
      <trkpt lat="43.66581" lon="3.83357">
        <ele>116.4</ele>
        <time>2019-07-07T04:33:00Z</time>
      </trkpt>
      <trkpt lat="43.6658" lon="3.83352">
        <ele>116.6</ele>
        <time>2019-07-07T04:33:01Z</time>
      </trkpt>
      <trkpt lat="43.66579" lon="3.83349">
        <ele>116.8</ele>
        <time>2019-07-07T04:33:02Z</time>
      </trkpt>
      <trkpt lat="43.66578" lon="3.83344">
        <ele>117.1</ele>
        <time>2019-07-07T04:33:03Z</time>
      </trkpt>
      <trkpt lat="43.66578" lon="3.8334">
        <ele>117.4</ele>
        <time>2019-07-07T04:33:04Z</time>
      </trkpt>
      <trkpt lat="43.66577" lon="3.83336">
        <ele>117.4</ele>
        <time>2019-07-07T04:33:05Z</time>
      </trkpt>
      <trkpt lat="43.66576" lon="3.83332">
        <ele>117.3</ele>
        <time>2019-07-07T04:33:06Z</time>
      </trkpt>
      <trkpt lat="43.66578" lon="3.83324">
        <ele>117.2</ele>
        <time>2019-07-07T04:33:08Z</time>
      </trkpt>
      <trkpt lat="43.66579" lon="3.8332">
        <ele>117.1</ele>
        <time>2019-07-07T04:33:09Z</time>
      </trkpt>
      <trkpt lat="43.6658" lon="3.83315">
        <ele>116.9</ele>
        <time>2019-07-07T04:33:10Z</time>
      </trkpt>
      <trkpt lat="43.66582" lon="3.83309">
        <ele>116.7</ele>
        <time>2019-07-07T04:33:11Z</time>
      </trkpt>
      <trkpt lat="43.66584" lon="3.83306">
        <ele>116.6</ele>
        <time>2019-07-07T04:33:12Z</time>
      </trkpt>
      <trkpt lat="43.66585" lon="3.83301">
        <ele>116.4</ele>
        <time>2019-07-07T04:33:14Z</time>
      </trkpt>
      <trkpt lat="43.66586" lon="3.83293">
        <ele>116.2</ele>
        <time>2019-07-07T04:33:16Z</time>
      </trkpt>
      <trkpt lat="43.66586" lon="3.83289">
        <ele>116.1</ele>
        <time>2019-07-07T04:33:17Z</time>
      </trkpt>
      <trkpt lat="43.66588" lon="3.83283">
        <ele>115.9</ele>
        <time>2019-07-07T04:33:19Z</time>
      </trkpt>
      <trkpt lat="43.6659" lon="3.83277">
        <ele>115.6</ele>
        <time>2019-07-07T04:33:21Z</time>
      </trkpt>
      <trkpt lat="43.66591" lon="3.83272">
        <ele>115.5</ele>
        <time>2019-07-07T04:33:22Z</time>
      </trkpt>
      <trkpt lat="43.66592" lon="3.83265">
        <ele>115.2</ele>
        <time>2019-07-07T04:33:24Z</time>
      </trkpt>
      <trkpt lat="43.66593" lon="3.83261">
        <ele>115.1</ele>
        <time>2019-07-07T04:33:25Z</time>
      </trkpt>
      <trkpt lat="43.66594" lon="3.83258">
        <ele>115</ele>
        <time>2019-07-07T04:33:26Z</time>
      </trkpt>
      <trkpt lat="43.66596" lon="3.83252">
        <ele>114.8</ele>
        <time>2019-07-07T04:33:28Z</time>
      </trkpt>
      <trkpt lat="43.66597" lon="3.83246">
        <ele>114.5</ele>
        <time>2019-07-07T04:33:30Z</time>
      </trkpt>
      <trkpt lat="43.666" lon="3.8324">
        <ele>114.3</ele>
        <time>2019-07-07T04:33:32Z</time>
      </trkpt>
      <trkpt lat="43.66601" lon="3.83235">
        <ele>114.1</ele>
        <time>2019-07-07T04:33:34Z</time>
      </trkpt>
      <trkpt lat="43.66601" lon="3.83231">
        <ele>114.5</ele>
        <time>2019-07-07T04:33:36Z</time>
      </trkpt>
      <trkpt lat="43.66603" lon="3.83225">
        <ele>114.8</ele>
        <time>2019-07-07T04:33:38Z</time>
      </trkpt>
      <trkpt lat="43.66606" lon="3.8322">
        <ele>115.2</ele>
        <time>2019-07-07T04:33:40Z</time>
      </trkpt>
      <trkpt lat="43.66608" lon="3.83216">
        <ele>115.4</ele>
        <time>2019-07-07T04:33:41Z</time>
      </trkpt>
      <trkpt lat="43.66611" lon="3.83209">
        <ele>115.7</ele>
        <time>2019-07-07T04:33:43Z</time>
      </trkpt>
      <trkpt lat="43.66611" lon="3.83203">
        <ele>115.8</ele>
        <time>2019-07-07T04:33:45Z</time>
      </trkpt>
      <trkpt lat="43.66613" lon="3.83196">
        <ele>116.1</ele>
        <time>2019-07-07T04:33:47Z</time>
      </trkpt>
      <trkpt lat="43.66615" lon="3.83192">
        <ele>116.2</ele>
        <time>2019-07-07T04:33:49Z</time>
      </trkpt>
      <trkpt lat="43.66617" lon="3.83186">
        <ele>116.3</ele>
        <time>2019-07-07T04:33:51Z</time>
      </trkpt>
      <trkpt lat="43.66617" lon="3.8318">
        <ele>116.3</ele>
        <time>2019-07-07T04:33:53Z</time>
      </trkpt>
      <trkpt lat="43.66618" lon="3.83176">
        <ele>116.3</ele>
        <time>2019-07-07T04:33:55Z</time>
      </trkpt>
      <trkpt lat="43.66617" lon="3.83171">
        <ele>116.3</ele>
        <time>2019-07-07T04:33:57Z</time>
      </trkpt>
      <trkpt lat="43.66617" lon="3.83164">
        <ele>116.2</ele>
        <time>2019-07-07T04:33:59Z</time>
      </trkpt>
      <trkpt lat="43.66617" lon="3.8316">
        <ele>116.1</ele>
        <time>2019-07-07T04:34:00Z</time>
      </trkpt>
      <trkpt lat="43.66619" lon="3.83152">
        <ele>115.9</ele>
        <time>2019-07-07T04:34:01Z</time>
      </trkpt>
      <trkpt lat="43.66621" lon="3.83144">
        <ele>115.6</ele>
        <time>2019-07-07T04:34:02Z</time>
      </trkpt>
      <trkpt lat="43.66623" lon="3.83138">
        <ele>115.7</ele>
        <time>2019-07-07T04:34:03Z</time>
      </trkpt>
      <trkpt lat="43.66624" lon="3.8313">
        <ele>115.8</ele>
        <time>2019-07-07T04:34:04Z</time>
      </trkpt>
      <trkpt lat="43.66625" lon="3.83123">
        <ele>115.9</ele>
        <time>2019-07-07T04:34:05Z</time>
      </trkpt>
      <trkpt lat="43.66627" lon="3.83115">
        <ele>116</ele>
        <time>2019-07-07T04:34:06Z</time>
      </trkpt>
      <trkpt lat="43.66629" lon="3.83107">
        <ele>116.1</ele>
        <time>2019-07-07T04:34:07Z</time>
      </trkpt>
      <trkpt lat="43.6663" lon="3.83101">
        <ele>116.3</ele>
        <time>2019-07-07T04:34:08Z</time>
      </trkpt>
      <trkpt lat="43.66631" lon="3.83093">
        <ele>116.4</ele>
        <time>2019-07-07T04:34:09Z</time>
      </trkpt>
      <trkpt lat="43.66633" lon="3.83086">
        <ele>116.5</ele>
        <time>2019-07-07T04:34:10Z</time>
      </trkpt>
      <trkpt lat="43.66634" lon="3.83078">
        <ele>116.7</ele>
        <time>2019-07-07T04:34:11Z</time>
      </trkpt>
      <trkpt lat="43.66636" lon="3.8307">
        <ele>116.8</ele>
        <time>2019-07-07T04:34:12Z</time>
      </trkpt>
      <trkpt lat="43.66639" lon="3.83062">
        <ele>116.9</ele>
        <time>2019-07-07T04:34:13Z</time>
      </trkpt>
      <trkpt lat="43.66641" lon="3.83056">
        <ele>117</ele>
        <time>2019-07-07T04:34:14Z</time>
      </trkpt>
      <trkpt lat="43.66642" lon="3.83048">
        <ele>117</ele>
        <time>2019-07-07T04:34:15Z</time>
      </trkpt>
      <trkpt lat="43.66643" lon="3.83041">
        <ele>117.1</ele>
        <time>2019-07-07T04:34:16Z</time>
      </trkpt>
      <trkpt lat="43.66643" lon="3.83033">
        <ele>117.3</ele>
        <time>2019-07-07T04:34:17Z</time>
      </trkpt>
      <trkpt lat="43.66641" lon="3.83027">
        <ele>117.4</ele>
        <time>2019-07-07T04:34:18Z</time>
      </trkpt>
      <trkpt lat="43.66641" lon="3.83019">
        <ele>117.5</ele>
        <time>2019-07-07T04:34:19Z</time>
      </trkpt>
      <trkpt lat="43.6664" lon="3.83013">
        <ele>117.5</ele>
        <time>2019-07-07T04:34:20Z</time>
      </trkpt>
      <trkpt lat="43.66639" lon="3.83006">
        <ele>117.6</ele>
        <time>2019-07-07T04:34:21Z</time>
      </trkpt>
      <trkpt lat="43.66638" lon="3.83">
        <ele>117.6</ele>
        <time>2019-07-07T04:34:22Z</time>
      </trkpt>
      <trkpt lat="43.66637" lon="3.82993">
        <ele>117.6</ele>
        <time>2019-07-07T04:34:23Z</time>
      </trkpt>
      <trkpt lat="43.66636" lon="3.82987">
        <ele>117.6</ele>
        <time>2019-07-07T04:34:24Z</time>
      </trkpt>
      <trkpt lat="43.66635" lon="3.82981">
        <ele>117.5</ele>
        <time>2019-07-07T04:34:25Z</time>
      </trkpt>
      <trkpt lat="43.66634" lon="3.82975">
        <ele>117.5</ele>
        <time>2019-07-07T04:34:26Z</time>
      </trkpt>
      <trkpt lat="43.66633" lon="3.82967">
        <ele>117.5</ele>
        <time>2019-07-07T04:34:27Z</time>
      </trkpt>
      <trkpt lat="43.66631" lon="3.8296">
        <ele>117.5</ele>
        <time>2019-07-07T04:34:28Z</time>
      </trkpt>
      <trkpt lat="43.66629" lon="3.82954">
        <ele>117.4</ele>
        <time>2019-07-07T04:34:29Z</time>
      </trkpt>
      <trkpt lat="43.66626" lon="3.82948">
        <ele>117.4</ele>
        <time>2019-07-07T04:34:30Z</time>
      </trkpt>
      <trkpt lat="43.66624" lon="3.82941">
        <ele>117.4</ele>
        <time>2019-07-07T04:34:31Z</time>
      </trkpt>
      <trkpt lat="43.66621" lon="3.82934">
        <ele>117.4</ele>
        <time>2019-07-07T04:34:32Z</time>
      </trkpt>
      <trkpt lat="43.66618" lon="3.82928">
        <ele>117.3</ele>
        <time>2019-07-07T04:34:33Z</time>
      </trkpt>
      <trkpt lat="43.66615" lon="3.82922">
        <ele>117.3</ele>
        <time>2019-07-07T04:34:34Z</time>
      </trkpt>
      <trkpt lat="43.66613" lon="3.82915">
        <ele>117.4</ele>
        <time>2019-07-07T04:34:35Z</time>
      </trkpt>
      <trkpt lat="43.66613" lon="3.82908">
        <ele>117.4</ele>
        <time>2019-07-07T04:34:36Z</time>
      </trkpt>
      <trkpt lat="43.66613" lon="3.82897">
        <ele>117.4</ele>
        <time>2019-07-07T04:34:37Z</time>
      </trkpt>
      <trkpt lat="43.66612" lon="3.82891">
        <ele>117.5</ele>
        <time>2019-07-07T04:34:38Z</time>
      </trkpt>
      <trkpt lat="43.66613" lon="3.82883">
        <ele>117.6</ele>
        <time>2019-07-07T04:34:39Z</time>
      </trkpt>
      <trkpt lat="43.66612" lon="3.82876">
        <ele>117.6</ele>
        <time>2019-07-07T04:34:40Z</time>
      </trkpt>
      <trkpt lat="43.66613" lon="3.82869">
        <ele>117.8</ele>
        <time>2019-07-07T04:34:41Z</time>
      </trkpt>
      <trkpt lat="43.66613" lon="3.82862">
        <ele>117.9</ele>
        <time>2019-07-07T04:34:42Z</time>
      </trkpt>
      <trkpt lat="43.66615" lon="3.82857">
        <ele>117.9</ele>
        <time>2019-07-07T04:34:43Z</time>
      </trkpt>
      <trkpt lat="43.66618" lon="3.82853">
        <ele>118</ele>
        <time>2019-07-07T04:34:44Z</time>
      </trkpt>
      <trkpt lat="43.66621" lon="3.82849">
        <ele>118.1</ele>
        <time>2019-07-07T04:34:45Z</time>
      </trkpt>
      <trkpt lat="43.66624" lon="3.82844">
        <ele>118.1</ele>
        <time>2019-07-07T04:34:46Z</time>
      </trkpt>
      <trkpt lat="43.66628" lon="3.82841">
        <ele>118.3</ele>
        <time>2019-07-07T04:34:47Z</time>
      </trkpt>
      <trkpt lat="43.66631" lon="3.82837">
        <ele>118.4</ele>
        <time>2019-07-07T04:34:48Z</time>
      </trkpt>
      <trkpt lat="43.66634" lon="3.82833">
        <ele>118.4</ele>
        <time>2019-07-07T04:34:49Z</time>
      </trkpt>
      <trkpt lat="43.66638" lon="3.82828">
        <ele>121.5</ele>
        <time>2019-07-07T04:34:50Z</time>
      </trkpt>
      <trkpt lat="43.66641" lon="3.82821">
        <ele>121.5</ele>
        <time>2019-07-07T04:34:51Z</time>
      </trkpt>
      <trkpt lat="43.66647" lon="3.82819">
        <ele>121.6</ele>
        <time>2019-07-07T04:34:52Z</time>
      </trkpt>
      <trkpt lat="43.66651" lon="3.82814">
        <ele>121.5</ele>
        <time>2019-07-07T04:34:53Z</time>
      </trkpt>
      <trkpt lat="43.66654" lon="3.82809">
        <ele>121.5</ele>
        <time>2019-07-07T04:34:54Z</time>
      </trkpt>
      <trkpt lat="43.66658" lon="3.82805">
        <ele>121.5</ele>
        <time>2019-07-07T04:34:55Z</time>
      </trkpt>
      <trkpt lat="43.66663" lon="3.82803">
        <ele>121.5</ele>
        <time>2019-07-07T04:34:56Z</time>
      </trkpt>
      <trkpt lat="43.66667" lon="3.82799">
        <ele>121.5</ele>
        <time>2019-07-07T04:34:57Z</time>
      </trkpt>
      <trkpt lat="43.66671" lon="3.82796">
        <ele>121.6</ele>
        <time>2019-07-07T04:34:58Z</time>
      </trkpt>
      <trkpt lat="43.66675" lon="3.82793">
        <ele>121.6</ele>
        <time>2019-07-07T04:34:59Z</time>
      </trkpt>
      <trkpt lat="43.66679" lon="3.82789">
        <ele>121.7</ele>
        <time>2019-07-07T04:35:00Z</time>
      </trkpt>
      <trkpt lat="43.66683" lon="3.82786">
        <ele>121.6</ele>
        <time>2019-07-07T04:35:01Z</time>
      </trkpt>
      <trkpt lat="43.66687" lon="3.82782">
        <ele>121.6</ele>
        <time>2019-07-07T04:35:02Z</time>
      </trkpt>
      <trkpt lat="43.6669" lon="3.82779">
        <ele>121.5</ele>
        <time>2019-07-07T04:35:03Z</time>
      </trkpt>
      <trkpt lat="43.66695" lon="3.82776">
        <ele>121.4</ele>
        <time>2019-07-07T04:35:04Z</time>
      </trkpt>
      <trkpt lat="43.667" lon="3.82773">
        <ele>121.3</ele>
        <time>2019-07-07T04:35:05Z</time>
      </trkpt>
      <trkpt lat="43.66704" lon="3.82768">
        <ele>121.2</ele>
        <time>2019-07-07T04:35:06Z</time>
      </trkpt>
      <trkpt lat="43.66706" lon="3.82762">
        <ele>121.1</ele>
        <time>2019-07-07T04:35:07Z</time>
      </trkpt>
      <trkpt lat="43.66713" lon="3.82758">
        <ele>121</ele>
        <time>2019-07-07T04:35:08Z</time>
      </trkpt>
      <trkpt lat="43.66716" lon="3.8275">
        <ele>121</ele>
        <time>2019-07-07T04:35:09Z</time>
      </trkpt>
      <trkpt lat="43.6672" lon="3.82748">
        <ele>121</ele>
        <time>2019-07-07T04:35:10Z</time>
      </trkpt>
      <trkpt lat="43.66725" lon="3.82745">
        <ele>121</ele>
        <time>2019-07-07T04:35:11Z</time>
      </trkpt>
      <trkpt lat="43.6673" lon="3.82743">
        <ele>121</ele>
        <time>2019-07-07T04:35:12Z</time>
      </trkpt>
      <trkpt lat="43.66732" lon="3.82738">
        <ele>121</ele>
        <time>2019-07-07T04:35:13Z</time>
      </trkpt>
      <trkpt lat="43.66735" lon="3.82735">
        <ele>121</ele>
        <time>2019-07-07T04:35:14Z</time>
      </trkpt>
      <trkpt lat="43.66737" lon="3.8273">
        <ele>121.1</ele>
        <time>2019-07-07T04:35:15Z</time>
      </trkpt>
      <trkpt lat="43.6674" lon="3.82726">
        <ele>121.1</ele>
        <time>2019-07-07T04:35:16Z</time>
      </trkpt>
      <trkpt lat="43.66746" lon="3.82724">
        <ele>121.1</ele>
        <time>2019-07-07T04:35:17Z</time>
      </trkpt>
      <trkpt lat="43.6675" lon="3.82721">
        <ele>121.2</ele>
        <time>2019-07-07T04:35:18Z</time>
      </trkpt>
      <trkpt lat="43.66754" lon="3.82718">
        <ele>121.3</ele>
        <time>2019-07-07T04:35:19Z</time>
      </trkpt>
      <trkpt lat="43.6676" lon="3.82716">
        <ele>121.4</ele>
        <time>2019-07-07T04:35:20Z</time>
      </trkpt>
      <trkpt lat="43.66766" lon="3.82713">
        <ele>121.6</ele>
        <time>2019-07-07T04:35:21Z</time>
      </trkpt>
      <trkpt lat="43.66769" lon="3.82708">
        <ele>121.7</ele>
        <time>2019-07-07T04:35:22Z</time>
      </trkpt>
      <trkpt lat="43.66774" lon="3.82704">
        <ele>121.9</ele>
        <time>2019-07-07T04:35:23Z</time>
      </trkpt>
      <trkpt lat="43.66777" lon="3.82698">
        <ele>122</ele>
        <time>2019-07-07T04:35:24Z</time>
      </trkpt>
      <trkpt lat="43.66781" lon="3.82693">
        <ele>122.1</ele>
        <time>2019-07-07T04:35:25Z</time>
      </trkpt>
      <trkpt lat="43.66784" lon="3.82684">
        <ele>122.1</ele>
        <time>2019-07-07T04:35:26Z</time>
      </trkpt>
      <trkpt lat="43.66788" lon="3.82677">
        <ele>122.2</ele>
        <time>2019-07-07T04:35:27Z</time>
      </trkpt>
      <trkpt lat="43.66794" lon="3.82675">
        <ele>122.2</ele>
        <time>2019-07-07T04:35:28Z</time>
      </trkpt>
      <trkpt lat="43.66798" lon="3.82672">
        <ele>122.2</ele>
        <time>2019-07-07T04:35:29Z</time>
      </trkpt>
      <trkpt lat="43.668" lon="3.82669">
        <ele>122.2</ele>
        <time>2019-07-07T04:35:30Z</time>
      </trkpt>
      <trkpt lat="43.66801" lon="3.82664">
        <ele>122.2</ele>
        <time>2019-07-07T04:35:31Z</time>
      </trkpt>
      <trkpt lat="43.66804" lon="3.8266">
        <ele>122.2</ele>
        <time>2019-07-07T04:35:32Z</time>
      </trkpt>
      <trkpt lat="43.66806" lon="3.82655">
        <ele>122.2</ele>
        <time>2019-07-07T04:35:33Z</time>
      </trkpt>
      <trkpt lat="43.6681" lon="3.8265">
        <ele>122.2</ele>
        <time>2019-07-07T04:35:34Z</time>
      </trkpt>
      <trkpt lat="43.66814" lon="3.82646">
        <ele>122.2</ele>
        <time>2019-07-07T04:35:35Z</time>
      </trkpt>
      <trkpt lat="43.66822" lon="3.82643">
        <ele>122</ele>
        <time>2019-07-07T04:35:36Z</time>
      </trkpt>
      <trkpt lat="43.66829" lon="3.8264">
        <ele>121.7</ele>
        <time>2019-07-07T04:35:37Z</time>
      </trkpt>
      <trkpt lat="43.66833" lon="3.82635">
        <ele>121.4</ele>
        <time>2019-07-07T04:35:38Z</time>
      </trkpt>
      <trkpt lat="43.6684" lon="3.8263">
        <ele>121.1</ele>
        <time>2019-07-07T04:35:39Z</time>
      </trkpt>
      <trkpt lat="43.66847" lon="3.82625">
        <ele>120.6</ele>
        <time>2019-07-07T04:35:40Z</time>
      </trkpt>
      <trkpt lat="43.66851" lon="3.82619">
        <ele>120.2</ele>
        <time>2019-07-07T04:35:41Z</time>
      </trkpt>
      <trkpt lat="43.66856" lon="3.82619">
        <ele>119.8</ele>
        <time>2019-07-07T04:35:42Z</time>
      </trkpt>
      <trkpt lat="43.66859" lon="3.82614">
        <ele>119.4</ele>
        <time>2019-07-07T04:35:43Z</time>
      </trkpt>
      <trkpt lat="43.66864" lon="3.82608">
        <ele>119.1</ele>
        <time>2019-07-07T04:35:44Z</time>
      </trkpt>
      <trkpt lat="43.66867" lon="3.82602">
        <ele>118.8</ele>
        <time>2019-07-07T04:35:45Z</time>
      </trkpt>
      <trkpt lat="43.66875" lon="3.82601">
        <ele>118.4</ele>
        <time>2019-07-07T04:35:46Z</time>
      </trkpt>
      <trkpt lat="43.6688" lon="3.82595">
        <ele>118.2</ele>
        <time>2019-07-07T04:35:47Z</time>
      </trkpt>
      <trkpt lat="43.66887" lon="3.82593">
        <ele>118</ele>
        <time>2019-07-07T04:35:48Z</time>
      </trkpt>
      <trkpt lat="43.66891" lon="3.82589">
        <ele>117.8</ele>
        <time>2019-07-07T04:35:49Z</time>
      </trkpt>
      <trkpt lat="43.66896" lon="3.82584">
        <ele>117.7</ele>
        <time>2019-07-07T04:35:50Z</time>
      </trkpt>
      <trkpt lat="43.669" lon="3.8258">
        <ele>117.7</ele>
        <time>2019-07-07T04:35:51Z</time>
      </trkpt>
      <trkpt lat="43.66904" lon="3.82576">
        <ele>117.6</ele>
        <time>2019-07-07T04:35:52Z</time>
      </trkpt>
      <trkpt lat="43.6691" lon="3.82573">
        <ele>117.6</ele>
        <time>2019-07-07T04:35:53Z</time>
      </trkpt>
      <trkpt lat="43.66914" lon="3.82572">
        <ele>117.6</ele>
        <time>2019-07-07T04:35:54Z</time>
      </trkpt>
      <trkpt lat="43.66917" lon="3.82569">
        <ele>117.6</ele>
        <time>2019-07-07T04:35:55Z</time>
      </trkpt>
      <trkpt lat="43.66923" lon="3.82563">
        <ele>117.6</ele>
        <time>2019-07-07T04:35:57Z</time>
      </trkpt>
      <trkpt lat="43.66926" lon="3.82559">
        <ele>117.6</ele>
        <time>2019-07-07T04:35:58Z</time>
      </trkpt>
      <trkpt lat="43.6693" lon="3.82558">
        <ele>117.6</ele>
        <time>2019-07-07T04:35:59Z</time>
      </trkpt>
      <trkpt lat="43.66934" lon="3.82555">
        <ele>117.6</ele>
        <time>2019-07-07T04:36:00Z</time>
      </trkpt>
      <trkpt lat="43.66938" lon="3.82552">
        <ele>117.6</ele>
        <time>2019-07-07T04:36:01Z</time>
      </trkpt>
      <trkpt lat="43.66943" lon="3.8255">
        <ele>117.6</ele>
        <time>2019-07-07T04:36:02Z</time>
      </trkpt>
      <trkpt lat="43.66946" lon="3.82546">
        <ele>117.6</ele>
        <time>2019-07-07T04:36:03Z</time>
      </trkpt>
      <trkpt lat="43.6695" lon="3.82543">
        <ele>117.6</ele>
        <time>2019-07-07T04:36:04Z</time>
      </trkpt>
      <trkpt lat="43.66954" lon="3.82541">
        <ele>117.6</ele>
        <time>2019-07-07T04:36:05Z</time>
      </trkpt>
      <trkpt lat="43.66958" lon="3.8254">
        <ele>117.6</ele>
        <time>2019-07-07T04:36:06Z</time>
      </trkpt>
      <trkpt lat="43.66962" lon="3.82537">
        <ele>117.6</ele>
        <time>2019-07-07T04:36:07Z</time>
      </trkpt>
      <trkpt lat="43.66966" lon="3.82534">
        <ele>117.6</ele>
        <time>2019-07-07T04:36:08Z</time>
      </trkpt>
      <trkpt lat="43.6697" lon="3.82531">
        <ele>117.6</ele>
        <time>2019-07-07T04:36:09Z</time>
      </trkpt>
      <trkpt lat="43.66973" lon="3.8253">
        <ele>117.6</ele>
        <time>2019-07-07T04:36:10Z</time>
      </trkpt>
      <trkpt lat="43.66975" lon="3.82528">
        <ele>117.7</ele>
        <time>2019-07-07T04:36:11Z</time>
      </trkpt>
      <trkpt lat="43.66977" lon="3.82525">
        <ele>117.7</ele>
        <time>2019-07-07T04:36:12Z</time>
      </trkpt>
      <trkpt lat="43.66981" lon="3.82524">
        <ele>117.8</ele>
        <time>2019-07-07T04:36:13Z</time>
      </trkpt>
      <trkpt lat="43.66984" lon="3.8252">
        <ele>117.9</ele>
        <time>2019-07-07T04:36:14Z</time>
      </trkpt>
      <trkpt lat="43.66988" lon="3.82516">
        <ele>118</ele>
        <time>2019-07-07T04:36:15Z</time>
      </trkpt>
      <trkpt lat="43.6699" lon="3.82512">
        <ele>118.1</ele>
        <time>2019-07-07T04:36:16Z</time>
      </trkpt>
      <trkpt lat="43.66992" lon="3.82509">
        <ele>118.2</ele>
        <time>2019-07-07T04:36:17Z</time>
      </trkpt>
      <trkpt lat="43.66995" lon="3.82505">
        <ele>118.3</ele>
        <time>2019-07-07T04:36:18Z</time>
      </trkpt>
      <trkpt lat="43.66997" lon="3.82501">
        <ele>118.3</ele>
        <time>2019-07-07T04:36:19Z</time>
      </trkpt>
      <trkpt lat="43.67001" lon="3.82501">
        <ele>118.4</ele>
        <time>2019-07-07T04:36:20Z</time>
      </trkpt>
      <trkpt lat="43.67005" lon="3.82499">
        <ele>118.4</ele>
        <time>2019-07-07T04:36:21Z</time>
      </trkpt>
      <trkpt lat="43.67009" lon="3.82498">
        <ele>118.5</ele>
        <time>2019-07-07T04:36:22Z</time>
      </trkpt>
      <trkpt lat="43.67011" lon="3.82495">
        <ele>118.5</ele>
        <time>2019-07-07T04:36:23Z</time>
      </trkpt>
      <trkpt lat="43.67013" lon="3.82493">
        <ele>118.5</ele>
        <time>2019-07-07T04:36:24Z</time>
      </trkpt>
      <trkpt lat="43.67016" lon="3.82491">
        <ele>118.6</ele>
        <time>2019-07-07T04:36:25Z</time>
      </trkpt>
      <trkpt lat="43.67019" lon="3.82488">
        <ele>118.6</ele>
        <time>2019-07-07T04:36:27Z</time>
      </trkpt>
      <trkpt lat="43.67022" lon="3.82485">
        <ele>118.6</ele>
        <time>2019-07-07T04:36:30Z</time>
      </trkpt>
      <trkpt lat="43.67027" lon="3.82479">
        <ele>118.7</ele>
        <time>2019-07-07T04:36:32Z</time>
      </trkpt>
      <trkpt lat="43.67032" lon="3.82472">
        <ele>118.9</ele>
        <time>2019-07-07T04:36:34Z</time>
      </trkpt>
      <trkpt lat="43.67035" lon="3.82466">
        <ele>119.1</ele>
        <time>2019-07-07T04:36:35Z</time>
      </trkpt>
      <trkpt lat="43.67037" lon="3.82461">
        <ele>119.4</ele>
        <time>2019-07-07T04:36:36Z</time>
      </trkpt>
      <trkpt lat="43.6704" lon="3.82458">
        <ele>119.6</ele>
        <time>2019-07-07T04:36:37Z</time>
      </trkpt>
      <trkpt lat="43.67043" lon="3.82455">
        <ele>119.8</ele>
        <time>2019-07-07T04:36:38Z</time>
      </trkpt>
      <trkpt lat="43.67045" lon="3.8245">
        <ele>119.9</ele>
        <time>2019-07-07T04:36:39Z</time>
      </trkpt>
      <trkpt lat="43.67047" lon="3.82447">
        <ele>120.1</ele>
        <time>2019-07-07T04:36:40Z</time>
      </trkpt>
      <trkpt lat="43.67048" lon="3.82443">
        <ele>120.2</ele>
        <time>2019-07-07T04:36:41Z</time>
      </trkpt>
      <trkpt lat="43.67051" lon="3.8244">
        <ele>120.3</ele>
        <time>2019-07-07T04:36:42Z</time>
      </trkpt>
      <trkpt lat="43.67053" lon="3.82437">
        <ele>120.4</ele>
        <time>2019-07-07T04:36:43Z</time>
      </trkpt>
      <trkpt lat="43.67056" lon="3.82436">
        <ele>120.6</ele>
        <time>2019-07-07T04:36:44Z</time>
      </trkpt>
      <trkpt lat="43.67059" lon="3.8243">
        <ele>120.7</ele>
        <time>2019-07-07T04:36:46Z</time>
      </trkpt>
      <trkpt lat="43.67061" lon="3.82427">
        <ele>120.8</ele>
        <time>2019-07-07T04:36:47Z</time>
      </trkpt>
      <trkpt lat="43.67064" lon="3.82424">
        <ele>120.9</ele>
        <time>2019-07-07T04:36:48Z</time>
      </trkpt>
      <trkpt lat="43.67066" lon="3.82418">
        <ele>121.1</ele>
        <time>2019-07-07T04:36:50Z</time>
      </trkpt>
      <trkpt lat="43.67067" lon="3.82415">
        <ele>121.2</ele>
        <time>2019-07-07T04:36:51Z</time>
      </trkpt>
      <trkpt lat="43.6707" lon="3.82414">
        <ele>121.3</ele>
        <time>2019-07-07T04:36:52Z</time>
      </trkpt>
      <trkpt lat="43.67072" lon="3.82411">
        <ele>121.4</ele>
        <time>2019-07-07T04:36:53Z</time>
      </trkpt>
      <trkpt lat="43.67075" lon="3.82408">
        <ele>121.6</ele>
        <time>2019-07-07T04:36:54Z</time>
      </trkpt>
      <trkpt lat="43.67077" lon="3.82404">
        <ele>121.7</ele>
        <time>2019-07-07T04:36:55Z</time>
      </trkpt>
      <trkpt lat="43.67079" lon="3.82397">
        <ele>122</ele>
        <time>2019-07-07T04:36:57Z</time>
      </trkpt>
      <trkpt lat="43.67081" lon="3.82389">
        <ele>122.4</ele>
        <time>2019-07-07T04:36:59Z</time>
      </trkpt>
      <trkpt lat="43.67082" lon="3.82386">
        <ele>122.6</ele>
        <time>2019-07-07T04:37:00Z</time>
      </trkpt>
      <trkpt lat="43.67084" lon="3.82383">
        <ele>122.8</ele>
        <time>2019-07-07T04:37:02Z</time>
      </trkpt>
      <trkpt lat="43.67085" lon="3.82379">
        <ele>123</ele>
        <time>2019-07-07T04:37:04Z</time>
      </trkpt>
      <trkpt lat="43.67088" lon="3.82375">
        <ele>123.3</ele>
        <time>2019-07-07T04:37:06Z</time>
      </trkpt>
      <trkpt lat="43.6709" lon="3.82371">
        <ele>123.5</ele>
        <time>2019-07-07T04:37:07Z</time>
      </trkpt>
      <trkpt lat="43.67094" lon="3.82371">
        <ele>123.7</ele>
        <time>2019-07-07T04:37:08Z</time>
      </trkpt>
      <trkpt lat="43.67096" lon="3.82368">
        <ele>123.9</ele>
        <time>2019-07-07T04:37:09Z</time>
      </trkpt>
      <trkpt lat="43.67097" lon="3.82365">
        <ele>124</ele>
        <time>2019-07-07T04:37:10Z</time>
      </trkpt>
      <trkpt lat="43.671" lon="3.8236">
        <ele>124.2</ele>
        <time>2019-07-07T04:37:12Z</time>
      </trkpt>
      <trkpt lat="43.67099" lon="3.82354">
        <ele>124.5</ele>
        <time>2019-07-07T04:37:13Z</time>
      </trkpt>
      <trkpt lat="43.67099" lon="3.8235">
        <ele>124.6</ele>
        <time>2019-07-07T04:37:14Z</time>
      </trkpt>
      <trkpt lat="43.67102" lon="3.82346">
        <ele>124.8</ele>
        <time>2019-07-07T04:37:16Z</time>
      </trkpt>
      <trkpt lat="43.67104" lon="3.82347">
        <ele>124.9</ele>
        <time>2019-07-07T04:37:17Z</time>
      </trkpt>
      <trkpt lat="43.67107" lon="3.82341">
        <ele>125.1</ele>
        <time>2019-07-07T04:37:19Z</time>
      </trkpt>
      <trkpt lat="43.6711" lon="3.82336">
        <ele>125.1</ele>
        <time>2019-07-07T04:37:21Z</time>
      </trkpt>
      <trkpt lat="43.67115" lon="3.82332">
        <ele>125.1</ele>
        <time>2019-07-07T04:37:23Z</time>
      </trkpt>
      <trkpt lat="43.67121" lon="3.82329">
        <ele>125.1</ele>
        <time>2019-07-07T04:37:25Z</time>
      </trkpt>
      <trkpt lat="43.67122" lon="3.82323">
        <ele>125</ele>
        <time>2019-07-07T04:37:27Z</time>
      </trkpt>
      <trkpt lat="43.67125" lon="3.82318">
        <ele>124.8</ele>
        <time>2019-07-07T04:37:29Z</time>
      </trkpt>
      <trkpt lat="43.67125" lon="3.82314">
        <ele>124.7</ele>
        <time>2019-07-07T04:37:30Z</time>
      </trkpt>
      <trkpt lat="43.67125" lon="3.82309">
        <ele>124.5</ele>
        <time>2019-07-07T04:37:31Z</time>
      </trkpt>
      <trkpt lat="43.67126" lon="3.82304">
        <ele>124.2</ele>
        <time>2019-07-07T04:37:33Z</time>
      </trkpt>
      <trkpt lat="43.67125" lon="3.823">
        <ele>123.9</ele>
        <time>2019-07-07T04:37:34Z</time>
      </trkpt>
      <trkpt lat="43.67123" lon="3.82295">
        <ele>123.9</ele>
        <time>2019-07-07T04:37:35Z</time>
      </trkpt>
      <trkpt lat="43.67119" lon="3.82294">
        <ele>123.8</ele>
        <time>2019-07-07T04:37:36Z</time>
      </trkpt>
      <trkpt lat="43.67115" lon="3.8229">
        <ele>123.8</ele>
        <time>2019-07-07T04:37:37Z</time>
      </trkpt>
      <trkpt lat="43.67112" lon="3.82286">
        <ele>123.8</ele>
        <time>2019-07-07T04:37:38Z</time>
      </trkpt>
      <trkpt lat="43.6711" lon="3.82283">
        <ele>123.8</ele>
        <time>2019-07-07T04:37:39Z</time>
      </trkpt>
      <trkpt lat="43.67108" lon="3.8228">
        <ele>123.8</ele>
        <time>2019-07-07T04:37:40Z</time>
      </trkpt>
      <trkpt lat="43.67102" lon="3.82273">
        <ele>123.9</ele>
        <time>2019-07-07T04:37:42Z</time>
      </trkpt>
      <trkpt lat="43.67095" lon="3.82275">
        <ele>124.1</ele>
        <time>2019-07-07T04:37:43Z</time>
      </trkpt>
      <trkpt lat="43.67093" lon="3.82271">
        <ele>124.2</ele>
        <time>2019-07-07T04:37:44Z</time>
      </trkpt>
      <trkpt lat="43.67089" lon="3.82267">
        <ele>124.3</ele>
        <time>2019-07-07T04:37:45Z</time>
      </trkpt>
      <trkpt lat="43.67087" lon="3.82263">
        <ele>124.4</ele>
        <time>2019-07-07T04:37:46Z</time>
      </trkpt>
      <trkpt lat="43.67085" lon="3.8226">
        <ele>124.6</ele>
        <time>2019-07-07T04:37:47Z</time>
      </trkpt>
      <trkpt lat="43.67082" lon="3.82255">
        <ele>124.8</ele>
        <time>2019-07-07T04:37:49Z</time>
      </trkpt>
      <trkpt lat="43.67079" lon="3.82252">
        <ele>125.1</ele>
        <time>2019-07-07T04:37:51Z</time>
      </trkpt>
      <trkpt lat="43.67078" lon="3.82247">
        <ele>125.3</ele>
        <time>2019-07-07T04:37:53Z</time>
      </trkpt>
      <trkpt lat="43.67078" lon="3.82238">
        <ele>125.7</ele>
        <time>2019-07-07T04:37:55Z</time>
      </trkpt>
      <trkpt lat="43.6708" lon="3.82233">
        <ele>125.8</ele>
        <time>2019-07-07T04:37:56Z</time>
      </trkpt>
      <trkpt lat="43.6708" lon="3.82228">
        <ele>125.9</ele>
        <time>2019-07-07T04:37:57Z</time>
      </trkpt>
      <trkpt lat="43.67081" lon="3.82223">
        <ele>126.1</ele>
        <time>2019-07-07T04:37:58Z</time>
      </trkpt>
      <trkpt lat="43.67081" lon="3.82215">
        <ele>126.3</ele>
        <time>2019-07-07T04:38:00Z</time>
      </trkpt>
      <trkpt lat="43.67083" lon="3.82208">
        <ele>126.5</ele>
        <time>2019-07-07T04:38:02Z</time>
      </trkpt>
      <trkpt lat="43.67084" lon="3.82204">
        <ele>126.7</ele>
        <time>2019-07-07T04:38:03Z</time>
      </trkpt>
      <trkpt lat="43.67086" lon="3.822">
        <ele>126.8</ele>
        <time>2019-07-07T04:38:04Z</time>
      </trkpt>
      <trkpt lat="43.67088" lon="3.82194">
        <ele>127.1</ele>
        <time>2019-07-07T04:38:06Z</time>
      </trkpt>
      <trkpt lat="43.6709" lon="3.82188">
        <ele>127.3</ele>
        <time>2019-07-07T04:38:07Z</time>
      </trkpt>
      <trkpt lat="43.67093" lon="3.82182">
        <ele>127.5</ele>
        <time>2019-07-07T04:38:08Z</time>
      </trkpt>
      <trkpt lat="43.67096" lon="3.82177">
        <ele>127.7</ele>
        <time>2019-07-07T04:38:10Z</time>
      </trkpt>
      <trkpt lat="43.67097" lon="3.82173">
        <ele>127.8</ele>
        <time>2019-07-07T04:38:11Z</time>
      </trkpt>
      <trkpt lat="43.67098" lon="3.82167">
        <ele>128</ele>
        <time>2019-07-07T04:38:13Z</time>
      </trkpt>
      <trkpt lat="43.67097" lon="3.82164">
        <ele>128.1</ele>
        <time>2019-07-07T04:38:14Z</time>
      </trkpt>
      <trkpt lat="43.67096" lon="3.8216">
        <ele>128.3</ele>
        <time>2019-07-07T04:38:16Z</time>
      </trkpt>
      <trkpt lat="43.67094" lon="3.82157">
        <ele>129.1</ele>
        <time>2019-07-07T04:38:18Z</time>
      </trkpt>
      <trkpt lat="43.67089" lon="3.82152">
        <ele>129.6</ele>
        <time>2019-07-07T04:38:20Z</time>
      </trkpt>
      <trkpt lat="43.67086" lon="3.82148">
        <ele>129.9</ele>
        <time>2019-07-07T04:38:22Z</time>
      </trkpt>
      <trkpt lat="43.6709" lon="3.8214">
        <ele>130</ele>
        <time>2019-07-07T04:38:25Z</time>
      </trkpt>
      <trkpt lat="43.67092" lon="3.82138">
        <ele>130.2</ele>
        <time>2019-07-07T04:38:26Z</time>
      </trkpt>
      <trkpt lat="43.67095" lon="3.82134">
        <ele>130.4</ele>
        <time>2019-07-07T04:38:27Z</time>
      </trkpt>
      <trkpt lat="43.67098" lon="3.82131">
        <ele>130.6</ele>
        <time>2019-07-07T04:38:28Z</time>
      </trkpt>
      <trkpt lat="43.67101" lon="3.82128">
        <ele>130.7</ele>
        <time>2019-07-07T04:38:29Z</time>
      </trkpt>
      <trkpt lat="43.67104" lon="3.82125">
        <ele>131</ele>
        <time>2019-07-07T04:38:30Z</time>
      </trkpt>
      <trkpt lat="43.67107" lon="3.82123">
        <ele>131</ele>
        <time>2019-07-07T04:38:31Z</time>
      </trkpt>
      <trkpt lat="43.6711" lon="3.82121">
        <ele>131.3</ele>
        <time>2019-07-07T04:38:32Z</time>
      </trkpt>
      <trkpt lat="43.67113" lon="3.82118">
        <ele>131.3</ele>
        <time>2019-07-07T04:38:33Z</time>
      </trkpt>
      <trkpt lat="43.67117" lon="3.82113">
        <ele>131.8</ele>
        <time>2019-07-07T04:38:35Z</time>
      </trkpt>
      <trkpt lat="43.67119" lon="3.82109">
        <ele>132</ele>
        <time>2019-07-07T04:38:36Z</time>
      </trkpt>
      <trkpt lat="43.67124" lon="3.82105">
        <ele>132.3</ele>
        <time>2019-07-07T04:38:38Z</time>
      </trkpt>
      <trkpt lat="43.67126" lon="3.82102">
        <ele>132.4</ele>
        <time>2019-07-07T04:38:39Z</time>
      </trkpt>
      <trkpt lat="43.67129" lon="3.82099">
        <ele>132.6</ele>
        <time>2019-07-07T04:38:40Z</time>
      </trkpt>
      <trkpt lat="43.6713" lon="3.82094">
        <ele>132.8</ele>
        <time>2019-07-07T04:38:41Z</time>
      </trkpt>
      <trkpt lat="43.6713" lon="3.82089">
        <ele>133</ele>
        <time>2019-07-07T04:38:43Z</time>
      </trkpt>
      <trkpt lat="43.6713" lon="3.82085">
        <ele>133.2</ele>
        <time>2019-07-07T04:38:44Z</time>
      </trkpt>
      <trkpt lat="43.67129" lon="3.82077">
        <ele>133.5</ele>
        <time>2019-07-07T04:38:46Z</time>
      </trkpt>
      <trkpt lat="43.67128" lon="3.82072">
        <ele>133.6</ele>
        <time>2019-07-07T04:38:47Z</time>
      </trkpt>
      <trkpt lat="43.67127" lon="3.82068">
        <ele>133.8</ele>
        <time>2019-07-07T04:38:48Z</time>
      </trkpt>
      <trkpt lat="43.67125" lon="3.82065">
        <ele>133.9</ele>
        <time>2019-07-07T04:38:49Z</time>
      </trkpt>
      <trkpt lat="43.67124" lon="3.82061">
        <ele>134.1</ele>
        <time>2019-07-07T04:38:50Z</time>
      </trkpt>
      <trkpt lat="43.67122" lon="3.82057">
        <ele>134.2</ele>
        <time>2019-07-07T04:38:51Z</time>
      </trkpt>
      <trkpt lat="43.67119" lon="3.82056">
        <ele>134.2</ele>
        <time>2019-07-07T04:38:52Z</time>
      </trkpt>
      <trkpt lat="43.67118" lon="3.82052">
        <ele>134.3</ele>
        <time>2019-07-07T04:38:53Z</time>
      </trkpt>
      <trkpt lat="43.67117" lon="3.82048">
        <ele>134.5</ele>
        <time>2019-07-07T04:38:54Z</time>
      </trkpt>
      <trkpt lat="43.67113" lon="3.82042">
        <ele>134.6</ele>
        <time>2019-07-07T04:38:56Z</time>
      </trkpt>
      <trkpt lat="43.67112" lon="3.82038">
        <ele>134.7</ele>
        <time>2019-07-07T04:38:57Z</time>
      </trkpt>
      <trkpt lat="43.67111" lon="3.82035">
        <ele>134.9</ele>
        <time>2019-07-07T04:38:58Z</time>
      </trkpt>
      <trkpt lat="43.67108" lon="3.82029">
        <ele>135.1</ele>
        <time>2019-07-07T04:39:00Z</time>
      </trkpt>
      <trkpt lat="43.67108" lon="3.82019">
        <ele>135.6</ele>
        <time>2019-07-07T04:39:02Z</time>
      </trkpt>
      <trkpt lat="43.67108" lon="3.82012">
        <ele>135.8</ele>
        <time>2019-07-07T04:39:03Z</time>
      </trkpt>
      <trkpt lat="43.67109" lon="3.82007">
        <ele>136</ele>
        <time>2019-07-07T04:39:04Z</time>
      </trkpt>
      <trkpt lat="43.6711" lon="3.82002">
        <ele>136.3</ele>
        <time>2019-07-07T04:39:05Z</time>
      </trkpt>
      <trkpt lat="43.67111" lon="3.81997">
        <ele>136.5</ele>
        <time>2019-07-07T04:39:06Z</time>
      </trkpt>
      <trkpt lat="43.67113" lon="3.81994">
        <ele>136.5</ele>
        <time>2019-07-07T04:39:07Z</time>
      </trkpt>
      <trkpt lat="43.67114" lon="3.81984">
        <ele>136.9</ele>
        <time>2019-07-07T04:39:09Z</time>
      </trkpt>
      <trkpt lat="43.67115" lon="3.81978">
        <ele>137</ele>
        <time>2019-07-07T04:39:10Z</time>
      </trkpt>
      <trkpt lat="43.67115" lon="3.81973">
        <ele>137.1</ele>
        <time>2019-07-07T04:39:11Z</time>
      </trkpt>
      <trkpt lat="43.67115" lon="3.81969">
        <ele>137.1</ele>
        <time>2019-07-07T04:39:12Z</time>
      </trkpt>
      <trkpt lat="43.67115" lon="3.81964">
        <ele>137.2</ele>
        <time>2019-07-07T04:39:13Z</time>
      </trkpt>
      <trkpt lat="43.67116" lon="3.81958">
        <ele>137.2</ele>
        <time>2019-07-07T04:39:14Z</time>
      </trkpt>
      <trkpt lat="43.67116" lon="3.81954">
        <ele>137.2</ele>
        <time>2019-07-07T04:39:15Z</time>
      </trkpt>
      <trkpt lat="43.67117" lon="3.8195">
        <ele>137</ele>
        <time>2019-07-07T04:39:16Z</time>
      </trkpt>
      <trkpt lat="43.67119" lon="3.81945">
        <ele>136.9</ele>
        <time>2019-07-07T04:39:17Z</time>
      </trkpt>
      <trkpt lat="43.6712" lon="3.81941">
        <ele>136.7</ele>
        <time>2019-07-07T04:39:18Z</time>
      </trkpt>
      <trkpt lat="43.67121" lon="3.81936">
        <ele>136.6</ele>
        <time>2019-07-07T04:39:19Z</time>
      </trkpt>
      <trkpt lat="43.6712" lon="3.81929">
        <ele>136.2</ele>
        <time>2019-07-07T04:39:20Z</time>
      </trkpt>
      <trkpt lat="43.6712" lon="3.81923">
        <ele>136</ele>
        <time>2019-07-07T04:39:21Z</time>
      </trkpt>
      <trkpt lat="43.67121" lon="3.81919">
        <ele>135.7</ele>
        <time>2019-07-07T04:39:22Z</time>
      </trkpt>
      <trkpt lat="43.67122" lon="3.81912">
        <ele>135.1</ele>
        <time>2019-07-07T04:39:24Z</time>
      </trkpt>
      <trkpt lat="43.67122" lon="3.81907">
        <ele>134.7</ele>
        <time>2019-07-07T04:39:25Z</time>
      </trkpt>
      <trkpt lat="43.67123" lon="3.81901">
        <ele>134.2</ele>
        <time>2019-07-07T04:39:26Z</time>
      </trkpt>
      <trkpt lat="43.67122" lon="3.81894">
        <ele>133.5</ele>
        <time>2019-07-07T04:39:27Z</time>
      </trkpt>
      <trkpt lat="43.67122" lon="3.81889">
        <ele>133.1</ele>
        <time>2019-07-07T04:39:28Z</time>
      </trkpt>
      <trkpt lat="43.67121" lon="3.81883">
        <ele>132.6</ele>
        <time>2019-07-07T04:39:29Z</time>
      </trkpt>
      <trkpt lat="43.67121" lon="3.81879">
        <ele>132.2</ele>
        <time>2019-07-07T04:39:30Z</time>
      </trkpt>
      <trkpt lat="43.67121" lon="3.81874">
        <ele>131.6</ele>
        <time>2019-07-07T04:39:31Z</time>
      </trkpt>
      <trkpt lat="43.67119" lon="3.81871">
        <ele>131.3</ele>
        <time>2019-07-07T04:39:32Z</time>
      </trkpt>
      <trkpt lat="43.67118" lon="3.81868">
        <ele>130.7</ele>
        <time>2019-07-07T04:39:33Z</time>
      </trkpt>
      <trkpt lat="43.67118" lon="3.81861">
        <ele>130</ele>
        <time>2019-07-07T04:39:34Z</time>
      </trkpt>
      <trkpt lat="43.67117" lon="3.81855">
        <ele>128.6</ele>
        <time>2019-07-07T04:39:35Z</time>
      </trkpt>
      <trkpt lat="43.67117" lon="3.81848">
        <ele>128</ele>
        <time>2019-07-07T04:39:36Z</time>
      </trkpt>
      <trkpt lat="43.67115" lon="3.81842">
        <ele>127</ele>
        <time>2019-07-07T04:39:37Z</time>
      </trkpt>
      <trkpt lat="43.67113" lon="3.81834">
        <ele>125.9</ele>
        <time>2019-07-07T04:39:38Z</time>
      </trkpt>
      <trkpt lat="43.67111" lon="3.81826">
        <ele>124.7</ele>
        <time>2019-07-07T04:39:39Z</time>
      </trkpt>
      <trkpt lat="43.67109" lon="3.81817">
        <ele>123.5</ele>
        <time>2019-07-07T04:39:40Z</time>
      </trkpt>
      <trkpt lat="43.67106" lon="3.81808">
        <ele>122.4</ele>
        <time>2019-07-07T04:39:41Z</time>
      </trkpt>
      <trkpt lat="43.67103" lon="3.81801">
        <ele>122</ele>
        <time>2019-07-07T04:39:42Z</time>
      </trkpt>
      <trkpt lat="43.67099" lon="3.81793">
        <ele>121.2</ele>
        <time>2019-07-07T04:39:43Z</time>
      </trkpt>
      <trkpt lat="43.67094" lon="3.81785">
        <ele>120.7</ele>
        <time>2019-07-07T04:39:44Z</time>
      </trkpt>
      <trkpt lat="43.67089" lon="3.81779">
        <ele>119.9</ele>
        <time>2019-07-07T04:39:45Z</time>
      </trkpt>
      <trkpt lat="43.67084" lon="3.81774">
        <ele>119.7</ele>
        <time>2019-07-07T04:39:46Z</time>
      </trkpt>
      <trkpt lat="43.6708" lon="3.81769">
        <ele>119.4</ele>
        <time>2019-07-07T04:39:47Z</time>
      </trkpt>
      <trkpt lat="43.67075" lon="3.81765">
        <ele>119.2</ele>
        <time>2019-07-07T04:39:48Z</time>
      </trkpt>
      <trkpt lat="43.6707" lon="3.8176">
        <ele>119</ele>
        <time>2019-07-07T04:39:49Z</time>
      </trkpt>
      <trkpt lat="43.67066" lon="3.81754">
        <ele>119.3</ele>
        <time>2019-07-07T04:39:50Z</time>
      </trkpt>
      <trkpt lat="43.67062" lon="3.81749">
        <ele>119.2</ele>
        <time>2019-07-07T04:39:51Z</time>
      </trkpt>
      <trkpt lat="43.67056" lon="3.81746">
        <ele>119.7</ele>
        <time>2019-07-07T04:39:52Z</time>
      </trkpt>
      <trkpt lat="43.67051" lon="3.81743">
        <ele>120.1</ele>
        <time>2019-07-07T04:39:53Z</time>
      </trkpt>
      <trkpt lat="43.67046" lon="3.81739">
        <ele>120</ele>
        <time>2019-07-07T04:39:54Z</time>
      </trkpt>
      <trkpt lat="43.67041" lon="3.81732">
        <ele>120.3</ele>
        <time>2019-07-07T04:39:55Z</time>
      </trkpt>
      <trkpt lat="43.67037" lon="3.81724">
        <ele>119.7</ele>
        <time>2019-07-07T04:39:56Z</time>
      </trkpt>
      <trkpt lat="43.67033" lon="3.81716">
        <ele>119.2</ele>
        <time>2019-07-07T04:39:57Z</time>
      </trkpt>
      <trkpt lat="43.6703" lon="3.81706">
        <ele>118.6</ele>
        <time>2019-07-07T04:39:58Z</time>
      </trkpt>
      <trkpt lat="43.67026" lon="3.81696">
        <ele>118.8</ele>
        <time>2019-07-07T04:39:59Z</time>
      </trkpt>
      <trkpt lat="43.67021" lon="3.81689">
        <ele>118.8</ele>
        <time>2019-07-07T04:40:00Z</time>
      </trkpt>
      <trkpt lat="43.67015" lon="3.81682">
        <ele>119.6</ele>
        <time>2019-07-07T04:40:01Z</time>
      </trkpt>
      <trkpt lat="43.67009" lon="3.81674">
        <ele>120</ele>
        <time>2019-07-07T04:40:02Z</time>
      </trkpt>
      <trkpt lat="43.67003" lon="3.81669">
        <ele>120.6</ele>
        <time>2019-07-07T04:40:03Z</time>
      </trkpt>
      <trkpt lat="43.66999" lon="3.81658">
        <ele>120.4</ele>
        <time>2019-07-07T04:40:04Z</time>
      </trkpt>
      <trkpt lat="43.66994" lon="3.8165">
        <ele>121</ele>
        <time>2019-07-07T04:40:05Z</time>
      </trkpt>
      <trkpt lat="43.66988" lon="3.81641">
        <ele>121.4</ele>
        <time>2019-07-07T04:40:06Z</time>
      </trkpt>
      <trkpt lat="43.66983" lon="3.81632">
        <ele>121.6</ele>
        <time>2019-07-07T04:40:07Z</time>
      </trkpt>
      <trkpt lat="43.66979" lon="3.81618">
        <ele>121.9</ele>
        <time>2019-07-07T04:40:08Z</time>
      </trkpt>
      <trkpt lat="43.66975" lon="3.81607">
        <ele>122</ele>
        <time>2019-07-07T04:40:09Z</time>
      </trkpt>
      <trkpt lat="43.6697" lon="3.81599">
        <ele>122.5</ele>
        <time>2019-07-07T04:40:10Z</time>
      </trkpt>
      <trkpt lat="43.66963" lon="3.81593">
        <ele>122.9</ele>
        <time>2019-07-07T04:40:11Z</time>
      </trkpt>
      <trkpt lat="43.66956" lon="3.81586">
        <ele>123.4</ele>
        <time>2019-07-07T04:40:12Z</time>
      </trkpt>
      <trkpt lat="43.6695" lon="3.81578">
        <ele>123.9</ele>
        <time>2019-07-07T04:40:13Z</time>
      </trkpt>
      <trkpt lat="43.66941" lon="3.81574">
        <ele>124.6</ele>
        <time>2019-07-07T04:40:14Z</time>
      </trkpt>
      <trkpt lat="43.66933" lon="3.81572">
        <ele>125</ele>
        <time>2019-07-07T04:40:15Z</time>
      </trkpt>
      <trkpt lat="43.66928" lon="3.81567">
        <ele>125.4</ele>
        <time>2019-07-07T04:40:16Z</time>
      </trkpt>
      <trkpt lat="43.66917" lon="3.81568">
        <ele>126.3</ele>
        <time>2019-07-07T04:40:17Z</time>
      </trkpt>
      <trkpt lat="43.6691" lon="3.81568">
        <ele>126.8</ele>
        <time>2019-07-07T04:40:18Z</time>
      </trkpt>
      <trkpt lat="43.66902" lon="3.81566">
        <ele>127.2</ele>
        <time>2019-07-07T04:40:19Z</time>
      </trkpt>
      <trkpt lat="43.66897" lon="3.81563">
        <ele>127.5</ele>
        <time>2019-07-07T04:40:20Z</time>
      </trkpt>
      <trkpt lat="43.66893" lon="3.81561">
        <ele>127.7</ele>
        <time>2019-07-07T04:40:21Z</time>
      </trkpt>
      <trkpt lat="43.66888" lon="3.81557">
        <ele>128</ele>
        <time>2019-07-07T04:40:22Z</time>
      </trkpt>
      <trkpt lat="43.66883" lon="3.81554">
        <ele>128.2</ele>
        <time>2019-07-07T04:40:23Z</time>
      </trkpt>
      <trkpt lat="43.6688" lon="3.81548">
        <ele>128.3</ele>
        <time>2019-07-07T04:40:24Z</time>
      </trkpt>
      <trkpt lat="43.66876" lon="3.81541">
        <ele>128.3</ele>
        <time>2019-07-07T04:40:25Z</time>
      </trkpt>
      <trkpt lat="43.66873" lon="3.81536">
        <ele>128.4</ele>
        <time>2019-07-07T04:40:26Z</time>
      </trkpt>
      <trkpt lat="43.66869" lon="3.81531">
        <ele>128.6</ele>
        <time>2019-07-07T04:40:27Z</time>
      </trkpt>
      <trkpt lat="43.66864" lon="3.81527">
        <ele>128.8</ele>
        <time>2019-07-07T04:40:28Z</time>
      </trkpt>
      <trkpt lat="43.6686" lon="3.81525">
        <ele>129.1</ele>
        <time>2019-07-07T04:40:29Z</time>
      </trkpt>
      <trkpt lat="43.66856" lon="3.81522">
        <ele>129.2</ele>
        <time>2019-07-07T04:40:30Z</time>
      </trkpt>
      <trkpt lat="43.66851" lon="3.8152">
        <ele>129.5</ele>
        <time>2019-07-07T04:40:31Z</time>
      </trkpt>
      <trkpt lat="43.66847" lon="3.81518">
        <ele>129.7</ele>
        <time>2019-07-07T04:40:32Z</time>
      </trkpt>
      <trkpt lat="43.66844" lon="3.81519">
        <ele>129.8</ele>
        <time>2019-07-07T04:40:34Z</time>
      </trkpt>
      <trkpt lat="43.66842" lon="3.81517">
        <ele>130</ele>
        <time>2019-07-07T04:40:35Z</time>
      </trkpt>
      <trkpt lat="43.66838" lon="3.81515">
        <ele>130.1</ele>
        <time>2019-07-07T04:40:37Z</time>
      </trkpt>
      <trkpt lat="43.66835" lon="3.81513">
        <ele>130.3</ele>
        <time>2019-07-07T04:40:38Z</time>
      </trkpt>
      <trkpt lat="43.66832" lon="3.81509">
        <ele>130.4</ele>
        <time>2019-07-07T04:40:39Z</time>
      </trkpt>
      <trkpt lat="43.66825" lon="3.81507">
        <ele>130.6</ele>
        <time>2019-07-07T04:40:40Z</time>
      </trkpt>
      <trkpt lat="43.6682" lon="3.81503">
        <ele>130.6</ele>
        <time>2019-07-07T04:40:42Z</time>
      </trkpt>
      <trkpt lat="43.66817" lon="3.81501">
        <ele>130.6</ele>
        <time>2019-07-07T04:40:43Z</time>
      </trkpt>
      <trkpt lat="43.66813" lon="3.815">
        <ele>130.7</ele>
        <time>2019-07-07T04:40:44Z</time>
      </trkpt>
      <trkpt lat="43.66806" lon="3.81498">
        <ele>130.7</ele>
        <time>2019-07-07T04:40:45Z</time>
      </trkpt>
      <trkpt lat="43.66804" lon="3.81495">
        <ele>130.8</ele>
        <time>2019-07-07T04:40:47Z</time>
      </trkpt>
      <trkpt lat="43.66802" lon="3.8149">
        <ele>130.9</ele>
        <time>2019-07-07T04:40:48Z</time>
      </trkpt>
      <trkpt lat="43.66799" lon="3.81489">
        <ele>131</ele>
        <time>2019-07-07T04:40:49Z</time>
      </trkpt>
      <trkpt lat="43.66793" lon="3.81487">
        <ele>131.4</ele>
        <time>2019-07-07T04:40:50Z</time>
      </trkpt>
      <trkpt lat="43.66789" lon="3.81482">
        <ele>131.7</ele>
        <time>2019-07-07T04:40:51Z</time>
      </trkpt>
      <trkpt lat="43.66787" lon="3.8148">
        <ele>132</ele>
        <time>2019-07-07T04:40:52Z</time>
      </trkpt>
      <trkpt lat="43.66782" lon="3.81476">
        <ele>132.5</ele>
        <time>2019-07-07T04:40:53Z</time>
      </trkpt>
      <trkpt lat="43.66779" lon="3.81472">
        <ele>133.1</ele>
        <time>2019-07-07T04:40:54Z</time>
      </trkpt>
      <trkpt lat="43.66775" lon="3.81471">
        <ele>133.4</ele>
        <time>2019-07-07T04:40:55Z</time>
      </trkpt>
      <trkpt lat="43.66771" lon="3.81468">
        <ele>134.4</ele>
        <time>2019-07-07T04:40:56Z</time>
      </trkpt>
      <trkpt lat="43.66768" lon="3.81466">
        <ele>135.1</ele>
        <time>2019-07-07T04:40:57Z</time>
      </trkpt>
      <trkpt lat="43.66764" lon="3.81463">
        <ele>135.4</ele>
        <time>2019-07-07T04:40:58Z</time>
      </trkpt>
      <trkpt lat="43.66758" lon="3.81458">
        <ele>136.2</ele>
        <time>2019-07-07T04:40:59Z</time>
      </trkpt>
      <trkpt lat="43.66753" lon="3.81457">
        <ele>136.8</ele>
        <time>2019-07-07T04:41:00Z</time>
      </trkpt>
      <trkpt lat="43.66747" lon="3.81455">
        <ele>137.3</ele>
        <time>2019-07-07T04:41:02Z</time>
      </trkpt>
      <trkpt lat="43.66743" lon="3.81454">
        <ele>137.7</ele>
        <time>2019-07-07T04:41:03Z</time>
      </trkpt>
      <trkpt lat="43.66738" lon="3.81453">
        <ele>138.1</ele>
        <time>2019-07-07T04:41:04Z</time>
      </trkpt>
      <trkpt lat="43.6673" lon="3.81452">
        <ele>138.4</ele>
        <time>2019-07-07T04:41:06Z</time>
      </trkpt>
      <trkpt lat="43.66725" lon="3.8145">
        <ele>138.5</ele>
        <time>2019-07-07T04:41:07Z</time>
      </trkpt>
      <trkpt lat="43.66721" lon="3.81448">
        <ele>138.7</ele>
        <time>2019-07-07T04:41:08Z</time>
      </trkpt>
      <trkpt lat="43.66716" lon="3.81448">
        <ele>138.7</ele>
        <time>2019-07-07T04:41:09Z</time>
      </trkpt>
      <trkpt lat="43.66712" lon="3.81448">
        <ele>138.7</ele>
        <time>2019-07-07T04:41:10Z</time>
      </trkpt>
      <trkpt lat="43.66707" lon="3.81445">
        <ele>138.7</ele>
        <time>2019-07-07T04:41:11Z</time>
      </trkpt>
      <trkpt lat="43.66703" lon="3.81443">
        <ele>138.7</ele>
        <time>2019-07-07T04:41:12Z</time>
      </trkpt>
      <trkpt lat="43.66699" lon="3.81443">
        <ele>138.7</ele>
        <time>2019-07-07T04:41:13Z</time>
      </trkpt>
      <trkpt lat="43.66696" lon="3.8144">
        <ele>138.7</ele>
        <time>2019-07-07T04:41:14Z</time>
      </trkpt>
      <trkpt lat="43.66692" lon="3.81438">
        <ele>138.7</ele>
        <time>2019-07-07T04:41:15Z</time>
      </trkpt>
      <trkpt lat="43.66687" lon="3.81437">
        <ele>138.6</ele>
        <time>2019-07-07T04:41:16Z</time>
      </trkpt>
      <trkpt lat="43.66685" lon="3.81434">
        <ele>138.6</ele>
        <time>2019-07-07T04:41:17Z</time>
      </trkpt>
      <trkpt lat="43.66681" lon="3.8143">
        <ele>138.6</ele>
        <time>2019-07-07T04:41:18Z</time>
      </trkpt>
      <trkpt lat="43.66679" lon="3.81425">
        <ele>138.4</ele>
        <time>2019-07-07T04:41:19Z</time>
      </trkpt>
      <trkpt lat="43.66676" lon="3.8142">
        <ele>138.3</ele>
        <time>2019-07-07T04:41:20Z</time>
      </trkpt>
      <trkpt lat="43.66675" lon="3.81414">
        <ele>138.3</ele>
        <time>2019-07-07T04:41:21Z</time>
      </trkpt>
      <trkpt lat="43.66674" lon="3.81407">
        <ele>138.2</ele>
        <time>2019-07-07T04:41:22Z</time>
      </trkpt>
      <trkpt lat="43.66675" lon="3.81399">
        <ele>138.1</ele>
        <time>2019-07-07T04:41:23Z</time>
      </trkpt>
      <trkpt lat="43.66675" lon="3.81394">
        <ele>138.1</ele>
        <time>2019-07-07T04:41:24Z</time>
      </trkpt>
      <trkpt lat="43.66676" lon="3.81389">
        <ele>138.2</ele>
        <time>2019-07-07T04:41:25Z</time>
      </trkpt>
      <trkpt lat="43.66677" lon="3.81382">
        <ele>138.2</ele>
        <time>2019-07-07T04:41:26Z</time>
      </trkpt>
      <trkpt lat="43.66678" lon="3.81376">
        <ele>138.3</ele>
        <time>2019-07-07T04:41:27Z</time>
      </trkpt>
      <trkpt lat="43.6668" lon="3.81371">
        <ele>138.3</ele>
        <time>2019-07-07T04:41:28Z</time>
      </trkpt>
      <trkpt lat="43.66681" lon="3.81366">
        <ele>138.5</ele>
        <time>2019-07-07T04:41:29Z</time>
      </trkpt>
      <trkpt lat="43.66682" lon="3.81362">
        <ele>138.6</ele>
        <time>2019-07-07T04:41:30Z</time>
      </trkpt>
      <trkpt lat="43.66684" lon="3.81358">
        <ele>138.9</ele>
        <time>2019-07-07T04:41:31Z</time>
      </trkpt>
      <trkpt lat="43.66685" lon="3.81353">
        <ele>139.2</ele>
        <time>2019-07-07T04:41:32Z</time>
      </trkpt>
      <trkpt lat="43.66686" lon="3.81348">
        <ele>139.5</ele>
        <time>2019-07-07T04:41:33Z</time>
      </trkpt>
      <trkpt lat="43.66687" lon="3.81343">
        <ele>139.8</ele>
        <time>2019-07-07T04:41:34Z</time>
      </trkpt>
      <trkpt lat="43.66689" lon="3.81338">
        <ele>140</ele>
        <time>2019-07-07T04:41:35Z</time>
      </trkpt>
      <trkpt lat="43.6669" lon="3.81332">
        <ele>140.3</ele>
        <time>2019-07-07T04:41:36Z</time>
      </trkpt>
      <trkpt lat="43.66692" lon="3.81328">
        <ele>140.5</ele>
        <time>2019-07-07T04:41:37Z</time>
      </trkpt>
      <trkpt lat="43.66693" lon="3.81323">
        <ele>140.7</ele>
        <time>2019-07-07T04:41:38Z</time>
      </trkpt>
      <trkpt lat="43.66699" lon="3.8131">
        <ele>141.3</ele>
        <time>2019-07-07T04:41:41Z</time>
      </trkpt>
      <trkpt lat="43.66701" lon="3.81305">
        <ele>141.5</ele>
        <time>2019-07-07T04:41:42Z</time>
      </trkpt>
      <trkpt lat="43.66703" lon="3.81301">
        <ele>141.7</ele>
        <time>2019-07-07T04:41:43Z</time>
      </trkpt>
      <trkpt lat="43.66704" lon="3.81296">
        <ele>142</ele>
        <time>2019-07-07T04:41:44Z</time>
      </trkpt>
      <trkpt lat="43.66706" lon="3.81292">
        <ele>142.2</ele>
        <time>2019-07-07T04:41:45Z</time>
      </trkpt>
      <trkpt lat="43.66709" lon="3.81288">
        <ele>142.4</ele>
        <time>2019-07-07T04:41:46Z</time>
      </trkpt>
      <trkpt lat="43.66713" lon="3.81284">
        <ele>142.5</ele>
        <time>2019-07-07T04:41:47Z</time>
      </trkpt>
      <trkpt lat="43.66716" lon="3.8128">
        <ele>142.6</ele>
        <time>2019-07-07T04:41:48Z</time>
      </trkpt>
      <trkpt lat="43.66722" lon="3.81276">
        <ele>142.6</ele>
        <time>2019-07-07T04:41:49Z</time>
      </trkpt>
      <trkpt lat="43.66725" lon="3.81272">
        <ele>142.6</ele>
        <time>2019-07-07T04:41:50Z</time>
      </trkpt>
      <trkpt lat="43.66728" lon="3.81267">
        <ele>142.6</ele>
        <time>2019-07-07T04:41:51Z</time>
      </trkpt>
      <trkpt lat="43.66732" lon="3.81261">
        <ele>142.6</ele>
        <time>2019-07-07T04:41:52Z</time>
      </trkpt>
      <trkpt lat="43.66737" lon="3.81256">
        <ele>142.7</ele>
        <time>2019-07-07T04:41:53Z</time>
      </trkpt>
      <trkpt lat="43.66742" lon="3.8125">
        <ele>142.7</ele>
        <time>2019-07-07T04:41:54Z</time>
      </trkpt>
      <trkpt lat="43.66747" lon="3.81248">
        <ele>142.8</ele>
        <time>2019-07-07T04:41:55Z</time>
      </trkpt>
      <trkpt lat="43.66751" lon="3.81244">
        <ele>142.9</ele>
        <time>2019-07-07T04:41:56Z</time>
      </trkpt>
      <trkpt lat="43.66749" lon="3.81233">
        <ele>143</ele>
        <time>2019-07-07T04:41:57Z</time>
      </trkpt>
      <trkpt lat="43.66749" lon="3.81224">
        <ele>143</ele>
        <time>2019-07-07T04:41:58Z</time>
      </trkpt>
      <trkpt lat="43.66748" lon="3.81221">
        <ele>142.9</ele>
        <time>2019-07-07T04:41:59Z</time>
      </trkpt>
      <trkpt lat="43.66746" lon="3.81217">
        <ele>143.2</ele>
        <time>2019-07-07T04:42:00Z</time>
      </trkpt>
      <trkpt lat="43.66742" lon="3.81215">
        <ele>143.4</ele>
        <time>2019-07-07T04:42:01Z</time>
      </trkpt>
      <trkpt lat="43.6674" lon="3.81217">
        <ele>143.5</ele>
        <time>2019-07-07T04:42:02Z</time>
      </trkpt>
      <trkpt lat="43.66737" lon="3.81214">
        <ele>143.7</ele>
        <time>2019-07-07T04:42:03Z</time>
      </trkpt>
      <trkpt lat="43.66731" lon="3.81213">
        <ele>144</ele>
        <time>2019-07-07T04:42:05Z</time>
      </trkpt>
      <trkpt lat="43.66726" lon="3.81213">
        <ele>144</ele>
        <time>2019-07-07T04:42:06Z</time>
      </trkpt>
      <trkpt lat="43.66723" lon="3.81212">
        <ele>144.1</ele>
        <time>2019-07-07T04:42:07Z</time>
      </trkpt>
      <trkpt lat="43.6672" lon="3.8121">
        <ele>144.2</ele>
        <time>2019-07-07T04:42:08Z</time>
      </trkpt>
      <trkpt lat="43.66717" lon="3.81208">
        <ele>144.3</ele>
        <time>2019-07-07T04:42:09Z</time>
      </trkpt>
      <trkpt lat="43.66712" lon="3.81204">
        <ele>144.3</ele>
        <time>2019-07-07T04:42:11Z</time>
      </trkpt>
      <trkpt lat="43.6671" lon="3.81202">
        <ele>144.4</ele>
        <time>2019-07-07T04:42:12Z</time>
      </trkpt>
      <trkpt lat="43.66706" lon="3.81198">
        <ele>144.4</ele>
        <time>2019-07-07T04:42:14Z</time>
      </trkpt>
      <trkpt lat="43.66704" lon="3.81195">
        <ele>144.5</ele>
        <time>2019-07-07T04:42:15Z</time>
      </trkpt>
      <trkpt lat="43.66702" lon="3.8119">
        <ele>144.6</ele>
        <time>2019-07-07T04:42:16Z</time>
      </trkpt>
      <trkpt lat="43.66701" lon="3.81184">
        <ele>144.7</ele>
        <time>2019-07-07T04:42:17Z</time>
      </trkpt>
      <trkpt lat="43.66701" lon="3.8118">
        <ele>144.8</ele>
        <time>2019-07-07T04:42:18Z</time>
      </trkpt>
      <trkpt lat="43.667" lon="3.81176">
        <ele>144.9</ele>
        <time>2019-07-07T04:42:19Z</time>
      </trkpt>
      <trkpt lat="43.66699" lon="3.81172">
        <ele>145</ele>
        <time>2019-07-07T04:42:20Z</time>
      </trkpt>
      <trkpt lat="43.66696" lon="3.81166">
        <ele>145.1</ele>
        <time>2019-07-07T04:42:22Z</time>
      </trkpt>
      <trkpt lat="43.66695" lon="3.81163">
        <ele>145.2</ele>
        <time>2019-07-07T04:42:23Z</time>
      </trkpt>
      <trkpt lat="43.66693" lon="3.81159">
        <ele>145.3</ele>
        <time>2019-07-07T04:42:24Z</time>
      </trkpt>
      <trkpt lat="43.66692" lon="3.81155">
        <ele>145.4</ele>
        <time>2019-07-07T04:42:25Z</time>
      </trkpt>
      <trkpt lat="43.66691" lon="3.81151">
        <ele>145.5</ele>
        <time>2019-07-07T04:42:26Z</time>
      </trkpt>
      <trkpt lat="43.6669" lon="3.81147">
        <ele>145.6</ele>
        <time>2019-07-07T04:42:27Z</time>
      </trkpt>
      <trkpt lat="43.66689" lon="3.81143">
        <ele>145.7</ele>
        <time>2019-07-07T04:42:28Z</time>
      </trkpt>
      <trkpt lat="43.66689" lon="3.81139">
        <ele>145.8</ele>
        <time>2019-07-07T04:42:29Z</time>
      </trkpt>
      <trkpt lat="43.66688" lon="3.81135">
        <ele>145.9</ele>
        <time>2019-07-07T04:42:30Z</time>
      </trkpt>
      <trkpt lat="43.66689" lon="3.81131">
        <ele>146</ele>
        <time>2019-07-07T04:42:31Z</time>
      </trkpt>
      <trkpt lat="43.66689" lon="3.81126">
        <ele>146.1</ele>
        <time>2019-07-07T04:42:32Z</time>
      </trkpt>
      <trkpt lat="43.66691" lon="3.8112">
        <ele>146.1</ele>
        <time>2019-07-07T04:42:34Z</time>
      </trkpt>
      <trkpt lat="43.66692" lon="3.81116">
        <ele>146.1</ele>
        <time>2019-07-07T04:42:35Z</time>
      </trkpt>
      <trkpt lat="43.66694" lon="3.81112">
        <ele>146.2</ele>
        <time>2019-07-07T04:42:36Z</time>
      </trkpt>
      <trkpt lat="43.66695" lon="3.81108">
        <ele>146.1</ele>
        <time>2019-07-07T04:42:37Z</time>
      </trkpt>
      <trkpt lat="43.66698" lon="3.81104">
        <ele>146.1</ele>
        <time>2019-07-07T04:42:38Z</time>
      </trkpt>
      <trkpt lat="43.667" lon="3.81099">
        <ele>146.1</ele>
        <time>2019-07-07T04:42:39Z</time>
      </trkpt>
      <trkpt lat="43.66701" lon="3.81095">
        <ele>146.1</ele>
        <time>2019-07-07T04:42:40Z</time>
      </trkpt>
      <trkpt lat="43.66702" lon="3.81091">
        <ele>146.1</ele>
        <time>2019-07-07T04:42:41Z</time>
      </trkpt>
      <trkpt lat="43.66704" lon="3.81087">
        <ele>146</ele>
        <time>2019-07-07T04:42:42Z</time>
      </trkpt>
      <trkpt lat="43.66705" lon="3.81084">
        <ele>146.1</ele>
        <time>2019-07-07T04:42:43Z</time>
      </trkpt>
      <trkpt lat="43.66707" lon="3.81078">
        <ele>146</ele>
        <time>2019-07-07T04:42:45Z</time>
      </trkpt>
      <trkpt lat="43.66706" lon="3.81096">
        <ele>145.9</ele>
        <time>2019-07-07T04:43:36Z</time>
      </trkpt>
      <trkpt lat="43.66706" lon="3.81099">
        <ele>145.8</ele>
        <time>2019-07-07T04:43:37Z</time>
      </trkpt>
      <trkpt lat="43.66704" lon="3.81105">
        <ele>145.7</ele>
        <time>2019-07-07T04:43:38Z</time>
      </trkpt>
      <trkpt lat="43.667" lon="3.81109">
        <ele>145.9</ele>
        <time>2019-07-07T04:43:39Z</time>
      </trkpt>
      <trkpt lat="43.66698" lon="3.81114">
        <ele>145.8</ele>
        <time>2019-07-07T04:43:40Z</time>
      </trkpt>
      <trkpt lat="43.66695" lon="3.8112">
        <ele>145.8</ele>
        <time>2019-07-07T04:43:41Z</time>
      </trkpt>
      <trkpt lat="43.66694" lon="3.81126">
        <ele>145.9</ele>
        <time>2019-07-07T04:43:42Z</time>
      </trkpt>
      <trkpt lat="43.6669" lon="3.81129">
        <ele>145.9</ele>
        <time>2019-07-07T04:43:43Z</time>
      </trkpt>
      <trkpt lat="43.66687" lon="3.81131">
        <ele>145.9</ele>
        <time>2019-07-07T04:43:44Z</time>
      </trkpt>
      <trkpt lat="43.66683" lon="3.81132">
        <ele>145.9</ele>
        <time>2019-07-07T04:43:45Z</time>
      </trkpt>
      <trkpt lat="43.6668" lon="3.81122">
        <ele>146.3</ele>
        <time>2019-07-07T04:43:46Z</time>
      </trkpt>
      <trkpt lat="43.66676" lon="3.81117">
        <ele>146.4</ele>
        <time>2019-07-07T04:43:47Z</time>
      </trkpt>
      <trkpt lat="43.66673" lon="3.81112">
        <ele>146.6</ele>
        <time>2019-07-07T04:43:48Z</time>
      </trkpt>
      <trkpt lat="43.6667" lon="3.81105">
        <ele>146.9</ele>
        <time>2019-07-07T04:43:49Z</time>
      </trkpt>
      <trkpt lat="43.66668" lon="3.81099">
        <ele>147.1</ele>
        <time>2019-07-07T04:43:50Z</time>
      </trkpt>
      <trkpt lat="43.66666" lon="3.81093">
        <ele>147.3</ele>
        <time>2019-07-07T04:43:51Z</time>
      </trkpt>
      <trkpt lat="43.66664" lon="3.81088">
        <ele>147.5</ele>
        <time>2019-07-07T04:43:52Z</time>
      </trkpt>
      <trkpt lat="43.66663" lon="3.81082">
        <ele>147.7</ele>
        <time>2019-07-07T04:43:53Z</time>
      </trkpt>
      <trkpt lat="43.6666" lon="3.81077">
        <ele>147.8</ele>
        <time>2019-07-07T04:43:54Z</time>
      </trkpt>
      <trkpt lat="43.66658" lon="3.81073">
        <ele>147.9</ele>
        <time>2019-07-07T04:43:55Z</time>
      </trkpt>
      <trkpt lat="43.66656" lon="3.81068">
        <ele>148</ele>
        <time>2019-07-07T04:43:56Z</time>
      </trkpt>
      <trkpt lat="43.66657" lon="3.8106">
        <ele>148.1</ele>
        <time>2019-07-07T04:43:57Z</time>
      </trkpt>
      <trkpt lat="43.66657" lon="3.81052">
        <ele>148.3</ele>
        <time>2019-07-07T04:43:58Z</time>
      </trkpt>
      <trkpt lat="43.66657" lon="3.81046">
        <ele>148.3</ele>
        <time>2019-07-07T04:43:59Z</time>
      </trkpt>
      <trkpt lat="43.66658" lon="3.81042">
        <ele>148.4</ele>
        <time>2019-07-07T04:44:00Z</time>
      </trkpt>
      <trkpt lat="43.66658" lon="3.81037">
        <ele>148.4</ele>
        <time>2019-07-07T04:44:01Z</time>
      </trkpt>
      <trkpt lat="43.66659" lon="3.81029">
        <ele>148.5</ele>
        <time>2019-07-07T04:44:02Z</time>
      </trkpt>
      <trkpt lat="43.66658" lon="3.81023">
        <ele>148.6</ele>
        <time>2019-07-07T04:44:03Z</time>
      </trkpt>
      <trkpt lat="43.66656" lon="3.81019">
        <ele>148.8</ele>
        <time>2019-07-07T04:44:04Z</time>
      </trkpt>
      <trkpt lat="43.66656" lon="3.81014">
        <ele>148.9</ele>
        <time>2019-07-07T04:44:05Z</time>
      </trkpt>
      <trkpt lat="43.66654" lon="3.81008">
        <ele>149</ele>
        <time>2019-07-07T04:44:06Z</time>
      </trkpt>
      <trkpt lat="43.66652" lon="3.81003">
        <ele>149.2</ele>
        <time>2019-07-07T04:44:07Z</time>
      </trkpt>
      <trkpt lat="43.66651" lon="3.80997">
        <ele>149.4</ele>
        <time>2019-07-07T04:44:08Z</time>
      </trkpt>
      <trkpt lat="43.6665" lon="3.80992">
        <ele>149.6</ele>
        <time>2019-07-07T04:44:09Z</time>
      </trkpt>
      <trkpt lat="43.66649" lon="3.80987">
        <ele>149.7</ele>
        <time>2019-07-07T04:44:10Z</time>
      </trkpt>
      <trkpt lat="43.66648" lon="3.80981">
        <ele>149.9</ele>
        <time>2019-07-07T04:44:11Z</time>
      </trkpt>
      <trkpt lat="43.66646" lon="3.80976">
        <ele>150.1</ele>
        <time>2019-07-07T04:44:12Z</time>
      </trkpt>
      <trkpt lat="43.66644" lon="3.80971">
        <ele>150.4</ele>
        <time>2019-07-07T04:44:13Z</time>
      </trkpt>
      <trkpt lat="43.66643" lon="3.80965">
        <ele>150.5</ele>
        <time>2019-07-07T04:44:14Z</time>
      </trkpt>
      <trkpt lat="43.66642" lon="3.80959">
        <ele>150.6</ele>
        <time>2019-07-07T04:44:15Z</time>
      </trkpt>
      <trkpt lat="43.66641" lon="3.80954">
        <ele>150.9</ele>
        <time>2019-07-07T04:44:16Z</time>
      </trkpt>
      <trkpt lat="43.66639" lon="3.80949">
        <ele>151</ele>
        <time>2019-07-07T04:44:17Z</time>
      </trkpt>
      <trkpt lat="43.66638" lon="3.80943">
        <ele>151</ele>
        <time>2019-07-07T04:44:18Z</time>
      </trkpt>
      <trkpt lat="43.66636" lon="3.80939">
        <ele>151.3</ele>
        <time>2019-07-07T04:44:19Z</time>
      </trkpt>
      <trkpt lat="43.66635" lon="3.80934">
        <ele>151.5</ele>
        <time>2019-07-07T04:44:20Z</time>
      </trkpt>
      <trkpt lat="43.66633" lon="3.80928">
        <ele>151.6</ele>
        <time>2019-07-07T04:44:21Z</time>
      </trkpt>
      <trkpt lat="43.66632" lon="3.80923">
        <ele>151.7</ele>
        <time>2019-07-07T04:44:22Z</time>
      </trkpt>
      <trkpt lat="43.6663" lon="3.80918">
        <ele>151.7</ele>
        <time>2019-07-07T04:44:23Z</time>
      </trkpt>
      <trkpt lat="43.66629" lon="3.80912">
        <ele>151.7</ele>
        <time>2019-07-07T04:44:24Z</time>
      </trkpt>
      <trkpt lat="43.66627" lon="3.80907">
        <ele>151.8</ele>
        <time>2019-07-07T04:44:25Z</time>
      </trkpt>
      <trkpt lat="43.66626" lon="3.80902">
        <ele>151.7</ele>
        <time>2019-07-07T04:44:26Z</time>
      </trkpt>
      <trkpt lat="43.66624" lon="3.80896">
        <ele>151.7</ele>
        <time>2019-07-07T04:44:27Z</time>
      </trkpt>
      <trkpt lat="43.66624" lon="3.8089">
        <ele>151.6</ele>
        <time>2019-07-07T04:44:28Z</time>
      </trkpt>
      <trkpt lat="43.66623" lon="3.80886">
        <ele>151.6</ele>
        <time>2019-07-07T04:44:29Z</time>
      </trkpt>
      <trkpt lat="43.6662" lon="3.80882">
        <ele>151.6</ele>
        <time>2019-07-07T04:44:30Z</time>
      </trkpt>
      <trkpt lat="43.66618" lon="3.80872">
        <ele>151.4</ele>
        <time>2019-07-07T04:44:32Z</time>
      </trkpt>
      <trkpt lat="43.66618" lon="3.80866">
        <ele>151.3</ele>
        <time>2019-07-07T04:44:33Z</time>
      </trkpt>
      <trkpt lat="43.66617" lon="3.8086">
        <ele>151.2</ele>
        <time>2019-07-07T04:44:34Z</time>
      </trkpt>
      <trkpt lat="43.66617" lon="3.80853">
        <ele>151.1</ele>
        <time>2019-07-07T04:44:35Z</time>
      </trkpt>
      <trkpt lat="43.66616" lon="3.80846">
        <ele>151</ele>
        <time>2019-07-07T04:44:36Z</time>
      </trkpt>
      <trkpt lat="43.66616" lon="3.80839">
        <ele>150.9</ele>
        <time>2019-07-07T04:44:37Z</time>
      </trkpt>
      <trkpt lat="43.66615" lon="3.80833">
        <ele>150.8</ele>
        <time>2019-07-07T04:44:38Z</time>
      </trkpt>
      <trkpt lat="43.66614" lon="3.80827">
        <ele>150.7</ele>
        <time>2019-07-07T04:44:39Z</time>
      </trkpt>
      <trkpt lat="43.66613" lon="3.8082">
        <ele>150.6</ele>
        <time>2019-07-07T04:44:40Z</time>
      </trkpt>
      <trkpt lat="43.66612" lon="3.80813">
        <ele>150.4</ele>
        <time>2019-07-07T04:44:41Z</time>
      </trkpt>
      <trkpt lat="43.66611" lon="3.80806">
        <ele>150.3</ele>
        <time>2019-07-07T04:44:42Z</time>
      </trkpt>
      <trkpt lat="43.66611" lon="3.80799">
        <ele>150.2</ele>
        <time>2019-07-07T04:44:43Z</time>
      </trkpt>
      <trkpt lat="43.6661" lon="3.80792">
        <ele>150.1</ele>
        <time>2019-07-07T04:44:44Z</time>
      </trkpt>
      <trkpt lat="43.66609" lon="3.80786">
        <ele>150.1</ele>
        <time>2019-07-07T04:44:45Z</time>
      </trkpt>
      <trkpt lat="43.66608" lon="3.80779">
        <ele>150.1</ele>
        <time>2019-07-07T04:44:46Z</time>
      </trkpt>
      <trkpt lat="43.66608" lon="3.80772">
        <ele>150</ele>
        <time>2019-07-07T04:44:47Z</time>
      </trkpt>
      <trkpt lat="43.66607" lon="3.80765">
        <ele>150</ele>
        <time>2019-07-07T04:44:48Z</time>
      </trkpt>
      <trkpt lat="43.66605" lon="3.80759">
        <ele>149.9</ele>
        <time>2019-07-07T04:44:49Z</time>
      </trkpt>
      <trkpt lat="43.66605" lon="3.80752">
        <ele>149.9</ele>
        <time>2019-07-07T04:44:50Z</time>
      </trkpt>
      <trkpt lat="43.66602" lon="3.80745">
        <ele>149.8</ele>
        <time>2019-07-07T04:44:52Z</time>
      </trkpt>
      <trkpt lat="43.66601" lon="3.80738">
        <ele>149.7</ele>
        <time>2019-07-07T04:44:53Z</time>
      </trkpt>
      <trkpt lat="43.666" lon="3.8073">
        <ele>149.6</ele>
        <time>2019-07-07T04:44:54Z</time>
      </trkpt>
      <trkpt lat="43.66598" lon="3.80724">
        <ele>149.6</ele>
        <time>2019-07-07T04:44:55Z</time>
      </trkpt>
      <trkpt lat="43.66596" lon="3.80717">
        <ele>149.5</ele>
        <time>2019-07-07T04:44:56Z</time>
      </trkpt>
      <trkpt lat="43.66593" lon="3.80711">
        <ele>149.4</ele>
        <time>2019-07-07T04:44:57Z</time>
      </trkpt>
      <trkpt lat="43.6659" lon="3.80705">
        <ele>149.3</ele>
        <time>2019-07-07T04:44:58Z</time>
      </trkpt>
      <trkpt lat="43.66587" lon="3.80698">
        <ele>149.2</ele>
        <time>2019-07-07T04:44:59Z</time>
      </trkpt>
      <trkpt lat="43.66584" lon="3.80691">
        <ele>149.1</ele>
        <time>2019-07-07T04:45:00Z</time>
      </trkpt>
      <trkpt lat="43.66582" lon="3.80686">
        <ele>149</ele>
        <time>2019-07-07T04:45:01Z</time>
      </trkpt>
      <trkpt lat="43.66579" lon="3.80678">
        <ele>148.9</ele>
        <time>2019-07-07T04:45:02Z</time>
      </trkpt>
      <trkpt lat="43.66576" lon="3.80672">
        <ele>148.8</ele>
        <time>2019-07-07T04:45:03Z</time>
      </trkpt>
      <trkpt lat="43.66573" lon="3.80663">
        <ele>148.7</ele>
        <time>2019-07-07T04:45:04Z</time>
      </trkpt>
      <trkpt lat="43.66571" lon="3.80657">
        <ele>148.6</ele>
        <time>2019-07-07T04:45:05Z</time>
      </trkpt>
      <trkpt lat="43.66568" lon="3.80652">
        <ele>148.5</ele>
        <time>2019-07-07T04:45:06Z</time>
      </trkpt>
      <trkpt lat="43.66566" lon="3.80645">
        <ele>148.3</ele>
        <time>2019-07-07T04:45:07Z</time>
      </trkpt>
      <trkpt lat="43.66562" lon="3.80638">
        <ele>148.2</ele>
        <time>2019-07-07T04:45:08Z</time>
      </trkpt>
      <trkpt lat="43.66558" lon="3.80634">
        <ele>148.1</ele>
        <time>2019-07-07T04:45:09Z</time>
      </trkpt>
      <trkpt lat="43.66554" lon="3.80627">
        <ele>148</ele>
        <time>2019-07-07T04:45:10Z</time>
      </trkpt>
      <trkpt lat="43.66551" lon="3.8062">
        <ele>147.9</ele>
        <time>2019-07-07T04:45:11Z</time>
      </trkpt>
      <trkpt lat="43.66547" lon="3.80614">
        <ele>147.8</ele>
        <time>2019-07-07T04:45:12Z</time>
      </trkpt>
      <trkpt lat="43.66543" lon="3.80609">
        <ele>147.8</ele>
        <time>2019-07-07T04:45:13Z</time>
      </trkpt>
      <trkpt lat="43.6654" lon="3.80603">
        <ele>147.7</ele>
        <time>2019-07-07T04:45:14Z</time>
      </trkpt>
      <trkpt lat="43.66537" lon="3.80596">
        <ele>147.7</ele>
        <time>2019-07-07T04:45:15Z</time>
      </trkpt>
      <trkpt lat="43.66534" lon="3.80593">
        <ele>147.6</ele>
        <time>2019-07-07T04:45:16Z</time>
      </trkpt>
      <trkpt lat="43.66531" lon="3.80588">
        <ele>147.6</ele>
        <time>2019-07-07T04:45:17Z</time>
      </trkpt>
      <trkpt lat="43.66527" lon="3.80583">
        <ele>147.5</ele>
        <time>2019-07-07T04:45:18Z</time>
      </trkpt>
      <trkpt lat="43.66522" lon="3.80577">
        <ele>147.5</ele>
        <time>2019-07-07T04:45:19Z</time>
      </trkpt>
      <trkpt lat="43.66518" lon="3.80572">
        <ele>147.5</ele>
        <time>2019-07-07T04:45:20Z</time>
      </trkpt>
      <trkpt lat="43.66515" lon="3.80566">
        <ele>147.5</ele>
        <time>2019-07-07T04:45:21Z</time>
      </trkpt>
      <trkpt lat="43.66511" lon="3.80561">
        <ele>147.5</ele>
        <time>2019-07-07T04:45:22Z</time>
      </trkpt>
      <trkpt lat="43.66507" lon="3.80554">
        <ele>147.5</ele>
        <time>2019-07-07T04:45:23Z</time>
      </trkpt>
      <trkpt lat="43.66504" lon="3.80548">
        <ele>147.5</ele>
        <time>2019-07-07T04:45:24Z</time>
      </trkpt>
      <trkpt lat="43.66499" lon="3.80545">
        <ele>147.5</ele>
        <time>2019-07-07T04:45:25Z</time>
      </trkpt>
      <trkpt lat="43.66495" lon="3.80542">
        <ele>147.5</ele>
        <time>2019-07-07T04:45:26Z</time>
      </trkpt>
      <trkpt lat="43.66491" lon="3.80534">
        <ele>147.5</ele>
        <time>2019-07-07T04:45:27Z</time>
      </trkpt>
      <trkpt lat="43.66487" lon="3.8053">
        <ele>147.5</ele>
        <time>2019-07-07T04:45:28Z</time>
      </trkpt>
      <trkpt lat="43.66484" lon="3.80528">
        <ele>147.5</ele>
        <time>2019-07-07T04:45:29Z</time>
      </trkpt>
      <trkpt lat="43.66479" lon="3.80525">
        <ele>147.5</ele>
        <time>2019-07-07T04:45:30Z</time>
      </trkpt>
      <trkpt lat="43.66474" lon="3.80522">
        <ele>147.5</ele>
        <time>2019-07-07T04:45:31Z</time>
      </trkpt>
      <trkpt lat="43.66468" lon="3.80521">
        <ele>147.6</ele>
        <time>2019-07-07T04:45:32Z</time>
      </trkpt>
      <trkpt lat="43.66463" lon="3.80516">
        <ele>147.6</ele>
        <time>2019-07-07T04:45:33Z</time>
      </trkpt>
      <trkpt lat="43.66459" lon="3.80513">
        <ele>147.6</ele>
        <time>2019-07-07T04:45:34Z</time>
      </trkpt>
      <trkpt lat="43.66451" lon="3.80511">
        <ele>147.6</ele>
        <time>2019-07-07T04:45:35Z</time>
      </trkpt>
      <trkpt lat="43.66447" lon="3.80506">
        <ele>147.6</ele>
        <time>2019-07-07T04:45:36Z</time>
      </trkpt>
      <trkpt lat="43.66442" lon="3.805">
        <ele>147.6</ele>
        <time>2019-07-07T04:45:37Z</time>
      </trkpt>
      <trkpt lat="43.66436" lon="3.80497">
        <ele>147.6</ele>
        <time>2019-07-07T04:45:38Z</time>
      </trkpt>
      <trkpt lat="43.66432" lon="3.80495">
        <ele>147.6</ele>
        <time>2019-07-07T04:45:39Z</time>
      </trkpt>
      <trkpt lat="43.66427" lon="3.80489">
        <ele>147.6</ele>
        <time>2019-07-07T04:45:40Z</time>
      </trkpt>
      <trkpt lat="43.66422" lon="3.80482">
        <ele>147.6</ele>
        <time>2019-07-07T04:45:41Z</time>
      </trkpt>
      <trkpt lat="43.66417" lon="3.80478">
        <ele>147.6</ele>
        <time>2019-07-07T04:45:42Z</time>
      </trkpt>
      <trkpt lat="43.66416" lon="3.80473">
        <ele>147.6</ele>
        <time>2019-07-07T04:45:43Z</time>
      </trkpt>
      <trkpt lat="43.66413" lon="3.80473">
        <ele>147.5</ele>
        <time>2019-07-07T04:45:44Z</time>
      </trkpt>
      <trkpt lat="43.66408" lon="3.80475">
        <ele>147.5</ele>
        <time>2019-07-07T04:45:45Z</time>
      </trkpt>
      <trkpt lat="43.66404" lon="3.80469">
        <ele>147.5</ele>
        <time>2019-07-07T04:45:46Z</time>
      </trkpt>
      <trkpt lat="43.664" lon="3.80464">
        <ele>147.5</ele>
        <time>2019-07-07T04:45:47Z</time>
      </trkpt>
      <trkpt lat="43.66396" lon="3.8046">
        <ele>147.5</ele>
        <time>2019-07-07T04:45:48Z</time>
      </trkpt>
      <trkpt lat="43.66392" lon="3.80455">
        <ele>147.5</ele>
        <time>2019-07-07T04:45:49Z</time>
      </trkpt>
      <trkpt lat="43.66388" lon="3.80451">
        <ele>147.5</ele>
        <time>2019-07-07T04:45:50Z</time>
      </trkpt>
      <trkpt lat="43.66382" lon="3.80447">
        <ele>147.5</ele>
        <time>2019-07-07T04:45:51Z</time>
      </trkpt>
      <trkpt lat="43.66378" lon="3.80443">
        <ele>147.5</ele>
        <time>2019-07-07T04:45:52Z</time>
      </trkpt>
      <trkpt lat="43.66374" lon="3.80438">
        <ele>147.5</ele>
        <time>2019-07-07T04:45:53Z</time>
      </trkpt>
      <trkpt lat="43.6637" lon="3.80434">
        <ele>147.5</ele>
        <time>2019-07-07T04:45:54Z</time>
      </trkpt>
      <trkpt lat="43.66366" lon="3.8043">
        <ele>147.5</ele>
        <time>2019-07-07T04:45:55Z</time>
      </trkpt>
      <trkpt lat="43.66361" lon="3.80426">
        <ele>147.5</ele>
        <time>2019-07-07T04:45:56Z</time>
      </trkpt>
      <trkpt lat="43.66357" lon="3.80422">
        <ele>147.5</ele>
        <time>2019-07-07T04:45:57Z</time>
      </trkpt>
      <trkpt lat="43.66353" lon="3.80418">
        <ele>147.5</ele>
        <time>2019-07-07T04:45:58Z</time>
      </trkpt>
      <trkpt lat="43.66349" lon="3.80413">
        <ele>147.6</ele>
        <time>2019-07-07T04:45:59Z</time>
      </trkpt>
      <trkpt lat="43.66344" lon="3.8041">
        <ele>147.6</ele>
        <time>2019-07-07T04:46:00Z</time>
      </trkpt>
      <trkpt lat="43.66341" lon="3.80404">
        <ele>147.6</ele>
        <time>2019-07-07T04:46:01Z</time>
      </trkpt>
      <trkpt lat="43.66337" lon="3.804">
        <ele>147.6</ele>
        <time>2019-07-07T04:46:02Z</time>
      </trkpt>
      <trkpt lat="43.66332" lon="3.80394">
        <ele>147.5</ele>
        <time>2019-07-07T04:46:03Z</time>
      </trkpt>
      <trkpt lat="43.66328" lon="3.80389">
        <ele>147.5</ele>
        <time>2019-07-07T04:46:04Z</time>
      </trkpt>
      <trkpt lat="43.66323" lon="3.80385">
        <ele>147.5</ele>
        <time>2019-07-07T04:46:05Z</time>
      </trkpt>
      <trkpt lat="43.66319" lon="3.80383">
        <ele>147.5</ele>
        <time>2019-07-07T04:46:06Z</time>
      </trkpt>
      <trkpt lat="43.66314" lon="3.80379">
        <ele>147.5</ele>
        <time>2019-07-07T04:46:07Z</time>
      </trkpt>
      <trkpt lat="43.6631" lon="3.80375">
        <ele>147.5</ele>
        <time>2019-07-07T04:46:08Z</time>
      </trkpt>
      <trkpt lat="43.66305" lon="3.80371">
        <ele>147.5</ele>
        <time>2019-07-07T04:46:09Z</time>
      </trkpt>
      <trkpt lat="43.663" lon="3.80368">
        <ele>147.5</ele>
        <time>2019-07-07T04:46:10Z</time>
      </trkpt>
      <trkpt lat="43.66295" lon="3.80364">
        <ele>147.5</ele>
        <time>2019-07-07T04:46:11Z</time>
      </trkpt>
      <trkpt lat="43.66292" lon="3.8036">
        <ele>147.5</ele>
        <time>2019-07-07T04:46:12Z</time>
      </trkpt>
      <trkpt lat="43.66288" lon="3.80356">
        <ele>147.5</ele>
        <time>2019-07-07T04:46:13Z</time>
      </trkpt>
      <trkpt lat="43.66283" lon="3.80351">
        <ele>147.5</ele>
        <time>2019-07-07T04:46:14Z</time>
      </trkpt>
      <trkpt lat="43.66278" lon="3.80346">
        <ele>147.5</ele>
        <time>2019-07-07T04:46:15Z</time>
      </trkpt>
      <trkpt lat="43.66275" lon="3.80342">
        <ele>147.6</ele>
        <time>2019-07-07T04:46:16Z</time>
      </trkpt>
      <trkpt lat="43.66269" lon="3.80338">
        <ele>147.6</ele>
        <time>2019-07-07T04:46:17Z</time>
      </trkpt>
      <trkpt lat="43.66265" lon="3.80334">
        <ele>147.6</ele>
        <time>2019-07-07T04:46:18Z</time>
      </trkpt>
      <trkpt lat="43.66261" lon="3.80328">
        <ele>147.6</ele>
        <time>2019-07-07T04:46:19Z</time>
      </trkpt>
      <trkpt lat="43.66257" lon="3.80324">
        <ele>147.6</ele>
        <time>2019-07-07T04:46:20Z</time>
      </trkpt>
      <trkpt lat="43.66252" lon="3.80321">
        <ele>147.6</ele>
        <time>2019-07-07T04:46:21Z</time>
      </trkpt>
      <trkpt lat="43.66247" lon="3.80316">
        <ele>147.6</ele>
        <time>2019-07-07T04:46:22Z</time>
      </trkpt>
      <trkpt lat="43.66242" lon="3.80312">
        <ele>147.6</ele>
        <time>2019-07-07T04:46:23Z</time>
      </trkpt>
      <trkpt lat="43.66238" lon="3.8031">
        <ele>147.6</ele>
        <time>2019-07-07T04:46:24Z</time>
      </trkpt>
      <trkpt lat="43.66233" lon="3.80305">
        <ele>147.6</ele>
        <time>2019-07-07T04:46:25Z</time>
      </trkpt>
      <trkpt lat="43.66228" lon="3.80301">
        <ele>147.6</ele>
        <time>2019-07-07T04:46:26Z</time>
      </trkpt>
      <trkpt lat="43.66223" lon="3.80296">
        <ele>147.6</ele>
        <time>2019-07-07T04:46:27Z</time>
      </trkpt>
      <trkpt lat="43.66218" lon="3.80291">
        <ele>147.5</ele>
        <time>2019-07-07T04:46:28Z</time>
      </trkpt>
      <trkpt lat="43.66213" lon="3.80286">
        <ele>147.5</ele>
        <time>2019-07-07T04:46:29Z</time>
      </trkpt>
      <trkpt lat="43.66209" lon="3.80284">
        <ele>147.5</ele>
        <time>2019-07-07T04:46:30Z</time>
      </trkpt>
      <trkpt lat="43.66205" lon="3.8028">
        <ele>147.4</ele>
        <time>2019-07-07T04:46:31Z</time>
      </trkpt>
      <trkpt lat="43.66199" lon="3.80276">
        <ele>147.4</ele>
        <time>2019-07-07T04:46:32Z</time>
      </trkpt>
      <trkpt lat="43.66195" lon="3.80271">
        <ele>147.3</ele>
        <time>2019-07-07T04:46:33Z</time>
      </trkpt>
      <trkpt lat="43.66189" lon="3.80268">
        <ele>147.2</ele>
        <time>2019-07-07T04:46:34Z</time>
      </trkpt>
      <trkpt lat="43.66184" lon="3.80264">
        <ele>147.1</ele>
        <time>2019-07-07T04:46:35Z</time>
      </trkpt>
      <trkpt lat="43.66179" lon="3.80264">
        <ele>146.9</ele>
        <time>2019-07-07T04:46:36Z</time>
      </trkpt>
      <trkpt lat="43.66174" lon="3.80258">
        <ele>146.8</ele>
        <time>2019-07-07T04:46:37Z</time>
      </trkpt>
      <trkpt lat="43.66169" lon="3.80254">
        <ele>146.7</ele>
        <time>2019-07-07T04:46:38Z</time>
      </trkpt>
      <trkpt lat="43.66165" lon="3.80252">
        <ele>146.7</ele>
        <time>2019-07-07T04:46:39Z</time>
      </trkpt>
      <trkpt lat="43.6616" lon="3.80248">
        <ele>146.6</ele>
        <time>2019-07-07T04:46:40Z</time>
      </trkpt>
      <trkpt lat="43.66155" lon="3.80244">
        <ele>146.6</ele>
        <time>2019-07-07T04:46:41Z</time>
      </trkpt>
      <trkpt lat="43.66152" lon="3.8024">
        <ele>146.6</ele>
        <time>2019-07-07T04:46:42Z</time>
      </trkpt>
      <trkpt lat="43.66147" lon="3.80237">
        <ele>146.6</ele>
        <time>2019-07-07T04:46:43Z</time>
      </trkpt>
      <trkpt lat="43.66142" lon="3.80234">
        <ele>146.7</ele>
        <time>2019-07-07T04:46:44Z</time>
      </trkpt>
      <trkpt lat="43.66137" lon="3.8023">
        <ele>146.8</ele>
        <time>2019-07-07T04:46:45Z</time>
      </trkpt>
      <trkpt lat="43.66132" lon="3.80228">
        <ele>146.8</ele>
        <time>2019-07-07T04:46:46Z</time>
      </trkpt>
      <trkpt lat="43.66127" lon="3.80224">
        <ele>146.9</ele>
        <time>2019-07-07T04:46:47Z</time>
      </trkpt>
      <trkpt lat="43.66123" lon="3.8022">
        <ele>147</ele>
        <time>2019-07-07T04:46:48Z</time>
      </trkpt>
      <trkpt lat="43.66118" lon="3.80218">
        <ele>146.9</ele>
        <time>2019-07-07T04:46:49Z</time>
      </trkpt>
      <trkpt lat="43.66113" lon="3.80214">
        <ele>146.9</ele>
        <time>2019-07-07T04:46:50Z</time>
      </trkpt>
      <trkpt lat="43.66107" lon="3.80215">
        <ele>146.8</ele>
        <time>2019-07-07T04:46:51Z</time>
      </trkpt>
      <trkpt lat="43.66102" lon="3.80213">
        <ele>146.8</ele>
        <time>2019-07-07T04:46:52Z</time>
      </trkpt>
      <trkpt lat="43.66097" lon="3.80213">
        <ele>146.7</ele>
        <time>2019-07-07T04:46:53Z</time>
      </trkpt>
      <trkpt lat="43.66092" lon="3.80216">
        <ele>146.6</ele>
        <time>2019-07-07T04:46:54Z</time>
      </trkpt>
      <trkpt lat="43.66086" lon="3.80218">
        <ele>146.5</ele>
        <time>2019-07-07T04:46:55Z</time>
      </trkpt>
      <trkpt lat="43.66083" lon="3.80224">
        <ele>146.5</ele>
        <time>2019-07-07T04:46:56Z</time>
      </trkpt>
      <trkpt lat="43.66078" lon="3.80228">
        <ele>146.4</ele>
        <time>2019-07-07T04:46:57Z</time>
      </trkpt>
      <trkpt lat="43.66071" lon="3.80232">
        <ele>146.3</ele>
        <time>2019-07-07T04:46:58Z</time>
      </trkpt>
      <trkpt lat="43.66064" lon="3.80234">
        <ele>146.2</ele>
        <time>2019-07-07T04:46:59Z</time>
      </trkpt>
      <trkpt lat="43.66057" lon="3.80236">
        <ele>146</ele>
        <time>2019-07-07T04:47:00Z</time>
      </trkpt>
      <trkpt lat="43.66052" lon="3.80238">
        <ele>145.9</ele>
        <time>2019-07-07T04:47:01Z</time>
      </trkpt>
      <trkpt lat="43.66048" lon="3.80239">
        <ele>145.7</ele>
        <time>2019-07-07T04:47:02Z</time>
      </trkpt>
      <trkpt lat="43.66044" lon="3.80238">
        <ele>145.9</ele>
        <time>2019-07-07T04:47:03Z</time>
      </trkpt>
      <trkpt lat="43.66038" lon="3.80239">
        <ele>146</ele>
        <time>2019-07-07T04:47:04Z</time>
      </trkpt>
      <trkpt lat="43.66033" lon="3.80239">
        <ele>146.1</ele>
        <time>2019-07-07T04:47:05Z</time>
      </trkpt>
      <trkpt lat="43.66027" lon="3.80239">
        <ele>146</ele>
        <time>2019-07-07T04:47:06Z</time>
      </trkpt>
      <trkpt lat="43.66019" lon="3.80241">
        <ele>145.9</ele>
        <time>2019-07-07T04:47:07Z</time>
      </trkpt>
      <trkpt lat="43.66013" lon="3.80241">
        <ele>145.9</ele>
        <time>2019-07-07T04:47:08Z</time>
      </trkpt>
      <trkpt lat="43.66007" lon="3.8024">
        <ele>145.9</ele>
        <time>2019-07-07T04:47:09Z</time>
      </trkpt>
      <trkpt lat="43.66001" lon="3.80239">
        <ele>145.8</ele>
        <time>2019-07-07T04:47:10Z</time>
      </trkpt>
      <trkpt lat="43.65996" lon="3.80238">
        <ele>145.7</ele>
        <time>2019-07-07T04:47:11Z</time>
      </trkpt>
      <trkpt lat="43.6599" lon="3.80237">
        <ele>145.6</ele>
        <time>2019-07-07T04:47:12Z</time>
      </trkpt>
      <trkpt lat="43.65985" lon="3.80234">
        <ele>145.3</ele>
        <time>2019-07-07T04:47:13Z</time>
      </trkpt>
      <trkpt lat="43.6598" lon="3.80231">
        <ele>145.1</ele>
        <time>2019-07-07T04:47:14Z</time>
      </trkpt>
      <trkpt lat="43.65975" lon="3.80228">
        <ele>144.9</ele>
        <time>2019-07-07T04:47:15Z</time>
      </trkpt>
      <trkpt lat="43.6597" lon="3.80225">
        <ele>144.7</ele>
        <time>2019-07-07T04:47:16Z</time>
      </trkpt>
      <trkpt lat="43.65956" lon="3.80216">
        <ele>144.2</ele>
        <time>2019-07-07T04:47:19Z</time>
      </trkpt>
      <trkpt lat="43.65951" lon="3.80213">
        <ele>144</ele>
        <time>2019-07-07T04:47:20Z</time>
      </trkpt>
      <trkpt lat="43.65946" lon="3.8021">
        <ele>143.8</ele>
        <time>2019-07-07T04:47:21Z</time>
      </trkpt>
      <trkpt lat="43.6594" lon="3.80207">
        <ele>143.7</ele>
        <time>2019-07-07T04:47:22Z</time>
      </trkpt>
      <trkpt lat="43.65935" lon="3.80205">
        <ele>143.5</ele>
        <time>2019-07-07T04:47:23Z</time>
      </trkpt>
      <trkpt lat="43.6593" lon="3.80202">
        <ele>143.4</ele>
        <time>2019-07-07T04:47:24Z</time>
      </trkpt>
      <trkpt lat="43.65925" lon="3.80199">
        <ele>143.3</ele>
        <time>2019-07-07T04:47:25Z</time>
      </trkpt>
      <trkpt lat="43.6592" lon="3.80194">
        <ele>143.3</ele>
        <time>2019-07-07T04:47:26Z</time>
      </trkpt>
      <trkpt lat="43.65914" lon="3.80191">
        <ele>143.1</ele>
        <time>2019-07-07T04:47:27Z</time>
      </trkpt>
      <trkpt lat="43.65909" lon="3.80187">
        <ele>143</ele>
        <time>2019-07-07T04:47:28Z</time>
      </trkpt>
      <trkpt lat="43.65903" lon="3.80183">
        <ele>142.9</ele>
        <time>2019-07-07T04:47:29Z</time>
      </trkpt>
      <trkpt lat="43.65898" lon="3.80178">
        <ele>142.8</ele>
        <time>2019-07-07T04:47:30Z</time>
      </trkpt>
      <trkpt lat="43.65893" lon="3.80172">
        <ele>142.7</ele>
        <time>2019-07-07T04:47:31Z</time>
      </trkpt>
      <trkpt lat="43.65888" lon="3.80166">
        <ele>142.6</ele>
        <time>2019-07-07T04:47:32Z</time>
      </trkpt>
      <trkpt lat="43.65884" lon="3.8016">
        <ele>142.4</ele>
        <time>2019-07-07T04:47:33Z</time>
      </trkpt>
      <trkpt lat="43.6588" lon="3.80154">
        <ele>142.2</ele>
        <time>2019-07-07T04:47:34Z</time>
      </trkpt>
      <trkpt lat="43.65875" lon="3.80147">
        <ele>142</ele>
        <time>2019-07-07T04:47:35Z</time>
      </trkpt>
      <trkpt lat="43.6587" lon="3.80142">
        <ele>141.8</ele>
        <time>2019-07-07T04:47:36Z</time>
      </trkpt>
      <trkpt lat="43.65866" lon="3.80135">
        <ele>141.7</ele>
        <time>2019-07-07T04:47:37Z</time>
      </trkpt>
      <trkpt lat="43.65861" lon="3.80129">
        <ele>141.6</ele>
        <time>2019-07-07T04:47:38Z</time>
      </trkpt>
      <trkpt lat="43.65857" lon="3.80123">
        <ele>141.5</ele>
        <time>2019-07-07T04:47:39Z</time>
      </trkpt>
      <trkpt lat="43.65852" lon="3.80117">
        <ele>141.4</ele>
        <time>2019-07-07T04:47:40Z</time>
      </trkpt>
      <trkpt lat="43.65847" lon="3.80111">
        <ele>141.1</ele>
        <time>2019-07-07T04:47:41Z</time>
      </trkpt>
      <trkpt lat="43.65843" lon="3.80102">
        <ele>140.6</ele>
        <time>2019-07-07T04:47:42Z</time>
      </trkpt>
      <trkpt lat="43.65839" lon="3.80095">
        <ele>140.3</ele>
        <time>2019-07-07T04:47:43Z</time>
      </trkpt>
      <trkpt lat="43.65835" lon="3.80084">
        <ele>139.8</ele>
        <time>2019-07-07T04:47:44Z</time>
      </trkpt>
      <trkpt lat="43.65829" lon="3.80078">
        <ele>139.4</ele>
        <time>2019-07-07T04:47:45Z</time>
      </trkpt>
      <trkpt lat="43.65824" lon="3.8007">
        <ele>139.2</ele>
        <time>2019-07-07T04:47:46Z</time>
      </trkpt>
      <trkpt lat="43.65818" lon="3.80065">
        <ele>138.8</ele>
        <time>2019-07-07T04:47:47Z</time>
      </trkpt>
      <trkpt lat="43.65812" lon="3.80058">
        <ele>138.4</ele>
        <time>2019-07-07T04:47:48Z</time>
      </trkpt>
      <trkpt lat="43.65804" lon="3.80056">
        <ele>138.8</ele>
        <time>2019-07-07T04:47:49Z</time>
      </trkpt>
      <trkpt lat="43.65797" lon="3.80053">
        <ele>139.4</ele>
        <time>2019-07-07T04:47:50Z</time>
      </trkpt>
      <trkpt lat="43.65792" lon="3.80047">
        <ele>140.1</ele>
        <time>2019-07-07T04:47:51Z</time>
      </trkpt>
      <trkpt lat="43.65784" lon="3.80044">
        <ele>140.7</ele>
        <time>2019-07-07T04:47:52Z</time>
      </trkpt>
      <trkpt lat="43.65776" lon="3.80045">
        <ele>141.4</ele>
        <time>2019-07-07T04:47:53Z</time>
      </trkpt>
      <trkpt lat="43.65769" lon="3.80043">
        <ele>142</ele>
        <time>2019-07-07T04:47:54Z</time>
      </trkpt>
      <trkpt lat="43.65762" lon="3.80041">
        <ele>142.5</ele>
        <time>2019-07-07T04:47:55Z</time>
      </trkpt>
      <trkpt lat="43.65756" lon="3.80038">
        <ele>143</ele>
        <time>2019-07-07T04:47:56Z</time>
      </trkpt>
      <trkpt lat="43.65749" lon="3.80038">
        <ele>143.5</ele>
        <time>2019-07-07T04:47:57Z</time>
      </trkpt>
      <trkpt lat="43.65742" lon="3.80038">
        <ele>143.5</ele>
        <time>2019-07-07T04:47:58Z</time>
      </trkpt>
      <trkpt lat="43.65736" lon="3.80039">
        <ele>143.5</ele>
        <time>2019-07-07T04:47:59Z</time>
      </trkpt>
      <trkpt lat="43.65731" lon="3.8004">
        <ele>143.4</ele>
        <time>2019-07-07T04:48:00Z</time>
      </trkpt>
      <trkpt lat="43.65728" lon="3.80039">
        <ele>143.4</ele>
        <time>2019-07-07T04:48:01Z</time>
      </trkpt>
      <trkpt lat="43.65724" lon="3.80042">
        <ele>143.4</ele>
        <time>2019-07-07T04:48:02Z</time>
      </trkpt>
      <trkpt lat="43.65721" lon="3.80045">
        <ele>143.4</ele>
        <time>2019-07-07T04:48:03Z</time>
      </trkpt>
      <trkpt lat="43.65717" lon="3.80049">
        <ele>143.5</ele>
        <time>2019-07-07T04:48:04Z</time>
      </trkpt>
      <trkpt lat="43.65713" lon="3.80052">
        <ele>143.5</ele>
        <time>2019-07-07T04:48:05Z</time>
      </trkpt>
      <trkpt lat="43.65709" lon="3.80055">
        <ele>143.6</ele>
        <time>2019-07-07T04:48:07Z</time>
      </trkpt>
      <trkpt lat="43.65707" lon="3.80058">
        <ele>143.6</ele>
        <time>2019-07-07T04:48:08Z</time>
      </trkpt>
      <trkpt lat="43.65702" lon="3.80059">
        <ele>143.7</ele>
        <time>2019-07-07T04:48:09Z</time>
      </trkpt>
      <trkpt lat="43.65698" lon="3.80061">
        <ele>143.8</ele>
        <time>2019-07-07T04:48:10Z</time>
      </trkpt>
      <trkpt lat="43.65697" lon="3.80064">
        <ele>143.9</ele>
        <time>2019-07-07T04:48:11Z</time>
      </trkpt>
      <trkpt lat="43.65694" lon="3.80068">
        <ele>144</ele>
        <time>2019-07-07T04:48:12Z</time>
      </trkpt>
      <trkpt lat="43.65688" lon="3.80073">
        <ele>144.2</ele>
        <time>2019-07-07T04:48:14Z</time>
      </trkpt>
      <trkpt lat="43.65685" lon="3.80076">
        <ele>144.3</ele>
        <time>2019-07-07T04:48:15Z</time>
      </trkpt>
      <trkpt lat="43.65682" lon="3.80079">
        <ele>144.4</ele>
        <time>2019-07-07T04:48:16Z</time>
      </trkpt>
      <trkpt lat="43.6568" lon="3.80082">
        <ele>144.4</ele>
        <time>2019-07-07T04:48:17Z</time>
      </trkpt>
      <trkpt lat="43.65677" lon="3.80085">
        <ele>144.5</ele>
        <time>2019-07-07T04:48:18Z</time>
      </trkpt>
      <trkpt lat="43.65675" lon="3.80088">
        <ele>144.6</ele>
        <time>2019-07-07T04:48:19Z</time>
      </trkpt>
      <trkpt lat="43.65671" lon="3.80091">
        <ele>144.7</ele>
        <time>2019-07-07T04:48:20Z</time>
      </trkpt>
      <trkpt lat="43.65669" lon="3.80094">
        <ele>144.8</ele>
        <time>2019-07-07T04:48:21Z</time>
      </trkpt>
      <trkpt lat="43.65665" lon="3.80096">
        <ele>144.9</ele>
        <time>2019-07-07T04:48:22Z</time>
      </trkpt>
      <trkpt lat="43.65662" lon="3.80098">
        <ele>144.9</ele>
        <time>2019-07-07T04:48:23Z</time>
      </trkpt>
      <trkpt lat="43.6566" lon="3.801">
        <ele>145</ele>
        <time>2019-07-07T04:48:24Z</time>
      </trkpt>
      <trkpt lat="43.65657" lon="3.80102">
        <ele>145.1</ele>
        <time>2019-07-07T04:48:25Z</time>
      </trkpt>
      <trkpt lat="43.65654" lon="3.80104">
        <ele>145.1</ele>
        <time>2019-07-07T04:48:26Z</time>
      </trkpt>
      <trkpt lat="43.65651" lon="3.80107">
        <ele>145.2</ele>
        <time>2019-07-07T04:48:27Z</time>
      </trkpt>
      <trkpt lat="43.65648" lon="3.80109">
        <ele>145.3</ele>
        <time>2019-07-07T04:48:28Z</time>
      </trkpt>
      <trkpt lat="43.65644" lon="3.80112">
        <ele>145.3</ele>
        <time>2019-07-07T04:48:29Z</time>
      </trkpt>
      <trkpt lat="43.6564" lon="3.80114">
        <ele>145.4</ele>
        <time>2019-07-07T04:48:30Z</time>
      </trkpt>
      <trkpt lat="43.65638" lon="3.80117">
        <ele>145.5</ele>
        <time>2019-07-07T04:48:31Z</time>
      </trkpt>
      <trkpt lat="43.65636" lon="3.80121">
        <ele>145.6</ele>
        <time>2019-07-07T04:48:32Z</time>
      </trkpt>
      <trkpt lat="43.65632" lon="3.80127">
        <ele>145.6</ele>
        <time>2019-07-07T04:48:34Z</time>
      </trkpt>
      <trkpt lat="43.65629" lon="3.80132">
        <ele>145.6</ele>
        <time>2019-07-07T04:48:35Z</time>
      </trkpt>
      <trkpt lat="43.65627" lon="3.80135">
        <ele>145.7</ele>
        <time>2019-07-07T04:48:36Z</time>
      </trkpt>
      <trkpt lat="43.65625" lon="3.80139">
        <ele>145.7</ele>
        <time>2019-07-07T04:48:37Z</time>
      </trkpt>
      <trkpt lat="43.65621" lon="3.80143">
        <ele>145.7</ele>
        <time>2019-07-07T04:48:38Z</time>
      </trkpt>
      <trkpt lat="43.65618" lon="3.80148">
        <ele>145.7</ele>
        <time>2019-07-07T04:48:39Z</time>
      </trkpt>
      <trkpt lat="43.65616" lon="3.80151">
        <ele>145.7</ele>
        <time>2019-07-07T04:48:40Z</time>
      </trkpt>
      <trkpt lat="43.65613" lon="3.80157">
        <ele>145.8</ele>
        <time>2019-07-07T04:48:42Z</time>
      </trkpt>
      <trkpt lat="43.65611" lon="3.80161">
        <ele>145.8</ele>
        <time>2019-07-07T04:48:44Z</time>
      </trkpt>
      <trkpt lat="43.65608" lon="3.80166">
        <ele>145.9</ele>
        <time>2019-07-07T04:48:46Z</time>
      </trkpt>
      <trkpt lat="43.65605" lon="3.8017">
        <ele>146</ele>
        <time>2019-07-07T04:48:48Z</time>
      </trkpt>
      <trkpt lat="43.65602" lon="3.80171">
        <ele>146</ele>
        <time>2019-07-07T04:48:49Z</time>
      </trkpt>
      <trkpt lat="43.65596" lon="3.80172">
        <ele>146.1</ele>
        <time>2019-07-07T04:48:51Z</time>
      </trkpt>
      <trkpt lat="43.65593" lon="3.80171">
        <ele>146.2</ele>
        <time>2019-07-07T04:48:52Z</time>
      </trkpt>
      <trkpt lat="43.6559" lon="3.8017">
        <ele>146.2</ele>
        <time>2019-07-07T04:48:53Z</time>
      </trkpt>
      <trkpt lat="43.65587" lon="3.8017">
        <ele>146.7</ele>
        <time>2019-07-07T04:48:54Z</time>
      </trkpt>
      <trkpt lat="43.65583" lon="3.80169">
        <ele>146.8</ele>
        <time>2019-07-07T04:48:55Z</time>
      </trkpt>
      <trkpt lat="43.65578" lon="3.80167">
        <ele>147</ele>
        <time>2019-07-07T04:48:56Z</time>
      </trkpt>
      <trkpt lat="43.65575" lon="3.80164">
        <ele>147.1</ele>
        <time>2019-07-07T04:48:57Z</time>
      </trkpt>
      <trkpt lat="43.65572" lon="3.8016">
        <ele>147.2</ele>
        <time>2019-07-07T04:48:58Z</time>
      </trkpt>
      <trkpt lat="43.65569" lon="3.80158">
        <ele>147.3</ele>
        <time>2019-07-07T04:48:59Z</time>
      </trkpt>
      <trkpt lat="43.65564" lon="3.80158">
        <ele>147.4</ele>
        <time>2019-07-07T04:49:00Z</time>
      </trkpt>
      <trkpt lat="43.65561" lon="3.80158">
        <ele>147.4</ele>
        <time>2019-07-07T04:49:01Z</time>
      </trkpt>
      <trkpt lat="43.65557" lon="3.80158">
        <ele>147.5</ele>
        <time>2019-07-07T04:49:02Z</time>
      </trkpt>
      <trkpt lat="43.65552" lon="3.80159">
        <ele>147.5</ele>
        <time>2019-07-07T04:49:03Z</time>
      </trkpt>
      <trkpt lat="43.65548" lon="3.80157">
        <ele>147.5</ele>
        <time>2019-07-07T04:49:04Z</time>
      </trkpt>
      <trkpt lat="43.65542" lon="3.80156">
        <ele>147.5</ele>
        <time>2019-07-07T04:49:06Z</time>
      </trkpt>
      <trkpt lat="43.65538" lon="3.80155">
        <ele>147.5</ele>
        <time>2019-07-07T04:49:07Z</time>
      </trkpt>
      <trkpt lat="43.65534" lon="3.80155">
        <ele>147.5</ele>
        <time>2019-07-07T04:49:08Z</time>
      </trkpt>
      <trkpt lat="43.6553" lon="3.80152">
        <ele>147.5</ele>
        <time>2019-07-07T04:49:09Z</time>
      </trkpt>
      <trkpt lat="43.65525" lon="3.80152">
        <ele>147.5</ele>
        <time>2019-07-07T04:49:10Z</time>
      </trkpt>
      <trkpt lat="43.65521" lon="3.8015">
        <ele>147.5</ele>
        <time>2019-07-07T04:49:11Z</time>
      </trkpt>
      <trkpt lat="43.65517" lon="3.80149">
        <ele>147.5</ele>
        <time>2019-07-07T04:49:12Z</time>
      </trkpt>
      <trkpt lat="43.65513" lon="3.80146">
        <ele>147.4</ele>
        <time>2019-07-07T04:49:13Z</time>
      </trkpt>
      <trkpt lat="43.65509" lon="3.80143">
        <ele>147.3</ele>
        <time>2019-07-07T04:49:14Z</time>
      </trkpt>
      <trkpt lat="43.65506" lon="3.80141">
        <ele>147.3</ele>
        <time>2019-07-07T04:49:15Z</time>
      </trkpt>
      <trkpt lat="43.65502" lon="3.80138">
        <ele>147.3</ele>
        <time>2019-07-07T04:49:16Z</time>
      </trkpt>
      <trkpt lat="43.65499" lon="3.80135">
        <ele>147.2</ele>
        <time>2019-07-07T04:49:17Z</time>
      </trkpt>
      <trkpt lat="43.65496" lon="3.80133">
        <ele>147.2</ele>
        <time>2019-07-07T04:49:18Z</time>
      </trkpt>
      <trkpt lat="43.65492" lon="3.80131">
        <ele>147.2</ele>
        <time>2019-07-07T04:49:19Z</time>
      </trkpt>
      <trkpt lat="43.65489" lon="3.80128">
        <ele>147.2</ele>
        <time>2019-07-07T04:49:20Z</time>
      </trkpt>
      <trkpt lat="43.65486" lon="3.80127">
        <ele>147.1</ele>
        <time>2019-07-07T04:49:21Z</time>
      </trkpt>
      <trkpt lat="43.65482" lon="3.80124">
        <ele>147.1</ele>
        <time>2019-07-07T04:49:22Z</time>
      </trkpt>
      <trkpt lat="43.65478" lon="3.80123">
        <ele>147.1</ele>
        <time>2019-07-07T04:49:23Z</time>
      </trkpt>
      <trkpt lat="43.65477" lon="3.80119">
        <ele>147.1</ele>
        <time>2019-07-07T04:49:24Z</time>
      </trkpt>
      <trkpt lat="43.65475" lon="3.80111">
        <ele>147.1</ele>
        <time>2019-07-07T04:49:25Z</time>
      </trkpt>
      <trkpt lat="43.65472" lon="3.80105">
        <ele>147.1</ele>
        <time>2019-07-07T04:49:27Z</time>
      </trkpt>
      <trkpt lat="43.6547" lon="3.801">
        <ele>147.2</ele>
        <time>2019-07-07T04:49:28Z</time>
      </trkpt>
      <trkpt lat="43.65468" lon="3.80098">
        <ele>147.2</ele>
        <time>2019-07-07T04:49:29Z</time>
      </trkpt>
      <trkpt lat="43.65468" lon="3.80093">
        <ele>147.2</ele>
        <time>2019-07-07T04:49:30Z</time>
      </trkpt>
      <trkpt lat="43.65467" lon="3.80097">
        <ele>147.2</ele>
        <time>2019-07-07T04:49:31Z</time>
      </trkpt>
      <trkpt lat="43.65461" lon="3.80101">
        <ele>147.3</ele>
        <time>2019-07-07T04:49:33Z</time>
      </trkpt>
      <trkpt lat="43.65459" lon="3.80104">
        <ele>147.3</ele>
        <time>2019-07-07T04:49:34Z</time>
      </trkpt>
      <trkpt lat="43.65456" lon="3.80108">
        <ele>147.3</ele>
        <time>2019-07-07T04:49:35Z</time>
      </trkpt>
      <trkpt lat="43.65453" lon="3.8011">
        <ele>147.3</ele>
        <time>2019-07-07T04:49:36Z</time>
      </trkpt>
      <trkpt lat="43.65448" lon="3.80111">
        <ele>147.3</ele>
        <time>2019-07-07T04:49:37Z</time>
      </trkpt>
      <trkpt lat="43.65445" lon="3.80112">
        <ele>147.4</ele>
        <time>2019-07-07T04:49:38Z</time>
      </trkpt>
      <trkpt lat="43.65442" lon="3.80113">
        <ele>147.4</ele>
        <time>2019-07-07T04:49:39Z</time>
      </trkpt>
      <trkpt lat="43.65437" lon="3.80116">
        <ele>147.3</ele>
        <time>2019-07-07T04:49:40Z</time>
      </trkpt>
      <trkpt lat="43.65433" lon="3.80121">
        <ele>147.3</ele>
        <time>2019-07-07T04:49:42Z</time>
      </trkpt>
      <trkpt lat="43.65428" lon="3.80122">
        <ele>147.4</ele>
        <time>2019-07-07T04:49:43Z</time>
      </trkpt>
      <trkpt lat="43.65425" lon="3.80123">
        <ele>147.4</ele>
        <time>2019-07-07T04:49:44Z</time>
      </trkpt>
      <trkpt lat="43.6542" lon="3.80122">
        <ele>147.5</ele>
        <time>2019-07-07T04:49:46Z</time>
      </trkpt>
      <trkpt lat="43.65416" lon="3.80118">
        <ele>147.6</ele>
        <time>2019-07-07T04:49:47Z</time>
      </trkpt>
      <trkpt lat="43.65414" lon="3.80114">
        <ele>147.8</ele>
        <time>2019-07-07T04:49:48Z</time>
      </trkpt>
      <trkpt lat="43.65411" lon="3.8011">
        <ele>147.8</ele>
        <time>2019-07-07T04:49:49Z</time>
      </trkpt>
      <trkpt lat="43.65407" lon="3.80107">
        <ele>147.9</ele>
        <time>2019-07-07T04:49:50Z</time>
      </trkpt>
      <trkpt lat="43.65404" lon="3.80103">
        <ele>148</ele>
        <time>2019-07-07T04:49:51Z</time>
      </trkpt>
      <trkpt lat="43.65401" lon="3.801">
        <ele>148.1</ele>
        <time>2019-07-07T04:49:52Z</time>
      </trkpt>
      <trkpt lat="43.65397" lon="3.80096">
        <ele>148.2</ele>
        <time>2019-07-07T04:49:54Z</time>
      </trkpt>
      <trkpt lat="43.65391" lon="3.80094">
        <ele>148.3</ele>
        <time>2019-07-07T04:49:56Z</time>
      </trkpt>
      <trkpt lat="43.65388" lon="3.80092">
        <ele>148.3</ele>
        <time>2019-07-07T04:49:57Z</time>
      </trkpt>
      <trkpt lat="43.65385" lon="3.80089">
        <ele>148.3</ele>
        <time>2019-07-07T04:49:58Z</time>
      </trkpt>
      <trkpt lat="43.65381" lon="3.80088">
        <ele>148.4</ele>
        <time>2019-07-07T04:49:59Z</time>
      </trkpt>
      <trkpt lat="43.65377" lon="3.80087">
        <ele>148.4</ele>
        <time>2019-07-07T04:50:00Z</time>
      </trkpt>
      <trkpt lat="43.65371" lon="3.80086">
        <ele>148.4</ele>
        <time>2019-07-07T04:50:02Z</time>
      </trkpt>
      <trkpt lat="43.65368" lon="3.80086">
        <ele>148.4</ele>
        <time>2019-07-07T04:50:03Z</time>
      </trkpt>
      <trkpt lat="43.65363" lon="3.80084">
        <ele>148.4</ele>
        <time>2019-07-07T04:50:04Z</time>
      </trkpt>
      <trkpt lat="43.65361" lon="3.80083">
        <ele>148.5</ele>
        <time>2019-07-07T04:50:05Z</time>
      </trkpt>
      <trkpt lat="43.65358" lon="3.8008">
        <ele>148.5</ele>
        <time>2019-07-07T04:50:06Z</time>
      </trkpt>
      <trkpt lat="43.65358" lon="3.80074">
        <ele>148.6</ele>
        <time>2019-07-07T04:50:07Z</time>
      </trkpt>
      <trkpt lat="43.65359" lon="3.80071">
        <ele>148.6</ele>
        <time>2019-07-07T04:50:08Z</time>
      </trkpt>
      <trkpt lat="43.65359" lon="3.80066">
        <ele>148.6</ele>
        <time>2019-07-07T04:50:09Z</time>
      </trkpt>
      <trkpt lat="43.65358" lon="3.80061">
        <ele>148.7</ele>
        <time>2019-07-07T04:50:10Z</time>
      </trkpt>
      <trkpt lat="43.65357" lon="3.80056">
        <ele>148.7</ele>
        <time>2019-07-07T04:50:11Z</time>
      </trkpt>
      <trkpt lat="43.65355" lon="3.80051">
        <ele>148.7</ele>
        <time>2019-07-07T04:50:13Z</time>
      </trkpt>
      <trkpt lat="43.65355" lon="3.80045">
        <ele>148.8</ele>
        <time>2019-07-07T04:50:14Z</time>
      </trkpt>
      <trkpt lat="43.65352" lon="3.80042">
        <ele>148.8</ele>
        <time>2019-07-07T04:50:15Z</time>
      </trkpt>
      <trkpt lat="43.6535" lon="3.8004">
        <ele>148.8</ele>
        <time>2019-07-07T04:50:16Z</time>
      </trkpt>
      <trkpt lat="43.65348" lon="3.80034">
        <ele>148.9</ele>
        <time>2019-07-07T04:50:17Z</time>
      </trkpt>
      <trkpt lat="43.65346" lon="3.80032">
        <ele>148.9</ele>
        <time>2019-07-07T04:50:18Z</time>
      </trkpt>
      <trkpt lat="43.65344" lon="3.80023">
        <ele>148.9</ele>
        <time>2019-07-07T04:50:20Z</time>
      </trkpt>
      <trkpt lat="43.65343" lon="3.80019">
        <ele>148.9</ele>
        <time>2019-07-07T04:50:21Z</time>
      </trkpt>
      <trkpt lat="43.65345" lon="3.80015">
        <ele>148.9</ele>
        <time>2019-07-07T04:50:22Z</time>
      </trkpt>
      <trkpt lat="43.65345" lon="3.80011">
        <ele>148.9</ele>
        <time>2019-07-07T04:50:23Z</time>
      </trkpt>
      <trkpt lat="43.65345" lon="3.80006">
        <ele>148.9</ele>
        <time>2019-07-07T04:50:24Z</time>
      </trkpt>
      <trkpt lat="43.65346" lon="3.80002">
        <ele>148.9</ele>
        <time>2019-07-07T04:50:25Z</time>
      </trkpt>
      <trkpt lat="43.65347" lon="3.79997">
        <ele>148.9</ele>
        <time>2019-07-07T04:50:26Z</time>
      </trkpt>
      <trkpt lat="43.65348" lon="3.79992">
        <ele>148.9</ele>
        <time>2019-07-07T04:50:27Z</time>
      </trkpt>
      <trkpt lat="43.65346" lon="3.79987">
        <ele>148.9</ele>
        <time>2019-07-07T04:50:28Z</time>
      </trkpt>
      <trkpt lat="43.65344" lon="3.79983">
        <ele>149</ele>
        <time>2019-07-07T04:50:29Z</time>
      </trkpt>
      <trkpt lat="43.65343" lon="3.79979">
        <ele>149</ele>
        <time>2019-07-07T04:50:30Z</time>
      </trkpt>
      <trkpt lat="43.65343" lon="3.79975">
        <ele>149</ele>
        <time>2019-07-07T04:50:31Z</time>
      </trkpt>
      <trkpt lat="43.65345" lon="3.79967">
        <ele>149</ele>
        <time>2019-07-07T04:50:32Z</time>
      </trkpt>
      <trkpt lat="43.65346" lon="3.79963">
        <ele>149</ele>
        <time>2019-07-07T04:50:33Z</time>
      </trkpt>
      <trkpt lat="43.65347" lon="3.79958">
        <ele>149.1</ele>
        <time>2019-07-07T04:50:34Z</time>
      </trkpt>
      <trkpt lat="43.65348" lon="3.79952">
        <ele>149.1</ele>
        <time>2019-07-07T04:50:35Z</time>
      </trkpt>
      <trkpt lat="43.65349" lon="3.79947">
        <ele>149.1</ele>
        <time>2019-07-07T04:50:36Z</time>
      </trkpt>
      <trkpt lat="43.65351" lon="3.79941">
        <ele>149.1</ele>
        <time>2019-07-07T04:50:37Z</time>
      </trkpt>
      <trkpt lat="43.65351" lon="3.79935">
        <ele>149.2</ele>
        <time>2019-07-07T04:50:38Z</time>
      </trkpt>
      <trkpt lat="43.65351" lon="3.7993">
        <ele>149.2</ele>
        <time>2019-07-07T04:50:39Z</time>
      </trkpt>
      <trkpt lat="43.65352" lon="3.79926">
        <ele>149.2</ele>
        <time>2019-07-07T04:50:40Z</time>
      </trkpt>
      <trkpt lat="43.65352" lon="3.79921">
        <ele>149.3</ele>
        <time>2019-07-07T04:50:41Z</time>
      </trkpt>
      <trkpt lat="43.65351" lon="3.79914">
        <ele>149.3</ele>
        <time>2019-07-07T04:50:42Z</time>
      </trkpt>
      <trkpt lat="43.65349" lon="3.7991">
        <ele>149.4</ele>
        <time>2019-07-07T04:50:43Z</time>
      </trkpt>
      <trkpt lat="43.65347" lon="3.79907">
        <ele>149.4</ele>
        <time>2019-07-07T04:50:44Z</time>
      </trkpt>
      <trkpt lat="43.65345" lon="3.79904">
        <ele>149.4</ele>
        <time>2019-07-07T04:50:45Z</time>
      </trkpt>
      <trkpt lat="43.65347" lon="3.79898">
        <ele>149.4</ele>
        <time>2019-07-07T04:50:47Z</time>
      </trkpt>
      <trkpt lat="43.65349" lon="3.79894">
        <ele>149.5</ele>
        <time>2019-07-07T04:50:48Z</time>
      </trkpt>
      <trkpt lat="43.65352" lon="3.7989">
        <ele>149.4</ele>
        <time>2019-07-07T04:50:49Z</time>
      </trkpt>
      <trkpt lat="43.65355" lon="3.79889">
        <ele>149.4</ele>
        <time>2019-07-07T04:50:50Z</time>
      </trkpt>
      <trkpt lat="43.65357" lon="3.79886">
        <ele>149.4</ele>
        <time>2019-07-07T04:50:51Z</time>
      </trkpt>
      <trkpt lat="43.65361" lon="3.79882">
        <ele>149.3</ele>
        <time>2019-07-07T04:50:52Z</time>
      </trkpt>
      <trkpt lat="43.65367" lon="3.79876">
        <ele>149.2</ele>
        <time>2019-07-07T04:50:54Z</time>
      </trkpt>
      <trkpt lat="43.65369" lon="3.79874">
        <ele>149.1</ele>
        <time>2019-07-07T04:50:55Z</time>
      </trkpt>
      <trkpt lat="43.65371" lon="3.79871">
        <ele>149.1</ele>
        <time>2019-07-07T04:50:56Z</time>
      </trkpt>
      <trkpt lat="43.65374" lon="3.79869">
        <ele>149</ele>
        <time>2019-07-07T04:50:57Z</time>
      </trkpt>
      <trkpt lat="43.65376" lon="3.79864">
        <ele>148.9</ele>
        <time>2019-07-07T04:50:58Z</time>
      </trkpt>
      <trkpt lat="43.65381" lon="3.7986">
        <ele>148.9</ele>
        <time>2019-07-07T04:51:00Z</time>
      </trkpt>
      <trkpt lat="43.65384" lon="3.79862">
        <ele>148.8</ele>
        <time>2019-07-07T04:51:04Z</time>
      </trkpt>
      <trkpt lat="43.65387" lon="3.79859">
        <ele>148.7</ele>
        <time>2019-07-07T04:51:33Z</time>
      </trkpt>
      <trkpt lat="43.65392" lon="3.79858">
        <ele>148.7</ele>
        <time>2019-07-07T04:51:35Z</time>
      </trkpt>
      <trkpt lat="43.65395" lon="3.79855">
        <ele>148.6</ele>
        <time>2019-07-07T04:51:36Z</time>
      </trkpt>
      <trkpt lat="43.654" lon="3.7985">
        <ele>148.5</ele>
        <time>2019-07-07T04:51:38Z</time>
      </trkpt>
      <trkpt lat="43.65404" lon="3.79848">
        <ele>148.4</ele>
        <time>2019-07-07T04:51:39Z</time>
      </trkpt>
      <trkpt lat="43.65407" lon="3.79844">
        <ele>148.3</ele>
        <time>2019-07-07T04:51:40Z</time>
      </trkpt>
      <trkpt lat="43.65409" lon="3.7984">
        <ele>148.2</ele>
        <time>2019-07-07T04:51:41Z</time>
      </trkpt>
      <trkpt lat="43.65413" lon="3.79836">
        <ele>148.1</ele>
        <time>2019-07-07T04:51:42Z</time>
      </trkpt>
      <trkpt lat="43.65415" lon="3.79832">
        <ele>147.9</ele>
        <time>2019-07-07T04:51:43Z</time>
      </trkpt>
      <trkpt lat="43.65418" lon="3.79828">
        <ele>147.7</ele>
        <time>2019-07-07T04:51:44Z</time>
      </trkpt>
      <trkpt lat="43.65421" lon="3.79822">
        <ele>147.5</ele>
        <time>2019-07-07T04:51:45Z</time>
      </trkpt>
      <trkpt lat="43.65424" lon="3.79817">
        <ele>147.2</ele>
        <time>2019-07-07T04:51:46Z</time>
      </trkpt>
      <trkpt lat="43.65426" lon="3.79812">
        <ele>147</ele>
        <time>2019-07-07T04:51:47Z</time>
      </trkpt>
      <trkpt lat="43.65428" lon="3.79806">
        <ele>146.7</ele>
        <time>2019-07-07T04:51:48Z</time>
      </trkpt>
      <trkpt lat="43.6543" lon="3.79801">
        <ele>146.5</ele>
        <time>2019-07-07T04:51:49Z</time>
      </trkpt>
      <trkpt lat="43.6543" lon="3.79793">
        <ele>146.3</ele>
        <time>2019-07-07T04:51:50Z</time>
      </trkpt>
      <trkpt lat="43.65432" lon="3.79786">
        <ele>146.1</ele>
        <time>2019-07-07T04:51:51Z</time>
      </trkpt>
      <trkpt lat="43.65432" lon="3.7978">
        <ele>146</ele>
        <time>2019-07-07T04:51:52Z</time>
      </trkpt>
      <trkpt lat="43.65434" lon="3.79773">
        <ele>145.9</ele>
        <time>2019-07-07T04:51:53Z</time>
      </trkpt>
      <trkpt lat="43.65435" lon="3.79767">
        <ele>145.8</ele>
        <time>2019-07-07T04:51:54Z</time>
      </trkpt>
      <trkpt lat="43.65436" lon="3.79761">
        <ele>145.8</ele>
        <time>2019-07-07T04:51:55Z</time>
      </trkpt>
      <trkpt lat="43.65438" lon="3.79755">
        <ele>145.7</ele>
        <time>2019-07-07T04:51:56Z</time>
      </trkpt>
      <trkpt lat="43.6544" lon="3.79749">
        <ele>145.6</ele>
        <time>2019-07-07T04:51:57Z</time>
      </trkpt>
      <trkpt lat="43.65442" lon="3.79743">
        <ele>145.4</ele>
        <time>2019-07-07T04:51:58Z</time>
      </trkpt>
      <trkpt lat="43.65443" lon="3.79732">
        <ele>145.1</ele>
        <time>2019-07-07T04:51:59Z</time>
      </trkpt>
      <trkpt lat="43.65443" lon="3.79725">
        <ele>144.9</ele>
        <time>2019-07-07T04:52:00Z</time>
      </trkpt>
      <trkpt lat="43.65445" lon="3.79718">
        <ele>144.6</ele>
        <time>2019-07-07T04:52:01Z</time>
      </trkpt>
      <trkpt lat="43.65445" lon="3.7971">
        <ele>144.4</ele>
        <time>2019-07-07T04:52:02Z</time>
      </trkpt>
      <trkpt lat="43.65449" lon="3.79705">
        <ele>144.2</ele>
        <time>2019-07-07T04:52:03Z</time>
      </trkpt>
      <trkpt lat="43.6545" lon="3.79698">
        <ele>144.1</ele>
        <time>2019-07-07T04:52:04Z</time>
      </trkpt>
      <trkpt lat="43.65451" lon="3.79692">
        <ele>144.1</ele>
        <time>2019-07-07T04:52:05Z</time>
      </trkpt>
      <trkpt lat="43.65451" lon="3.79686">
        <ele>144</ele>
        <time>2019-07-07T04:52:06Z</time>
      </trkpt>
      <trkpt lat="43.65452" lon="3.79678">
        <ele>143.9</ele>
        <time>2019-07-07T04:52:07Z</time>
      </trkpt>
      <trkpt lat="43.65453" lon="3.79668">
        <ele>143.7</ele>
        <time>2019-07-07T04:52:08Z</time>
      </trkpt>
      <trkpt lat="43.65455" lon="3.7966">
        <ele>143.5</ele>
        <time>2019-07-07T04:52:09Z</time>
      </trkpt>
      <trkpt lat="43.65455" lon="3.7965">
        <ele>143.3</ele>
        <time>2019-07-07T04:52:10Z</time>
      </trkpt>
      <trkpt lat="43.65456" lon="3.79645">
        <ele>143.2</ele>
        <time>2019-07-07T04:52:11Z</time>
      </trkpt>
      <trkpt lat="43.65457" lon="3.79637">
        <ele>143</ele>
        <time>2019-07-07T04:52:12Z</time>
      </trkpt>
      <trkpt lat="43.65458" lon="3.7963">
        <ele>142.9</ele>
        <time>2019-07-07T04:52:13Z</time>
      </trkpt>
      <trkpt lat="43.6546" lon="3.79623">
        <ele>142.8</ele>
        <time>2019-07-07T04:52:14Z</time>
      </trkpt>
      <trkpt lat="43.65461" lon="3.79614">
        <ele>142.7</ele>
        <time>2019-07-07T04:52:15Z</time>
      </trkpt>
      <trkpt lat="43.65462" lon="3.79607">
        <ele>142.5</ele>
        <time>2019-07-07T04:52:16Z</time>
      </trkpt>
      <trkpt lat="43.65463" lon="3.796">
        <ele>142.3</ele>
        <time>2019-07-07T04:52:17Z</time>
      </trkpt>
      <trkpt lat="43.65466" lon="3.79595">
        <ele>142.1</ele>
        <time>2019-07-07T04:52:18Z</time>
      </trkpt>
      <trkpt lat="43.65468" lon="3.7959">
        <ele>141.9</ele>
        <time>2019-07-07T04:52:19Z</time>
      </trkpt>
      <trkpt lat="43.65469" lon="3.79585">
        <ele>141.7</ele>
        <time>2019-07-07T04:52:20Z</time>
      </trkpt>
      <trkpt lat="43.65471" lon="3.7958">
        <ele>141.4</ele>
        <time>2019-07-07T04:52:21Z</time>
      </trkpt>
      <trkpt lat="43.65473" lon="3.79574">
        <ele>141.3</ele>
        <time>2019-07-07T04:52:22Z</time>
      </trkpt>
      <trkpt lat="43.65475" lon="3.7957">
        <ele>140.9</ele>
        <time>2019-07-07T04:52:23Z</time>
      </trkpt>
      <trkpt lat="43.65476" lon="3.79563">
        <ele>141.3</ele>
        <time>2019-07-07T04:52:24Z</time>
      </trkpt>
      <trkpt lat="43.65475" lon="3.79557">
        <ele>141.6</ele>
        <time>2019-07-07T04:52:25Z</time>
      </trkpt>
      <trkpt lat="43.65473" lon="3.79552">
        <ele>141.8</ele>
        <time>2019-07-07T04:52:26Z</time>
      </trkpt>
      <trkpt lat="43.6547" lon="3.79548">
        <ele>142.1</ele>
        <time>2019-07-07T04:52:27Z</time>
      </trkpt>
      <trkpt lat="43.65466" lon="3.79545">
        <ele>142.3</ele>
        <time>2019-07-07T04:52:28Z</time>
      </trkpt>
      <trkpt lat="43.65462" lon="3.79542">
        <ele>142.5</ele>
        <time>2019-07-07T04:52:29Z</time>
      </trkpt>
      <trkpt lat="43.65458" lon="3.79538">
        <ele>142.6</ele>
        <time>2019-07-07T04:52:30Z</time>
      </trkpt>
      <trkpt lat="43.65453" lon="3.79536">
        <ele>142.8</ele>
        <time>2019-07-07T04:52:31Z</time>
      </trkpt>
      <trkpt lat="43.6545" lon="3.79533">
        <ele>142.8</ele>
        <time>2019-07-07T04:52:32Z</time>
      </trkpt>
      <trkpt lat="43.65445" lon="3.79531">
        <ele>142.9</ele>
        <time>2019-07-07T04:52:33Z</time>
      </trkpt>
      <trkpt lat="43.65442" lon="3.79528">
        <ele>142.9</ele>
        <time>2019-07-07T04:52:34Z</time>
      </trkpt>
      <trkpt lat="43.65438" lon="3.79523">
        <ele>142.8</ele>
        <time>2019-07-07T04:52:35Z</time>
      </trkpt>
      <trkpt lat="43.65434" lon="3.79521">
        <ele>142.8</ele>
        <time>2019-07-07T04:52:36Z</time>
      </trkpt>
      <trkpt lat="43.65429" lon="3.79517">
        <ele>142.7</ele>
        <time>2019-07-07T04:52:37Z</time>
      </trkpt>
      <trkpt lat="43.65426" lon="3.79515">
        <ele>142.7</ele>
        <time>2019-07-07T04:52:38Z</time>
      </trkpt>
      <trkpt lat="43.65423" lon="3.79512">
        <ele>142.6</ele>
        <time>2019-07-07T04:52:39Z</time>
      </trkpt>
      <trkpt lat="43.6542" lon="3.79509">
        <ele>142.4</ele>
        <time>2019-07-07T04:52:40Z</time>
      </trkpt>
      <trkpt lat="43.65416" lon="3.79505">
        <ele>142.3</ele>
        <time>2019-07-07T04:52:41Z</time>
      </trkpt>
      <trkpt lat="43.65413" lon="3.79502">
        <ele>142.1</ele>
        <time>2019-07-07T04:52:42Z</time>
      </trkpt>
      <trkpt lat="43.6541" lon="3.79499">
        <ele>142</ele>
        <time>2019-07-07T04:52:43Z</time>
      </trkpt>
      <trkpt lat="43.65406" lon="3.79498">
        <ele>141.8</ele>
        <time>2019-07-07T04:52:44Z</time>
      </trkpt>
      <trkpt lat="43.65402" lon="3.79496">
        <ele>141.6</ele>
        <time>2019-07-07T04:52:45Z</time>
      </trkpt>
      <trkpt lat="43.65399" lon="3.79495">
        <ele>141.4</ele>
        <time>2019-07-07T04:52:46Z</time>
      </trkpt>
      <trkpt lat="43.65395" lon="3.79494">
        <ele>141.2</ele>
        <time>2019-07-07T04:52:47Z</time>
      </trkpt>
      <trkpt lat="43.65392" lon="3.79494">
        <ele>140.9</ele>
        <time>2019-07-07T04:52:48Z</time>
      </trkpt>
      <trkpt lat="43.65387" lon="3.79495">
        <ele>140.6</ele>
        <time>2019-07-07T04:52:49Z</time>
      </trkpt>
      <trkpt lat="43.65382" lon="3.79495">
        <ele>140.2</ele>
        <time>2019-07-07T04:52:50Z</time>
      </trkpt>
      <trkpt lat="43.65378" lon="3.79495">
        <ele>139.9</ele>
        <time>2019-07-07T04:52:51Z</time>
      </trkpt>
      <trkpt lat="43.65373" lon="3.79496">
        <ele>139.5</ele>
        <time>2019-07-07T04:52:52Z</time>
      </trkpt>
      <trkpt lat="43.6537" lon="3.79496">
        <ele>139.2</ele>
        <time>2019-07-07T04:52:53Z</time>
      </trkpt>
      <trkpt lat="43.65366" lon="3.79496">
        <ele>138.8</ele>
        <time>2019-07-07T04:52:54Z</time>
      </trkpt>
      <trkpt lat="43.65362" lon="3.79496">
        <ele>138.4</ele>
        <time>2019-07-07T04:52:55Z</time>
      </trkpt>
      <trkpt lat="43.65358" lon="3.79495">
        <ele>138</ele>
        <time>2019-07-07T04:52:56Z</time>
      </trkpt>
      <trkpt lat="43.65353" lon="3.79493">
        <ele>137.4</ele>
        <time>2019-07-07T04:52:58Z</time>
      </trkpt>
      <trkpt lat="43.65348" lon="3.79492">
        <ele>136.8</ele>
        <time>2019-07-07T04:52:59Z</time>
      </trkpt>
      <trkpt lat="43.65345" lon="3.79493">
        <ele>136.3</ele>
        <time>2019-07-07T04:53:00Z</time>
      </trkpt>
      <trkpt lat="43.65341" lon="3.79494">
        <ele>135.9</ele>
        <time>2019-07-07T04:53:01Z</time>
      </trkpt>
      <trkpt lat="43.65337" lon="3.79495">
        <ele>135.4</ele>
        <time>2019-07-07T04:53:03Z</time>
      </trkpt>
      <trkpt lat="43.65331" lon="3.79496">
        <ele>134.5</ele>
        <time>2019-07-07T04:53:05Z</time>
      </trkpt>
      <trkpt lat="43.65327" lon="3.79496">
        <ele>134</ele>
        <time>2019-07-07T04:53:06Z</time>
      </trkpt>
      <trkpt lat="43.65324" lon="3.79495">
        <ele>133.5</ele>
        <time>2019-07-07T04:53:07Z</time>
      </trkpt>
      <trkpt lat="43.65322" lon="3.79492">
        <ele>132.9</ele>
        <time>2019-07-07T04:53:08Z</time>
      </trkpt>
      <trkpt lat="43.6532" lon="3.79487">
        <ele>132.1</ele>
        <time>2019-07-07T04:53:10Z</time>
      </trkpt>
      <trkpt lat="43.6532" lon="3.7948">
        <ele>132.1</ele>
        <time>2019-07-07T04:53:11Z</time>
      </trkpt>
      <trkpt lat="43.65321" lon="3.79475">
        <ele>132</ele>
        <time>2019-07-07T04:53:12Z</time>
      </trkpt>
      <trkpt lat="43.65322" lon="3.7947">
        <ele>131.7</ele>
        <time>2019-07-07T04:53:13Z</time>
      </trkpt>
      <trkpt lat="43.65328" lon="3.79462">
        <ele>131.2</ele>
        <time>2019-07-07T04:53:14Z</time>
      </trkpt>
      <trkpt lat="43.65333" lon="3.79452">
        <ele>130.6</ele>
        <time>2019-07-07T04:53:15Z</time>
      </trkpt>
      <trkpt lat="43.65335" lon="3.79441">
        <ele>130.1</ele>
        <time>2019-07-07T04:53:16Z</time>
      </trkpt>
      <trkpt lat="43.65338" lon="3.7943">
        <ele>129.5</ele>
        <time>2019-07-07T04:53:17Z</time>
      </trkpt>
      <trkpt lat="43.65341" lon="3.79422">
        <ele>128.8</ele>
        <time>2019-07-07T04:53:18Z</time>
      </trkpt>
      <trkpt lat="43.65346" lon="3.7941">
        <ele>127.7</ele>
        <time>2019-07-07T04:53:19Z</time>
      </trkpt>
      <trkpt lat="43.65349" lon="3.79402">
        <ele>127.4</ele>
        <time>2019-07-07T04:53:20Z</time>
      </trkpt>
      <trkpt lat="43.65353" lon="3.79388">
        <ele>126.1</ele>
        <time>2019-07-07T04:53:21Z</time>
      </trkpt>
      <trkpt lat="43.65357" lon="3.79375">
        <ele>124.4</ele>
        <time>2019-07-07T04:53:22Z</time>
      </trkpt>
      <trkpt lat="43.65362" lon="3.79363">
        <ele>122.5</ele>
        <time>2019-07-07T04:53:23Z</time>
      </trkpt>
      <trkpt lat="43.65366" lon="3.79352">
        <ele>121.6</ele>
        <time>2019-07-07T04:53:24Z</time>
      </trkpt>
      <trkpt lat="43.65372" lon="3.79342">
        <ele>119.9</ele>
        <time>2019-07-07T04:53:25Z</time>
      </trkpt>
      <trkpt lat="43.65378" lon="3.79333">
        <ele>118.1</ele>
        <time>2019-07-07T04:53:26Z</time>
      </trkpt>
      <trkpt lat="43.65385" lon="3.79323">
        <ele>117</ele>
        <time>2019-07-07T04:53:27Z</time>
      </trkpt>
      <trkpt lat="43.65391" lon="3.79314">
        <ele>115.5</ele>
        <time>2019-07-07T04:53:28Z</time>
      </trkpt>
      <trkpt lat="43.65397" lon="3.79304">
        <ele>113.7</ele>
        <time>2019-07-07T04:53:29Z</time>
      </trkpt>
      <trkpt lat="43.65403" lon="3.79296">
        <ele>112.2</ele>
        <time>2019-07-07T04:53:31Z</time>
      </trkpt>
      <trkpt lat="43.65406" lon="3.79291">
        <ele>111.1</ele>
        <time>2019-07-07T04:53:32Z</time>
      </trkpt>
      <trkpt lat="43.65409" lon="3.79286">
        <ele>110.2</ele>
        <time>2019-07-07T04:53:33Z</time>
      </trkpt>
      <trkpt lat="43.65411" lon="3.79279">
        <ele>109.1</ele>
        <time>2019-07-07T04:53:34Z</time>
      </trkpt>
      <trkpt lat="43.65414" lon="3.79272">
        <ele>107.7</ele>
        <time>2019-07-07T04:53:35Z</time>
      </trkpt>
      <trkpt lat="43.65416" lon="3.79263">
        <ele>106.3</ele>
        <time>2019-07-07T04:53:36Z</time>
      </trkpt>
      <trkpt lat="43.6542" lon="3.7926">
        <ele>105.1</ele>
        <time>2019-07-07T04:53:37Z</time>
      </trkpt>
      <trkpt lat="43.65421" lon="3.79253">
        <ele>103.8</ele>
        <time>2019-07-07T04:53:38Z</time>
      </trkpt>
      <trkpt lat="43.65424" lon="3.79246">
        <ele>102.2</ele>
        <time>2019-07-07T04:53:39Z</time>
      </trkpt>
      <trkpt lat="43.65426" lon="3.7924">
        <ele>100.5</ele>
        <time>2019-07-07T04:53:40Z</time>
      </trkpt>
      <trkpt lat="43.65429" lon="3.79234">
        <ele>98.5</ele>
        <time>2019-07-07T04:53:41Z</time>
      </trkpt>
      <trkpt lat="43.65432" lon="3.79229">
        <ele>96.9</ele>
        <time>2019-07-07T04:53:42Z</time>
      </trkpt>
      <trkpt lat="43.65434" lon="3.79223">
        <ele>95.9</ele>
        <time>2019-07-07T04:53:43Z</time>
      </trkpt>
      <trkpt lat="43.65438" lon="3.79219">
        <ele>94.6</ele>
        <time>2019-07-07T04:53:44Z</time>
      </trkpt>
      <trkpt lat="43.65439" lon="3.79214">
        <ele>93.7</ele>
        <time>2019-07-07T04:53:45Z</time>
      </trkpt>
      <trkpt lat="43.65441" lon="3.7921">
        <ele>92.5</ele>
        <time>2019-07-07T04:53:46Z</time>
      </trkpt>
      <trkpt lat="43.65443" lon="3.79206">
        <ele>91.4</ele>
        <time>2019-07-07T04:53:47Z</time>
      </trkpt>
      <trkpt lat="43.65446" lon="3.79204">
        <ele>89.8</ele>
        <time>2019-07-07T04:53:48Z</time>
      </trkpt>
      <trkpt lat="43.65447" lon="3.79198">
        <ele>88.6</ele>
        <time>2019-07-07T04:53:49Z</time>
      </trkpt>
      <trkpt lat="43.6545" lon="3.79198">
        <ele>87.7</ele>
        <time>2019-07-07T04:53:50Z</time>
      </trkpt>
      <trkpt lat="43.6545" lon="3.79193">
        <ele>86.7</ele>
        <time>2019-07-07T04:53:51Z</time>
      </trkpt>
      <trkpt lat="43.65448" lon="3.79189">
        <ele>85.9</ele>
        <time>2019-07-07T04:53:53Z</time>
      </trkpt>
      <trkpt lat="43.65446" lon="3.79186">
        <ele>84.9</ele>
        <time>2019-07-07T04:53:55Z</time>
      </trkpt>
      <trkpt lat="43.65443" lon="3.79179">
        <ele>83</ele>
        <time>2019-07-07T04:53:57Z</time>
      </trkpt>
      <trkpt lat="43.65442" lon="3.79172">
        <ele>81.4</ele>
        <time>2019-07-07T04:53:58Z</time>
      </trkpt>
      <trkpt lat="43.65442" lon="3.79164">
        <ele>77.4</ele>
        <time>2019-07-07T04:53:59Z</time>
      </trkpt>
      <trkpt lat="43.6544" lon="3.79156">
        <ele>77.4</ele>
        <time>2019-07-07T04:54:01Z</time>
      </trkpt>
      <trkpt lat="43.65437" lon="3.79154">
        <ele>77.4</ele>
        <time>2019-07-07T04:54:03Z</time>
      </trkpt>
      <trkpt lat="43.65434" lon="3.79151">
        <ele>77.5</ele>
        <time>2019-07-07T04:54:05Z</time>
      </trkpt>
      <trkpt lat="43.65433" lon="3.79147">
        <ele>77.5</ele>
        <time>2019-07-07T04:54:06Z</time>
      </trkpt>
      <trkpt lat="43.65425" lon="3.79148">
        <ele>77.6</ele>
        <time>2019-07-07T04:54:08Z</time>
      </trkpt>
      <trkpt lat="43.65419" lon="3.79147">
        <ele>77.9</ele>
        <time>2019-07-07T04:54:09Z</time>
      </trkpt>
      <trkpt lat="43.65414" lon="3.79147">
        <ele>78</ele>
        <time>2019-07-07T04:54:10Z</time>
      </trkpt>
      <trkpt lat="43.65408" lon="3.79148">
        <ele>78.1</ele>
        <time>2019-07-07T04:54:11Z</time>
      </trkpt>
      <trkpt lat="43.65403" lon="3.79146">
        <ele>78.3</ele>
        <time>2019-07-07T04:54:12Z</time>
      </trkpt>
      <trkpt lat="43.65398" lon="3.79146">
        <ele>78.3</ele>
        <time>2019-07-07T04:54:13Z</time>
      </trkpt>
      <trkpt lat="43.65393" lon="3.79146">
        <ele>78.4</ele>
        <time>2019-07-07T04:54:14Z</time>
      </trkpt>
      <trkpt lat="43.65389" lon="3.79145">
        <ele>78.5</ele>
        <time>2019-07-07T04:54:15Z</time>
      </trkpt>
      <trkpt lat="43.65386" lon="3.79144">
        <ele>78.5</ele>
        <time>2019-07-07T04:54:16Z</time>
      </trkpt>
      <trkpt lat="43.65382" lon="3.79143">
        <ele>78.5</ele>
        <time>2019-07-07T04:54:17Z</time>
      </trkpt>
      <trkpt lat="43.65378" lon="3.79143">
        <ele>78.5</ele>
        <time>2019-07-07T04:54:18Z</time>
      </trkpt>
      <trkpt lat="43.65372" lon="3.79142">
        <ele>78.5</ele>
        <time>2019-07-07T04:54:19Z</time>
      </trkpt>
      <trkpt lat="43.65368" lon="3.79143">
        <ele>78.4</ele>
        <time>2019-07-07T04:54:20Z</time>
      </trkpt>
      <trkpt lat="43.65361" lon="3.79142">
        <ele>78.2</ele>
        <time>2019-07-07T04:54:21Z</time>
      </trkpt>
      <trkpt lat="43.65357" lon="3.79142">
        <ele>78.1</ele>
        <time>2019-07-07T04:54:22Z</time>
      </trkpt>
      <trkpt lat="43.65353" lon="3.7914">
        <ele>78</ele>
        <time>2019-07-07T04:54:23Z</time>
      </trkpt>
      <trkpt lat="43.65349" lon="3.7914">
        <ele>77.9</ele>
        <time>2019-07-07T04:54:24Z</time>
      </trkpt>
      <trkpt lat="43.65345" lon="3.7914">
        <ele>77.7</ele>
        <time>2019-07-07T04:54:25Z</time>
      </trkpt>
      <trkpt lat="43.65341" lon="3.79138">
        <ele>77.4</ele>
        <time>2019-07-07T04:54:26Z</time>
      </trkpt>
      <trkpt lat="43.65337" lon="3.79137">
        <ele>77.1</ele>
        <time>2019-07-07T04:54:27Z</time>
      </trkpt>
      <trkpt lat="43.65333" lon="3.79137">
        <ele>76.9</ele>
        <time>2019-07-07T04:54:28Z</time>
      </trkpt>
      <trkpt lat="43.65331" lon="3.79133">
        <ele>76.6</ele>
        <time>2019-07-07T04:54:29Z</time>
      </trkpt>
      <trkpt lat="43.65328" lon="3.79134">
        <ele>76.4</ele>
        <time>2019-07-07T04:54:30Z</time>
      </trkpt>
      <trkpt lat="43.65323" lon="3.79129">
        <ele>76.1</ele>
        <time>2019-07-07T04:54:32Z</time>
      </trkpt>
      <trkpt lat="43.65321" lon="3.79127">
        <ele>75.9</ele>
        <time>2019-07-07T04:54:33Z</time>
      </trkpt>
      <trkpt lat="43.65318" lon="3.79125">
        <ele>75.6</ele>
        <time>2019-07-07T04:54:34Z</time>
      </trkpt>
      <trkpt lat="43.65313" lon="3.79122">
        <ele>75.1</ele>
        <time>2019-07-07T04:54:35Z</time>
      </trkpt>
      <trkpt lat="43.65309" lon="3.79118">
        <ele>74.8</ele>
        <time>2019-07-07T04:54:36Z</time>
      </trkpt>
      <trkpt lat="43.65305" lon="3.79117">
        <ele>74.6</ele>
        <time>2019-07-07T04:54:37Z</time>
      </trkpt>
      <trkpt lat="43.653" lon="3.79115">
        <ele>74.5</ele>
        <time>2019-07-07T04:54:38Z</time>
      </trkpt>
      <trkpt lat="43.65296" lon="3.79115">
        <ele>74.6</ele>
        <time>2019-07-07T04:54:39Z</time>
      </trkpt>
      <trkpt lat="43.65291" lon="3.79115">
        <ele>74.7</ele>
        <time>2019-07-07T04:54:40Z</time>
      </trkpt>
      <trkpt lat="43.65286" lon="3.79115">
        <ele>74.9</ele>
        <time>2019-07-07T04:54:41Z</time>
      </trkpt>
      <trkpt lat="43.65281" lon="3.79113">
        <ele>75.3</ele>
        <time>2019-07-07T04:54:42Z</time>
      </trkpt>
      <trkpt lat="43.65275" lon="3.79111">
        <ele>75.3</ele>
        <time>2019-07-07T04:54:43Z</time>
      </trkpt>
      <trkpt lat="43.65267" lon="3.79109">
        <ele>75.3</ele>
        <time>2019-07-07T04:54:44Z</time>
      </trkpt>
      <trkpt lat="43.65262" lon="3.79109">
        <ele>75.3</ele>
        <time>2019-07-07T04:54:45Z</time>
      </trkpt>
      <trkpt lat="43.65258" lon="3.79106">
        <ele>75.3</ele>
        <time>2019-07-07T04:54:46Z</time>
      </trkpt>
      <trkpt lat="43.65252" lon="3.79102">
        <ele>75.3</ele>
        <time>2019-07-07T04:54:47Z</time>
      </trkpt>
      <trkpt lat="43.65246" lon="3.79098">
        <ele>74.4</ele>
        <time>2019-07-07T04:54:48Z</time>
      </trkpt>
      <trkpt lat="43.6524" lon="3.79091">
        <ele>74</ele>
        <time>2019-07-07T04:54:49Z</time>
      </trkpt>
      <trkpt lat="43.65234" lon="3.79088">
        <ele>73.6</ele>
        <time>2019-07-07T04:54:50Z</time>
      </trkpt>
      <trkpt lat="43.65227" lon="3.79078">
        <ele>73</ele>
        <time>2019-07-07T04:54:51Z</time>
      </trkpt>
      <trkpt lat="43.65224" lon="3.7907">
        <ele>72.3</ele>
        <time>2019-07-07T04:54:52Z</time>
      </trkpt>
      <trkpt lat="43.65219" lon="3.79065">
        <ele>71.8</ele>
        <time>2019-07-07T04:54:53Z</time>
      </trkpt>
      <trkpt lat="43.65214" lon="3.79062">
        <ele>71.3</ele>
        <time>2019-07-07T04:54:54Z</time>
      </trkpt>
      <trkpt lat="43.65208" lon="3.79061">
        <ele>70.9</ele>
        <time>2019-07-07T04:54:55Z</time>
      </trkpt>
      <trkpt lat="43.65202" lon="3.79058">
        <ele>71.1</ele>
        <time>2019-07-07T04:54:56Z</time>
      </trkpt>
      <trkpt lat="43.65197" lon="3.79056">
        <ele>71.2</ele>
        <time>2019-07-07T04:54:57Z</time>
      </trkpt>
      <trkpt lat="43.65192" lon="3.79054">
        <ele>71.3</ele>
        <time>2019-07-07T04:54:58Z</time>
      </trkpt>
      <trkpt lat="43.65185" lon="3.79053">
        <ele>71.4</ele>
        <time>2019-07-07T04:54:59Z</time>
      </trkpt>
      <trkpt lat="43.6518" lon="3.79054">
        <ele>71.5</ele>
        <time>2019-07-07T04:55:00Z</time>
      </trkpt>
      <trkpt lat="43.65172" lon="3.79055">
        <ele>71.6</ele>
        <time>2019-07-07T04:55:01Z</time>
      </trkpt>
      <trkpt lat="43.65166" lon="3.79053">
        <ele>71.7</ele>
        <time>2019-07-07T04:55:02Z</time>
      </trkpt>
      <trkpt lat="43.6516" lon="3.79053">
        <ele>71.8</ele>
        <time>2019-07-07T04:55:03Z</time>
      </trkpt>
      <trkpt lat="43.65155" lon="3.79053">
        <ele>71.9</ele>
        <time>2019-07-07T04:55:04Z</time>
      </trkpt>
      <trkpt lat="43.6515" lon="3.79053">
        <ele>72</ele>
        <time>2019-07-07T04:55:05Z</time>
      </trkpt>
      <trkpt lat="43.65145" lon="3.79051">
        <ele>72.1</ele>
        <time>2019-07-07T04:55:06Z</time>
      </trkpt>
      <trkpt lat="43.65139" lon="3.79053">
        <ele>72.1</ele>
        <time>2019-07-07T04:55:07Z</time>
      </trkpt>
      <trkpt lat="43.65133" lon="3.79054">
        <ele>72.1</ele>
        <time>2019-07-07T04:55:08Z</time>
      </trkpt>
      <trkpt lat="43.65129" lon="3.79054">
        <ele>72</ele>
        <time>2019-07-07T04:55:09Z</time>
      </trkpt>
      <trkpt lat="43.65124" lon="3.79055">
        <ele>72</ele>
        <time>2019-07-07T04:55:10Z</time>
      </trkpt>
      <trkpt lat="43.65115" lon="3.79059">
        <ele>71.9</ele>
        <time>2019-07-07T04:55:11Z</time>
      </trkpt>
      <trkpt lat="43.65111" lon="3.79063">
        <ele>71.9</ele>
        <time>2019-07-07T04:55:12Z</time>
      </trkpt>
      <trkpt lat="43.65106" lon="3.79067">
        <ele>71.9</ele>
        <time>2019-07-07T04:55:13Z</time>
      </trkpt>
      <trkpt lat="43.65101" lon="3.79071">
        <ele>71.8</ele>
        <time>2019-07-07T04:55:14Z</time>
      </trkpt>
      <trkpt lat="43.65097" lon="3.79074">
        <ele>71.8</ele>
        <time>2019-07-07T04:55:15Z</time>
      </trkpt>
      <trkpt lat="43.65091" lon="3.79077">
        <ele>71.8</ele>
        <time>2019-07-07T04:55:16Z</time>
      </trkpt>
      <trkpt lat="43.65088" lon="3.79082">
        <ele>71.7</ele>
        <time>2019-07-07T04:55:17Z</time>
      </trkpt>
      <trkpt lat="43.65083" lon="3.79087">
        <ele>71.7</ele>
        <time>2019-07-07T04:55:18Z</time>
      </trkpt>
      <trkpt lat="43.65078" lon="3.7909">
        <ele>71.7</ele>
        <time>2019-07-07T04:55:19Z</time>
      </trkpt>
      <trkpt lat="43.65073" lon="3.79093">
        <ele>71.6</ele>
        <time>2019-07-07T04:55:20Z</time>
      </trkpt>
      <trkpt lat="43.65068" lon="3.79096">
        <ele>71.6</ele>
        <time>2019-07-07T04:55:21Z</time>
      </trkpt>
      <trkpt lat="43.65063" lon="3.79099">
        <ele>71.5</ele>
        <time>2019-07-07T04:55:22Z</time>
      </trkpt>
      <trkpt lat="43.65057" lon="3.79103">
        <ele>71.5</ele>
        <time>2019-07-07T04:55:23Z</time>
      </trkpt>
      <trkpt lat="43.65053" lon="3.79109">
        <ele>71.4</ele>
        <time>2019-07-07T04:55:24Z</time>
      </trkpt>
      <trkpt lat="43.65051" lon="3.79115">
        <ele>71.3</ele>
        <time>2019-07-07T04:55:25Z</time>
      </trkpt>
      <trkpt lat="43.65048" lon="3.79123">
        <ele>71.1</ele>
        <time>2019-07-07T04:55:26Z</time>
      </trkpt>
      <trkpt lat="43.65045" lon="3.79129">
        <ele>71</ele>
        <time>2019-07-07T04:55:27Z</time>
      </trkpt>
      <trkpt lat="43.65044" lon="3.79135">
        <ele>70.9</ele>
        <time>2019-07-07T04:55:28Z</time>
      </trkpt>
      <trkpt lat="43.65042" lon="3.79142">
        <ele>70.7</ele>
        <time>2019-07-07T04:55:29Z</time>
      </trkpt>
      <trkpt lat="43.65039" lon="3.7915">
        <ele>70.7</ele>
        <time>2019-07-07T04:55:30Z</time>
      </trkpt>
      <trkpt lat="43.65035" lon="3.79155">
        <ele>70.6</ele>
        <time>2019-07-07T04:55:31Z</time>
      </trkpt>
      <trkpt lat="43.65037" lon="3.79164">
        <ele>70.6</ele>
        <time>2019-07-07T04:55:32Z</time>
      </trkpt>
      <trkpt lat="43.65031" lon="3.79173">
        <ele>70.6</ele>
        <time>2019-07-07T04:55:33Z</time>
      </trkpt>
      <trkpt lat="43.65027" lon="3.79178">
        <ele>70.6</ele>
        <time>2019-07-07T04:55:34Z</time>
      </trkpt>
      <trkpt lat="43.6502" lon="3.79183">
        <ele>70.5</ele>
        <time>2019-07-07T04:55:35Z</time>
      </trkpt>
      <trkpt lat="43.65017" lon="3.79189">
        <ele>70.5</ele>
        <time>2019-07-07T04:55:36Z</time>
      </trkpt>
      <trkpt lat="43.65011" lon="3.79193">
        <ele>70.5</ele>
        <time>2019-07-07T04:55:37Z</time>
      </trkpt>
      <trkpt lat="43.65008" lon="3.79199">
        <ele>70.5</ele>
        <time>2019-07-07T04:55:38Z</time>
      </trkpt>
      <trkpt lat="43.65005" lon="3.79205">
        <ele>70.5</ele>
        <time>2019-07-07T04:55:39Z</time>
      </trkpt>
      <trkpt lat="43.65003" lon="3.79211">
        <ele>70.5</ele>
        <time>2019-07-07T04:55:40Z</time>
      </trkpt>
      <trkpt lat="43.65001" lon="3.79218">
        <ele>70.5</ele>
        <time>2019-07-07T04:55:41Z</time>
      </trkpt>
      <trkpt lat="43.64998" lon="3.79224">
        <ele>70.5</ele>
        <time>2019-07-07T04:55:42Z</time>
      </trkpt>
      <trkpt lat="43.64996" lon="3.7923">
        <ele>70.5</ele>
        <time>2019-07-07T04:55:43Z</time>
      </trkpt>
      <trkpt lat="43.64995" lon="3.79236">
        <ele>70.4</ele>
        <time>2019-07-07T04:55:44Z</time>
      </trkpt>
      <trkpt lat="43.64993" lon="3.79245">
        <ele>70.3</ele>
        <time>2019-07-07T04:55:45Z</time>
      </trkpt>
      <trkpt lat="43.64992" lon="3.79252">
        <ele>70.2</ele>
        <time>2019-07-07T04:55:46Z</time>
      </trkpt>
      <trkpt lat="43.64991" lon="3.79261">
        <ele>69.9</ele>
        <time>2019-07-07T04:55:47Z</time>
      </trkpt>
      <trkpt lat="43.64989" lon="3.79269">
        <ele>69.7</ele>
        <time>2019-07-07T04:55:48Z</time>
      </trkpt>
      <trkpt lat="43.64987" lon="3.79276">
        <ele>69.6</ele>
        <time>2019-07-07T04:55:49Z</time>
      </trkpt>
      <trkpt lat="43.64984" lon="3.79284">
        <ele>69.5</ele>
        <time>2019-07-07T04:55:50Z</time>
      </trkpt>
      <trkpt lat="43.64983" lon="3.79293">
        <ele>69.5</ele>
        <time>2019-07-07T04:55:51Z</time>
      </trkpt>
      <trkpt lat="43.64982" lon="3.79302">
        <ele>69.5</ele>
        <time>2019-07-07T04:55:52Z</time>
      </trkpt>
      <trkpt lat="43.64981" lon="3.7931">
        <ele>69.5</ele>
        <time>2019-07-07T04:55:53Z</time>
      </trkpt>
      <trkpt lat="43.6498" lon="3.79318">
        <ele>69.5</ele>
        <time>2019-07-07T04:55:54Z</time>
      </trkpt>
      <trkpt lat="43.64978" lon="3.79326">
        <ele>69.5</ele>
        <time>2019-07-07T04:55:55Z</time>
      </trkpt>
      <trkpt lat="43.64976" lon="3.79335">
        <ele>69.6</ele>
        <time>2019-07-07T04:55:56Z</time>
      </trkpt>
      <trkpt lat="43.64975" lon="3.79343">
        <ele>69.6</ele>
        <time>2019-07-07T04:55:57Z</time>
      </trkpt>
      <trkpt lat="43.64973" lon="3.79352">
        <ele>69.6</ele>
        <time>2019-07-07T04:55:58Z</time>
      </trkpt>
      <trkpt lat="43.6497" lon="3.7936">
        <ele>69.6</ele>
        <time>2019-07-07T04:55:59Z</time>
      </trkpt>
      <trkpt lat="43.64969" lon="3.79376">
        <ele>69.5</ele>
        <time>2019-07-07T04:56:01Z</time>
      </trkpt>
      <trkpt lat="43.64968" lon="3.79385">
        <ele>69.5</ele>
        <time>2019-07-07T04:56:02Z</time>
      </trkpt>
      <trkpt lat="43.64967" lon="3.79392">
        <ele>69.4</ele>
        <time>2019-07-07T04:56:03Z</time>
      </trkpt>
      <trkpt lat="43.64965" lon="3.79399">
        <ele>69.3</ele>
        <time>2019-07-07T04:56:04Z</time>
      </trkpt>
      <trkpt lat="43.64957" lon="3.79415">
        <ele>69</ele>
        <time>2019-07-07T04:56:06Z</time>
      </trkpt>
      <trkpt lat="43.64954" lon="3.79423">
        <ele>68.8</ele>
        <time>2019-07-07T04:56:07Z</time>
      </trkpt>
      <trkpt lat="43.64952" lon="3.79429">
        <ele>68.6</ele>
        <time>2019-07-07T04:56:08Z</time>
      </trkpt>
      <trkpt lat="43.64948" lon="3.79437">
        <ele>68.4</ele>
        <time>2019-07-07T04:56:09Z</time>
      </trkpt>
      <trkpt lat="43.64945" lon="3.79445">
        <ele>68.2</ele>
        <time>2019-07-07T04:56:10Z</time>
      </trkpt>
      <trkpt lat="43.64943" lon="3.7945">
        <ele>68.1</ele>
        <time>2019-07-07T04:56:11Z</time>
      </trkpt>
      <trkpt lat="43.6494" lon="3.79458">
        <ele>67.9</ele>
        <time>2019-07-07T04:56:12Z</time>
      </trkpt>
      <trkpt lat="43.64936" lon="3.79465">
        <ele>67.7</ele>
        <time>2019-07-07T04:56:13Z</time>
      </trkpt>
      <trkpt lat="43.64932" lon="3.79473">
        <ele>67.4</ele>
        <time>2019-07-07T04:56:14Z</time>
      </trkpt>
      <trkpt lat="43.64928" lon="3.79483">
        <ele>67.2</ele>
        <time>2019-07-07T04:56:15Z</time>
      </trkpt>
      <trkpt lat="43.64923" lon="3.79491">
        <ele>67.1</ele>
        <time>2019-07-07T04:56:16Z</time>
      </trkpt>
      <trkpt lat="43.6492" lon="3.79498">
        <ele>67.1</ele>
        <time>2019-07-07T04:56:17Z</time>
      </trkpt>
      <trkpt lat="43.64916" lon="3.79504">
        <ele>67</ele>
        <time>2019-07-07T04:56:18Z</time>
      </trkpt>
      <trkpt lat="43.64913" lon="3.79511">
        <ele>67</ele>
        <time>2019-07-07T04:56:19Z</time>
      </trkpt>
      <trkpt lat="43.6491" lon="3.79519">
        <ele>66.8</ele>
        <time>2019-07-07T04:56:20Z</time>
      </trkpt>
      <trkpt lat="43.64907" lon="3.79527">
        <ele>66.7</ele>
        <time>2019-07-07T04:56:21Z</time>
      </trkpt>
      <trkpt lat="43.64904" lon="3.79534">
        <ele>66.6</ele>
        <time>2019-07-07T04:56:22Z</time>
      </trkpt>
      <trkpt lat="43.64902" lon="3.79539">
        <ele>66.5</ele>
        <time>2019-07-07T04:56:23Z</time>
      </trkpt>
      <trkpt lat="43.649" lon="3.79546">
        <ele>66.5</ele>
        <time>2019-07-07T04:56:24Z</time>
      </trkpt>
      <trkpt lat="43.64899" lon="3.79552">
        <ele>66.5</ele>
        <time>2019-07-07T04:56:25Z</time>
      </trkpt>
      <trkpt lat="43.64898" lon="3.7956">
        <ele>66.6</ele>
        <time>2019-07-07T04:56:26Z</time>
      </trkpt>
      <trkpt lat="43.64895" lon="3.79567">
        <ele>66.6</ele>
        <time>2019-07-07T04:56:27Z</time>
      </trkpt>
      <trkpt lat="43.64893" lon="3.79573">
        <ele>66.6</ele>
        <time>2019-07-07T04:56:28Z</time>
      </trkpt>
      <trkpt lat="43.6489" lon="3.7958">
        <ele>66.6</ele>
        <time>2019-07-07T04:56:29Z</time>
      </trkpt>
      <trkpt lat="43.64887" lon="3.79586">
        <ele>66.6</ele>
        <time>2019-07-07T04:56:30Z</time>
      </trkpt>
      <trkpt lat="43.64884" lon="3.79592">
        <ele>66.6</ele>
        <time>2019-07-07T04:56:31Z</time>
      </trkpt>
      <trkpt lat="43.64878" lon="3.79598">
        <ele>66.7</ele>
        <time>2019-07-07T04:56:32Z</time>
      </trkpt>
      <trkpt lat="43.64874" lon="3.79604">
        <ele>66.7</ele>
        <time>2019-07-07T04:56:33Z</time>
      </trkpt>
      <trkpt lat="43.64871" lon="3.79609">
        <ele>66.7</ele>
        <time>2019-07-07T04:56:34Z</time>
      </trkpt>
      <trkpt lat="43.64867" lon="3.79615">
        <ele>66.7</ele>
        <time>2019-07-07T04:56:35Z</time>
      </trkpt>
      <trkpt lat="43.64862" lon="3.79622">
        <ele>66.7</ele>
        <time>2019-07-07T04:56:36Z</time>
      </trkpt>
      <trkpt lat="43.64858" lon="3.79629">
        <ele>66.7</ele>
        <time>2019-07-07T04:56:37Z</time>
      </trkpt>
      <trkpt lat="43.64853" lon="3.79635">
        <ele>66.8</ele>
        <time>2019-07-07T04:56:38Z</time>
      </trkpt>
      <trkpt lat="43.6485" lon="3.79641">
        <ele>66.8</ele>
        <time>2019-07-07T04:56:39Z</time>
      </trkpt>
      <trkpt lat="43.64847" lon="3.79647">
        <ele>66.9</ele>
        <time>2019-07-07T04:56:40Z</time>
      </trkpt>
      <trkpt lat="43.64844" lon="3.79653">
        <ele>67.1</ele>
        <time>2019-07-07T04:56:41Z</time>
      </trkpt>
      <trkpt lat="43.64841" lon="3.79661">
        <ele>67.2</ele>
        <time>2019-07-07T04:56:42Z</time>
      </trkpt>
      <trkpt lat="43.64839" lon="3.7967">
        <ele>67.4</ele>
        <time>2019-07-07T04:56:43Z</time>
      </trkpt>
      <trkpt lat="43.64837" lon="3.79676">
        <ele>67.5</ele>
        <time>2019-07-07T04:56:44Z</time>
      </trkpt>
      <trkpt lat="43.64833" lon="3.79685">
        <ele>67.6</ele>
        <time>2019-07-07T04:56:45Z</time>
      </trkpt>
      <trkpt lat="43.64829" lon="3.79692">
        <ele>67.7</ele>
        <time>2019-07-07T04:56:46Z</time>
      </trkpt>
      <trkpt lat="43.64829" lon="3.79704">
        <ele>67.7</ele>
        <time>2019-07-07T04:56:47Z</time>
      </trkpt>
      <trkpt lat="43.64828" lon="3.79712">
        <ele>67.7</ele>
        <time>2019-07-07T04:56:48Z</time>
      </trkpt>
      <trkpt lat="43.64825" lon="3.79714">
        <ele>67.7</ele>
        <time>2019-07-07T04:56:49Z</time>
      </trkpt>
      <trkpt lat="43.64822" lon="3.79716">
        <ele>67.7</ele>
        <time>2019-07-07T04:56:50Z</time>
      </trkpt>
      <trkpt lat="43.64819" lon="3.7972">
        <ele>67.7</ele>
        <time>2019-07-07T04:56:51Z</time>
      </trkpt>
      <trkpt lat="43.64817" lon="3.79725">
        <ele>67.8</ele>
        <time>2019-07-07T04:56:52Z</time>
      </trkpt>
      <trkpt lat="43.64814" lon="3.79731">
        <ele>67.7</ele>
        <time>2019-07-07T04:56:53Z</time>
      </trkpt>
      <trkpt lat="43.6481" lon="3.79736">
        <ele>67.6</ele>
        <time>2019-07-07T04:56:54Z</time>
      </trkpt>
      <trkpt lat="43.64807" lon="3.79742">
        <ele>67.5</ele>
        <time>2019-07-07T04:56:55Z</time>
      </trkpt>
      <trkpt lat="43.64805" lon="3.79747">
        <ele>67.4</ele>
        <time>2019-07-07T04:56:56Z</time>
      </trkpt>
      <trkpt lat="43.64801" lon="3.7975">
        <ele>67.4</ele>
        <time>2019-07-07T04:56:57Z</time>
      </trkpt>
      <trkpt lat="43.64799" lon="3.79754">
        <ele>67.3</ele>
        <time>2019-07-07T04:56:58Z</time>
      </trkpt>
      <trkpt lat="43.64794" lon="3.79756">
        <ele>67.2</ele>
        <time>2019-07-07T04:56:59Z</time>
      </trkpt>
      <trkpt lat="43.64791" lon="3.7976">
        <ele>67</ele>
        <time>2019-07-07T04:57:00Z</time>
      </trkpt>
      <trkpt lat="43.64789" lon="3.79767">
        <ele>66.9</ele>
        <time>2019-07-07T04:57:02Z</time>
      </trkpt>
      <trkpt lat="43.64788" lon="3.79772">
        <ele>66.8</ele>
        <time>2019-07-07T04:57:03Z</time>
      </trkpt>
      <trkpt lat="43.64786" lon="3.79778">
        <ele>66.6</ele>
        <time>2019-07-07T04:57:04Z</time>
      </trkpt>
      <trkpt lat="43.64783" lon="3.79782">
        <ele>66.5</ele>
        <time>2019-07-07T04:57:05Z</time>
      </trkpt>
      <trkpt lat="43.64781" lon="3.79788">
        <ele>66.4</ele>
        <time>2019-07-07T04:57:06Z</time>
      </trkpt>
      <trkpt lat="43.6478" lon="3.79795">
        <ele>66.3</ele>
        <time>2019-07-07T04:57:07Z</time>
      </trkpt>
      <trkpt lat="43.64778" lon="3.79801">
        <ele>66.3</ele>
        <time>2019-07-07T04:57:08Z</time>
      </trkpt>
      <trkpt lat="43.64776" lon="3.79808">
        <ele>66.3</ele>
        <time>2019-07-07T04:57:09Z</time>
      </trkpt>
      <trkpt lat="43.64777" lon="3.79816">
        <ele>66.3</ele>
        <time>2019-07-07T04:57:10Z</time>
      </trkpt>
      <trkpt lat="43.64776" lon="3.79824">
        <ele>66.3</ele>
        <time>2019-07-07T04:57:11Z</time>
      </trkpt>
      <trkpt lat="43.64777" lon="3.79833">
        <ele>66.3</ele>
        <time>2019-07-07T04:57:12Z</time>
      </trkpt>
      <trkpt lat="43.64777" lon="3.7984">
        <ele>66.3</ele>
        <time>2019-07-07T04:57:13Z</time>
      </trkpt>
      <trkpt lat="43.64774" lon="3.7985">
        <ele>66.3</ele>
        <time>2019-07-07T04:57:14Z</time>
      </trkpt>
      <trkpt lat="43.6477" lon="3.79856">
        <ele>66.4</ele>
        <time>2019-07-07T04:57:15Z</time>
      </trkpt>
      <trkpt lat="43.64769" lon="3.79863">
        <ele>66.5</ele>
        <time>2019-07-07T04:57:16Z</time>
      </trkpt>
      <trkpt lat="43.64768" lon="3.79871">
        <ele>66.6</ele>
        <time>2019-07-07T04:57:17Z</time>
      </trkpt>
      <trkpt lat="43.64769" lon="3.79879">
        <ele>66.7</ele>
        <time>2019-07-07T04:57:18Z</time>
      </trkpt>
      <trkpt lat="43.64769" lon="3.79887">
        <ele>66.9</ele>
        <time>2019-07-07T04:57:19Z</time>
      </trkpt>
      <trkpt lat="43.6477" lon="3.79895">
        <ele>67</ele>
        <time>2019-07-07T04:57:20Z</time>
      </trkpt>
      <trkpt lat="43.64769" lon="3.79902">
        <ele>67</ele>
        <time>2019-07-07T04:57:21Z</time>
      </trkpt>
      <trkpt lat="43.64767" lon="3.79909">
        <ele>67.1</ele>
        <time>2019-07-07T04:57:22Z</time>
      </trkpt>
      <trkpt lat="43.64766" lon="3.79917">
        <ele>67.1</ele>
        <time>2019-07-07T04:57:23Z</time>
      </trkpt>
      <trkpt lat="43.64766" lon="3.79925">
        <ele>67.1</ele>
        <time>2019-07-07T04:57:24Z</time>
      </trkpt>
      <trkpt lat="43.64766" lon="3.79933">
        <ele>67.1</ele>
        <time>2019-07-07T04:57:25Z</time>
      </trkpt>
      <trkpt lat="43.64764" lon="3.79941">
        <ele>67.1</ele>
        <time>2019-07-07T04:57:26Z</time>
      </trkpt>
      <trkpt lat="43.64763" lon="3.79948">
        <ele>67.1</ele>
        <time>2019-07-07T04:57:27Z</time>
      </trkpt>
      <trkpt lat="43.64763" lon="3.79957">
        <ele>67.1</ele>
        <time>2019-07-07T04:57:28Z</time>
      </trkpt>
      <trkpt lat="43.64759" lon="3.79964">
        <ele>67.1</ele>
        <time>2019-07-07T04:57:29Z</time>
      </trkpt>
      <trkpt lat="43.64757" lon="3.79972">
        <ele>67.1</ele>
        <time>2019-07-07T04:57:30Z</time>
      </trkpt>
      <trkpt lat="43.64756" lon="3.79979">
        <ele>67.1</ele>
        <time>2019-07-07T04:57:31Z</time>
      </trkpt>
      <trkpt lat="43.64757" lon="3.79986">
        <ele>67.1</ele>
        <time>2019-07-07T04:57:32Z</time>
      </trkpt>
      <trkpt lat="43.64757" lon="3.79991">
        <ele>67.1</ele>
        <time>2019-07-07T04:57:33Z</time>
      </trkpt>
      <trkpt lat="43.64758" lon="3.79998">
        <ele>67.1</ele>
        <time>2019-07-07T04:57:34Z</time>
      </trkpt>
      <trkpt lat="43.6476" lon="3.80004">
        <ele>67.1</ele>
        <time>2019-07-07T04:57:35Z</time>
      </trkpt>
      <trkpt lat="43.64757" lon="3.80012">
        <ele>67.1</ele>
        <time>2019-07-07T04:57:36Z</time>
      </trkpt>
      <trkpt lat="43.64757" lon="3.80017">
        <ele>67.1</ele>
        <time>2019-07-07T04:57:37Z</time>
      </trkpt>
      <trkpt lat="43.64755" lon="3.80023">
        <ele>67.2</ele>
        <time>2019-07-07T04:57:38Z</time>
      </trkpt>
      <trkpt lat="43.64754" lon="3.80029">
        <ele>67.3</ele>
        <time>2019-07-07T04:57:39Z</time>
      </trkpt>
      <trkpt lat="43.64753" lon="3.80036">
        <ele>67.3</ele>
        <time>2019-07-07T04:57:40Z</time>
      </trkpt>
      <trkpt lat="43.64748" lon="3.80043">
        <ele>67.4</ele>
        <time>2019-07-07T04:57:41Z</time>
      </trkpt>
      <trkpt lat="43.64744" lon="3.80049">
        <ele>67.4</ele>
        <time>2019-07-07T04:57:42Z</time>
      </trkpt>
      <trkpt lat="43.64741" lon="3.80055">
        <ele>67.4</ele>
        <time>2019-07-07T04:57:43Z</time>
      </trkpt>
      <trkpt lat="43.64741" lon="3.80062">
        <ele>67.4</ele>
        <time>2019-07-07T04:57:44Z</time>
      </trkpt>
      <trkpt lat="43.64741" lon="3.80068">
        <ele>67.3</ele>
        <time>2019-07-07T04:57:45Z</time>
      </trkpt>
      <trkpt lat="43.64738" lon="3.80073">
        <ele>67.3</ele>
        <time>2019-07-07T04:57:46Z</time>
      </trkpt>
      <trkpt lat="43.64735" lon="3.80079">
        <ele>67.2</ele>
        <time>2019-07-07T04:57:47Z</time>
      </trkpt>
      <trkpt lat="43.64732" lon="3.80086">
        <ele>67.1</ele>
        <time>2019-07-07T04:57:48Z</time>
      </trkpt>
      <trkpt lat="43.64729" lon="3.80093">
        <ele>66.9</ele>
        <time>2019-07-07T04:57:49Z</time>
      </trkpt>
      <trkpt lat="43.64727" lon="3.80099">
        <ele>66.8</ele>
        <time>2019-07-07T04:57:50Z</time>
      </trkpt>
      <trkpt lat="43.64725" lon="3.80106">
        <ele>66.7</ele>
        <time>2019-07-07T04:57:51Z</time>
      </trkpt>
      <trkpt lat="43.64723" lon="3.80113">
        <ele>66.5</ele>
        <time>2019-07-07T04:57:52Z</time>
      </trkpt>
      <trkpt lat="43.64718" lon="3.80119">
        <ele>66.4</ele>
        <time>2019-07-07T04:57:53Z</time>
      </trkpt>
      <trkpt lat="43.64715" lon="3.80125">
        <ele>66.3</ele>
        <time>2019-07-07T04:57:54Z</time>
      </trkpt>
      <trkpt lat="43.64712" lon="3.80132">
        <ele>66.1</ele>
        <time>2019-07-07T04:57:55Z</time>
      </trkpt>
      <trkpt lat="43.6471" lon="3.80138">
        <ele>66</ele>
        <time>2019-07-07T04:57:56Z</time>
      </trkpt>
      <trkpt lat="43.64707" lon="3.80146">
        <ele>65.6</ele>
        <time>2019-07-07T04:57:57Z</time>
      </trkpt>
      <trkpt lat="43.64705" lon="3.80153">
        <ele>65.3</ele>
        <time>2019-07-07T04:57:58Z</time>
      </trkpt>
      <trkpt lat="43.64703" lon="3.8016">
        <ele>65</ele>
        <time>2019-07-07T04:57:59Z</time>
      </trkpt>
      <trkpt lat="43.64701" lon="3.80168">
        <ele>64.9</ele>
        <time>2019-07-07T04:58:00Z</time>
      </trkpt>
      <trkpt lat="43.64697" lon="3.80177">
        <ele>64.6</ele>
        <time>2019-07-07T04:58:01Z</time>
      </trkpt>
      <trkpt lat="43.64695" lon="3.80186">
        <ele>64.4</ele>
        <time>2019-07-07T04:58:02Z</time>
      </trkpt>
      <trkpt lat="43.64692" lon="3.80194">
        <ele>64.2</ele>
        <time>2019-07-07T04:58:03Z</time>
      </trkpt>
      <trkpt lat="43.64689" lon="3.802">
        <ele>64</ele>
        <time>2019-07-07T04:58:04Z</time>
      </trkpt>
      <trkpt lat="43.64688" lon="3.80207">
        <ele>63.9</ele>
        <time>2019-07-07T04:58:05Z</time>
      </trkpt>
      <trkpt lat="43.64686" lon="3.80217">
        <ele>63.7</ele>
        <time>2019-07-07T04:58:06Z</time>
      </trkpt>
      <trkpt lat="43.64686" lon="3.80223">
        <ele>63.6</ele>
        <time>2019-07-07T04:58:07Z</time>
      </trkpt>
      <trkpt lat="43.64685" lon="3.8023">
        <ele>63.4</ele>
        <time>2019-07-07T04:58:08Z</time>
      </trkpt>
      <trkpt lat="43.64684" lon="3.80236">
        <ele>63.3</ele>
        <time>2019-07-07T04:58:09Z</time>
      </trkpt>
      <trkpt lat="43.64683" lon="3.80242">
        <ele>63.2</ele>
        <time>2019-07-07T04:58:10Z</time>
      </trkpt>
      <trkpt lat="43.64678" lon="3.80245">
        <ele>63.1</ele>
        <time>2019-07-07T04:58:12Z</time>
      </trkpt>
      <trkpt lat="43.64674" lon="3.80245">
        <ele>63</ele>
        <time>2019-07-07T04:58:13Z</time>
      </trkpt>
      <trkpt lat="43.64671" lon="3.80246">
        <ele>62.9</ele>
        <time>2019-07-07T04:58:14Z</time>
      </trkpt>
      <trkpt lat="43.64667" lon="3.80247">
        <ele>62.5</ele>
        <time>2019-07-07T04:58:15Z</time>
      </trkpt>
      <trkpt lat="43.64663" lon="3.80248">
        <ele>62.5</ele>
        <time>2019-07-07T04:58:16Z</time>
      </trkpt>
      <trkpt lat="43.64661" lon="3.80249">
        <ele>62.5</ele>
        <time>2019-07-07T04:58:17Z</time>
      </trkpt>
      <trkpt lat="43.64658" lon="3.80253">
        <ele>62.4</ele>
        <time>2019-07-07T04:58:19Z</time>
      </trkpt>
      <trkpt lat="43.64657" lon="3.80253">
        <ele>62.4</ele>
        <time>2019-07-07T04:58:21Z</time>
      </trkpt>
      <trkpt lat="43.64656" lon="3.80254">
        <ele>62.4</ele>
        <time>2019-07-07T04:58:23Z</time>
      </trkpt>
      <trkpt lat="43.64655" lon="3.80255">
        <ele>62.4</ele>
        <time>2019-07-07T04:58:29Z</time>
      </trkpt>
      <trkpt lat="43.64653" lon="3.80256">
        <ele>62.4</ele>
        <time>2019-07-07T04:58:39Z</time>
      </trkpt>
      <trkpt lat="43.64652" lon="3.80256">
        <ele>62.4</ele>
        <time>2019-07-07T04:58:44Z</time>
      </trkpt>
      <trkpt lat="43.64651" lon="3.80257">
        <ele>62.4</ele>
        <time>2019-07-07T04:58:48Z</time>
      </trkpt>
      <trkpt lat="43.6465" lon="3.80258">
        <ele>62.4</ele>
        <time>2019-07-07T04:58:49Z</time>
      </trkpt>
      <trkpt lat="43.64649" lon="3.80263">
        <ele>62.4</ele>
        <time>2019-07-07T04:58:50Z</time>
      </trkpt>
      <trkpt lat="43.64649" lon="3.80258">
        <ele>62.3</ele>
        <time>2019-07-07T04:59:00Z</time>
      </trkpt>
      <trkpt lat="43.64652" lon="3.80253">
        <ele>62.3</ele>
        <time>2019-07-07T05:01:08Z</time>
      </trkpt>
      <trkpt lat="43.64655" lon="3.80251">
        <ele>62.3</ele>
        <time>2019-07-07T05:01:12Z</time>
      </trkpt>
      <trkpt lat="43.64658" lon="3.80251">
        <ele>62.3</ele>
        <time>2019-07-07T05:01:15Z</time>
      </trkpt>
      <trkpt lat="43.64661" lon="3.80252">
        <ele>62.2</ele>
        <time>2019-07-07T05:01:18Z</time>
      </trkpt>
      <trkpt lat="43.64664" lon="3.80253">
        <ele>62.2</ele>
        <time>2019-07-07T05:01:22Z</time>
      </trkpt>
      <trkpt lat="43.64668" lon="3.80253">
        <ele>62.2</ele>
        <time>2019-07-07T05:01:24Z</time>
      </trkpt>
      <trkpt lat="43.64667" lon="3.80257">
        <ele>62.2</ele>
        <time>2019-07-07T05:01:31Z</time>
      </trkpt>
      <trkpt lat="43.64668" lon="3.8026">
        <ele>62.2</ele>
        <time>2019-07-07T05:02:33Z</time>
      </trkpt>
      <trkpt lat="43.64667" lon="3.80264">
        <ele>62.1</ele>
        <time>2019-07-07T05:09:20Z</time>
      </trkpt>
      <trkpt lat="43.64661" lon="3.80265">
        <ele>62.1</ele>
        <time>2019-07-07T05:09:22Z</time>
      </trkpt>
      <trkpt lat="43.64658" lon="3.80263">
        <ele>62.1</ele>
        <time>2019-07-07T05:09:24Z</time>
      </trkpt>
      <trkpt lat="43.64655" lon="3.80258">
        <ele>62</ele>
        <time>2019-07-07T05:09:26Z</time>
      </trkpt>
      <trkpt lat="43.64651" lon="3.80255">
        <ele>61.9</ele>
        <time>2019-07-07T05:09:28Z</time>
      </trkpt>
      <trkpt lat="43.64648" lon="3.80253">
        <ele>61.8</ele>
        <time>2019-07-07T05:09:30Z</time>
      </trkpt>
      <trkpt lat="43.64645" lon="3.80249">
        <ele>61.8</ele>
        <time>2019-07-07T05:09:32Z</time>
      </trkpt>
      <trkpt lat="43.64642" lon="3.80246">
        <ele>61.7</ele>
        <time>2019-07-07T05:09:33Z</time>
      </trkpt>
      <trkpt lat="43.64639" lon="3.80248">
        <ele>61.6</ele>
        <time>2019-07-07T05:09:34Z</time>
      </trkpt>
      <trkpt lat="43.64633" lon="3.80247">
        <ele>61.5</ele>
        <time>2019-07-07T05:09:36Z</time>
      </trkpt>
      <trkpt lat="43.6463" lon="3.8025">
        <ele>61.4</ele>
        <time>2019-07-07T05:09:37Z</time>
      </trkpt>
      <trkpt lat="43.64627" lon="3.80251">
        <ele>61.3</ele>
        <time>2019-07-07T05:09:38Z</time>
      </trkpt>
      <trkpt lat="43.64624" lon="3.80251">
        <ele>61.3</ele>
        <time>2019-07-07T05:09:39Z</time>
      </trkpt>
      <trkpt lat="43.64619" lon="3.80252">
        <ele>61.2</ele>
        <time>2019-07-07T05:09:43Z</time>
      </trkpt>
      <trkpt lat="43.64614" lon="3.80245">
        <ele>61.1</ele>
        <time>2019-07-07T05:09:45Z</time>
      </trkpt>
      <trkpt lat="43.64611" lon="3.80241">
        <ele>61.1</ele>
        <time>2019-07-07T05:09:46Z</time>
      </trkpt>
      <trkpt lat="43.64606" lon="3.80238">
        <ele>61</ele>
        <time>2019-07-07T05:09:47Z</time>
      </trkpt>
      <trkpt lat="43.64601" lon="3.80234">
        <ele>61</ele>
        <time>2019-07-07T05:09:48Z</time>
      </trkpt>
      <trkpt lat="43.64596" lon="3.80228">
        <ele>61</ele>
        <time>2019-07-07T05:09:49Z</time>
      </trkpt>
      <trkpt lat="43.64593" lon="3.80225">
        <ele>61</ele>
        <time>2019-07-07T05:09:50Z</time>
      </trkpt>
      <trkpt lat="43.64589" lon="3.80222">
        <ele>61</ele>
        <time>2019-07-07T05:09:51Z</time>
      </trkpt>
      <trkpt lat="43.64587" lon="3.8022">
        <ele>60.9</ele>
        <time>2019-07-07T05:09:52Z</time>
      </trkpt>
      <trkpt lat="43.64584" lon="3.80216">
        <ele>60.9</ele>
        <time>2019-07-07T05:09:53Z</time>
      </trkpt>
      <trkpt lat="43.6458" lon="3.80215">
        <ele>60.8</ele>
        <time>2019-07-07T05:09:54Z</time>
      </trkpt>
      <trkpt lat="43.64579" lon="3.80211">
        <ele>60.8</ele>
        <time>2019-07-07T05:09:55Z</time>
      </trkpt>
      <trkpt lat="43.64575" lon="3.80208">
        <ele>60.7</ele>
        <time>2019-07-07T05:09:57Z</time>
      </trkpt>
      <trkpt lat="43.64575" lon="3.80201">
        <ele>60.7</ele>
        <time>2019-07-07T05:09:58Z</time>
      </trkpt>
      <trkpt lat="43.64575" lon="3.80197">
        <ele>60.7</ele>
        <time>2019-07-07T05:09:59Z</time>
      </trkpt>
      <trkpt lat="43.64572" lon="3.80192">
        <ele>60.6</ele>
        <time>2019-07-07T05:10:00Z</time>
      </trkpt>
      <trkpt lat="43.6457" lon="3.80189">
        <ele>60.6</ele>
        <time>2019-07-07T05:10:01Z</time>
      </trkpt>
      <trkpt lat="43.64567" lon="3.80185">
        <ele>60.6</ele>
        <time>2019-07-07T05:10:02Z</time>
      </trkpt>
      <trkpt lat="43.64564" lon="3.80182">
        <ele>60.6</ele>
        <time>2019-07-07T05:10:03Z</time>
      </trkpt>
      <trkpt lat="43.6456" lon="3.80181">
        <ele>60.5</ele>
        <time>2019-07-07T05:10:04Z</time>
      </trkpt>
      <trkpt lat="43.64557" lon="3.80178">
        <ele>60.5</ele>
        <time>2019-07-07T05:10:05Z</time>
      </trkpt>
      <trkpt lat="43.64553" lon="3.80175">
        <ele>60.5</ele>
        <time>2019-07-07T05:10:06Z</time>
      </trkpt>
      <trkpt lat="43.6455" lon="3.80173">
        <ele>60.5</ele>
        <time>2019-07-07T05:10:07Z</time>
      </trkpt>
      <trkpt lat="43.64547" lon="3.80171">
        <ele>60.4</ele>
        <time>2019-07-07T05:10:08Z</time>
      </trkpt>
      <trkpt lat="43.64544" lon="3.80168">
        <ele>60.2</ele>
        <time>2019-07-07T05:10:09Z</time>
      </trkpt>
      <trkpt lat="43.64541" lon="3.80165">
        <ele>60.1</ele>
        <time>2019-07-07T05:10:10Z</time>
      </trkpt>
      <trkpt lat="43.64538" lon="3.80162">
        <ele>60</ele>
        <time>2019-07-07T05:10:11Z</time>
      </trkpt>
      <trkpt lat="43.64536" lon="3.80158">
        <ele>59.8</ele>
        <time>2019-07-07T05:10:12Z</time>
      </trkpt>
      <trkpt lat="43.64532" lon="3.80156">
        <ele>59.7</ele>
        <time>2019-07-07T05:10:13Z</time>
      </trkpt>
      <trkpt lat="43.64529" lon="3.80154">
        <ele>59.6</ele>
        <time>2019-07-07T05:10:14Z</time>
      </trkpt>
      <trkpt lat="43.64526" lon="3.80153">
        <ele>59.4</ele>
        <time>2019-07-07T05:10:15Z</time>
      </trkpt>
      <trkpt lat="43.64522" lon="3.80146">
        <ele>59.2</ele>
        <time>2019-07-07T05:10:17Z</time>
      </trkpt>
      <trkpt lat="43.64519" lon="3.80143">
        <ele>59.1</ele>
        <time>2019-07-07T05:10:18Z</time>
      </trkpt>
      <trkpt lat="43.64521" lon="3.80133">
        <ele>59</ele>
        <time>2019-07-07T05:10:19Z</time>
      </trkpt>
      <trkpt lat="43.6452" lon="3.80129">
        <ele>59.1</ele>
        <time>2019-07-07T05:10:20Z</time>
      </trkpt>
      <trkpt lat="43.6452" lon="3.80124">
        <ele>59.1</ele>
        <time>2019-07-07T05:10:21Z</time>
      </trkpt>
      <trkpt lat="43.6452" lon="3.80118">
        <ele>59.2</ele>
        <time>2019-07-07T05:10:22Z</time>
      </trkpt>
      <trkpt lat="43.6452" lon="3.80113">
        <ele>59.3</ele>
        <time>2019-07-07T05:10:23Z</time>
      </trkpt>
      <trkpt lat="43.64522" lon="3.80105">
        <ele>59.4</ele>
        <time>2019-07-07T05:10:24Z</time>
      </trkpt>
      <trkpt lat="43.64524" lon="3.801">
        <ele>59.6</ele>
        <time>2019-07-07T05:10:25Z</time>
      </trkpt>
      <trkpt lat="43.64526" lon="3.80097">
        <ele>59.8</ele>
        <time>2019-07-07T05:10:26Z</time>
      </trkpt>
      <trkpt lat="43.64527" lon="3.80092">
        <ele>60</ele>
        <time>2019-07-07T05:10:27Z</time>
      </trkpt>
      <trkpt lat="43.64528" lon="3.80087">
        <ele>60.2</ele>
        <time>2019-07-07T05:10:28Z</time>
      </trkpt>
      <trkpt lat="43.6453" lon="3.80083">
        <ele>60.4</ele>
        <time>2019-07-07T05:10:29Z</time>
      </trkpt>
      <trkpt lat="43.64532" lon="3.80076">
        <ele>60.6</ele>
        <time>2019-07-07T05:10:31Z</time>
      </trkpt>
      <trkpt lat="43.64533" lon="3.80073">
        <ele>60.8</ele>
        <time>2019-07-07T05:10:32Z</time>
      </trkpt>
      <trkpt lat="43.64534" lon="3.80069">
        <ele>61</ele>
        <time>2019-07-07T05:10:33Z</time>
      </trkpt>
      <trkpt lat="43.64536" lon="3.80065">
        <ele>61.1</ele>
        <time>2019-07-07T05:10:34Z</time>
      </trkpt>
      <trkpt lat="43.64538" lon="3.80061">
        <ele>61.1</ele>
        <time>2019-07-07T05:10:35Z</time>
      </trkpt>
      <trkpt lat="43.64541" lon="3.80059">
        <ele>61.2</ele>
        <time>2019-07-07T05:10:36Z</time>
      </trkpt>
      <trkpt lat="43.64542" lon="3.80053">
        <ele>61.3</ele>
        <time>2019-07-07T05:10:37Z</time>
      </trkpt>
      <trkpt lat="43.64545" lon="3.8005">
        <ele>61.4</ele>
        <time>2019-07-07T05:10:38Z</time>
      </trkpt>
      <trkpt lat="43.64547" lon="3.80045">
        <ele>61.5</ele>
        <time>2019-07-07T05:10:39Z</time>
      </trkpt>
      <trkpt lat="43.64548" lon="3.80039">
        <ele>61.6</ele>
        <time>2019-07-07T05:10:40Z</time>
      </trkpt>
      <trkpt lat="43.6455" lon="3.80035">
        <ele>61.7</ele>
        <time>2019-07-07T05:10:41Z</time>
      </trkpt>
      <trkpt lat="43.64553" lon="3.8003">
        <ele>61.8</ele>
        <time>2019-07-07T05:10:42Z</time>
      </trkpt>
      <trkpt lat="43.64554" lon="3.80026">
        <ele>61.9</ele>
        <time>2019-07-07T05:10:43Z</time>
      </trkpt>
      <trkpt lat="43.64556" lon="3.80022">
        <ele>62</ele>
        <time>2019-07-07T05:10:44Z</time>
      </trkpt>
      <trkpt lat="43.64559" lon="3.80018">
        <ele>62</ele>
        <time>2019-07-07T05:10:45Z</time>
      </trkpt>
      <trkpt lat="43.64561" lon="3.80015">
        <ele>62.1</ele>
        <time>2019-07-07T05:10:46Z</time>
      </trkpt>
      <trkpt lat="43.64562" lon="3.80011">
        <ele>62.2</ele>
        <time>2019-07-07T05:10:47Z</time>
      </trkpt>
      <trkpt lat="43.64563" lon="3.80006">
        <ele>62.2</ele>
        <time>2019-07-07T05:10:48Z</time>
      </trkpt>
      <trkpt lat="43.64564" lon="3.80002">
        <ele>62.2</ele>
        <time>2019-07-07T05:10:49Z</time>
      </trkpt>
      <trkpt lat="43.6456" lon="3.79998">
        <ele>61.9</ele>
        <time>2019-07-07T05:10:50Z</time>
      </trkpt>
      <trkpt lat="43.64557" lon="3.79993">
        <ele>61.6</ele>
        <time>2019-07-07T05:10:51Z</time>
      </trkpt>
      <trkpt lat="43.64554" lon="3.79989">
        <ele>61.4</ele>
        <time>2019-07-07T05:10:52Z</time>
      </trkpt>
      <trkpt lat="43.64551" lon="3.79986">
        <ele>61.1</ele>
        <time>2019-07-07T05:10:53Z</time>
      </trkpt>
      <trkpt lat="43.64546" lon="3.79983">
        <ele>60.8</ele>
        <time>2019-07-07T05:10:54Z</time>
      </trkpt>
      <trkpt lat="43.64541" lon="3.7998">
        <ele>60.5</ele>
        <time>2019-07-07T05:10:55Z</time>
      </trkpt>
      <trkpt lat="43.64537" lon="3.79978">
        <ele>60.2</ele>
        <time>2019-07-07T05:10:56Z</time>
      </trkpt>
      <trkpt lat="43.64533" lon="3.79974">
        <ele>59.9</ele>
        <time>2019-07-07T05:10:57Z</time>
      </trkpt>
      <trkpt lat="43.64529" lon="3.7997">
        <ele>59.6</ele>
        <time>2019-07-07T05:10:58Z</time>
      </trkpt>
      <trkpt lat="43.64525" lon="3.79965">
        <ele>59.3</ele>
        <time>2019-07-07T05:10:59Z</time>
      </trkpt>
      <trkpt lat="43.64521" lon="3.79961">
        <ele>59.2</ele>
        <time>2019-07-07T05:11:00Z</time>
      </trkpt>
      <trkpt lat="43.64518" lon="3.79958">
        <ele>59.2</ele>
        <time>2019-07-07T05:11:01Z</time>
      </trkpt>
      <trkpt lat="43.64513" lon="3.79953">
        <ele>59.1</ele>
        <time>2019-07-07T05:11:02Z</time>
      </trkpt>
      <trkpt lat="43.64509" lon="3.79949">
        <ele>59</ele>
        <time>2019-07-07T05:11:03Z</time>
      </trkpt>
      <trkpt lat="43.64506" lon="3.79945">
        <ele>58.9</ele>
        <time>2019-07-07T05:11:04Z</time>
      </trkpt>
      <trkpt lat="43.64501" lon="3.79944">
        <ele>58.7</ele>
        <time>2019-07-07T05:11:05Z</time>
      </trkpt>
      <trkpt lat="43.64498" lon="3.79939">
        <ele>58.5</ele>
        <time>2019-07-07T05:11:06Z</time>
      </trkpt>
      <trkpt lat="43.64492" lon="3.79934">
        <ele>58.4</ele>
        <time>2019-07-07T05:11:07Z</time>
      </trkpt>
      <trkpt lat="43.64488" lon="3.7993">
        <ele>58.2</ele>
        <time>2019-07-07T05:11:08Z</time>
      </trkpt>
      <trkpt lat="43.64484" lon="3.79927">
        <ele>58.2</ele>
        <time>2019-07-07T05:11:09Z</time>
      </trkpt>
      <trkpt lat="43.6448" lon="3.79922">
        <ele>58.1</ele>
        <time>2019-07-07T05:11:10Z</time>
      </trkpt>
      <trkpt lat="43.64475" lon="3.79921">
        <ele>58</ele>
        <time>2019-07-07T05:11:11Z</time>
      </trkpt>
      <trkpt lat="43.64472" lon="3.79919">
        <ele>57.9</ele>
        <time>2019-07-07T05:11:12Z</time>
      </trkpt>
      <trkpt lat="43.6447" lon="3.79912">
        <ele>57.8</ele>
        <time>2019-07-07T05:11:13Z</time>
      </trkpt>
      <trkpt lat="43.64466" lon="3.7991">
        <ele>57.6</ele>
        <time>2019-07-07T05:11:14Z</time>
      </trkpt>
      <trkpt lat="43.64463" lon="3.79903">
        <ele>57.5</ele>
        <time>2019-07-07T05:11:15Z</time>
      </trkpt>
      <trkpt lat="43.6446" lon="3.79899">
        <ele>57.3</ele>
        <time>2019-07-07T05:11:16Z</time>
      </trkpt>
      <trkpt lat="43.64458" lon="3.79897">
        <ele>57.2</ele>
        <time>2019-07-07T05:11:17Z</time>
      </trkpt>
      <trkpt lat="43.64456" lon="3.7989">
        <ele>57.1</ele>
        <time>2019-07-07T05:11:18Z</time>
      </trkpt>
      <trkpt lat="43.64453" lon="3.79885">
        <ele>57</ele>
        <time>2019-07-07T05:11:19Z</time>
      </trkpt>
      <trkpt lat="43.64449" lon="3.79881">
        <ele>56.9</ele>
        <time>2019-07-07T05:11:20Z</time>
      </trkpt>
      <trkpt lat="43.64447" lon="3.79877">
        <ele>56.9</ele>
        <time>2019-07-07T05:11:21Z</time>
      </trkpt>
      <trkpt lat="43.64444" lon="3.7987">
        <ele>56.7</ele>
        <time>2019-07-07T05:11:22Z</time>
      </trkpt>
      <trkpt lat="43.64441" lon="3.79868">
        <ele>56.6</ele>
        <time>2019-07-07T05:11:23Z</time>
      </trkpt>
      <trkpt lat="43.64438" lon="3.79863">
        <ele>56.4</ele>
        <time>2019-07-07T05:11:24Z</time>
      </trkpt>
      <trkpt lat="43.64435" lon="3.7986">
        <ele>56.3</ele>
        <time>2019-07-07T05:11:25Z</time>
      </trkpt>
      <trkpt lat="43.64435" lon="3.79853">
        <ele>56</ele>
        <time>2019-07-07T05:11:26Z</time>
      </trkpt>
      <trkpt lat="43.64437" lon="3.79846">
        <ele>55.9</ele>
        <time>2019-07-07T05:11:27Z</time>
      </trkpt>
      <trkpt lat="43.64438" lon="3.79841">
        <ele>55.8</ele>
        <time>2019-07-07T05:11:28Z</time>
      </trkpt>
      <trkpt lat="43.6444" lon="3.79837">
        <ele>55.7</ele>
        <time>2019-07-07T05:11:29Z</time>
      </trkpt>
      <trkpt lat="43.64444" lon="3.79837">
        <ele>55.9</ele>
        <time>2019-07-07T05:11:30Z</time>
      </trkpt>
      <trkpt lat="43.64447" lon="3.79833">
        <ele>55.9</ele>
        <time>2019-07-07T05:11:31Z</time>
      </trkpt>
      <trkpt lat="43.6445" lon="3.79817">
        <ele>55.6</ele>
        <time>2019-07-07T05:11:32Z</time>
      </trkpt>
      <trkpt lat="43.64452" lon="3.79809">
        <ele>55.5</ele>
        <time>2019-07-07T05:11:33Z</time>
      </trkpt>
      <trkpt lat="43.64453" lon="3.79805">
        <ele>55.5</ele>
        <time>2019-07-07T05:11:34Z</time>
      </trkpt>
      <trkpt lat="43.64454" lon="3.79799">
        <ele>55.3</ele>
        <time>2019-07-07T05:11:35Z</time>
      </trkpt>
      <trkpt lat="43.64455" lon="3.7979">
        <ele>55.2</ele>
        <time>2019-07-07T05:11:36Z</time>
      </trkpt>
      <trkpt lat="43.64456" lon="3.79783">
        <ele>55.1</ele>
        <time>2019-07-07T05:11:37Z</time>
      </trkpt>
      <trkpt lat="43.64457" lon="3.79779">
        <ele>55</ele>
        <time>2019-07-07T05:11:38Z</time>
      </trkpt>
      <trkpt lat="43.64459" lon="3.79775">
        <ele>55.1</ele>
        <time>2019-07-07T05:11:39Z</time>
      </trkpt>
      <trkpt lat="43.64462" lon="3.79771">
        <ele>55.1</ele>
        <time>2019-07-07T05:11:40Z</time>
      </trkpt>
      <trkpt lat="43.64465" lon="3.79767">
        <ele>55.2</ele>
        <time>2019-07-07T05:11:41Z</time>
      </trkpt>
      <trkpt lat="43.6447" lon="3.7976">
        <ele>55.3</ele>
        <time>2019-07-07T05:11:42Z</time>
      </trkpt>
      <trkpt lat="43.64472" lon="3.79756">
        <ele>55.4</ele>
        <time>2019-07-07T05:11:43Z</time>
      </trkpt>
      <trkpt lat="43.64474" lon="3.79751">
        <ele>55.4</ele>
        <time>2019-07-07T05:11:44Z</time>
      </trkpt>
      <trkpt lat="43.6448" lon="3.79746">
        <ele>55.4</ele>
        <time>2019-07-07T05:11:45Z</time>
      </trkpt>
      <trkpt lat="43.64483" lon="3.79743">
        <ele>55.4</ele>
        <time>2019-07-07T05:11:46Z</time>
      </trkpt>
      <trkpt lat="43.64486" lon="3.79739">
        <ele>55.4</ele>
        <time>2019-07-07T05:11:47Z</time>
      </trkpt>
      <trkpt lat="43.6449" lon="3.79731">
        <ele>55.4</ele>
        <time>2019-07-07T05:11:48Z</time>
      </trkpt>
      <trkpt lat="43.64493" lon="3.79727">
        <ele>55.4</ele>
        <time>2019-07-07T05:11:49Z</time>
      </trkpt>
      <trkpt lat="43.64498" lon="3.79718">
        <ele>55.4</ele>
        <time>2019-07-07T05:11:51Z</time>
      </trkpt>
      <trkpt lat="43.64501" lon="3.79711">
        <ele>55.4</ele>
        <time>2019-07-07T05:11:52Z</time>
      </trkpt>
      <trkpt lat="43.64505" lon="3.79701">
        <ele>55.5</ele>
        <time>2019-07-07T05:11:53Z</time>
      </trkpt>
      <trkpt lat="43.6451" lon="3.79697">
        <ele>55.5</ele>
        <time>2019-07-07T05:11:54Z</time>
      </trkpt>
      <trkpt lat="43.64513" lon="3.79691">
        <ele>55.5</ele>
        <time>2019-07-07T05:11:55Z</time>
      </trkpt>
      <trkpt lat="43.64516" lon="3.79686">
        <ele>55.5</ele>
        <time>2019-07-07T05:11:56Z</time>
      </trkpt>
      <trkpt lat="43.64519" lon="3.79678">
        <ele>55.5</ele>
        <time>2019-07-07T05:11:57Z</time>
      </trkpt>
      <trkpt lat="43.64523" lon="3.79673">
        <ele>55.5</ele>
        <time>2019-07-07T05:11:58Z</time>
      </trkpt>
      <trkpt lat="43.64527" lon="3.79668">
        <ele>55.5</ele>
        <time>2019-07-07T05:11:59Z</time>
      </trkpt>
      <trkpt lat="43.64529" lon="3.79662">
        <ele>55.5</ele>
        <time>2019-07-07T05:12:00Z</time>
      </trkpt>
      <trkpt lat="43.64533" lon="3.79658">
        <ele>55.5</ele>
        <time>2019-07-07T05:12:01Z</time>
      </trkpt>
      <trkpt lat="43.64533" lon="3.79654">
        <ele>55.5</ele>
        <time>2019-07-07T05:12:02Z</time>
      </trkpt>
      <trkpt lat="43.64534" lon="3.79649">
        <ele>55.5</ele>
        <time>2019-07-07T05:12:03Z</time>
      </trkpt>
      <trkpt lat="43.64535" lon="3.79645">
        <ele>55.5</ele>
        <time>2019-07-07T05:12:04Z</time>
      </trkpt>
      <trkpt lat="43.64539" lon="3.79637">
        <ele>55.5</ele>
        <time>2019-07-07T05:12:05Z</time>
      </trkpt>
      <trkpt lat="43.64542" lon="3.79632">
        <ele>55.6</ele>
        <time>2019-07-07T05:12:06Z</time>
      </trkpt>
      <trkpt lat="43.64544" lon="3.79624">
        <ele>55.6</ele>
        <time>2019-07-07T05:12:07Z</time>
      </trkpt>
      <trkpt lat="43.64545" lon="3.79618">
        <ele>55.6</ele>
        <time>2019-07-07T05:12:08Z</time>
      </trkpt>
      <trkpt lat="43.64545" lon="3.79612">
        <ele>55.6</ele>
        <time>2019-07-07T05:12:09Z</time>
      </trkpt>
      <trkpt lat="43.64549" lon="3.79606">
        <ele>55.6</ele>
        <time>2019-07-07T05:12:10Z</time>
      </trkpt>
      <trkpt lat="43.6455" lon="3.79602">
        <ele>55.6</ele>
        <time>2019-07-07T05:12:11Z</time>
      </trkpt>
      <trkpt lat="43.64553" lon="3.79596">
        <ele>55.6</ele>
        <time>2019-07-07T05:12:12Z</time>
      </trkpt>
      <trkpt lat="43.64556" lon="3.79594">
        <ele>55.6</ele>
        <time>2019-07-07T05:12:13Z</time>
      </trkpt>
      <trkpt lat="43.64555" lon="3.7959">
        <ele>55.6</ele>
        <time>2019-07-07T05:12:14Z</time>
      </trkpt>
      <trkpt lat="43.64558" lon="3.79589">
        <ele>55.6</ele>
        <time>2019-07-07T05:12:16Z</time>
      </trkpt>
      <trkpt lat="43.64557" lon="3.79585">
        <ele>55.6</ele>
        <time>2019-07-07T05:12:17Z</time>
      </trkpt>
      <trkpt lat="43.64557" lon="3.7958">
        <ele>55.6</ele>
        <time>2019-07-07T05:12:18Z</time>
      </trkpt>
      <trkpt lat="43.64557" lon="3.79575">
        <ele>55.7</ele>
        <time>2019-07-07T05:12:19Z</time>
      </trkpt>
      <trkpt lat="43.6456" lon="3.79569">
        <ele>55.7</ele>
        <time>2019-07-07T05:12:20Z</time>
      </trkpt>
      <trkpt lat="43.64562" lon="3.79563">
        <ele>56</ele>
        <time>2019-07-07T05:12:21Z</time>
      </trkpt>
      <trkpt lat="43.64564" lon="3.79556">
        <ele>56.3</ele>
        <time>2019-07-07T05:12:22Z</time>
      </trkpt>
      <trkpt lat="43.64566" lon="3.79548">
        <ele>56.7</ele>
        <time>2019-07-07T05:12:23Z</time>
      </trkpt>
      <trkpt lat="43.64568" lon="3.79542">
        <ele>57</ele>
        <time>2019-07-07T05:12:24Z</time>
      </trkpt>
      <trkpt lat="43.6457" lon="3.79536">
        <ele>57.4</ele>
        <time>2019-07-07T05:12:25Z</time>
      </trkpt>
      <trkpt lat="43.64573" lon="3.7953">
        <ele>57.8</ele>
        <time>2019-07-07T05:12:26Z</time>
      </trkpt>
      <trkpt lat="43.64575" lon="3.79525">
        <ele>58.1</ele>
        <time>2019-07-07T05:12:27Z</time>
      </trkpt>
      <trkpt lat="43.64578" lon="3.79518">
        <ele>58.6</ele>
        <time>2019-07-07T05:12:28Z</time>
      </trkpt>
      <trkpt lat="43.6458" lon="3.79514">
        <ele>58.8</ele>
        <time>2019-07-07T05:12:29Z</time>
      </trkpt>
      <trkpt lat="43.64581" lon="3.79507">
        <ele>59.1</ele>
        <time>2019-07-07T05:12:30Z</time>
      </trkpt>
      <trkpt lat="43.64583" lon="3.79502">
        <ele>59.3</ele>
        <time>2019-07-07T05:12:31Z</time>
      </trkpt>
      <trkpt lat="43.64588" lon="3.79487">
        <ele>59.6</ele>
        <time>2019-07-07T05:12:34Z</time>
      </trkpt>
      <trkpt lat="43.6459" lon="3.79482">
        <ele>59.7</ele>
        <time>2019-07-07T05:12:35Z</time>
      </trkpt>
      <trkpt lat="43.64594" lon="3.79476">
        <ele>59.7</ele>
        <time>2019-07-07T05:12:37Z</time>
      </trkpt>
      <trkpt lat="43.64596" lon="3.79473">
        <ele>59.7</ele>
        <time>2019-07-07T05:12:38Z</time>
      </trkpt>
      <trkpt lat="43.64595" lon="3.79478">
        <ele>59.6</ele>
        <time>2019-07-07T05:12:42Z</time>
      </trkpt>
      <trkpt lat="43.64592" lon="3.79477">
        <ele>59.6</ele>
        <time>2019-07-07T05:12:44Z</time>
      </trkpt>
      <trkpt lat="43.64591" lon="3.79473">
        <ele>60.4</ele>
        <time>2019-07-07T05:12:45Z</time>
      </trkpt>
      <trkpt lat="43.64589" lon="3.7947">
        <ele>60.5</ele>
        <time>2019-07-07T05:12:47Z</time>
      </trkpt>
      <trkpt lat="43.64594" lon="3.79461">
        <ele>60.9</ele>
        <time>2019-07-07T05:12:49Z</time>
      </trkpt>
      <trkpt lat="43.64597" lon="3.79456">
        <ele>61.1</ele>
        <time>2019-07-07T05:12:50Z</time>
      </trkpt>
      <trkpt lat="43.64597" lon="3.79449">
        <ele>62.3</ele>
        <time>2019-07-07T05:12:51Z</time>
      </trkpt>
      <trkpt lat="43.64599" lon="3.79439">
        <ele>62.4</ele>
        <time>2019-07-07T05:12:53Z</time>
      </trkpt>
      <trkpt lat="43.646" lon="3.79434">
        <ele>62.4</ele>
        <time>2019-07-07T05:12:54Z</time>
      </trkpt>
      <trkpt lat="43.64603" lon="3.79428">
        <ele>62.4</ele>
        <time>2019-07-07T05:12:55Z</time>
      </trkpt>
      <trkpt lat="43.64605" lon="3.79423">
        <ele>62.5</ele>
        <time>2019-07-07T05:12:56Z</time>
      </trkpt>
      <trkpt lat="43.64607" lon="3.79416">
        <ele>62.5</ele>
        <time>2019-07-07T05:12:57Z</time>
      </trkpt>
      <trkpt lat="43.64609" lon="3.79408">
        <ele>62.6</ele>
        <time>2019-07-07T05:12:59Z</time>
      </trkpt>
      <trkpt lat="43.64612" lon="3.79406">
        <ele>62.7</ele>
        <time>2019-07-07T05:13:00Z</time>
      </trkpt>
      <trkpt lat="43.64616" lon="3.79401">
        <ele>62.7</ele>
        <time>2019-07-07T05:13:02Z</time>
      </trkpt>
      <trkpt lat="43.6462" lon="3.79399">
        <ele>62.8</ele>
        <time>2019-07-07T05:13:03Z</time>
      </trkpt>
      <trkpt lat="43.64621" lon="3.79394">
        <ele>62.9</ele>
        <time>2019-07-07T05:13:04Z</time>
      </trkpt>
      <trkpt lat="43.64623" lon="3.79388">
        <ele>63</ele>
        <time>2019-07-07T05:13:06Z</time>
      </trkpt>
      <trkpt lat="43.64627" lon="3.7938">
        <ele>63.1</ele>
        <time>2019-07-07T05:13:08Z</time>
      </trkpt>
      <trkpt lat="43.64631" lon="3.79377">
        <ele>63.2</ele>
        <time>2019-07-07T05:13:09Z</time>
      </trkpt>
      <trkpt lat="43.64633" lon="3.79371">
        <ele>63.3</ele>
        <time>2019-07-07T05:13:10Z</time>
      </trkpt>
      <trkpt lat="43.64635" lon="3.79367">
        <ele>63.4</ele>
        <time>2019-07-07T05:13:11Z</time>
      </trkpt>
      <trkpt lat="43.64634" lon="3.79362">
        <ele>63.5</ele>
        <time>2019-07-07T05:13:14Z</time>
      </trkpt>
      <trkpt lat="43.64634" lon="3.79358">
        <ele>63.6</ele>
        <time>2019-07-07T05:13:16Z</time>
      </trkpt>
      <trkpt lat="43.64636" lon="3.79354">
        <ele>63.7</ele>
        <time>2019-07-07T05:13:17Z</time>
      </trkpt>
      <trkpt lat="43.64638" lon="3.7935">
        <ele>63.8</ele>
        <time>2019-07-07T05:13:18Z</time>
      </trkpt>
      <trkpt lat="43.6464" lon="3.79343">
        <ele>64.1</ele>
        <time>2019-07-07T05:13:19Z</time>
      </trkpt>
      <trkpt lat="43.64642" lon="3.79336">
        <ele>64.3</ele>
        <time>2019-07-07T05:13:20Z</time>
      </trkpt>
      <trkpt lat="43.64644" lon="3.79329">
        <ele>64.5</ele>
        <time>2019-07-07T05:13:23Z</time>
      </trkpt>
      <trkpt lat="43.64645" lon="3.79324">
        <ele>64.6</ele>
        <time>2019-07-07T05:13:24Z</time>
      </trkpt>
      <trkpt lat="43.64647" lon="3.79318">
        <ele>64.7</ele>
        <time>2019-07-07T05:13:25Z</time>
      </trkpt>
      <trkpt lat="43.64648" lon="3.79312">
        <ele>64.9</ele>
        <time>2019-07-07T05:13:26Z</time>
      </trkpt>
      <trkpt lat="43.64651" lon="3.79303">
        <ele>65.1</ele>
        <time>2019-07-07T05:13:28Z</time>
      </trkpt>
      <trkpt lat="43.64654" lon="3.79299">
        <ele>65.2</ele>
        <time>2019-07-07T05:13:30Z</time>
      </trkpt>
      <trkpt lat="43.64656" lon="3.79295">
        <ele>65.3</ele>
        <time>2019-07-07T05:13:31Z</time>
      </trkpt>
      <trkpt lat="43.64658" lon="3.7929">
        <ele>65.4</ele>
        <time>2019-07-07T05:13:32Z</time>
      </trkpt>
      <trkpt lat="43.64659" lon="3.79287">
        <ele>65.6</ele>
        <time>2019-07-07T05:13:33Z</time>
      </trkpt>
      <trkpt lat="43.64661" lon="3.79279">
        <ele>65.9</ele>
        <time>2019-07-07T05:13:35Z</time>
      </trkpt>
      <trkpt lat="43.64668" lon="3.79279">
        <ele>66.2</ele>
        <time>2019-07-07T05:13:36Z</time>
      </trkpt>
      <trkpt lat="43.64674" lon="3.79277">
        <ele>66.6</ele>
        <time>2019-07-07T05:13:37Z</time>
      </trkpt>
      <trkpt lat="43.6468" lon="3.79271">
        <ele>67.6</ele>
        <time>2019-07-07T05:13:38Z</time>
      </trkpt>
      <trkpt lat="43.64683" lon="3.79269">
        <ele>68</ele>
        <time>2019-07-07T05:13:39Z</time>
      </trkpt>
      <trkpt lat="43.64686" lon="3.79266">
        <ele>68.4</ele>
        <time>2019-07-07T05:13:40Z</time>
      </trkpt>
      <trkpt lat="43.64688" lon="3.79262">
        <ele>68.9</ele>
        <time>2019-07-07T05:13:41Z</time>
      </trkpt>
      <trkpt lat="43.64693" lon="3.79259">
        <ele>69.5</ele>
        <time>2019-07-07T05:13:43Z</time>
      </trkpt>
      <trkpt lat="43.64697" lon="3.79254">
        <ele>70.2</ele>
        <time>2019-07-07T05:13:44Z</time>
      </trkpt>
      <trkpt lat="43.64697" lon="3.79244">
        <ele>70.9</ele>
        <time>2019-07-07T05:13:46Z</time>
      </trkpt>
      <trkpt lat="43.64701" lon="3.79244">
        <ele>71.2</ele>
        <time>2019-07-07T05:13:49Z</time>
      </trkpt>
      <trkpt lat="43.64703" lon="3.79241">
        <ele>71.5</ele>
        <time>2019-07-07T05:13:51Z</time>
      </trkpt>
      <trkpt lat="43.64708" lon="3.79236">
        <ele>71.8</ele>
        <time>2019-07-07T05:13:53Z</time>
      </trkpt>
      <trkpt lat="43.6471" lon="3.79234">
        <ele>72</ele>
        <time>2019-07-07T05:13:54Z</time>
      </trkpt>
      <trkpt lat="43.64712" lon="3.79226">
        <ele>72.2</ele>
        <time>2019-07-07T05:13:55Z</time>
      </trkpt>
      <trkpt lat="43.64714" lon="3.79221">
        <ele>72.2</ele>
        <time>2019-07-07T05:13:56Z</time>
      </trkpt>
      <trkpt lat="43.64717" lon="3.79213">
        <ele>72.2</ele>
        <time>2019-07-07T05:13:57Z</time>
      </trkpt>
      <trkpt lat="43.64722" lon="3.79206">
        <ele>72.2</ele>
        <time>2019-07-07T05:13:58Z</time>
      </trkpt>
      <trkpt lat="43.64724" lon="3.79198">
        <ele>72.2</ele>
        <time>2019-07-07T05:13:59Z</time>
      </trkpt>
      <trkpt lat="43.64727" lon="3.79192">
        <ele>72.2</ele>
        <time>2019-07-07T05:14:00Z</time>
      </trkpt>
      <trkpt lat="43.6473" lon="3.79189">
        <ele>72.2</ele>
        <time>2019-07-07T05:14:01Z</time>
      </trkpt>
      <trkpt lat="43.64733" lon="3.79188">
        <ele>72.1</ele>
        <time>2019-07-07T05:14:02Z</time>
      </trkpt>
      <trkpt lat="43.64737" lon="3.79187">
        <ele>72</ele>
        <time>2019-07-07T05:14:04Z</time>
      </trkpt>
      <trkpt lat="43.6474" lon="3.79183">
        <ele>72</ele>
        <time>2019-07-07T05:14:05Z</time>
      </trkpt>
      <trkpt lat="43.64742" lon="3.79179">
        <ele>71.9</ele>
        <time>2019-07-07T05:14:06Z</time>
      </trkpt>
      <trkpt lat="43.64744" lon="3.79174">
        <ele>71.9</ele>
        <time>2019-07-07T05:14:07Z</time>
      </trkpt>
      <trkpt lat="43.64747" lon="3.79173">
        <ele>71.8</ele>
        <time>2019-07-07T05:14:08Z</time>
      </trkpt>
      <trkpt lat="43.64749" lon="3.7917">
        <ele>71.8</ele>
        <time>2019-07-07T05:14:09Z</time>
      </trkpt>
      <trkpt lat="43.64754" lon="3.79167">
        <ele>71.8</ele>
        <time>2019-07-07T05:14:11Z</time>
      </trkpt>
      <trkpt lat="43.64759" lon="3.79164">
        <ele>71.8</ele>
        <time>2019-07-07T05:14:12Z</time>
      </trkpt>
      <trkpt lat="43.64763" lon="3.79162">
        <ele>71.8</ele>
        <time>2019-07-07T05:14:13Z</time>
      </trkpt>
      <trkpt lat="43.64767" lon="3.79157">
        <ele>71.6</ele>
        <time>2019-07-07T05:14:14Z</time>
      </trkpt>
      <trkpt lat="43.64769" lon="3.79155">
        <ele>71.4</ele>
        <time>2019-07-07T05:14:15Z</time>
      </trkpt>
      <trkpt lat="43.64771" lon="3.79152">
        <ele>71.2</ele>
        <time>2019-07-07T05:14:16Z</time>
      </trkpt>
      <trkpt lat="43.64775" lon="3.79149">
        <ele>71</ele>
        <time>2019-07-07T05:14:17Z</time>
      </trkpt>
      <trkpt lat="43.64779" lon="3.79144">
        <ele>70.8</ele>
        <time>2019-07-07T05:14:18Z</time>
      </trkpt>
      <trkpt lat="43.64786" lon="3.79142">
        <ele>70.5</ele>
        <time>2019-07-07T05:14:19Z</time>
      </trkpt>
      <trkpt lat="43.64789" lon="3.7914">
        <ele>70.3</ele>
        <time>2019-07-07T05:14:20Z</time>
      </trkpt>
      <trkpt lat="43.64793" lon="3.79138">
        <ele>70.2</ele>
        <time>2019-07-07T05:14:21Z</time>
      </trkpt>
      <trkpt lat="43.64795" lon="3.79133">
        <ele>70</ele>
        <time>2019-07-07T05:14:22Z</time>
      </trkpt>
      <trkpt lat="43.64799" lon="3.7913">
        <ele>70</ele>
        <time>2019-07-07T05:14:23Z</time>
      </trkpt>
      <trkpt lat="43.64802" lon="3.79128">
        <ele>69.9</ele>
        <time>2019-07-07T05:14:24Z</time>
      </trkpt>
      <trkpt lat="43.64805" lon="3.79122">
        <ele>69.8</ele>
        <time>2019-07-07T05:14:25Z</time>
      </trkpt>
      <trkpt lat="43.64808" lon="3.79118">
        <ele>69.8</ele>
        <time>2019-07-07T05:14:26Z</time>
      </trkpt>
      <trkpt lat="43.64812" lon="3.79116">
        <ele>69.8</ele>
        <time>2019-07-07T05:14:27Z</time>
      </trkpt>
      <trkpt lat="43.64814" lon="3.79113">
        <ele>69.8</ele>
        <time>2019-07-07T05:14:28Z</time>
      </trkpt>
      <trkpt lat="43.64817" lon="3.79111">
        <ele>69.8</ele>
        <time>2019-07-07T05:14:29Z</time>
      </trkpt>
      <trkpt lat="43.64819" lon="3.79105">
        <ele>69.8</ele>
        <time>2019-07-07T05:14:30Z</time>
      </trkpt>
      <trkpt lat="43.64822" lon="3.79101">
        <ele>69.8</ele>
        <time>2019-07-07T05:14:31Z</time>
      </trkpt>
      <trkpt lat="43.64825" lon="3.79097">
        <ele>69.8</ele>
        <time>2019-07-07T05:14:32Z</time>
      </trkpt>
      <trkpt lat="43.64827" lon="3.79093">
        <ele>69.9</ele>
        <time>2019-07-07T05:14:33Z</time>
      </trkpt>
      <trkpt lat="43.64829" lon="3.79089">
        <ele>69.8</ele>
        <time>2019-07-07T05:14:34Z</time>
      </trkpt>
      <trkpt lat="43.64831" lon="3.79087">
        <ele>69.8</ele>
        <time>2019-07-07T05:14:35Z</time>
      </trkpt>
      <trkpt lat="43.64835" lon="3.7908">
        <ele>69.7</ele>
        <time>2019-07-07T05:14:36Z</time>
      </trkpt>
      <trkpt lat="43.64839" lon="3.79077">
        <ele>69.7</ele>
        <time>2019-07-07T05:14:37Z</time>
      </trkpt>
      <trkpt lat="43.64843" lon="3.79075">
        <ele>69.6</ele>
        <time>2019-07-07T05:14:38Z</time>
      </trkpt>
      <trkpt lat="43.64846" lon="3.79072">
        <ele>69.6</ele>
        <time>2019-07-07T05:14:39Z</time>
      </trkpt>
      <trkpt lat="43.6485" lon="3.79069">
        <ele>69.5</ele>
        <time>2019-07-07T05:14:40Z</time>
      </trkpt>
      <trkpt lat="43.64856" lon="3.79068">
        <ele>69.4</ele>
        <time>2019-07-07T05:14:42Z</time>
      </trkpt>
      <trkpt lat="43.64859" lon="3.79066">
        <ele>69.3</ele>
        <time>2019-07-07T05:14:43Z</time>
      </trkpt>
      <trkpt lat="43.64862" lon="3.79066">
        <ele>69.2</ele>
        <time>2019-07-07T05:14:44Z</time>
      </trkpt>
      <trkpt lat="43.64867" lon="3.79057">
        <ele>69.1</ele>
        <time>2019-07-07T05:14:45Z</time>
      </trkpt>
      <trkpt lat="43.64871" lon="3.79054">
        <ele>69</ele>
        <time>2019-07-07T05:14:46Z</time>
      </trkpt>
      <trkpt lat="43.64874" lon="3.79052">
        <ele>69</ele>
        <time>2019-07-07T05:14:47Z</time>
      </trkpt>
      <trkpt lat="43.64878" lon="3.79049">
        <ele>68.9</ele>
        <time>2019-07-07T05:14:48Z</time>
      </trkpt>
      <trkpt lat="43.64881" lon="3.79044">
        <ele>68.9</ele>
        <time>2019-07-07T05:14:49Z</time>
      </trkpt>
      <trkpt lat="43.64885" lon="3.79041">
        <ele>68.9</ele>
        <time>2019-07-07T05:14:50Z</time>
      </trkpt>
      <trkpt lat="43.64888" lon="3.79037">
        <ele>68.9</ele>
        <time>2019-07-07T05:14:51Z</time>
      </trkpt>
      <trkpt lat="43.64891" lon="3.79032">
        <ele>68.9</ele>
        <time>2019-07-07T05:14:52Z</time>
      </trkpt>
      <trkpt lat="43.64895" lon="3.79029">
        <ele>68.9</ele>
        <time>2019-07-07T05:14:53Z</time>
      </trkpt>
      <trkpt lat="43.64898" lon="3.79029">
        <ele>68.9</ele>
        <time>2019-07-07T05:14:54Z</time>
      </trkpt>
      <trkpt lat="43.64902" lon="3.79027">
        <ele>68.9</ele>
        <time>2019-07-07T05:14:55Z</time>
      </trkpt>
      <trkpt lat="43.64906" lon="3.79023">
        <ele>68.8</ele>
        <time>2019-07-07T05:14:56Z</time>
      </trkpt>
      <trkpt lat="43.6491" lon="3.79017">
        <ele>68.8</ele>
        <time>2019-07-07T05:14:57Z</time>
      </trkpt>
      <trkpt lat="43.64914" lon="3.79015">
        <ele>68.8</ele>
        <time>2019-07-07T05:14:58Z</time>
      </trkpt>
      <trkpt lat="43.64918" lon="3.79019">
        <ele>68.7</ele>
        <time>2019-07-07T05:14:59Z</time>
      </trkpt>
      <trkpt lat="43.64921" lon="3.79015">
        <ele>68.7</ele>
        <time>2019-07-07T05:15:00Z</time>
      </trkpt>
      <trkpt lat="43.64926" lon="3.79014">
        <ele>68.7</ele>
        <time>2019-07-07T05:15:01Z</time>
      </trkpt>
      <trkpt lat="43.64932" lon="3.79012">
        <ele>68.6</ele>
        <time>2019-07-07T05:15:03Z</time>
      </trkpt>
      <trkpt lat="43.64936" lon="3.7901">
        <ele>68.6</ele>
        <time>2019-07-07T05:15:04Z</time>
      </trkpt>
      <trkpt lat="43.6494" lon="3.79006">
        <ele>68.5</ele>
        <time>2019-07-07T05:15:06Z</time>
      </trkpt>
      <trkpt lat="43.64943" lon="3.79">
        <ele>68.5</ele>
        <time>2019-07-07T05:15:07Z</time>
      </trkpt>
      <trkpt lat="43.64945" lon="3.78995">
        <ele>68.5</ele>
        <time>2019-07-07T05:15:08Z</time>
      </trkpt>
      <trkpt lat="43.6495" lon="3.78995">
        <ele>68.4</ele>
        <time>2019-07-07T05:15:09Z</time>
      </trkpt>
      <trkpt lat="43.64954" lon="3.78992">
        <ele>68.4</ele>
        <time>2019-07-07T05:15:10Z</time>
      </trkpt>
      <trkpt lat="43.64958" lon="3.78992">
        <ele>68.4</ele>
        <time>2019-07-07T05:15:11Z</time>
      </trkpt>
      <trkpt lat="43.64963" lon="3.78989">
        <ele>68.4</ele>
        <time>2019-07-07T05:15:12Z</time>
      </trkpt>
      <trkpt lat="43.64968" lon="3.78987">
        <ele>68.4</ele>
        <time>2019-07-07T05:15:14Z</time>
      </trkpt>
      <trkpt lat="43.64972" lon="3.78983">
        <ele>68.4</ele>
        <time>2019-07-07T05:15:15Z</time>
      </trkpt>
      <trkpt lat="43.64975" lon="3.7898">
        <ele>68.4</ele>
        <time>2019-07-07T05:15:16Z</time>
      </trkpt>
      <trkpt lat="43.6498" lon="3.78979">
        <ele>68.4</ele>
        <time>2019-07-07T05:15:17Z</time>
      </trkpt>
      <trkpt lat="43.64983" lon="3.78979">
        <ele>68.4</ele>
        <time>2019-07-07T05:15:18Z</time>
      </trkpt>
      <trkpt lat="43.64986" lon="3.78976">
        <ele>68.4</ele>
        <time>2019-07-07T05:15:19Z</time>
      </trkpt>
      <trkpt lat="43.6499" lon="3.78976">
        <ele>68.4</ele>
        <time>2019-07-07T05:15:20Z</time>
      </trkpt>
      <trkpt lat="43.64995" lon="3.78973">
        <ele>68.4</ele>
        <time>2019-07-07T05:15:22Z</time>
      </trkpt>
      <trkpt lat="43.64999" lon="3.78971">
        <ele>68.4</ele>
        <time>2019-07-07T05:15:23Z</time>
      </trkpt>
      <trkpt lat="43.65001" lon="3.78969">
        <ele>68.4</ele>
        <time>2019-07-07T05:15:24Z</time>
      </trkpt>
      <trkpt lat="43.65008" lon="3.78964">
        <ele>68.5</ele>
        <time>2019-07-07T05:15:26Z</time>
      </trkpt>
      <trkpt lat="43.65011" lon="3.78958">
        <ele>68.6</ele>
        <time>2019-07-07T05:15:27Z</time>
      </trkpt>
      <trkpt lat="43.65013" lon="3.78955">
        <ele>68.6</ele>
        <time>2019-07-07T05:15:28Z</time>
      </trkpt>
      <trkpt lat="43.65016" lon="3.78951">
        <ele>68.5</ele>
        <time>2019-07-07T05:15:29Z</time>
      </trkpt>
      <trkpt lat="43.65019" lon="3.78949">
        <ele>68.5</ele>
        <time>2019-07-07T05:15:30Z</time>
      </trkpt>
      <trkpt lat="43.65023" lon="3.78945">
        <ele>68.4</ele>
        <time>2019-07-07T05:15:31Z</time>
      </trkpt>
      <trkpt lat="43.65025" lon="3.78943">
        <ele>68.3</ele>
        <time>2019-07-07T05:15:32Z</time>
      </trkpt>
      <trkpt lat="43.65028" lon="3.78941">
        <ele>68.3</ele>
        <time>2019-07-07T05:15:33Z</time>
      </trkpt>
      <trkpt lat="43.65031" lon="3.78941">
        <ele>68.2</ele>
        <time>2019-07-07T05:15:34Z</time>
      </trkpt>
      <trkpt lat="43.65034" lon="3.78939">
        <ele>68.2</ele>
        <time>2019-07-07T05:15:35Z</time>
      </trkpt>
      <trkpt lat="43.65037" lon="3.78936">
        <ele>68.2</ele>
        <time>2019-07-07T05:15:36Z</time>
      </trkpt>
      <trkpt lat="43.65041" lon="3.78935">
        <ele>68.1</ele>
        <time>2019-07-07T05:15:37Z</time>
      </trkpt>
      <trkpt lat="43.65046" lon="3.78932">
        <ele>68.1</ele>
        <time>2019-07-07T05:15:38Z</time>
      </trkpt>
      <trkpt lat="43.6505" lon="3.78933">
        <ele>68.1</ele>
        <time>2019-07-07T05:15:39Z</time>
      </trkpt>
      <trkpt lat="43.65051" lon="3.78928">
        <ele>68.1</ele>
        <time>2019-07-07T05:15:41Z</time>
      </trkpt>
      <trkpt lat="43.65051" lon="3.78923">
        <ele>68.1</ele>
        <time>2019-07-07T05:15:42Z</time>
      </trkpt>
      <trkpt lat="43.65052" lon="3.78918">
        <ele>68.1</ele>
        <time>2019-07-07T05:15:43Z</time>
      </trkpt>
      <trkpt lat="43.65052" lon="3.78913">
        <ele>68.1</ele>
        <time>2019-07-07T05:15:44Z</time>
      </trkpt>
      <trkpt lat="43.65052" lon="3.78908">
        <ele>68.1</ele>
        <time>2019-07-07T05:15:45Z</time>
      </trkpt>
      <trkpt lat="43.65054" lon="3.78905">
        <ele>68.1</ele>
        <time>2019-07-07T05:15:46Z</time>
      </trkpt>
      <trkpt lat="43.65058" lon="3.78899">
        <ele>68.2</ele>
        <time>2019-07-07T05:15:48Z</time>
      </trkpt>
      <trkpt lat="43.65059" lon="3.78893">
        <ele>68.3</ele>
        <time>2019-07-07T05:15:50Z</time>
      </trkpt>
      <trkpt lat="43.65063" lon="3.78887">
        <ele>68.4</ele>
        <time>2019-07-07T05:15:53Z</time>
      </trkpt>
      <trkpt lat="43.65066" lon="3.78882">
        <ele>68.5</ele>
        <time>2019-07-07T05:15:55Z</time>
      </trkpt>
      <trkpt lat="43.65068" lon="3.78877">
        <ele>68.7</ele>
        <time>2019-07-07T05:15:56Z</time>
      </trkpt>
      <trkpt lat="43.6507" lon="3.78873">
        <ele>68.9</ele>
        <time>2019-07-07T05:15:57Z</time>
      </trkpt>
      <trkpt lat="43.65071" lon="3.78869">
        <ele>69</ele>
        <time>2019-07-07T05:15:58Z</time>
      </trkpt>
      <trkpt lat="43.65074" lon="3.78865">
        <ele>69.2</ele>
        <time>2019-07-07T05:15:59Z</time>
      </trkpt>
      <trkpt lat="43.65076" lon="3.78861">
        <ele>69.4</ele>
        <time>2019-07-07T05:16:00Z</time>
      </trkpt>
      <trkpt lat="43.65077" lon="3.78857">
        <ele>69.4</ele>
        <time>2019-07-07T05:16:01Z</time>
      </trkpt>
      <trkpt lat="43.65081" lon="3.78853">
        <ele>69.5</ele>
        <time>2019-07-07T05:16:02Z</time>
      </trkpt>
      <trkpt lat="43.65083" lon="3.78849">
        <ele>69.6</ele>
        <time>2019-07-07T05:16:03Z</time>
      </trkpt>
      <trkpt lat="43.65085" lon="3.78846">
        <ele>69.7</ele>
        <time>2019-07-07T05:16:04Z</time>
      </trkpt>
      <trkpt lat="43.65088" lon="3.78843">
        <ele>69.7</ele>
        <time>2019-07-07T05:16:05Z</time>
      </trkpt>
      <trkpt lat="43.65091" lon="3.7884">
        <ele>69.8</ele>
        <time>2019-07-07T05:16:06Z</time>
      </trkpt>
      <trkpt lat="43.65094" lon="3.78838">
        <ele>69.9</ele>
        <time>2019-07-07T05:16:07Z</time>
      </trkpt>
      <trkpt lat="43.65096" lon="3.78835">
        <ele>69.9</ele>
        <time>2019-07-07T05:16:08Z</time>
      </trkpt>
      <trkpt lat="43.65099" lon="3.78834">
        <ele>70</ele>
        <time>2019-07-07T05:16:09Z</time>
      </trkpt>
      <trkpt lat="43.65102" lon="3.78832">
        <ele>70.1</ele>
        <time>2019-07-07T05:16:10Z</time>
      </trkpt>
      <trkpt lat="43.65105" lon="3.7883">
        <ele>70.1</ele>
        <time>2019-07-07T05:16:11Z</time>
      </trkpt>
      <trkpt lat="43.65108" lon="3.78827">
        <ele>70.2</ele>
        <time>2019-07-07T05:16:12Z</time>
      </trkpt>
      <trkpt lat="43.65111" lon="3.78825">
        <ele>70.2</ele>
        <time>2019-07-07T05:16:13Z</time>
      </trkpt>
      <trkpt lat="43.65114" lon="3.78821">
        <ele>70.2</ele>
        <time>2019-07-07T05:16:14Z</time>
      </trkpt>
      <trkpt lat="43.65117" lon="3.78819">
        <ele>70.3</ele>
        <time>2019-07-07T05:16:15Z</time>
      </trkpt>
      <trkpt lat="43.6512" lon="3.78817">
        <ele>70.3</ele>
        <time>2019-07-07T05:16:16Z</time>
      </trkpt>
      <trkpt lat="43.65123" lon="3.78814">
        <ele>70.3</ele>
        <time>2019-07-07T05:16:17Z</time>
      </trkpt>
      <trkpt lat="43.65126" lon="3.78811">
        <ele>70.4</ele>
        <time>2019-07-07T05:16:18Z</time>
      </trkpt>
      <trkpt lat="43.65129" lon="3.78808">
        <ele>70.4</ele>
        <time>2019-07-07T05:16:19Z</time>
      </trkpt>
      <trkpt lat="43.65132" lon="3.78808">
        <ele>70.4</ele>
        <time>2019-07-07T05:16:20Z</time>
      </trkpt>
      <trkpt lat="43.65135" lon="3.78806">
        <ele>70.5</ele>
        <time>2019-07-07T05:16:21Z</time>
      </trkpt>
      <trkpt lat="43.65138" lon="3.78804">
        <ele>70.5</ele>
        <time>2019-07-07T05:16:22Z</time>
      </trkpt>
      <trkpt lat="43.6514" lon="3.78802">
        <ele>70.5</ele>
        <time>2019-07-07T05:16:23Z</time>
      </trkpt>
      <trkpt lat="43.65143" lon="3.78799">
        <ele>70.5</ele>
        <time>2019-07-07T05:16:24Z</time>
      </trkpt>
      <trkpt lat="43.65146" lon="3.78796">
        <ele>70.2</ele>
        <time>2019-07-07T05:16:26Z</time>
      </trkpt>
      <trkpt lat="43.65149" lon="3.78794">
        <ele>70</ele>
        <time>2019-07-07T05:16:27Z</time>
      </trkpt>
      <trkpt lat="43.65152" lon="3.78793">
        <ele>69.8</ele>
        <time>2019-07-07T05:16:28Z</time>
      </trkpt>
      <trkpt lat="43.65154" lon="3.7879">
        <ele>69.5</ele>
        <time>2019-07-07T05:16:29Z</time>
      </trkpt>
      <trkpt lat="43.65157" lon="3.78789">
        <ele>69.4</ele>
        <time>2019-07-07T05:16:30Z</time>
      </trkpt>
      <trkpt lat="43.65161" lon="3.78787">
        <ele>69.2</ele>
        <time>2019-07-07T05:16:31Z</time>
      </trkpt>
      <trkpt lat="43.65164" lon="3.78785">
        <ele>69.1</ele>
        <time>2019-07-07T05:16:32Z</time>
      </trkpt>
      <trkpt lat="43.65167" lon="3.78784">
        <ele>68.9</ele>
        <time>2019-07-07T05:16:33Z</time>
      </trkpt>
      <trkpt lat="43.6517" lon="3.78781">
        <ele>68.8</ele>
        <time>2019-07-07T05:16:34Z</time>
      </trkpt>
      <trkpt lat="43.65174" lon="3.78783">
        <ele>68.8</ele>
        <time>2019-07-07T05:16:35Z</time>
      </trkpt>
      <trkpt lat="43.65176" lon="3.78781">
        <ele>68.7</ele>
        <time>2019-07-07T05:16:36Z</time>
      </trkpt>
      <trkpt lat="43.65183" lon="3.78779">
        <ele>68.6</ele>
        <time>2019-07-07T05:16:38Z</time>
      </trkpt>
      <trkpt lat="43.65186" lon="3.78778">
        <ele>68.6</ele>
        <time>2019-07-07T05:16:39Z</time>
      </trkpt>
      <trkpt lat="43.65189" lon="3.78775">
        <ele>68.5</ele>
        <time>2019-07-07T05:16:40Z</time>
      </trkpt>
      <trkpt lat="43.65193" lon="3.78773">
        <ele>68.5</ele>
        <time>2019-07-07T05:16:41Z</time>
      </trkpt>
      <trkpt lat="43.65198" lon="3.7877">
        <ele>68.4</ele>
        <time>2019-07-07T05:16:43Z</time>
      </trkpt>
      <trkpt lat="43.65202" lon="3.78767">
        <ele>68.3</ele>
        <time>2019-07-07T05:16:44Z</time>
      </trkpt>
      <trkpt lat="43.65204" lon="3.78764">
        <ele>68.3</ele>
        <time>2019-07-07T05:16:45Z</time>
      </trkpt>
      <trkpt lat="43.65208" lon="3.78758">
        <ele>68.2</ele>
        <time>2019-07-07T05:16:47Z</time>
      </trkpt>
      <trkpt lat="43.65211" lon="3.78753">
        <ele>68.2</ele>
        <time>2019-07-07T05:16:48Z</time>
      </trkpt>
      <trkpt lat="43.65212" lon="3.78749">
        <ele>68.1</ele>
        <time>2019-07-07T05:16:49Z</time>
      </trkpt>
      <trkpt lat="43.65214" lon="3.78743">
        <ele>68</ele>
        <time>2019-07-07T05:16:50Z</time>
      </trkpt>
      <trkpt lat="43.65215" lon="3.7874">
        <ele>68</ele>
        <time>2019-07-07T05:16:51Z</time>
      </trkpt>
      <trkpt lat="43.65219" lon="3.78736">
        <ele>67.9</ele>
        <time>2019-07-07T05:16:52Z</time>
      </trkpt>
      <trkpt lat="43.65221" lon="3.78734">
        <ele>67.9</ele>
        <time>2019-07-07T05:16:53Z</time>
      </trkpt>
      <trkpt lat="43.65224" lon="3.78731">
        <ele>67.8</ele>
        <time>2019-07-07T05:16:54Z</time>
      </trkpt>
      <trkpt lat="43.65227" lon="3.78731">
        <ele>67.8</ele>
        <time>2019-07-07T05:16:55Z</time>
      </trkpt>
      <trkpt lat="43.65232" lon="3.78729">
        <ele>67.7</ele>
        <time>2019-07-07T05:16:57Z</time>
      </trkpt>
      <trkpt lat="43.65234" lon="3.78726">
        <ele>67.7</ele>
        <time>2019-07-07T05:16:58Z</time>
      </trkpt>
      <trkpt lat="43.65237" lon="3.78724">
        <ele>67.6</ele>
        <time>2019-07-07T05:16:59Z</time>
      </trkpt>
      <trkpt lat="43.65242" lon="3.78723">
        <ele>67.6</ele>
        <time>2019-07-07T05:17:01Z</time>
      </trkpt>
      <trkpt lat="43.65245" lon="3.78722">
        <ele>67.5</ele>
        <time>2019-07-07T05:17:02Z</time>
      </trkpt>
      <trkpt lat="43.65248" lon="3.78719">
        <ele>67.4</ele>
        <time>2019-07-07T05:17:04Z</time>
      </trkpt>
      <trkpt lat="43.65251" lon="3.78718">
        <ele>67.4</ele>
        <time>2019-07-07T05:17:05Z</time>
      </trkpt>
      <trkpt lat="43.65254" lon="3.78716">
        <ele>67.3</ele>
        <time>2019-07-07T05:17:06Z</time>
      </trkpt>
      <trkpt lat="43.65259" lon="3.78713">
        <ele>67.2</ele>
        <time>2019-07-07T05:17:07Z</time>
      </trkpt>
      <trkpt lat="43.65263" lon="3.78713">
        <ele>67.1</ele>
        <time>2019-07-07T05:17:08Z</time>
      </trkpt>
      <trkpt lat="43.65269" lon="3.78709">
        <ele>67</ele>
        <time>2019-07-07T05:17:10Z</time>
      </trkpt>
      <trkpt lat="43.65272" lon="3.78707">
        <ele>66.9</ele>
        <time>2019-07-07T05:17:11Z</time>
      </trkpt>
      <trkpt lat="43.65275" lon="3.78706">
        <ele>66.7</ele>
        <time>2019-07-07T05:17:12Z</time>
      </trkpt>
      <trkpt lat="43.6528" lon="3.78702">
        <ele>66.5</ele>
        <time>2019-07-07T05:17:14Z</time>
      </trkpt>
      <trkpt lat="43.65285" lon="3.78699">
        <ele>66.3</ele>
        <time>2019-07-07T05:17:16Z</time>
      </trkpt>
      <trkpt lat="43.65287" lon="3.78696">
        <ele>66.2</ele>
        <time>2019-07-07T05:17:17Z</time>
      </trkpt>
      <trkpt lat="43.6529" lon="3.78693">
        <ele>66</ele>
        <time>2019-07-07T05:17:18Z</time>
      </trkpt>
      <trkpt lat="43.65293" lon="3.7869">
        <ele>65.8</ele>
        <time>2019-07-07T05:17:19Z</time>
      </trkpt>
      <trkpt lat="43.65296" lon="3.7869">
        <ele>65.6</ele>
        <time>2019-07-07T05:17:20Z</time>
      </trkpt>
      <trkpt lat="43.65299" lon="3.78688">
        <ele>65.4</ele>
        <time>2019-07-07T05:17:21Z</time>
      </trkpt>
      <trkpt lat="43.65303" lon="3.78686">
        <ele>65.2</ele>
        <time>2019-07-07T05:17:22Z</time>
      </trkpt>
      <trkpt lat="43.65307" lon="3.78685">
        <ele>65</ele>
        <time>2019-07-07T05:17:23Z</time>
      </trkpt>
      <trkpt lat="43.65309" lon="3.78681">
        <ele>64.8</ele>
        <time>2019-07-07T05:17:24Z</time>
      </trkpt>
      <trkpt lat="43.65313" lon="3.78681">
        <ele>64.6</ele>
        <time>2019-07-07T05:17:25Z</time>
      </trkpt>
      <trkpt lat="43.65316" lon="3.78679">
        <ele>64.4</ele>
        <time>2019-07-07T05:17:26Z</time>
      </trkpt>
      <trkpt lat="43.65321" lon="3.78675">
        <ele>64.2</ele>
        <time>2019-07-07T05:17:28Z</time>
      </trkpt>
      <trkpt lat="43.65325" lon="3.78672">
        <ele>64</ele>
        <time>2019-07-07T05:17:29Z</time>
      </trkpt>
      <trkpt lat="43.65328" lon="3.78669">
        <ele>64</ele>
        <time>2019-07-07T05:17:30Z</time>
      </trkpt>
      <trkpt lat="43.65333" lon="3.78665">
        <ele>63.9</ele>
        <time>2019-07-07T05:17:31Z</time>
      </trkpt>
      <trkpt lat="43.65336" lon="3.78662">
        <ele>63.8</ele>
        <time>2019-07-07T05:17:32Z</time>
      </trkpt>
      <trkpt lat="43.6534" lon="3.78659">
        <ele>63.8</ele>
        <time>2019-07-07T05:17:33Z</time>
      </trkpt>
      <trkpt lat="43.65345" lon="3.78656">
        <ele>63.8</ele>
        <time>2019-07-07T05:17:34Z</time>
      </trkpt>
      <trkpt lat="43.65349" lon="3.78653">
        <ele>63.9</ele>
        <time>2019-07-07T05:17:35Z</time>
      </trkpt>
      <trkpt lat="43.65354" lon="3.7865">
        <ele>63.9</ele>
        <time>2019-07-07T05:17:36Z</time>
      </trkpt>
      <trkpt lat="43.6536" lon="3.78647">
        <ele>64</ele>
        <time>2019-07-07T05:17:37Z</time>
      </trkpt>
      <trkpt lat="43.65366" lon="3.78644">
        <ele>64.2</ele>
        <time>2019-07-07T05:17:38Z</time>
      </trkpt>
      <trkpt lat="43.65374" lon="3.78643">
        <ele>64.4</ele>
        <time>2019-07-07T05:17:39Z</time>
      </trkpt>
      <trkpt lat="43.6538" lon="3.78637">
        <ele>64.6</ele>
        <time>2019-07-07T05:17:40Z</time>
      </trkpt>
      <trkpt lat="43.65387" lon="3.78633">
        <ele>64.8</ele>
        <time>2019-07-07T05:17:41Z</time>
      </trkpt>
      <trkpt lat="43.65395" lon="3.78631">
        <ele>65</ele>
        <time>2019-07-07T05:17:42Z</time>
      </trkpt>
      <trkpt lat="43.654" lon="3.78626">
        <ele>65.2</ele>
        <time>2019-07-07T05:17:43Z</time>
      </trkpt>
      <trkpt lat="43.65406" lon="3.78623">
        <ele>65.3</ele>
        <time>2019-07-07T05:17:44Z</time>
      </trkpt>
      <trkpt lat="43.65411" lon="3.78618">
        <ele>65.4</ele>
        <time>2019-07-07T05:17:45Z</time>
      </trkpt>
      <trkpt lat="43.65417" lon="3.78615">
        <ele>65.5</ele>
        <time>2019-07-07T05:17:46Z</time>
      </trkpt>
      <trkpt lat="43.65421" lon="3.7861">
        <ele>66.1</ele>
        <time>2019-07-07T05:17:47Z</time>
      </trkpt>
      <trkpt lat="43.65426" lon="3.78605">
        <ele>66.4</ele>
        <time>2019-07-07T05:17:48Z</time>
      </trkpt>
      <trkpt lat="43.65431" lon="3.78601">
        <ele>66.7</ele>
        <time>2019-07-07T05:17:49Z</time>
      </trkpt>
      <trkpt lat="43.65434" lon="3.78595">
        <ele>67</ele>
        <time>2019-07-07T05:17:50Z</time>
      </trkpt>
      <trkpt lat="43.65436" lon="3.78589">
        <ele>67.2</ele>
        <time>2019-07-07T05:17:51Z</time>
      </trkpt>
      <trkpt lat="43.65436" lon="3.78583">
        <ele>67.4</ele>
        <time>2019-07-07T05:17:52Z</time>
      </trkpt>
      <trkpt lat="43.65436" lon="3.78577">
        <ele>67.6</ele>
        <time>2019-07-07T05:17:53Z</time>
      </trkpt>
      <trkpt lat="43.65436" lon="3.78571">
        <ele>67.7</ele>
        <time>2019-07-07T05:17:54Z</time>
      </trkpt>
      <trkpt lat="43.65435" lon="3.78565">
        <ele>67.8</ele>
        <time>2019-07-07T05:17:55Z</time>
      </trkpt>
      <trkpt lat="43.65434" lon="3.7856">
        <ele>67.8</ele>
        <time>2019-07-07T05:17:56Z</time>
      </trkpt>
      <trkpt lat="43.65434" lon="3.78554">
        <ele>67.9</ele>
        <time>2019-07-07T05:17:57Z</time>
      </trkpt>
      <trkpt lat="43.65432" lon="3.78549">
        <ele>68</ele>
        <time>2019-07-07T05:17:58Z</time>
      </trkpt>
      <trkpt lat="43.65431" lon="3.78542">
        <ele>68</ele>
        <time>2019-07-07T05:17:59Z</time>
      </trkpt>
      <trkpt lat="43.65427" lon="3.78538">
        <ele>68.1</ele>
        <time>2019-07-07T05:18:00Z</time>
      </trkpt>
      <trkpt lat="43.65426" lon="3.78534">
        <ele>68.1</ele>
        <time>2019-07-07T05:18:01Z</time>
      </trkpt>
      <trkpt lat="43.65426" lon="3.78529">
        <ele>68.3</ele>
        <time>2019-07-07T05:18:02Z</time>
      </trkpt>
      <trkpt lat="43.65425" lon="3.78524">
        <ele>68.4</ele>
        <time>2019-07-07T05:18:03Z</time>
      </trkpt>
      <trkpt lat="43.65425" lon="3.78518">
        <ele>68.5</ele>
        <time>2019-07-07T05:18:05Z</time>
      </trkpt>
      <trkpt lat="43.65425" lon="3.78512">
        <ele>68.6</ele>
        <time>2019-07-07T05:18:06Z</time>
      </trkpt>
      <trkpt lat="43.65426" lon="3.78506">
        <ele>68.7</ele>
        <time>2019-07-07T05:18:07Z</time>
      </trkpt>
      <trkpt lat="43.65429" lon="3.78501">
        <ele>68.8</ele>
        <time>2019-07-07T05:18:08Z</time>
      </trkpt>
      <trkpt lat="43.6543" lon="3.78495">
        <ele>68.9</ele>
        <time>2019-07-07T05:18:09Z</time>
      </trkpt>
      <trkpt lat="43.65433" lon="3.7849">
        <ele>69</ele>
        <time>2019-07-07T05:18:10Z</time>
      </trkpt>
      <trkpt lat="43.65435" lon="3.78481">
        <ele>69.2</ele>
        <time>2019-07-07T05:18:11Z</time>
      </trkpt>
      <trkpt lat="43.65438" lon="3.78477">
        <ele>69.3</ele>
        <time>2019-07-07T05:18:12Z</time>
      </trkpt>
      <trkpt lat="43.65439" lon="3.78471">
        <ele>69.4</ele>
        <time>2019-07-07T05:18:13Z</time>
      </trkpt>
      <trkpt lat="43.6544" lon="3.78467">
        <ele>69.5</ele>
        <time>2019-07-07T05:18:14Z</time>
      </trkpt>
      <trkpt lat="43.65441" lon="3.78462">
        <ele>69.6</ele>
        <time>2019-07-07T05:18:15Z</time>
      </trkpt>
      <trkpt lat="43.65443" lon="3.78457">
        <ele>69.8</ele>
        <time>2019-07-07T05:18:16Z</time>
      </trkpt>
      <trkpt lat="43.65445" lon="3.78452">
        <ele>69.9</ele>
        <time>2019-07-07T05:18:17Z</time>
      </trkpt>
      <trkpt lat="43.6545" lon="3.78448">
        <ele>70.1</ele>
        <time>2019-07-07T05:18:18Z</time>
      </trkpt>
      <trkpt lat="43.65451" lon="3.78444">
        <ele>70.2</ele>
        <time>2019-07-07T05:18:19Z</time>
      </trkpt>
      <trkpt lat="43.65453" lon="3.7844">
        <ele>70.3</ele>
        <time>2019-07-07T05:18:20Z</time>
      </trkpt>
      <trkpt lat="43.65455" lon="3.78435">
        <ele>70.4</ele>
        <time>2019-07-07T05:18:21Z</time>
      </trkpt>
      <trkpt lat="43.65458" lon="3.7843">
        <ele>70.6</ele>
        <time>2019-07-07T05:18:22Z</time>
      </trkpt>
      <trkpt lat="43.65461" lon="3.78428">
        <ele>70.7</ele>
        <time>2019-07-07T05:18:23Z</time>
      </trkpt>
      <trkpt lat="43.65463" lon="3.78422">
        <ele>70.9</ele>
        <time>2019-07-07T05:18:24Z</time>
      </trkpt>
      <trkpt lat="43.65466" lon="3.78418">
        <ele>71.2</ele>
        <time>2019-07-07T05:18:25Z</time>
      </trkpt>
      <trkpt lat="43.65468" lon="3.78414">
        <ele>71.3</ele>
        <time>2019-07-07T05:18:26Z</time>
      </trkpt>
      <trkpt lat="43.65472" lon="3.78411">
        <ele>71.6</ele>
        <time>2019-07-07T05:18:27Z</time>
      </trkpt>
      <trkpt lat="43.65476" lon="3.78409">
        <ele>71.7</ele>
        <time>2019-07-07T05:18:28Z</time>
      </trkpt>
      <trkpt lat="43.65479" lon="3.78405">
        <ele>71.9</ele>
        <time>2019-07-07T05:18:29Z</time>
      </trkpt>
      <trkpt lat="43.65482" lon="3.78402">
        <ele>72.1</ele>
        <time>2019-07-07T05:18:30Z</time>
      </trkpt>
      <trkpt lat="43.65483" lon="3.78398">
        <ele>72.4</ele>
        <time>2019-07-07T05:18:31Z</time>
      </trkpt>
      <trkpt lat="43.65485" lon="3.78394">
        <ele>72.6</ele>
        <time>2019-07-07T05:18:32Z</time>
      </trkpt>
      <trkpt lat="43.65488" lon="3.78388">
        <ele>72.9</ele>
        <time>2019-07-07T05:18:34Z</time>
      </trkpt>
      <trkpt lat="43.65489" lon="3.78384">
        <ele>73</ele>
        <time>2019-07-07T05:18:35Z</time>
      </trkpt>
      <trkpt lat="43.65492" lon="3.7838">
        <ele>73.2</ele>
        <time>2019-07-07T05:18:36Z</time>
      </trkpt>
      <trkpt lat="43.65494" lon="3.78377">
        <ele>73.4</ele>
        <time>2019-07-07T05:18:37Z</time>
      </trkpt>
      <trkpt lat="43.65496" lon="3.78373">
        <ele>73.5</ele>
        <time>2019-07-07T05:18:38Z</time>
      </trkpt>
      <trkpt lat="43.65499" lon="3.78369">
        <ele>73.7</ele>
        <time>2019-07-07T05:18:39Z</time>
      </trkpt>
      <trkpt lat="43.65502" lon="3.78363">
        <ele>74</ele>
        <time>2019-07-07T05:18:41Z</time>
      </trkpt>
      <trkpt lat="43.65504" lon="3.7836">
        <ele>74.2</ele>
        <time>2019-07-07T05:18:42Z</time>
      </trkpt>
      <trkpt lat="43.65505" lon="3.78355">
        <ele>74.4</ele>
        <time>2019-07-07T05:18:43Z</time>
      </trkpt>
      <trkpt lat="43.65507" lon="3.78351">
        <ele>74.6</ele>
        <time>2019-07-07T05:18:44Z</time>
      </trkpt>
      <trkpt lat="43.65512" lon="3.7835">
        <ele>74.8</ele>
        <time>2019-07-07T05:18:46Z</time>
      </trkpt>
      <trkpt lat="43.65516" lon="3.78348">
        <ele>75</ele>
        <time>2019-07-07T05:18:48Z</time>
      </trkpt>
      <trkpt lat="43.65519" lon="3.78347">
        <ele>75.1</ele>
        <time>2019-07-07T05:18:49Z</time>
      </trkpt>
      <trkpt lat="43.65522" lon="3.78342">
        <ele>75.4</ele>
        <time>2019-07-07T05:18:51Z</time>
      </trkpt>
      <trkpt lat="43.65524" lon="3.78339">
        <ele>75.6</ele>
        <time>2019-07-07T05:18:53Z</time>
      </trkpt>
      <trkpt lat="43.65525" lon="3.78333">
        <ele>75.8</ele>
        <time>2019-07-07T05:18:55Z</time>
      </trkpt>
      <trkpt lat="43.65527" lon="3.78327">
        <ele>76</ele>
        <time>2019-07-07T05:18:57Z</time>
      </trkpt>
      <trkpt lat="43.65531" lon="3.78324">
        <ele>76.1</ele>
        <time>2019-07-07T05:18:58Z</time>
      </trkpt>
      <trkpt lat="43.65533" lon="3.7832">
        <ele>76.2</ele>
        <time>2019-07-07T05:18:59Z</time>
      </trkpt>
      <trkpt lat="43.65535" lon="3.78317">
        <ele>76.3</ele>
        <time>2019-07-07T05:19:00Z</time>
      </trkpt>
      <trkpt lat="43.65537" lon="3.78314">
        <ele>76.4</ele>
        <time>2019-07-07T05:19:01Z</time>
      </trkpt>
      <trkpt lat="43.65539" lon="3.7831">
        <ele>76.5</ele>
        <time>2019-07-07T05:19:02Z</time>
      </trkpt>
      <trkpt lat="43.65541" lon="3.78306">
        <ele>76.7</ele>
        <time>2019-07-07T05:19:03Z</time>
      </trkpt>
      <trkpt lat="43.65543" lon="3.78301">
        <ele>76.9</ele>
        <time>2019-07-07T05:19:05Z</time>
      </trkpt>
      <trkpt lat="43.65547" lon="3.78292">
        <ele>77.1</ele>
        <time>2019-07-07T05:19:07Z</time>
      </trkpt>
      <trkpt lat="43.65549" lon="3.78289">
        <ele>77.2</ele>
        <time>2019-07-07T05:19:08Z</time>
      </trkpt>
      <trkpt lat="43.65551" lon="3.78284">
        <ele>77.4</ele>
        <time>2019-07-07T05:19:09Z</time>
      </trkpt>
      <trkpt lat="43.65552" lon="3.7828">
        <ele>77.5</ele>
        <time>2019-07-07T05:19:10Z</time>
      </trkpt>
      <trkpt lat="43.65554" lon="3.78275">
        <ele>77.6</ele>
        <time>2019-07-07T05:19:12Z</time>
      </trkpt>
      <trkpt lat="43.65556" lon="3.78271">
        <ele>77.7</ele>
        <time>2019-07-07T05:19:13Z</time>
      </trkpt>
      <trkpt lat="43.65555" lon="3.78267">
        <ele>77.9</ele>
        <time>2019-07-07T05:19:15Z</time>
      </trkpt>
      <trkpt lat="43.65555" lon="3.78263">
        <ele>77.9</ele>
        <time>2019-07-07T05:19:17Z</time>
      </trkpt>
      <trkpt lat="43.65555" lon="3.78259">
        <ele>78</ele>
        <time>2019-07-07T05:19:18Z</time>
      </trkpt>
      <trkpt lat="43.65555" lon="3.78253">
        <ele>78.2</ele>
        <time>2019-07-07T05:19:19Z</time>
      </trkpt>
      <trkpt lat="43.65556" lon="3.78249">
        <ele>78.3</ele>
        <time>2019-07-07T05:19:21Z</time>
      </trkpt>
      <trkpt lat="43.65557" lon="3.78241">
        <ele>78.4</ele>
        <time>2019-07-07T05:19:23Z</time>
      </trkpt>
      <trkpt lat="43.65557" lon="3.78238">
        <ele>78.5</ele>
        <time>2019-07-07T05:19:24Z</time>
      </trkpt>
      <trkpt lat="43.65558" lon="3.78231">
        <ele>78.7</ele>
        <time>2019-07-07T05:19:25Z</time>
      </trkpt>
      <trkpt lat="43.65558" lon="3.78227">
        <ele>78.8</ele>
        <time>2019-07-07T05:19:26Z</time>
      </trkpt>
      <trkpt lat="43.65557" lon="3.78222">
        <ele>78.8</ele>
        <time>2019-07-07T05:19:27Z</time>
      </trkpt>
      <trkpt lat="43.65559" lon="3.78217">
        <ele>78.9</ele>
        <time>2019-07-07T05:19:28Z</time>
      </trkpt>
      <trkpt lat="43.65559" lon="3.78213">
        <ele>78.9</ele>
        <time>2019-07-07T05:19:29Z</time>
      </trkpt>
      <trkpt lat="43.65559" lon="3.78209">
        <ele>79</ele>
        <time>2019-07-07T05:19:30Z</time>
      </trkpt>
      <trkpt lat="43.65557" lon="3.78204">
        <ele>79.1</ele>
        <time>2019-07-07T05:19:32Z</time>
      </trkpt>
      <trkpt lat="43.65557" lon="3.78194">
        <ele>79.2</ele>
        <time>2019-07-07T05:19:33Z</time>
      </trkpt>
      <trkpt lat="43.65556" lon="3.7819">
        <ele>79.3</ele>
        <time>2019-07-07T05:19:34Z</time>
      </trkpt>
      <trkpt lat="43.65552" lon="3.78183">
        <ele>79.4</ele>
        <time>2019-07-07T05:19:36Z</time>
      </trkpt>
      <trkpt lat="43.65549" lon="3.78177">
        <ele>79.5</ele>
        <time>2019-07-07T05:19:38Z</time>
      </trkpt>
      <trkpt lat="43.65546" lon="3.78175">
        <ele>79.6</ele>
        <time>2019-07-07T05:19:39Z</time>
      </trkpt>
      <trkpt lat="43.65543" lon="3.78168">
        <ele>79.7</ele>
        <time>2019-07-07T05:19:41Z</time>
      </trkpt>
      <trkpt lat="43.65541" lon="3.78162">
        <ele>79.8</ele>
        <time>2019-07-07T05:19:42Z</time>
      </trkpt>
      <trkpt lat="43.65539" lon="3.78159">
        <ele>79.9</ele>
        <time>2019-07-07T05:19:43Z</time>
      </trkpt>
      <trkpt lat="43.65538" lon="3.78156">
        <ele>79.9</ele>
        <time>2019-07-07T05:19:45Z</time>
      </trkpt>
      <trkpt lat="43.65536" lon="3.78151">
        <ele>79.9</ele>
        <time>2019-07-07T05:19:47Z</time>
      </trkpt>
      <trkpt lat="43.65538" lon="3.78143">
        <ele>79.8</ele>
        <time>2019-07-07T05:19:48Z</time>
      </trkpt>
      <trkpt lat="43.65539" lon="3.78136">
        <ele>79.8</ele>
        <time>2019-07-07T05:19:49Z</time>
      </trkpt>
      <trkpt lat="43.65539" lon="3.78132">
        <ele>79.8</ele>
        <time>2019-07-07T05:19:50Z</time>
      </trkpt>
      <trkpt lat="43.65538" lon="3.78122">
        <ele>79.6</ele>
        <time>2019-07-07T05:19:51Z</time>
      </trkpt>
      <trkpt lat="43.65538" lon="3.78113">
        <ele>79.4</ele>
        <time>2019-07-07T05:19:52Z</time>
      </trkpt>
      <trkpt lat="43.65537" lon="3.78104">
        <ele>79</ele>
        <time>2019-07-07T05:19:53Z</time>
      </trkpt>
      <trkpt lat="43.65538" lon="3.78095">
        <ele>78.6</ele>
        <time>2019-07-07T05:19:54Z</time>
      </trkpt>
      <trkpt lat="43.65538" lon="3.78088">
        <ele>78.4</ele>
        <time>2019-07-07T05:19:55Z</time>
      </trkpt>
      <trkpt lat="43.65538" lon="3.78074">
        <ele>78</ele>
        <time>2019-07-07T05:19:56Z</time>
      </trkpt>
      <trkpt lat="43.65538" lon="3.78064">
        <ele>77.7</ele>
        <time>2019-07-07T05:19:57Z</time>
      </trkpt>
      <trkpt lat="43.65537" lon="3.78058">
        <ele>77.6</ele>
        <time>2019-07-07T05:19:58Z</time>
      </trkpt>
      <trkpt lat="43.65535" lon="3.7805">
        <ele>77.3</ele>
        <time>2019-07-07T05:19:59Z</time>
      </trkpt>
      <trkpt lat="43.65533" lon="3.78041">
        <ele>77.2</ele>
        <time>2019-07-07T05:20:00Z</time>
      </trkpt>
      <trkpt lat="43.6553" lon="3.78034">
        <ele>77.1</ele>
        <time>2019-07-07T05:20:01Z</time>
      </trkpt>
      <trkpt lat="43.65527" lon="3.78028">
        <ele>77.1</ele>
        <time>2019-07-07T05:20:02Z</time>
      </trkpt>
      <trkpt lat="43.65525" lon="3.78021">
        <ele>77</ele>
        <time>2019-07-07T05:20:03Z</time>
      </trkpt>
      <trkpt lat="43.65522" lon="3.78013">
        <ele>76.8</ele>
        <time>2019-07-07T05:20:04Z</time>
      </trkpt>
      <trkpt lat="43.6552" lon="3.78007">
        <ele>76.6</ele>
        <time>2019-07-07T05:20:05Z</time>
      </trkpt>
      <trkpt lat="43.65519" lon="3.78001">
        <ele>76.5</ele>
        <time>2019-07-07T05:20:06Z</time>
      </trkpt>
      <trkpt lat="43.65515" lon="3.77997">
        <ele>76.3</ele>
        <time>2019-07-07T05:20:07Z</time>
      </trkpt>
      <trkpt lat="43.65509" lon="3.77988">
        <ele>76.1</ele>
        <time>2019-07-07T05:20:09Z</time>
      </trkpt>
      <trkpt lat="43.65509" lon="3.77982">
        <ele>75.9</ele>
        <time>2019-07-07T05:20:10Z</time>
      </trkpt>
      <trkpt lat="43.65507" lon="3.77977">
        <ele>75.9</ele>
        <time>2019-07-07T05:20:11Z</time>
      </trkpt>
      <trkpt lat="43.65499" lon="3.77978">
        <ele>75.7</ele>
        <time>2019-07-07T05:20:12Z</time>
      </trkpt>
      <trkpt lat="43.65494" lon="3.77972">
        <ele>75.7</ele>
        <time>2019-07-07T05:20:13Z</time>
      </trkpt>
      <trkpt lat="43.6549" lon="3.77968">
        <ele>75.7</ele>
        <time>2019-07-07T05:20:14Z</time>
      </trkpt>
      <trkpt lat="43.65487" lon="3.77963">
        <ele>75.7</ele>
        <time>2019-07-07T05:20:15Z</time>
      </trkpt>
      <trkpt lat="43.65484" lon="3.77959">
        <ele>75.8</ele>
        <time>2019-07-07T05:20:16Z</time>
      </trkpt>
      <trkpt lat="43.65483" lon="3.77951">
        <ele>75.9</ele>
        <time>2019-07-07T05:20:17Z</time>
      </trkpt>
      <trkpt lat="43.65483" lon="3.77943">
        <ele>76</ele>
        <time>2019-07-07T05:20:18Z</time>
      </trkpt>
      <trkpt lat="43.65482" lon="3.77936">
        <ele>76.1</ele>
        <time>2019-07-07T05:20:19Z</time>
      </trkpt>
      <trkpt lat="43.65483" lon="3.7793">
        <ele>76.2</ele>
        <time>2019-07-07T05:20:20Z</time>
      </trkpt>
      <trkpt lat="43.65484" lon="3.77924">
        <ele>76.3</ele>
        <time>2019-07-07T05:20:21Z</time>
      </trkpt>
      <trkpt lat="43.65485" lon="3.77919">
        <ele>76.5</ele>
        <time>2019-07-07T05:20:22Z</time>
      </trkpt>
      <trkpt lat="43.65485" lon="3.77913">
        <ele>76.6</ele>
        <time>2019-07-07T05:20:23Z</time>
      </trkpt>
      <trkpt lat="43.65487" lon="3.77906">
        <ele>76.9</ele>
        <time>2019-07-07T05:20:24Z</time>
      </trkpt>
      <trkpt lat="43.65487" lon="3.779">
        <ele>77.2</ele>
        <time>2019-07-07T05:20:26Z</time>
      </trkpt>
      <trkpt lat="43.65487" lon="3.77892">
        <ele>77.4</ele>
        <time>2019-07-07T05:20:28Z</time>
      </trkpt>
      <trkpt lat="43.65488" lon="3.77888">
        <ele>77.5</ele>
        <time>2019-07-07T05:20:29Z</time>
      </trkpt>
      <trkpt lat="43.65488" lon="3.77883">
        <ele>77.6</ele>
        <time>2019-07-07T05:20:30Z</time>
      </trkpt>
      <trkpt lat="43.65489" lon="3.77875">
        <ele>77.9</ele>
        <time>2019-07-07T05:20:33Z</time>
      </trkpt>
      <trkpt lat="43.6549" lon="3.77871">
        <ele>77.9</ele>
        <time>2019-07-07T05:20:34Z</time>
      </trkpt>
      <trkpt lat="43.65491" lon="3.77867">
        <ele>78.1</ele>
        <time>2019-07-07T05:20:35Z</time>
      </trkpt>
      <trkpt lat="43.65491" lon="3.77862">
        <ele>78.2</ele>
        <time>2019-07-07T05:20:36Z</time>
      </trkpt>
      <trkpt lat="43.65493" lon="3.77855">
        <ele>78.3</ele>
        <time>2019-07-07T05:20:37Z</time>
      </trkpt>
      <trkpt lat="43.65495" lon="3.7785">
        <ele>78.4</ele>
        <time>2019-07-07T05:20:38Z</time>
      </trkpt>
      <trkpt lat="43.65496" lon="3.77844">
        <ele>78.6</ele>
        <time>2019-07-07T05:20:40Z</time>
      </trkpt>
      <trkpt lat="43.65497" lon="3.77837">
        <ele>78.7</ele>
        <time>2019-07-07T05:20:41Z</time>
      </trkpt>
      <trkpt lat="43.655" lon="3.77833">
        <ele>78.8</ele>
        <time>2019-07-07T05:20:42Z</time>
      </trkpt>
      <trkpt lat="43.65501" lon="3.77829">
        <ele>78.8</ele>
        <time>2019-07-07T05:20:43Z</time>
      </trkpt>
      <trkpt lat="43.65502" lon="3.77822">
        <ele>78.8</ele>
        <time>2019-07-07T05:20:44Z</time>
      </trkpt>
      <trkpt lat="43.65502" lon="3.77818">
        <ele>78.8</ele>
        <time>2019-07-07T05:20:45Z</time>
      </trkpt>
      <trkpt lat="43.65502" lon="3.77814">
        <ele>78.8</ele>
        <time>2019-07-07T05:20:46Z</time>
      </trkpt>
      <trkpt lat="43.65503" lon="3.77807">
        <ele>78.8</ele>
        <time>2019-07-07T05:20:47Z</time>
      </trkpt>
      <trkpt lat="43.65502" lon="3.77801">
        <ele>78.7</ele>
        <time>2019-07-07T05:20:48Z</time>
      </trkpt>
      <trkpt lat="43.65502" lon="3.77796">
        <ele>78.6</ele>
        <time>2019-07-07T05:20:49Z</time>
      </trkpt>
      <trkpt lat="43.65502" lon="3.77792">
        <ele>78.5</ele>
        <time>2019-07-07T05:20:50Z</time>
      </trkpt>
      <trkpt lat="43.65503" lon="3.77785">
        <ele>78.5</ele>
        <time>2019-07-07T05:20:51Z</time>
      </trkpt>
      <trkpt lat="43.65502" lon="3.7778">
        <ele>78.4</ele>
        <time>2019-07-07T05:20:52Z</time>
      </trkpt>
      <trkpt lat="43.65501" lon="3.77775">
        <ele>78.3</ele>
        <time>2019-07-07T05:20:53Z</time>
      </trkpt>
      <trkpt lat="43.65501" lon="3.77769">
        <ele>78.2</ele>
        <time>2019-07-07T05:20:54Z</time>
      </trkpt>
      <trkpt lat="43.655" lon="3.77761">
        <ele>78.2</ele>
        <time>2019-07-07T05:20:55Z</time>
      </trkpt>
      <trkpt lat="43.655" lon="3.77756">
        <ele>78.1</ele>
        <time>2019-07-07T05:20:56Z</time>
      </trkpt>
      <trkpt lat="43.655" lon="3.77752">
        <ele>78.1</ele>
        <time>2019-07-07T05:20:57Z</time>
      </trkpt>
      <trkpt lat="43.655" lon="3.77747">
        <ele>78.1</ele>
        <time>2019-07-07T05:20:58Z</time>
      </trkpt>
      <trkpt lat="43.65497" lon="3.77738">
        <ele>78</ele>
        <time>2019-07-07T05:21:00Z</time>
      </trkpt>
      <trkpt lat="43.65496" lon="3.77733">
        <ele>78.1</ele>
        <time>2019-07-07T05:21:01Z</time>
      </trkpt>
      <trkpt lat="43.65495" lon="3.77723">
        <ele>78.2</ele>
        <time>2019-07-07T05:21:02Z</time>
      </trkpt>
      <trkpt lat="43.65494" lon="3.77719">
        <ele>78.3</ele>
        <time>2019-07-07T05:21:03Z</time>
      </trkpt>
      <trkpt lat="43.65497" lon="3.7771">
        <ele>78.4</ele>
        <time>2019-07-07T05:21:04Z</time>
      </trkpt>
      <trkpt lat="43.65494" lon="3.77705">
        <ele>78.6</ele>
        <time>2019-07-07T05:21:06Z</time>
      </trkpt>
      <trkpt lat="43.65492" lon="3.77699">
        <ele>78.8</ele>
        <time>2019-07-07T05:21:08Z</time>
      </trkpt>
      <trkpt lat="43.65489" lon="3.77697">
        <ele>78.8</ele>
        <time>2019-07-07T05:21:10Z</time>
      </trkpt>
      <trkpt lat="43.65486" lon="3.77694">
        <ele>79</ele>
        <time>2019-07-07T05:21:12Z</time>
      </trkpt>
      <trkpt lat="43.65488" lon="3.77688">
        <ele>79.3</ele>
        <time>2019-07-07T05:21:13Z</time>
      </trkpt>
      <trkpt lat="43.65488" lon="3.77682">
        <ele>79.5</ele>
        <time>2019-07-07T05:21:15Z</time>
      </trkpt>
      <trkpt lat="43.65488" lon="3.77675">
        <ele>79.7</ele>
        <time>2019-07-07T05:21:17Z</time>
      </trkpt>
      <trkpt lat="43.65489" lon="3.77667">
        <ele>79.9</ele>
        <time>2019-07-07T05:21:19Z</time>
      </trkpt>
      <trkpt lat="43.65491" lon="3.77662">
        <ele>80.1</ele>
        <time>2019-07-07T05:21:20Z</time>
      </trkpt>
      <trkpt lat="43.6549" lon="3.77658">
        <ele>80.2</ele>
        <time>2019-07-07T05:21:21Z</time>
      </trkpt>
      <trkpt lat="43.65492" lon="3.77648">
        <ele>80.6</ele>
        <time>2019-07-07T05:21:23Z</time>
      </trkpt>
      <trkpt lat="43.65493" lon="3.77643">
        <ele>80.8</ele>
        <time>2019-07-07T05:21:25Z</time>
      </trkpt>
      <trkpt lat="43.65492" lon="3.77637">
        <ele>81</ele>
        <time>2019-07-07T05:21:27Z</time>
      </trkpt>
      <trkpt lat="43.65491" lon="3.77631">
        <ele>81.2</ele>
        <time>2019-07-07T05:21:29Z</time>
      </trkpt>
      <trkpt lat="43.65492" lon="3.77627">
        <ele>81.4</ele>
        <time>2019-07-07T05:21:31Z</time>
      </trkpt>
      <trkpt lat="43.65495" lon="3.77624">
        <ele>81.6</ele>
        <time>2019-07-07T05:21:32Z</time>
      </trkpt>
      <trkpt lat="43.65497" lon="3.77617">
        <ele>81.8</ele>
        <time>2019-07-07T05:21:34Z</time>
      </trkpt>
      <trkpt lat="43.65497" lon="3.77611">
        <ele>81.9</ele>
        <time>2019-07-07T05:21:36Z</time>
      </trkpt>
      <trkpt lat="43.65496" lon="3.77604">
        <ele>82.1</ele>
        <time>2019-07-07T05:21:38Z</time>
      </trkpt>
      <trkpt lat="43.65496" lon="3.77599">
        <ele>82.2</ele>
        <time>2019-07-07T05:21:39Z</time>
      </trkpt>
      <trkpt lat="43.655" lon="3.77588">
        <ele>82.4</ele>
        <time>2019-07-07T05:21:41Z</time>
      </trkpt>
      <trkpt lat="43.65503" lon="3.77582">
        <ele>82.5</ele>
        <time>2019-07-07T05:21:43Z</time>
      </trkpt>
      <trkpt lat="43.65501" lon="3.77578">
        <ele>82.7</ele>
        <time>2019-07-07T05:21:45Z</time>
      </trkpt>
      <trkpt lat="43.65502" lon="3.77565">
        <ele>82.9</ele>
        <time>2019-07-07T05:21:47Z</time>
      </trkpt>
      <trkpt lat="43.65502" lon="3.77562">
        <ele>83</ele>
        <time>2019-07-07T05:21:48Z</time>
      </trkpt>
      <trkpt lat="43.65503" lon="3.77555">
        <ele>83.1</ele>
        <time>2019-07-07T05:21:50Z</time>
      </trkpt>
      <trkpt lat="43.65504" lon="3.7755">
        <ele>83.2</ele>
        <time>2019-07-07T05:21:51Z</time>
      </trkpt>
      <trkpt lat="43.65506" lon="3.7754">
        <ele>83.5</ele>
        <time>2019-07-07T05:21:53Z</time>
      </trkpt>
      <trkpt lat="43.65507" lon="3.77532">
        <ele>83.7</ele>
        <time>2019-07-07T05:21:55Z</time>
      </trkpt>
      <trkpt lat="43.65507" lon="3.77526">
        <ele>83.9</ele>
        <time>2019-07-07T05:21:57Z</time>
      </trkpt>
      <trkpt lat="43.65508" lon="3.77518">
        <ele>84.1</ele>
        <time>2019-07-07T05:21:59Z</time>
      </trkpt>
      <trkpt lat="43.65508" lon="3.77514">
        <ele>84.2</ele>
        <time>2019-07-07T05:22:00Z</time>
      </trkpt>
      <trkpt lat="43.6551" lon="3.77508">
        <ele>84.5</ele>
        <time>2019-07-07T05:22:01Z</time>
      </trkpt>
      <trkpt lat="43.65512" lon="3.775">
        <ele>84.5</ele>
        <time>2019-07-07T05:22:03Z</time>
      </trkpt>
      <trkpt lat="43.65513" lon="3.77494">
        <ele>84.5</ele>
        <time>2019-07-07T05:22:05Z</time>
      </trkpt>
      <trkpt lat="43.65515" lon="3.77488">
        <ele>84.5</ele>
        <time>2019-07-07T05:22:06Z</time>
      </trkpt>
      <trkpt lat="43.65517" lon="3.77481">
        <ele>84.5</ele>
        <time>2019-07-07T05:22:07Z</time>
      </trkpt>
      <trkpt lat="43.65518" lon="3.77476">
        <ele>84.5</ele>
        <time>2019-07-07T05:22:08Z</time>
      </trkpt>
      <trkpt lat="43.65519" lon="3.77471">
        <ele>84.5</ele>
        <time>2019-07-07T05:22:09Z</time>
      </trkpt>
      <trkpt lat="43.65522" lon="3.77464">
        <ele>84.5</ele>
        <time>2019-07-07T05:22:10Z</time>
      </trkpt>
      <trkpt lat="43.65523" lon="3.77459">
        <ele>84.5</ele>
        <time>2019-07-07T05:22:11Z</time>
      </trkpt>
      <trkpt lat="43.65524" lon="3.77454">
        <ele>84.5</ele>
        <time>2019-07-07T05:22:12Z</time>
      </trkpt>
      <trkpt lat="43.65525" lon="3.77448">
        <ele>84.6</ele>
        <time>2019-07-07T05:22:13Z</time>
      </trkpt>
      <trkpt lat="43.65527" lon="3.77442">
        <ele>84.6</ele>
        <time>2019-07-07T05:22:14Z</time>
      </trkpt>
      <trkpt lat="43.6553" lon="3.77437">
        <ele>84.7</ele>
        <time>2019-07-07T05:22:15Z</time>
      </trkpt>
      <trkpt lat="43.65532" lon="3.77433">
        <ele>84.7</ele>
        <time>2019-07-07T05:22:16Z</time>
      </trkpt>
      <trkpt lat="43.65534" lon="3.77429">
        <ele>84.8</ele>
        <time>2019-07-07T05:22:17Z</time>
      </trkpt>
      <trkpt lat="43.65537" lon="3.77426">
        <ele>84.8</ele>
        <time>2019-07-07T05:22:18Z</time>
      </trkpt>
      <trkpt lat="43.65539" lon="3.77422">
        <ele>84.9</ele>
        <time>2019-07-07T05:22:19Z</time>
      </trkpt>
      <trkpt lat="43.65541" lon="3.77419">
        <ele>84.9</ele>
        <time>2019-07-07T05:22:20Z</time>
      </trkpt>
      <trkpt lat="43.65543" lon="3.77416">
        <ele>85</ele>
        <time>2019-07-07T05:22:21Z</time>
      </trkpt>
      <trkpt lat="43.65546" lon="3.77412">
        <ele>85.1</ele>
        <time>2019-07-07T05:22:22Z</time>
      </trkpt>
      <trkpt lat="43.65549" lon="3.77408">
        <ele>85.2</ele>
        <time>2019-07-07T05:22:23Z</time>
      </trkpt>
      <trkpt lat="43.65553" lon="3.77402">
        <ele>85.3</ele>
        <time>2019-07-07T05:22:25Z</time>
      </trkpt>
      <trkpt lat="43.65555" lon="3.77398">
        <ele>85.4</ele>
        <time>2019-07-07T05:22:26Z</time>
      </trkpt>
      <trkpt lat="43.65558" lon="3.77394">
        <ele>85.5</ele>
        <time>2019-07-07T05:22:27Z</time>
      </trkpt>
      <trkpt lat="43.6556" lon="3.77391">
        <ele>85.6</ele>
        <time>2019-07-07T05:22:28Z</time>
      </trkpt>
      <trkpt lat="43.65562" lon="3.77387">
        <ele>85.7</ele>
        <time>2019-07-07T05:22:29Z</time>
      </trkpt>
      <trkpt lat="43.65564" lon="3.77383">
        <ele>85.8</ele>
        <time>2019-07-07T05:22:30Z</time>
      </trkpt>
      <trkpt lat="43.65566" lon="3.77379">
        <ele>85.9</ele>
        <time>2019-07-07T05:22:31Z</time>
      </trkpt>
      <trkpt lat="43.65567" lon="3.77375">
        <ele>86</ele>
        <time>2019-07-07T05:22:32Z</time>
      </trkpt>
      <trkpt lat="43.65573" lon="3.77367">
        <ele>86.2</ele>
        <time>2019-07-07T05:22:34Z</time>
      </trkpt>
      <trkpt lat="43.65576" lon="3.77363">
        <ele>86.4</ele>
        <time>2019-07-07T05:22:35Z</time>
      </trkpt>
      <trkpt lat="43.65578" lon="3.77359">
        <ele>86.5</ele>
        <time>2019-07-07T05:22:36Z</time>
      </trkpt>
      <trkpt lat="43.65578" lon="3.77353">
        <ele>86.6</ele>
        <time>2019-07-07T05:22:37Z</time>
      </trkpt>
      <trkpt lat="43.6558" lon="3.7735">
        <ele>86.7</ele>
        <time>2019-07-07T05:22:38Z</time>
      </trkpt>
      <trkpt lat="43.65582" lon="3.77344">
        <ele>86.8</ele>
        <time>2019-07-07T05:22:40Z</time>
      </trkpt>
      <trkpt lat="43.65583" lon="3.77339">
        <ele>86.9</ele>
        <time>2019-07-07T05:22:41Z</time>
      </trkpt>
      <trkpt lat="43.65585" lon="3.77335">
        <ele>87</ele>
        <time>2019-07-07T05:22:42Z</time>
      </trkpt>
      <trkpt lat="43.65585" lon="3.77331">
        <ele>87.1</ele>
        <time>2019-07-07T05:22:43Z</time>
      </trkpt>
      <trkpt lat="43.65586" lon="3.77326">
        <ele>87.2</ele>
        <time>2019-07-07T05:22:44Z</time>
      </trkpt>
      <trkpt lat="43.65586" lon="3.7732">
        <ele>87.3</ele>
        <time>2019-07-07T05:22:45Z</time>
      </trkpt>
      <trkpt lat="43.65585" lon="3.77313">
        <ele>87.5</ele>
        <time>2019-07-07T05:22:47Z</time>
      </trkpt>
      <trkpt lat="43.65583" lon="3.77308">
        <ele>87.6</ele>
        <time>2019-07-07T05:22:49Z</time>
      </trkpt>
      <trkpt lat="43.65583" lon="3.77302">
        <ele>87.7</ele>
        <time>2019-07-07T05:22:50Z</time>
      </trkpt>
      <trkpt lat="43.65581" lon="3.77297">
        <ele>87.8</ele>
        <time>2019-07-07T05:22:51Z</time>
      </trkpt>
      <trkpt lat="43.65581" lon="3.77292">
        <ele>87.8</ele>
        <time>2019-07-07T05:22:52Z</time>
      </trkpt>
      <trkpt lat="43.65581" lon="3.77285">
        <ele>87.9</ele>
        <time>2019-07-07T05:22:54Z</time>
      </trkpt>
      <trkpt lat="43.65582" lon="3.7728">
        <ele>88</ele>
        <time>2019-07-07T05:22:55Z</time>
      </trkpt>
      <trkpt lat="43.65582" lon="3.77275">
        <ele>88</ele>
        <time>2019-07-07T05:22:56Z</time>
      </trkpt>
      <trkpt lat="43.65583" lon="3.77271">
        <ele>88.1</ele>
        <time>2019-07-07T05:22:57Z</time>
      </trkpt>
      <trkpt lat="43.65583" lon="3.77267">
        <ele>88.2</ele>
        <time>2019-07-07T05:22:58Z</time>
      </trkpt>
      <trkpt lat="43.65583" lon="3.77261">
        <ele>88.2</ele>
        <time>2019-07-07T05:22:59Z</time>
      </trkpt>
      <trkpt lat="43.65582" lon="3.77257">
        <ele>88.3</ele>
        <time>2019-07-07T05:23:00Z</time>
      </trkpt>
      <trkpt lat="43.6558" lon="3.77252">
        <ele>88.3</ele>
        <time>2019-07-07T05:23:01Z</time>
      </trkpt>
      <trkpt lat="43.65579" lon="3.77246">
        <ele>88.4</ele>
        <time>2019-07-07T05:23:02Z</time>
      </trkpt>
      <trkpt lat="43.65578" lon="3.77242">
        <ele>88.5</ele>
        <time>2019-07-07T05:23:03Z</time>
      </trkpt>
      <trkpt lat="43.65577" lon="3.77236">
        <ele>88.6</ele>
        <time>2019-07-07T05:23:05Z</time>
      </trkpt>
      <trkpt lat="43.65578" lon="3.77231">
        <ele>88.7</ele>
        <time>2019-07-07T05:23:06Z</time>
      </trkpt>
      <trkpt lat="43.65576" lon="3.77225">
        <ele>88.8</ele>
        <time>2019-07-07T05:23:08Z</time>
      </trkpt>
      <trkpt lat="43.65576" lon="3.77221">
        <ele>88.9</ele>
        <time>2019-07-07T05:23:09Z</time>
      </trkpt>
      <trkpt lat="43.65576" lon="3.77216">
        <ele>89</ele>
        <time>2019-07-07T05:23:10Z</time>
      </trkpt>
      <trkpt lat="43.65576" lon="3.77212">
        <ele>89.1</ele>
        <time>2019-07-07T05:23:11Z</time>
      </trkpt>
      <trkpt lat="43.65576" lon="3.77207">
        <ele>89.2</ele>
        <time>2019-07-07T05:23:13Z</time>
      </trkpt>
      <trkpt lat="43.65575" lon="3.77201">
        <ele>89.3</ele>
        <time>2019-07-07T05:23:14Z</time>
      </trkpt>
      <trkpt lat="43.65574" lon="3.77197">
        <ele>89.4</ele>
        <time>2019-07-07T05:23:15Z</time>
      </trkpt>
      <trkpt lat="43.65576" lon="3.77192">
        <ele>89.5</ele>
        <time>2019-07-07T05:23:16Z</time>
      </trkpt>
      <trkpt lat="43.65576" lon="3.77187">
        <ele>89.6</ele>
        <time>2019-07-07T05:23:17Z</time>
      </trkpt>
      <trkpt lat="43.65575" lon="3.77183">
        <ele>89.7</ele>
        <time>2019-07-07T05:23:18Z</time>
      </trkpt>
      <trkpt lat="43.65574" lon="3.77176">
        <ele>89.9</ele>
        <time>2019-07-07T05:23:20Z</time>
      </trkpt>
      <trkpt lat="43.65576" lon="3.77172">
        <ele>90</ele>
        <time>2019-07-07T05:23:21Z</time>
      </trkpt>
      <trkpt lat="43.65578" lon="3.77167">
        <ele>90.2</ele>
        <time>2019-07-07T05:23:22Z</time>
      </trkpt>
      <trkpt lat="43.65579" lon="3.77162">
        <ele>90.3</ele>
        <time>2019-07-07T05:23:23Z</time>
      </trkpt>
      <trkpt lat="43.65579" lon="3.77156">
        <ele>90.5</ele>
        <time>2019-07-07T05:23:25Z</time>
      </trkpt>
      <trkpt lat="43.65579" lon="3.77152">
        <ele>90.6</ele>
        <time>2019-07-07T05:23:27Z</time>
      </trkpt>
      <trkpt lat="43.65581" lon="3.77146">
        <ele>90.9</ele>
        <time>2019-07-07T05:23:29Z</time>
      </trkpt>
      <trkpt lat="43.65582" lon="3.77139">
        <ele>91.1</ele>
        <time>2019-07-07T05:23:31Z</time>
      </trkpt>
      <trkpt lat="43.65581" lon="3.77132">
        <ele>91.3</ele>
        <time>2019-07-07T05:23:33Z</time>
      </trkpt>
      <trkpt lat="43.65582" lon="3.77127">
        <ele>91.5</ele>
        <time>2019-07-07T05:23:35Z</time>
      </trkpt>
      <trkpt lat="43.65584" lon="3.77123">
        <ele>91.6</ele>
        <time>2019-07-07T05:23:36Z</time>
      </trkpt>
      <trkpt lat="43.65582" lon="3.77117">
        <ele>91.8</ele>
        <time>2019-07-07T05:23:38Z</time>
      </trkpt>
      <trkpt lat="43.65582" lon="3.77106">
        <ele>92.2</ele>
        <time>2019-07-07T05:23:40Z</time>
      </trkpt>
      <trkpt lat="43.65584" lon="3.77103">
        <ele>92.3</ele>
        <time>2019-07-07T05:23:41Z</time>
      </trkpt>
      <trkpt lat="43.65584" lon="3.77095">
        <ele>92.5</ele>
        <time>2019-07-07T05:23:43Z</time>
      </trkpt>
      <trkpt lat="43.65586" lon="3.77091">
        <ele>92.6</ele>
        <time>2019-07-07T05:23:44Z</time>
      </trkpt>
      <trkpt lat="43.65587" lon="3.77088">
        <ele>92.7</ele>
        <time>2019-07-07T05:23:45Z</time>
      </trkpt>
      <trkpt lat="43.65586" lon="3.77084">
        <ele>92.8</ele>
        <time>2019-07-07T05:23:46Z</time>
      </trkpt>
      <trkpt lat="43.65586" lon="3.7708">
        <ele>92.9</ele>
        <time>2019-07-07T05:23:47Z</time>
      </trkpt>
      <trkpt lat="43.65587" lon="3.77076">
        <ele>93</ele>
        <time>2019-07-07T05:23:48Z</time>
      </trkpt>
      <trkpt lat="43.65588" lon="3.77072">
        <ele>93.1</ele>
        <time>2019-07-07T05:23:49Z</time>
      </trkpt>
      <trkpt lat="43.65588" lon="3.77068">
        <ele>93.2</ele>
        <time>2019-07-07T05:23:50Z</time>
      </trkpt>
      <trkpt lat="43.65588" lon="3.77063">
        <ele>93.4</ele>
        <time>2019-07-07T05:23:51Z</time>
      </trkpt>
      <trkpt lat="43.65589" lon="3.77059">
        <ele>93.5</ele>
        <time>2019-07-07T05:23:52Z</time>
      </trkpt>
      <trkpt lat="43.6559" lon="3.77055">
        <ele>93.6</ele>
        <time>2019-07-07T05:23:53Z</time>
      </trkpt>
      <trkpt lat="43.6559" lon="3.77048">
        <ele>93.7</ele>
        <time>2019-07-07T05:23:55Z</time>
      </trkpt>
      <trkpt lat="43.6559" lon="3.77043">
        <ele>93.8</ele>
        <time>2019-07-07T05:23:56Z</time>
      </trkpt>
      <trkpt lat="43.6559" lon="3.77039">
        <ele>93.9</ele>
        <time>2019-07-07T05:23:57Z</time>
      </trkpt>
      <trkpt lat="43.6559" lon="3.77032">
        <ele>94.1</ele>
        <time>2019-07-07T05:23:59Z</time>
      </trkpt>
      <trkpt lat="43.65591" lon="3.77024">
        <ele>94.3</ele>
        <time>2019-07-07T05:24:01Z</time>
      </trkpt>
      <trkpt lat="43.65591" lon="3.77021">
        <ele>94.4</ele>
        <time>2019-07-07T05:24:02Z</time>
      </trkpt>
      <trkpt lat="43.65592" lon="3.77014">
        <ele>94.5</ele>
        <time>2019-07-07T05:24:04Z</time>
      </trkpt>
      <trkpt lat="43.65593" lon="3.77007">
        <ele>94.7</ele>
        <time>2019-07-07T05:24:06Z</time>
      </trkpt>
      <trkpt lat="43.65594" lon="3.77003">
        <ele>94.7</ele>
        <time>2019-07-07T05:24:07Z</time>
      </trkpt>
      <trkpt lat="43.65595" lon="3.76998">
        <ele>94.8</ele>
        <time>2019-07-07T05:24:08Z</time>
      </trkpt>
      <trkpt lat="43.65596" lon="3.76991">
        <ele>95</ele>
        <time>2019-07-07T05:24:09Z</time>
      </trkpt>
      <trkpt lat="43.65596" lon="3.76982">
        <ele>95.2</ele>
        <time>2019-07-07T05:24:11Z</time>
      </trkpt>
      <trkpt lat="43.65597" lon="3.76978">
        <ele>95.2</ele>
        <time>2019-07-07T05:24:12Z</time>
      </trkpt>
      <trkpt lat="43.65598" lon="3.76974">
        <ele>95.3</ele>
        <time>2019-07-07T05:24:13Z</time>
      </trkpt>
      <trkpt lat="43.65598" lon="3.7697">
        <ele>95.4</ele>
        <time>2019-07-07T05:24:14Z</time>
      </trkpt>
      <trkpt lat="43.65598" lon="3.76965">
        <ele>95.5</ele>
        <time>2019-07-07T05:24:16Z</time>
      </trkpt>
      <trkpt lat="43.65598" lon="3.76961">
        <ele>95.7</ele>
        <time>2019-07-07T05:24:17Z</time>
      </trkpt>
      <trkpt lat="43.65597" lon="3.76957">
        <ele>95.9</ele>
        <time>2019-07-07T05:24:19Z</time>
      </trkpt>
      <trkpt lat="43.65597" lon="3.76952">
        <ele>96</ele>
        <time>2019-07-07T05:24:21Z</time>
      </trkpt>
      <trkpt lat="43.65597" lon="3.76948">
        <ele>96.1</ele>
        <time>2019-07-07T05:24:22Z</time>
      </trkpt>
      <trkpt lat="43.65598" lon="3.76943">
        <ele>96.2</ele>
        <time>2019-07-07T05:24:24Z</time>
      </trkpt>
      <trkpt lat="43.65599" lon="3.76935">
        <ele>96.4</ele>
        <time>2019-07-07T05:24:26Z</time>
      </trkpt>
      <trkpt lat="43.65599" lon="3.76932">
        <ele>96.5</ele>
        <time>2019-07-07T05:24:29Z</time>
      </trkpt>
      <trkpt lat="43.65599" lon="3.76928">
        <ele>96.6</ele>
        <time>2019-07-07T05:24:30Z</time>
      </trkpt>
      <trkpt lat="43.65599" lon="3.76924">
        <ele>96.5</ele>
        <time>2019-07-07T05:24:32Z</time>
      </trkpt>
      <trkpt lat="43.65599" lon="3.76919">
        <ele>96.4</ele>
        <time>2019-07-07T05:24:34Z</time>
      </trkpt>
      <trkpt lat="43.65602" lon="3.7691">
        <ele>96.3</ele>
        <time>2019-07-07T05:24:36Z</time>
      </trkpt>
      <trkpt lat="43.65604" lon="3.76906">
        <ele>96.2</ele>
        <time>2019-07-07T05:24:37Z</time>
      </trkpt>
      <trkpt lat="43.65606" lon="3.76903">
        <ele>96.1</ele>
        <time>2019-07-07T05:24:38Z</time>
      </trkpt>
      <trkpt lat="43.65608" lon="3.76901">
        <ele>96.2</ele>
        <time>2019-07-07T05:24:39Z</time>
      </trkpt>
      <trkpt lat="43.65612" lon="3.76896">
        <ele>96.1</ele>
        <time>2019-07-07T05:24:41Z</time>
      </trkpt>
      <trkpt lat="43.65614" lon="3.76891">
        <ele>96</ele>
        <time>2019-07-07T05:24:42Z</time>
      </trkpt>
      <trkpt lat="43.65617" lon="3.76884">
        <ele>95.9</ele>
        <time>2019-07-07T05:24:43Z</time>
      </trkpt>
      <trkpt lat="43.65617" lon="3.76878">
        <ele>95.8</ele>
        <time>2019-07-07T05:24:44Z</time>
      </trkpt>
      <trkpt lat="43.6562" lon="3.76874">
        <ele>95.6</ele>
        <time>2019-07-07T05:24:45Z</time>
      </trkpt>
      <trkpt lat="43.65621" lon="3.76867">
        <ele>95.6</ele>
        <time>2019-07-07T05:24:46Z</time>
      </trkpt>
      <trkpt lat="43.65623" lon="3.76861">
        <ele>95.6</ele>
        <time>2019-07-07T05:24:47Z</time>
      </trkpt>
      <trkpt lat="43.65627" lon="3.76856">
        <ele>95.5</ele>
        <time>2019-07-07T05:24:48Z</time>
      </trkpt>
      <trkpt lat="43.65629" lon="3.76854">
        <ele>95.5</ele>
        <time>2019-07-07T05:24:49Z</time>
      </trkpt>
      <trkpt lat="43.65631" lon="3.7685">
        <ele>95.5</ele>
        <time>2019-07-07T05:24:50Z</time>
      </trkpt>
      <trkpt lat="43.65634" lon="3.76849">
        <ele>95.6</ele>
        <time>2019-07-07T05:24:51Z</time>
      </trkpt>
      <trkpt lat="43.65638" lon="3.76843">
        <ele>95.4</ele>
        <time>2019-07-07T05:24:52Z</time>
      </trkpt>
      <trkpt lat="43.65639" lon="3.76839">
        <ele>95.4</ele>
        <time>2019-07-07T05:24:53Z</time>
      </trkpt>
      <trkpt lat="43.65641" lon="3.76834">
        <ele>95.2</ele>
        <time>2019-07-07T05:24:54Z</time>
      </trkpt>
      <trkpt lat="43.65644" lon="3.76828">
        <ele>95</ele>
        <time>2019-07-07T05:24:55Z</time>
      </trkpt>
      <trkpt lat="43.65647" lon="3.76824">
        <ele>94.8</ele>
        <time>2019-07-07T05:24:56Z</time>
      </trkpt>
      <trkpt lat="43.65649" lon="3.7682">
        <ele>94.7</ele>
        <time>2019-07-07T05:24:57Z</time>
      </trkpt>
      <trkpt lat="43.6565" lon="3.76814">
        <ele>94.5</ele>
        <time>2019-07-07T05:24:58Z</time>
      </trkpt>
      <trkpt lat="43.65652" lon="3.76808">
        <ele>94.2</ele>
        <time>2019-07-07T05:24:59Z</time>
      </trkpt>
      <trkpt lat="43.65655" lon="3.76803">
        <ele>94.1</ele>
        <time>2019-07-07T05:25:00Z</time>
      </trkpt>
      <trkpt lat="43.65658" lon="3.76798">
        <ele>93.9</ele>
        <time>2019-07-07T05:25:01Z</time>
      </trkpt>
      <trkpt lat="43.65662" lon="3.76793">
        <ele>93.7</ele>
        <time>2019-07-07T05:25:02Z</time>
      </trkpt>
      <trkpt lat="43.65665" lon="3.76788">
        <ele>93.2</ele>
        <time>2019-07-07T05:25:03Z</time>
      </trkpt>
      <trkpt lat="43.65668" lon="3.76785">
        <ele>93.1</ele>
        <time>2019-07-07T05:25:04Z</time>
      </trkpt>
      <trkpt lat="43.6567" lon="3.7678">
        <ele>92.8</ele>
        <time>2019-07-07T05:25:05Z</time>
      </trkpt>
      <trkpt lat="43.65673" lon="3.76775">
        <ele>92.2</ele>
        <time>2019-07-07T05:25:06Z</time>
      </trkpt>
      <trkpt lat="43.65676" lon="3.76769">
        <ele>91.8</ele>
        <time>2019-07-07T05:25:07Z</time>
      </trkpt>
      <trkpt lat="43.65678" lon="3.76764">
        <ele>91.5</ele>
        <time>2019-07-07T05:25:08Z</time>
      </trkpt>
      <trkpt lat="43.65682" lon="3.76756">
        <ele>90.8</ele>
        <time>2019-07-07T05:25:09Z</time>
      </trkpt>
      <trkpt lat="43.65686" lon="3.76751">
        <ele>90.3</ele>
        <time>2019-07-07T05:25:10Z</time>
      </trkpt>
      <trkpt lat="43.65688" lon="3.76745">
        <ele>89.6</ele>
        <time>2019-07-07T05:25:11Z</time>
      </trkpt>
      <trkpt lat="43.65691" lon="3.7674">
        <ele>89.1</ele>
        <time>2019-07-07T05:25:12Z</time>
      </trkpt>
      <trkpt lat="43.65694" lon="3.76735">
        <ele>88.9</ele>
        <time>2019-07-07T05:25:13Z</time>
      </trkpt>
      <trkpt lat="43.65697" lon="3.76732">
        <ele>88.6</ele>
        <time>2019-07-07T05:25:14Z</time>
      </trkpt>
      <trkpt lat="43.65699" lon="3.76729">
        <ele>88.4</ele>
        <time>2019-07-07T05:25:15Z</time>
      </trkpt>
      <trkpt lat="43.65703" lon="3.76726">
        <ele>88.2</ele>
        <time>2019-07-07T05:25:16Z</time>
      </trkpt>
      <trkpt lat="43.65706" lon="3.76726">
        <ele>88.2</ele>
        <time>2019-07-07T05:25:17Z</time>
      </trkpt>
      <trkpt lat="43.6571" lon="3.76725">
        <ele>88.1</ele>
        <time>2019-07-07T05:25:19Z</time>
      </trkpt>
      <trkpt lat="43.65715" lon="3.76726">
        <ele>88.1</ele>
        <time>2019-07-07T05:25:21Z</time>
      </trkpt>
      <trkpt lat="43.65719" lon="3.76727">
        <ele>88</ele>
        <time>2019-07-07T05:25:22Z</time>
      </trkpt>
      <trkpt lat="43.65722" lon="3.76729">
        <ele>88</ele>
        <time>2019-07-07T05:25:24Z</time>
      </trkpt>
      <trkpt lat="43.65725" lon="3.76732">
        <ele>88</ele>
        <time>2019-07-07T05:25:26Z</time>
      </trkpt>
      <trkpt lat="43.65729" lon="3.76732">
        <ele>87.9</ele>
        <time>2019-07-07T05:25:28Z</time>
      </trkpt>
      <trkpt lat="43.6573" lon="3.76736">
        <ele>87.9</ele>
        <time>2019-07-07T05:25:31Z</time>
      </trkpt>
      <trkpt lat="43.65728" lon="3.76738">
        <ele>88.1</ele>
        <time>2019-07-07T05:25:41Z</time>
      </trkpt>
      <trkpt lat="43.65724" lon="3.76738">
        <ele>88.1</ele>
        <time>2019-07-07T05:25:43Z</time>
      </trkpt>
      <trkpt lat="43.65721" lon="3.76734">
        <ele>88</ele>
        <time>2019-07-07T05:25:45Z</time>
      </trkpt>
      <trkpt lat="43.65718" lon="3.76732">
        <ele>88</ele>
        <time>2019-07-07T05:25:47Z</time>
      </trkpt>
      <trkpt lat="43.65715" lon="3.7673">
        <ele>88</ele>
        <time>2019-07-07T05:25:48Z</time>
      </trkpt>
      <trkpt lat="43.65712" lon="3.76726">
        <ele>88</ele>
        <time>2019-07-07T05:25:50Z</time>
      </trkpt>
      <trkpt lat="43.6571" lon="3.76719">
        <ele>88</ele>
        <time>2019-07-07T05:25:53Z</time>
      </trkpt>
      <trkpt lat="43.65708" lon="3.76716">
        <ele>88</ele>
        <time>2019-07-07T05:25:55Z</time>
      </trkpt>
      <trkpt lat="43.65706" lon="3.76713">
        <ele>88.1</ele>
        <time>2019-07-07T05:25:56Z</time>
      </trkpt>
      <trkpt lat="43.65705" lon="3.76708">
        <ele>88.2</ele>
        <time>2019-07-07T05:25:58Z</time>
      </trkpt>
      <trkpt lat="43.65703" lon="3.76705">
        <ele>88.3</ele>
        <time>2019-07-07T05:26:01Z</time>
      </trkpt>
      <trkpt lat="43.65701" lon="3.76701">
        <ele>88.5</ele>
        <time>2019-07-07T05:26:03Z</time>
      </trkpt>
      <trkpt lat="43.657" lon="3.76694">
        <ele>88.7</ele>
        <time>2019-07-07T05:27:19Z</time>
      </trkpt>
      <trkpt lat="43.65696" lon="3.76694">
        <ele>88.6</ele>
        <time>2019-07-07T05:27:20Z</time>
      </trkpt>
      <trkpt lat="43.65693" lon="3.76693">
        <ele>88.7</ele>
        <time>2019-07-07T05:27:22Z</time>
      </trkpt>
      <trkpt lat="43.65689" lon="3.76694">
        <ele>88.5</ele>
        <time>2019-07-07T05:27:25Z</time>
      </trkpt>
      <trkpt lat="43.65685" lon="3.76693">
        <ele>88.7</ele>
        <time>2019-07-07T05:27:27Z</time>
      </trkpt>
      <trkpt lat="43.65681" lon="3.76691">
        <ele>88.7</ele>
        <time>2019-07-07T05:27:29Z</time>
      </trkpt>
      <trkpt lat="43.65679" lon="3.76687">
        <ele>88.9</ele>
        <time>2019-07-07T05:27:30Z</time>
      </trkpt>
      <trkpt lat="43.65676" lon="3.76685">
        <ele>89</ele>
        <time>2019-07-07T05:27:31Z</time>
      </trkpt>
      <trkpt lat="43.65673" lon="3.76683">
        <ele>89.1</ele>
        <time>2019-07-07T05:27:32Z</time>
      </trkpt>
      <trkpt lat="43.65672" lon="3.7668">
        <ele>89.3</ele>
        <time>2019-07-07T05:27:33Z</time>
      </trkpt>
      <trkpt lat="43.6567" lon="3.76676">
        <ele>89.5</ele>
        <time>2019-07-07T05:27:35Z</time>
      </trkpt>
      <trkpt lat="43.6567" lon="3.7667">
        <ele>89.7</ele>
        <time>2019-07-07T05:27:37Z</time>
      </trkpt>
      <trkpt lat="43.65669" lon="3.76664">
        <ele>90</ele>
        <time>2019-07-07T05:27:39Z</time>
      </trkpt>
      <trkpt lat="43.65668" lon="3.76657">
        <ele>90.4</ele>
        <time>2019-07-07T05:27:41Z</time>
      </trkpt>
      <trkpt lat="43.65667" lon="3.76649">
        <ele>90.8</ele>
        <time>2019-07-07T05:27:43Z</time>
      </trkpt>
      <trkpt lat="43.65668" lon="3.7664">
        <ele>91.2</ele>
        <time>2019-07-07T05:27:45Z</time>
      </trkpt>
      <trkpt lat="43.65665" lon="3.76634">
        <ele>91.4</ele>
        <time>2019-07-07T05:27:47Z</time>
      </trkpt>
      <trkpt lat="43.65664" lon="3.7663">
        <ele>91.4</ele>
        <time>2019-07-07T05:27:48Z</time>
      </trkpt>
      <trkpt lat="43.65662" lon="3.76626">
        <ele>91.5</ele>
        <time>2019-07-07T05:27:50Z</time>
      </trkpt>
      <trkpt lat="43.6566" lon="3.76622">
        <ele>91.6</ele>
        <time>2019-07-07T05:27:52Z</time>
      </trkpt>
      <trkpt lat="43.65656" lon="3.76616">
        <ele>91.8</ele>
        <time>2019-07-07T05:27:54Z</time>
      </trkpt>
      <trkpt lat="43.65652" lon="3.76611">
        <ele>91.9</ele>
        <time>2019-07-07T05:27:56Z</time>
      </trkpt>
      <trkpt lat="43.6565" lon="3.76609">
        <ele>91.9</ele>
        <time>2019-07-07T05:27:57Z</time>
      </trkpt>
      <trkpt lat="43.65648" lon="3.76603">
        <ele>92.1</ele>
        <time>2019-07-07T05:27:59Z</time>
      </trkpt>
      <trkpt lat="43.65647" lon="3.76599">
        <ele>92.1</ele>
        <time>2019-07-07T05:28:00Z</time>
      </trkpt>
      <trkpt lat="43.65644" lon="3.76596">
        <ele>92.2</ele>
        <time>2019-07-07T05:28:02Z</time>
      </trkpt>
      <trkpt lat="43.65642" lon="3.76594">
        <ele>92.3</ele>
        <time>2019-07-07T05:28:03Z</time>
      </trkpt>
      <trkpt lat="43.65637" lon="3.76592">
        <ele>92.5</ele>
        <time>2019-07-07T05:28:05Z</time>
      </trkpt>
      <trkpt lat="43.65632" lon="3.76592">
        <ele>92.8</ele>
        <time>2019-07-07T05:28:07Z</time>
      </trkpt>
      <trkpt lat="43.65627" lon="3.76591">
        <ele>92.9</ele>
        <time>2019-07-07T05:28:09Z</time>
      </trkpt>
      <trkpt lat="43.65623" lon="3.76589">
        <ele>93.1</ele>
        <time>2019-07-07T05:28:11Z</time>
      </trkpt>
      <trkpt lat="43.65619" lon="3.76589">
        <ele>93.3</ele>
        <time>2019-07-07T05:28:13Z</time>
      </trkpt>
      <trkpt lat="43.65617" lon="3.76584">
        <ele>93.3</ele>
        <time>2019-07-07T05:28:14Z</time>
      </trkpt>
      <trkpt lat="43.65614" lon="3.76582">
        <ele>93.3</ele>
        <time>2019-07-07T05:28:16Z</time>
      </trkpt>
      <trkpt lat="43.65613" lon="3.76578">
        <ele>93.4</ele>
        <time>2019-07-07T05:28:20Z</time>
      </trkpt>
      <trkpt lat="43.65611" lon="3.76572">
        <ele>93.4</ele>
        <time>2019-07-07T05:29:05Z</time>
      </trkpt>
      <trkpt lat="43.6561" lon="3.76567">
        <ele>93.4</ele>
        <time>2019-07-07T05:29:07Z</time>
      </trkpt>
      <trkpt lat="43.65609" lon="3.7656">
        <ele>93.5</ele>
        <time>2019-07-07T05:29:09Z</time>
      </trkpt>
      <trkpt lat="43.65607" lon="3.76553">
        <ele>93.6</ele>
        <time>2019-07-07T05:29:11Z</time>
      </trkpt>
      <trkpt lat="43.65608" lon="3.76547">
        <ele>93.7</ele>
        <time>2019-07-07T05:29:12Z</time>
      </trkpt>
      <trkpt lat="43.65606" lon="3.7654">
        <ele>93.7</ele>
        <time>2019-07-07T05:29:14Z</time>
      </trkpt>
      <trkpt lat="43.65606" lon="3.76536">
        <ele>93.8</ele>
        <time>2019-07-07T05:29:15Z</time>
      </trkpt>
      <trkpt lat="43.65605" lon="3.76532">
        <ele>93.9</ele>
        <time>2019-07-07T05:29:16Z</time>
      </trkpt>
      <trkpt lat="43.65603" lon="3.76525">
        <ele>94</ele>
        <time>2019-07-07T05:29:18Z</time>
      </trkpt>
      <trkpt lat="43.65602" lon="3.76521">
        <ele>94</ele>
        <time>2019-07-07T05:29:19Z</time>
      </trkpt>
      <trkpt lat="43.65602" lon="3.76517">
        <ele>94.1</ele>
        <time>2019-07-07T05:29:20Z</time>
      </trkpt>
      <trkpt lat="43.65601" lon="3.76511">
        <ele>94.2</ele>
        <time>2019-07-07T05:29:21Z</time>
      </trkpt>
      <trkpt lat="43.656" lon="3.76508">
        <ele>94.3</ele>
        <time>2019-07-07T05:29:22Z</time>
      </trkpt>
      <trkpt lat="43.65597" lon="3.76502">
        <ele>94.3</ele>
        <time>2019-07-07T05:29:24Z</time>
      </trkpt>
      <trkpt lat="43.65596" lon="3.76495">
        <ele>94.4</ele>
        <time>2019-07-07T05:29:25Z</time>
      </trkpt>
      <trkpt lat="43.65595" lon="3.7649">
        <ele>94.5</ele>
        <time>2019-07-07T05:29:26Z</time>
      </trkpt>
      <trkpt lat="43.65594" lon="3.76486">
        <ele>94.5</ele>
        <time>2019-07-07T05:29:27Z</time>
      </trkpt>
      <trkpt lat="43.65592" lon="3.76479">
        <ele>94.6</ele>
        <time>2019-07-07T05:29:29Z</time>
      </trkpt>
      <trkpt lat="43.6559" lon="3.76476">
        <ele>94.6</ele>
        <time>2019-07-07T05:29:30Z</time>
      </trkpt>
      <trkpt lat="43.6559" lon="3.7647">
        <ele>94.6</ele>
        <time>2019-07-07T05:29:31Z</time>
      </trkpt>
      <trkpt lat="43.65588" lon="3.76466">
        <ele>94.6</ele>
        <time>2019-07-07T05:29:32Z</time>
      </trkpt>
      <trkpt lat="43.65587" lon="3.76462">
        <ele>94.6</ele>
        <time>2019-07-07T05:29:33Z</time>
      </trkpt>
      <trkpt lat="43.65586" lon="3.76458">
        <ele>94.6</ele>
        <time>2019-07-07T05:29:34Z</time>
      </trkpt>
      <trkpt lat="43.65583" lon="3.76453">
        <ele>94.5</ele>
        <time>2019-07-07T05:29:35Z</time>
      </trkpt>
      <trkpt lat="43.65581" lon="3.76446">
        <ele>94.5</ele>
        <time>2019-07-07T05:29:36Z</time>
      </trkpt>
      <trkpt lat="43.65579" lon="3.76438">
        <ele>94.5</ele>
        <time>2019-07-07T05:29:38Z</time>
      </trkpt>
      <trkpt lat="43.65578" lon="3.76434">
        <ele>94.5</ele>
        <time>2019-07-07T05:29:39Z</time>
      </trkpt>
      <trkpt lat="43.65578" lon="3.7643">
        <ele>94.4</ele>
        <time>2019-07-07T05:29:40Z</time>
      </trkpt>
      <trkpt lat="43.65578" lon="3.76426">
        <ele>94.4</ele>
        <time>2019-07-07T05:29:41Z</time>
      </trkpt>
      <trkpt lat="43.65574" lon="3.7642">
        <ele>94.4</ele>
        <time>2019-07-07T05:29:42Z</time>
      </trkpt>
      <trkpt lat="43.65572" lon="3.76416">
        <ele>94.4</ele>
        <time>2019-07-07T05:29:43Z</time>
      </trkpt>
      <trkpt lat="43.65571" lon="3.76411">
        <ele>94.4</ele>
        <time>2019-07-07T05:29:44Z</time>
      </trkpt>
      <trkpt lat="43.6557" lon="3.76408">
        <ele>94.4</ele>
        <time>2019-07-07T05:29:45Z</time>
      </trkpt>
      <trkpt lat="43.65568" lon="3.76404">
        <ele>94.4</ele>
        <time>2019-07-07T05:29:46Z</time>
      </trkpt>
      <trkpt lat="43.65566" lon="3.76399">
        <ele>94.3</ele>
        <time>2019-07-07T05:29:47Z</time>
      </trkpt>
      <trkpt lat="43.65563" lon="3.76394">
        <ele>94.3</ele>
        <time>2019-07-07T05:29:48Z</time>
      </trkpt>
      <trkpt lat="43.65562" lon="3.76389">
        <ele>94.3</ele>
        <time>2019-07-07T05:29:49Z</time>
      </trkpt>
      <trkpt lat="43.65563" lon="3.76383">
        <ele>94.3</ele>
        <time>2019-07-07T05:29:50Z</time>
      </trkpt>
      <trkpt lat="43.65561" lon="3.76379">
        <ele>94.3</ele>
        <time>2019-07-07T05:29:51Z</time>
      </trkpt>
      <trkpt lat="43.6556" lon="3.76374">
        <ele>94.3</ele>
        <time>2019-07-07T05:29:52Z</time>
      </trkpt>
      <trkpt lat="43.65562" lon="3.76369">
        <ele>94.3</ele>
        <time>2019-07-07T05:29:53Z</time>
      </trkpt>
      <trkpt lat="43.65561" lon="3.76364">
        <ele>94.3</ele>
        <time>2019-07-07T05:29:54Z</time>
      </trkpt>
      <trkpt lat="43.65557" lon="3.76356">
        <ele>94.2</ele>
        <time>2019-07-07T05:29:56Z</time>
      </trkpt>
      <trkpt lat="43.65556" lon="3.76351">
        <ele>94.2</ele>
        <time>2019-07-07T05:29:57Z</time>
      </trkpt>
      <trkpt lat="43.65556" lon="3.76347">
        <ele>94.2</ele>
        <time>2019-07-07T05:29:58Z</time>
      </trkpt>
      <trkpt lat="43.65553" lon="3.76339">
        <ele>94.2</ele>
        <time>2019-07-07T05:29:59Z</time>
      </trkpt>
      <trkpt lat="43.65551" lon="3.76333">
        <ele>94.2</ele>
        <time>2019-07-07T05:30:00Z</time>
      </trkpt>
      <trkpt lat="43.65549" lon="3.76328">
        <ele>94.2</ele>
        <time>2019-07-07T05:30:01Z</time>
      </trkpt>
      <trkpt lat="43.65548" lon="3.76323">
        <ele>94.2</ele>
        <time>2019-07-07T05:30:02Z</time>
      </trkpt>
      <trkpt lat="43.65548" lon="3.76315">
        <ele>94.2</ele>
        <time>2019-07-07T05:30:03Z</time>
      </trkpt>
      <trkpt lat="43.65547" lon="3.7631">
        <ele>94.2</ele>
        <time>2019-07-07T05:30:04Z</time>
      </trkpt>
      <trkpt lat="43.65545" lon="3.76303">
        <ele>94.2</ele>
        <time>2019-07-07T05:30:05Z</time>
      </trkpt>
      <trkpt lat="43.65542" lon="3.76299">
        <ele>94.2</ele>
        <time>2019-07-07T05:30:06Z</time>
      </trkpt>
      <trkpt lat="43.6554" lon="3.76296">
        <ele>94.2</ele>
        <time>2019-07-07T05:30:07Z</time>
      </trkpt>
      <trkpt lat="43.65534" lon="3.76283">
        <ele>94.3</ele>
        <time>2019-07-07T05:30:11Z</time>
      </trkpt>
      <trkpt lat="43.65532" lon="3.76278">
        <ele>94.3</ele>
        <time>2019-07-07T05:30:12Z</time>
      </trkpt>
      <trkpt lat="43.6553" lon="3.76272">
        <ele>94.3</ele>
        <time>2019-07-07T05:30:13Z</time>
      </trkpt>
      <trkpt lat="43.65528" lon="3.76266">
        <ele>94.4</ele>
        <time>2019-07-07T05:30:14Z</time>
      </trkpt>
      <trkpt lat="43.65528" lon="3.76259">
        <ele>94.4</ele>
        <time>2019-07-07T05:30:15Z</time>
      </trkpt>
      <trkpt lat="43.65526" lon="3.76255">
        <ele>94.5</ele>
        <time>2019-07-07T05:30:16Z</time>
      </trkpt>
      <trkpt lat="43.65524" lon="3.76249">
        <ele>94.6</ele>
        <time>2019-07-07T05:30:18Z</time>
      </trkpt>
      <trkpt lat="43.65522" lon="3.76243">
        <ele>94.7</ele>
        <time>2019-07-07T05:30:19Z</time>
      </trkpt>
      <trkpt lat="43.6552" lon="3.7624">
        <ele>94.7</ele>
        <time>2019-07-07T05:30:20Z</time>
      </trkpt>
      <trkpt lat="43.65517" lon="3.76236">
        <ele>94.8</ele>
        <time>2019-07-07T05:30:21Z</time>
      </trkpt>
      <trkpt lat="43.65514" lon="3.76233">
        <ele>94.9</ele>
        <time>2019-07-07T05:30:22Z</time>
      </trkpt>
      <trkpt lat="43.65511" lon="3.76231">
        <ele>94.9</ele>
        <time>2019-07-07T05:30:23Z</time>
      </trkpt>
      <trkpt lat="43.65509" lon="3.76229">
        <ele>95</ele>
        <time>2019-07-07T05:30:24Z</time>
      </trkpt>
      <trkpt lat="43.65506" lon="3.76224">
        <ele>95.1</ele>
        <time>2019-07-07T05:30:25Z</time>
      </trkpt>
      <trkpt lat="43.65503" lon="3.76218">
        <ele>95.2</ele>
        <time>2019-07-07T05:30:27Z</time>
      </trkpt>
      <trkpt lat="43.65496" lon="3.76215">
        <ele>95.4</ele>
        <time>2019-07-07T05:30:29Z</time>
      </trkpt>
      <trkpt lat="43.65468" lon="3.76212">
        <ele>96.3</ele>
        <time>2019-07-07T05:30:37Z</time>
      </trkpt>
      <trkpt lat="43.65463" lon="3.76209">
        <ele>96.5</ele>
        <time>2019-07-07T05:30:39Z</time>
      </trkpt>
      <trkpt lat="43.6546" lon="3.76205">
        <ele>96.6</ele>
        <time>2019-07-07T05:30:41Z</time>
      </trkpt>
      <trkpt lat="43.65454" lon="3.76204">
        <ele>96.7</ele>
        <time>2019-07-07T05:30:43Z</time>
      </trkpt>
      <trkpt lat="43.6545" lon="3.76197">
        <ele>96.9</ele>
        <time>2019-07-07T05:30:44Z</time>
      </trkpt>
      <trkpt lat="43.65448" lon="3.76194">
        <ele>97</ele>
        <time>2019-07-07T05:30:46Z</time>
      </trkpt>
      <trkpt lat="43.65444" lon="3.76192">
        <ele>97.2</ele>
        <time>2019-07-07T05:30:47Z</time>
      </trkpt>
      <trkpt lat="43.6544" lon="3.76193">
        <ele>97.3</ele>
        <time>2019-07-07T05:30:48Z</time>
      </trkpt>
      <trkpt lat="43.65434" lon="3.7619">
        <ele>97.5</ele>
        <time>2019-07-07T05:30:50Z</time>
      </trkpt>
      <trkpt lat="43.6543" lon="3.76188">
        <ele>97.6</ele>
        <time>2019-07-07T05:30:51Z</time>
      </trkpt>
      <trkpt lat="43.65428" lon="3.76187">
        <ele>97.6</ele>
        <time>2019-07-07T05:30:52Z</time>
      </trkpt>
      <trkpt lat="43.65424" lon="3.76185">
        <ele>97.7</ele>
        <time>2019-07-07T05:30:53Z</time>
      </trkpt>
      <trkpt lat="43.65424" lon="3.76181">
        <ele>97.8</ele>
        <time>2019-07-07T05:30:54Z</time>
      </trkpt>
      <trkpt lat="43.6542" lon="3.76182">
        <ele>97.9</ele>
        <time>2019-07-07T05:30:55Z</time>
      </trkpt>
      <trkpt lat="43.65416" lon="3.76182">
        <ele>98</ele>
        <time>2019-07-07T05:30:56Z</time>
      </trkpt>
      <trkpt lat="43.65411" lon="3.76179">
        <ele>98</ele>
        <time>2019-07-07T05:30:57Z</time>
      </trkpt>
      <trkpt lat="43.65407" lon="3.76177">
        <ele>98.1</ele>
        <time>2019-07-07T05:30:58Z</time>
      </trkpt>
      <trkpt lat="43.65405" lon="3.76174">
        <ele>98.2</ele>
        <time>2019-07-07T05:30:59Z</time>
      </trkpt>
      <trkpt lat="43.65401" lon="3.76171">
        <ele>98.2</ele>
        <time>2019-07-07T05:31:00Z</time>
      </trkpt>
      <trkpt lat="43.654" lon="3.76167">
        <ele>98.3</ele>
        <time>2019-07-07T05:31:01Z</time>
      </trkpt>
      <trkpt lat="43.65397" lon="3.76167">
        <ele>98.4</ele>
        <time>2019-07-07T05:31:02Z</time>
      </trkpt>
      <trkpt lat="43.65393" lon="3.76167">
        <ele>98.4</ele>
        <time>2019-07-07T05:31:03Z</time>
      </trkpt>
      <trkpt lat="43.65389" lon="3.76166">
        <ele>98.5</ele>
        <time>2019-07-07T05:31:04Z</time>
      </trkpt>
      <trkpt lat="43.65385" lon="3.76162">
        <ele>98.7</ele>
        <time>2019-07-07T05:31:06Z</time>
      </trkpt>
      <trkpt lat="43.6538" lon="3.76157">
        <ele>98.9</ele>
        <time>2019-07-07T05:31:08Z</time>
      </trkpt>
      <trkpt lat="43.65379" lon="3.7615">
        <ele>99.1</ele>
        <time>2019-07-07T05:31:09Z</time>
      </trkpt>
      <trkpt lat="43.65376" lon="3.76146">
        <ele>99.2</ele>
        <time>2019-07-07T05:31:11Z</time>
      </trkpt>
      <trkpt lat="43.65374" lon="3.76143">
        <ele>99.3</ele>
        <time>2019-07-07T05:31:12Z</time>
      </trkpt>
      <trkpt lat="43.65372" lon="3.76141">
        <ele>99.4</ele>
        <time>2019-07-07T05:31:13Z</time>
      </trkpt>
      <trkpt lat="43.6537" lon="3.76137">
        <ele>99.5</ele>
        <time>2019-07-07T05:31:14Z</time>
      </trkpt>
      <trkpt lat="43.65369" lon="3.76131">
        <ele>99.6</ele>
        <time>2019-07-07T05:31:15Z</time>
      </trkpt>
      <trkpt lat="43.65367" lon="3.76128">
        <ele>99.6</ele>
        <time>2019-07-07T05:31:16Z</time>
      </trkpt>
      <trkpt lat="43.65365" lon="3.76124">
        <ele>99.7</ele>
        <time>2019-07-07T05:31:17Z</time>
      </trkpt>
      <trkpt lat="43.65363" lon="3.7612">
        <ele>99.7</ele>
        <time>2019-07-07T05:31:18Z</time>
      </trkpt>
      <trkpt lat="43.65363" lon="3.76115">
        <ele>99.7</ele>
        <time>2019-07-07T05:31:19Z</time>
      </trkpt>
      <trkpt lat="43.65363" lon="3.76111">
        <ele>99.7</ele>
        <time>2019-07-07T05:31:20Z</time>
      </trkpt>
      <trkpt lat="43.65365" lon="3.76104">
        <ele>99.6</ele>
        <time>2019-07-07T05:31:21Z</time>
      </trkpt>
      <trkpt lat="43.65367" lon="3.76098">
        <ele>99.6</ele>
        <time>2019-07-07T05:31:22Z</time>
      </trkpt>
      <trkpt lat="43.65366" lon="3.76094">
        <ele>99.6</ele>
        <time>2019-07-07T05:31:23Z</time>
      </trkpt>
      <trkpt lat="43.65364" lon="3.76088">
        <ele>99.6</ele>
        <time>2019-07-07T05:31:25Z</time>
      </trkpt>
      <trkpt lat="43.65361" lon="3.76085">
        <ele>99.5</ele>
        <time>2019-07-07T05:31:27Z</time>
      </trkpt>
      <trkpt lat="43.65359" lon="3.76081">
        <ele>99.5</ele>
        <time>2019-07-07T05:31:28Z</time>
      </trkpt>
      <trkpt lat="43.65355" lon="3.76072">
        <ele>99.5</ele>
        <time>2019-07-07T05:31:30Z</time>
      </trkpt>
      <trkpt lat="43.65351" lon="3.76069">
        <ele>99.5</ele>
        <time>2019-07-07T05:31:32Z</time>
      </trkpt>
      <trkpt lat="43.65346" lon="3.76067">
        <ele>99.6</ele>
        <time>2019-07-07T05:31:34Z</time>
      </trkpt>
      <trkpt lat="43.65342" lon="3.76067">
        <ele>99.8</ele>
        <time>2019-07-07T05:31:36Z</time>
      </trkpt>
      <trkpt lat="43.65337" lon="3.76066">
        <ele>99.9</ele>
        <time>2019-07-07T05:31:38Z</time>
      </trkpt>
      <trkpt lat="43.65333" lon="3.76065">
        <ele>100</ele>
        <time>2019-07-07T05:31:40Z</time>
      </trkpt>
      <trkpt lat="43.65328" lon="3.76062">
        <ele>100.2</ele>
        <time>2019-07-07T05:31:42Z</time>
      </trkpt>
      <trkpt lat="43.65325" lon="3.76063">
        <ele>100.4</ele>
        <time>2019-07-07T05:31:43Z</time>
      </trkpt>
      <trkpt lat="43.65321" lon="3.76061">
        <ele>100.6</ele>
        <time>2019-07-07T05:31:45Z</time>
      </trkpt>
      <trkpt lat="43.65317" lon="3.76059">
        <ele>101</ele>
        <time>2019-07-07T05:31:47Z</time>
      </trkpt>
      <trkpt lat="43.65312" lon="3.76056">
        <ele>101.3</ele>
        <time>2019-07-07T05:31:49Z</time>
      </trkpt>
      <trkpt lat="43.65307" lon="3.76055">
        <ele>101.5</ele>
        <time>2019-07-07T05:31:51Z</time>
      </trkpt>
      <trkpt lat="43.65304" lon="3.76053">
        <ele>101.7</ele>
        <time>2019-07-07T05:31:52Z</time>
      </trkpt>
      <trkpt lat="43.65299" lon="3.7605">
        <ele>101.9</ele>
        <time>2019-07-07T05:31:54Z</time>
      </trkpt>
      <trkpt lat="43.65297" lon="3.76049">
        <ele>102</ele>
        <time>2019-07-07T05:31:55Z</time>
      </trkpt>
      <trkpt lat="43.65292" lon="3.76046">
        <ele>102.2</ele>
        <time>2019-07-07T05:31:57Z</time>
      </trkpt>
      <trkpt lat="43.65289" lon="3.76044">
        <ele>102.3</ele>
        <time>2019-07-07T05:31:58Z</time>
      </trkpt>
      <trkpt lat="43.65285" lon="3.76042">
        <ele>102.4</ele>
        <time>2019-07-07T05:32:00Z</time>
      </trkpt>
      <trkpt lat="43.65281" lon="3.76038">
        <ele>102.5</ele>
        <time>2019-07-07T05:32:02Z</time>
      </trkpt>
      <trkpt lat="43.65276" lon="3.76033">
        <ele>102.6</ele>
        <time>2019-07-07T05:32:04Z</time>
      </trkpt>
      <trkpt lat="43.65273" lon="3.76032">
        <ele>102.7</ele>
        <time>2019-07-07T05:32:05Z</time>
      </trkpt>
      <trkpt lat="43.65271" lon="3.7603">
        <ele>102.7</ele>
        <time>2019-07-07T05:32:06Z</time>
      </trkpt>
      <trkpt lat="43.65268" lon="3.76028">
        <ele>102.8</ele>
        <time>2019-07-07T05:32:07Z</time>
      </trkpt>
      <trkpt lat="43.65267" lon="3.76024">
        <ele>102.8</ele>
        <time>2019-07-07T05:32:08Z</time>
      </trkpt>
      <trkpt lat="43.65264" lon="3.76021">
        <ele>102.8</ele>
        <time>2019-07-07T05:32:09Z</time>
      </trkpt>
      <trkpt lat="43.6526" lon="3.76019">
        <ele>102.8</ele>
        <time>2019-07-07T05:32:10Z</time>
      </trkpt>
      <trkpt lat="43.65258" lon="3.76012">
        <ele>102.8</ele>
        <time>2019-07-07T05:32:11Z</time>
      </trkpt>
      <trkpt lat="43.65256" lon="3.76007">
        <ele>102.8</ele>
        <time>2019-07-07T05:32:12Z</time>
      </trkpt>
      <trkpt lat="43.65255" lon="3.76002">
        <ele>102.7</ele>
        <time>2019-07-07T05:32:13Z</time>
      </trkpt>
      <trkpt lat="43.65252" lon="3.76">
        <ele>102.7</ele>
        <time>2019-07-07T05:32:14Z</time>
      </trkpt>
      <trkpt lat="43.6525" lon="3.75995">
        <ele>102.6</ele>
        <time>2019-07-07T05:32:16Z</time>
      </trkpt>
      <trkpt lat="43.65248" lon="3.75986">
        <ele>102.5</ele>
        <time>2019-07-07T05:32:18Z</time>
      </trkpt>
      <trkpt lat="43.65247" lon="3.75981">
        <ele>102.4</ele>
        <time>2019-07-07T05:32:19Z</time>
      </trkpt>
      <trkpt lat="43.65244" lon="3.75977">
        <ele>102.2</ele>
        <time>2019-07-07T05:32:20Z</time>
      </trkpt>
      <trkpt lat="43.65241" lon="3.75974">
        <ele>102.1</ele>
        <time>2019-07-07T05:32:21Z</time>
      </trkpt>
      <trkpt lat="43.65237" lon="3.75977">
        <ele>102</ele>
        <time>2019-07-07T05:32:22Z</time>
      </trkpt>
      <trkpt lat="43.65234" lon="3.75973">
        <ele>102</ele>
        <time>2019-07-07T05:32:24Z</time>
      </trkpt>
      <trkpt lat="43.65232" lon="3.7597">
        <ele>102</ele>
        <time>2019-07-07T05:32:26Z</time>
      </trkpt>
      <trkpt lat="43.6523" lon="3.75966">
        <ele>101.9</ele>
        <time>2019-07-07T05:32:28Z</time>
      </trkpt>
      <trkpt lat="43.65229" lon="3.75962">
        <ele>101.9</ele>
        <time>2019-07-07T05:32:29Z</time>
      </trkpt>
      <trkpt lat="43.65229" lon="3.75954">
        <ele>102</ele>
        <time>2019-07-07T05:32:30Z</time>
      </trkpt>
      <trkpt lat="43.65226" lon="3.7595">
        <ele>102</ele>
        <time>2019-07-07T05:32:32Z</time>
      </trkpt>
      <trkpt lat="43.65225" lon="3.75946">
        <ele>102.1</ele>
        <time>2019-07-07T05:32:33Z</time>
      </trkpt>
      <trkpt lat="43.65224" lon="3.75939">
        <ele>102.1</ele>
        <time>2019-07-07T05:32:34Z</time>
      </trkpt>
      <trkpt lat="43.65221" lon="3.75935">
        <ele>102.2</ele>
        <time>2019-07-07T05:32:36Z</time>
      </trkpt>
      <trkpt lat="43.65218" lon="3.75933">
        <ele>102.2</ele>
        <time>2019-07-07T05:32:38Z</time>
      </trkpt>
      <trkpt lat="43.65215" lon="3.75928">
        <ele>102.3</ele>
        <time>2019-07-07T05:32:39Z</time>
      </trkpt>
      <trkpt lat="43.65213" lon="3.75925">
        <ele>102.3</ele>
        <time>2019-07-07T05:32:40Z</time>
      </trkpt>
      <trkpt lat="43.65211" lon="3.75922">
        <ele>102.4</ele>
        <time>2019-07-07T05:32:41Z</time>
      </trkpt>
      <trkpt lat="43.65209" lon="3.75919">
        <ele>102.4</ele>
        <time>2019-07-07T05:32:42Z</time>
      </trkpt>
      <trkpt lat="43.65204" lon="3.75915">
        <ele>102.4</ele>
        <time>2019-07-07T05:32:44Z</time>
      </trkpt>
      <trkpt lat="43.65201" lon="3.75912">
        <ele>102.4</ele>
        <time>2019-07-07T05:32:45Z</time>
      </trkpt>
      <trkpt lat="43.65198" lon="3.75906">
        <ele>102.4</ele>
        <time>2019-07-07T05:32:47Z</time>
      </trkpt>
      <trkpt lat="43.65196" lon="3.75904">
        <ele>102.4</ele>
        <time>2019-07-07T05:32:48Z</time>
      </trkpt>
      <trkpt lat="43.65192" lon="3.75901">
        <ele>102.5</ele>
        <time>2019-07-07T05:32:49Z</time>
      </trkpt>
      <trkpt lat="43.65189" lon="3.75899">
        <ele>102.5</ele>
        <time>2019-07-07T05:32:50Z</time>
      </trkpt>
      <trkpt lat="43.65186" lon="3.75897">
        <ele>102.5</ele>
        <time>2019-07-07T05:32:51Z</time>
      </trkpt>
      <trkpt lat="43.65182" lon="3.75897">
        <ele>102.5</ele>
        <time>2019-07-07T05:32:53Z</time>
      </trkpt>
      <trkpt lat="43.6518" lon="3.75897">
        <ele>102.5</ele>
        <time>2019-07-07T05:32:54Z</time>
      </trkpt>
      <trkpt lat="43.65177" lon="3.75896">
        <ele>102.5</ele>
        <time>2019-07-07T05:32:55Z</time>
      </trkpt>
      <trkpt lat="43.65171" lon="3.75895">
        <ele>102.6</ele>
        <time>2019-07-07T05:32:57Z</time>
      </trkpt>
      <trkpt lat="43.65169" lon="3.75894">
        <ele>102.6</ele>
        <time>2019-07-07T05:32:58Z</time>
      </trkpt>
      <trkpt lat="43.65166" lon="3.75893">
        <ele>102.6</ele>
        <time>2019-07-07T05:32:59Z</time>
      </trkpt>
      <trkpt lat="43.65163" lon="3.75893">
        <ele>102.6</ele>
        <time>2019-07-07T05:33:00Z</time>
      </trkpt>
      <trkpt lat="43.6516" lon="3.75889">
        <ele>102.7</ele>
        <time>2019-07-07T05:33:01Z</time>
      </trkpt>
      <trkpt lat="43.65157" lon="3.75887">
        <ele>102.7</ele>
        <time>2019-07-07T05:33:02Z</time>
      </trkpt>
      <trkpt lat="43.65152" lon="3.75888">
        <ele>102.7</ele>
        <time>2019-07-07T05:33:03Z</time>
      </trkpt>
      <trkpt lat="43.65149" lon="3.75885">
        <ele>102.8</ele>
        <time>2019-07-07T05:33:04Z</time>
      </trkpt>
      <trkpt lat="43.65146" lon="3.75887">
        <ele>102.8</ele>
        <time>2019-07-07T05:33:05Z</time>
      </trkpt>
      <trkpt lat="43.65142" lon="3.75888">
        <ele>102.8</ele>
        <time>2019-07-07T05:33:06Z</time>
      </trkpt>
      <trkpt lat="43.6514" lon="3.75887">
        <ele>102.8</ele>
        <time>2019-07-07T05:33:07Z</time>
      </trkpt>
      <trkpt lat="43.65136" lon="3.75889">
        <ele>102.9</ele>
        <time>2019-07-07T05:33:08Z</time>
      </trkpt>
      <trkpt lat="43.65132" lon="3.75888">
        <ele>102.9</ele>
        <time>2019-07-07T05:33:10Z</time>
      </trkpt>
      <trkpt lat="43.65127" lon="3.75888">
        <ele>103</ele>
        <time>2019-07-07T05:33:12Z</time>
      </trkpt>
      <trkpt lat="43.65122" lon="3.75888">
        <ele>103</ele>
        <time>2019-07-07T05:33:14Z</time>
      </trkpt>
      <trkpt lat="43.65117" lon="3.75885">
        <ele>103.1</ele>
        <time>2019-07-07T05:33:16Z</time>
      </trkpt>
      <trkpt lat="43.65114" lon="3.75881">
        <ele>103.1</ele>
        <time>2019-07-07T05:33:17Z</time>
      </trkpt>
      <trkpt lat="43.65111" lon="3.75878">
        <ele>103.2</ele>
        <time>2019-07-07T05:33:18Z</time>
      </trkpt>
      <trkpt lat="43.65107" lon="3.75873">
        <ele>103.2</ele>
        <time>2019-07-07T05:33:19Z</time>
      </trkpt>
      <trkpt lat="43.65104" lon="3.75869">
        <ele>103.3</ele>
        <time>2019-07-07T05:33:20Z</time>
      </trkpt>
      <trkpt lat="43.65102" lon="3.75866">
        <ele>103.4</ele>
        <time>2019-07-07T05:33:21Z</time>
      </trkpt>
      <trkpt lat="43.651" lon="3.75862">
        <ele>103.4</ele>
        <time>2019-07-07T05:33:22Z</time>
      </trkpt>
      <trkpt lat="43.65098" lon="3.75856">
        <ele>103.5</ele>
        <time>2019-07-07T05:33:24Z</time>
      </trkpt>
      <trkpt lat="43.65096" lon="3.75852">
        <ele>103.6</ele>
        <time>2019-07-07T05:33:25Z</time>
      </trkpt>
      <trkpt lat="43.65093" lon="3.75853">
        <ele>103.7</ele>
        <time>2019-07-07T05:33:26Z</time>
      </trkpt>
      <trkpt lat="43.6509" lon="3.75852">
        <ele>103.7</ele>
        <time>2019-07-07T05:33:27Z</time>
      </trkpt>
      <trkpt lat="43.65088" lon="3.75846">
        <ele>103.9</ele>
        <time>2019-07-07T05:33:29Z</time>
      </trkpt>
      <trkpt lat="43.65085" lon="3.75844">
        <ele>104</ele>
        <time>2019-07-07T05:33:30Z</time>
      </trkpt>
      <trkpt lat="43.65083" lon="3.75838">
        <ele>104.2</ele>
        <time>2019-07-07T05:33:31Z</time>
      </trkpt>
      <trkpt lat="43.6508" lon="3.75833">
        <ele>104.3</ele>
        <time>2019-07-07T05:33:33Z</time>
      </trkpt>
      <trkpt lat="43.65076" lon="3.75829">
        <ele>104.5</ele>
        <time>2019-07-07T05:33:35Z</time>
      </trkpt>
      <trkpt lat="43.65072" lon="3.75825">
        <ele>104.8</ele>
        <time>2019-07-07T05:33:37Z</time>
      </trkpt>
      <trkpt lat="43.65068" lon="3.75822">
        <ele>105</ele>
        <time>2019-07-07T05:33:39Z</time>
      </trkpt>
      <trkpt lat="43.65065" lon="3.75818">
        <ele>105.3</ele>
        <time>2019-07-07T05:33:41Z</time>
      </trkpt>
      <trkpt lat="43.65063" lon="3.75809">
        <ele>105.9</ele>
        <time>2019-07-07T05:33:43Z</time>
      </trkpt>
      <trkpt lat="43.65059" lon="3.75807">
        <ele>106.3</ele>
        <time>2019-07-07T05:33:45Z</time>
      </trkpt>
      <trkpt lat="43.65056" lon="3.75803">
        <ele>106.7</ele>
        <time>2019-07-07T05:33:47Z</time>
      </trkpt>
      <trkpt lat="43.65053" lon="3.75801">
        <ele>107</ele>
        <time>2019-07-07T05:33:49Z</time>
      </trkpt>
      <trkpt lat="43.65051" lon="3.75798">
        <ele>107.3</ele>
        <time>2019-07-07T05:33:51Z</time>
      </trkpt>
      <trkpt lat="43.65048" lon="3.75796">
        <ele>107.5</ele>
        <time>2019-07-07T05:33:54Z</time>
      </trkpt>
      <trkpt lat="43.65045" lon="3.75794">
        <ele>107.8</ele>
        <time>2019-07-07T05:33:56Z</time>
      </trkpt>
      <trkpt lat="43.65043" lon="3.7579">
        <ele>108</ele>
        <time>2019-07-07T05:33:59Z</time>
      </trkpt>
      <trkpt lat="43.65038" lon="3.75784">
        <ele>108.5</ele>
        <time>2019-07-07T05:34:01Z</time>
      </trkpt>
      <trkpt lat="43.65036" lon="3.75782">
        <ele>108.7</ele>
        <time>2019-07-07T05:34:02Z</time>
      </trkpt>
      <trkpt lat="43.65036" lon="3.75776">
        <ele>109</ele>
        <time>2019-07-07T05:34:03Z</time>
      </trkpt>
      <trkpt lat="43.65033" lon="3.75774">
        <ele>109.2</ele>
        <time>2019-07-07T05:34:04Z</time>
      </trkpt>
      <trkpt lat="43.65028" lon="3.75776">
        <ele>109.7</ele>
        <time>2019-07-07T05:34:06Z</time>
      </trkpt>
      <trkpt lat="43.65022" lon="3.75775">
        <ele>110.1</ele>
        <time>2019-07-07T05:34:08Z</time>
      </trkpt>
      <trkpt lat="43.6502" lon="3.75772">
        <ele>110.3</ele>
        <time>2019-07-07T05:34:11Z</time>
      </trkpt>
      <trkpt lat="43.65017" lon="3.75771">
        <ele>110.6</ele>
        <time>2019-07-07T05:34:13Z</time>
      </trkpt>
      <trkpt lat="43.65015" lon="3.75766">
        <ele>111</ele>
        <time>2019-07-07T05:34:16Z</time>
      </trkpt>
      <trkpt lat="43.65012" lon="3.75765">
        <ele>111.3</ele>
        <time>2019-07-07T05:34:17Z</time>
      </trkpt>
      <trkpt lat="43.65009" lon="3.75763">
        <ele>111.7</ele>
        <time>2019-07-07T05:34:19Z</time>
      </trkpt>
      <trkpt lat="43.65007" lon="3.7576">
        <ele>112</ele>
        <time>2019-07-07T05:34:21Z</time>
      </trkpt>
      <trkpt lat="43.65004" lon="3.75757">
        <ele>112.3</ele>
        <time>2019-07-07T05:34:23Z</time>
      </trkpt>
      <trkpt lat="43.65002" lon="3.75755">
        <ele>112.6</ele>
        <time>2019-07-07T05:34:25Z</time>
      </trkpt>
      <trkpt lat="43.64998" lon="3.75751">
        <ele>113.1</ele>
        <time>2019-07-07T05:34:28Z</time>
      </trkpt>
      <trkpt lat="43.64995" lon="3.75748">
        <ele>113.5</ele>
        <time>2019-07-07T05:34:30Z</time>
      </trkpt>
      <trkpt lat="43.64992" lon="3.75747">
        <ele>113.7</ele>
        <time>2019-07-07T05:34:32Z</time>
      </trkpt>
      <trkpt lat="43.6499" lon="3.75745">
        <ele>114</ele>
        <time>2019-07-07T05:34:34Z</time>
      </trkpt>
      <trkpt lat="43.64986" lon="3.75744">
        <ele>114.2</ele>
        <time>2019-07-07T05:34:37Z</time>
      </trkpt>
      <trkpt lat="43.64983" lon="3.75744">
        <ele>114.4</ele>
        <time>2019-07-07T05:34:39Z</time>
      </trkpt>
      <trkpt lat="43.6498" lon="3.75739">
        <ele>114.5</ele>
        <time>2019-07-07T05:34:41Z</time>
      </trkpt>
      <trkpt lat="43.64976" lon="3.75735">
        <ele>114.7</ele>
        <time>2019-07-07T05:34:44Z</time>
      </trkpt>
      <trkpt lat="43.64972" lon="3.75733">
        <ele>114.8</ele>
        <time>2019-07-07T05:34:46Z</time>
      </trkpt>
      <trkpt lat="43.64969" lon="3.75732">
        <ele>114.9</ele>
        <time>2019-07-07T05:34:48Z</time>
      </trkpt>
      <trkpt lat="43.64966" lon="3.7573">
        <ele>115</ele>
        <time>2019-07-07T05:34:49Z</time>
      </trkpt>
      <trkpt lat="43.64963" lon="3.75727">
        <ele>115.1</ele>
        <time>2019-07-07T05:34:51Z</time>
      </trkpt>
      <trkpt lat="43.64959" lon="3.75723">
        <ele>115.2</ele>
        <time>2019-07-07T05:34:53Z</time>
      </trkpt>
      <trkpt lat="43.64955" lon="3.75718">
        <ele>115.3</ele>
        <time>2019-07-07T05:34:55Z</time>
      </trkpt>
      <trkpt lat="43.64952" lon="3.75718">
        <ele>115.3</ele>
        <time>2019-07-07T05:34:56Z</time>
      </trkpt>
      <trkpt lat="43.64949" lon="3.75713">
        <ele>115.4</ele>
        <time>2019-07-07T05:34:57Z</time>
      </trkpt>
      <trkpt lat="43.64947" lon="3.75711">
        <ele>115.5</ele>
        <time>2019-07-07T05:34:58Z</time>
      </trkpt>
      <trkpt lat="43.64944" lon="3.75705">
        <ele>115.5</ele>
        <time>2019-07-07T05:35:00Z</time>
      </trkpt>
      <trkpt lat="43.64942" lon="3.757">
        <ele>115.6</ele>
        <time>2019-07-07T05:35:02Z</time>
      </trkpt>
      <trkpt lat="43.6494" lon="3.75694">
        <ele>115.7</ele>
        <time>2019-07-07T05:35:03Z</time>
      </trkpt>
      <trkpt lat="43.64937" lon="3.75693">
        <ele>115.8</ele>
        <time>2019-07-07T05:35:18Z</time>
      </trkpt>
      <trkpt lat="43.64938" lon="3.75688">
        <ele>115.9</ele>
        <time>2019-07-07T05:35:20Z</time>
      </trkpt>
      <trkpt lat="43.64935" lon="3.75686">
        <ele>116</ele>
        <time>2019-07-07T05:35:22Z</time>
      </trkpt>
      <trkpt lat="43.6493" lon="3.75687">
        <ele>116.1</ele>
        <time>2019-07-07T05:35:24Z</time>
      </trkpt>
      <trkpt lat="43.64926" lon="3.75684">
        <ele>116.2</ele>
        <time>2019-07-07T05:35:26Z</time>
      </trkpt>
      <trkpt lat="43.64921" lon="3.7568">
        <ele>116.4</ele>
        <time>2019-07-07T05:35:28Z</time>
      </trkpt>
      <trkpt lat="43.64917" lon="3.75678">
        <ele>116.5</ele>
        <time>2019-07-07T05:35:30Z</time>
      </trkpt>
      <trkpt lat="43.64914" lon="3.75676">
        <ele>116.6</ele>
        <time>2019-07-07T05:35:33Z</time>
      </trkpt>
      <trkpt lat="43.64911" lon="3.75676">
        <ele>116.7</ele>
        <time>2019-07-07T05:35:39Z</time>
      </trkpt>
      <trkpt lat="43.64907" lon="3.75671">
        <ele>116.9</ele>
        <time>2019-07-07T05:35:42Z</time>
      </trkpt>
      <trkpt lat="43.64904" lon="3.75666">
        <ele>117</ele>
        <time>2019-07-07T05:35:43Z</time>
      </trkpt>
      <trkpt lat="43.64901" lon="3.75661">
        <ele>117.2</ele>
        <time>2019-07-07T05:35:44Z</time>
      </trkpt>
      <trkpt lat="43.64899" lon="3.75656">
        <ele>117.3</ele>
        <time>2019-07-07T05:35:45Z</time>
      </trkpt>
      <trkpt lat="43.64896" lon="3.75653">
        <ele>117.4</ele>
        <time>2019-07-07T05:35:46Z</time>
      </trkpt>
      <trkpt lat="43.64895" lon="3.75645">
        <ele>117.5</ele>
        <time>2019-07-07T05:35:48Z</time>
      </trkpt>
      <trkpt lat="43.64892" lon="3.75642">
        <ele>117.6</ele>
        <time>2019-07-07T05:35:50Z</time>
      </trkpt>
      <trkpt lat="43.64888" lon="3.75638">
        <ele>117.9</ele>
        <time>2019-07-07T05:35:52Z</time>
      </trkpt>
      <trkpt lat="43.64885" lon="3.75634">
        <ele>118</ele>
        <time>2019-07-07T05:35:54Z</time>
      </trkpt>
      <trkpt lat="43.64883" lon="3.7563">
        <ele>118.2</ele>
        <time>2019-07-07T05:35:56Z</time>
      </trkpt>
      <trkpt lat="43.64878" lon="3.75627">
        <ele>118.4</ele>
        <time>2019-07-07T05:36:02Z</time>
      </trkpt>
      <trkpt lat="43.64875" lon="3.75624">
        <ele>118.5</ele>
        <time>2019-07-07T05:36:06Z</time>
      </trkpt>
      <trkpt lat="43.64873" lon="3.75621">
        <ele>118.7</ele>
        <time>2019-07-07T05:36:09Z</time>
      </trkpt>
      <trkpt lat="43.6487" lon="3.75618">
        <ele>118.8</ele>
        <time>2019-07-07T05:36:10Z</time>
      </trkpt>
      <trkpt lat="43.64869" lon="3.75613">
        <ele>119</ele>
        <time>2019-07-07T05:36:12Z</time>
      </trkpt>
      <trkpt lat="43.64866" lon="3.75608">
        <ele>119.2</ele>
        <time>2019-07-07T05:36:15Z</time>
      </trkpt>
      <trkpt lat="43.64864" lon="3.75602">
        <ele>119.5</ele>
        <time>2019-07-07T05:36:17Z</time>
      </trkpt>
      <trkpt lat="43.64864" lon="3.75598">
        <ele>119.7</ele>
        <time>2019-07-07T05:36:19Z</time>
      </trkpt>
      <trkpt lat="43.64858" lon="3.75598">
        <ele>119.9</ele>
        <time>2019-07-07T05:36:21Z</time>
      </trkpt>
      <trkpt lat="43.64855" lon="3.75595">
        <ele>120.1</ele>
        <time>2019-07-07T05:36:22Z</time>
      </trkpt>
      <trkpt lat="43.64854" lon="3.75592">
        <ele>120.3</ele>
        <time>2019-07-07T05:36:23Z</time>
      </trkpt>
      <trkpt lat="43.64852" lon="3.7559">
        <ele>120.5</ele>
        <time>2019-07-07T05:36:24Z</time>
      </trkpt>
      <trkpt lat="43.6485" lon="3.75586">
        <ele>120.7</ele>
        <time>2019-07-07T05:36:25Z</time>
      </trkpt>
      <trkpt lat="43.64846" lon="3.75583">
        <ele>120.9</ele>
        <time>2019-07-07T05:36:28Z</time>
      </trkpt>
      <trkpt lat="43.64845" lon="3.75579">
        <ele>121.1</ele>
        <time>2019-07-07T05:36:29Z</time>
      </trkpt>
      <trkpt lat="43.64843" lon="3.75573">
        <ele>121.4</ele>
        <time>2019-07-07T05:36:31Z</time>
      </trkpt>
      <trkpt lat="43.6484" lon="3.75569">
        <ele>121.6</ele>
        <time>2019-07-07T05:36:33Z</time>
      </trkpt>
      <trkpt lat="43.64837" lon="3.75568">
        <ele>121.7</ele>
        <time>2019-07-07T05:36:34Z</time>
      </trkpt>
      <trkpt lat="43.64833" lon="3.75564">
        <ele>121.9</ele>
        <time>2019-07-07T05:36:36Z</time>
      </trkpt>
      <trkpt lat="43.64828" lon="3.7556">
        <ele>122.2</ele>
        <time>2019-07-07T05:36:38Z</time>
      </trkpt>
      <trkpt lat="43.64826" lon="3.75558">
        <ele>122.3</ele>
        <time>2019-07-07T05:36:39Z</time>
      </trkpt>
      <trkpt lat="43.64824" lon="3.75555">
        <ele>122.5</ele>
        <time>2019-07-07T05:36:41Z</time>
      </trkpt>
      <trkpt lat="43.64825" lon="3.75551">
        <ele>122.7</ele>
        <time>2019-07-07T05:36:42Z</time>
      </trkpt>
      <trkpt lat="43.64822" lon="3.75548">
        <ele>122.9</ele>
        <time>2019-07-07T05:36:44Z</time>
      </trkpt>
      <trkpt lat="43.64818" lon="3.75547">
        <ele>123.1</ele>
        <time>2019-07-07T05:36:45Z</time>
      </trkpt>
      <trkpt lat="43.64815" lon="3.75546">
        <ele>123.3</ele>
        <time>2019-07-07T05:36:46Z</time>
      </trkpt>
      <trkpt lat="43.6481" lon="3.75542">
        <ele>124.4</ele>
        <time>2019-07-07T05:36:48Z</time>
      </trkpt>
      <trkpt lat="43.64807" lon="3.75539">
        <ele>124.7</ele>
        <time>2019-07-07T05:36:50Z</time>
      </trkpt>
      <trkpt lat="43.64803" lon="3.75535">
        <ele>125</ele>
        <time>2019-07-07T05:36:52Z</time>
      </trkpt>
      <trkpt lat="43.64803" lon="3.75528">
        <ele>125.2</ele>
        <time>2019-07-07T05:36:54Z</time>
      </trkpt>
      <trkpt lat="43.64802" lon="3.75522">
        <ele>125.4</ele>
        <time>2019-07-07T05:36:56Z</time>
      </trkpt>
      <trkpt lat="43.648" lon="3.75521">
        <ele>125.6</ele>
        <time>2019-07-07T05:36:57Z</time>
      </trkpt>
      <trkpt lat="43.64796" lon="3.75518">
        <ele>125.8</ele>
        <time>2019-07-07T05:36:59Z</time>
      </trkpt>
      <trkpt lat="43.64792" lon="3.75514">
        <ele>126.2</ele>
        <time>2019-07-07T05:37:01Z</time>
      </trkpt>
      <trkpt lat="43.64789" lon="3.75512">
        <ele>126.5</ele>
        <time>2019-07-07T05:37:03Z</time>
      </trkpt>
      <trkpt lat="43.64786" lon="3.75507">
        <ele>126.9</ele>
        <time>2019-07-07T05:37:05Z</time>
      </trkpt>
      <trkpt lat="43.64783" lon="3.75502">
        <ele>127.4</ele>
        <time>2019-07-07T05:37:06Z</time>
      </trkpt>
      <trkpt lat="43.64781" lon="3.755">
        <ele>127.7</ele>
        <time>2019-07-07T05:37:07Z</time>
      </trkpt>
      <trkpt lat="43.64778" lon="3.75497">
        <ele>127.8</ele>
        <time>2019-07-07T05:37:08Z</time>
      </trkpt>
      <trkpt lat="43.64774" lon="3.75489">
        <ele>128.2</ele>
        <time>2019-07-07T05:37:10Z</time>
      </trkpt>
      <trkpt lat="43.64773" lon="3.75486">
        <ele>128.4</ele>
        <time>2019-07-07T05:37:11Z</time>
      </trkpt>
      <trkpt lat="43.6477" lon="3.75485">
        <ele>128.5</ele>
        <time>2019-07-07T05:37:12Z</time>
      </trkpt>
      <trkpt lat="43.64767" lon="3.75481">
        <ele>128.8</ele>
        <time>2019-07-07T05:37:13Z</time>
      </trkpt>
      <trkpt lat="43.64766" lon="3.75474">
        <ele>129</ele>
        <time>2019-07-07T05:37:14Z</time>
      </trkpt>
      <trkpt lat="43.64763" lon="3.75469">
        <ele>129.3</ele>
        <time>2019-07-07T05:37:15Z</time>
      </trkpt>
      <trkpt lat="43.64761" lon="3.75464">
        <ele>129.6</ele>
        <time>2019-07-07T05:37:16Z</time>
      </trkpt>
      <trkpt lat="43.64756" lon="3.75458">
        <ele>130</ele>
        <time>2019-07-07T05:37:17Z</time>
      </trkpt>
      <trkpt lat="43.6475" lon="3.75457">
        <ele>130.5</ele>
        <time>2019-07-07T05:37:18Z</time>
      </trkpt>
      <trkpt lat="43.64747" lon="3.75456">
        <ele>131.1</ele>
        <time>2019-07-07T05:37:19Z</time>
      </trkpt>
      <trkpt lat="43.64744" lon="3.75455">
        <ele>131.1</ele>
        <time>2019-07-07T05:37:20Z</time>
      </trkpt>
      <trkpt lat="43.6474" lon="3.75452">
        <ele>131.1</ele>
        <time>2019-07-07T05:37:22Z</time>
      </trkpt>
      <trkpt lat="43.6474" lon="3.75445">
        <ele>131.1</ele>
        <time>2019-07-07T05:37:24Z</time>
      </trkpt>
      <trkpt lat="43.6474" lon="3.7544">
        <ele>131</ele>
        <time>2019-07-07T05:37:26Z</time>
      </trkpt>
      <trkpt lat="43.64739" lon="3.75436">
        <ele>131</ele>
        <time>2019-07-07T05:37:28Z</time>
      </trkpt>
      <trkpt lat="43.64738" lon="3.7543">
        <ele>131</ele>
        <time>2019-07-07T05:37:30Z</time>
      </trkpt>
      <trkpt lat="43.64736" lon="3.75425">
        <ele>131</ele>
        <time>2019-07-07T05:37:32Z</time>
      </trkpt>
      <trkpt lat="43.64735" lon="3.7542">
        <ele>131</ele>
        <time>2019-07-07T05:37:34Z</time>
      </trkpt>
      <trkpt lat="43.64732" lon="3.75415">
        <ele>130.9</ele>
        <time>2019-07-07T05:37:36Z</time>
      </trkpt>
      <trkpt lat="43.64731" lon="3.7541">
        <ele>130.8</ele>
        <time>2019-07-07T05:37:38Z</time>
      </trkpt>
      <trkpt lat="43.64727" lon="3.75407">
        <ele>130.7</ele>
        <time>2019-07-07T05:37:40Z</time>
      </trkpt>
      <trkpt lat="43.64725" lon="3.75404">
        <ele>130.6</ele>
        <time>2019-07-07T05:37:42Z</time>
      </trkpt>
      <trkpt lat="43.64722" lon="3.75402">
        <ele>130.5</ele>
        <time>2019-07-07T05:37:45Z</time>
      </trkpt>
      <trkpt lat="43.6472" lon="3.75399">
        <ele>130.4</ele>
        <time>2019-07-07T05:37:47Z</time>
      </trkpt>
      <trkpt lat="43.64718" lon="3.7539">
        <ele>130.3</ele>
        <time>2019-07-07T05:41:46Z</time>
      </trkpt>
      <trkpt lat="43.64715" lon="3.75387">
        <ele>130.2</ele>
        <time>2019-07-07T05:41:48Z</time>
      </trkpt>
      <trkpt lat="43.64711" lon="3.75383">
        <ele>130.1</ele>
        <time>2019-07-07T05:41:50Z</time>
      </trkpt>
      <trkpt lat="43.64706" lon="3.7538">
        <ele>130.1</ele>
        <time>2019-07-07T05:41:52Z</time>
      </trkpt>
      <trkpt lat="43.64704" lon="3.75377">
        <ele>130.1</ele>
        <time>2019-07-07T05:41:53Z</time>
      </trkpt>
      <trkpt lat="43.647" lon="3.75372">
        <ele>130.2</ele>
        <time>2019-07-07T05:41:55Z</time>
      </trkpt>
      <trkpt lat="43.64696" lon="3.75367">
        <ele>130.5</ele>
        <time>2019-07-07T05:41:57Z</time>
      </trkpt>
      <trkpt lat="43.64694" lon="3.75365">
        <ele>130.6</ele>
        <time>2019-07-07T05:41:58Z</time>
      </trkpt>
      <trkpt lat="43.64692" lon="3.75362">
        <ele>130.8</ele>
        <time>2019-07-07T05:41:59Z</time>
      </trkpt>
      <trkpt lat="43.64689" lon="3.75359">
        <ele>131.1</ele>
        <time>2019-07-07T05:42:00Z</time>
      </trkpt>
      <trkpt lat="43.64687" lon="3.75357">
        <ele>131.4</ele>
        <time>2019-07-07T05:42:01Z</time>
      </trkpt>
      <trkpt lat="43.64685" lon="3.75352">
        <ele>131.8</ele>
        <time>2019-07-07T05:42:02Z</time>
      </trkpt>
      <trkpt lat="43.64682" lon="3.75348">
        <ele>132.3</ele>
        <time>2019-07-07T05:42:03Z</time>
      </trkpt>
      <trkpt lat="43.64679" lon="3.75344">
        <ele>132.7</ele>
        <time>2019-07-07T05:42:04Z</time>
      </trkpt>
      <trkpt lat="43.64673" lon="3.75341">
        <ele>133.2</ele>
        <time>2019-07-07T05:42:05Z</time>
      </trkpt>
      <trkpt lat="43.64668" lon="3.75336">
        <ele>133.7</ele>
        <time>2019-07-07T05:42:06Z</time>
      </trkpt>
      <trkpt lat="43.64664" lon="3.75332">
        <ele>134.2</ele>
        <time>2019-07-07T05:42:08Z</time>
      </trkpt>
      <trkpt lat="43.64662" lon="3.75329">
        <ele>134.5</ele>
        <time>2019-07-07T05:42:09Z</time>
      </trkpt>
      <trkpt lat="43.64659" lon="3.75326">
        <ele>134.7</ele>
        <time>2019-07-07T05:42:10Z</time>
      </trkpt>
      <trkpt lat="43.64657" lon="3.75324">
        <ele>135</ele>
        <time>2019-07-07T05:42:11Z</time>
      </trkpt>
      <trkpt lat="43.64653" lon="3.75322">
        <ele>135.2</ele>
        <time>2019-07-07T05:42:13Z</time>
      </trkpt>
      <trkpt lat="43.64649" lon="3.75318">
        <ele>135.4</ele>
        <time>2019-07-07T05:42:15Z</time>
      </trkpt>
      <trkpt lat="43.64648" lon="3.75314">
        <ele>135.6</ele>
        <time>2019-07-07T05:42:16Z</time>
      </trkpt>
      <trkpt lat="43.64645" lon="3.75312">
        <ele>135.8</ele>
        <time>2019-07-07T05:42:19Z</time>
      </trkpt>
      <trkpt lat="43.6464" lon="3.75303">
        <ele>136.1</ele>
        <time>2019-07-07T05:42:21Z</time>
      </trkpt>
      <trkpt lat="43.64637" lon="3.753">
        <ele>136.3</ele>
        <time>2019-07-07T05:42:24Z</time>
      </trkpt>
      <trkpt lat="43.64634" lon="3.7529">
        <ele>137.1</ele>
        <time>2019-07-07T05:42:26Z</time>
      </trkpt>
      <trkpt lat="43.64629" lon="3.75289">
        <ele>137.5</ele>
        <time>2019-07-07T05:42:28Z</time>
      </trkpt>
      <trkpt lat="43.64626" lon="3.75287">
        <ele>137.9</ele>
        <time>2019-07-07T05:42:30Z</time>
      </trkpt>
      <trkpt lat="43.64623" lon="3.75283">
        <ele>138.4</ele>
        <time>2019-07-07T05:42:32Z</time>
      </trkpt>
      <trkpt lat="43.64621" lon="3.7528">
        <ele>138.7</ele>
        <time>2019-07-07T05:42:34Z</time>
      </trkpt>
      <trkpt lat="43.64618" lon="3.75278">
        <ele>138.9</ele>
        <time>2019-07-07T05:42:37Z</time>
      </trkpt>
      <trkpt lat="43.64615" lon="3.75272">
        <ele>139.3</ele>
        <time>2019-07-07T05:42:39Z</time>
      </trkpt>
      <trkpt lat="43.64612" lon="3.75269">
        <ele>139.6</ele>
        <time>2019-07-07T05:42:41Z</time>
      </trkpt>
      <trkpt lat="43.6461" lon="3.75265">
        <ele>139.8</ele>
        <time>2019-07-07T05:42:43Z</time>
      </trkpt>
      <trkpt lat="43.64605" lon="3.75261">
        <ele>140.2</ele>
        <time>2019-07-07T05:42:45Z</time>
      </trkpt>
      <trkpt lat="43.64602" lon="3.75257">
        <ele>140.4</ele>
        <time>2019-07-07T05:42:48Z</time>
      </trkpt>
      <trkpt lat="43.64598" lon="3.75253">
        <ele>140.7</ele>
        <time>2019-07-07T05:42:49Z</time>
      </trkpt>
      <trkpt lat="43.64595" lon="3.75253">
        <ele>140.8</ele>
        <time>2019-07-07T05:42:51Z</time>
      </trkpt>
      <trkpt lat="43.64592" lon="3.7525">
        <ele>140.9</ele>
        <time>2019-07-07T05:42:54Z</time>
      </trkpt>
      <trkpt lat="43.64589" lon="3.75248">
        <ele>141</ele>
        <time>2019-07-07T05:42:57Z</time>
      </trkpt>
      <trkpt lat="43.64585" lon="3.75245">
        <ele>141.1</ele>
        <time>2019-07-07T05:42:59Z</time>
      </trkpt>
      <trkpt lat="43.64582" lon="3.75242">
        <ele>141.2</ele>
        <time>2019-07-07T05:43:01Z</time>
      </trkpt>
      <trkpt lat="43.64578" lon="3.75233">
        <ele>141.5</ele>
        <time>2019-07-07T05:43:03Z</time>
      </trkpt>
      <trkpt lat="43.64576" lon="3.75229">
        <ele>141.7</ele>
        <time>2019-07-07T05:43:06Z</time>
      </trkpt>
      <trkpt lat="43.64575" lon="3.75225">
        <ele>141.8</ele>
        <time>2019-07-07T05:43:08Z</time>
      </trkpt>
      <trkpt lat="43.64573" lon="3.75221">
        <ele>142</ele>
        <time>2019-07-07T05:43:11Z</time>
      </trkpt>
      <trkpt lat="43.64571" lon="3.75217">
        <ele>142.3</ele>
        <time>2019-07-07T05:43:13Z</time>
      </trkpt>
      <trkpt lat="43.64569" lon="3.75215">
        <ele>142.5</ele>
        <time>2019-07-07T05:43:15Z</time>
      </trkpt>
      <trkpt lat="43.64566" lon="3.75213">
        <ele>142.6</ele>
        <time>2019-07-07T05:43:29Z</time>
      </trkpt>
      <trkpt lat="43.64564" lon="3.75208">
        <ele>143</ele>
        <time>2019-07-07T05:43:32Z</time>
      </trkpt>
      <trkpt lat="43.64564" lon="3.75203">
        <ele>143.3</ele>
        <time>2019-07-07T05:43:33Z</time>
      </trkpt>
      <trkpt lat="43.64562" lon="3.752">
        <ele>143.6</ele>
        <time>2019-07-07T05:43:34Z</time>
      </trkpt>
      <trkpt lat="43.64563" lon="3.75195">
        <ele>144</ele>
        <time>2019-07-07T05:43:35Z</time>
      </trkpt>
      <trkpt lat="43.64562" lon="3.75191">
        <ele>144.1</ele>
        <time>2019-07-07T05:43:37Z</time>
      </trkpt>
      <trkpt lat="43.64563" lon="3.75186">
        <ele>144.3</ele>
        <time>2019-07-07T05:43:39Z</time>
      </trkpt>
      <trkpt lat="43.64563" lon="3.75181">
        <ele>144.5</ele>
        <time>2019-07-07T05:43:40Z</time>
      </trkpt>
      <trkpt lat="43.64564" lon="3.75178">
        <ele>144.7</ele>
        <time>2019-07-07T05:43:42Z</time>
      </trkpt>
      <trkpt lat="43.64564" lon="3.75174">
        <ele>144.8</ele>
        <time>2019-07-07T05:43:43Z</time>
      </trkpt>
      <trkpt lat="43.64565" lon="3.75166">
        <ele>145</ele>
        <time>2019-07-07T05:43:45Z</time>
      </trkpt>
      <trkpt lat="43.64565" lon="3.7516">
        <ele>145.1</ele>
        <time>2019-07-07T05:43:46Z</time>
      </trkpt>
      <trkpt lat="43.64564" lon="3.75154">
        <ele>145.3</ele>
        <time>2019-07-07T05:43:47Z</time>
      </trkpt>
      <trkpt lat="43.64562" lon="3.75149">
        <ele>145.5</ele>
        <time>2019-07-07T05:43:49Z</time>
      </trkpt>
      <trkpt lat="43.64562" lon="3.75143">
        <ele>145.7</ele>
        <time>2019-07-07T05:43:51Z</time>
      </trkpt>
      <trkpt lat="43.64563" lon="3.75138">
        <ele>145.8</ele>
        <time>2019-07-07T05:43:54Z</time>
      </trkpt>
      <trkpt lat="43.64564" lon="3.75133">
        <ele>145.9</ele>
        <time>2019-07-07T05:43:56Z</time>
      </trkpt>
      <trkpt lat="43.64565" lon="3.75129">
        <ele>145.8</ele>
        <time>2019-07-07T05:43:58Z</time>
      </trkpt>
      <trkpt lat="43.64566" lon="3.75124">
        <ele>145.9</ele>
        <time>2019-07-07T05:44:00Z</time>
      </trkpt>
      <trkpt lat="43.64566" lon="3.7512">
        <ele>145.9</ele>
        <time>2019-07-07T05:44:02Z</time>
      </trkpt>
      <trkpt lat="43.64566" lon="3.75116">
        <ele>146</ele>
        <time>2019-07-07T05:44:04Z</time>
      </trkpt>
      <trkpt lat="43.64567" lon="3.75111">
        <ele>146.1</ele>
        <time>2019-07-07T05:44:06Z</time>
      </trkpt>
      <trkpt lat="43.64568" lon="3.75105">
        <ele>146</ele>
        <time>2019-07-07T05:44:08Z</time>
      </trkpt>
      <trkpt lat="43.64569" lon="3.75101">
        <ele>146.1</ele>
        <time>2019-07-07T05:44:11Z</time>
      </trkpt>
      <trkpt lat="43.64569" lon="3.75095">
        <ele>146.2</ele>
        <time>2019-07-07T05:44:15Z</time>
      </trkpt>
      <trkpt lat="43.6457" lon="3.7509">
        <ele>146.1</ele>
        <time>2019-07-07T05:44:17Z</time>
      </trkpt>
      <trkpt lat="43.64572" lon="3.75082">
        <ele>146.2</ele>
        <time>2019-07-07T05:44:21Z</time>
      </trkpt>
      <trkpt lat="43.64573" lon="3.75078">
        <ele>146.2</ele>
        <time>2019-07-07T05:44:22Z</time>
      </trkpt>
      <trkpt lat="43.64572" lon="3.75074">
        <ele>146.2</ele>
        <time>2019-07-07T05:44:23Z</time>
      </trkpt>
      <trkpt lat="43.64571" lon="3.75067">
        <ele>146.2</ele>
        <time>2019-07-07T05:44:25Z</time>
      </trkpt>
      <trkpt lat="43.64569" lon="3.75061">
        <ele>146.4</ele>
        <time>2019-07-07T05:44:27Z</time>
      </trkpt>
      <trkpt lat="43.64571" lon="3.75057">
        <ele>146.2</ele>
        <time>2019-07-07T05:44:29Z</time>
      </trkpt>
      <trkpt lat="43.64571" lon="3.75043">
        <ele>146</ele>
        <time>2019-07-07T05:44:32Z</time>
      </trkpt>
      <trkpt lat="43.64568" lon="3.75038">
        <ele>146.2</ele>
        <time>2019-07-07T05:44:34Z</time>
      </trkpt>
      <trkpt lat="43.64567" lon="3.75032">
        <ele>146.1</ele>
        <time>2019-07-07T05:44:35Z</time>
      </trkpt>
      <trkpt lat="43.64566" lon="3.75023">
        <ele>146.3</ele>
        <time>2019-07-07T05:44:36Z</time>
      </trkpt>
      <trkpt lat="43.64565" lon="3.75018">
        <ele>146.3</ele>
        <time>2019-07-07T05:44:37Z</time>
      </trkpt>
      <trkpt lat="43.64565" lon="3.75013">
        <ele>146.3</ele>
        <time>2019-07-07T05:44:38Z</time>
      </trkpt>
      <trkpt lat="43.64566" lon="3.75009">
        <ele>146.3</ele>
        <time>2019-07-07T05:44:39Z</time>
      </trkpt>
      <trkpt lat="43.64566" lon="3.75003">
        <ele>146.3</ele>
        <time>2019-07-07T05:44:40Z</time>
      </trkpt>
      <trkpt lat="43.64565" lon="3.75">
        <ele>146.2</ele>
        <time>2019-07-07T05:44:41Z</time>
      </trkpt>
      <trkpt lat="43.64564" lon="3.74996">
        <ele>146.2</ele>
        <time>2019-07-07T05:44:42Z</time>
      </trkpt>
      <trkpt lat="43.64563" lon="3.74989">
        <ele>146.5</ele>
        <time>2019-07-07T05:44:43Z</time>
      </trkpt>
      <trkpt lat="43.64562" lon="3.74984">
        <ele>146.5</ele>
        <time>2019-07-07T05:44:44Z</time>
      </trkpt>
      <trkpt lat="43.64561" lon="3.74979">
        <ele>146.5</ele>
        <time>2019-07-07T05:44:45Z</time>
      </trkpt>
      <trkpt lat="43.64561" lon="3.74974">
        <ele>146.5</ele>
        <time>2019-07-07T05:44:46Z</time>
      </trkpt>
      <trkpt lat="43.64563" lon="3.7497">
        <ele>146.5</ele>
        <time>2019-07-07T05:44:47Z</time>
      </trkpt>
      <trkpt lat="43.64563" lon="3.74965">
        <ele>146.5</ele>
        <time>2019-07-07T05:44:49Z</time>
      </trkpt>
      <trkpt lat="43.6456" lon="3.7496">
        <ele>146.8</ele>
        <time>2019-07-07T05:44:50Z</time>
      </trkpt>
      <trkpt lat="43.64562" lon="3.74956">
        <ele>146.4</ele>
        <time>2019-07-07T05:44:51Z</time>
      </trkpt>
      <trkpt lat="43.64559" lon="3.74951">
        <ele>146.8</ele>
        <time>2019-07-07T05:44:53Z</time>
      </trkpt>
      <trkpt lat="43.64556" lon="3.74946">
        <ele>147.1</ele>
        <time>2019-07-07T05:44:55Z</time>
      </trkpt>
      <trkpt lat="43.64552" lon="3.74941">
        <ele>148</ele>
        <time>2019-07-07T05:44:56Z</time>
      </trkpt>
      <trkpt lat="43.6455" lon="3.74934">
        <ele>147.9</ele>
        <time>2019-07-07T05:44:57Z</time>
      </trkpt>
      <trkpt lat="43.64548" lon="3.74923">
        <ele>148.3</ele>
        <time>2019-07-07T05:44:59Z</time>
      </trkpt>
      <trkpt lat="43.64546" lon="3.7492">
        <ele>148.3</ele>
        <time>2019-07-07T05:45:00Z</time>
      </trkpt>
      <trkpt lat="43.64545" lon="3.74915">
        <ele>148.7</ele>
        <time>2019-07-07T05:45:01Z</time>
      </trkpt>
      <trkpt lat="43.64545" lon="3.74908">
        <ele>148.7</ele>
        <time>2019-07-07T05:45:02Z</time>
      </trkpt>
      <trkpt lat="43.64545" lon="3.74901">
        <ele>148.7</ele>
        <time>2019-07-07T05:45:03Z</time>
      </trkpt>
      <trkpt lat="43.64546" lon="3.74892">
        <ele>148.2</ele>
        <time>2019-07-07T05:45:04Z</time>
      </trkpt>
      <trkpt lat="43.64544" lon="3.74889">
        <ele>148.6</ele>
        <time>2019-07-07T05:45:05Z</time>
      </trkpt>
      <trkpt lat="43.64541" lon="3.74887">
        <ele>149</ele>
        <time>2019-07-07T05:45:06Z</time>
      </trkpt>
      <trkpt lat="43.64537" lon="3.74881">
        <ele>149.3</ele>
        <time>2019-07-07T05:45:07Z</time>
      </trkpt>
      <trkpt lat="43.64534" lon="3.74878">
        <ele>149.7</ele>
        <time>2019-07-07T05:45:08Z</time>
      </trkpt>
      <trkpt lat="43.64533" lon="3.74874">
        <ele>150.1</ele>
        <time>2019-07-07T05:45:09Z</time>
      </trkpt>
      <trkpt lat="43.6453" lon="3.74872">
        <ele>150.6</ele>
        <time>2019-07-07T05:45:10Z</time>
      </trkpt>
      <trkpt lat="43.64528" lon="3.74866">
        <ele>150.6</ele>
        <time>2019-07-07T05:45:11Z</time>
      </trkpt>
      <trkpt lat="43.64525" lon="3.74862">
        <ele>151</ele>
        <time>2019-07-07T05:45:12Z</time>
      </trkpt>
      <trkpt lat="43.64525" lon="3.74856">
        <ele>150.8</ele>
        <time>2019-07-07T05:45:13Z</time>
      </trkpt>
      <trkpt lat="43.64522" lon="3.74851">
        <ele>151.1</ele>
        <time>2019-07-07T05:45:14Z</time>
      </trkpt>
      <trkpt lat="43.64521" lon="3.74845">
        <ele>151</ele>
        <time>2019-07-07T05:45:15Z</time>
      </trkpt>
      <trkpt lat="43.64519" lon="3.74841">
        <ele>151.2</ele>
        <time>2019-07-07T05:45:16Z</time>
      </trkpt>
      <trkpt lat="43.64518" lon="3.74836">
        <ele>151.1</ele>
        <time>2019-07-07T05:45:17Z</time>
      </trkpt>
      <trkpt lat="43.64518" lon="3.74832">
        <ele>150.9</ele>
        <time>2019-07-07T05:45:18Z</time>
      </trkpt>
      <trkpt lat="43.64516" lon="3.74829">
        <ele>151.1</ele>
        <time>2019-07-07T05:45:19Z</time>
      </trkpt>
      <trkpt lat="43.64514" lon="3.74819">
        <ele>151.1</ele>
        <time>2019-07-07T05:45:21Z</time>
      </trkpt>
      <trkpt lat="43.64513" lon="3.74813">
        <ele>150.6</ele>
        <time>2019-07-07T05:45:23Z</time>
      </trkpt>
      <trkpt lat="43.64511" lon="3.74807">
        <ele>150.7</ele>
        <time>2019-07-07T05:45:24Z</time>
      </trkpt>
      <trkpt lat="43.64511" lon="3.74794">
        <ele>150</ele>
        <time>2019-07-07T05:45:26Z</time>
      </trkpt>
      <trkpt lat="43.64511" lon="3.74787">
        <ele>149.5</ele>
        <time>2019-07-07T05:45:27Z</time>
      </trkpt>
      <trkpt lat="43.64511" lon="3.74781">
        <ele>149.3</ele>
        <time>2019-07-07T05:45:28Z</time>
      </trkpt>
      <trkpt lat="43.64515" lon="3.74772">
        <ele>148</ele>
        <time>2019-07-07T05:45:29Z</time>
      </trkpt>
      <trkpt lat="43.64517" lon="3.74766">
        <ele>147.5</ele>
        <time>2019-07-07T05:45:30Z</time>
      </trkpt>
      <trkpt lat="43.64518" lon="3.74757">
        <ele>146.6</ele>
        <time>2019-07-07T05:45:32Z</time>
      </trkpt>
      <trkpt lat="43.64516" lon="3.7475">
        <ele>146.8</ele>
        <time>2019-07-07T05:45:33Z</time>
      </trkpt>
      <trkpt lat="43.64516" lon="3.74746">
        <ele>146.6</ele>
        <time>2019-07-07T05:45:34Z</time>
      </trkpt>
      <trkpt lat="43.64518" lon="3.74742">
        <ele>145.9</ele>
        <time>2019-07-07T05:45:35Z</time>
      </trkpt>
      <trkpt lat="43.64518" lon="3.74737">
        <ele>145.7</ele>
        <time>2019-07-07T05:45:36Z</time>
      </trkpt>
      <trkpt lat="43.64515" lon="3.74731">
        <ele>145.7</ele>
        <time>2019-07-07T05:45:38Z</time>
      </trkpt>
      <trkpt lat="43.64513" lon="3.74728">
        <ele>145.9</ele>
        <time>2019-07-07T05:45:39Z</time>
      </trkpt>
      <trkpt lat="43.6451" lon="3.74724">
        <ele>146</ele>
        <time>2019-07-07T05:45:40Z</time>
      </trkpt>
      <trkpt lat="43.6451" lon="3.74719">
        <ele>145.7</ele>
        <time>2019-07-07T05:45:42Z</time>
      </trkpt>
      <trkpt lat="43.64508" lon="3.74714">
        <ele>145.9</ele>
        <time>2019-07-07T05:45:43Z</time>
      </trkpt>
      <trkpt lat="43.64507" lon="3.7471">
        <ele>145.7</ele>
        <time>2019-07-07T05:45:44Z</time>
      </trkpt>
      <trkpt lat="43.64506" lon="3.74704">
        <ele>145.5</ele>
        <time>2019-07-07T05:45:45Z</time>
      </trkpt>
      <trkpt lat="43.64507" lon="3.74699">
        <ele>145.3</ele>
        <time>2019-07-07T05:45:47Z</time>
      </trkpt>
      <trkpt lat="43.64506" lon="3.74694">
        <ele>145.2</ele>
        <time>2019-07-07T05:45:48Z</time>
      </trkpt>
      <trkpt lat="43.64502" lon="3.74687">
        <ele>145.4</ele>
        <time>2019-07-07T05:45:50Z</time>
      </trkpt>
      <trkpt lat="43.64503" lon="3.74679">
        <ele>145.2</ele>
        <time>2019-07-07T05:45:51Z</time>
      </trkpt>
      <trkpt lat="43.64504" lon="3.74675">
        <ele>145</ele>
        <time>2019-07-07T05:45:52Z</time>
      </trkpt>
      <trkpt lat="43.64501" lon="3.74669">
        <ele>145.3</ele>
        <time>2019-07-07T05:45:54Z</time>
      </trkpt>
      <trkpt lat="43.64499" lon="3.74665">
        <ele>145.2</ele>
        <time>2019-07-07T05:45:55Z</time>
      </trkpt>
      <trkpt lat="43.64498" lon="3.7466">
        <ele>145.5</ele>
        <time>2019-07-07T05:45:56Z</time>
      </trkpt>
      <trkpt lat="43.64499" lon="3.74655">
        <ele>144.9</ele>
        <time>2019-07-07T05:45:57Z</time>
      </trkpt>
      <trkpt lat="43.64496" lon="3.74651">
        <ele>145.6</ele>
        <time>2019-07-07T05:45:58Z</time>
      </trkpt>
      <trkpt lat="43.64494" lon="3.74644">
        <ele>145.3</ele>
        <time>2019-07-07T05:46:00Z</time>
      </trkpt>
      <trkpt lat="43.64491" lon="3.74641">
        <ele>145.5</ele>
        <time>2019-07-07T05:46:01Z</time>
      </trkpt>
      <trkpt lat="43.64488" lon="3.74639">
        <ele>145.8</ele>
        <time>2019-07-07T05:46:02Z</time>
      </trkpt>
      <trkpt lat="43.64486" lon="3.74638">
        <ele>146</ele>
        <time>2019-07-07T05:46:03Z</time>
      </trkpt>
      <trkpt lat="43.64484" lon="3.74632">
        <ele>145.8</ele>
        <time>2019-07-07T05:46:04Z</time>
      </trkpt>
      <trkpt lat="43.64482" lon="3.74626">
        <ele>146</ele>
        <time>2019-07-07T05:46:05Z</time>
      </trkpt>
      <trkpt lat="43.64479" lon="3.74619">
        <ele>146.1</ele>
        <time>2019-07-07T05:46:06Z</time>
      </trkpt>
      <trkpt lat="43.64476" lon="3.74615">
        <ele>146.5</ele>
        <time>2019-07-07T05:46:07Z</time>
      </trkpt>
      <trkpt lat="43.64474" lon="3.74611">
        <ele>146.4</ele>
        <time>2019-07-07T05:46:08Z</time>
      </trkpt>
      <trkpt lat="43.64473" lon="3.74607">
        <ele>146.7</ele>
        <time>2019-07-07T05:46:09Z</time>
      </trkpt>
      <trkpt lat="43.64471" lon="3.74604">
        <ele>147.2</ele>
        <time>2019-07-07T05:46:10Z</time>
      </trkpt>
      <trkpt lat="43.64468" lon="3.746">
        <ele>147.5</ele>
        <time>2019-07-07T05:46:11Z</time>
      </trkpt>
      <trkpt lat="43.64465" lon="3.74594">
        <ele>147.3</ele>
        <time>2019-07-07T05:46:12Z</time>
      </trkpt>
      <trkpt lat="43.64462" lon="3.74589">
        <ele>147.6</ele>
        <time>2019-07-07T05:46:13Z</time>
      </trkpt>
      <trkpt lat="43.64459" lon="3.74583">
        <ele>147.9</ele>
        <time>2019-07-07T05:46:14Z</time>
      </trkpt>
      <trkpt lat="43.64456" lon="3.74577">
        <ele>148.1</ele>
        <time>2019-07-07T05:46:15Z</time>
      </trkpt>
      <trkpt lat="43.64454" lon="3.74572">
        <ele>148.3</ele>
        <time>2019-07-07T05:46:16Z</time>
      </trkpt>
      <trkpt lat="43.64453" lon="3.74569">
        <ele>148.3</ele>
        <time>2019-07-07T05:46:17Z</time>
      </trkpt>
      <trkpt lat="43.64451" lon="3.74564">
        <ele>148.6</ele>
        <time>2019-07-07T05:46:18Z</time>
      </trkpt>
      <trkpt lat="43.64449" lon="3.74557">
        <ele>148.9</ele>
        <time>2019-07-07T05:46:19Z</time>
      </trkpt>
      <trkpt lat="43.64447" lon="3.74552">
        <ele>148.9</ele>
        <time>2019-07-07T05:46:20Z</time>
      </trkpt>
      <trkpt lat="43.64444" lon="3.74551">
        <ele>149.2</ele>
        <time>2019-07-07T05:46:21Z</time>
      </trkpt>
      <trkpt lat="43.64441" lon="3.74548">
        <ele>149.5</ele>
        <time>2019-07-07T05:46:22Z</time>
      </trkpt>
      <trkpt lat="43.64439" lon="3.74544">
        <ele>149.7</ele>
        <time>2019-07-07T05:46:23Z</time>
      </trkpt>
      <trkpt lat="43.64436" lon="3.74538">
        <ele>149.7</ele>
        <time>2019-07-07T05:46:24Z</time>
      </trkpt>
      <trkpt lat="43.64434" lon="3.74533">
        <ele>149.6</ele>
        <time>2019-07-07T05:46:25Z</time>
      </trkpt>
      <trkpt lat="43.64432" lon="3.74524">
        <ele>149.6</ele>
        <time>2019-07-07T05:46:26Z</time>
      </trkpt>
      <trkpt lat="43.6443" lon="3.74519">
        <ele>149.7</ele>
        <time>2019-07-07T05:46:27Z</time>
      </trkpt>
      <trkpt lat="43.64427" lon="3.74515">
        <ele>149.8</ele>
        <time>2019-07-07T05:46:29Z</time>
      </trkpt>
      <trkpt lat="43.64425" lon="3.74511">
        <ele>149.8</ele>
        <time>2019-07-07T05:46:30Z</time>
      </trkpt>
      <trkpt lat="43.64423" lon="3.74505">
        <ele>150</ele>
        <time>2019-07-07T05:46:31Z</time>
      </trkpt>
      <trkpt lat="43.64421" lon="3.745">
        <ele>150.2</ele>
        <time>2019-07-07T05:46:32Z</time>
      </trkpt>
      <trkpt lat="43.64418" lon="3.74495">
        <ele>150.2</ele>
        <time>2019-07-07T05:46:33Z</time>
      </trkpt>
      <trkpt lat="43.64416" lon="3.7449">
        <ele>150.4</ele>
        <time>2019-07-07T05:46:34Z</time>
      </trkpt>
      <trkpt lat="43.64414" lon="3.74486">
        <ele>150.7</ele>
        <time>2019-07-07T05:46:35Z</time>
      </trkpt>
      <trkpt lat="43.64413" lon="3.74483">
        <ele>150.7</ele>
        <time>2019-07-07T05:46:36Z</time>
      </trkpt>
      <trkpt lat="43.64411" lon="3.74478">
        <ele>150.9</ele>
        <time>2019-07-07T05:46:37Z</time>
      </trkpt>
      <trkpt lat="43.6441" lon="3.74474">
        <ele>150.9</ele>
        <time>2019-07-07T05:46:38Z</time>
      </trkpt>
      <trkpt lat="43.64407" lon="3.7447">
        <ele>151.1</ele>
        <time>2019-07-07T05:46:39Z</time>
      </trkpt>
      <trkpt lat="43.64405" lon="3.74467">
        <ele>151.2</ele>
        <time>2019-07-07T05:46:40Z</time>
      </trkpt>
      <trkpt lat="43.64404" lon="3.74462">
        <ele>151.2</ele>
        <time>2019-07-07T05:46:42Z</time>
      </trkpt>
      <trkpt lat="43.64402" lon="3.74455">
        <ele>151.4</ele>
        <time>2019-07-07T05:46:53Z</time>
      </trkpt>
      <trkpt lat="43.64401" lon="3.74451">
        <ele>151.4</ele>
        <time>2019-07-07T05:47:17Z</time>
      </trkpt>
      <trkpt lat="43.64401" lon="3.74447">
        <ele>151.4</ele>
        <time>2019-07-07T05:47:18Z</time>
      </trkpt>
      <trkpt lat="43.64397" lon="3.74444">
        <ele>151.5</ele>
        <time>2019-07-07T05:47:19Z</time>
      </trkpt>
      <trkpt lat="43.64394" lon="3.74437">
        <ele>151.7</ele>
        <time>2019-07-07T05:47:21Z</time>
      </trkpt>
      <trkpt lat="43.64397" lon="3.74429">
        <ele>151.5</ele>
        <time>2019-07-07T05:47:22Z</time>
      </trkpt>
      <trkpt lat="43.64396" lon="3.74419">
        <ele>151.7</ele>
        <time>2019-07-07T05:47:23Z</time>
      </trkpt>
      <trkpt lat="43.64393" lon="3.74414">
        <ele>152</ele>
        <time>2019-07-07T05:47:24Z</time>
      </trkpt>
      <trkpt lat="43.6439" lon="3.7441">
        <ele>152.3</ele>
        <time>2019-07-07T05:47:26Z</time>
      </trkpt>
      <trkpt lat="43.64389" lon="3.74399">
        <ele>152.3</ele>
        <time>2019-07-07T05:47:28Z</time>
      </trkpt>
      <trkpt lat="43.64389" lon="3.74392">
        <ele>152.2</ele>
        <time>2019-07-07T05:47:29Z</time>
      </trkpt>
      <trkpt lat="43.64389" lon="3.74388">
        <ele>152.2</ele>
        <time>2019-07-07T05:47:30Z</time>
      </trkpt>
      <trkpt lat="43.64389" lon="3.74379">
        <ele>152.1</ele>
        <time>2019-07-07T05:47:31Z</time>
      </trkpt>
      <trkpt lat="43.64389" lon="3.74375">
        <ele>152</ele>
        <time>2019-07-07T05:47:32Z</time>
      </trkpt>
      <trkpt lat="43.64388" lon="3.74371">
        <ele>151.9</ele>
        <time>2019-07-07T05:47:33Z</time>
      </trkpt>
      <trkpt lat="43.64388" lon="3.74367">
        <ele>151.8</ele>
        <time>2019-07-07T05:47:34Z</time>
      </trkpt>
      <trkpt lat="43.64389" lon="3.74363">
        <ele>151.8</ele>
        <time>2019-07-07T05:47:36Z</time>
      </trkpt>
      <trkpt lat="43.64387" lon="3.74359">
        <ele>152</ele>
        <time>2019-07-07T05:47:38Z</time>
      </trkpt>
      <trkpt lat="43.64388" lon="3.74356">
        <ele>151.7</ele>
        <time>2019-07-07T05:47:40Z</time>
      </trkpt>
      <trkpt lat="43.64388" lon="3.74351">
        <ele>151.5</ele>
        <time>2019-07-07T05:47:43Z</time>
      </trkpt>
      <trkpt lat="43.64387" lon="3.74346">
        <ele>151.8</ele>
        <time>2019-07-07T05:47:45Z</time>
      </trkpt>
      <trkpt lat="43.64385" lon="3.74338">
        <ele>151.7</ele>
        <time>2019-07-07T05:47:47Z</time>
      </trkpt>
      <trkpt lat="43.64385" lon="3.74331">
        <ele>151.6</ele>
        <time>2019-07-07T05:47:49Z</time>
      </trkpt>
      <trkpt lat="43.64388" lon="3.74326">
        <ele>151.2</ele>
        <time>2019-07-07T05:47:51Z</time>
      </trkpt>
      <trkpt lat="43.64391" lon="3.74321">
        <ele>150.7</ele>
        <time>2019-07-07T05:47:55Z</time>
      </trkpt>
      <trkpt lat="43.64393" lon="3.74319">
        <ele>150.6</ele>
        <time>2019-07-07T05:48:03Z</time>
      </trkpt>
      <trkpt lat="43.64393" lon="3.74323">
        <ele>150.7</ele>
        <time>2019-07-07T05:48:19Z</time>
      </trkpt>
      <trkpt lat="43.64392" lon="3.74329">
        <ele>150.8</ele>
        <time>2019-07-07T05:48:22Z</time>
      </trkpt>
      <trkpt lat="43.64393" lon="3.74333">
        <ele>150.9</ele>
        <time>2019-07-07T05:48:25Z</time>
      </trkpt>
      <trkpt lat="43.64395" lon="3.74337">
        <ele>150.5</ele>
        <time>2019-07-07T05:48:28Z</time>
      </trkpt>
      <trkpt lat="43.64395" lon="3.74341">
        <ele>150.6</ele>
        <time>2019-07-07T05:48:30Z</time>
      </trkpt>
      <trkpt lat="43.64395" lon="3.74346">
        <ele>150.7</ele>
        <time>2019-07-07T05:48:34Z</time>
      </trkpt>
      <trkpt lat="43.64396" lon="3.7435">
        <ele>150.8</ele>
        <time>2019-07-07T05:48:36Z</time>
      </trkpt>
      <trkpt lat="43.64395" lon="3.74354">
        <ele>150.8</ele>
        <time>2019-07-07T05:48:43Z</time>
      </trkpt>
      <trkpt lat="43.64396" lon="3.74358">
        <ele>150.9</ele>
        <time>2019-07-07T05:48:56Z</time>
      </trkpt>
      <trkpt lat="43.64395" lon="3.74362">
        <ele>151</ele>
        <time>2019-07-07T05:48:59Z</time>
      </trkpt>
      <trkpt lat="43.64398" lon="3.74365">
        <ele>150.8</ele>
        <time>2019-07-07T05:49:01Z</time>
      </trkpt>
      <trkpt lat="43.644" lon="3.74371">
        <ele>150.6</ele>
        <time>2019-07-07T05:49:04Z</time>
      </trkpt>
      <trkpt lat="43.644" lon="3.74375">
        <ele>150.7</ele>
        <time>2019-07-07T05:49:05Z</time>
      </trkpt>
      <trkpt lat="43.64401" lon="3.74379">
        <ele>150.7</ele>
        <time>2019-07-07T05:49:06Z</time>
      </trkpt>
      <trkpt lat="43.64404" lon="3.74383">
        <ele>150.3</ele>
        <time>2019-07-07T05:49:08Z</time>
      </trkpt>
      <trkpt lat="43.64405" lon="3.74388">
        <ele>150.3</ele>
        <time>2019-07-07T05:49:10Z</time>
      </trkpt>
      <trkpt lat="43.64405" lon="3.74394">
        <ele>150.4</ele>
        <time>2019-07-07T05:49:11Z</time>
      </trkpt>
      <trkpt lat="43.64405" lon="3.74397">
        <ele>150.4</ele>
        <time>2019-07-07T05:49:12Z</time>
      </trkpt>
      <trkpt lat="43.64407" lon="3.74404">
        <ele>150.2</ele>
        <time>2019-07-07T05:49:14Z</time>
      </trkpt>
      <trkpt lat="43.64407" lon="3.74414">
        <ele>150.3</ele>
        <time>2019-07-07T05:49:16Z</time>
      </trkpt>
      <trkpt lat="43.64406" lon="3.74418">
        <ele>150.4</ele>
        <time>2019-07-07T05:49:17Z</time>
      </trkpt>
      <trkpt lat="43.64407" lon="3.74422">
        <ele>150.4</ele>
        <time>2019-07-07T05:49:19Z</time>
      </trkpt>
      <trkpt lat="43.64408" lon="3.74426">
        <ele>150.5</ele>
        <time>2019-07-07T05:49:21Z</time>
      </trkpt>
      <trkpt lat="43.64407" lon="3.74429">
        <ele>150.5</ele>
        <time>2019-07-07T05:49:25Z</time>
      </trkpt>
      <trkpt lat="43.6441" lon="3.74425">
        <ele>150.2</ele>
        <time>2019-07-07T05:49:28Z</time>
      </trkpt>
      <trkpt lat="43.64411" lon="3.7442">
        <ele>150.1</ele>
        <time>2019-07-07T05:49:29Z</time>
      </trkpt>
      <trkpt lat="43.64413" lon="3.7441">
        <ele>149.6</ele>
        <time>2019-07-07T05:49:31Z</time>
      </trkpt>
      <trkpt lat="43.64415" lon="3.74407">
        <ele>149.3</ele>
        <time>2019-07-07T05:49:32Z</time>
      </trkpt>
      <trkpt lat="43.64421" lon="3.74401">
        <ele>148.7</ele>
        <time>2019-07-07T05:49:33Z</time>
      </trkpt>
      <trkpt lat="43.64426" lon="3.744">
        <ele>148.1</ele>
        <time>2019-07-07T05:49:34Z</time>
      </trkpt>
      <trkpt lat="43.6443" lon="3.74397">
        <ele>147.7</ele>
        <time>2019-07-07T05:49:35Z</time>
      </trkpt>
      <trkpt lat="43.64432" lon="3.74393">
        <ele>147.3</ele>
        <time>2019-07-07T05:49:36Z</time>
      </trkpt>
      <trkpt lat="43.64433" lon="3.74388">
        <ele>147.2</ele>
        <time>2019-07-07T05:49:37Z</time>
      </trkpt>
      <trkpt lat="43.64428" lon="3.74385">
        <ele>147.5</ele>
        <time>2019-07-07T05:49:38Z</time>
      </trkpt>
      <trkpt lat="43.64428" lon="3.74379">
        <ele>147.3</ele>
        <time>2019-07-07T05:49:39Z</time>
      </trkpt>
      <trkpt lat="43.64426" lon="3.74373">
        <ele>147.6</ele>
        <time>2019-07-07T05:49:41Z</time>
      </trkpt>
      <trkpt lat="43.64426" lon="3.74365">
        <ele>147.5</ele>
        <time>2019-07-07T05:49:42Z</time>
      </trkpt>
      <trkpt lat="43.64425" lon="3.7436">
        <ele>147.4</ele>
        <time>2019-07-07T05:49:44Z</time>
      </trkpt>
      <trkpt lat="43.64424" lon="3.7435">
        <ele>147.4</ele>
        <time>2019-07-07T05:49:45Z</time>
      </trkpt>
      <trkpt lat="43.64424" lon="3.74345">
        <ele>147.3</ele>
        <time>2019-07-07T05:49:46Z</time>
      </trkpt>
      <trkpt lat="43.64423" lon="3.74337">
        <ele>147.1</ele>
        <time>2019-07-07T05:49:47Z</time>
      </trkpt>
      <trkpt lat="43.6442" lon="3.74333">
        <ele>147.3</ele>
        <time>2019-07-07T05:49:48Z</time>
      </trkpt>
      <trkpt lat="43.64421" lon="3.74321">
        <ele>147</ele>
        <time>2019-07-07T05:49:49Z</time>
      </trkpt>
      <trkpt lat="43.64419" lon="3.74314">
        <ele>146.8</ele>
        <time>2019-07-07T05:49:50Z</time>
      </trkpt>
      <trkpt lat="43.64418" lon="3.74304">
        <ele>146.9</ele>
        <time>2019-07-07T05:49:52Z</time>
      </trkpt>
      <trkpt lat="43.64416" lon="3.74297">
        <ele>146.8</ele>
        <time>2019-07-07T05:49:53Z</time>
      </trkpt>
      <trkpt lat="43.64417" lon="3.74291">
        <ele>146.7</ele>
        <time>2019-07-07T05:49:54Z</time>
      </trkpt>
      <trkpt lat="43.64417" lon="3.74284">
        <ele>146.6</ele>
        <time>2019-07-07T05:49:55Z</time>
      </trkpt>
      <trkpt lat="43.64416" lon="3.74279">
        <ele>146.6</ele>
        <time>2019-07-07T05:49:56Z</time>
      </trkpt>
      <trkpt lat="43.64417" lon="3.74273">
        <ele>146.5</ele>
        <time>2019-07-07T05:49:57Z</time>
      </trkpt>
      <trkpt lat="43.64417" lon="3.74268">
        <ele>146.5</ele>
        <time>2019-07-07T05:49:58Z</time>
      </trkpt>
      <trkpt lat="43.64417" lon="3.74258">
        <ele>146.5</ele>
        <time>2019-07-07T05:50:00Z</time>
      </trkpt>
      <trkpt lat="43.64416" lon="3.74253">
        <ele>146.5</ele>
        <time>2019-07-07T05:50:01Z</time>
      </trkpt>
      <trkpt lat="43.64415" lon="3.74248">
        <ele>146.8</ele>
        <time>2019-07-07T05:50:02Z</time>
      </trkpt>
      <trkpt lat="43.64415" lon="3.74243">
        <ele>146.8</ele>
        <time>2019-07-07T05:50:03Z</time>
      </trkpt>
      <trkpt lat="43.64415" lon="3.74237">
        <ele>146.4</ele>
        <time>2019-07-07T05:50:04Z</time>
      </trkpt>
      <trkpt lat="43.64417" lon="3.7423">
        <ele>146.4</ele>
        <time>2019-07-07T05:50:05Z</time>
      </trkpt>
      <trkpt lat="43.64417" lon="3.74226">
        <ele>146.3</ele>
        <time>2019-07-07T05:50:06Z</time>
      </trkpt>
      <trkpt lat="43.64419" lon="3.74221">
        <ele>145.9</ele>
        <time>2019-07-07T05:50:07Z</time>
      </trkpt>
      <trkpt lat="43.64422" lon="3.74217">
        <ele>145.5</ele>
        <time>2019-07-07T05:50:08Z</time>
      </trkpt>
      <trkpt lat="43.64424" lon="3.74212">
        <ele>145.4</ele>
        <time>2019-07-07T05:50:09Z</time>
      </trkpt>
      <trkpt lat="43.64427" lon="3.74209">
        <ele>145.1</ele>
        <time>2019-07-07T05:50:10Z</time>
      </trkpt>
      <trkpt lat="43.64432" lon="3.74205">
        <ele>144.5</ele>
        <time>2019-07-07T05:50:11Z</time>
      </trkpt>
      <trkpt lat="43.64436" lon="3.74202">
        <ele>144.2</ele>
        <time>2019-07-07T05:50:12Z</time>
      </trkpt>
      <trkpt lat="43.6444" lon="3.74197">
        <ele>144</ele>
        <time>2019-07-07T05:50:13Z</time>
      </trkpt>
      <trkpt lat="43.64443" lon="3.74192">
        <ele>143.6</ele>
        <time>2019-07-07T05:50:14Z</time>
      </trkpt>
      <trkpt lat="43.64445" lon="3.74188">
        <ele>143.6</ele>
        <time>2019-07-07T05:50:15Z</time>
      </trkpt>
      <trkpt lat="43.6445" lon="3.74184">
        <ele>143.3</ele>
        <time>2019-07-07T05:50:16Z</time>
      </trkpt>
      <trkpt lat="43.64453" lon="3.74181">
        <ele>143.2</ele>
        <time>2019-07-07T05:50:17Z</time>
      </trkpt>
      <trkpt lat="43.64457" lon="3.74177">
        <ele>143</ele>
        <time>2019-07-07T05:50:18Z</time>
      </trkpt>
      <trkpt lat="43.64459" lon="3.74173">
        <ele>142.9</ele>
        <time>2019-07-07T05:50:19Z</time>
      </trkpt>
      <trkpt lat="43.64461" lon="3.74168">
        <ele>142.9</ele>
        <time>2019-07-07T05:50:20Z</time>
      </trkpt>
      <trkpt lat="43.64464" lon="3.74163">
        <ele>142.8</ele>
        <time>2019-07-07T05:50:21Z</time>
      </trkpt>
      <trkpt lat="43.64466" lon="3.74159">
        <ele>142.8</ele>
        <time>2019-07-07T05:50:22Z</time>
      </trkpt>
      <trkpt lat="43.64469" lon="3.74152">
        <ele>142.7</ele>
        <time>2019-07-07T05:50:24Z</time>
      </trkpt>
      <trkpt lat="43.64471" lon="3.74146">
        <ele>142.7</ele>
        <time>2019-07-07T05:50:25Z</time>
      </trkpt>
      <trkpt lat="43.64472" lon="3.74141">
        <ele>142.8</ele>
        <time>2019-07-07T05:50:26Z</time>
      </trkpt>
      <trkpt lat="43.64471" lon="3.74136">
        <ele>142.8</ele>
        <time>2019-07-07T05:50:27Z</time>
      </trkpt>
      <trkpt lat="43.64471" lon="3.74133">
        <ele>142.8</ele>
        <time>2019-07-07T05:50:28Z</time>
      </trkpt>
      <trkpt lat="43.6447" lon="3.74128">
        <ele>142.9</ele>
        <time>2019-07-07T05:50:29Z</time>
      </trkpt>
      <trkpt lat="43.6447" lon="3.74123">
        <ele>142.9</ele>
        <time>2019-07-07T05:50:30Z</time>
      </trkpt>
      <trkpt lat="43.6447" lon="3.74118">
        <ele>143</ele>
        <time>2019-07-07T05:50:31Z</time>
      </trkpt>
      <trkpt lat="43.64469" lon="3.74113">
        <ele>143.1</ele>
        <time>2019-07-07T05:50:32Z</time>
      </trkpt>
      <trkpt lat="43.64468" lon="3.74104">
        <ele>143.3</ele>
        <time>2019-07-07T05:50:33Z</time>
      </trkpt>
      <trkpt lat="43.64465" lon="3.74099">
        <ele>143.3</ele>
        <time>2019-07-07T05:50:34Z</time>
      </trkpt>
      <trkpt lat="43.64461" lon="3.74091">
        <ele>143.6</ele>
        <time>2019-07-07T05:50:35Z</time>
      </trkpt>
      <trkpt lat="43.64457" lon="3.74086">
        <ele>143.8</ele>
        <time>2019-07-07T05:50:36Z</time>
      </trkpt>
      <trkpt lat="43.64455" lon="3.7408">
        <ele>143.9</ele>
        <time>2019-07-07T05:50:37Z</time>
      </trkpt>
      <trkpt lat="43.64452" lon="3.74075">
        <ele>144.2</ele>
        <time>2019-07-07T05:50:38Z</time>
      </trkpt>
      <trkpt lat="43.64462" lon="3.74075">
        <ele>144</ele>
        <time>2019-07-07T05:50:39Z</time>
      </trkpt>
      <trkpt lat="43.64469" lon="3.7407">
        <ele>144.1</ele>
        <time>2019-07-07T05:50:40Z</time>
      </trkpt>
      <trkpt lat="43.64471" lon="3.74066">
        <ele>144.3</ele>
        <time>2019-07-07T05:50:41Z</time>
      </trkpt>
      <trkpt lat="43.64472" lon="3.74061">
        <ele>144.5</ele>
        <time>2019-07-07T05:50:43Z</time>
      </trkpt>
      <trkpt lat="43.64473" lon="3.74055">
        <ele>144.6</ele>
        <time>2019-07-07T05:50:45Z</time>
      </trkpt>
      <trkpt lat="43.64473" lon="3.74049">
        <ele>144.9</ele>
        <time>2019-07-07T05:50:47Z</time>
      </trkpt>
      <trkpt lat="43.64472" lon="3.74045">
        <ele>145.1</ele>
        <time>2019-07-07T05:50:49Z</time>
      </trkpt>
      <trkpt lat="43.6447" lon="3.7404">
        <ele>145.3</ele>
        <time>2019-07-07T05:50:51Z</time>
      </trkpt>
      <trkpt lat="43.64467" lon="3.74038">
        <ele>145.3</ele>
        <time>2019-07-07T05:50:53Z</time>
      </trkpt>
      <trkpt lat="43.64464" lon="3.74036">
        <ele>145.4</ele>
        <time>2019-07-07T05:50:55Z</time>
      </trkpt>
      <trkpt lat="43.64462" lon="3.74033">
        <ele>145.4</ele>
        <time>2019-07-07T05:50:57Z</time>
      </trkpt>
      <trkpt lat="43.64463" lon="3.74027">
        <ele>145.7</ele>
        <time>2019-07-07T05:50:59Z</time>
      </trkpt>
      <trkpt lat="43.64463" lon="3.74022">
        <ele>145.8</ele>
        <time>2019-07-07T05:51:02Z</time>
      </trkpt>
      <trkpt lat="43.6446" lon="3.74017">
        <ele>145.8</ele>
        <time>2019-07-07T05:51:04Z</time>
      </trkpt>
      <trkpt lat="43.6446" lon="3.74013">
        <ele>145.9</ele>
        <time>2019-07-07T05:51:05Z</time>
      </trkpt>
      <trkpt lat="43.64458" lon="3.74005">
        <ele>145.9</ele>
        <time>2019-07-07T05:51:08Z</time>
      </trkpt>
      <trkpt lat="43.64457" lon="3.74">
        <ele>145.9</ele>
        <time>2019-07-07T05:51:12Z</time>
      </trkpt>
      <trkpt lat="43.64459" lon="3.73997">
        <ele>145.9</ele>
        <time>2019-07-07T05:51:24Z</time>
      </trkpt>
      <trkpt lat="43.6446" lon="3.73982">
        <ele>145.8</ele>
        <time>2019-07-07T05:54:09Z</time>
      </trkpt>
      <trkpt lat="43.64457" lon="3.73975">
        <ele>145.6</ele>
        <time>2019-07-07T05:54:12Z</time>
      </trkpt>
      <trkpt lat="43.64456" lon="3.73971">
        <ele>145.6</ele>
        <time>2019-07-07T05:54:13Z</time>
      </trkpt>
      <trkpt lat="43.64456" lon="3.73965">
        <ele>145.6</ele>
        <time>2019-07-07T05:54:15Z</time>
      </trkpt>
      <trkpt lat="43.64458" lon="3.7396">
        <ele>145.5</ele>
        <time>2019-07-07T05:54:17Z</time>
      </trkpt>
      <trkpt lat="43.64461" lon="3.73954">
        <ele>145.5</ele>
        <time>2019-07-07T05:54:19Z</time>
      </trkpt>
      <trkpt lat="43.64463" lon="3.73951">
        <ele>145.6</ele>
        <time>2019-07-07T05:54:20Z</time>
      </trkpt>
      <trkpt lat="43.64465" lon="3.73948">
        <ele>145.6</ele>
        <time>2019-07-07T05:54:21Z</time>
      </trkpt>
      <trkpt lat="43.64469" lon="3.73944">
        <ele>145.7</ele>
        <time>2019-07-07T05:54:23Z</time>
      </trkpt>
      <trkpt lat="43.64468" lon="3.73938">
        <ele>145.7</ele>
        <time>2019-07-07T05:54:25Z</time>
      </trkpt>
      <trkpt lat="43.64473" lon="3.73933">
        <ele>145.9</ele>
        <time>2019-07-07T05:54:27Z</time>
      </trkpt>
      <trkpt lat="43.64478" lon="3.7393">
        <ele>146</ele>
        <time>2019-07-07T05:54:29Z</time>
      </trkpt>
      <trkpt lat="43.64482" lon="3.73934">
        <ele>146.1</ele>
        <time>2019-07-07T05:54:31Z</time>
      </trkpt>
      <trkpt lat="43.64486" lon="3.73936">
        <ele>146.1</ele>
        <time>2019-07-07T05:54:33Z</time>
      </trkpt>
      <trkpt lat="43.64489" lon="3.73936">
        <ele>146.2</ele>
        <time>2019-07-07T05:54:35Z</time>
      </trkpt>
      <trkpt lat="43.64492" lon="3.73937">
        <ele>146.2</ele>
        <time>2019-07-07T05:54:39Z</time>
      </trkpt>
      <trkpt lat="43.64494" lon="3.73939">
        <ele>146.2</ele>
        <time>2019-07-07T05:54:41Z</time>
      </trkpt>
      <trkpt lat="43.64498" lon="3.73942">
        <ele>146.2</ele>
        <time>2019-07-07T05:54:45Z</time>
      </trkpt>
      <trkpt lat="43.64499" lon="3.73939">
        <ele>146.2</ele>
        <time>2019-07-07T05:54:49Z</time>
      </trkpt>
      <trkpt lat="43.64496" lon="3.73937">
        <ele>146.2</ele>
        <time>2019-07-07T05:54:52Z</time>
      </trkpt>
      <trkpt lat="43.64493" lon="3.73939">
        <ele>146.1</ele>
        <time>2019-07-07T05:54:55Z</time>
      </trkpt>
      <trkpt lat="43.64496" lon="3.73941">
        <ele>146.1</ele>
        <time>2019-07-07T05:54:59Z</time>
      </trkpt>
      <trkpt lat="43.64497" lon="3.73945">
        <ele>146.1</ele>
        <time>2019-07-07T05:55:09Z</time>
      </trkpt>
      <trkpt lat="43.64497" lon="3.73951">
        <ele>146</ele>
        <time>2019-07-07T05:55:27Z</time>
      </trkpt>
      <trkpt lat="43.64496" lon="3.73957">
        <ele>146</ele>
        <time>2019-07-07T05:55:29Z</time>
      </trkpt>
      <trkpt lat="43.64496" lon="3.73964">
        <ele>146</ele>
        <time>2019-07-07T05:55:31Z</time>
      </trkpt>
      <trkpt lat="43.64496" lon="3.7397">
        <ele>146</ele>
        <time>2019-07-07T05:55:32Z</time>
      </trkpt>
      <trkpt lat="43.64496" lon="3.73974">
        <ele>146</ele>
        <time>2019-07-07T05:55:33Z</time>
      </trkpt>
      <trkpt lat="43.64496" lon="3.73978">
        <ele>146</ele>
        <time>2019-07-07T05:55:34Z</time>
      </trkpt>
      <trkpt lat="43.64496" lon="3.73982">
        <ele>146</ele>
        <time>2019-07-07T05:55:35Z</time>
      </trkpt>
      <trkpt lat="43.64497" lon="3.73988">
        <ele>146</ele>
        <time>2019-07-07T05:55:36Z</time>
      </trkpt>
      <trkpt lat="43.64497" lon="3.73992">
        <ele>146.1</ele>
        <time>2019-07-07T05:55:37Z</time>
      </trkpt>
      <trkpt lat="43.64498" lon="3.73997">
        <ele>146.1</ele>
        <time>2019-07-07T05:55:38Z</time>
      </trkpt>
      <trkpt lat="43.64501" lon="3.74003">
        <ele>146.1</ele>
        <time>2019-07-07T05:55:39Z</time>
      </trkpt>
      <trkpt lat="43.64501" lon="3.74009">
        <ele>146.1</ele>
        <time>2019-07-07T05:55:41Z</time>
      </trkpt>
      <trkpt lat="43.64502" lon="3.74015">
        <ele>146.1</ele>
        <time>2019-07-07T05:55:42Z</time>
      </trkpt>
      <trkpt lat="43.64503" lon="3.7402">
        <ele>146.2</ele>
        <time>2019-07-07T05:55:43Z</time>
      </trkpt>
      <trkpt lat="43.64504" lon="3.74025">
        <ele>146.2</ele>
        <time>2019-07-07T05:55:44Z</time>
      </trkpt>
      <trkpt lat="43.64506" lon="3.7403">
        <ele>146.2</ele>
        <time>2019-07-07T05:55:45Z</time>
      </trkpt>
      <trkpt lat="43.64508" lon="3.74035">
        <ele>146.2</ele>
        <time>2019-07-07T05:55:46Z</time>
      </trkpt>
      <trkpt lat="43.64509" lon="3.74041">
        <ele>146.1</ele>
        <time>2019-07-07T05:55:47Z</time>
      </trkpt>
      <trkpt lat="43.6451" lon="3.74045">
        <ele>146</ele>
        <time>2019-07-07T05:55:48Z</time>
      </trkpt>
      <trkpt lat="43.64512" lon="3.74051">
        <ele>145.9</ele>
        <time>2019-07-07T05:55:49Z</time>
      </trkpt>
      <trkpt lat="43.64511" lon="3.74057">
        <ele>145.8</ele>
        <time>2019-07-07T05:55:50Z</time>
      </trkpt>
      <trkpt lat="43.64512" lon="3.74062">
        <ele>145.6</ele>
        <time>2019-07-07T05:55:51Z</time>
      </trkpt>
      <trkpt lat="43.64513" lon="3.7407">
        <ele>145.4</ele>
        <time>2019-07-07T05:55:52Z</time>
      </trkpt>
      <trkpt lat="43.64514" lon="3.74075">
        <ele>145.2</ele>
        <time>2019-07-07T05:55:53Z</time>
      </trkpt>
      <trkpt lat="43.64516" lon="3.7408">
        <ele>145.1</ele>
        <time>2019-07-07T05:55:54Z</time>
      </trkpt>
      <trkpt lat="43.64518" lon="3.74085">
        <ele>145</ele>
        <time>2019-07-07T05:55:55Z</time>
      </trkpt>
      <trkpt lat="43.64519" lon="3.74089">
        <ele>144.9</ele>
        <time>2019-07-07T05:55:56Z</time>
      </trkpt>
      <trkpt lat="43.64521" lon="3.74098">
        <ele>144.8</ele>
        <time>2019-07-07T05:55:58Z</time>
      </trkpt>
      <trkpt lat="43.64521" lon="3.74105">
        <ele>144.8</ele>
        <time>2019-07-07T05:55:59Z</time>
      </trkpt>
      <trkpt lat="43.6452" lon="3.74111">
        <ele>144.8</ele>
        <time>2019-07-07T05:56:00Z</time>
      </trkpt>
      <trkpt lat="43.64521" lon="3.74117">
        <ele>144.8</ele>
        <time>2019-07-07T05:56:01Z</time>
      </trkpt>
      <trkpt lat="43.64522" lon="3.74123">
        <ele>144.8</ele>
        <time>2019-07-07T05:56:02Z</time>
      </trkpt>
      <trkpt lat="43.64523" lon="3.74128">
        <ele>144.8</ele>
        <time>2019-07-07T05:56:03Z</time>
      </trkpt>
      <trkpt lat="43.64524" lon="3.74134">
        <ele>144.8</ele>
        <time>2019-07-07T05:56:04Z</time>
      </trkpt>
      <trkpt lat="43.64525" lon="3.7414">
        <ele>144.7</ele>
        <time>2019-07-07T05:56:05Z</time>
      </trkpt>
      <trkpt lat="43.64526" lon="3.74146">
        <ele>144.7</ele>
        <time>2019-07-07T05:56:06Z</time>
      </trkpt>
      <trkpt lat="43.64526" lon="3.74152">
        <ele>144.7</ele>
        <time>2019-07-07T05:56:07Z</time>
      </trkpt>
      <trkpt lat="43.64527" lon="3.74158">
        <ele>144.6</ele>
        <time>2019-07-07T05:56:08Z</time>
      </trkpt>
      <trkpt lat="43.64528" lon="3.74164">
        <ele>144.6</ele>
        <time>2019-07-07T05:56:09Z</time>
      </trkpt>
      <trkpt lat="43.64529" lon="3.74171">
        <ele>144.6</ele>
        <time>2019-07-07T05:56:10Z</time>
      </trkpt>
      <trkpt lat="43.6453" lon="3.74176">
        <ele>144.5</ele>
        <time>2019-07-07T05:56:11Z</time>
      </trkpt>
      <trkpt lat="43.64531" lon="3.74182">
        <ele>144.5</ele>
        <time>2019-07-07T05:56:12Z</time>
      </trkpt>
      <trkpt lat="43.64532" lon="3.74188">
        <ele>144.4</ele>
        <time>2019-07-07T05:56:13Z</time>
      </trkpt>
      <trkpt lat="43.64533" lon="3.74194">
        <ele>144.4</ele>
        <time>2019-07-07T05:56:14Z</time>
      </trkpt>
      <trkpt lat="43.64535" lon="3.74198">
        <ele>144.3</ele>
        <time>2019-07-07T05:56:15Z</time>
      </trkpt>
      <trkpt lat="43.64537" lon="3.74204">
        <ele>144.3</ele>
        <time>2019-07-07T05:56:16Z</time>
      </trkpt>
      <trkpt lat="43.64539" lon="3.74211">
        <ele>144.3</ele>
        <time>2019-07-07T05:56:17Z</time>
      </trkpt>
      <trkpt lat="43.64541" lon="3.74216">
        <ele>144.3</ele>
        <time>2019-07-07T05:56:18Z</time>
      </trkpt>
      <trkpt lat="43.64542" lon="3.74223">
        <ele>144.3</ele>
        <time>2019-07-07T05:56:19Z</time>
      </trkpt>
      <trkpt lat="43.64543" lon="3.74228">
        <ele>144.3</ele>
        <time>2019-07-07T05:56:20Z</time>
      </trkpt>
      <trkpt lat="43.64545" lon="3.74232">
        <ele>144.3</ele>
        <time>2019-07-07T05:56:21Z</time>
      </trkpt>
      <trkpt lat="43.64547" lon="3.7424">
        <ele>144.3</ele>
        <time>2019-07-07T05:56:22Z</time>
      </trkpt>
      <trkpt lat="43.64548" lon="3.74246">
        <ele>144.3</ele>
        <time>2019-07-07T05:56:23Z</time>
      </trkpt>
      <trkpt lat="43.6455" lon="3.74252">
        <ele>144.3</ele>
        <time>2019-07-07T05:56:24Z</time>
      </trkpt>
      <trkpt lat="43.64551" lon="3.74258">
        <ele>144.3</ele>
        <time>2019-07-07T05:56:25Z</time>
      </trkpt>
      <trkpt lat="43.64553" lon="3.74267">
        <ele>144.4</ele>
        <time>2019-07-07T05:56:26Z</time>
      </trkpt>
      <trkpt lat="43.64554" lon="3.74273">
        <ele>144.4</ele>
        <time>2019-07-07T05:56:27Z</time>
      </trkpt>
      <trkpt lat="43.64556" lon="3.74279">
        <ele>144.4</ele>
        <time>2019-07-07T05:56:28Z</time>
      </trkpt>
      <trkpt lat="43.64556" lon="3.74285">
        <ele>144.3</ele>
        <time>2019-07-07T05:56:29Z</time>
      </trkpt>
      <trkpt lat="43.64557" lon="3.74291">
        <ele>144.2</ele>
        <time>2019-07-07T05:56:30Z</time>
      </trkpt>
      <trkpt lat="43.64557" lon="3.74296">
        <ele>144.2</ele>
        <time>2019-07-07T05:56:31Z</time>
      </trkpt>
      <trkpt lat="43.64559" lon="3.74301">
        <ele>144.1</ele>
        <time>2019-07-07T05:56:32Z</time>
      </trkpt>
      <trkpt lat="43.6456" lon="3.74306">
        <ele>144.1</ele>
        <time>2019-07-07T05:56:33Z</time>
      </trkpt>
      <trkpt lat="43.64561" lon="3.74311">
        <ele>144</ele>
        <time>2019-07-07T05:56:34Z</time>
      </trkpt>
      <trkpt lat="43.64564" lon="3.74318">
        <ele>143.9</ele>
        <time>2019-07-07T05:56:36Z</time>
      </trkpt>
      <trkpt lat="43.64566" lon="3.74323">
        <ele>143.8</ele>
        <time>2019-07-07T05:56:37Z</time>
      </trkpt>
      <trkpt lat="43.64568" lon="3.7433">
        <ele>143.8</ele>
        <time>2019-07-07T05:56:38Z</time>
      </trkpt>
      <trkpt lat="43.64569" lon="3.74336">
        <ele>143.8</ele>
        <time>2019-07-07T05:56:39Z</time>
      </trkpt>
      <trkpt lat="43.6457" lon="3.74342">
        <ele>143.7</ele>
        <time>2019-07-07T05:56:40Z</time>
      </trkpt>
      <trkpt lat="43.64571" lon="3.74348">
        <ele>143.7</ele>
        <time>2019-07-07T05:56:41Z</time>
      </trkpt>
      <trkpt lat="43.64573" lon="3.74352">
        <ele>143.7</ele>
        <time>2019-07-07T05:56:42Z</time>
      </trkpt>
      <trkpt lat="43.64574" lon="3.74356">
        <ele>143.6</ele>
        <time>2019-07-07T05:56:43Z</time>
      </trkpt>
      <trkpt lat="43.64575" lon="3.74362">
        <ele>143.5</ele>
        <time>2019-07-07T05:56:44Z</time>
      </trkpt>
      <trkpt lat="43.64576" lon="3.74367">
        <ele>143.4</ele>
        <time>2019-07-07T05:56:45Z</time>
      </trkpt>
      <trkpt lat="43.64578" lon="3.74371">
        <ele>143.3</ele>
        <time>2019-07-07T05:56:47Z</time>
      </trkpt>
      <trkpt lat="43.64581" lon="3.74374">
        <ele>143.2</ele>
        <time>2019-07-07T05:56:51Z</time>
      </trkpt>
      <trkpt lat="43.64581" lon="3.7438">
        <ele>143.1</ele>
        <time>2019-07-07T05:56:54Z</time>
      </trkpt>
      <trkpt lat="43.64583" lon="3.74382">
        <ele>143</ele>
        <time>2019-07-07T05:56:57Z</time>
      </trkpt>
      <trkpt lat="43.64584" lon="3.7439">
        <ele>142.9</ele>
        <time>2019-07-07T05:56:59Z</time>
      </trkpt>
      <trkpt lat="43.64585" lon="3.74393">
        <ele>142.9</ele>
        <time>2019-07-07T05:57:01Z</time>
      </trkpt>
      <trkpt lat="43.64587" lon="3.74401">
        <ele>142.8</ele>
        <time>2019-07-07T05:57:03Z</time>
      </trkpt>
      <trkpt lat="43.64589" lon="3.74409">
        <ele>142.7</ele>
        <time>2019-07-07T05:57:05Z</time>
      </trkpt>
      <trkpt lat="43.64591" lon="3.74414">
        <ele>142.7</ele>
        <time>2019-07-07T05:57:06Z</time>
      </trkpt>
      <trkpt lat="43.64592" lon="3.74419">
        <ele>142.6</ele>
        <time>2019-07-07T05:57:07Z</time>
      </trkpt>
      <trkpt lat="43.64594" lon="3.74425">
        <ele>142.5</ele>
        <time>2019-07-07T05:57:08Z</time>
      </trkpt>
      <trkpt lat="43.64596" lon="3.74429">
        <ele>142.5</ele>
        <time>2019-07-07T05:57:09Z</time>
      </trkpt>
      <trkpt lat="43.64597" lon="3.74434">
        <ele>142.4</ele>
        <time>2019-07-07T05:57:10Z</time>
      </trkpt>
      <trkpt lat="43.64598" lon="3.7444">
        <ele>142.3</ele>
        <time>2019-07-07T05:57:11Z</time>
      </trkpt>
      <trkpt lat="43.646" lon="3.74447">
        <ele>142.1</ele>
        <time>2019-07-07T05:57:12Z</time>
      </trkpt>
      <trkpt lat="43.64602" lon="3.74453">
        <ele>142</ele>
        <time>2019-07-07T05:57:13Z</time>
      </trkpt>
      <trkpt lat="43.64604" lon="3.74459">
        <ele>141.9</ele>
        <time>2019-07-07T05:57:14Z</time>
      </trkpt>
      <trkpt lat="43.64606" lon="3.74464">
        <ele>141.8</ele>
        <time>2019-07-07T05:57:15Z</time>
      </trkpt>
      <trkpt lat="43.64608" lon="3.7447">
        <ele>141.6</ele>
        <time>2019-07-07T05:57:16Z</time>
      </trkpt>
      <trkpt lat="43.64609" lon="3.74475">
        <ele>141.5</ele>
        <time>2019-07-07T05:57:17Z</time>
      </trkpt>
      <trkpt lat="43.64611" lon="3.74481">
        <ele>141.4</ele>
        <time>2019-07-07T05:57:18Z</time>
      </trkpt>
      <trkpt lat="43.64613" lon="3.74488">
        <ele>141.3</ele>
        <time>2019-07-07T05:57:19Z</time>
      </trkpt>
      <trkpt lat="43.64614" lon="3.74493">
        <ele>141.2</ele>
        <time>2019-07-07T05:57:20Z</time>
      </trkpt>
      <trkpt lat="43.64616" lon="3.74499">
        <ele>141.1</ele>
        <time>2019-07-07T05:57:21Z</time>
      </trkpt>
      <trkpt lat="43.64618" lon="3.74505">
        <ele>141</ele>
        <time>2019-07-07T05:57:22Z</time>
      </trkpt>
      <trkpt lat="43.64621" lon="3.74512">
        <ele>141</ele>
        <time>2019-07-07T05:57:23Z</time>
      </trkpt>
      <trkpt lat="43.64624" lon="3.74516">
        <ele>140.9</ele>
        <time>2019-07-07T05:57:24Z</time>
      </trkpt>
      <trkpt lat="43.64626" lon="3.7452">
        <ele>140.9</ele>
        <time>2019-07-07T05:57:25Z</time>
      </trkpt>
      <trkpt lat="43.64627" lon="3.74525">
        <ele>140.9</ele>
        <time>2019-07-07T05:57:26Z</time>
      </trkpt>
      <trkpt lat="43.64631" lon="3.74534">
        <ele>140.9</ele>
        <time>2019-07-07T05:57:27Z</time>
      </trkpt>
      <trkpt lat="43.64635" lon="3.74542">
        <ele>140.8</ele>
        <time>2019-07-07T05:57:28Z</time>
      </trkpt>
      <trkpt lat="43.64636" lon="3.74548">
        <ele>140.8</ele>
        <time>2019-07-07T05:57:29Z</time>
      </trkpt>
      <trkpt lat="43.64638" lon="3.74554">
        <ele>140.7</ele>
        <time>2019-07-07T05:57:30Z</time>
      </trkpt>
      <trkpt lat="43.64639" lon="3.7456">
        <ele>140.6</ele>
        <time>2019-07-07T05:57:31Z</time>
      </trkpt>
      <trkpt lat="43.64644" lon="3.74565">
        <ele>140.4</ele>
        <time>2019-07-07T05:57:32Z</time>
      </trkpt>
      <trkpt lat="43.64647" lon="3.74569">
        <ele>140.3</ele>
        <time>2019-07-07T05:57:33Z</time>
      </trkpt>
      <trkpt lat="43.64649" lon="3.74576">
        <ele>140.1</ele>
        <time>2019-07-07T05:57:34Z</time>
      </trkpt>
      <trkpt lat="43.64651" lon="3.74582">
        <ele>140</ele>
        <time>2019-07-07T05:57:35Z</time>
      </trkpt>
      <trkpt lat="43.64654" lon="3.74588">
        <ele>139.9</ele>
        <time>2019-07-07T05:57:36Z</time>
      </trkpt>
      <trkpt lat="43.64656" lon="3.74594">
        <ele>139.8</ele>
        <time>2019-07-07T05:57:37Z</time>
      </trkpt>
      <trkpt lat="43.64659" lon="3.74598">
        <ele>139.7</ele>
        <time>2019-07-07T05:57:38Z</time>
      </trkpt>
      <trkpt lat="43.64661" lon="3.74603">
        <ele>139.5</ele>
        <time>2019-07-07T05:57:39Z</time>
      </trkpt>
      <trkpt lat="43.64663" lon="3.74608">
        <ele>139.4</ele>
        <time>2019-07-07T05:57:41Z</time>
      </trkpt>
      <trkpt lat="43.64665" lon="3.74612">
        <ele>139.3</ele>
        <time>2019-07-07T05:57:42Z</time>
      </trkpt>
      <trkpt lat="43.64667" lon="3.74615">
        <ele>139.2</ele>
        <time>2019-07-07T05:57:43Z</time>
      </trkpt>
      <trkpt lat="43.64669" lon="3.74619">
        <ele>139.1</ele>
        <time>2019-07-07T05:57:44Z</time>
      </trkpt>
      <trkpt lat="43.64671" lon="3.74623">
        <ele>139</ele>
        <time>2019-07-07T05:57:45Z</time>
      </trkpt>
      <trkpt lat="43.64673" lon="3.74626">
        <ele>139</ele>
        <time>2019-07-07T05:57:46Z</time>
      </trkpt>
      <trkpt lat="43.64677" lon="3.74632">
        <ele>138.8</ele>
        <time>2019-07-07T05:57:48Z</time>
      </trkpt>
      <trkpt lat="43.64679" lon="3.74636">
        <ele>138.8</ele>
        <time>2019-07-07T05:57:49Z</time>
      </trkpt>
      <trkpt lat="43.64682" lon="3.74644">
        <ele>138.6</ele>
        <time>2019-07-07T05:57:50Z</time>
      </trkpt>
      <trkpt lat="43.64685" lon="3.74652">
        <ele>138.5</ele>
        <time>2019-07-07T05:57:51Z</time>
      </trkpt>
      <trkpt lat="43.64688" lon="3.74655">
        <ele>138.4</ele>
        <time>2019-07-07T05:57:52Z</time>
      </trkpt>
      <trkpt lat="43.6469" lon="3.74657">
        <ele>138.3</ele>
        <time>2019-07-07T05:57:53Z</time>
      </trkpt>
      <trkpt lat="43.64695" lon="3.74664">
        <ele>138.2</ele>
        <time>2019-07-07T05:57:55Z</time>
      </trkpt>
      <trkpt lat="43.64696" lon="3.74667">
        <ele>138.1</ele>
        <time>2019-07-07T05:57:56Z</time>
      </trkpt>
      <trkpt lat="43.64698" lon="3.74671">
        <ele>138.1</ele>
        <time>2019-07-07T05:57:57Z</time>
      </trkpt>
      <trkpt lat="43.647" lon="3.74674">
        <ele>138</ele>
        <time>2019-07-07T05:57:58Z</time>
      </trkpt>
      <trkpt lat="43.64702" lon="3.74677">
        <ele>138</ele>
        <time>2019-07-07T05:57:59Z</time>
      </trkpt>
      <trkpt lat="43.64704" lon="3.74681">
        <ele>137.9</ele>
        <time>2019-07-07T05:58:00Z</time>
      </trkpt>
      <trkpt lat="43.64707" lon="3.74684">
        <ele>137.8</ele>
        <time>2019-07-07T05:58:01Z</time>
      </trkpt>
      <trkpt lat="43.64709" lon="3.74687">
        <ele>137.7</ele>
        <time>2019-07-07T05:58:02Z</time>
      </trkpt>
      <trkpt lat="43.64711" lon="3.7469">
        <ele>137.6</ele>
        <time>2019-07-07T05:58:03Z</time>
      </trkpt>
      <trkpt lat="43.64714" lon="3.74693">
        <ele>137.5</ele>
        <time>2019-07-07T05:58:04Z</time>
      </trkpt>
      <trkpt lat="43.64717" lon="3.74696">
        <ele>137.3</ele>
        <time>2019-07-07T05:58:05Z</time>
      </trkpt>
      <trkpt lat="43.64719" lon="3.74699">
        <ele>137.2</ele>
        <time>2019-07-07T05:58:06Z</time>
      </trkpt>
      <trkpt lat="43.64721" lon="3.74702">
        <ele>137.1</ele>
        <time>2019-07-07T05:58:07Z</time>
      </trkpt>
      <trkpt lat="43.64725" lon="3.74704">
        <ele>137</ele>
        <time>2019-07-07T05:58:08Z</time>
      </trkpt>
      <trkpt lat="43.64727" lon="3.74706">
        <ele>136.9</ele>
        <time>2019-07-07T05:58:09Z</time>
      </trkpt>
      <trkpt lat="43.6473" lon="3.74708">
        <ele>136.8</ele>
        <time>2019-07-07T05:58:10Z</time>
      </trkpt>
      <trkpt lat="43.64734" lon="3.74713">
        <ele>136.7</ele>
        <time>2019-07-07T05:58:12Z</time>
      </trkpt>
      <trkpt lat="43.64737" lon="3.74716">
        <ele>136.6</ele>
        <time>2019-07-07T05:58:13Z</time>
      </trkpt>
      <trkpt lat="43.6474" lon="3.74719">
        <ele>136.6</ele>
        <time>2019-07-07T05:58:14Z</time>
      </trkpt>
      <trkpt lat="43.64743" lon="3.74721">
        <ele>136.5</ele>
        <time>2019-07-07T05:58:15Z</time>
      </trkpt>
      <trkpt lat="43.64747" lon="3.74724">
        <ele>136.4</ele>
        <time>2019-07-07T05:58:16Z</time>
      </trkpt>
      <trkpt lat="43.64751" lon="3.74727">
        <ele>136.3</ele>
        <time>2019-07-07T05:58:17Z</time>
      </trkpt>
      <trkpt lat="43.64755" lon="3.74731">
        <ele>136.2</ele>
        <time>2019-07-07T05:58:18Z</time>
      </trkpt>
      <trkpt lat="43.64759" lon="3.74735">
        <ele>136.1</ele>
        <time>2019-07-07T05:58:19Z</time>
      </trkpt>
      <trkpt lat="43.64762" lon="3.74738">
        <ele>136.1</ele>
        <time>2019-07-07T05:58:20Z</time>
      </trkpt>
      <trkpt lat="43.64766" lon="3.74741">
        <ele>136</ele>
        <time>2019-07-07T05:58:21Z</time>
      </trkpt>
      <trkpt lat="43.64769" lon="3.74741">
        <ele>135.9</ele>
        <time>2019-07-07T05:58:23Z</time>
      </trkpt>
      <trkpt lat="43.64772" lon="3.74739">
        <ele>136.2</ele>
        <time>2019-07-07T05:59:03Z</time>
      </trkpt>
      <trkpt lat="43.64775" lon="3.74737">
        <ele>136.5</ele>
        <time>2019-07-07T05:59:06Z</time>
      </trkpt>
      <trkpt lat="43.64778" lon="3.74733">
        <ele>136.6</ele>
        <time>2019-07-07T05:59:08Z</time>
      </trkpt>
      <trkpt lat="43.64779" lon="3.74728">
        <ele>137.2</ele>
        <time>2019-07-07T05:59:18Z</time>
      </trkpt>
      <trkpt lat="43.64779" lon="3.74724">
        <ele>137.2</ele>
        <time>2019-07-07T05:59:20Z</time>
      </trkpt>
      <trkpt lat="43.64781" lon="3.7472">
        <ele>137.7</ele>
        <time>2019-07-07T05:59:22Z</time>
      </trkpt>
      <trkpt lat="43.64784" lon="3.74716">
        <ele>137.8</ele>
        <time>2019-07-07T05:59:23Z</time>
      </trkpt>
      <trkpt lat="43.64786" lon="3.74713">
        <ele>138.2</ele>
        <time>2019-07-07T05:59:25Z</time>
      </trkpt>
      <trkpt lat="43.64785" lon="3.74709">
        <ele>138.4</ele>
        <time>2019-07-07T05:59:26Z</time>
      </trkpt>
      <trkpt lat="43.64786" lon="3.74706">
        <ele>138.6</ele>
        <time>2019-07-07T05:59:27Z</time>
      </trkpt>
      <trkpt lat="43.64787" lon="3.74698">
        <ele>139</ele>
        <time>2019-07-07T05:59:29Z</time>
      </trkpt>
      <trkpt lat="43.64788" lon="3.74693">
        <ele>139.3</ele>
        <time>2019-07-07T05:59:31Z</time>
      </trkpt>
      <trkpt lat="43.6479" lon="3.74687">
        <ele>139.5</ele>
        <time>2019-07-07T05:59:34Z</time>
      </trkpt>
      <trkpt lat="43.6479" lon="3.74682">
        <ele>139.6</ele>
        <time>2019-07-07T05:59:36Z</time>
      </trkpt>
      <trkpt lat="43.64794" lon="3.74677">
        <ele>140</ele>
        <time>2019-07-07T05:59:38Z</time>
      </trkpt>
      <trkpt lat="43.64798" lon="3.74676">
        <ele>140.2</ele>
        <time>2019-07-07T05:59:40Z</time>
      </trkpt>
      <trkpt lat="43.64799" lon="3.74671">
        <ele>140.4</ele>
        <time>2019-07-07T05:59:41Z</time>
      </trkpt>
      <trkpt lat="43.64802" lon="3.74667">
        <ele>140.7</ele>
        <time>2019-07-07T05:59:42Z</time>
      </trkpt>
      <trkpt lat="43.64805" lon="3.74663">
        <ele>140.9</ele>
        <time>2019-07-07T05:59:43Z</time>
      </trkpt>
      <trkpt lat="43.64809" lon="3.74659">
        <ele>141.2</ele>
        <time>2019-07-07T05:59:44Z</time>
      </trkpt>
      <trkpt lat="43.6481" lon="3.74655">
        <ele>141.4</ele>
        <time>2019-07-07T05:59:45Z</time>
      </trkpt>
      <trkpt lat="43.64814" lon="3.74651">
        <ele>141.6</ele>
        <time>2019-07-07T05:59:46Z</time>
      </trkpt>
      <trkpt lat="43.64819" lon="3.74645">
        <ele>141.9</ele>
        <time>2019-07-07T05:59:48Z</time>
      </trkpt>
      <trkpt lat="43.6482" lon="3.74639">
        <ele>142.1</ele>
        <time>2019-07-07T05:59:50Z</time>
      </trkpt>
      <trkpt lat="43.64817" lon="3.74635">
        <ele>142.1</ele>
        <time>2019-07-07T05:59:51Z</time>
      </trkpt>
      <trkpt lat="43.64819" lon="3.74632">
        <ele>142.3</ele>
        <time>2019-07-07T05:59:52Z</time>
      </trkpt>
      <trkpt lat="43.6482" lon="3.74627">
        <ele>142.3</ele>
        <time>2019-07-07T05:59:53Z</time>
      </trkpt>
      <trkpt lat="43.64819" lon="3.7462">
        <ele>142.4</ele>
        <time>2019-07-07T05:59:55Z</time>
      </trkpt>
      <trkpt lat="43.64823" lon="3.74615">
        <ele>142.5</ele>
        <time>2019-07-07T05:59:57Z</time>
      </trkpt>
      <trkpt lat="43.64825" lon="3.74607">
        <ele>142.5</ele>
        <time>2019-07-07T05:59:59Z</time>
      </trkpt>
      <trkpt lat="43.64823" lon="3.746">
        <ele>142.5</ele>
        <time>2019-07-07T06:00:01Z</time>
      </trkpt>
      <trkpt lat="43.64825" lon="3.74596">
        <ele>142.6</ele>
        <time>2019-07-07T06:00:03Z</time>
      </trkpt>
      <trkpt lat="43.64825" lon="3.74591">
        <ele>142.6</ele>
        <time>2019-07-07T06:00:04Z</time>
      </trkpt>
      <trkpt lat="43.64825" lon="3.74587">
        <ele>142.8</ele>
        <time>2019-07-07T06:00:05Z</time>
      </trkpt>
      <trkpt lat="43.64827" lon="3.74582">
        <ele>142.8</ele>
        <time>2019-07-07T06:00:06Z</time>
      </trkpt>
      <trkpt lat="43.64829" lon="3.74576">
        <ele>143</ele>
        <time>2019-07-07T06:00:08Z</time>
      </trkpt>
      <trkpt lat="43.64828" lon="3.74572">
        <ele>143.1</ele>
        <time>2019-07-07T06:00:09Z</time>
      </trkpt>
      <trkpt lat="43.64829" lon="3.74567">
        <ele>143.2</ele>
        <time>2019-07-07T06:00:10Z</time>
      </trkpt>
      <trkpt lat="43.64829" lon="3.74563">
        <ele>143.4</ele>
        <time>2019-07-07T06:00:11Z</time>
      </trkpt>
      <trkpt lat="43.64828" lon="3.74557">
        <ele>143.3</ele>
        <time>2019-07-07T06:00:12Z</time>
      </trkpt>
      <trkpt lat="43.64828" lon="3.74553">
        <ele>143.6</ele>
        <time>2019-07-07T06:00:13Z</time>
      </trkpt>
      <trkpt lat="43.64829" lon="3.74549">
        <ele>143.7</ele>
        <time>2019-07-07T06:00:14Z</time>
      </trkpt>
      <trkpt lat="43.64829" lon="3.74545">
        <ele>143.9</ele>
        <time>2019-07-07T06:00:15Z</time>
      </trkpt>
      <trkpt lat="43.6483" lon="3.74538">
        <ele>144.2</ele>
        <time>2019-07-07T06:00:17Z</time>
      </trkpt>
      <trkpt lat="43.64835" lon="3.74534">
        <ele>144.8</ele>
        <time>2019-07-07T06:00:19Z</time>
      </trkpt>
      <trkpt lat="43.64837" lon="3.74529">
        <ele>144.9</ele>
        <time>2019-07-07T06:00:21Z</time>
      </trkpt>
      <trkpt lat="43.64834" lon="3.74522">
        <ele>145</ele>
        <time>2019-07-07T06:00:23Z</time>
      </trkpt>
      <trkpt lat="43.64831" lon="3.74514">
        <ele>145.1</ele>
        <time>2019-07-07T06:00:25Z</time>
      </trkpt>
      <trkpt lat="43.64833" lon="3.7451">
        <ele>145.2</ele>
        <time>2019-07-07T06:00:27Z</time>
      </trkpt>
      <trkpt lat="43.64831" lon="3.74504">
        <ele>145.5</ele>
        <time>2019-07-07T06:00:28Z</time>
      </trkpt>
      <trkpt lat="43.64834" lon="3.74501">
        <ele>145.7</ele>
        <time>2019-07-07T06:00:29Z</time>
      </trkpt>
      <trkpt lat="43.64838" lon="3.74493">
        <ele>146</ele>
        <time>2019-07-07T06:00:30Z</time>
      </trkpt>
      <trkpt lat="43.64839" lon="3.74488">
        <ele>146.2</ele>
        <time>2019-07-07T06:00:31Z</time>
      </trkpt>
      <trkpt lat="43.64841" lon="3.74482">
        <ele>146.5</ele>
        <time>2019-07-07T06:00:33Z</time>
      </trkpt>
      <trkpt lat="43.64839" lon="3.74478">
        <ele>146.4</ele>
        <time>2019-07-07T06:00:34Z</time>
      </trkpt>
      <trkpt lat="43.64841" lon="3.74475">
        <ele>146.7</ele>
        <time>2019-07-07T06:00:36Z</time>
      </trkpt>
      <trkpt lat="43.64842" lon="3.74469">
        <ele>146.7</ele>
        <time>2019-07-07T06:00:38Z</time>
      </trkpt>
      <trkpt lat="43.64844" lon="3.74468">
        <ele>146.9</ele>
        <time>2019-07-07T06:00:39Z</time>
      </trkpt>
      <trkpt lat="43.64847" lon="3.74464">
        <ele>147</ele>
        <time>2019-07-07T06:00:41Z</time>
      </trkpt>
      <trkpt lat="43.64848" lon="3.74459">
        <ele>147.2</ele>
        <time>2019-07-07T06:00:43Z</time>
      </trkpt>
      <trkpt lat="43.64852" lon="3.74459">
        <ele>147.3</ele>
        <time>2019-07-07T06:00:44Z</time>
      </trkpt>
      <trkpt lat="43.64852" lon="3.74454">
        <ele>147.5</ele>
        <time>2019-07-07T06:00:45Z</time>
      </trkpt>
      <trkpt lat="43.64854" lon="3.74449">
        <ele>147.9</ele>
        <time>2019-07-07T06:00:47Z</time>
      </trkpt>
      <trkpt lat="43.64856" lon="3.74444">
        <ele>148</ele>
        <time>2019-07-07T06:00:49Z</time>
      </trkpt>
      <trkpt lat="43.64857" lon="3.7444">
        <ele>148.3</ele>
        <time>2019-07-07T06:00:50Z</time>
      </trkpt>
      <trkpt lat="43.64859" lon="3.74427">
        <ele>148.8</ele>
        <time>2019-07-07T06:00:52Z</time>
      </trkpt>
      <trkpt lat="43.6486" lon="3.74424">
        <ele>148.9</ele>
        <time>2019-07-07T06:00:53Z</time>
      </trkpt>
      <trkpt lat="43.64863" lon="3.74422">
        <ele>149.2</ele>
        <time>2019-07-07T06:00:54Z</time>
      </trkpt>
      <trkpt lat="43.64865" lon="3.74418">
        <ele>149.5</ele>
        <time>2019-07-07T06:00:56Z</time>
      </trkpt>
      <trkpt lat="43.64867" lon="3.74412">
        <ele>149.6</ele>
        <time>2019-07-07T06:00:58Z</time>
      </trkpt>
      <trkpt lat="43.64869" lon="3.74409">
        <ele>149.8</ele>
        <time>2019-07-07T06:00:59Z</time>
      </trkpt>
      <trkpt lat="43.6487" lon="3.74402">
        <ele>150.1</ele>
        <time>2019-07-07T06:01:01Z</time>
      </trkpt>
      <trkpt lat="43.64872" lon="3.74396">
        <ele>150.3</ele>
        <time>2019-07-07T06:01:03Z</time>
      </trkpt>
      <trkpt lat="43.64874" lon="3.74388">
        <ele>150.6</ele>
        <time>2019-07-07T06:01:05Z</time>
      </trkpt>
      <trkpt lat="43.64875" lon="3.74383">
        <ele>150.7</ele>
        <time>2019-07-07T06:01:06Z</time>
      </trkpt>
      <trkpt lat="43.64876" lon="3.74379">
        <ele>150.8</ele>
        <time>2019-07-07T06:01:07Z</time>
      </trkpt>
      <trkpt lat="43.64879" lon="3.74373">
        <ele>150.9</ele>
        <time>2019-07-07T06:01:09Z</time>
      </trkpt>
      <trkpt lat="43.6488" lon="3.74368">
        <ele>151.1</ele>
        <time>2019-07-07T06:01:11Z</time>
      </trkpt>
      <trkpt lat="43.64881" lon="3.74365">
        <ele>151.2</ele>
        <time>2019-07-07T06:01:12Z</time>
      </trkpt>
      <trkpt lat="43.64882" lon="3.74361">
        <ele>151.4</ele>
        <time>2019-07-07T06:01:14Z</time>
      </trkpt>
      <trkpt lat="43.64885" lon="3.74358">
        <ele>151.6</ele>
        <time>2019-07-07T06:01:15Z</time>
      </trkpt>
      <trkpt lat="43.64884" lon="3.7435">
        <ele>151.9</ele>
        <time>2019-07-07T06:01:17Z</time>
      </trkpt>
      <trkpt lat="43.64886" lon="3.74344">
        <ele>152.1</ele>
        <time>2019-07-07T06:01:19Z</time>
      </trkpt>
      <trkpt lat="43.64887" lon="3.74341">
        <ele>152.3</ele>
        <time>2019-07-07T06:01:20Z</time>
      </trkpt>
      <trkpt lat="43.64888" lon="3.74333">
        <ele>152.7</ele>
        <time>2019-07-07T06:01:22Z</time>
      </trkpt>
      <trkpt lat="43.64888" lon="3.74324">
        <ele>153.1</ele>
        <time>2019-07-07T06:01:24Z</time>
      </trkpt>
      <trkpt lat="43.64887" lon="3.7432">
        <ele>153.4</ele>
        <time>2019-07-07T06:01:25Z</time>
      </trkpt>
      <trkpt lat="43.6489" lon="3.74316">
        <ele>153.6</ele>
        <time>2019-07-07T06:01:26Z</time>
      </trkpt>
      <trkpt lat="43.64892" lon="3.74313">
        <ele>153.6</ele>
        <time>2019-07-07T06:01:27Z</time>
      </trkpt>
      <trkpt lat="43.64893" lon="3.74309">
        <ele>153.8</ele>
        <time>2019-07-07T06:01:28Z</time>
      </trkpt>
      <trkpt lat="43.64895" lon="3.74306">
        <ele>154.1</ele>
        <time>2019-07-07T06:01:29Z</time>
      </trkpt>
      <trkpt lat="43.64897" lon="3.743">
        <ele>154.4</ele>
        <time>2019-07-07T06:01:31Z</time>
      </trkpt>
      <trkpt lat="43.64899" lon="3.74296">
        <ele>154.6</ele>
        <time>2019-07-07T06:01:32Z</time>
      </trkpt>
      <trkpt lat="43.64899" lon="3.74292">
        <ele>154.9</ele>
        <time>2019-07-07T06:01:33Z</time>
      </trkpt>
      <trkpt lat="43.649" lon="3.74288">
        <ele>155.1</ele>
        <time>2019-07-07T06:01:34Z</time>
      </trkpt>
      <trkpt lat="43.64902" lon="3.74284">
        <ele>155.4</ele>
        <time>2019-07-07T06:01:35Z</time>
      </trkpt>
      <trkpt lat="43.64901" lon="3.74275">
        <ele>155.8</ele>
        <time>2019-07-07T06:01:37Z</time>
      </trkpt>
      <trkpt lat="43.64902" lon="3.7427">
        <ele>156.1</ele>
        <time>2019-07-07T06:01:38Z</time>
      </trkpt>
      <trkpt lat="43.64902" lon="3.74266">
        <ele>156.4</ele>
        <time>2019-07-07T06:01:39Z</time>
      </trkpt>
      <trkpt lat="43.64903" lon="3.74262">
        <ele>156.6</ele>
        <time>2019-07-07T06:01:40Z</time>
      </trkpt>
      <trkpt lat="43.64903" lon="3.74254">
        <ele>157.1</ele>
        <time>2019-07-07T06:01:42Z</time>
      </trkpt>
      <trkpt lat="43.64902" lon="3.7425">
        <ele>157.3</ele>
        <time>2019-07-07T06:01:43Z</time>
      </trkpt>
      <trkpt lat="43.64905" lon="3.74246">
        <ele>157.5</ele>
        <time>2019-07-07T06:01:45Z</time>
      </trkpt>
      <trkpt lat="43.64907" lon="3.74241">
        <ele>157.8</ele>
        <time>2019-07-07T06:01:46Z</time>
      </trkpt>
      <trkpt lat="43.64908" lon="3.74234">
        <ele>158.2</ele>
        <time>2019-07-07T06:01:48Z</time>
      </trkpt>
      <trkpt lat="43.64909" lon="3.74231">
        <ele>158.3</ele>
        <time>2019-07-07T06:01:49Z</time>
      </trkpt>
      <trkpt lat="43.64909" lon="3.74227">
        <ele>158.5</ele>
        <time>2019-07-07T06:01:50Z</time>
      </trkpt>
      <trkpt lat="43.64907" lon="3.74222">
        <ele>159</ele>
        <time>2019-07-07T06:01:51Z</time>
      </trkpt>
      <trkpt lat="43.6491" lon="3.74217">
        <ele>159.2</ele>
        <time>2019-07-07T06:01:53Z</time>
      </trkpt>
      <trkpt lat="43.64912" lon="3.74211">
        <ele>159.5</ele>
        <time>2019-07-07T06:01:55Z</time>
      </trkpt>
      <trkpt lat="43.64914" lon="3.74208">
        <ele>159.6</ele>
        <time>2019-07-07T06:01:56Z</time>
      </trkpt>
      <trkpt lat="43.64913" lon="3.74201">
        <ele>159.8</ele>
        <time>2019-07-07T06:01:57Z</time>
      </trkpt>
      <trkpt lat="43.64914" lon="3.74197">
        <ele>160</ele>
        <time>2019-07-07T06:01:58Z</time>
      </trkpt>
      <trkpt lat="43.64915" lon="3.74192">
        <ele>160.3</ele>
        <time>2019-07-07T06:02:00Z</time>
      </trkpt>
      <trkpt lat="43.64916" lon="3.74187">
        <ele>160.5</ele>
        <time>2019-07-07T06:02:02Z</time>
      </trkpt>
      <trkpt lat="43.64917" lon="3.74179">
        <ele>160.6</ele>
        <time>2019-07-07T06:02:04Z</time>
      </trkpt>
      <trkpt lat="43.64916" lon="3.74175">
        <ele>160.8</ele>
        <time>2019-07-07T06:02:05Z</time>
      </trkpt>
      <trkpt lat="43.64918" lon="3.74172">
        <ele>160.9</ele>
        <time>2019-07-07T06:02:06Z</time>
      </trkpt>
      <trkpt lat="43.64918" lon="3.74168">
        <ele>161</ele>
        <time>2019-07-07T06:02:07Z</time>
      </trkpt>
      <trkpt lat="43.64922" lon="3.74161">
        <ele>161.1</ele>
        <time>2019-07-07T06:02:09Z</time>
      </trkpt>
      <trkpt lat="43.64925" lon="3.74156">
        <ele>161.2</ele>
        <time>2019-07-07T06:02:11Z</time>
      </trkpt>
      <trkpt lat="43.64928" lon="3.74153">
        <ele>161.3</ele>
        <time>2019-07-07T06:02:12Z</time>
      </trkpt>
      <trkpt lat="43.6493" lon="3.74147">
        <ele>161.4</ele>
        <time>2019-07-07T06:02:14Z</time>
      </trkpt>
      <trkpt lat="43.64929" lon="3.74143">
        <ele>161.5</ele>
        <time>2019-07-07T06:02:15Z</time>
      </trkpt>
      <trkpt lat="43.64929" lon="3.74139">
        <ele>161.6</ele>
        <time>2019-07-07T06:02:16Z</time>
      </trkpt>
      <trkpt lat="43.64931" lon="3.74132">
        <ele>161.9</ele>
        <time>2019-07-07T06:02:18Z</time>
      </trkpt>
      <trkpt lat="43.6493" lon="3.74125">
        <ele>162</ele>
        <time>2019-07-07T06:02:20Z</time>
      </trkpt>
      <trkpt lat="43.6493" lon="3.74119">
        <ele>162.2</ele>
        <time>2019-07-07T06:02:21Z</time>
      </trkpt>
      <trkpt lat="43.64932" lon="3.74114">
        <ele>162.4</ele>
        <time>2019-07-07T06:02:23Z</time>
      </trkpt>
      <trkpt lat="43.64932" lon="3.74106">
        <ele>162.7</ele>
        <time>2019-07-07T06:02:25Z</time>
      </trkpt>
      <trkpt lat="43.64932" lon="3.741">
        <ele>162.8</ele>
        <time>2019-07-07T06:02:27Z</time>
      </trkpt>
      <trkpt lat="43.64934" lon="3.74095">
        <ele>162.8</ele>
        <time>2019-07-07T06:02:29Z</time>
      </trkpt>
      <trkpt lat="43.64931" lon="3.74091">
        <ele>163.2</ele>
        <time>2019-07-07T06:02:30Z</time>
      </trkpt>
      <trkpt lat="43.6493" lon="3.74085">
        <ele>163.6</ele>
        <time>2019-07-07T06:02:32Z</time>
      </trkpt>
      <trkpt lat="43.64934" lon="3.74081">
        <ele>163.4</ele>
        <time>2019-07-07T06:02:33Z</time>
      </trkpt>
      <trkpt lat="43.64937" lon="3.74079">
        <ele>163.4</ele>
        <time>2019-07-07T06:02:34Z</time>
      </trkpt>
      <trkpt lat="43.6494" lon="3.74077">
        <ele>163.4</ele>
        <time>2019-07-07T06:02:35Z</time>
      </trkpt>
      <trkpt lat="43.64943" lon="3.74075">
        <ele>163.4</ele>
        <time>2019-07-07T06:02:36Z</time>
      </trkpt>
      <trkpt lat="43.64945" lon="3.74074">
        <ele>163.3</ele>
        <time>2019-07-07T06:02:37Z</time>
      </trkpt>
      <trkpt lat="43.6495" lon="3.74072">
        <ele>163</ele>
        <time>2019-07-07T06:02:38Z</time>
      </trkpt>
      <trkpt lat="43.64953" lon="3.74067">
        <ele>163.2</ele>
        <time>2019-07-07T06:02:40Z</time>
      </trkpt>
      <trkpt lat="43.64956" lon="3.74063">
        <ele>163.3</ele>
        <time>2019-07-07T06:02:42Z</time>
      </trkpt>
      <trkpt lat="43.64959" lon="3.74057">
        <ele>163.3</ele>
        <time>2019-07-07T06:02:43Z</time>
      </trkpt>
      <trkpt lat="43.64962" lon="3.74052">
        <ele>163.4</ele>
        <time>2019-07-07T06:02:45Z</time>
      </trkpt>
      <trkpt lat="43.64967" lon="3.74049">
        <ele>163.4</ele>
        <time>2019-07-07T06:02:47Z</time>
      </trkpt>
      <trkpt lat="43.64971" lon="3.74047">
        <ele>163.3</ele>
        <time>2019-07-07T06:02:49Z</time>
      </trkpt>
      <trkpt lat="43.64973" lon="3.74044">
        <ele>163.4</ele>
        <time>2019-07-07T06:02:51Z</time>
      </trkpt>
      <trkpt lat="43.64978" lon="3.7404">
        <ele>163.4</ele>
        <time>2019-07-07T06:02:53Z</time>
      </trkpt>
      <trkpt lat="43.64982" lon="3.74039">
        <ele>163.4</ele>
        <time>2019-07-07T06:02:55Z</time>
      </trkpt>
      <trkpt lat="43.64985" lon="3.74034">
        <ele>163.5</ele>
        <time>2019-07-07T06:02:58Z</time>
      </trkpt>
      <trkpt lat="43.64989" lon="3.74033">
        <ele>163.6</ele>
        <time>2019-07-07T06:03:00Z</time>
      </trkpt>
      <trkpt lat="43.64993" lon="3.74029">
        <ele>163.7</ele>
        <time>2019-07-07T06:03:02Z</time>
      </trkpt>
      <trkpt lat="43.64996" lon="3.74024">
        <ele>163.8</ele>
        <time>2019-07-07T06:03:04Z</time>
      </trkpt>
      <trkpt lat="43.64999" lon="3.74023">
        <ele>163.8</ele>
        <time>2019-07-07T06:03:05Z</time>
      </trkpt>
      <trkpt lat="43.65003" lon="3.74021">
        <ele>164</ele>
        <time>2019-07-07T06:03:07Z</time>
      </trkpt>
      <trkpt lat="43.65005" lon="3.7402">
        <ele>164.2</ele>
        <time>2019-07-07T06:03:09Z</time>
      </trkpt>
      <trkpt lat="43.65008" lon="3.74018">
        <ele>164.2</ele>
        <time>2019-07-07T06:03:11Z</time>
      </trkpt>
      <trkpt lat="43.65009" lon="3.74013">
        <ele>164.4</ele>
        <time>2019-07-07T06:03:12Z</time>
      </trkpt>
      <trkpt lat="43.65012" lon="3.74009">
        <ele>164.5</ele>
        <time>2019-07-07T06:03:15Z</time>
      </trkpt>
      <trkpt lat="43.65017" lon="3.74006">
        <ele>164.7</ele>
        <time>2019-07-07T06:03:17Z</time>
      </trkpt>
      <trkpt lat="43.65022" lon="3.74005">
        <ele>165.1</ele>
        <time>2019-07-07T06:03:19Z</time>
      </trkpt>
      <trkpt lat="43.65025" lon="3.74002">
        <ele>165.3</ele>
        <time>2019-07-07T06:03:21Z</time>
      </trkpt>
      <trkpt lat="43.65027" lon="3.73997">
        <ele>165.3</ele>
        <time>2019-07-07T06:03:23Z</time>
      </trkpt>
      <trkpt lat="43.65028" lon="3.73994">
        <ele>165.4</ele>
        <time>2019-07-07T06:03:25Z</time>
      </trkpt>
      <trkpt lat="43.65029" lon="3.7399">
        <ele>165.4</ele>
        <time>2019-07-07T06:03:28Z</time>
      </trkpt>
      <trkpt lat="43.65033" lon="3.73987">
        <ele>165.6</ele>
        <time>2019-07-07T06:03:35Z</time>
      </trkpt>
      <trkpt lat="43.65033" lon="3.73982">
        <ele>165.6</ele>
        <time>2019-07-07T06:04:33Z</time>
      </trkpt>
      <trkpt lat="43.65029" lon="3.73977">
        <ele>165.4</ele>
        <time>2019-07-07T06:04:36Z</time>
      </trkpt>
      <trkpt lat="43.65027" lon="3.73974">
        <ele>165.3</ele>
        <time>2019-07-07T06:04:38Z</time>
      </trkpt>
      <trkpt lat="43.65025" lon="3.73967">
        <ele>165.3</ele>
        <time>2019-07-07T06:04:39Z</time>
      </trkpt>
      <trkpt lat="43.65023" lon="3.73964">
        <ele>165.2</ele>
        <time>2019-07-07T06:04:41Z</time>
      </trkpt>
      <trkpt lat="43.65021" lon="3.73961">
        <ele>165.2</ele>
        <time>2019-07-07T06:04:43Z</time>
      </trkpt>
      <trkpt lat="43.65018" lon="3.73957">
        <ele>165.2</ele>
        <time>2019-07-07T06:04:45Z</time>
      </trkpt>
      <trkpt lat="43.65017" lon="3.73952">
        <ele>165.2</ele>
        <time>2019-07-07T06:04:47Z</time>
      </trkpt>
      <trkpt lat="43.65014" lon="3.73948">
        <ele>165.2</ele>
        <time>2019-07-07T06:04:49Z</time>
      </trkpt>
      <trkpt lat="43.65011" lon="3.73944">
        <ele>165.2</ele>
        <time>2019-07-07T06:04:51Z</time>
      </trkpt>
      <trkpt lat="43.65009" lon="3.7394">
        <ele>165.2</ele>
        <time>2019-07-07T06:04:52Z</time>
      </trkpt>
      <trkpt lat="43.65007" lon="3.73934">
        <ele>165.2</ele>
        <time>2019-07-07T06:04:54Z</time>
      </trkpt>
      <trkpt lat="43.65007" lon="3.7393">
        <ele>165.2</ele>
        <time>2019-07-07T06:04:56Z</time>
      </trkpt>
      <trkpt lat="43.65006" lon="3.73927">
        <ele>165.2</ele>
        <time>2019-07-07T06:04:57Z</time>
      </trkpt>
      <trkpt lat="43.65002" lon="3.73923">
        <ele>165.3</ele>
        <time>2019-07-07T06:04:59Z</time>
      </trkpt>
      <trkpt lat="43.64999" lon="3.73919">
        <ele>165.3</ele>
        <time>2019-07-07T06:05:01Z</time>
      </trkpt>
      <trkpt lat="43.64996" lon="3.73919">
        <ele>165.4</ele>
        <time>2019-07-07T06:05:04Z</time>
      </trkpt>
      <trkpt lat="43.64992" lon="3.7392">
        <ele>165.4</ele>
        <time>2019-07-07T06:05:06Z</time>
      </trkpt>
      <trkpt lat="43.64988" lon="3.7392">
        <ele>165.4</ele>
        <time>2019-07-07T06:05:08Z</time>
      </trkpt>
      <trkpt lat="43.64985" lon="3.73919">
        <ele>165.4</ele>
        <time>2019-07-07T06:05:09Z</time>
      </trkpt>
      <trkpt lat="43.64981" lon="3.7392">
        <ele>165.4</ele>
        <time>2019-07-07T06:05:11Z</time>
      </trkpt>
      <trkpt lat="43.64977" lon="3.7392">
        <ele>165.4</ele>
        <time>2019-07-07T06:05:13Z</time>
      </trkpt>
      <trkpt lat="43.64975" lon="3.73918">
        <ele>165.4</ele>
        <time>2019-07-07T06:05:14Z</time>
      </trkpt>
      <trkpt lat="43.64971" lon="3.7392">
        <ele>165.4</ele>
        <time>2019-07-07T06:05:16Z</time>
      </trkpt>
      <trkpt lat="43.64968" lon="3.73924">
        <ele>165.3</ele>
        <time>2019-07-07T06:05:18Z</time>
      </trkpt>
      <trkpt lat="43.64966" lon="3.73927">
        <ele>165.3</ele>
        <time>2019-07-07T06:05:20Z</time>
      </trkpt>
      <trkpt lat="43.64962" lon="3.73927">
        <ele>165.3</ele>
        <time>2019-07-07T06:05:21Z</time>
      </trkpt>
      <trkpt lat="43.64957" lon="3.73928">
        <ele>165.3</ele>
        <time>2019-07-07T06:05:23Z</time>
      </trkpt>
      <trkpt lat="43.64954" lon="3.73932">
        <ele>165.3</ele>
        <time>2019-07-07T06:05:24Z</time>
      </trkpt>
      <trkpt lat="43.6495" lon="3.73935">
        <ele>165.3</ele>
        <time>2019-07-07T06:05:26Z</time>
      </trkpt>
      <trkpt lat="43.64944" lon="3.73935">
        <ele>165.5</ele>
        <time>2019-07-07T06:05:28Z</time>
      </trkpt>
      <trkpt lat="43.64941" lon="3.73936">
        <ele>165.6</ele>
        <time>2019-07-07T06:05:30Z</time>
      </trkpt>
      <trkpt lat="43.64938" lon="3.73937">
        <ele>165.8</ele>
        <time>2019-07-07T06:05:31Z</time>
      </trkpt>
      <trkpt lat="43.64935" lon="3.73938">
        <ele>165.9</ele>
        <time>2019-07-07T06:05:32Z</time>
      </trkpt>
      <trkpt lat="43.64933" lon="3.7394">
        <ele>166</ele>
        <time>2019-07-07T06:05:33Z</time>
      </trkpt>
      <trkpt lat="43.6493" lon="3.73942">
        <ele>166.2</ele>
        <time>2019-07-07T06:05:34Z</time>
      </trkpt>
      <trkpt lat="43.64927" lon="3.73945">
        <ele>166.3</ele>
        <time>2019-07-07T06:05:35Z</time>
      </trkpt>
      <trkpt lat="43.64923" lon="3.73947">
        <ele>166.5</ele>
        <time>2019-07-07T06:05:37Z</time>
      </trkpt>
      <trkpt lat="43.6492" lon="3.73948">
        <ele>166.6</ele>
        <time>2019-07-07T06:05:39Z</time>
      </trkpt>
      <trkpt lat="43.64917" lon="3.73948">
        <ele>166.8</ele>
        <time>2019-07-07T06:05:41Z</time>
      </trkpt>
      <trkpt lat="43.64914" lon="3.73946">
        <ele>167</ele>
        <time>2019-07-07T06:05:49Z</time>
      </trkpt>
      <trkpt lat="43.64915" lon="3.73941">
        <ele>166.8</ele>
        <time>2019-07-07T06:06:12Z</time>
      </trkpt>
      <trkpt lat="43.64918" lon="3.73939">
        <ele>166.8</ele>
        <time>2019-07-07T06:06:14Z</time>
      </trkpt>
      <trkpt lat="43.64922" lon="3.73937">
        <ele>166.4</ele>
        <time>2019-07-07T06:06:17Z</time>
      </trkpt>
      <trkpt lat="43.64924" lon="3.73934">
        <ele>166.4</ele>
        <time>2019-07-07T06:06:18Z</time>
      </trkpt>
      <trkpt lat="43.64928" lon="3.7393">
        <ele>166.1</ele>
        <time>2019-07-07T06:06:20Z</time>
      </trkpt>
      <trkpt lat="43.64931" lon="3.73929">
        <ele>165.9</ele>
        <time>2019-07-07T06:06:21Z</time>
      </trkpt>
      <trkpt lat="43.64935" lon="3.73928">
        <ele>165.8</ele>
        <time>2019-07-07T06:06:23Z</time>
      </trkpt>
      <trkpt lat="43.64939" lon="3.73926">
        <ele>165.7</ele>
        <time>2019-07-07T06:06:25Z</time>
      </trkpt>
      <trkpt lat="43.64944" lon="3.73924">
        <ele>165.5</ele>
        <time>2019-07-07T06:06:27Z</time>
      </trkpt>
      <trkpt lat="43.6495" lon="3.73921">
        <ele>165.3</ele>
        <time>2019-07-07T06:06:29Z</time>
      </trkpt>
      <trkpt lat="43.64953" lon="3.73921">
        <ele>165.3</ele>
        <time>2019-07-07T06:06:30Z</time>
      </trkpt>
      <trkpt lat="43.64956" lon="3.73922">
        <ele>165.2</ele>
        <time>2019-07-07T06:06:31Z</time>
      </trkpt>
      <trkpt lat="43.64961" lon="3.73922">
        <ele>165.1</ele>
        <time>2019-07-07T06:06:33Z</time>
      </trkpt>
      <trkpt lat="43.64964" lon="3.7392">
        <ele>165.1</ele>
        <time>2019-07-07T06:06:34Z</time>
      </trkpt>
      <trkpt lat="43.64966" lon="3.73919">
        <ele>165.1</ele>
        <time>2019-07-07T06:06:35Z</time>
      </trkpt>
      <trkpt lat="43.64971" lon="3.73916">
        <ele>165.1</ele>
        <time>2019-07-07T06:06:37Z</time>
      </trkpt>
      <trkpt lat="43.64974" lon="3.73913">
        <ele>165.1</ele>
        <time>2019-07-07T06:06:39Z</time>
      </trkpt>
      <trkpt lat="43.64978" lon="3.73912">
        <ele>165.1</ele>
        <time>2019-07-07T06:06:40Z</time>
      </trkpt>
      <trkpt lat="43.64981" lon="3.73908">
        <ele>165.1</ele>
        <time>2019-07-07T06:06:42Z</time>
      </trkpt>
      <trkpt lat="43.64984" lon="3.73908">
        <ele>165.1</ele>
        <time>2019-07-07T06:06:43Z</time>
      </trkpt>
      <trkpt lat="43.64989" lon="3.73906">
        <ele>165.1</ele>
        <time>2019-07-07T06:06:45Z</time>
      </trkpt>
      <trkpt lat="43.64992" lon="3.73907">
        <ele>165.1</ele>
        <time>2019-07-07T06:06:47Z</time>
      </trkpt>
      <trkpt lat="43.64995" lon="3.73908">
        <ele>165.1</ele>
        <time>2019-07-07T06:06:49Z</time>
      </trkpt>
      <trkpt lat="43.64998" lon="3.7391">
        <ele>165</ele>
        <time>2019-07-07T06:06:50Z</time>
      </trkpt>
      <trkpt lat="43.65" lon="3.73916">
        <ele>165</ele>
        <time>2019-07-07T06:06:52Z</time>
      </trkpt>
      <trkpt lat="43.65002" lon="3.73921">
        <ele>165</ele>
        <time>2019-07-07T06:06:53Z</time>
      </trkpt>
      <trkpt lat="43.65005" lon="3.73922">
        <ele>164.9</ele>
        <time>2019-07-07T06:06:55Z</time>
      </trkpt>
      <trkpt lat="43.65009" lon="3.73925">
        <ele>164.9</ele>
        <time>2019-07-07T06:06:57Z</time>
      </trkpt>
      <trkpt lat="43.6501" lon="3.7393">
        <ele>164.8</ele>
        <time>2019-07-07T06:06:59Z</time>
      </trkpt>
      <trkpt lat="43.65011" lon="3.73934">
        <ele>164.8</ele>
        <time>2019-07-07T06:07:03Z</time>
      </trkpt>
      <trkpt lat="43.65014" lon="3.73937">
        <ele>164.7</ele>
        <time>2019-07-07T06:07:05Z</time>
      </trkpt>
      <trkpt lat="43.65017" lon="3.73942">
        <ele>164.7</ele>
        <time>2019-07-07T06:07:07Z</time>
      </trkpt>
      <trkpt lat="43.6502" lon="3.73948">
        <ele>164.7</ele>
        <time>2019-07-07T06:07:09Z</time>
      </trkpt>
      <trkpt lat="43.65022" lon="3.73951">
        <ele>164.7</ele>
        <time>2019-07-07T06:07:10Z</time>
      </trkpt>
      <trkpt lat="43.65024" lon="3.73954">
        <ele>164.7</ele>
        <time>2019-07-07T06:07:11Z</time>
      </trkpt>
      <trkpt lat="43.65027" lon="3.73956">
        <ele>164.7</ele>
        <time>2019-07-07T06:07:12Z</time>
      </trkpt>
      <trkpt lat="43.65029" lon="3.73963">
        <ele>164.8</ele>
        <time>2019-07-07T06:07:14Z</time>
      </trkpt>
      <trkpt lat="43.65032" lon="3.73967">
        <ele>164.9</ele>
        <time>2019-07-07T06:07:15Z</time>
      </trkpt>
      <trkpt lat="43.65035" lon="3.73973">
        <ele>165</ele>
        <time>2019-07-07T06:07:16Z</time>
      </trkpt>
      <trkpt lat="43.6504" lon="3.7398">
        <ele>165.3</ele>
        <time>2019-07-07T06:07:18Z</time>
      </trkpt>
      <trkpt lat="43.65044" lon="3.73984">
        <ele>165.5</ele>
        <time>2019-07-07T06:07:20Z</time>
      </trkpt>
      <trkpt lat="43.65048" lon="3.73984">
        <ele>165.6</ele>
        <time>2019-07-07T06:07:23Z</time>
      </trkpt>
      <trkpt lat="43.65051" lon="3.73982">
        <ele>165.7</ele>
        <time>2019-07-07T06:07:24Z</time>
      </trkpt>
      <trkpt lat="43.65054" lon="3.73981">
        <ele>165.7</ele>
        <time>2019-07-07T06:07:25Z</time>
      </trkpt>
      <trkpt lat="43.65058" lon="3.73978">
        <ele>165.8</ele>
        <time>2019-07-07T06:07:27Z</time>
      </trkpt>
      <trkpt lat="43.65062" lon="3.73979">
        <ele>165.9</ele>
        <time>2019-07-07T06:07:30Z</time>
      </trkpt>
      <trkpt lat="43.65066" lon="3.73977">
        <ele>165.9</ele>
        <time>2019-07-07T06:07:32Z</time>
      </trkpt>
      <trkpt lat="43.65068" lon="3.73974">
        <ele>166</ele>
        <time>2019-07-07T06:07:33Z</time>
      </trkpt>
      <trkpt lat="43.65071" lon="3.73972">
        <ele>165.9</ele>
        <time>2019-07-07T06:07:35Z</time>
      </trkpt>
      <trkpt lat="43.65076" lon="3.7397">
        <ele>166</ele>
        <time>2019-07-07T06:07:37Z</time>
      </trkpt>
      <trkpt lat="43.65081" lon="3.73966">
        <ele>166</ele>
        <time>2019-07-07T06:07:39Z</time>
      </trkpt>
      <trkpt lat="43.65084" lon="3.73964">
        <ele>165.9</ele>
        <time>2019-07-07T06:07:40Z</time>
      </trkpt>
      <trkpt lat="43.65088" lon="3.7396">
        <ele>165.8</ele>
        <time>2019-07-07T06:07:42Z</time>
      </trkpt>
      <trkpt lat="43.65093" lon="3.73959">
        <ele>165.9</ele>
        <time>2019-07-07T06:07:44Z</time>
      </trkpt>
      <trkpt lat="43.65098" lon="3.73955">
        <ele>165.8</ele>
        <time>2019-07-07T06:07:46Z</time>
      </trkpt>
      <trkpt lat="43.651" lon="3.73952">
        <ele>165.8</ele>
        <time>2019-07-07T06:07:47Z</time>
      </trkpt>
      <trkpt lat="43.65103" lon="3.73948">
        <ele>165.6</ele>
        <time>2019-07-07T06:07:48Z</time>
      </trkpt>
      <trkpt lat="43.65106" lon="3.73943">
        <ele>165.4</ele>
        <time>2019-07-07T06:07:50Z</time>
      </trkpt>
      <trkpt lat="43.65109" lon="3.73941">
        <ele>165.3</ele>
        <time>2019-07-07T06:07:51Z</time>
      </trkpt>
      <trkpt lat="43.65112" lon="3.73939">
        <ele>165.3</ele>
        <time>2019-07-07T06:07:52Z</time>
      </trkpt>
      <trkpt lat="43.65115" lon="3.73935">
        <ele>165.1</ele>
        <time>2019-07-07T06:07:53Z</time>
      </trkpt>
      <trkpt lat="43.65118" lon="3.73932">
        <ele>165</ele>
        <time>2019-07-07T06:07:54Z</time>
      </trkpt>
      <trkpt lat="43.65119" lon="3.73928">
        <ele>164.8</ele>
        <time>2019-07-07T06:07:55Z</time>
      </trkpt>
      <trkpt lat="43.65124" lon="3.73924">
        <ele>164.7</ele>
        <time>2019-07-07T06:07:57Z</time>
      </trkpt>
      <trkpt lat="43.65126" lon="3.73923">
        <ele>164.7</ele>
        <time>2019-07-07T06:08:00Z</time>
      </trkpt>
      <trkpt lat="43.65129" lon="3.73922">
        <ele>164.7</ele>
        <time>2019-07-07T06:08:47Z</time>
      </trkpt>
      <trkpt lat="43.65131" lon="3.7392">
        <ele>164.6</ele>
        <time>2019-07-07T06:08:48Z</time>
      </trkpt>
      <trkpt lat="43.65136" lon="3.73923">
        <ele>164.6</ele>
        <time>2019-07-07T06:08:50Z</time>
      </trkpt>
      <trkpt lat="43.6514" lon="3.73925">
        <ele>164.6</ele>
        <time>2019-07-07T06:08:52Z</time>
      </trkpt>
      <trkpt lat="43.65143" lon="3.73927">
        <ele>164.7</ele>
        <time>2019-07-07T06:08:54Z</time>
      </trkpt>
      <trkpt lat="43.65146" lon="3.7393">
        <ele>164.6</ele>
        <time>2019-07-07T06:08:56Z</time>
      </trkpt>
      <trkpt lat="43.65148" lon="3.73933">
        <ele>164.7</ele>
        <time>2019-07-07T06:08:57Z</time>
      </trkpt>
      <trkpt lat="43.65153" lon="3.73937">
        <ele>164.8</ele>
        <time>2019-07-07T06:09:00Z</time>
      </trkpt>
      <trkpt lat="43.65155" lon="3.73939">
        <ele>164.9</ele>
        <time>2019-07-07T06:09:02Z</time>
      </trkpt>
      <trkpt lat="43.65159" lon="3.73944">
        <ele>165</ele>
        <time>2019-07-07T06:09:04Z</time>
      </trkpt>
      <trkpt lat="43.65163" lon="3.73952">
        <ele>165.3</ele>
        <time>2019-07-07T06:09:06Z</time>
      </trkpt>
      <trkpt lat="43.65167" lon="3.73955">
        <ele>165.1</ele>
        <time>2019-07-07T06:09:08Z</time>
      </trkpt>
      <trkpt lat="43.6517" lon="3.73958">
        <ele>165.1</ele>
        <time>2019-07-07T06:09:09Z</time>
      </trkpt>
      <trkpt lat="43.65175" lon="3.73959">
        <ele>165</ele>
        <time>2019-07-07T06:09:11Z</time>
      </trkpt>
      <trkpt lat="43.65176" lon="3.73963">
        <ele>164.9</ele>
        <time>2019-07-07T06:09:12Z</time>
      </trkpt>
      <trkpt lat="43.65181" lon="3.73971">
        <ele>164.9</ele>
        <time>2019-07-07T06:09:14Z</time>
      </trkpt>
      <trkpt lat="43.65184" lon="3.73974">
        <ele>164.8</ele>
        <time>2019-07-07T06:09:16Z</time>
      </trkpt>
      <trkpt lat="43.65187" lon="3.73976">
        <ele>164.6</ele>
        <time>2019-07-07T06:09:18Z</time>
      </trkpt>
      <trkpt lat="43.65191" lon="3.73978">
        <ele>164.5</ele>
        <time>2019-07-07T06:09:20Z</time>
      </trkpt>
      <trkpt lat="43.65194" lon="3.73979">
        <ele>164.4</ele>
        <time>2019-07-07T06:09:22Z</time>
      </trkpt>
      <trkpt lat="43.65197" lon="3.73982">
        <ele>164.2</ele>
        <time>2019-07-07T06:09:23Z</time>
      </trkpt>
      <trkpt lat="43.652" lon="3.73984">
        <ele>164</ele>
        <time>2019-07-07T06:09:24Z</time>
      </trkpt>
      <trkpt lat="43.65203" lon="3.73987">
        <ele>163.8</ele>
        <time>2019-07-07T06:09:27Z</time>
      </trkpt>
      <trkpt lat="43.65206" lon="3.7399">
        <ele>163.7</ele>
        <time>2019-07-07T06:09:28Z</time>
      </trkpt>
      <trkpt lat="43.65209" lon="3.73996">
        <ele>163.5</ele>
        <time>2019-07-07T06:09:30Z</time>
      </trkpt>
      <trkpt lat="43.65212" lon="3.74001">
        <ele>163.2</ele>
        <time>2019-07-07T06:09:32Z</time>
      </trkpt>
      <trkpt lat="43.65215" lon="3.74004">
        <ele>162.9</ele>
        <time>2019-07-07T06:09:35Z</time>
      </trkpt>
      <trkpt lat="43.65218" lon="3.74002">
        <ele>162.9</ele>
        <time>2019-07-07T06:09:43Z</time>
      </trkpt>
      <trkpt lat="43.65223" lon="3.74008">
        <ele>162.3</ele>
        <time>2019-07-07T06:09:45Z</time>
      </trkpt>
      <trkpt lat="43.65225" lon="3.7401">
        <ele>162.3</ele>
        <time>2019-07-07T06:09:46Z</time>
      </trkpt>
      <trkpt lat="43.65229" lon="3.74014">
        <ele>161.8</ele>
        <time>2019-07-07T06:09:48Z</time>
      </trkpt>
      <trkpt lat="43.65233" lon="3.74018">
        <ele>161.5</ele>
        <time>2019-07-07T06:09:50Z</time>
      </trkpt>
      <trkpt lat="43.65235" lon="3.74021">
        <ele>161.2</ele>
        <time>2019-07-07T06:09:51Z</time>
      </trkpt>
      <trkpt lat="43.65237" lon="3.74024">
        <ele>161.2</ele>
        <time>2019-07-07T06:09:52Z</time>
      </trkpt>
      <trkpt lat="43.6524" lon="3.74028">
        <ele>160.9</ele>
        <time>2019-07-07T06:09:54Z</time>
      </trkpt>
      <trkpt lat="43.65242" lon="3.74032">
        <ele>160.7</ele>
        <time>2019-07-07T06:10:01Z</time>
      </trkpt>
      <trkpt lat="43.65244" lon="3.74036">
        <ele>160.4</ele>
        <time>2019-07-07T06:10:28Z</time>
      </trkpt>
      <trkpt lat="43.65246" lon="3.74035">
        <ele>160.4</ele>
        <time>2019-07-07T06:10:30Z</time>
      </trkpt>
      <trkpt lat="43.65249" lon="3.74039">
        <ele>160.1</ele>
        <time>2019-07-07T06:10:31Z</time>
      </trkpt>
      <trkpt lat="43.65252" lon="3.74041">
        <ele>160.1</ele>
        <time>2019-07-07T06:10:34Z</time>
      </trkpt>
      <trkpt lat="43.65256" lon="3.74044">
        <ele>159.9</ele>
        <time>2019-07-07T06:10:37Z</time>
      </trkpt>
      <trkpt lat="43.65258" lon="3.74049">
        <ele>159.6</ele>
        <time>2019-07-07T06:10:39Z</time>
      </trkpt>
      <trkpt lat="43.6526" lon="3.74054">
        <ele>159.3</ele>
        <time>2019-07-07T06:10:41Z</time>
      </trkpt>
      <trkpt lat="43.65265" lon="3.74059">
        <ele>158.8</ele>
        <time>2019-07-07T06:10:43Z</time>
      </trkpt>
      <trkpt lat="43.65266" lon="3.74062">
        <ele>158.8</ele>
        <time>2019-07-07T06:10:44Z</time>
      </trkpt>
      <trkpt lat="43.65269" lon="3.74065">
        <ele>158.7</ele>
        <time>2019-07-07T06:10:47Z</time>
      </trkpt>
      <trkpt lat="43.65272" lon="3.74068">
        <ele>158.7</ele>
        <time>2019-07-07T06:10:49Z</time>
      </trkpt>
      <trkpt lat="43.65275" lon="3.7407">
        <ele>158.7</ele>
        <time>2019-07-07T06:10:51Z</time>
      </trkpt>
      <trkpt lat="43.65276" lon="3.74074">
        <ele>158.8</ele>
        <time>2019-07-07T06:10:52Z</time>
      </trkpt>
      <trkpt lat="43.65279" lon="3.74078">
        <ele>159.1</ele>
        <time>2019-07-07T06:10:54Z</time>
      </trkpt>
      <trkpt lat="43.65283" lon="3.74083">
        <ele>159.5</ele>
        <time>2019-07-07T06:10:56Z</time>
      </trkpt>
      <trkpt lat="43.65286" lon="3.74087">
        <ele>159.9</ele>
        <time>2019-07-07T06:10:58Z</time>
      </trkpt>
      <trkpt lat="43.6529" lon="3.74089">
        <ele>160.4</ele>
        <time>2019-07-07T06:10:59Z</time>
      </trkpt>
      <trkpt lat="43.65294" lon="3.74092">
        <ele>160.7</ele>
        <time>2019-07-07T06:11:01Z</time>
      </trkpt>
      <trkpt lat="43.65298" lon="3.74093">
        <ele>160.9</ele>
        <time>2019-07-07T06:11:03Z</time>
      </trkpt>
      <trkpt lat="43.65303" lon="3.74093">
        <ele>161.4</ele>
        <time>2019-07-07T06:11:05Z</time>
      </trkpt>
      <trkpt lat="43.65307" lon="3.74097">
        <ele>162.1</ele>
        <time>2019-07-07T06:11:07Z</time>
      </trkpt>
      <trkpt lat="43.65311" lon="3.74099">
        <ele>162.2</ele>
        <time>2019-07-07T06:11:09Z</time>
      </trkpt>
      <trkpt lat="43.65314" lon="3.74098">
        <ele>162.4</ele>
        <time>2019-07-07T06:11:10Z</time>
      </trkpt>
      <trkpt lat="43.65317" lon="3.74097">
        <ele>162.2</ele>
        <time>2019-07-07T06:11:11Z</time>
      </trkpt>
      <trkpt lat="43.6532" lon="3.74096">
        <ele>162.3</ele>
        <time>2019-07-07T06:11:12Z</time>
      </trkpt>
      <trkpt lat="43.65324" lon="3.74095">
        <ele>162.5</ele>
        <time>2019-07-07T06:11:13Z</time>
      </trkpt>
      <trkpt lat="43.65328" lon="3.74094">
        <ele>162.7</ele>
        <time>2019-07-07T06:11:14Z</time>
      </trkpt>
      <trkpt lat="43.65333" lon="3.74093">
        <ele>162.5</ele>
        <time>2019-07-07T06:11:15Z</time>
      </trkpt>
      <trkpt lat="43.65337" lon="3.74093">
        <ele>162.5</ele>
        <time>2019-07-07T06:11:16Z</time>
      </trkpt>
      <trkpt lat="43.65342" lon="3.74093">
        <ele>162.6</ele>
        <time>2019-07-07T06:11:17Z</time>
      </trkpt>
      <trkpt lat="43.65347" lon="3.74093">
        <ele>162.7</ele>
        <time>2019-07-07T06:11:18Z</time>
      </trkpt>
      <trkpt lat="43.65351" lon="3.74093">
        <ele>163</ele>
        <time>2019-07-07T06:11:19Z</time>
      </trkpt>
      <trkpt lat="43.65356" lon="3.74094">
        <ele>163</ele>
        <time>2019-07-07T06:11:20Z</time>
      </trkpt>
      <trkpt lat="43.65359" lon="3.74094">
        <ele>162.9</ele>
        <time>2019-07-07T06:11:21Z</time>
      </trkpt>
      <trkpt lat="43.65362" lon="3.74089">
        <ele>162.6</ele>
        <time>2019-07-07T06:11:22Z</time>
      </trkpt>
      <trkpt lat="43.65365" lon="3.74089">
        <ele>162.5</ele>
        <time>2019-07-07T06:11:23Z</time>
      </trkpt>
      <trkpt lat="43.65368" lon="3.74091">
        <ele>162.4</ele>
        <time>2019-07-07T06:11:24Z</time>
      </trkpt>
      <trkpt lat="43.65372" lon="3.74089">
        <ele>162.1</ele>
        <time>2019-07-07T06:11:26Z</time>
      </trkpt>
      <trkpt lat="43.65375" lon="3.74088">
        <ele>161.6</ele>
        <time>2019-07-07T06:11:27Z</time>
      </trkpt>
      <trkpt lat="43.65379" lon="3.74087">
        <ele>161.4</ele>
        <time>2019-07-07T06:11:28Z</time>
      </trkpt>
      <trkpt lat="43.65382" lon="3.74086">
        <ele>161.2</ele>
        <time>2019-07-07T06:11:29Z</time>
      </trkpt>
      <trkpt lat="43.65386" lon="3.74087">
        <ele>161</ele>
        <time>2019-07-07T06:11:30Z</time>
      </trkpt>
      <trkpt lat="43.6539" lon="3.7409">
        <ele>161</ele>
        <time>2019-07-07T06:11:31Z</time>
      </trkpt>
      <trkpt lat="43.65394" lon="3.74091">
        <ele>160.5</ele>
        <time>2019-07-07T06:11:32Z</time>
      </trkpt>
      <trkpt lat="43.65398" lon="3.74093">
        <ele>160.5</ele>
        <time>2019-07-07T06:11:33Z</time>
      </trkpt>
      <trkpt lat="43.65404" lon="3.74097">
        <ele>159.9</ele>
        <time>2019-07-07T06:11:35Z</time>
      </trkpt>
      <trkpt lat="43.65406" lon="3.74099">
        <ele>159.8</ele>
        <time>2019-07-07T06:11:36Z</time>
      </trkpt>
      <trkpt lat="43.65413" lon="3.74101">
        <ele>159.3</ele>
        <time>2019-07-07T06:11:38Z</time>
      </trkpt>
      <trkpt lat="43.65417" lon="3.74103">
        <ele>159.2</ele>
        <time>2019-07-07T06:11:40Z</time>
      </trkpt>
      <trkpt lat="43.65418" lon="3.74107">
        <ele>159.3</ele>
        <time>2019-07-07T06:11:41Z</time>
      </trkpt>
      <trkpt lat="43.6542" lon="3.7411">
        <ele>159.1</ele>
        <time>2019-07-07T06:11:42Z</time>
      </trkpt>
      <trkpt lat="43.65423" lon="3.74113">
        <ele>158.9</ele>
        <time>2019-07-07T06:11:44Z</time>
      </trkpt>
      <trkpt lat="43.65427" lon="3.74118">
        <ele>158.8</ele>
        <time>2019-07-07T06:11:50Z</time>
      </trkpt>
      <trkpt lat="43.6543" lon="3.74124">
        <ele>158.8</ele>
        <time>2019-07-07T06:12:19Z</time>
      </trkpt>
      <trkpt lat="43.65431" lon="3.74133">
        <ele>158.6</ele>
        <time>2019-07-07T06:15:40Z</time>
      </trkpt>
      <trkpt lat="43.6543" lon="3.74137">
        <ele>158.8</ele>
        <time>2019-07-07T06:15:42Z</time>
      </trkpt>
      <trkpt lat="43.6543" lon="3.74143">
        <ele>158.8</ele>
        <time>2019-07-07T06:15:44Z</time>
      </trkpt>
      <trkpt lat="43.6543" lon="3.74147">
        <ele>158.9</ele>
        <time>2019-07-07T06:15:47Z</time>
      </trkpt>
      <trkpt lat="43.6543" lon="3.74152">
        <ele>159</ele>
        <time>2019-07-07T06:15:49Z</time>
      </trkpt>
      <trkpt lat="43.65429" lon="3.74156">
        <ele>159.1</ele>
        <time>2019-07-07T06:15:50Z</time>
      </trkpt>
      <trkpt lat="43.65428" lon="3.74161">
        <ele>159.3</ele>
        <time>2019-07-07T06:15:52Z</time>
      </trkpt>
      <trkpt lat="43.65431" lon="3.74164">
        <ele>159</ele>
        <time>2019-07-07T06:15:54Z</time>
      </trkpt>
      <trkpt lat="43.65429" lon="3.74168">
        <ele>159.7</ele>
        <time>2019-07-07T06:15:57Z</time>
      </trkpt>
      <trkpt lat="43.65426" lon="3.74174">
        <ele>160.6</ele>
        <time>2019-07-07T06:16:00Z</time>
      </trkpt>
      <trkpt lat="43.65425" lon="3.74178">
        <ele>160.9</ele>
        <time>2019-07-07T06:16:03Z</time>
      </trkpt>
      <trkpt lat="43.65425" lon="3.74184">
        <ele>161.6</ele>
        <time>2019-07-07T06:16:06Z</time>
      </trkpt>
      <trkpt lat="43.65425" lon="3.74188">
        <ele>161.9</ele>
        <time>2019-07-07T06:16:09Z</time>
      </trkpt>
      <trkpt lat="43.65423" lon="3.74194">
        <ele>163</ele>
        <time>2019-07-07T06:16:11Z</time>
      </trkpt>
      <trkpt lat="43.65425" lon="3.74197">
        <ele>162.6</ele>
        <time>2019-07-07T06:16:13Z</time>
      </trkpt>
      <trkpt lat="43.65423" lon="3.74202">
        <ele>163.6</ele>
        <time>2019-07-07T06:16:15Z</time>
      </trkpt>
      <trkpt lat="43.6542" lon="3.74206">
        <ele>164.6</ele>
        <time>2019-07-07T06:16:17Z</time>
      </trkpt>
      <trkpt lat="43.65419" lon="3.7421">
        <ele>165</ele>
        <time>2019-07-07T06:16:19Z</time>
      </trkpt>
      <trkpt lat="43.65418" lon="3.74215">
        <ele>166.1</ele>
        <time>2019-07-07T06:16:21Z</time>
      </trkpt>
      <trkpt lat="43.65416" lon="3.74217">
        <ele>166.1</ele>
        <time>2019-07-07T06:16:23Z</time>
      </trkpt>
      <trkpt lat="43.65413" lon="3.7422">
        <ele>167.3</ele>
        <time>2019-07-07T06:16:25Z</time>
      </trkpt>
      <trkpt lat="43.65413" lon="3.74225">
        <ele>167.7</ele>
        <time>2019-07-07T06:16:27Z</time>
      </trkpt>
      <trkpt lat="43.65412" lon="3.74228">
        <ele>168.9</ele>
        <time>2019-07-07T06:16:29Z</time>
      </trkpt>
      <trkpt lat="43.65411" lon="3.74233">
        <ele>169.3</ele>
        <time>2019-07-07T06:16:33Z</time>
      </trkpt>
      <trkpt lat="43.65412" lon="3.74237">
        <ele>169</ele>
        <time>2019-07-07T06:16:35Z</time>
      </trkpt>
      <trkpt lat="43.65411" lon="3.74241">
        <ele>170.2</ele>
        <time>2019-07-07T06:16:37Z</time>
      </trkpt>
      <trkpt lat="43.65409" lon="3.74245">
        <ele>170.6</ele>
        <time>2019-07-07T06:16:39Z</time>
      </trkpt>
      <trkpt lat="43.65407" lon="3.74251">
        <ele>171.8</ele>
        <time>2019-07-07T06:16:42Z</time>
      </trkpt>
      <trkpt lat="43.65406" lon="3.74254">
        <ele>172.9</ele>
        <time>2019-07-07T06:16:44Z</time>
      </trkpt>
      <trkpt lat="43.65404" lon="3.74259">
        <ele>173.4</ele>
        <time>2019-07-07T06:16:46Z</time>
      </trkpt>
      <trkpt lat="43.65403" lon="3.74263">
        <ele>173.8</ele>
        <time>2019-07-07T06:16:48Z</time>
      </trkpt>
      <trkpt lat="43.65402" lon="3.74266">
        <ele>175</ele>
        <time>2019-07-07T06:16:50Z</time>
      </trkpt>
      <trkpt lat="43.65401" lon="3.74271">
        <ele>175.5</ele>
        <time>2019-07-07T06:16:53Z</time>
      </trkpt>
      <trkpt lat="43.65401" lon="3.74275">
        <ele>175.9</ele>
        <time>2019-07-07T06:16:55Z</time>
      </trkpt>
      <trkpt lat="43.65399" lon="3.74279">
        <ele>177.1</ele>
        <time>2019-07-07T06:16:57Z</time>
      </trkpt>
      <trkpt lat="43.65399" lon="3.74283">
        <ele>177.5</ele>
        <time>2019-07-07T06:16:59Z</time>
      </trkpt>
      <trkpt lat="43.65397" lon="3.74286">
        <ele>177.9</ele>
        <time>2019-07-07T06:17:01Z</time>
      </trkpt>
      <trkpt lat="43.65397" lon="3.74291">
        <ele>178.3</ele>
        <time>2019-07-07T06:17:04Z</time>
      </trkpt>
      <trkpt lat="43.65395" lon="3.74294">
        <ele>179</ele>
        <time>2019-07-07T06:17:07Z</time>
      </trkpt>
      <trkpt lat="43.65393" lon="3.74296">
        <ele>180</ele>
        <time>2019-07-07T06:17:18Z</time>
      </trkpt>
      <trkpt lat="43.65391" lon="3.74298">
        <ele>180</ele>
        <time>2019-07-07T06:18:07Z</time>
      </trkpt>
      <trkpt lat="43.65387" lon="3.74304">
        <ele>181.3</ele>
        <time>2019-07-07T06:18:10Z</time>
      </trkpt>
      <trkpt lat="43.65386" lon="3.7431">
        <ele>182.2</ele>
        <time>2019-07-07T06:18:14Z</time>
      </trkpt>
      <trkpt lat="43.65383" lon="3.74311">
        <ele>182.7</ele>
        <time>2019-07-07T06:18:16Z</time>
      </trkpt>
      <trkpt lat="43.65383" lon="3.74315">
        <ele>183</ele>
        <time>2019-07-07T06:18:19Z</time>
      </trkpt>
      <trkpt lat="43.65384" lon="3.74322">
        <ele>183.1</ele>
        <time>2019-07-07T06:18:23Z</time>
      </trkpt>
      <trkpt lat="43.65385" lon="3.74326">
        <ele>183.3</ele>
        <time>2019-07-07T06:18:27Z</time>
      </trkpt>
      <trkpt lat="43.65384" lon="3.74331">
        <ele>183.5</ele>
        <time>2019-07-07T06:18:30Z</time>
      </trkpt>
      <trkpt lat="43.65383" lon="3.74336">
        <ele>184.2</ele>
        <time>2019-07-07T06:18:33Z</time>
      </trkpt>
      <trkpt lat="43.65384" lon="3.74344">
        <ele>184.5</ele>
        <time>2019-07-07T06:18:36Z</time>
      </trkpt>
      <trkpt lat="43.65384" lon="3.7435">
        <ele>184.7</ele>
        <time>2019-07-07T06:18:39Z</time>
      </trkpt>
      <trkpt lat="43.65385" lon="3.74354">
        <ele>184.3</ele>
        <time>2019-07-07T06:18:41Z</time>
      </trkpt>
      <trkpt lat="43.65386" lon="3.7436">
        <ele>184.6</ele>
        <time>2019-07-07T06:18:45Z</time>
      </trkpt>
      <trkpt lat="43.65387" lon="3.74364">
        <ele>184.2</ele>
        <time>2019-07-07T06:18:46Z</time>
      </trkpt>
      <trkpt lat="43.65388" lon="3.74368">
        <ele>184.3</ele>
        <time>2019-07-07T06:18:47Z</time>
      </trkpt>
      <trkpt lat="43.65388" lon="3.74372">
        <ele>184.3</ele>
        <time>2019-07-07T06:18:48Z</time>
      </trkpt>
      <trkpt lat="43.65388" lon="3.74378">
        <ele>184.5</ele>
        <time>2019-07-07T06:18:50Z</time>
      </trkpt>
      <trkpt lat="43.65386" lon="3.7438">
        <ele>185.1</ele>
        <time>2019-07-07T06:18:57Z</time>
      </trkpt>
      <trkpt lat="43.65384" lon="3.74385">
        <ele>185.2</ele>
        <time>2019-07-07T06:19:16Z</time>
      </trkpt>
      <trkpt lat="43.65382" lon="3.74389">
        <ele>185.8</ele>
        <time>2019-07-07T06:19:19Z</time>
      </trkpt>
      <trkpt lat="43.65382" lon="3.74393">
        <ele>186</ele>
        <time>2019-07-07T06:19:21Z</time>
      </trkpt>
      <trkpt lat="43.6538" lon="3.74398">
        <ele>186.7</ele>
        <time>2019-07-07T06:19:23Z</time>
      </trkpt>
      <trkpt lat="43.65378" lon="3.74403">
        <ele>187.3</ele>
        <time>2019-07-07T06:19:26Z</time>
      </trkpt>
      <trkpt lat="43.65377" lon="3.74407">
        <ele>187.4</ele>
        <time>2019-07-07T06:19:28Z</time>
      </trkpt>
      <trkpt lat="43.65377" lon="3.74411">
        <ele>187.6</ele>
        <time>2019-07-07T06:19:30Z</time>
      </trkpt>
      <trkpt lat="43.65376" lon="3.74416">
        <ele>187.7</ele>
        <time>2019-07-07T06:19:32Z</time>
      </trkpt>
      <trkpt lat="43.65373" lon="3.7442">
        <ele>188.2</ele>
        <time>2019-07-07T06:19:35Z</time>
      </trkpt>
      <trkpt lat="43.65372" lon="3.74424">
        <ele>188.2</ele>
        <time>2019-07-07T06:19:37Z</time>
      </trkpt>
      <trkpt lat="43.65371" lon="3.74428">
        <ele>188.8</ele>
        <time>2019-07-07T06:19:39Z</time>
      </trkpt>
      <trkpt lat="43.65371" lon="3.74435">
        <ele>188.9</ele>
        <time>2019-07-07T06:19:41Z</time>
      </trkpt>
      <trkpt lat="43.65371" lon="3.7444">
        <ele>189.1</ele>
        <time>2019-07-07T06:19:43Z</time>
      </trkpt>
      <trkpt lat="43.6537" lon="3.74444">
        <ele>189.2</ele>
        <time>2019-07-07T06:19:45Z</time>
      </trkpt>
      <trkpt lat="43.6537" lon="3.7445">
        <ele>189.5</ele>
        <time>2019-07-07T06:19:47Z</time>
      </trkpt>
      <trkpt lat="43.6537" lon="3.74454">
        <ele>189.6</ele>
        <time>2019-07-07T06:19:49Z</time>
      </trkpt>
      <trkpt lat="43.65371" lon="3.74458">
        <ele>189.7</ele>
        <time>2019-07-07T06:19:51Z</time>
      </trkpt>
      <trkpt lat="43.65369" lon="3.74465">
        <ele>189.8</ele>
        <time>2019-07-07T06:19:53Z</time>
      </trkpt>
      <trkpt lat="43.65368" lon="3.74469">
        <ele>190.2</ele>
        <time>2019-07-07T06:19:54Z</time>
      </trkpt>
      <trkpt lat="43.65367" lon="3.74474">
        <ele>190.4</ele>
        <time>2019-07-07T06:19:55Z</time>
      </trkpt>
      <trkpt lat="43.65363" lon="3.74479">
        <ele>190.8</ele>
        <time>2019-07-07T06:19:57Z</time>
      </trkpt>
      <trkpt lat="43.65363" lon="3.74484">
        <ele>191.2</ele>
        <time>2019-07-07T06:19:59Z</time>
      </trkpt>
      <trkpt lat="43.65362" lon="3.74487">
        <ele>191.5</ele>
        <time>2019-07-07T06:20:00Z</time>
      </trkpt>
      <trkpt lat="43.6536" lon="3.74493">
        <ele>191.9</ele>
        <time>2019-07-07T06:20:02Z</time>
      </trkpt>
      <trkpt lat="43.65358" lon="3.74498">
        <ele>192.4</ele>
        <time>2019-07-07T06:20:04Z</time>
      </trkpt>
      <trkpt lat="43.65359" lon="3.74502">
        <ele>192.6</ele>
        <time>2019-07-07T06:20:06Z</time>
      </trkpt>
      <trkpt lat="43.65357" lon="3.74508">
        <ele>192.8</ele>
        <time>2019-07-07T06:20:08Z</time>
      </trkpt>
      <trkpt lat="43.65353" lon="3.74513">
        <ele>193.2</ele>
        <time>2019-07-07T06:20:09Z</time>
      </trkpt>
      <trkpt lat="43.65353" lon="3.74517">
        <ele>193.4</ele>
        <time>2019-07-07T06:20:10Z</time>
      </trkpt>
      <trkpt lat="43.65353" lon="3.74521">
        <ele>193.5</ele>
        <time>2019-07-07T06:20:11Z</time>
      </trkpt>
      <trkpt lat="43.65352" lon="3.74526">
        <ele>193.7</ele>
        <time>2019-07-07T06:20:12Z</time>
      </trkpt>
      <trkpt lat="43.65352" lon="3.74531">
        <ele>193.9</ele>
        <time>2019-07-07T06:20:14Z</time>
      </trkpt>
      <trkpt lat="43.65352" lon="3.74536">
        <ele>194</ele>
        <time>2019-07-07T06:20:16Z</time>
      </trkpt>
      <trkpt lat="43.65349" lon="3.74539">
        <ele>194</ele>
        <time>2019-07-07T06:20:17Z</time>
      </trkpt>
      <trkpt lat="43.65346" lon="3.74543">
        <ele>194.1</ele>
        <time>2019-07-07T06:20:19Z</time>
      </trkpt>
      <trkpt lat="43.65343" lon="3.74547">
        <ele>194.1</ele>
        <time>2019-07-07T06:20:21Z</time>
      </trkpt>
      <trkpt lat="43.65341" lon="3.74551">
        <ele>194.2</ele>
        <time>2019-07-07T06:20:23Z</time>
      </trkpt>
      <trkpt lat="43.6534" lon="3.74556">
        <ele>194.2</ele>
        <time>2019-07-07T06:20:25Z</time>
      </trkpt>
      <trkpt lat="43.65339" lon="3.7456">
        <ele>194.3</ele>
        <time>2019-07-07T06:20:26Z</time>
      </trkpt>
      <trkpt lat="43.65335" lon="3.74567">
        <ele>194.6</ele>
        <time>2019-07-07T06:20:28Z</time>
      </trkpt>
      <trkpt lat="43.65335" lon="3.74571">
        <ele>194.7</ele>
        <time>2019-07-07T06:20:30Z</time>
      </trkpt>
      <trkpt lat="43.65332" lon="3.74575">
        <ele>194.9</ele>
        <time>2019-07-07T06:20:32Z</time>
      </trkpt>
      <trkpt lat="43.65332" lon="3.7458">
        <ele>195.1</ele>
        <time>2019-07-07T06:20:35Z</time>
      </trkpt>
      <trkpt lat="43.65331" lon="3.74585">
        <ele>195.3</ele>
        <time>2019-07-07T06:20:37Z</time>
      </trkpt>
      <trkpt lat="43.65328" lon="3.7459">
        <ele>195.5</ele>
        <time>2019-07-07T06:20:39Z</time>
      </trkpt>
      <trkpt lat="43.65329" lon="3.746">
        <ele>196.2</ele>
        <time>2019-07-07T06:20:42Z</time>
      </trkpt>
      <trkpt lat="43.65329" lon="3.74606">
        <ele>196.5</ele>
        <time>2019-07-07T06:20:44Z</time>
      </trkpt>
      <trkpt lat="43.65328" lon="3.74611">
        <ele>196.7</ele>
        <time>2019-07-07T06:20:46Z</time>
      </trkpt>
      <trkpt lat="43.65328" lon="3.74617">
        <ele>197.3</ele>
        <time>2019-07-07T06:20:48Z</time>
      </trkpt>
      <trkpt lat="43.65327" lon="3.74623">
        <ele>197.5</ele>
        <time>2019-07-07T06:20:50Z</time>
      </trkpt>
      <trkpt lat="43.65326" lon="3.7463">
        <ele>198</ele>
        <time>2019-07-07T06:20:52Z</time>
      </trkpt>
      <trkpt lat="43.65324" lon="3.74634">
        <ele>198.3</ele>
        <time>2019-07-07T06:20:54Z</time>
      </trkpt>
      <trkpt lat="43.65325" lon="3.74639">
        <ele>198.5</ele>
        <time>2019-07-07T06:20:56Z</time>
      </trkpt>
      <trkpt lat="43.65324" lon="3.74643">
        <ele>198.7</ele>
        <time>2019-07-07T06:20:58Z</time>
      </trkpt>
      <trkpt lat="43.65322" lon="3.74648">
        <ele>198.8</ele>
        <time>2019-07-07T06:21:01Z</time>
      </trkpt>
      <trkpt lat="43.6532" lon="3.74653">
        <ele>199</ele>
        <time>2019-07-07T06:21:03Z</time>
      </trkpt>
      <trkpt lat="43.6532" lon="3.74658">
        <ele>199.2</ele>
        <time>2019-07-07T06:21:05Z</time>
      </trkpt>
      <trkpt lat="43.65317" lon="3.74663">
        <ele>199.2</ele>
        <time>2019-07-07T06:21:07Z</time>
      </trkpt>
      <trkpt lat="43.65317" lon="3.74667">
        <ele>199.3</ele>
        <time>2019-07-07T06:21:09Z</time>
      </trkpt>
      <trkpt lat="43.65318" lon="3.74674">
        <ele>199.6</ele>
        <time>2019-07-07T06:21:11Z</time>
      </trkpt>
      <trkpt lat="43.65316" lon="3.74678">
        <ele>199.6</ele>
        <time>2019-07-07T06:21:13Z</time>
      </trkpt>
      <trkpt lat="43.65314" lon="3.74682">
        <ele>199.7</ele>
        <time>2019-07-07T06:21:14Z</time>
      </trkpt>
      <trkpt lat="43.65312" lon="3.74685">
        <ele>199.4</ele>
        <time>2019-07-07T06:21:15Z</time>
      </trkpt>
      <trkpt lat="43.65309" lon="3.74691">
        <ele>199.4</ele>
        <time>2019-07-07T06:21:16Z</time>
      </trkpt>
      <trkpt lat="43.65307" lon="3.74694">
        <ele>199.4</ele>
        <time>2019-07-07T06:21:17Z</time>
      </trkpt>
      <trkpt lat="43.65304" lon="3.74701">
        <ele>199.2</ele>
        <time>2019-07-07T06:21:18Z</time>
      </trkpt>
      <trkpt lat="43.65301" lon="3.74708">
        <ele>198.9</ele>
        <time>2019-07-07T06:21:19Z</time>
      </trkpt>
      <trkpt lat="43.65299" lon="3.74714">
        <ele>198.6</ele>
        <time>2019-07-07T06:21:20Z</time>
      </trkpt>
      <trkpt lat="43.65297" lon="3.74722">
        <ele>198</ele>
        <time>2019-07-07T06:21:21Z</time>
      </trkpt>
      <trkpt lat="43.65295" lon="3.74728">
        <ele>197.9</ele>
        <time>2019-07-07T06:21:22Z</time>
      </trkpt>
      <trkpt lat="43.65296" lon="3.74733">
        <ele>197.8</ele>
        <time>2019-07-07T06:21:23Z</time>
      </trkpt>
      <trkpt lat="43.65295" lon="3.74739">
        <ele>197.7</ele>
        <time>2019-07-07T06:21:24Z</time>
      </trkpt>
      <trkpt lat="43.65292" lon="3.74744">
        <ele>197.2</ele>
        <time>2019-07-07T06:21:25Z</time>
      </trkpt>
      <trkpt lat="43.65291" lon="3.74749">
        <ele>197.1</ele>
        <time>2019-07-07T06:21:26Z</time>
      </trkpt>
      <trkpt lat="43.65289" lon="3.74754">
        <ele>196.6</ele>
        <time>2019-07-07T06:21:28Z</time>
      </trkpt>
      <trkpt lat="43.65287" lon="3.74758">
        <ele>196</ele>
        <time>2019-07-07T06:21:30Z</time>
      </trkpt>
      <trkpt lat="43.65284" lon="3.74757">
        <ele>195.5</ele>
        <time>2019-07-07T06:21:31Z</time>
      </trkpt>
      <trkpt lat="43.65284" lon="3.74761">
        <ele>195.4</ele>
        <time>2019-07-07T06:21:41Z</time>
      </trkpt>
      <trkpt lat="43.65285" lon="3.74764">
        <ele>195.8</ele>
        <time>2019-07-07T06:22:11Z</time>
      </trkpt>
      <trkpt lat="43.65287" lon="3.74768">
        <ele>195.7</ele>
        <time>2019-07-07T06:22:13Z</time>
      </trkpt>
      <trkpt lat="43.65289" lon="3.74772">
        <ele>196.1</ele>
        <time>2019-07-07T06:22:16Z</time>
      </trkpt>
      <trkpt lat="43.6529" lon="3.74776">
        <ele>196</ele>
        <time>2019-07-07T06:22:18Z</time>
      </trkpt>
      <trkpt lat="43.65293" lon="3.7478">
        <ele>196.3</ele>
        <time>2019-07-07T06:22:20Z</time>
      </trkpt>
      <trkpt lat="43.65295" lon="3.74784">
        <ele>196.5</ele>
        <time>2019-07-07T06:22:23Z</time>
      </trkpt>
      <trkpt lat="43.65296" lon="3.74788">
        <ele>196.5</ele>
        <time>2019-07-07T06:22:26Z</time>
      </trkpt>
      <trkpt lat="43.65299" lon="3.74794">
        <ele>196.5</ele>
        <time>2019-07-07T06:22:30Z</time>
      </trkpt>
      <trkpt lat="43.65302" lon="3.74798">
        <ele>196.7</ele>
        <time>2019-07-07T06:22:32Z</time>
      </trkpt>
      <trkpt lat="43.65304" lon="3.74801">
        <ele>197.1</ele>
        <time>2019-07-07T06:22:33Z</time>
      </trkpt>
      <trkpt lat="43.65307" lon="3.74802">
        <ele>197.2</ele>
        <time>2019-07-07T06:22:35Z</time>
      </trkpt>
      <trkpt lat="43.65311" lon="3.74805">
        <ele>197.6</ele>
        <time>2019-07-07T06:22:37Z</time>
      </trkpt>
      <trkpt lat="43.65315" lon="3.74807">
        <ele>197.7</ele>
        <time>2019-07-07T06:22:39Z</time>
      </trkpt>
      <trkpt lat="43.6532" lon="3.7481">
        <ele>198.2</ele>
        <time>2019-07-07T06:22:41Z</time>
      </trkpt>
      <trkpt lat="43.65324" lon="3.74811">
        <ele>198.2</ele>
        <time>2019-07-07T06:22:43Z</time>
      </trkpt>
      <trkpt lat="43.65327" lon="3.74814">
        <ele>198.1</ele>
        <time>2019-07-07T06:22:45Z</time>
      </trkpt>
      <trkpt lat="43.6533" lon="3.74816">
        <ele>198.3</ele>
        <time>2019-07-07T06:22:47Z</time>
      </trkpt>
      <trkpt lat="43.65332" lon="3.7482">
        <ele>198.2</ele>
        <time>2019-07-07T06:22:49Z</time>
      </trkpt>
      <trkpt lat="43.65333" lon="3.74824">
        <ele>198</ele>
        <time>2019-07-07T06:22:52Z</time>
      </trkpt>
      <trkpt lat="43.65336" lon="3.74829">
        <ele>197.9</ele>
        <time>2019-07-07T06:22:54Z</time>
      </trkpt>
      <trkpt lat="43.65337" lon="3.74834">
        <ele>197.7</ele>
        <time>2019-07-07T06:23:09Z</time>
      </trkpt>
      <trkpt lat="43.65339" lon="3.74837">
        <ele>197.6</ele>
        <time>2019-07-07T06:23:11Z</time>
      </trkpt>
      <trkpt lat="43.65341" lon="3.74842">
        <ele>197.5</ele>
        <time>2019-07-07T06:23:14Z</time>
      </trkpt>
      <trkpt lat="43.65342" lon="3.74849">
        <ele>196.9</ele>
        <time>2019-07-07T06:23:17Z</time>
      </trkpt>
      <trkpt lat="43.65344" lon="3.74853">
        <ele>196.7</ele>
        <time>2019-07-07T06:23:19Z</time>
      </trkpt>
      <trkpt lat="43.65346" lon="3.74857">
        <ele>196.7</ele>
        <time>2019-07-07T06:23:20Z</time>
      </trkpt>
      <trkpt lat="43.65349" lon="3.74864">
        <ele>196.3</ele>
        <time>2019-07-07T06:23:22Z</time>
      </trkpt>
      <trkpt lat="43.65351" lon="3.74869">
        <ele>196.1</ele>
        <time>2019-07-07T06:23:24Z</time>
      </trkpt>
      <trkpt lat="43.65353" lon="3.74873">
        <ele>195.9</ele>
        <time>2019-07-07T06:23:26Z</time>
      </trkpt>
      <trkpt lat="43.65354" lon="3.74877">
        <ele>195.5</ele>
        <time>2019-07-07T06:23:29Z</time>
      </trkpt>
      <trkpt lat="43.65356" lon="3.74881">
        <ele>195.2</ele>
        <time>2019-07-07T06:23:34Z</time>
      </trkpt>
      <trkpt lat="43.65357" lon="3.74885">
        <ele>194.9</ele>
        <time>2019-07-07T06:23:37Z</time>
      </trkpt>
      <trkpt lat="43.65358" lon="3.74891">
        <ele>194.5</ele>
        <time>2019-07-07T06:24:19Z</time>
      </trkpt>
      <trkpt lat="43.65359" lon="3.74895">
        <ele>194</ele>
        <time>2019-07-07T06:24:20Z</time>
      </trkpt>
      <trkpt lat="43.6536" lon="3.74899">
        <ele>193.7</ele>
        <time>2019-07-07T06:24:21Z</time>
      </trkpt>
      <trkpt lat="43.65362" lon="3.74903">
        <ele>193.3</ele>
        <time>2019-07-07T06:24:22Z</time>
      </trkpt>
      <trkpt lat="43.65365" lon="3.74908">
        <ele>193</ele>
        <time>2019-07-07T06:24:23Z</time>
      </trkpt>
      <trkpt lat="43.65367" lon="3.74912">
        <ele>192.6</ele>
        <time>2019-07-07T06:24:24Z</time>
      </trkpt>
      <trkpt lat="43.6537" lon="3.7492">
        <ele>191.9</ele>
        <time>2019-07-07T06:24:25Z</time>
      </trkpt>
      <trkpt lat="43.65372" lon="3.74928">
        <ele>191.1</ele>
        <time>2019-07-07T06:24:26Z</time>
      </trkpt>
      <trkpt lat="43.65373" lon="3.74936">
        <ele>190.2</ele>
        <time>2019-07-07T06:24:27Z</time>
      </trkpt>
      <trkpt lat="43.65374" lon="3.74948">
        <ele>188.7</ele>
        <time>2019-07-07T06:24:28Z</time>
      </trkpt>
      <trkpt lat="43.65376" lon="3.74957">
        <ele>188</ele>
        <time>2019-07-07T06:24:29Z</time>
      </trkpt>
      <trkpt lat="43.65378" lon="3.74969">
        <ele>186.9</ele>
        <time>2019-07-07T06:24:30Z</time>
      </trkpt>
      <trkpt lat="43.65381" lon="3.7498">
        <ele>186.3</ele>
        <time>2019-07-07T06:24:31Z</time>
      </trkpt>
      <trkpt lat="43.65383" lon="3.7499">
        <ele>185.1</ele>
        <time>2019-07-07T06:24:32Z</time>
      </trkpt>
      <trkpt lat="43.65387" lon="3.75001">
        <ele>184.6</ele>
        <time>2019-07-07T06:24:33Z</time>
      </trkpt>
      <trkpt lat="43.65391" lon="3.75012">
        <ele>183.6</ele>
        <time>2019-07-07T06:24:34Z</time>
      </trkpt>
      <trkpt lat="43.65397" lon="3.75024">
        <ele>183.1</ele>
        <time>2019-07-07T06:24:35Z</time>
      </trkpt>
      <trkpt lat="43.65402" lon="3.75033">
        <ele>182</ele>
        <time>2019-07-07T06:24:36Z</time>
      </trkpt>
      <trkpt lat="43.65405" lon="3.75043">
        <ele>181.3</ele>
        <time>2019-07-07T06:24:37Z</time>
      </trkpt>
      <trkpt lat="43.6541" lon="3.75053">
        <ele>180.7</ele>
        <time>2019-07-07T06:24:38Z</time>
      </trkpt>
      <trkpt lat="43.65415" lon="3.75063">
        <ele>179.2</ele>
        <time>2019-07-07T06:24:39Z</time>
      </trkpt>
      <trkpt lat="43.65419" lon="3.75073">
        <ele>178</ele>
        <time>2019-07-07T06:24:40Z</time>
      </trkpt>
      <trkpt lat="43.65424" lon="3.75083">
        <ele>176.8</ele>
        <time>2019-07-07T06:24:41Z</time>
      </trkpt>
      <trkpt lat="43.65428" lon="3.75092">
        <ele>175.7</ele>
        <time>2019-07-07T06:24:42Z</time>
      </trkpt>
      <trkpt lat="43.65433" lon="3.75102">
        <ele>174.2</ele>
        <time>2019-07-07T06:24:43Z</time>
      </trkpt>
      <trkpt lat="43.65438" lon="3.75112">
        <ele>173</ele>
        <time>2019-07-07T06:24:44Z</time>
      </trkpt>
      <trkpt lat="43.65443" lon="3.75121">
        <ele>171.6</ele>
        <time>2019-07-07T06:24:45Z</time>
      </trkpt>
      <trkpt lat="43.65448" lon="3.75129">
        <ele>170.2</ele>
        <time>2019-07-07T06:24:46Z</time>
      </trkpt>
      <trkpt lat="43.65453" lon="3.7514">
        <ele>168.9</ele>
        <time>2019-07-07T06:24:47Z</time>
      </trkpt>
      <trkpt lat="43.65457" lon="3.75152">
        <ele>167.3</ele>
        <time>2019-07-07T06:24:48Z</time>
      </trkpt>
      <trkpt lat="43.65462" lon="3.75162">
        <ele>165.5</ele>
        <time>2019-07-07T06:24:49Z</time>
      </trkpt>
      <trkpt lat="43.65467" lon="3.75173">
        <ele>164.2</ele>
        <time>2019-07-07T06:24:50Z</time>
      </trkpt>
      <trkpt lat="43.65472" lon="3.75183">
        <ele>162.9</ele>
        <time>2019-07-07T06:24:51Z</time>
      </trkpt>
      <trkpt lat="43.65476" lon="3.75193">
        <ele>161.6</ele>
        <time>2019-07-07T06:24:52Z</time>
      </trkpt>
      <trkpt lat="43.6548" lon="3.75203">
        <ele>160.8</ele>
        <time>2019-07-07T06:24:53Z</time>
      </trkpt>
      <trkpt lat="43.65484" lon="3.75213">
        <ele>159.6</ele>
        <time>2019-07-07T06:24:54Z</time>
      </trkpt>
      <trkpt lat="43.65486" lon="3.75219">
        <ele>159</ele>
        <time>2019-07-07T06:24:55Z</time>
      </trkpt>
      <trkpt lat="43.65489" lon="3.75227">
        <ele>158.1</ele>
        <time>2019-07-07T06:24:56Z</time>
      </trkpt>
      <trkpt lat="43.65495" lon="3.75235">
        <ele>156.7</ele>
        <time>2019-07-07T06:24:57Z</time>
      </trkpt>
      <trkpt lat="43.65499" lon="3.75241">
        <ele>155.5</ele>
        <time>2019-07-07T06:24:58Z</time>
      </trkpt>
      <trkpt lat="43.65501" lon="3.75249">
        <ele>155.1</ele>
        <time>2019-07-07T06:24:59Z</time>
      </trkpt>
      <trkpt lat="43.65505" lon="3.75255">
        <ele>154.4</ele>
        <time>2019-07-07T06:25:00Z</time>
      </trkpt>
      <trkpt lat="43.65507" lon="3.7526">
        <ele>153.8</ele>
        <time>2019-07-07T06:25:01Z</time>
      </trkpt>
      <trkpt lat="43.65509" lon="3.75266">
        <ele>153</ele>
        <time>2019-07-07T06:25:02Z</time>
      </trkpt>
      <trkpt lat="43.65512" lon="3.75272">
        <ele>152.5</ele>
        <time>2019-07-07T06:25:03Z</time>
      </trkpt>
      <trkpt lat="43.65514" lon="3.75279">
        <ele>151.7</ele>
        <time>2019-07-07T06:25:04Z</time>
      </trkpt>
      <trkpt lat="43.65518" lon="3.75286">
        <ele>150.9</ele>
        <time>2019-07-07T06:25:05Z</time>
      </trkpt>
      <trkpt lat="43.6552" lon="3.75294">
        <ele>150.8</ele>
        <time>2019-07-07T06:25:06Z</time>
      </trkpt>
      <trkpt lat="43.65524" lon="3.75302">
        <ele>149.4</ele>
        <time>2019-07-07T06:25:07Z</time>
      </trkpt>
      <trkpt lat="43.65527" lon="3.75309">
        <ele>148.6</ele>
        <time>2019-07-07T06:25:08Z</time>
      </trkpt>
      <trkpt lat="43.6553" lon="3.75315">
        <ele>148</ele>
        <time>2019-07-07T06:25:09Z</time>
      </trkpt>
      <trkpt lat="43.65531" lon="3.7532">
        <ele>147.9</ele>
        <time>2019-07-07T06:25:10Z</time>
      </trkpt>
      <trkpt lat="43.65533" lon="3.75325">
        <ele>147.3</ele>
        <time>2019-07-07T06:25:12Z</time>
      </trkpt>
      <trkpt lat="43.6553" lon="3.75325">
        <ele>147.7</ele>
        <time>2019-07-07T06:25:14Z</time>
      </trkpt>
      <trkpt lat="43.6553" lon="3.7533">
        <ele>147.9</ele>
        <time>2019-07-07T06:25:18Z</time>
      </trkpt>
      <trkpt lat="43.65532" lon="3.75332">
        <ele>147.5</ele>
        <time>2019-07-07T06:25:28Z</time>
      </trkpt>
      <trkpt lat="43.65535" lon="3.75335">
        <ele>147</ele>
        <time>2019-07-07T06:25:30Z</time>
      </trkpt>
      <trkpt lat="43.65537" lon="3.75336">
        <ele>146.7</ele>
        <time>2019-07-07T06:25:33Z</time>
      </trkpt>
      <trkpt lat="43.6554" lon="3.75335">
        <ele>146.3</ele>
        <time>2019-07-07T06:25:36Z</time>
      </trkpt>
      <trkpt lat="43.65545" lon="3.75332">
        <ele>146</ele>
        <time>2019-07-07T06:25:38Z</time>
      </trkpt>
      <trkpt lat="43.6555" lon="3.75332">
        <ele>145.2</ele>
        <time>2019-07-07T06:25:40Z</time>
      </trkpt>
      <trkpt lat="43.65557" lon="3.75333">
        <ele>144.2</ele>
        <time>2019-07-07T06:25:42Z</time>
      </trkpt>
      <trkpt lat="43.65561" lon="3.75334">
        <ele>143.7</ele>
        <time>2019-07-07T06:25:43Z</time>
      </trkpt>
      <trkpt lat="43.65564" lon="3.75334">
        <ele>143.1</ele>
        <time>2019-07-07T06:25:44Z</time>
      </trkpt>
      <trkpt lat="43.65568" lon="3.75333">
        <ele>141.8</ele>
        <time>2019-07-07T06:25:45Z</time>
      </trkpt>
      <trkpt lat="43.65572" lon="3.75332">
        <ele>141.2</ele>
        <time>2019-07-07T06:25:46Z</time>
      </trkpt>
      <trkpt lat="43.65577" lon="3.75332">
        <ele>139.8</ele>
        <time>2019-07-07T06:25:47Z</time>
      </trkpt>
      <trkpt lat="43.65582" lon="3.75332">
        <ele>139.1</ele>
        <time>2019-07-07T06:25:48Z</time>
      </trkpt>
      <trkpt lat="43.65587" lon="3.75332">
        <ele>137.6</ele>
        <time>2019-07-07T06:25:49Z</time>
      </trkpt>
      <trkpt lat="43.65593" lon="3.75333">
        <ele>136.5</ele>
        <time>2019-07-07T06:25:50Z</time>
      </trkpt>
      <trkpt lat="43.65598" lon="3.75334">
        <ele>135.9</ele>
        <time>2019-07-07T06:25:51Z</time>
      </trkpt>
      <trkpt lat="43.65603" lon="3.75335">
        <ele>134.7</ele>
        <time>2019-07-07T06:25:52Z</time>
      </trkpt>
      <trkpt lat="43.65609" lon="3.75335">
        <ele>133.4</ele>
        <time>2019-07-07T06:25:53Z</time>
      </trkpt>
      <trkpt lat="43.65615" lon="3.75336">
        <ele>132.3</ele>
        <time>2019-07-07T06:25:54Z</time>
      </trkpt>
      <trkpt lat="43.65619" lon="3.75335">
        <ele>131.9</ele>
        <time>2019-07-07T06:25:55Z</time>
      </trkpt>
      <trkpt lat="43.65625" lon="3.75335">
        <ele>131.1</ele>
        <time>2019-07-07T06:25:56Z</time>
      </trkpt>
      <trkpt lat="43.65629" lon="3.75334">
        <ele>130.3</ele>
        <time>2019-07-07T06:25:57Z</time>
      </trkpt>
      <trkpt lat="43.65636" lon="3.75338">
        <ele>130.1</ele>
        <time>2019-07-07T06:25:58Z</time>
      </trkpt>
      <trkpt lat="43.65643" lon="3.75346">
        <ele>130</ele>
        <time>2019-07-07T06:25:59Z</time>
      </trkpt>
      <trkpt lat="43.65648" lon="3.75348">
        <ele>129.9</ele>
        <time>2019-07-07T06:26:00Z</time>
      </trkpt>
      <trkpt lat="43.65652" lon="3.75348">
        <ele>129.7</ele>
        <time>2019-07-07T06:26:01Z</time>
      </trkpt>
      <trkpt lat="43.65658" lon="3.75352">
        <ele>129.9</ele>
        <time>2019-07-07T06:26:02Z</time>
      </trkpt>
      <trkpt lat="43.65664" lon="3.75357">
        <ele>130.1</ele>
        <time>2019-07-07T06:26:03Z</time>
      </trkpt>
      <trkpt lat="43.6567" lon="3.7536">
        <ele>130.2</ele>
        <time>2019-07-07T06:26:04Z</time>
      </trkpt>
      <trkpt lat="43.6568" lon="3.75365">
        <ele>130.3</ele>
        <time>2019-07-07T06:26:05Z</time>
      </trkpt>
      <trkpt lat="43.65686" lon="3.75368">
        <ele>130.4</ele>
        <time>2019-07-07T06:26:06Z</time>
      </trkpt>
      <trkpt lat="43.65692" lon="3.75372">
        <ele>130.4</ele>
        <time>2019-07-07T06:26:07Z</time>
      </trkpt>
      <trkpt lat="43.65699" lon="3.75377">
        <ele>130.4</ele>
        <time>2019-07-07T06:26:08Z</time>
      </trkpt>
      <trkpt lat="43.65704" lon="3.75381">
        <ele>130.6</ele>
        <time>2019-07-07T06:26:09Z</time>
      </trkpt>
      <trkpt lat="43.65708" lon="3.75382">
        <ele>130.3</ele>
        <time>2019-07-07T06:26:10Z</time>
      </trkpt>
      <trkpt lat="43.65712" lon="3.75384">
        <ele>130.1</ele>
        <time>2019-07-07T06:26:11Z</time>
      </trkpt>
      <trkpt lat="43.65715" lon="3.75381">
        <ele>130</ele>
        <time>2019-07-07T06:26:12Z</time>
      </trkpt>
      <trkpt lat="43.65718" lon="3.75387">
        <ele>130.3</ele>
        <time>2019-07-07T06:28:41Z</time>
      </trkpt>
      <trkpt lat="43.65718" lon="3.75382">
        <ele>129.8</ele>
        <time>2019-07-07T06:28:43Z</time>
      </trkpt>
      <trkpt lat="43.65718" lon="3.75378">
        <ele>129.4</ele>
        <time>2019-07-07T06:28:44Z</time>
      </trkpt>
      <trkpt lat="43.65717" lon="3.7537">
        <ele>128.5</ele>
        <time>2019-07-07T06:28:46Z</time>
      </trkpt>
      <trkpt lat="43.65716" lon="3.75366">
        <ele>128.3</ele>
        <time>2019-07-07T06:28:47Z</time>
      </trkpt>
      <trkpt lat="43.65714" lon="3.75363">
        <ele>128.1</ele>
        <time>2019-07-07T06:28:48Z</time>
      </trkpt>
      <trkpt lat="43.65711" lon="3.75361">
        <ele>127.9</ele>
        <time>2019-07-07T06:28:49Z</time>
      </trkpt>
      <trkpt lat="43.65706" lon="3.75357">
        <ele>127.5</ele>
        <time>2019-07-07T06:28:51Z</time>
      </trkpt>
      <trkpt lat="43.65702" lon="3.75355">
        <ele>127.2</ele>
        <time>2019-07-07T06:28:52Z</time>
      </trkpt>
      <trkpt lat="43.657" lon="3.75351">
        <ele>126.9</ele>
        <time>2019-07-07T06:28:53Z</time>
      </trkpt>
      <trkpt lat="43.65696" lon="3.75349">
        <ele>126.6</ele>
        <time>2019-07-07T06:28:54Z</time>
      </trkpt>
      <trkpt lat="43.65692" lon="3.75345">
        <ele>126.3</ele>
        <time>2019-07-07T06:28:55Z</time>
      </trkpt>
      <trkpt lat="43.65689" lon="3.7534">
        <ele>126</ele>
        <time>2019-07-07T06:28:56Z</time>
      </trkpt>
      <trkpt lat="43.65685" lon="3.75335">
        <ele>125.7</ele>
        <time>2019-07-07T06:28:57Z</time>
      </trkpt>
      <trkpt lat="43.65681" lon="3.75331">
        <ele>125.4</ele>
        <time>2019-07-07T06:28:58Z</time>
      </trkpt>
      <trkpt lat="43.65677" lon="3.75329">
        <ele>125.2</ele>
        <time>2019-07-07T06:28:59Z</time>
      </trkpt>
      <trkpt lat="43.65671" lon="3.75327">
        <ele>124.9</ele>
        <time>2019-07-07T06:29:00Z</time>
      </trkpt>
      <trkpt lat="43.65666" lon="3.75325">
        <ele>124.7</ele>
        <time>2019-07-07T06:29:01Z</time>
      </trkpt>
      <trkpt lat="43.65661" lon="3.75324">
        <ele>124.4</ele>
        <time>2019-07-07T06:29:02Z</time>
      </trkpt>
      <trkpt lat="43.65655" lon="3.75324">
        <ele>124.2</ele>
        <time>2019-07-07T06:29:03Z</time>
      </trkpt>
      <trkpt lat="43.6565" lon="3.75322">
        <ele>124</ele>
        <time>2019-07-07T06:29:04Z</time>
      </trkpt>
      <trkpt lat="43.65646" lon="3.75322">
        <ele>123.8</ele>
        <time>2019-07-07T06:29:05Z</time>
      </trkpt>
      <trkpt lat="43.65639" lon="3.7532">
        <ele>123.5</ele>
        <time>2019-07-07T06:29:06Z</time>
      </trkpt>
      <trkpt lat="43.65635" lon="3.75318">
        <ele>123.3</ele>
        <time>2019-07-07T06:29:07Z</time>
      </trkpt>
      <trkpt lat="43.65628" lon="3.75312">
        <ele>123.1</ele>
        <time>2019-07-07T06:29:08Z</time>
      </trkpt>
      <trkpt lat="43.65624" lon="3.75308">
        <ele>122.9</ele>
        <time>2019-07-07T06:29:09Z</time>
      </trkpt>
      <trkpt lat="43.65621" lon="3.75301">
        <ele>122.8</ele>
        <time>2019-07-07T06:29:10Z</time>
      </trkpt>
      <trkpt lat="43.65626" lon="3.75294">
        <ele>122.4</ele>
        <time>2019-07-07T06:29:11Z</time>
      </trkpt>
      <trkpt lat="43.65628" lon="3.75283">
        <ele>121.9</ele>
        <time>2019-07-07T06:29:12Z</time>
      </trkpt>
      <trkpt lat="43.6563" lon="3.75275">
        <ele>121.5</ele>
        <time>2019-07-07T06:29:13Z</time>
      </trkpt>
      <trkpt lat="43.65632" lon="3.75262">
        <ele>120.9</ele>
        <time>2019-07-07T06:29:14Z</time>
      </trkpt>
      <trkpt lat="43.65632" lon="3.75251">
        <ele>120.4</ele>
        <time>2019-07-07T06:29:15Z</time>
      </trkpt>
      <trkpt lat="43.65635" lon="3.75237">
        <ele>119.8</ele>
        <time>2019-07-07T06:29:16Z</time>
      </trkpt>
      <trkpt lat="43.65637" lon="3.75224">
        <ele>119.2</ele>
        <time>2019-07-07T06:29:17Z</time>
      </trkpt>
      <trkpt lat="43.6564" lon="3.75214">
        <ele>118.7</ele>
        <time>2019-07-07T06:29:18Z</time>
      </trkpt>
      <trkpt lat="43.65644" lon="3.75203">
        <ele>118</ele>
        <time>2019-07-07T06:29:19Z</time>
      </trkpt>
      <trkpt lat="43.65648" lon="3.75192">
        <ele>117.4</ele>
        <time>2019-07-07T06:29:20Z</time>
      </trkpt>
      <trkpt lat="43.65651" lon="3.75183">
        <ele>116.8</ele>
        <time>2019-07-07T06:29:21Z</time>
      </trkpt>
      <trkpt lat="43.65656" lon="3.75172">
        <ele>116.1</ele>
        <time>2019-07-07T06:29:22Z</time>
      </trkpt>
      <trkpt lat="43.65659" lon="3.75159">
        <ele>115.4</ele>
        <time>2019-07-07T06:29:23Z</time>
      </trkpt>
      <trkpt lat="43.65662" lon="3.75142">
        <ele>114.5</ele>
        <time>2019-07-07T06:29:24Z</time>
      </trkpt>
      <trkpt lat="43.65661" lon="3.75129">
        <ele>113.8</ele>
        <time>2019-07-07T06:29:25Z</time>
      </trkpt>
      <trkpt lat="43.65663" lon="3.75119">
        <ele>113.3</ele>
        <time>2019-07-07T06:29:26Z</time>
      </trkpt>
      <trkpt lat="43.65664" lon="3.75109">
        <ele>112.8</ele>
        <time>2019-07-07T06:29:27Z</time>
      </trkpt>
      <trkpt lat="43.65669" lon="3.75098">
        <ele>112.2</ele>
        <time>2019-07-07T06:29:28Z</time>
      </trkpt>
      <trkpt lat="43.65671" lon="3.75088">
        <ele>111.7</ele>
        <time>2019-07-07T06:29:29Z</time>
      </trkpt>
      <trkpt lat="43.65675" lon="3.75077">
        <ele>111.3</ele>
        <time>2019-07-07T06:29:30Z</time>
      </trkpt>
      <trkpt lat="43.65678" lon="3.75066">
        <ele>110.9</ele>
        <time>2019-07-07T06:29:31Z</time>
      </trkpt>
      <trkpt lat="43.6568" lon="3.75056">
        <ele>110.6</ele>
        <time>2019-07-07T06:29:32Z</time>
      </trkpt>
      <trkpt lat="43.65683" lon="3.75043">
        <ele>110.2</ele>
        <time>2019-07-07T06:29:33Z</time>
      </trkpt>
      <trkpt lat="43.65688" lon="3.75037">
        <ele>109.9</ele>
        <time>2019-07-07T06:29:34Z</time>
      </trkpt>
      <trkpt lat="43.65693" lon="3.7503">
        <ele>109.6</ele>
        <time>2019-07-07T06:29:35Z</time>
      </trkpt>
      <trkpt lat="43.65698" lon="3.75024">
        <ele>109.3</ele>
        <time>2019-07-07T06:29:36Z</time>
      </trkpt>
      <trkpt lat="43.65704" lon="3.75019">
        <ele>109.1</ele>
        <time>2019-07-07T06:29:37Z</time>
      </trkpt>
      <trkpt lat="43.65711" lon="3.75016">
        <ele>109</ele>
        <time>2019-07-07T06:29:38Z</time>
      </trkpt>
      <trkpt lat="43.6572" lon="3.75014">
        <ele>108.9</ele>
        <time>2019-07-07T06:29:39Z</time>
      </trkpt>
      <trkpt lat="43.65728" lon="3.75012">
        <ele>109</ele>
        <time>2019-07-07T06:29:40Z</time>
      </trkpt>
      <trkpt lat="43.65733" lon="3.75011">
        <ele>109.2</ele>
        <time>2019-07-07T06:29:41Z</time>
      </trkpt>
      <trkpt lat="43.65739" lon="3.7501">
        <ele>109.5</ele>
        <time>2019-07-07T06:29:42Z</time>
      </trkpt>
      <trkpt lat="43.65742" lon="3.75008">
        <ele>109.7</ele>
        <time>2019-07-07T06:29:43Z</time>
      </trkpt>
      <trkpt lat="43.65744" lon="3.75005">
        <ele>110</ele>
        <time>2019-07-07T06:29:45Z</time>
      </trkpt>
      <trkpt lat="43.65747" lon="3.75004">
        <ele>110.2</ele>
        <time>2019-07-07T06:29:47Z</time>
      </trkpt>
      <trkpt lat="43.6575" lon="3.75001">
        <ele>109.8</ele>
        <time>2019-07-07T06:29:49Z</time>
      </trkpt>
      <trkpt lat="43.65752" lon="3.74998">
        <ele>109.7</ele>
        <time>2019-07-07T06:29:50Z</time>
      </trkpt>
      <trkpt lat="43.65755" lon="3.74998">
        <ele>109.6</ele>
        <time>2019-07-07T06:29:51Z</time>
      </trkpt>
      <trkpt lat="43.65759" lon="3.75">
        <ele>109.5</ele>
        <time>2019-07-07T06:29:52Z</time>
      </trkpt>
      <trkpt lat="43.65762" lon="3.75001">
        <ele>109.4</ele>
        <time>2019-07-07T06:29:53Z</time>
      </trkpt>
      <trkpt lat="43.65766" lon="3.74999">
        <ele>109.2</ele>
        <time>2019-07-07T06:29:54Z</time>
      </trkpt>
      <trkpt lat="43.6577" lon="3.74995">
        <ele>109.1</ele>
        <time>2019-07-07T06:29:56Z</time>
      </trkpt>
      <trkpt lat="43.65774" lon="3.74997">
        <ele>108.9</ele>
        <time>2019-07-07T06:29:57Z</time>
      </trkpt>
      <trkpt lat="43.65776" lon="3.74992">
        <ele>108.8</ele>
        <time>2019-07-07T06:29:58Z</time>
      </trkpt>
      <trkpt lat="43.65778" lon="3.74994">
        <ele>108.7</ele>
        <time>2019-07-07T06:29:59Z</time>
      </trkpt>
      <trkpt lat="43.65781" lon="3.74995">
        <ele>108.5</ele>
        <time>2019-07-07T06:30:02Z</time>
      </trkpt>
      <trkpt lat="43.65784" lon="3.74994">
        <ele>108.4</ele>
        <time>2019-07-07T06:30:07Z</time>
      </trkpt>
      <trkpt lat="43.65787" lon="3.74996">
        <ele>108.2</ele>
        <time>2019-07-07T06:30:16Z</time>
      </trkpt>
      <trkpt lat="43.65789" lon="3.74996">
        <ele>108.1</ele>
        <time>2019-07-07T06:30:18Z</time>
      </trkpt>
      <trkpt lat="43.65792" lon="3.74996">
        <ele>107.9</ele>
        <time>2019-07-07T06:30:20Z</time>
      </trkpt>
      <trkpt lat="43.65796" lon="3.74999">
        <ele>107.7</ele>
        <time>2019-07-07T06:30:23Z</time>
      </trkpt>
      <trkpt lat="43.65799" lon="3.74999">
        <ele>107.6</ele>
        <time>2019-07-07T06:30:25Z</time>
      </trkpt>
      <trkpt lat="43.65802" lon="3.75001">
        <ele>107.5</ele>
        <time>2019-07-07T06:30:27Z</time>
      </trkpt>
      <trkpt lat="43.65805" lon="3.75006">
        <ele>107.7</ele>
        <time>2019-07-07T06:30:31Z</time>
      </trkpt>
      <trkpt lat="43.65801" lon="3.75003">
        <ele>107.9</ele>
        <time>2019-07-07T06:30:36Z</time>
      </trkpt>
      <trkpt lat="43.65798" lon="3.75003">
        <ele>108</ele>
        <time>2019-07-07T06:30:37Z</time>
      </trkpt>
      <trkpt lat="43.65795" lon="3.75001">
        <ele>108.2</ele>
        <time>2019-07-07T06:30:38Z</time>
      </trkpt>
      <trkpt lat="43.6579" lon="3.75001">
        <ele>108.4</ele>
        <time>2019-07-07T06:30:40Z</time>
      </trkpt>
      <trkpt lat="43.65787" lon="3.75001">
        <ele>108.6</ele>
        <time>2019-07-07T06:30:41Z</time>
      </trkpt>
      <trkpt lat="43.65784" lon="3.75">
        <ele>108.7</ele>
        <time>2019-07-07T06:30:42Z</time>
      </trkpt>
      <trkpt lat="43.65781" lon="3.75001">
        <ele>108.8</ele>
        <time>2019-07-07T06:30:43Z</time>
      </trkpt>
      <trkpt lat="43.65777" lon="3.75002">
        <ele>109</ele>
        <time>2019-07-07T06:30:45Z</time>
      </trkpt>
      <trkpt lat="43.65773" lon="3.75002">
        <ele>109.1</ele>
        <time>2019-07-07T06:30:47Z</time>
      </trkpt>
      <trkpt lat="43.6577" lon="3.75003">
        <ele>109.2</ele>
        <time>2019-07-07T06:30:48Z</time>
      </trkpt>
      <trkpt lat="43.65766" lon="3.75001">
        <ele>109.3</ele>
        <time>2019-07-07T06:30:50Z</time>
      </trkpt>
      <trkpt lat="43.65764" lon="3.75001">
        <ele>109.4</ele>
        <time>2019-07-07T06:30:52Z</time>
      </trkpt>
      <trkpt lat="43.6576" lon="3.75004">
        <ele>109.5</ele>
        <time>2019-07-07T06:30:55Z</time>
      </trkpt>
      <trkpt lat="43.65757" lon="3.75004">
        <ele>109.6</ele>
        <time>2019-07-07T06:30:57Z</time>
      </trkpt>
      <trkpt lat="43.65754" lon="3.75004">
        <ele>109.7</ele>
        <time>2019-07-07T06:30:59Z</time>
      </trkpt>
      <trkpt lat="43.6575" lon="3.75005">
        <ele>109.9</ele>
        <time>2019-07-07T06:31:02Z</time>
      </trkpt>
      <trkpt lat="43.65747" lon="3.75004">
        <ele>110.2</ele>
        <time>2019-07-07T06:31:03Z</time>
      </trkpt>
      <trkpt lat="43.65743" lon="3.75001">
        <ele>110.2</ele>
        <time>2019-07-07T06:31:05Z</time>
      </trkpt>
      <trkpt lat="43.65741" lon="3.74998">
        <ele>110.4</ele>
        <time>2019-07-07T06:31:07Z</time>
      </trkpt>
      <trkpt lat="43.65742" lon="3.74994">
        <ele>110.4</ele>
        <time>2019-07-07T06:31:10Z</time>
      </trkpt>
      <trkpt lat="43.65745" lon="3.74989">
        <ele>110.4</ele>
        <time>2019-07-07T06:31:13Z</time>
      </trkpt>
      <trkpt lat="43.65748" lon="3.74985">
        <ele>110.5</ele>
        <time>2019-07-07T06:31:15Z</time>
      </trkpt>
      <trkpt lat="43.65754" lon="3.74982">
        <ele>110.3</ele>
        <time>2019-07-07T06:31:17Z</time>
      </trkpt>
      <trkpt lat="43.65757" lon="3.74979">
        <ele>110.5</ele>
        <time>2019-07-07T06:31:18Z</time>
      </trkpt>
      <trkpt lat="43.65759" lon="3.74978">
        <ele>110.5</ele>
        <time>2019-07-07T06:31:19Z</time>
      </trkpt>
      <trkpt lat="43.65762" lon="3.74976">
        <ele>110.6</ele>
        <time>2019-07-07T06:31:20Z</time>
      </trkpt>
      <trkpt lat="43.65765" lon="3.74974">
        <ele>110.6</ele>
        <time>2019-07-07T06:31:21Z</time>
      </trkpt>
      <trkpt lat="43.65766" lon="3.7497">
        <ele>110.8</ele>
        <time>2019-07-07T06:31:23Z</time>
      </trkpt>
      <trkpt lat="43.65769" lon="3.74969">
        <ele>110.7</ele>
        <time>2019-07-07T06:31:25Z</time>
      </trkpt>
      <trkpt lat="43.65771" lon="3.74966">
        <ele>110.9</ele>
        <time>2019-07-07T06:31:28Z</time>
      </trkpt>
      <trkpt lat="43.65775" lon="3.74962">
        <ele>111</ele>
        <time>2019-07-07T06:31:30Z</time>
      </trkpt>
      <trkpt lat="43.65779" lon="3.74957">
        <ele>111.1</ele>
        <time>2019-07-07T06:31:32Z</time>
      </trkpt>
      <trkpt lat="43.65781" lon="3.74954">
        <ele>111.3</ele>
        <time>2019-07-07T06:31:33Z</time>
      </trkpt>
      <trkpt lat="43.65784" lon="3.74951">
        <ele>111.5</ele>
        <time>2019-07-07T06:31:34Z</time>
      </trkpt>
      <trkpt lat="43.65785" lon="3.74947">
        <ele>111.4</ele>
        <time>2019-07-07T06:31:35Z</time>
      </trkpt>
      <trkpt lat="43.65788" lon="3.74943">
        <ele>111.6</ele>
        <time>2019-07-07T06:31:37Z</time>
      </trkpt>
      <trkpt lat="43.65788" lon="3.74939">
        <ele>111.9</ele>
        <time>2019-07-07T06:31:39Z</time>
      </trkpt>
      <trkpt lat="43.65789" lon="3.74933">
        <ele>112.6</ele>
        <time>2019-07-07T06:31:41Z</time>
      </trkpt>
      <trkpt lat="43.65791" lon="3.7493">
        <ele>112.9</ele>
        <time>2019-07-07T06:31:42Z</time>
      </trkpt>
      <trkpt lat="43.65795" lon="3.74928">
        <ele>112.7</ele>
        <time>2019-07-07T06:31:43Z</time>
      </trkpt>
      <trkpt lat="43.65797" lon="3.74925">
        <ele>113.1</ele>
        <time>2019-07-07T06:31:44Z</time>
      </trkpt>
      <trkpt lat="43.658" lon="3.74922">
        <ele>113</ele>
        <time>2019-07-07T06:31:45Z</time>
      </trkpt>
      <trkpt lat="43.65802" lon="3.74918">
        <ele>113.2</ele>
        <time>2019-07-07T06:31:46Z</time>
      </trkpt>
      <trkpt lat="43.65804" lon="3.74914">
        <ele>113.5</ele>
        <time>2019-07-07T06:31:47Z</time>
      </trkpt>
      <trkpt lat="43.65807" lon="3.74911">
        <ele>113.8</ele>
        <time>2019-07-07T06:31:48Z</time>
      </trkpt>
      <trkpt lat="43.65806" lon="3.74907">
        <ele>114.3</ele>
        <time>2019-07-07T06:31:49Z</time>
      </trkpt>
      <trkpt lat="43.6581" lon="3.74901">
        <ele>114.6</ele>
        <time>2019-07-07T06:31:51Z</time>
      </trkpt>
      <trkpt lat="43.65812" lon="3.74896">
        <ele>115.1</ele>
        <time>2019-07-07T06:31:52Z</time>
      </trkpt>
      <trkpt lat="43.65813" lon="3.74892">
        <ele>115.5</ele>
        <time>2019-07-07T06:31:53Z</time>
      </trkpt>
      <trkpt lat="43.65816" lon="3.74891">
        <ele>115.9</ele>
        <time>2019-07-07T06:31:54Z</time>
      </trkpt>
      <trkpt lat="43.65819" lon="3.74885">
        <ele>116.3</ele>
        <time>2019-07-07T06:31:56Z</time>
      </trkpt>
      <trkpt lat="43.65821" lon="3.74881">
        <ele>116.8</ele>
        <time>2019-07-07T06:31:57Z</time>
      </trkpt>
      <trkpt lat="43.65824" lon="3.74877">
        <ele>117</ele>
        <time>2019-07-07T06:31:58Z</time>
      </trkpt>
      <trkpt lat="43.65825" lon="3.74874">
        <ele>117.3</ele>
        <time>2019-07-07T06:31:59Z</time>
      </trkpt>
      <trkpt lat="43.65828" lon="3.74871">
        <ele>116.9</ele>
        <time>2019-07-07T06:32:00Z</time>
      </trkpt>
      <trkpt lat="43.65831" lon="3.74867">
        <ele>117</ele>
        <time>2019-07-07T06:32:02Z</time>
      </trkpt>
      <trkpt lat="43.65835" lon="3.7486">
        <ele>117.8</ele>
        <time>2019-07-07T06:32:04Z</time>
      </trkpt>
      <trkpt lat="43.6584" lon="3.74857">
        <ele>118</ele>
        <time>2019-07-07T06:32:05Z</time>
      </trkpt>
      <trkpt lat="43.65842" lon="3.74854">
        <ele>117.6</ele>
        <time>2019-07-07T06:32:06Z</time>
      </trkpt>
      <trkpt lat="43.65844" lon="3.74851">
        <ele>117.9</ele>
        <time>2019-07-07T06:32:07Z</time>
      </trkpt>
      <trkpt lat="43.65846" lon="3.74842">
        <ele>119.2</ele>
        <time>2019-07-07T06:32:09Z</time>
      </trkpt>
      <trkpt lat="43.6585" lon="3.74837">
        <ele>118.8</ele>
        <time>2019-07-07T06:32:10Z</time>
      </trkpt>
      <trkpt lat="43.65855" lon="3.74832">
        <ele>118.8</ele>
        <time>2019-07-07T06:32:11Z</time>
      </trkpt>
      <trkpt lat="43.65859" lon="3.74828">
        <ele>118.8</ele>
        <time>2019-07-07T06:32:12Z</time>
      </trkpt>
      <trkpt lat="43.65861" lon="3.74826">
        <ele>118.8</ele>
        <time>2019-07-07T06:32:13Z</time>
      </trkpt>
      <trkpt lat="43.65865" lon="3.74821">
        <ele>118.8</ele>
        <time>2019-07-07T06:32:14Z</time>
      </trkpt>
      <trkpt lat="43.65868" lon="3.74813">
        <ele>119.5</ele>
        <time>2019-07-07T06:32:15Z</time>
      </trkpt>
      <trkpt lat="43.65871" lon="3.74807">
        <ele>119.6</ele>
        <time>2019-07-07T06:32:16Z</time>
      </trkpt>
      <trkpt lat="43.65874" lon="3.74801">
        <ele>120.4</ele>
        <time>2019-07-07T06:32:17Z</time>
      </trkpt>
      <trkpt lat="43.65881" lon="3.74794">
        <ele>119.8</ele>
        <time>2019-07-07T06:32:18Z</time>
      </trkpt>
      <trkpt lat="43.65887" lon="3.74788">
        <ele>118.9</ele>
        <time>2019-07-07T06:32:19Z</time>
      </trkpt>
      <trkpt lat="43.65891" lon="3.74783">
        <ele>118.7</ele>
        <time>2019-07-07T06:32:20Z</time>
      </trkpt>
      <trkpt lat="43.65893" lon="3.74777">
        <ele>119.3</ele>
        <time>2019-07-07T06:32:21Z</time>
      </trkpt>
      <trkpt lat="43.65895" lon="3.74772">
        <ele>119</ele>
        <time>2019-07-07T06:32:22Z</time>
      </trkpt>
      <trkpt lat="43.65899" lon="3.74766">
        <ele>119.3</ele>
        <time>2019-07-07T06:32:23Z</time>
      </trkpt>
      <trkpt lat="43.65902" lon="3.74761">
        <ele>119.1</ele>
        <time>2019-07-07T06:32:24Z</time>
      </trkpt>
      <trkpt lat="43.65906" lon="3.74757">
        <ele>118.3</ele>
        <time>2019-07-07T06:32:25Z</time>
      </trkpt>
      <trkpt lat="43.65908" lon="3.74752">
        <ele>118.7</ele>
        <time>2019-07-07T06:32:26Z</time>
      </trkpt>
      <trkpt lat="43.65912" lon="3.74747">
        <ele>117.8</ele>
        <time>2019-07-07T06:32:27Z</time>
      </trkpt>
      <trkpt lat="43.65914" lon="3.7474">
        <ele>118.6</ele>
        <time>2019-07-07T06:32:28Z</time>
      </trkpt>
      <trkpt lat="43.65917" lon="3.74734">
        <ele>118.2</ele>
        <time>2019-07-07T06:32:29Z</time>
      </trkpt>
      <trkpt lat="43.6592" lon="3.7473">
        <ele>117.7</ele>
        <time>2019-07-07T06:32:30Z</time>
      </trkpt>
      <trkpt lat="43.6592" lon="3.74726">
        <ele>118.1</ele>
        <time>2019-07-07T06:32:31Z</time>
      </trkpt>
      <trkpt lat="43.65921" lon="3.74719">
        <ele>118</ele>
        <time>2019-07-07T06:32:32Z</time>
      </trkpt>
      <trkpt lat="43.65922" lon="3.74714">
        <ele>118.4</ele>
        <time>2019-07-07T06:32:33Z</time>
      </trkpt>
      <trkpt lat="43.6592" lon="3.74706">
        <ele>120.1</ele>
        <time>2019-07-07T06:32:34Z</time>
      </trkpt>
      <trkpt lat="43.65919" lon="3.74701">
        <ele>120.5</ele>
        <time>2019-07-07T06:32:35Z</time>
      </trkpt>
      <trkpt lat="43.65917" lon="3.74694">
        <ele>121.9</ele>
        <time>2019-07-07T06:32:37Z</time>
      </trkpt>
      <trkpt lat="43.65915" lon="3.74688">
        <ele>122.6</ele>
        <time>2019-07-07T06:32:39Z</time>
      </trkpt>
      <trkpt lat="43.65914" lon="3.74682">
        <ele>124</ele>
        <time>2019-07-07T06:32:41Z</time>
      </trkpt>
      <trkpt lat="43.65914" lon="3.74677">
        <ele>124.4</ele>
        <time>2019-07-07T06:32:42Z</time>
      </trkpt>
      <trkpt lat="43.65914" lon="3.74672">
        <ele>125.3</ele>
        <time>2019-07-07T06:32:43Z</time>
      </trkpt>
      <trkpt lat="43.65913" lon="3.74666">
        <ele>125.7</ele>
        <time>2019-07-07T06:32:44Z</time>
      </trkpt>
      <trkpt lat="43.65914" lon="3.74661">
        <ele>126.1</ele>
        <time>2019-07-07T06:32:45Z</time>
      </trkpt>
      <trkpt lat="43.65914" lon="3.74655">
        <ele>126.9</ele>
        <time>2019-07-07T06:32:46Z</time>
      </trkpt>
      <trkpt lat="43.65913" lon="3.74648">
        <ele>127.3</ele>
        <time>2019-07-07T06:32:47Z</time>
      </trkpt>
      <trkpt lat="43.65911" lon="3.74642">
        <ele>129.4</ele>
        <time>2019-07-07T06:32:48Z</time>
      </trkpt>
      <trkpt lat="43.65912" lon="3.74638">
        <ele>128.7</ele>
        <time>2019-07-07T06:32:49Z</time>
      </trkpt>
      <trkpt lat="43.65918" lon="3.74637">
        <ele>127.4</ele>
        <time>2019-07-07T06:32:50Z</time>
      </trkpt>
      <trkpt lat="43.65919" lon="3.74633">
        <ele>126.9</ele>
        <time>2019-07-07T06:32:51Z</time>
      </trkpt>
      <trkpt lat="43.65924" lon="3.74628">
        <ele>126.1</ele>
        <time>2019-07-07T06:32:53Z</time>
      </trkpt>
      <trkpt lat="43.65931" lon="3.74627">
        <ele>123</ele>
        <time>2019-07-07T06:32:54Z</time>
      </trkpt>
      <trkpt lat="43.65937" lon="3.74626">
        <ele>121.1</ele>
        <time>2019-07-07T06:32:55Z</time>
      </trkpt>
      <trkpt lat="43.65941" lon="3.74618">
        <ele>121</ele>
        <time>2019-07-07T06:32:56Z</time>
      </trkpt>
      <trkpt lat="43.65946" lon="3.74614">
        <ele>119.5</ele>
        <time>2019-07-07T06:32:58Z</time>
      </trkpt>
      <trkpt lat="43.65949" lon="3.7461">
        <ele>119</ele>
        <time>2019-07-07T06:32:59Z</time>
      </trkpt>
      <trkpt lat="43.65951" lon="3.74605">
        <ele>119.4</ele>
        <time>2019-07-07T06:33:00Z</time>
      </trkpt>
      <trkpt lat="43.65952" lon="3.74601">
        <ele>119.8</ele>
        <time>2019-07-07T06:33:01Z</time>
      </trkpt>
      <trkpt lat="43.65953" lon="3.74596">
        <ele>119.4</ele>
        <time>2019-07-07T06:33:02Z</time>
      </trkpt>
      <trkpt lat="43.65956" lon="3.74592">
        <ele>119.1</ele>
        <time>2019-07-07T06:33:05Z</time>
      </trkpt>
      <trkpt lat="43.65959" lon="3.74589">
        <ele>119</ele>
        <time>2019-07-07T06:33:09Z</time>
      </trkpt>
      <trkpt lat="43.6596" lon="3.74584">
        <ele>119.5</ele>
        <time>2019-07-07T06:33:11Z</time>
      </trkpt>
      <trkpt lat="43.65962" lon="3.74579">
        <ele>119.4</ele>
        <time>2019-07-07T06:33:15Z</time>
      </trkpt>
      <trkpt lat="43.65963" lon="3.74574">
        <ele>120.6</ele>
        <time>2019-07-07T06:33:17Z</time>
      </trkpt>
      <trkpt lat="43.65964" lon="3.74569">
        <ele>121.2</ele>
        <time>2019-07-07T06:33:18Z</time>
      </trkpt>
      <trkpt lat="43.65967" lon="3.74565">
        <ele>121</ele>
        <time>2019-07-07T06:33:19Z</time>
      </trkpt>
      <trkpt lat="43.65968" lon="3.74561">
        <ele>120.8</ele>
        <time>2019-07-07T06:33:21Z</time>
      </trkpt>
      <trkpt lat="43.65969" lon="3.74554">
        <ele>121.4</ele>
        <time>2019-07-07T06:33:23Z</time>
      </trkpt>
      <trkpt lat="43.65971" lon="3.74551">
        <ele>121.3</ele>
        <time>2019-07-07T06:33:24Z</time>
      </trkpt>
      <trkpt lat="43.65974" lon="3.74547">
        <ele>121.2</ele>
        <time>2019-07-07T06:33:26Z</time>
      </trkpt>
      <trkpt lat="43.65976" lon="3.74543">
        <ele>121.9</ele>
        <time>2019-07-07T06:33:28Z</time>
      </trkpt>
      <trkpt lat="43.65979" lon="3.7454">
        <ele>121.2</ele>
        <time>2019-07-07T06:33:30Z</time>
      </trkpt>
      <trkpt lat="43.65982" lon="3.74534">
        <ele>122</ele>
        <time>2019-07-07T06:33:32Z</time>
      </trkpt>
      <trkpt lat="43.65984" lon="3.74533">
        <ele>121.3</ele>
        <time>2019-07-07T06:33:33Z</time>
      </trkpt>
      <trkpt lat="43.65985" lon="3.7453">
        <ele>122.1</ele>
        <time>2019-07-07T06:33:34Z</time>
      </trkpt>
      <trkpt lat="43.65985" lon="3.74525">
        <ele>122.8</ele>
        <time>2019-07-07T06:33:35Z</time>
      </trkpt>
      <trkpt lat="43.65987" lon="3.74522">
        <ele>122.9</ele>
        <time>2019-07-07T06:33:36Z</time>
      </trkpt>
      <trkpt lat="43.65989" lon="3.74517">
        <ele>122.9</ele>
        <time>2019-07-07T06:33:38Z</time>
      </trkpt>
      <trkpt lat="43.65993" lon="3.74513">
        <ele>122.5</ele>
        <time>2019-07-07T06:33:40Z</time>
      </trkpt>
      <trkpt lat="43.65996" lon="3.74508">
        <ele>122.4</ele>
        <time>2019-07-07T06:33:42Z</time>
      </trkpt>
      <trkpt lat="43.66" lon="3.74509">
        <ele>121.8</ele>
        <time>2019-07-07T06:33:43Z</time>
      </trkpt>
      <trkpt lat="43.66" lon="3.74503">
        <ele>122.4</ele>
        <time>2019-07-07T06:33:44Z</time>
      </trkpt>
      <trkpt lat="43.66002" lon="3.74502">
        <ele>121.8</ele>
        <time>2019-07-07T06:33:45Z</time>
      </trkpt>
      <trkpt lat="43.66006" lon="3.74498">
        <ele>121.8</ele>
        <time>2019-07-07T06:33:47Z</time>
      </trkpt>
      <trkpt lat="43.66008" lon="3.74495">
        <ele>121.9</ele>
        <time>2019-07-07T06:33:49Z</time>
      </trkpt>
      <trkpt lat="43.66013" lon="3.74493">
        <ele>121.3</ele>
        <time>2019-07-07T06:33:51Z</time>
      </trkpt>
      <trkpt lat="43.66015" lon="3.74489">
        <ele>121.5</ele>
        <time>2019-07-07T06:33:55Z</time>
      </trkpt>
      <trkpt lat="43.66016" lon="3.74486">
        <ele>122.2</ele>
        <time>2019-07-07T06:34:16Z</time>
      </trkpt>
      <trkpt lat="43.66017" lon="3.74481">
        <ele>122.9</ele>
        <time>2019-07-07T06:34:18Z</time>
      </trkpt>
      <trkpt lat="43.66019" lon="3.74476">
        <ele>123.2</ele>
        <time>2019-07-07T06:34:20Z</time>
      </trkpt>
      <trkpt lat="43.66022" lon="3.74472">
        <ele>123.4</ele>
        <time>2019-07-07T06:34:22Z</time>
      </trkpt>
      <trkpt lat="43.66023" lon="3.74467">
        <ele>124.1</ele>
        <time>2019-07-07T06:34:24Z</time>
      </trkpt>
      <trkpt lat="43.66027" lon="3.74461">
        <ele>125</ele>
        <time>2019-07-07T06:34:26Z</time>
      </trkpt>
      <trkpt lat="43.66029" lon="3.74457">
        <ele>125.2</ele>
        <time>2019-07-07T06:34:28Z</time>
      </trkpt>
      <trkpt lat="43.66028" lon="3.74452">
        <ele>126</ele>
        <time>2019-07-07T06:34:30Z</time>
      </trkpt>
      <trkpt lat="43.66032" lon="3.74452">
        <ele>125.3</ele>
        <time>2019-07-07T06:34:32Z</time>
      </trkpt>
      <trkpt lat="43.66035" lon="3.74451">
        <ele>124.7</ele>
        <time>2019-07-07T06:34:33Z</time>
      </trkpt>
      <trkpt lat="43.66039" lon="3.74448">
        <ele>124.4</ele>
        <time>2019-07-07T06:34:35Z</time>
      </trkpt>
      <trkpt lat="43.66042" lon="3.74443">
        <ele>124.6</ele>
        <time>2019-07-07T06:34:37Z</time>
      </trkpt>
      <trkpt lat="43.66046" lon="3.74439">
        <ele>124.7</ele>
        <time>2019-07-07T06:34:39Z</time>
      </trkpt>
      <trkpt lat="43.66049" lon="3.74435">
        <ele>124.6</ele>
        <time>2019-07-07T06:34:41Z</time>
      </trkpt>
      <trkpt lat="43.66052" lon="3.74431">
        <ele>124.5</ele>
        <time>2019-07-07T06:34:43Z</time>
      </trkpt>
      <trkpt lat="43.66054" lon="3.74427">
        <ele>125</ele>
        <time>2019-07-07T06:34:45Z</time>
      </trkpt>
      <trkpt lat="43.66057" lon="3.74424">
        <ele>124.3</ele>
        <time>2019-07-07T06:34:47Z</time>
      </trkpt>
      <trkpt lat="43.66059" lon="3.7442">
        <ele>124.1</ele>
        <time>2019-07-07T06:34:49Z</time>
      </trkpt>
      <trkpt lat="43.66062" lon="3.74418">
        <ele>124</ele>
        <time>2019-07-07T06:34:51Z</time>
      </trkpt>
      <trkpt lat="43.66063" lon="3.74414">
        <ele>124.5</ele>
        <time>2019-07-07T06:34:53Z</time>
      </trkpt>
      <trkpt lat="43.66066" lon="3.7441">
        <ele>124.4</ele>
        <time>2019-07-07T06:34:55Z</time>
      </trkpt>
      <trkpt lat="43.66068" lon="3.74404">
        <ele>124.4</ele>
        <time>2019-07-07T06:34:57Z</time>
      </trkpt>
      <trkpt lat="43.66071" lon="3.744">
        <ele>124.3</ele>
        <time>2019-07-07T06:34:59Z</time>
      </trkpt>
      <trkpt lat="43.66072" lon="3.74395">
        <ele>124.8</ele>
        <time>2019-07-07T06:35:01Z</time>
      </trkpt>
      <trkpt lat="43.66074" lon="3.74389">
        <ele>125</ele>
        <time>2019-07-07T06:35:04Z</time>
      </trkpt>
      <trkpt lat="43.66075" lon="3.74385">
        <ele>125</ele>
        <time>2019-07-07T06:35:06Z</time>
      </trkpt>
      <trkpt lat="43.66077" lon="3.7438">
        <ele>125.1</ele>
        <time>2019-07-07T06:35:08Z</time>
      </trkpt>
      <trkpt lat="43.66079" lon="3.74375">
        <ele>125.5</ele>
        <time>2019-07-07T06:35:10Z</time>
      </trkpt>
      <trkpt lat="43.66079" lon="3.74371">
        <ele>126</ele>
        <time>2019-07-07T06:35:12Z</time>
      </trkpt>
      <trkpt lat="43.66081" lon="3.74365">
        <ele>125.5</ele>
        <time>2019-07-07T06:35:14Z</time>
      </trkpt>
      <trkpt lat="43.66083" lon="3.7436">
        <ele>125</ele>
        <time>2019-07-07T06:35:16Z</time>
      </trkpt>
      <trkpt lat="43.66082" lon="3.74356">
        <ele>126.5</ele>
        <time>2019-07-07T06:35:18Z</time>
      </trkpt>
      <trkpt lat="43.66085" lon="3.74351">
        <ele>126</ele>
        <time>2019-07-07T06:35:21Z</time>
      </trkpt>
      <trkpt lat="43.66087" lon="3.74347">
        <ele>125.4</ele>
        <time>2019-07-07T06:35:22Z</time>
      </trkpt>
      <trkpt lat="43.66088" lon="3.74344">
        <ele>125.9</ele>
        <time>2019-07-07T06:35:24Z</time>
      </trkpt>
      <trkpt lat="43.6609" lon="3.74339">
        <ele>125.3</ele>
        <time>2019-07-07T06:35:26Z</time>
      </trkpt>
      <trkpt lat="43.66089" lon="3.74335">
        <ele>125.7</ele>
        <time>2019-07-07T06:35:27Z</time>
      </trkpt>
      <trkpt lat="43.66089" lon="3.74331">
        <ele>126.1</ele>
        <time>2019-07-07T06:35:39Z</time>
      </trkpt>
      <trkpt lat="43.66092" lon="3.74324">
        <ele>125.9</ele>
        <time>2019-07-07T06:35:58Z</time>
      </trkpt>
      <trkpt lat="43.66095" lon="3.74323">
        <ele>125.9</ele>
        <time>2019-07-07T06:36:04Z</time>
      </trkpt>
      <trkpt lat="43.66096" lon="3.74315">
        <ele>125.8</ele>
        <time>2019-07-07T06:36:15Z</time>
      </trkpt>
      <trkpt lat="43.66098" lon="3.74312">
        <ele>126.2</ele>
        <time>2019-07-07T06:36:17Z</time>
      </trkpt>
      <trkpt lat="43.66099" lon="3.74308">
        <ele>125.7</ele>
        <time>2019-07-07T06:36:18Z</time>
      </trkpt>
      <trkpt lat="43.66098" lon="3.74302">
        <ele>126</ele>
        <time>2019-07-07T06:36:20Z</time>
      </trkpt>
      <trkpt lat="43.66099" lon="3.74296">
        <ele>126.4</ele>
        <time>2019-07-07T06:36:24Z</time>
      </trkpt>
      <trkpt lat="43.66099" lon="3.7429">
        <ele>127.1</ele>
        <time>2019-07-07T06:36:26Z</time>
      </trkpt>
      <trkpt lat="43.66103" lon="3.74286">
        <ele>126.1</ele>
        <time>2019-07-07T06:36:28Z</time>
      </trkpt>
      <trkpt lat="43.66103" lon="3.74282">
        <ele>126.7</ele>
        <time>2019-07-07T06:36:31Z</time>
      </trkpt>
      <trkpt lat="43.66105" lon="3.7428">
        <ele>125.7</ele>
        <time>2019-07-07T06:36:40Z</time>
      </trkpt>
      <trkpt lat="43.66108" lon="3.7428">
        <ele>124.7</ele>
        <time>2019-07-07T06:36:44Z</time>
      </trkpt>
      <trkpt lat="43.66112" lon="3.74274">
        <ele>124.1</ele>
        <time>2019-07-07T06:36:58Z</time>
      </trkpt>
      <trkpt lat="43.66113" lon="3.74271">
        <ele>124.3</ele>
        <time>2019-07-07T06:37:00Z</time>
      </trkpt>
      <trkpt lat="43.66115" lon="3.74266">
        <ele>123.7</ele>
        <time>2019-07-07T06:37:03Z</time>
      </trkpt>
      <trkpt lat="43.66115" lon="3.74263">
        <ele>124</ele>
        <time>2019-07-07T06:37:05Z</time>
      </trkpt>
      <trkpt lat="43.66117" lon="3.7426">
        <ele>123.5</ele>
        <time>2019-07-07T06:37:07Z</time>
      </trkpt>
      <trkpt lat="43.66119" lon="3.74256">
        <ele>123.8</ele>
        <time>2019-07-07T06:37:11Z</time>
      </trkpt>
      <trkpt lat="43.66119" lon="3.74251">
        <ele>124.1</ele>
        <time>2019-07-07T06:37:17Z</time>
      </trkpt>
      <trkpt lat="43.6612" lon="3.74247">
        <ele>123.6</ele>
        <time>2019-07-07T06:37:21Z</time>
      </trkpt>
      <trkpt lat="43.66121" lon="3.74243">
        <ele>123.6</ele>
        <time>2019-07-07T06:37:34Z</time>
      </trkpt>
      <trkpt lat="43.66122" lon="3.7424">
        <ele>123.9</ele>
        <time>2019-07-07T06:37:36Z</time>
      </trkpt>
      <trkpt lat="43.66123" lon="3.74236">
        <ele>123.5</ele>
        <time>2019-07-07T06:37:39Z</time>
      </trkpt>
      <trkpt lat="43.66124" lon="3.74232">
        <ele>123.8</ele>
        <time>2019-07-07T06:37:41Z</time>
      </trkpt>
      <trkpt lat="43.66124" lon="3.74228">
        <ele>124.1</ele>
        <time>2019-07-07T06:37:43Z</time>
      </trkpt>
      <trkpt lat="43.66126" lon="3.74224">
        <ele>124.5</ele>
        <time>2019-07-07T06:37:45Z</time>
      </trkpt>
      <trkpt lat="43.66126" lon="3.74218">
        <ele>124.8</ele>
        <time>2019-07-07T06:37:48Z</time>
      </trkpt>
      <trkpt lat="43.66128" lon="3.74215">
        <ele>124.5</ele>
        <time>2019-07-07T06:37:51Z</time>
      </trkpt>
      <trkpt lat="43.66128" lon="3.74211">
        <ele>124.8</ele>
        <time>2019-07-07T06:37:54Z</time>
      </trkpt>
      <trkpt lat="43.66129" lon="3.74207">
        <ele>125</ele>
        <time>2019-07-07T06:37:56Z</time>
      </trkpt>
      <trkpt lat="43.6613" lon="3.74202">
        <ele>124.7</ele>
        <time>2019-07-07T06:37:58Z</time>
      </trkpt>
      <trkpt lat="43.66129" lon="3.74199">
        <ele>125.6</ele>
        <time>2019-07-07T06:38:01Z</time>
      </trkpt>
      <trkpt lat="43.66128" lon="3.74194">
        <ele>125.9</ele>
        <time>2019-07-07T06:38:03Z</time>
      </trkpt>
      <trkpt lat="43.6613" lon="3.74191">
        <ele>125.5</ele>
        <time>2019-07-07T06:38:05Z</time>
      </trkpt>
      <trkpt lat="43.6613" lon="3.74185">
        <ele>125.8</ele>
        <time>2019-07-07T06:38:07Z</time>
      </trkpt>
      <trkpt lat="43.66128" lon="3.74178">
        <ele>127.1</ele>
        <time>2019-07-07T06:38:09Z</time>
      </trkpt>
      <trkpt lat="43.66129" lon="3.74174">
        <ele>127.4</ele>
        <time>2019-07-07T06:38:11Z</time>
      </trkpt>
      <trkpt lat="43.66128" lon="3.74169">
        <ele>127.8</ele>
        <time>2019-07-07T06:38:14Z</time>
      </trkpt>
      <trkpt lat="43.66128" lon="3.74164">
        <ele>128.1</ele>
        <time>2019-07-07T06:38:16Z</time>
      </trkpt>
      <trkpt lat="43.66127" lon="3.74158">
        <ele>128.4</ele>
        <time>2019-07-07T06:38:18Z</time>
      </trkpt>
      <trkpt lat="43.66128" lon="3.7415">
        <ele>128.9</ele>
        <time>2019-07-07T06:38:34Z</time>
      </trkpt>
      <trkpt lat="43.66128" lon="3.74145">
        <ele>129.1</ele>
        <time>2019-07-07T06:38:36Z</time>
      </trkpt>
      <trkpt lat="43.66127" lon="3.74141">
        <ele>129.3</ele>
        <time>2019-07-07T06:38:38Z</time>
      </trkpt>
      <trkpt lat="43.66127" lon="3.74135">
        <ele>129.8</ele>
        <time>2019-07-07T06:38:40Z</time>
      </trkpt>
      <trkpt lat="43.66125" lon="3.7413">
        <ele>130.9</ele>
        <time>2019-07-07T06:38:42Z</time>
      </trkpt>
      <trkpt lat="43.66125" lon="3.74125">
        <ele>131.1</ele>
        <time>2019-07-07T06:38:44Z</time>
      </trkpt>
      <trkpt lat="43.66125" lon="3.74121">
        <ele>131.3</ele>
        <time>2019-07-07T06:38:46Z</time>
      </trkpt>
      <trkpt lat="43.66125" lon="3.74114">
        <ele>131.9</ele>
        <time>2019-07-07T06:38:48Z</time>
      </trkpt>
      <trkpt lat="43.66124" lon="3.7411">
        <ele>132.1</ele>
        <time>2019-07-07T06:38:49Z</time>
      </trkpt>
      <trkpt lat="43.66122" lon="3.74107">
        <ele>133.1</ele>
        <time>2019-07-07T06:38:53Z</time>
      </trkpt>
      <trkpt lat="43.66122" lon="3.74101">
        <ele>133.7</ele>
        <time>2019-07-07T06:38:56Z</time>
      </trkpt>
      <trkpt lat="43.6612" lon="3.74097">
        <ele>134.1</ele>
        <time>2019-07-07T06:38:58Z</time>
      </trkpt>
      <trkpt lat="43.6612" lon="3.74094">
        <ele>134.1</ele>
        <time>2019-07-07T06:39:02Z</time>
      </trkpt>
      <trkpt lat="43.6612" lon="3.74089">
        <ele>134.5</ele>
        <time>2019-07-07T06:39:06Z</time>
      </trkpt>
      <trkpt lat="43.66121" lon="3.74082">
        <ele>135.4</ele>
        <time>2019-07-07T06:39:08Z</time>
      </trkpt>
      <trkpt lat="43.66123" lon="3.74076">
        <ele>135.8</ele>
        <time>2019-07-07T06:39:10Z</time>
      </trkpt>
      <trkpt lat="43.66123" lon="3.74072">
        <ele>136.2</ele>
        <time>2019-07-07T06:39:13Z</time>
      </trkpt>
      <trkpt lat="43.66122" lon="3.74068">
        <ele>136.5</ele>
        <time>2019-07-07T06:39:18Z</time>
      </trkpt>
      <trkpt lat="43.66123" lon="3.74063">
        <ele>135.9</ele>
        <time>2019-07-07T06:39:24Z</time>
      </trkpt>
      <trkpt lat="43.66123" lon="3.74059">
        <ele>136.4</ele>
        <time>2019-07-07T06:39:27Z</time>
      </trkpt>
      <trkpt lat="43.66125" lon="3.74056">
        <ele>136.4</ele>
        <time>2019-07-07T06:39:31Z</time>
      </trkpt>
      <trkpt lat="43.66129" lon="3.74057">
        <ele>134.7</ele>
        <time>2019-07-07T06:39:40Z</time>
      </trkpt>
      <trkpt lat="43.66133" lon="3.74058">
        <ele>133.8</ele>
        <time>2019-07-07T06:39:42Z</time>
      </trkpt>
      <trkpt lat="43.66137" lon="3.74059">
        <ele>132.9</ele>
        <time>2019-07-07T06:39:43Z</time>
      </trkpt>
      <trkpt lat="43.6614" lon="3.7406">
        <ele>131.7</ele>
        <time>2019-07-07T06:39:44Z</time>
      </trkpt>
      <trkpt lat="43.66145" lon="3.74061">
        <ele>130.8</ele>
        <time>2019-07-07T06:39:46Z</time>
      </trkpt>
      <trkpt lat="43.66152" lon="3.74061">
        <ele>128.7</ele>
        <time>2019-07-07T06:39:48Z</time>
      </trkpt>
      <trkpt lat="43.66156" lon="3.74061">
        <ele>128.1</ele>
        <time>2019-07-07T06:40:35Z</time>
      </trkpt>
      <trkpt lat="43.66159" lon="3.7406">
        <ele>127.6</ele>
        <time>2019-07-07T06:40:39Z</time>
      </trkpt>
      <trkpt lat="43.66163" lon="3.7406">
        <ele>126.3</ele>
        <time>2019-07-07T06:40:43Z</time>
      </trkpt>
      <trkpt lat="43.66167" lon="3.7406">
        <ele>125.7</ele>
        <time>2019-07-07T06:40:56Z</time>
      </trkpt>
      <trkpt lat="43.66171" lon="3.74059">
        <ele>125.1</ele>
        <time>2019-07-07T06:40:57Z</time>
      </trkpt>
      <trkpt lat="43.66174" lon="3.74055">
        <ele>124.7</ele>
        <time>2019-07-07T06:40:58Z</time>
      </trkpt>
      <trkpt lat="43.66177" lon="3.7405">
        <ele>124.4</ele>
        <time>2019-07-07T06:40:59Z</time>
      </trkpt>
      <trkpt lat="43.66181" lon="3.74046">
        <ele>124.3</ele>
        <time>2019-07-07T06:41:00Z</time>
      </trkpt>
      <trkpt lat="43.66183" lon="3.74039">
        <ele>123.9</ele>
        <time>2019-07-07T06:41:01Z</time>
      </trkpt>
      <trkpt lat="43.66186" lon="3.74034">
        <ele>123.5</ele>
        <time>2019-07-07T06:41:02Z</time>
      </trkpt>
      <trkpt lat="43.6619" lon="3.74029">
        <ele>123</ele>
        <time>2019-07-07T06:41:03Z</time>
      </trkpt>
      <trkpt lat="43.66191" lon="3.74023">
        <ele>123.2</ele>
        <time>2019-07-07T06:41:04Z</time>
      </trkpt>
      <trkpt lat="43.66193" lon="3.74017">
        <ele>122.7</ele>
        <time>2019-07-07T06:41:05Z</time>
      </trkpt>
      <trkpt lat="43.66194" lon="3.74011">
        <ele>122.3</ele>
        <time>2019-07-07T06:41:06Z</time>
      </trkpt>
      <trkpt lat="43.66195" lon="3.74006">
        <ele>122.3</ele>
        <time>2019-07-07T06:41:07Z</time>
      </trkpt>
      <trkpt lat="43.66197" lon="3.74003">
        <ele>122.4</ele>
        <time>2019-07-07T06:41:08Z</time>
      </trkpt>
      <trkpt lat="43.66198" lon="3.73999">
        <ele>121.8</ele>
        <time>2019-07-07T06:41:09Z</time>
      </trkpt>
      <trkpt lat="43.66199" lon="3.73992">
        <ele>121.9</ele>
        <time>2019-07-07T06:41:11Z</time>
      </trkpt>
      <trkpt lat="43.662" lon="3.73986">
        <ele>121.9</ele>
        <time>2019-07-07T06:41:13Z</time>
      </trkpt>
      <trkpt lat="43.66201" lon="3.73979">
        <ele>121.3</ele>
        <time>2019-07-07T06:41:15Z</time>
      </trkpt>
      <trkpt lat="43.66203" lon="3.73976">
        <ele>121.3</ele>
        <time>2019-07-07T06:41:16Z</time>
      </trkpt>
      <trkpt lat="43.66205" lon="3.73971">
        <ele>120.8</ele>
        <time>2019-07-07T06:41:17Z</time>
      </trkpt>
      <trkpt lat="43.66208" lon="3.73963">
        <ele>120.2</ele>
        <time>2019-07-07T06:41:19Z</time>
      </trkpt>
      <trkpt lat="43.66209" lon="3.73958">
        <ele>120.2</ele>
        <time>2019-07-07T06:41:20Z</time>
      </trkpt>
      <trkpt lat="43.6621" lon="3.73953">
        <ele>119.7</ele>
        <time>2019-07-07T06:41:21Z</time>
      </trkpt>
      <trkpt lat="43.66211" lon="3.73948">
        <ele>119.7</ele>
        <time>2019-07-07T06:41:22Z</time>
      </trkpt>
      <trkpt lat="43.66212" lon="3.73944">
        <ele>119.7</ele>
        <time>2019-07-07T06:41:23Z</time>
      </trkpt>
      <trkpt lat="43.66213" lon="3.73938">
        <ele>119.2</ele>
        <time>2019-07-07T06:41:24Z</time>
      </trkpt>
      <trkpt lat="43.66214" lon="3.73932">
        <ele>119.2</ele>
        <time>2019-07-07T06:41:25Z</time>
      </trkpt>
      <trkpt lat="43.66216" lon="3.73929">
        <ele>118.8</ele>
        <time>2019-07-07T06:41:26Z</time>
      </trkpt>
      <trkpt lat="43.66218" lon="3.73925">
        <ele>118.9</ele>
        <time>2019-07-07T06:41:27Z</time>
      </trkpt>
      <trkpt lat="43.66222" lon="3.73925">
        <ele>118</ele>
        <time>2019-07-07T06:41:28Z</time>
      </trkpt>
      <trkpt lat="43.66226" lon="3.73925">
        <ele>117.5</ele>
        <time>2019-07-07T06:41:29Z</time>
      </trkpt>
      <trkpt lat="43.66229" lon="3.73922">
        <ele>117.1</ele>
        <time>2019-07-07T06:41:30Z</time>
      </trkpt>
      <trkpt lat="43.66232" lon="3.73922">
        <ele>116.7</ele>
        <time>2019-07-07T06:41:32Z</time>
      </trkpt>
      <trkpt lat="43.66234" lon="3.7392">
        <ele>116.7</ele>
        <time>2019-07-07T06:41:36Z</time>
      </trkpt>
      <trkpt lat="43.66237" lon="3.73918">
        <ele>116.3</ele>
        <time>2019-07-07T06:41:39Z</time>
      </trkpt>
      <trkpt lat="43.66243" lon="3.73915">
        <ele>115.5</ele>
        <time>2019-07-07T06:42:03Z</time>
      </trkpt>
      <trkpt lat="43.66244" lon="3.73919">
        <ele>115</ele>
        <time>2019-07-07T06:42:10Z</time>
      </trkpt>
      <trkpt lat="43.66247" lon="3.7392">
        <ele>115</ele>
        <time>2019-07-07T06:42:24Z</time>
      </trkpt>
      <trkpt lat="43.6625" lon="3.73919">
        <ele>114.6</ele>
        <time>2019-07-07T06:42:26Z</time>
      </trkpt>
      <trkpt lat="43.66254" lon="3.73915">
        <ele>113.7</ele>
        <time>2019-07-07T06:42:28Z</time>
      </trkpt>
      <trkpt lat="43.66257" lon="3.73913">
        <ele>113.2</ele>
        <time>2019-07-07T06:42:29Z</time>
      </trkpt>
      <trkpt lat="43.66261" lon="3.73911">
        <ele>112.9</ele>
        <time>2019-07-07T06:42:31Z</time>
      </trkpt>
      <trkpt lat="43.66266" lon="3.73912">
        <ele>112.2</ele>
        <time>2019-07-07T06:42:33Z</time>
      </trkpt>
      <trkpt lat="43.66269" lon="3.73914">
        <ele>112.2</ele>
        <time>2019-07-07T06:42:35Z</time>
      </trkpt>
      <trkpt lat="43.66268" lon="3.73918">
        <ele>112.1</ele>
        <time>2019-07-07T06:42:37Z</time>
      </trkpt>
      <trkpt lat="43.66269" lon="3.73922">
        <ele>111.7</ele>
        <time>2019-07-07T06:42:39Z</time>
      </trkpt>
      <trkpt lat="43.66271" lon="3.73924">
        <ele>111.7</ele>
        <time>2019-07-07T06:42:42Z</time>
      </trkpt>
      <trkpt lat="43.66275" lon="3.73925">
        <ele>111.4</ele>
        <time>2019-07-07T06:42:55Z</time>
      </trkpt>
      <trkpt lat="43.66277" lon="3.7393">
        <ele>111</ele>
        <time>2019-07-07T06:42:57Z</time>
      </trkpt>
      <trkpt lat="43.6628" lon="3.73937">
        <ele>110.6</ele>
        <time>2019-07-07T06:42:59Z</time>
      </trkpt>
      <trkpt lat="43.66282" lon="3.7394">
        <ele>110.3</ele>
        <time>2019-07-07T06:43:00Z</time>
      </trkpt>
      <trkpt lat="43.66284" lon="3.73944">
        <ele>110</ele>
        <time>2019-07-07T06:43:01Z</time>
      </trkpt>
      <trkpt lat="43.66286" lon="3.73949">
        <ele>110</ele>
        <time>2019-07-07T06:43:02Z</time>
      </trkpt>
      <trkpt lat="43.66289" lon="3.73956">
        <ele>109.7</ele>
        <time>2019-07-07T06:43:04Z</time>
      </trkpt>
      <trkpt lat="43.6629" lon="3.7396">
        <ele>109.7</ele>
        <time>2019-07-07T06:43:05Z</time>
      </trkpt>
      <trkpt lat="43.66293" lon="3.73968">
        <ele>109.5</ele>
        <time>2019-07-07T06:43:07Z</time>
      </trkpt>
      <trkpt lat="43.66295" lon="3.73972">
        <ele>109.2</ele>
        <time>2019-07-07T06:43:09Z</time>
      </trkpt>
      <trkpt lat="43.66294" lon="3.73978">
        <ele>109.1</ele>
        <time>2019-07-07T06:43:11Z</time>
      </trkpt>
      <trkpt lat="43.66295" lon="3.73984">
        <ele>109</ele>
        <time>2019-07-07T06:43:13Z</time>
      </trkpt>
      <trkpt lat="43.66296" lon="3.73977">
        <ele>109.2</ele>
        <time>2019-07-07T06:43:49Z</time>
      </trkpt>
      <trkpt lat="43.66298" lon="3.73974">
        <ele>109</ele>
        <time>2019-07-07T06:43:50Z</time>
      </trkpt>
      <trkpt lat="43.66302" lon="3.7397">
        <ele>108.8</ele>
        <time>2019-07-07T06:43:52Z</time>
      </trkpt>
      <trkpt lat="43.66305" lon="3.73969">
        <ele>108.6</ele>
        <time>2019-07-07T06:43:53Z</time>
      </trkpt>
      <trkpt lat="43.66308" lon="3.7397">
        <ele>108.3</ele>
        <time>2019-07-07T06:43:54Z</time>
      </trkpt>
      <trkpt lat="43.66311" lon="3.73973">
        <ele>108</ele>
        <time>2019-07-07T06:43:55Z</time>
      </trkpt>
      <trkpt lat="43.66313" lon="3.73977">
        <ele>107.8</ele>
        <time>2019-07-07T06:43:56Z</time>
      </trkpt>
      <trkpt lat="43.66316" lon="3.73983">
        <ele>107.5</ele>
        <time>2019-07-07T06:43:57Z</time>
      </trkpt>
      <trkpt lat="43.66318" lon="3.73987">
        <ele>107.4</ele>
        <time>2019-07-07T06:43:58Z</time>
      </trkpt>
      <trkpt lat="43.66321" lon="3.73991">
        <ele>107.2</ele>
        <time>2019-07-07T06:43:59Z</time>
      </trkpt>
      <trkpt lat="43.66325" lon="3.73994">
        <ele>106.9</ele>
        <time>2019-07-07T06:44:00Z</time>
      </trkpt>
      <trkpt lat="43.66328" lon="3.73998">
        <ele>106.8</ele>
        <time>2019-07-07T06:44:01Z</time>
      </trkpt>
      <trkpt lat="43.66331" lon="3.74002">
        <ele>106.5</ele>
        <time>2019-07-07T06:44:02Z</time>
      </trkpt>
      <trkpt lat="43.66335" lon="3.74007">
        <ele>106</ele>
        <time>2019-07-07T06:44:03Z</time>
      </trkpt>
      <trkpt lat="43.66339" lon="3.7401">
        <ele>105.6</ele>
        <time>2019-07-07T06:44:04Z</time>
      </trkpt>
      <trkpt lat="43.66344" lon="3.74015">
        <ele>105</ele>
        <time>2019-07-07T06:44:05Z</time>
      </trkpt>
      <trkpt lat="43.66348" lon="3.74018">
        <ele>104.6</ele>
        <time>2019-07-07T06:44:06Z</time>
      </trkpt>
      <trkpt lat="43.66353" lon="3.74022">
        <ele>104.1</ele>
        <time>2019-07-07T06:44:07Z</time>
      </trkpt>
      <trkpt lat="43.66358" lon="3.74024">
        <ele>103.6</ele>
        <time>2019-07-07T06:44:08Z</time>
      </trkpt>
      <trkpt lat="43.66363" lon="3.74026">
        <ele>102.7</ele>
        <time>2019-07-07T06:44:09Z</time>
      </trkpt>
      <trkpt lat="43.66369" lon="3.74028">
        <ele>102.1</ele>
        <time>2019-07-07T06:44:10Z</time>
      </trkpt>
      <trkpt lat="43.66373" lon="3.74029">
        <ele>101.5</ele>
        <time>2019-07-07T06:44:11Z</time>
      </trkpt>
      <trkpt lat="43.66379" lon="3.74031">
        <ele>101</ele>
        <time>2019-07-07T06:44:12Z</time>
      </trkpt>
      <trkpt lat="43.66384" lon="3.74032">
        <ele>100.4</ele>
        <time>2019-07-07T06:44:13Z</time>
      </trkpt>
      <trkpt lat="43.6639" lon="3.74034">
        <ele>99.5</ele>
        <time>2019-07-07T06:44:14Z</time>
      </trkpt>
      <trkpt lat="43.66395" lon="3.74035">
        <ele>99.2</ele>
        <time>2019-07-07T06:44:15Z</time>
      </trkpt>
      <trkpt lat="43.66401" lon="3.74037">
        <ele>98.6</ele>
        <time>2019-07-07T06:44:16Z</time>
      </trkpt>
      <trkpt lat="43.66407" lon="3.74041">
        <ele>98.2</ele>
        <time>2019-07-07T06:44:17Z</time>
      </trkpt>
      <trkpt lat="43.66412" lon="3.74043">
        <ele>97.7</ele>
        <time>2019-07-07T06:44:18Z</time>
      </trkpt>
      <trkpt lat="43.66418" lon="3.74044">
        <ele>97.4</ele>
        <time>2019-07-07T06:44:19Z</time>
      </trkpt>
      <trkpt lat="43.66423" lon="3.74046">
        <ele>97.1</ele>
        <time>2019-07-07T06:44:20Z</time>
      </trkpt>
      <trkpt lat="43.66429" lon="3.74048">
        <ele>96.9</ele>
        <time>2019-07-07T06:44:21Z</time>
      </trkpt>
      <trkpt lat="43.66434" lon="3.74048">
        <ele>96.8</ele>
        <time>2019-07-07T06:44:22Z</time>
      </trkpt>
      <trkpt lat="43.66438" lon="3.74049">
        <ele>96.7</ele>
        <time>2019-07-07T06:44:23Z</time>
      </trkpt>
      <trkpt lat="43.66444" lon="3.7405">
        <ele>96.5</ele>
        <time>2019-07-07T06:44:24Z</time>
      </trkpt>
      <trkpt lat="43.66449" lon="3.74051">
        <ele>96.2</ele>
        <time>2019-07-07T06:44:25Z</time>
      </trkpt>
      <trkpt lat="43.66456" lon="3.74058">
        <ele>96</ele>
        <time>2019-07-07T06:44:26Z</time>
      </trkpt>
      <trkpt lat="43.66462" lon="3.7406">
        <ele>95.8</ele>
        <time>2019-07-07T06:44:27Z</time>
      </trkpt>
      <trkpt lat="43.66467" lon="3.74061">
        <ele>95.7</ele>
        <time>2019-07-07T06:44:28Z</time>
      </trkpt>
      <trkpt lat="43.66472" lon="3.7406">
        <ele>95.4</ele>
        <time>2019-07-07T06:44:29Z</time>
      </trkpt>
      <trkpt lat="43.66477" lon="3.74064">
        <ele>95.3</ele>
        <time>2019-07-07T06:44:30Z</time>
      </trkpt>
      <trkpt lat="43.66481" lon="3.74066">
        <ele>95</ele>
        <time>2019-07-07T06:44:31Z</time>
      </trkpt>
      <trkpt lat="43.66487" lon="3.74067">
        <ele>94.7</ele>
        <time>2019-07-07T06:44:33Z</time>
      </trkpt>
      <trkpt lat="43.66489" lon="3.74066">
        <ele>94.5</ele>
        <time>2019-07-07T06:44:34Z</time>
      </trkpt>
      <trkpt lat="43.66492" lon="3.74065">
        <ele>94.5</ele>
        <time>2019-07-07T06:44:35Z</time>
      </trkpt>
      <trkpt lat="43.6649" lon="3.74062">
        <ele>94.5</ele>
        <time>2019-07-07T06:44:39Z</time>
      </trkpt>
      <trkpt lat="43.66493" lon="3.74059">
        <ele>94.3</ele>
        <time>2019-07-07T06:44:42Z</time>
      </trkpt>
      <trkpt lat="43.66495" lon="3.74056">
        <ele>94.3</ele>
        <time>2019-07-07T06:44:46Z</time>
      </trkpt>
      <trkpt lat="43.66497" lon="3.74053">
        <ele>94.3</ele>
        <time>2019-07-07T06:44:50Z</time>
      </trkpt>
      <trkpt lat="43.66499" lon="3.7405">
        <ele>94.3</ele>
        <time>2019-07-07T06:44:54Z</time>
      </trkpt>
      <trkpt lat="43.66498" lon="3.74054">
        <ele>94.3</ele>
        <time>2019-07-07T06:45:53Z</time>
      </trkpt>
      <trkpt lat="43.66498" lon="3.74058">
        <ele>94.3</ele>
        <time>2019-07-07T06:45:54Z</time>
      </trkpt>
      <trkpt lat="43.66497" lon="3.74065">
        <ele>94.2</ele>
        <time>2019-07-07T06:45:56Z</time>
      </trkpt>
      <trkpt lat="43.66496" lon="3.74069">
        <ele>94.2</ele>
        <time>2019-07-07T06:45:57Z</time>
      </trkpt>
      <trkpt lat="43.66496" lon="3.74073">
        <ele>94.2</ele>
        <time>2019-07-07T06:45:58Z</time>
      </trkpt>
      <trkpt lat="43.66495" lon="3.7408">
        <ele>94.2</ele>
        <time>2019-07-07T06:46:00Z</time>
      </trkpt>
      <trkpt lat="43.66495" lon="3.74086">
        <ele>94.1</ele>
        <time>2019-07-07T06:46:01Z</time>
      </trkpt>
      <trkpt lat="43.66495" lon="3.7409">
        <ele>94.1</ele>
        <time>2019-07-07T06:46:02Z</time>
      </trkpt>
      <trkpt lat="43.66494" lon="3.74095">
        <ele>94.1</ele>
        <time>2019-07-07T06:46:03Z</time>
      </trkpt>
      <trkpt lat="43.66494" lon="3.74099">
        <ele>94</ele>
        <time>2019-07-07T06:46:04Z</time>
      </trkpt>
      <trkpt lat="43.66494" lon="3.74104">
        <ele>94</ele>
        <time>2019-07-07T06:46:05Z</time>
      </trkpt>
      <trkpt lat="43.66492" lon="3.74108">
        <ele>93.9</ele>
        <time>2019-07-07T06:46:06Z</time>
      </trkpt>
      <trkpt lat="43.66492" lon="3.74113">
        <ele>93.9</ele>
        <time>2019-07-07T06:46:07Z</time>
      </trkpt>
      <trkpt lat="43.66491" lon="3.74118">
        <ele>93.8</ele>
        <time>2019-07-07T06:46:08Z</time>
      </trkpt>
      <trkpt lat="43.6649" lon="3.74124">
        <ele>93.7</ele>
        <time>2019-07-07T06:46:09Z</time>
      </trkpt>
      <trkpt lat="43.66489" lon="3.74129">
        <ele>93.6</ele>
        <time>2019-07-07T06:46:10Z</time>
      </trkpt>
      <trkpt lat="43.66488" lon="3.74134">
        <ele>93.5</ele>
        <time>2019-07-07T06:46:11Z</time>
      </trkpt>
      <trkpt lat="43.66486" lon="3.74138">
        <ele>93.5</ele>
        <time>2019-07-07T06:46:12Z</time>
      </trkpt>
      <trkpt lat="43.66485" lon="3.74142">
        <ele>93.4</ele>
        <time>2019-07-07T06:46:13Z</time>
      </trkpt>
      <trkpt lat="43.66484" lon="3.74147">
        <ele>93.3</ele>
        <time>2019-07-07T06:46:14Z</time>
      </trkpt>
      <trkpt lat="43.66482" lon="3.74151">
        <ele>93.2</ele>
        <time>2019-07-07T06:46:15Z</time>
      </trkpt>
      <trkpt lat="43.66481" lon="3.74156">
        <ele>93.1</ele>
        <time>2019-07-07T06:46:16Z</time>
      </trkpt>
      <trkpt lat="43.6648" lon="3.74161">
        <ele>93</ele>
        <time>2019-07-07T06:46:17Z</time>
      </trkpt>
      <trkpt lat="43.66477" lon="3.74166">
        <ele>92.9</ele>
        <time>2019-07-07T06:46:18Z</time>
      </trkpt>
      <trkpt lat="43.66475" lon="3.7417">
        <ele>92.9</ele>
        <time>2019-07-07T06:46:19Z</time>
      </trkpt>
      <trkpt lat="43.66471" lon="3.74175">
        <ele>92.7</ele>
        <time>2019-07-07T06:46:20Z</time>
      </trkpt>
      <trkpt lat="43.66468" lon="3.7418">
        <ele>92.6</ele>
        <time>2019-07-07T06:46:21Z</time>
      </trkpt>
      <trkpt lat="43.66465" lon="3.74186">
        <ele>92.5</ele>
        <time>2019-07-07T06:46:22Z</time>
      </trkpt>
      <trkpt lat="43.66463" lon="3.74191">
        <ele>92.4</ele>
        <time>2019-07-07T06:46:23Z</time>
      </trkpt>
      <trkpt lat="43.6646" lon="3.74198">
        <ele>92.3</ele>
        <time>2019-07-07T06:46:24Z</time>
      </trkpt>
      <trkpt lat="43.66458" lon="3.74203">
        <ele>92.3</ele>
        <time>2019-07-07T06:46:25Z</time>
      </trkpt>
      <trkpt lat="43.66456" lon="3.74209">
        <ele>92.2</ele>
        <time>2019-07-07T06:46:26Z</time>
      </trkpt>
      <trkpt lat="43.66453" lon="3.74213">
        <ele>92.1</ele>
        <time>2019-07-07T06:46:27Z</time>
      </trkpt>
      <trkpt lat="43.6645" lon="3.74218">
        <ele>92</ele>
        <time>2019-07-07T06:46:28Z</time>
      </trkpt>
      <trkpt lat="43.66448" lon="3.74223">
        <ele>91.9</ele>
        <time>2019-07-07T06:46:29Z</time>
      </trkpt>
      <trkpt lat="43.66446" lon="3.74227">
        <ele>91.9</ele>
        <time>2019-07-07T06:46:30Z</time>
      </trkpt>
      <trkpt lat="43.66443" lon="3.74231">
        <ele>91.8</ele>
        <time>2019-07-07T06:46:31Z</time>
      </trkpt>
      <trkpt lat="43.6644" lon="3.74236">
        <ele>91.7</ele>
        <time>2019-07-07T06:46:32Z</time>
      </trkpt>
      <trkpt lat="43.66438" lon="3.74241">
        <ele>91.7</ele>
        <time>2019-07-07T06:46:33Z</time>
      </trkpt>
      <trkpt lat="43.66436" lon="3.74246">
        <ele>91.6</ele>
        <time>2019-07-07T06:46:34Z</time>
      </trkpt>
      <trkpt lat="43.66433" lon="3.7425">
        <ele>91.5</ele>
        <time>2019-07-07T06:46:35Z</time>
      </trkpt>
      <trkpt lat="43.66431" lon="3.74255">
        <ele>91.4</ele>
        <time>2019-07-07T06:46:36Z</time>
      </trkpt>
      <trkpt lat="43.66428" lon="3.74259">
        <ele>91.4</ele>
        <time>2019-07-07T06:46:37Z</time>
      </trkpt>
      <trkpt lat="43.66425" lon="3.74262">
        <ele>91.3</ele>
        <time>2019-07-07T06:46:38Z</time>
      </trkpt>
      <trkpt lat="43.66422" lon="3.74268">
        <ele>91.3</ele>
        <time>2019-07-07T06:46:39Z</time>
      </trkpt>
      <trkpt lat="43.6642" lon="3.74272">
        <ele>91.3</ele>
        <time>2019-07-07T06:46:40Z</time>
      </trkpt>
      <trkpt lat="43.66417" lon="3.74278">
        <ele>91.3</ele>
        <time>2019-07-07T06:46:41Z</time>
      </trkpt>
      <trkpt lat="43.66415" lon="3.74283">
        <ele>91.3</ele>
        <time>2019-07-07T06:46:42Z</time>
      </trkpt>
      <trkpt lat="43.66412" lon="3.74287">
        <ele>91.3</ele>
        <time>2019-07-07T06:46:43Z</time>
      </trkpt>
      <trkpt lat="43.66408" lon="3.74292">
        <ele>91.4</ele>
        <time>2019-07-07T06:46:44Z</time>
      </trkpt>
      <trkpt lat="43.66406" lon="3.74297">
        <ele>91.4</ele>
        <time>2019-07-07T06:46:45Z</time>
      </trkpt>
      <trkpt lat="43.66404" lon="3.74302">
        <ele>91.5</ele>
        <time>2019-07-07T06:46:46Z</time>
      </trkpt>
      <trkpt lat="43.66402" lon="3.74308">
        <ele>91.6</ele>
        <time>2019-07-07T06:46:47Z</time>
      </trkpt>
      <trkpt lat="43.66399" lon="3.74312">
        <ele>91.6</ele>
        <time>2019-07-07T06:46:48Z</time>
      </trkpt>
      <trkpt lat="43.66397" lon="3.74317">
        <ele>91.7</ele>
        <time>2019-07-07T06:46:49Z</time>
      </trkpt>
      <trkpt lat="43.66394" lon="3.74322">
        <ele>91.8</ele>
        <time>2019-07-07T06:46:50Z</time>
      </trkpt>
      <trkpt lat="43.66392" lon="3.74328">
        <ele>91.9</ele>
        <time>2019-07-07T06:46:51Z</time>
      </trkpt>
      <trkpt lat="43.66389" lon="3.74332">
        <ele>92</ele>
        <time>2019-07-07T06:46:52Z</time>
      </trkpt>
      <trkpt lat="43.66386" lon="3.74338">
        <ele>92.1</ele>
        <time>2019-07-07T06:46:53Z</time>
      </trkpt>
      <trkpt lat="43.66383" lon="3.74343">
        <ele>92.2</ele>
        <time>2019-07-07T06:46:54Z</time>
      </trkpt>
      <trkpt lat="43.66382" lon="3.74347">
        <ele>92.2</ele>
        <time>2019-07-07T06:46:55Z</time>
      </trkpt>
      <trkpt lat="43.66379" lon="3.74352">
        <ele>92.3</ele>
        <time>2019-07-07T06:46:56Z</time>
      </trkpt>
      <trkpt lat="43.66376" lon="3.74357">
        <ele>92.4</ele>
        <time>2019-07-07T06:46:57Z</time>
      </trkpt>
      <trkpt lat="43.66373" lon="3.74363">
        <ele>92.5</ele>
        <time>2019-07-07T06:46:58Z</time>
      </trkpt>
      <trkpt lat="43.6637" lon="3.74368">
        <ele>92.6</ele>
        <time>2019-07-07T06:46:59Z</time>
      </trkpt>
      <trkpt lat="43.66367" lon="3.74373">
        <ele>92.6</ele>
        <time>2019-07-07T06:47:00Z</time>
      </trkpt>
      <trkpt lat="43.66365" lon="3.74378">
        <ele>92.7</ele>
        <time>2019-07-07T06:47:01Z</time>
      </trkpt>
      <trkpt lat="43.66363" lon="3.74385">
        <ele>92.8</ele>
        <time>2019-07-07T06:47:02Z</time>
      </trkpt>
      <trkpt lat="43.66359" lon="3.7439">
        <ele>92.8</ele>
        <time>2019-07-07T06:47:03Z</time>
      </trkpt>
      <trkpt lat="43.66356" lon="3.74395">
        <ele>92.8</ele>
        <time>2019-07-07T06:47:04Z</time>
      </trkpt>
      <trkpt lat="43.66353" lon="3.74399">
        <ele>92.9</ele>
        <time>2019-07-07T06:47:05Z</time>
      </trkpt>
      <trkpt lat="43.66351" lon="3.74405">
        <ele>92.9</ele>
        <time>2019-07-07T06:47:06Z</time>
      </trkpt>
      <trkpt lat="43.66348" lon="3.7441">
        <ele>92.9</ele>
        <time>2019-07-07T06:47:07Z</time>
      </trkpt>
      <trkpt lat="43.66345" lon="3.74415">
        <ele>92.9</ele>
        <time>2019-07-07T06:47:08Z</time>
      </trkpt>
      <trkpt lat="43.66342" lon="3.7442">
        <ele>92.9</ele>
        <time>2019-07-07T06:47:09Z</time>
      </trkpt>
      <trkpt lat="43.66338" lon="3.74426">
        <ele>92.9</ele>
        <time>2019-07-07T06:47:10Z</time>
      </trkpt>
      <trkpt lat="43.66335" lon="3.74431">
        <ele>92.9</ele>
        <time>2019-07-07T06:47:11Z</time>
      </trkpt>
      <trkpt lat="43.66332" lon="3.74436">
        <ele>92.9</ele>
        <time>2019-07-07T06:47:12Z</time>
      </trkpt>
      <trkpt lat="43.66329" lon="3.74441">
        <ele>92.9</ele>
        <time>2019-07-07T06:47:13Z</time>
      </trkpt>
      <trkpt lat="43.66325" lon="3.74447">
        <ele>92.9</ele>
        <time>2019-07-07T06:47:14Z</time>
      </trkpt>
      <trkpt lat="43.66322" lon="3.74453">
        <ele>92.9</ele>
        <time>2019-07-07T06:47:15Z</time>
      </trkpt>
      <trkpt lat="43.6632" lon="3.74458">
        <ele>92.9</ele>
        <time>2019-07-07T06:47:16Z</time>
      </trkpt>
      <trkpt lat="43.66317" lon="3.74463">
        <ele>92.9</ele>
        <time>2019-07-07T06:47:17Z</time>
      </trkpt>
      <trkpt lat="43.66314" lon="3.7447">
        <ele>92.9</ele>
        <time>2019-07-07T06:47:18Z</time>
      </trkpt>
      <trkpt lat="43.66311" lon="3.74476">
        <ele>92.9</ele>
        <time>2019-07-07T06:47:19Z</time>
      </trkpt>
      <trkpt lat="43.66307" lon="3.74481">
        <ele>92.8</ele>
        <time>2019-07-07T06:47:20Z</time>
      </trkpt>
      <trkpt lat="43.66304" lon="3.74486">
        <ele>92.8</ele>
        <time>2019-07-07T06:47:21Z</time>
      </trkpt>
      <trkpt lat="43.66302" lon="3.74491">
        <ele>92.8</ele>
        <time>2019-07-07T06:47:22Z</time>
      </trkpt>
      <trkpt lat="43.66299" lon="3.74496">
        <ele>92.7</ele>
        <time>2019-07-07T06:47:23Z</time>
      </trkpt>
      <trkpt lat="43.66296" lon="3.74501">
        <ele>92.7</ele>
        <time>2019-07-07T06:47:24Z</time>
      </trkpt>
      <trkpt lat="43.66294" lon="3.74508">
        <ele>92.6</ele>
        <time>2019-07-07T06:47:25Z</time>
      </trkpt>
      <trkpt lat="43.66293" lon="3.74514">
        <ele>92.5</ele>
        <time>2019-07-07T06:47:26Z</time>
      </trkpt>
      <trkpt lat="43.6629" lon="3.74521">
        <ele>92.4</ele>
        <time>2019-07-07T06:47:27Z</time>
      </trkpt>
      <trkpt lat="43.66287" lon="3.74527">
        <ele>92.3</ele>
        <time>2019-07-07T06:47:28Z</time>
      </trkpt>
      <trkpt lat="43.66285" lon="3.74534">
        <ele>92.1</ele>
        <time>2019-07-07T06:47:29Z</time>
      </trkpt>
      <trkpt lat="43.66283" lon="3.7454">
        <ele>92</ele>
        <time>2019-07-07T06:47:30Z</time>
      </trkpt>
      <trkpt lat="43.66282" lon="3.74546">
        <ele>91.9</ele>
        <time>2019-07-07T06:47:31Z</time>
      </trkpt>
      <trkpt lat="43.6628" lon="3.74552">
        <ele>91.8</ele>
        <time>2019-07-07T06:47:32Z</time>
      </trkpt>
      <trkpt lat="43.66279" lon="3.74559">
        <ele>91.7</ele>
        <time>2019-07-07T06:47:33Z</time>
      </trkpt>
      <trkpt lat="43.66277" lon="3.74567">
        <ele>91.6</ele>
        <time>2019-07-07T06:47:34Z</time>
      </trkpt>
      <trkpt lat="43.66275" lon="3.74573">
        <ele>91.6</ele>
        <time>2019-07-07T06:47:35Z</time>
      </trkpt>
      <trkpt lat="43.66275" lon="3.74579">
        <ele>91.6</ele>
        <time>2019-07-07T06:47:36Z</time>
      </trkpt>
      <trkpt lat="43.66274" lon="3.74585">
        <ele>91.6</ele>
        <time>2019-07-07T06:47:37Z</time>
      </trkpt>
      <trkpt lat="43.66273" lon="3.74591">
        <ele>91.6</ele>
        <time>2019-07-07T06:47:38Z</time>
      </trkpt>
      <trkpt lat="43.66273" lon="3.74597">
        <ele>91.7</ele>
        <time>2019-07-07T06:47:39Z</time>
      </trkpt>
      <trkpt lat="43.66272" lon="3.74603">
        <ele>91.7</ele>
        <time>2019-07-07T06:47:40Z</time>
      </trkpt>
      <trkpt lat="43.6627" lon="3.74606">
        <ele>91.7</ele>
        <time>2019-07-07T06:47:41Z</time>
      </trkpt>
      <trkpt lat="43.66269" lon="3.74611">
        <ele>91.7</ele>
        <time>2019-07-07T06:47:42Z</time>
      </trkpt>
      <trkpt lat="43.66269" lon="3.74616">
        <ele>91.8</ele>
        <time>2019-07-07T06:47:43Z</time>
      </trkpt>
      <trkpt lat="43.66271" lon="3.7462">
        <ele>91.8</ele>
        <time>2019-07-07T06:47:45Z</time>
      </trkpt>
      <trkpt lat="43.66274" lon="3.7462">
        <ele>91.8</ele>
        <time>2019-07-07T06:47:48Z</time>
      </trkpt>
      <trkpt lat="43.66276" lon="3.74613">
        <ele>91.8</ele>
        <time>2019-07-07T06:47:50Z</time>
      </trkpt>
      <trkpt lat="43.66278" lon="3.74609">
        <ele>91.7</ele>
        <time>2019-07-07T06:47:51Z</time>
      </trkpt>
      <trkpt lat="43.66279" lon="3.74604">
        <ele>91.7</ele>
        <time>2019-07-07T06:47:52Z</time>
      </trkpt>
      <trkpt lat="43.66281" lon="3.74598">
        <ele>91.7</ele>
        <time>2019-07-07T06:47:53Z</time>
      </trkpt>
      <trkpt lat="43.66282" lon="3.74593">
        <ele>91.7</ele>
        <time>2019-07-07T06:47:54Z</time>
      </trkpt>
      <trkpt lat="43.66283" lon="3.74588">
        <ele>91.6</ele>
        <time>2019-07-07T06:47:55Z</time>
      </trkpt>
      <trkpt lat="43.66284" lon="3.74582">
        <ele>91.6</ele>
        <time>2019-07-07T06:47:56Z</time>
      </trkpt>
      <trkpt lat="43.66285" lon="3.74576">
        <ele>91.6</ele>
        <time>2019-07-07T06:47:57Z</time>
      </trkpt>
      <trkpt lat="43.66286" lon="3.7457">
        <ele>91.6</ele>
        <time>2019-07-07T06:47:58Z</time>
      </trkpt>
      <trkpt lat="43.66288" lon="3.74564">
        <ele>91.6</ele>
        <time>2019-07-07T06:47:59Z</time>
      </trkpt>
      <trkpt lat="43.66289" lon="3.74559">
        <ele>91.7</ele>
        <time>2019-07-07T06:48:00Z</time>
      </trkpt>
      <trkpt lat="43.66297" lon="3.74561">
        <ele>91</ele>
        <time>2019-07-07T06:48:01Z</time>
      </trkpt>
      <trkpt lat="43.66304" lon="3.74563">
        <ele>90.5</ele>
        <time>2019-07-07T06:48:02Z</time>
      </trkpt>
      <trkpt lat="43.66307" lon="3.74563">
        <ele>90.3</ele>
        <time>2019-07-07T06:48:03Z</time>
      </trkpt>
      <trkpt lat="43.66313" lon="3.74569">
        <ele>89.9</ele>
        <time>2019-07-07T06:48:04Z</time>
      </trkpt>
      <trkpt lat="43.66318" lon="3.74573">
        <ele>89.6</ele>
        <time>2019-07-07T06:48:05Z</time>
      </trkpt>
      <trkpt lat="43.66324" lon="3.74577">
        <ele>89.3</ele>
        <time>2019-07-07T06:48:06Z</time>
      </trkpt>
      <trkpt lat="43.66328" lon="3.74582">
        <ele>88.9</ele>
        <time>2019-07-07T06:48:07Z</time>
      </trkpt>
      <trkpt lat="43.66332" lon="3.74584">
        <ele>88.7</ele>
        <time>2019-07-07T06:48:08Z</time>
      </trkpt>
      <trkpt lat="43.6634" lon="3.74588">
        <ele>88.5</ele>
        <time>2019-07-07T06:48:09Z</time>
      </trkpt>
      <trkpt lat="43.66346" lon="3.74592">
        <ele>88.3</ele>
        <time>2019-07-07T06:48:10Z</time>
      </trkpt>
      <trkpt lat="43.66352" lon="3.746">
        <ele>88.2</ele>
        <time>2019-07-07T06:48:11Z</time>
      </trkpt>
      <trkpt lat="43.66357" lon="3.74602">
        <ele>88.3</ele>
        <time>2019-07-07T06:48:12Z</time>
      </trkpt>
      <trkpt lat="43.6636" lon="3.74604">
        <ele>88.3</ele>
        <time>2019-07-07T06:48:13Z</time>
      </trkpt>
      <trkpt lat="43.66365" lon="3.74609">
        <ele>88.2</ele>
        <time>2019-07-07T06:48:14Z</time>
      </trkpt>
      <trkpt lat="43.66368" lon="3.74612">
        <ele>88.3</ele>
        <time>2019-07-07T06:48:15Z</time>
      </trkpt>
      <trkpt lat="43.66371" lon="3.74614">
        <ele>88.2</ele>
        <time>2019-07-07T06:48:16Z</time>
      </trkpt>
      <trkpt lat="43.66375" lon="3.74615">
        <ele>88.3</ele>
        <time>2019-07-07T06:48:17Z</time>
      </trkpt>
      <trkpt lat="43.66378" lon="3.74615">
        <ele>88.3</ele>
        <time>2019-07-07T06:48:18Z</time>
      </trkpt>
      <trkpt lat="43.66381" lon="3.74615">
        <ele>88.4</ele>
        <time>2019-07-07T06:48:19Z</time>
      </trkpt>
      <trkpt lat="43.66384" lon="3.74616">
        <ele>88.4</ele>
        <time>2019-07-07T06:48:20Z</time>
      </trkpt>
      <trkpt lat="43.66389" lon="3.74616">
        <ele>88.4</ele>
        <time>2019-07-07T06:48:21Z</time>
      </trkpt>
      <trkpt lat="43.66392" lon="3.74615">
        <ele>88.4</ele>
        <time>2019-07-07T06:48:22Z</time>
      </trkpt>
      <trkpt lat="43.66395" lon="3.74612">
        <ele>88.4</ele>
        <time>2019-07-07T06:48:23Z</time>
      </trkpt>
      <trkpt lat="43.66399" lon="3.74611">
        <ele>88.6</ele>
        <time>2019-07-07T06:48:24Z</time>
      </trkpt>
      <trkpt lat="43.66403" lon="3.7461">
        <ele>88.6</ele>
        <time>2019-07-07T06:48:25Z</time>
      </trkpt>
      <trkpt lat="43.66405" lon="3.74605">
        <ele>88.7</ele>
        <time>2019-07-07T06:48:26Z</time>
      </trkpt>
      <trkpt lat="43.66409" lon="3.74603">
        <ele>88.8</ele>
        <time>2019-07-07T06:48:27Z</time>
      </trkpt>
      <trkpt lat="43.66413" lon="3.74604">
        <ele>88.7</ele>
        <time>2019-07-07T06:48:28Z</time>
      </trkpt>
      <trkpt lat="43.66417" lon="3.74605">
        <ele>88.8</ele>
        <time>2019-07-07T06:48:29Z</time>
      </trkpt>
      <trkpt lat="43.66421" lon="3.74606">
        <ele>88.8</ele>
        <time>2019-07-07T06:48:31Z</time>
      </trkpt>
      <trkpt lat="43.66427" lon="3.74609">
        <ele>88.6</ele>
        <time>2019-07-07T06:48:33Z</time>
      </trkpt>
      <trkpt lat="43.6643" lon="3.74609">
        <ele>88.6</ele>
        <time>2019-07-07T06:48:34Z</time>
      </trkpt>
      <trkpt lat="43.66433" lon="3.7461">
        <ele>88.6</ele>
        <time>2019-07-07T06:48:35Z</time>
      </trkpt>
      <trkpt lat="43.66436" lon="3.74607">
        <ele>88.7</ele>
        <time>2019-07-07T06:48:36Z</time>
      </trkpt>
      <trkpt lat="43.66438" lon="3.74605">
        <ele>88.6</ele>
        <time>2019-07-07T06:48:37Z</time>
      </trkpt>
      <trkpt lat="43.66445" lon="3.74611">
        <ele>88.4</ele>
        <time>2019-07-07T06:48:38Z</time>
      </trkpt>
      <trkpt lat="43.66449" lon="3.74612">
        <ele>88.3</ele>
        <time>2019-07-07T06:48:39Z</time>
      </trkpt>
      <trkpt lat="43.66453" lon="3.74615">
        <ele>88.1</ele>
        <time>2019-07-07T06:48:40Z</time>
      </trkpt>
      <trkpt lat="43.66457" lon="3.74616">
        <ele>88</ele>
        <time>2019-07-07T06:48:41Z</time>
      </trkpt>
      <trkpt lat="43.66463" lon="3.74622">
        <ele>87.6</ele>
        <time>2019-07-07T06:48:42Z</time>
      </trkpt>
      <trkpt lat="43.66468" lon="3.74627">
        <ele>87.4</ele>
        <time>2019-07-07T06:48:43Z</time>
      </trkpt>
      <trkpt lat="43.66473" lon="3.74626">
        <ele>87.3</ele>
        <time>2019-07-07T06:48:44Z</time>
      </trkpt>
      <trkpt lat="43.66477" lon="3.74623">
        <ele>87.4</ele>
        <time>2019-07-07T06:48:45Z</time>
      </trkpt>
      <trkpt lat="43.66481" lon="3.7462">
        <ele>87.5</ele>
        <time>2019-07-07T06:48:46Z</time>
      </trkpt>
      <trkpt lat="43.66483" lon="3.74613">
        <ele>87.7</ele>
        <time>2019-07-07T06:48:48Z</time>
      </trkpt>
      <trkpt lat="43.66484" lon="3.74609">
        <ele>87.7</ele>
        <time>2019-07-07T06:48:49Z</time>
      </trkpt>
      <trkpt lat="43.66488" lon="3.74606">
        <ele>87.8</ele>
        <time>2019-07-07T06:48:51Z</time>
      </trkpt>
      <trkpt lat="43.66492" lon="3.74604">
        <ele>87.7</ele>
        <time>2019-07-07T06:48:52Z</time>
      </trkpt>
      <trkpt lat="43.66495" lon="3.74601">
        <ele>87.9</ele>
        <time>2019-07-07T06:48:53Z</time>
      </trkpt>
      <trkpt lat="43.66497" lon="3.74599">
        <ele>87.9</ele>
        <time>2019-07-07T06:48:54Z</time>
      </trkpt>
      <trkpt lat="43.66501" lon="3.74595">
        <ele>88</ele>
        <time>2019-07-07T06:48:55Z</time>
      </trkpt>
      <trkpt lat="43.66503" lon="3.7459">
        <ele>88</ele>
        <time>2019-07-07T06:48:56Z</time>
      </trkpt>
      <trkpt lat="43.66505" lon="3.74586">
        <ele>88</ele>
        <time>2019-07-07T06:48:57Z</time>
      </trkpt>
      <trkpt lat="43.66509" lon="3.74583">
        <ele>87.9</ele>
        <time>2019-07-07T06:48:58Z</time>
      </trkpt>
      <trkpt lat="43.66512" lon="3.74579">
        <ele>87.9</ele>
        <time>2019-07-07T06:48:59Z</time>
      </trkpt>
      <trkpt lat="43.66513" lon="3.74574">
        <ele>88.2</ele>
        <time>2019-07-07T06:49:00Z</time>
      </trkpt>
      <trkpt lat="43.66515" lon="3.7457">
        <ele>88.1</ele>
        <time>2019-07-07T06:49:01Z</time>
      </trkpt>
      <trkpt lat="43.66516" lon="3.74567">
        <ele>88.1</ele>
        <time>2019-07-07T06:49:02Z</time>
      </trkpt>
      <trkpt lat="43.66518" lon="3.74563">
        <ele>88.1</ele>
        <time>2019-07-07T06:49:03Z</time>
      </trkpt>
      <trkpt lat="43.6652" lon="3.7456">
        <ele>88.1</ele>
        <time>2019-07-07T06:49:04Z</time>
      </trkpt>
      <trkpt lat="43.66523" lon="3.74553">
        <ele>88.1</ele>
        <time>2019-07-07T06:49:06Z</time>
      </trkpt>
      <trkpt lat="43.66526" lon="3.74551">
        <ele>88.2</ele>
        <time>2019-07-07T06:49:07Z</time>
      </trkpt>
      <trkpt lat="43.66529" lon="3.74545">
        <ele>88.1</ele>
        <time>2019-07-07T06:49:09Z</time>
      </trkpt>
      <trkpt lat="43.66531" lon="3.74543">
        <ele>88.1</ele>
        <time>2019-07-07T06:49:10Z</time>
      </trkpt>
      <trkpt lat="43.66533" lon="3.7454">
        <ele>88</ele>
        <time>2019-07-07T06:49:11Z</time>
      </trkpt>
      <trkpt lat="43.66535" lon="3.74536">
        <ele>88.1</ele>
        <time>2019-07-07T06:49:12Z</time>
      </trkpt>
      <trkpt lat="43.66536" lon="3.74532">
        <ele>88</ele>
        <time>2019-07-07T06:49:13Z</time>
      </trkpt>
      <trkpt lat="43.66538" lon="3.74529">
        <ele>88.1</ele>
        <time>2019-07-07T06:49:14Z</time>
      </trkpt>
      <trkpt lat="43.66542" lon="3.74526">
        <ele>87.9</ele>
        <time>2019-07-07T06:49:16Z</time>
      </trkpt>
      <trkpt lat="43.66545" lon="3.74522">
        <ele>87.8</ele>
        <time>2019-07-07T06:49:18Z</time>
      </trkpt>
      <trkpt lat="43.66547" lon="3.74518">
        <ele>87.8</ele>
        <time>2019-07-07T06:49:19Z</time>
      </trkpt>
      <trkpt lat="43.6655" lon="3.74512">
        <ele>87.8</ele>
        <time>2019-07-07T06:49:20Z</time>
      </trkpt>
      <trkpt lat="43.66551" lon="3.74508">
        <ele>87.8</ele>
        <time>2019-07-07T06:49:21Z</time>
      </trkpt>
      <trkpt lat="43.66554" lon="3.74503">
        <ele>87.9</ele>
        <time>2019-07-07T06:49:23Z</time>
      </trkpt>
      <trkpt lat="43.66558" lon="3.74497">
        <ele>87.8</ele>
        <time>2019-07-07T06:49:24Z</time>
      </trkpt>
      <trkpt lat="43.6656" lon="3.74493">
        <ele>87.9</ele>
        <time>2019-07-07T06:49:25Z</time>
      </trkpt>
      <trkpt lat="43.66563" lon="3.74488">
        <ele>88</ele>
        <time>2019-07-07T06:49:26Z</time>
      </trkpt>
      <trkpt lat="43.66564" lon="3.74484">
        <ele>88.2</ele>
        <time>2019-07-07T06:49:27Z</time>
      </trkpt>
      <trkpt lat="43.66566" lon="3.74479">
        <ele>88.3</ele>
        <time>2019-07-07T06:49:28Z</time>
      </trkpt>
      <trkpt lat="43.66567" lon="3.7447">
        <ele>88.5</ele>
        <time>2019-07-07T06:49:29Z</time>
      </trkpt>
      <trkpt lat="43.66569" lon="3.74466">
        <ele>88.7</ele>
        <time>2019-07-07T06:49:30Z</time>
      </trkpt>
      <trkpt lat="43.66572" lon="3.74463">
        <ele>88.6</ele>
        <time>2019-07-07T06:49:31Z</time>
      </trkpt>
      <trkpt lat="43.66573" lon="3.74459">
        <ele>88.6</ele>
        <time>2019-07-07T06:49:32Z</time>
      </trkpt>
      <trkpt lat="43.66577" lon="3.74453">
        <ele>88.8</ele>
        <time>2019-07-07T06:49:34Z</time>
      </trkpt>
      <trkpt lat="43.66579" lon="3.74449">
        <ele>88.9</ele>
        <time>2019-07-07T06:49:35Z</time>
      </trkpt>
      <trkpt lat="43.6658" lon="3.74444">
        <ele>88.9</ele>
        <time>2019-07-07T06:49:36Z</time>
      </trkpt>
      <trkpt lat="43.66582" lon="3.74439">
        <ele>89.1</ele>
        <time>2019-07-07T06:49:37Z</time>
      </trkpt>
      <trkpt lat="43.66582" lon="3.74433">
        <ele>89.2</ele>
        <time>2019-07-07T06:49:38Z</time>
      </trkpt>
      <trkpt lat="43.66583" lon="3.74429">
        <ele>89.2</ele>
        <time>2019-07-07T06:49:39Z</time>
      </trkpt>
      <trkpt lat="43.66587" lon="3.74423">
        <ele>89.2</ele>
        <time>2019-07-07T06:49:41Z</time>
      </trkpt>
      <trkpt lat="43.66589" lon="3.74419">
        <ele>89.1</ele>
        <time>2019-07-07T06:49:42Z</time>
      </trkpt>
      <trkpt lat="43.66591" lon="3.74415">
        <ele>89.2</ele>
        <time>2019-07-07T06:49:43Z</time>
      </trkpt>
      <trkpt lat="43.66592" lon="3.7441">
        <ele>89.1</ele>
        <time>2019-07-07T06:49:44Z</time>
      </trkpt>
      <trkpt lat="43.66593" lon="3.74406">
        <ele>89.1</ele>
        <time>2019-07-07T06:49:45Z</time>
      </trkpt>
      <trkpt lat="43.66596" lon="3.74399">
        <ele>89</ele>
        <time>2019-07-07T06:49:47Z</time>
      </trkpt>
      <trkpt lat="43.66597" lon="3.74395">
        <ele>89</ele>
        <time>2019-07-07T06:49:48Z</time>
      </trkpt>
      <trkpt lat="43.66599" lon="3.74389">
        <ele>88.9</ele>
        <time>2019-07-07T06:49:50Z</time>
      </trkpt>
      <trkpt lat="43.666" lon="3.74385">
        <ele>88.9</ele>
        <time>2019-07-07T06:49:51Z</time>
      </trkpt>
      <trkpt lat="43.66602" lon="3.74382">
        <ele>88.7</ele>
        <time>2019-07-07T06:49:52Z</time>
      </trkpt>
      <trkpt lat="43.66604" lon="3.74378">
        <ele>88.5</ele>
        <time>2019-07-07T06:49:53Z</time>
      </trkpt>
      <trkpt lat="43.66609" lon="3.74373">
        <ele>88.3</ele>
        <time>2019-07-07T06:49:54Z</time>
      </trkpt>
      <trkpt lat="43.6661" lon="3.74368">
        <ele>88.2</ele>
        <time>2019-07-07T06:49:55Z</time>
      </trkpt>
      <trkpt lat="43.66613" lon="3.74365">
        <ele>88</ele>
        <time>2019-07-07T06:49:56Z</time>
      </trkpt>
      <trkpt lat="43.66616" lon="3.7436">
        <ele>87.8</ele>
        <time>2019-07-07T06:49:57Z</time>
      </trkpt>
      <trkpt lat="43.66618" lon="3.74356">
        <ele>87.6</ele>
        <time>2019-07-07T06:49:58Z</time>
      </trkpt>
      <trkpt lat="43.6662" lon="3.74351">
        <ele>87.5</ele>
        <time>2019-07-07T06:49:59Z</time>
      </trkpt>
      <trkpt lat="43.66622" lon="3.74345">
        <ele>87.4</ele>
        <time>2019-07-07T06:50:00Z</time>
      </trkpt>
      <trkpt lat="43.66624" lon="3.74338">
        <ele>87.3</ele>
        <time>2019-07-07T06:50:01Z</time>
      </trkpt>
      <trkpt lat="43.66626" lon="3.74334">
        <ele>87.3</ele>
        <time>2019-07-07T06:50:02Z</time>
      </trkpt>
      <trkpt lat="43.66627" lon="3.74328">
        <ele>87.1</ele>
        <time>2019-07-07T06:50:03Z</time>
      </trkpt>
      <trkpt lat="43.66629" lon="3.74324">
        <ele>87</ele>
        <time>2019-07-07T06:50:04Z</time>
      </trkpt>
      <trkpt lat="43.66631" lon="3.74319">
        <ele>87</ele>
        <time>2019-07-07T06:50:05Z</time>
      </trkpt>
      <trkpt lat="43.66633" lon="3.74315">
        <ele>86.8</ele>
        <time>2019-07-07T06:50:06Z</time>
      </trkpt>
      <trkpt lat="43.66634" lon="3.74309">
        <ele>86.8</ele>
        <time>2019-07-07T06:50:07Z</time>
      </trkpt>
      <trkpt lat="43.66636" lon="3.74303">
        <ele>86.7</ele>
        <time>2019-07-07T06:50:08Z</time>
      </trkpt>
      <trkpt lat="43.66636" lon="3.74296">
        <ele>86.6</ele>
        <time>2019-07-07T06:50:09Z</time>
      </trkpt>
      <trkpt lat="43.66638" lon="3.74292">
        <ele>86.5</ele>
        <time>2019-07-07T06:50:10Z</time>
      </trkpt>
      <trkpt lat="43.6664" lon="3.74284">
        <ele>86.4</ele>
        <time>2019-07-07T06:50:11Z</time>
      </trkpt>
      <trkpt lat="43.6664" lon="3.74279">
        <ele>86.3</ele>
        <time>2019-07-07T06:50:12Z</time>
      </trkpt>
      <trkpt lat="43.6664" lon="3.74274">
        <ele>86.3</ele>
        <time>2019-07-07T06:50:13Z</time>
      </trkpt>
      <trkpt lat="43.66641" lon="3.7427">
        <ele>86.2</ele>
        <time>2019-07-07T06:50:14Z</time>
      </trkpt>
      <trkpt lat="43.66641" lon="3.74263">
        <ele>86.1</ele>
        <time>2019-07-07T06:50:15Z</time>
      </trkpt>
      <trkpt lat="43.66641" lon="3.74258">
        <ele>86.1</ele>
        <time>2019-07-07T06:50:17Z</time>
      </trkpt>
      <trkpt lat="43.6664" lon="3.74251">
        <ele>86</ele>
        <time>2019-07-07T06:50:19Z</time>
      </trkpt>
      <trkpt lat="43.66639" lon="3.74243">
        <ele>85.9</ele>
        <time>2019-07-07T06:50:21Z</time>
      </trkpt>
      <trkpt lat="43.6664" lon="3.74238">
        <ele>85.8</ele>
        <time>2019-07-07T06:50:22Z</time>
      </trkpt>
      <trkpt lat="43.66639" lon="3.74234">
        <ele>85.8</ele>
        <time>2019-07-07T06:50:23Z</time>
      </trkpt>
      <trkpt lat="43.66639" lon="3.74227">
        <ele>85.7</ele>
        <time>2019-07-07T06:50:25Z</time>
      </trkpt>
      <trkpt lat="43.66638" lon="3.74221">
        <ele>85.6</ele>
        <time>2019-07-07T06:50:26Z</time>
      </trkpt>
      <trkpt lat="43.66637" lon="3.74214">
        <ele>85.6</ele>
        <time>2019-07-07T06:50:28Z</time>
      </trkpt>
      <trkpt lat="43.66636" lon="3.7421">
        <ele>85.6</ele>
        <time>2019-07-07T06:50:29Z</time>
      </trkpt>
      <trkpt lat="43.66636" lon="3.74206">
        <ele>85.5</ele>
        <time>2019-07-07T06:50:30Z</time>
      </trkpt>
      <trkpt lat="43.66636" lon="3.74202">
        <ele>85.5</ele>
        <time>2019-07-07T06:50:31Z</time>
      </trkpt>
      <trkpt lat="43.66635" lon="3.74198">
        <ele>85.4</ele>
        <time>2019-07-07T06:50:32Z</time>
      </trkpt>
      <trkpt lat="43.66635" lon="3.74194">
        <ele>85.4</ele>
        <time>2019-07-07T06:50:33Z</time>
      </trkpt>
      <trkpt lat="43.66635" lon="3.7419">
        <ele>85.5</ele>
        <time>2019-07-07T06:50:34Z</time>
      </trkpt>
      <trkpt lat="43.66636" lon="3.74182">
        <ele>85.3</ele>
        <time>2019-07-07T06:50:36Z</time>
      </trkpt>
      <trkpt lat="43.66636" lon="3.74177">
        <ele>85.3</ele>
        <time>2019-07-07T06:50:37Z</time>
      </trkpt>
      <trkpt lat="43.66637" lon="3.74173">
        <ele>85.3</ele>
        <time>2019-07-07T06:50:38Z</time>
      </trkpt>
      <trkpt lat="43.66637" lon="3.74168">
        <ele>85.3</ele>
        <time>2019-07-07T06:50:39Z</time>
      </trkpt>
      <trkpt lat="43.66637" lon="3.74164">
        <ele>85.3</ele>
        <time>2019-07-07T06:50:40Z</time>
      </trkpt>
      <trkpt lat="43.66637" lon="3.7416">
        <ele>85.3</ele>
        <time>2019-07-07T06:50:41Z</time>
      </trkpt>
      <trkpt lat="43.66638" lon="3.74153">
        <ele>85.3</ele>
        <time>2019-07-07T06:50:43Z</time>
      </trkpt>
      <trkpt lat="43.6664" lon="3.74146">
        <ele>85.3</ele>
        <time>2019-07-07T06:50:45Z</time>
      </trkpt>
      <trkpt lat="43.66642" lon="3.7414">
        <ele>85.4</ele>
        <time>2019-07-07T06:50:47Z</time>
      </trkpt>
      <trkpt lat="43.66644" lon="3.74136">
        <ele>85.3</ele>
        <time>2019-07-07T06:50:49Z</time>
      </trkpt>
      <trkpt lat="43.66646" lon="3.74132">
        <ele>85.3</ele>
        <time>2019-07-07T06:50:51Z</time>
      </trkpt>
      <trkpt lat="43.66648" lon="3.74128">
        <ele>85.3</ele>
        <time>2019-07-07T06:50:52Z</time>
      </trkpt>
      <trkpt lat="43.6665" lon="3.74125">
        <ele>85.3</ele>
        <time>2019-07-07T06:50:53Z</time>
      </trkpt>
      <trkpt lat="43.66652" lon="3.74119">
        <ele>85.3</ele>
        <time>2019-07-07T06:50:55Z</time>
      </trkpt>
      <trkpt lat="43.66653" lon="3.74116">
        <ele>85.4</ele>
        <time>2019-07-07T06:50:56Z</time>
      </trkpt>
      <trkpt lat="43.66655" lon="3.74109">
        <ele>85.4</ele>
        <time>2019-07-07T06:50:58Z</time>
      </trkpt>
      <trkpt lat="43.66658" lon="3.74104">
        <ele>85.3</ele>
        <time>2019-07-07T06:51:00Z</time>
      </trkpt>
      <trkpt lat="43.66662" lon="3.74103">
        <ele>85.3</ele>
        <time>2019-07-07T06:51:02Z</time>
      </trkpt>
      <trkpt lat="43.66666" lon="3.74102">
        <ele>85.3</ele>
        <time>2019-07-07T06:51:04Z</time>
      </trkpt>
      <trkpt lat="43.66669" lon="3.74101">
        <ele>85.3</ele>
        <time>2019-07-07T06:51:05Z</time>
      </trkpt>
      <trkpt lat="43.66671" lon="3.74099">
        <ele>85.3</ele>
        <time>2019-07-07T06:51:06Z</time>
      </trkpt>
      <trkpt lat="43.66674" lon="3.74097">
        <ele>85.3</ele>
        <time>2019-07-07T06:51:07Z</time>
      </trkpt>
      <trkpt lat="43.66678" lon="3.74095">
        <ele>85.3</ele>
        <time>2019-07-07T06:51:09Z</time>
      </trkpt>
      <trkpt lat="43.6668" lon="3.74092">
        <ele>85.3</ele>
        <time>2019-07-07T06:51:12Z</time>
      </trkpt>
      <trkpt lat="43.6668" lon="3.74087">
        <ele>85.3</ele>
        <time>2019-07-07T06:51:14Z</time>
      </trkpt>
      <trkpt lat="43.66682" lon="3.74084">
        <ele>85.3</ele>
        <time>2019-07-07T06:51:16Z</time>
      </trkpt>
      <trkpt lat="43.66684" lon="3.7408">
        <ele>85.3</ele>
        <time>2019-07-07T06:51:18Z</time>
      </trkpt>
      <trkpt lat="43.66685" lon="3.74075">
        <ele>85.3</ele>
        <time>2019-07-07T06:51:22Z</time>
      </trkpt>
      <trkpt lat="43.66687" lon="3.74073">
        <ele>85.3</ele>
        <time>2019-07-07T06:51:24Z</time>
      </trkpt>
      <trkpt lat="43.66689" lon="3.74069">
        <ele>85.3</ele>
        <time>2019-07-07T06:51:26Z</time>
      </trkpt>
      <trkpt lat="43.66692" lon="3.74065">
        <ele>85.2</ele>
        <time>2019-07-07T06:51:28Z</time>
      </trkpt>
      <trkpt lat="43.66694" lon="3.7407">
        <ele>85.3</ele>
        <time>2019-07-07T06:51:31Z</time>
      </trkpt>
      <trkpt lat="43.66696" lon="3.74066">
        <ele>85.3</ele>
        <time>2019-07-07T06:51:36Z</time>
      </trkpt>
      <trkpt lat="43.667" lon="3.74063">
        <ele>85.3</ele>
        <time>2019-07-07T06:51:55Z</time>
      </trkpt>
      <trkpt lat="43.66703" lon="3.7406">
        <ele>85.4</ele>
        <time>2019-07-07T06:51:58Z</time>
      </trkpt>
      <trkpt lat="43.66705" lon="3.74057">
        <ele>85.4</ele>
        <time>2019-07-07T06:52:00Z</time>
      </trkpt>
      <trkpt lat="43.66705" lon="3.74051">
        <ele>85.3</ele>
        <time>2019-07-07T06:52:02Z</time>
      </trkpt>
      <trkpt lat="43.66705" lon="3.74048">
        <ele>85.2</ele>
        <time>2019-07-07T06:52:04Z</time>
      </trkpt>
      <trkpt lat="43.66704" lon="3.74043">
        <ele>85.2</ele>
        <time>2019-07-07T06:52:06Z</time>
      </trkpt>
      <trkpt lat="43.66704" lon="3.74038">
        <ele>85.1</ele>
        <time>2019-07-07T06:52:08Z</time>
      </trkpt>
      <trkpt lat="43.66705" lon="3.74031">
        <ele>85</ele>
        <time>2019-07-07T06:52:10Z</time>
      </trkpt>
      <trkpt lat="43.66705" lon="3.74026">
        <ele>85</ele>
        <time>2019-07-07T06:52:12Z</time>
      </trkpt>
      <trkpt lat="43.66706" lon="3.74021">
        <ele>84.9</ele>
        <time>2019-07-07T06:52:14Z</time>
      </trkpt>
      <trkpt lat="43.66709" lon="3.74017">
        <ele>85</ele>
        <time>2019-07-07T06:52:16Z</time>
      </trkpt>
      <trkpt lat="43.66711" lon="3.74015">
        <ele>85</ele>
        <time>2019-07-07T06:52:17Z</time>
      </trkpt>
      <trkpt lat="43.66716" lon="3.74016">
        <ele>85.2</ele>
        <time>2019-07-07T06:52:19Z</time>
      </trkpt>
      <trkpt lat="43.66721" lon="3.74018">
        <ele>85.3</ele>
        <time>2019-07-07T06:52:21Z</time>
      </trkpt>
      <trkpt lat="43.66726" lon="3.74018">
        <ele>85.6</ele>
        <time>2019-07-07T06:52:23Z</time>
      </trkpt>
      <trkpt lat="43.66729" lon="3.74019">
        <ele>85.8</ele>
        <time>2019-07-07T06:52:24Z</time>
      </trkpt>
      <trkpt lat="43.66732" lon="3.7402">
        <ele>85.9</ele>
        <time>2019-07-07T06:52:25Z</time>
      </trkpt>
      <trkpt lat="43.66737" lon="3.74021">
        <ele>86.1</ele>
        <time>2019-07-07T06:52:27Z</time>
      </trkpt>
      <trkpt lat="43.66742" lon="3.74022">
        <ele>86.4</ele>
        <time>2019-07-07T06:52:29Z</time>
      </trkpt>
      <trkpt lat="43.66746" lon="3.74023">
        <ele>86.6</ele>
        <time>2019-07-07T06:52:31Z</time>
      </trkpt>
      <trkpt lat="43.66749" lon="3.74025">
        <ele>86.9</ele>
        <time>2019-07-07T06:52:32Z</time>
      </trkpt>
      <trkpt lat="43.66753" lon="3.74027">
        <ele>87.5</ele>
        <time>2019-07-07T06:52:34Z</time>
      </trkpt>
      <trkpt lat="43.66756" lon="3.74027">
        <ele>87.5</ele>
        <time>2019-07-07T06:52:35Z</time>
      </trkpt>
      <trkpt lat="43.66759" lon="3.74028">
        <ele>87.8</ele>
        <time>2019-07-07T06:52:36Z</time>
      </trkpt>
      <trkpt lat="43.66762" lon="3.7403">
        <ele>88.5</ele>
        <time>2019-07-07T06:52:38Z</time>
      </trkpt>
      <trkpt lat="43.66767" lon="3.74032">
        <ele>88.9</ele>
        <time>2019-07-07T06:52:40Z</time>
      </trkpt>
      <trkpt lat="43.6677" lon="3.74032">
        <ele>89.2</ele>
        <time>2019-07-07T06:52:42Z</time>
      </trkpt>
      <trkpt lat="43.66774" lon="3.74034">
        <ele>89.8</ele>
        <time>2019-07-07T06:52:44Z</time>
      </trkpt>
      <trkpt lat="43.66776" lon="3.74035">
        <ele>90.2</ele>
        <time>2019-07-07T06:52:45Z</time>
      </trkpt>
      <trkpt lat="43.6678" lon="3.74036">
        <ele>90.6</ele>
        <time>2019-07-07T06:52:47Z</time>
      </trkpt>
      <trkpt lat="43.66784" lon="3.74037">
        <ele>91</ele>
        <time>2019-07-07T06:52:49Z</time>
      </trkpt>
      <trkpt lat="43.66788" lon="3.74037">
        <ele>92.1</ele>
        <time>2019-07-07T06:52:51Z</time>
      </trkpt>
      <trkpt lat="43.66793" lon="3.74039">
        <ele>92.6</ele>
        <time>2019-07-07T06:52:53Z</time>
      </trkpt>
      <trkpt lat="43.66796" lon="3.7404">
        <ele>93</ele>
        <time>2019-07-07T06:52:56Z</time>
      </trkpt>
      <trkpt lat="43.66801" lon="3.74042">
        <ele>94</ele>
        <time>2019-07-07T06:52:58Z</time>
      </trkpt>
      <trkpt lat="43.66803" lon="3.74044">
        <ele>94.5</ele>
        <time>2019-07-07T06:52:59Z</time>
      </trkpt>
      <trkpt lat="43.66808" lon="3.74043">
        <ele>95</ele>
        <time>2019-07-07T06:53:01Z</time>
      </trkpt>
      <trkpt lat="43.66811" lon="3.74043">
        <ele>95.4</ele>
        <time>2019-07-07T06:53:03Z</time>
      </trkpt>
      <trkpt lat="43.66812" lon="3.74047">
        <ele>96</ele>
        <time>2019-07-07T06:53:04Z</time>
      </trkpt>
      <trkpt lat="43.66815" lon="3.74048">
        <ele>96</ele>
        <time>2019-07-07T06:53:06Z</time>
      </trkpt>
      <trkpt lat="43.66818" lon="3.74049">
        <ele>96.4</ele>
        <time>2019-07-07T06:53:08Z</time>
      </trkpt>
      <trkpt lat="43.66821" lon="3.7405">
        <ele>96.8</ele>
        <time>2019-07-07T06:53:10Z</time>
      </trkpt>
      <trkpt lat="43.66825" lon="3.74047">
        <ele>97.6</ele>
        <time>2019-07-07T06:53:14Z</time>
      </trkpt>
      <trkpt lat="43.66828" lon="3.74047">
        <ele>98</ele>
        <time>2019-07-07T06:53:16Z</time>
      </trkpt>
      <trkpt lat="43.66831" lon="3.74047">
        <ele>98.5</ele>
        <time>2019-07-07T06:53:19Z</time>
      </trkpt>
      <trkpt lat="43.66833" lon="3.7405">
        <ele>98.5</ele>
        <time>2019-07-07T06:53:21Z</time>
      </trkpt>
      <trkpt lat="43.66836" lon="3.74052">
        <ele>99</ele>
        <time>2019-07-07T06:53:23Z</time>
      </trkpt>
      <trkpt lat="43.66839" lon="3.74049">
        <ele>99.3</ele>
        <time>2019-07-07T06:53:28Z</time>
      </trkpt>
      <trkpt lat="43.66841" lon="3.74046">
        <ele>99.5</ele>
        <time>2019-07-07T06:53:32Z</time>
      </trkpt>
      <trkpt lat="43.66841" lon="3.74042">
        <ele>99.5</ele>
        <time>2019-07-07T06:53:35Z</time>
      </trkpt>
      <trkpt lat="43.66844" lon="3.74039">
        <ele>99.8</ele>
        <time>2019-07-07T06:54:02Z</time>
      </trkpt>
      <trkpt lat="43.66847" lon="3.74038">
        <ele>100.1</ele>
        <time>2019-07-07T06:54:04Z</time>
      </trkpt>
      <trkpt lat="43.66851" lon="3.74037">
        <ele>100.2</ele>
        <time>2019-07-07T06:54:07Z</time>
      </trkpt>
      <trkpt lat="43.66854" lon="3.74039">
        <ele>100.8</ele>
        <time>2019-07-07T06:54:11Z</time>
      </trkpt>
      <trkpt lat="43.66857" lon="3.7404">
        <ele>101.1</ele>
        <time>2019-07-07T06:54:14Z</time>
      </trkpt>
      <trkpt lat="43.66861" lon="3.74043">
        <ele>101.7</ele>
        <time>2019-07-07T06:54:16Z</time>
      </trkpt>
      <trkpt lat="43.66864" lon="3.74043">
        <ele>102.1</ele>
        <time>2019-07-07T06:54:19Z</time>
      </trkpt>
      <trkpt lat="43.66867" lon="3.74046">
        <ele>102.5</ele>
        <time>2019-07-07T06:54:22Z</time>
      </trkpt>
      <trkpt lat="43.66869" lon="3.74049">
        <ele>102.9</ele>
        <time>2019-07-07T06:54:24Z</time>
      </trkpt>
      <trkpt lat="43.66872" lon="3.74051">
        <ele>103.4</ele>
        <time>2019-07-07T06:54:27Z</time>
      </trkpt>
      <trkpt lat="43.66876" lon="3.7405">
        <ele>103.6</ele>
        <time>2019-07-07T06:54:31Z</time>
      </trkpt>
      <trkpt lat="43.66879" lon="3.74053">
        <ele>104.1</ele>
        <time>2019-07-07T06:54:33Z</time>
      </trkpt>
      <trkpt lat="43.66884" lon="3.74054">
        <ele>104.9</ele>
        <time>2019-07-07T06:54:36Z</time>
      </trkpt>
      <trkpt lat="43.66887" lon="3.74053">
        <ele>105.3</ele>
        <time>2019-07-07T06:54:39Z</time>
      </trkpt>
      <trkpt lat="43.6689" lon="3.74053">
        <ele>105.7</ele>
        <time>2019-07-07T06:54:42Z</time>
      </trkpt>
      <trkpt lat="43.66893" lon="3.74053">
        <ele>106.1</ele>
        <time>2019-07-07T06:54:44Z</time>
      </trkpt>
      <trkpt lat="43.66896" lon="3.74054">
        <ele>106.4</ele>
        <time>2019-07-07T06:54:46Z</time>
      </trkpt>
      <trkpt lat="43.669" lon="3.74055">
        <ele>106.8</ele>
        <time>2019-07-07T06:54:48Z</time>
      </trkpt>
      <trkpt lat="43.66903" lon="3.74055">
        <ele>107.1</ele>
        <time>2019-07-07T06:54:52Z</time>
      </trkpt>
      <trkpt lat="43.66906" lon="3.74055">
        <ele>107.5</ele>
        <time>2019-07-07T06:54:54Z</time>
      </trkpt>
      <trkpt lat="43.66908" lon="3.74059">
        <ele>107.9</ele>
        <time>2019-07-07T06:54:55Z</time>
      </trkpt>
      <trkpt lat="43.66912" lon="3.74061">
        <ele>108.2</ele>
        <time>2019-07-07T06:54:57Z</time>
      </trkpt>
      <trkpt lat="43.66913" lon="3.74064">
        <ele>108.3</ele>
        <time>2019-07-07T06:54:58Z</time>
      </trkpt>
      <trkpt lat="43.66916" lon="3.74063">
        <ele>108.7</ele>
        <time>2019-07-07T06:55:01Z</time>
      </trkpt>
      <trkpt lat="43.6692" lon="3.74066">
        <ele>109.1</ele>
        <time>2019-07-07T06:55:04Z</time>
      </trkpt>
      <trkpt lat="43.66923" lon="3.74068">
        <ele>109.6</ele>
        <time>2019-07-07T06:55:07Z</time>
      </trkpt>
      <trkpt lat="43.66926" lon="3.74069">
        <ele>109.9</ele>
        <time>2019-07-07T06:55:09Z</time>
      </trkpt>
      <trkpt lat="43.66929" lon="3.74071">
        <ele>110.3</ele>
        <time>2019-07-07T06:55:11Z</time>
      </trkpt>
      <trkpt lat="43.66932" lon="3.74073">
        <ele>110.8</ele>
        <time>2019-07-07T06:55:14Z</time>
      </trkpt>
      <trkpt lat="43.66936" lon="3.74074">
        <ele>111.2</ele>
        <time>2019-07-07T06:55:18Z</time>
      </trkpt>
      <trkpt lat="43.6694" lon="3.74076">
        <ele>112.2</ele>
        <time>2019-07-07T06:55:21Z</time>
      </trkpt>
      <trkpt lat="43.66943" lon="3.74075">
        <ele>112.4</ele>
        <time>2019-07-07T06:55:25Z</time>
      </trkpt>
      <trkpt lat="43.66945" lon="3.74072">
        <ele>112.4</ele>
        <time>2019-07-07T06:55:26Z</time>
      </trkpt>
      <trkpt lat="43.66948" lon="3.7407">
        <ele>112.5</ele>
        <time>2019-07-07T06:55:28Z</time>
      </trkpt>
      <trkpt lat="43.6695" lon="3.7407">
        <ele>112.9</ele>
        <time>2019-07-07T06:55:30Z</time>
      </trkpt>
      <trkpt lat="43.66951" lon="3.74066">
        <ele>112.7</ele>
        <time>2019-07-07T06:55:32Z</time>
      </trkpt>
      <trkpt lat="43.66955" lon="3.74066">
        <ele>113.3</ele>
        <time>2019-07-07T06:55:36Z</time>
      </trkpt>
      <trkpt lat="43.66959" lon="3.74063">
        <ele>113.3</ele>
        <time>2019-07-07T06:55:39Z</time>
      </trkpt>
      <trkpt lat="43.66961" lon="3.74059">
        <ele>113.3</ele>
        <time>2019-07-07T06:55:42Z</time>
      </trkpt>
      <trkpt lat="43.66965" lon="3.74057">
        <ele>113.4</ele>
        <time>2019-07-07T06:55:44Z</time>
      </trkpt>
      <trkpt lat="43.66968" lon="3.74057">
        <ele>113.7</ele>
        <time>2019-07-07T06:55:46Z</time>
      </trkpt>
      <trkpt lat="43.66971" lon="3.74054">
        <ele>113.7</ele>
        <time>2019-07-07T06:55:48Z</time>
      </trkpt>
      <trkpt lat="43.66973" lon="3.74051">
        <ele>113.7</ele>
        <time>2019-07-07T06:55:50Z</time>
      </trkpt>
      <trkpt lat="43.66976" lon="3.7405">
        <ele>113.6</ele>
        <time>2019-07-07T06:55:53Z</time>
      </trkpt>
      <trkpt lat="43.66978" lon="3.74046">
        <ele>113.4</ele>
        <time>2019-07-07T06:55:55Z</time>
      </trkpt>
      <trkpt lat="43.66981" lon="3.74045">
        <ele>113.6</ele>
        <time>2019-07-07T06:55:57Z</time>
      </trkpt>
      <trkpt lat="43.66984" lon="3.74045">
        <ele>113.8</ele>
        <time>2019-07-07T06:55:59Z</time>
      </trkpt>
      <trkpt lat="43.66987" lon="3.74044">
        <ele>114</ele>
        <time>2019-07-07T06:56:00Z</time>
      </trkpt>
      <trkpt lat="43.66989" lon="3.74041">
        <ele>113.7</ele>
        <time>2019-07-07T06:56:02Z</time>
      </trkpt>
      <trkpt lat="43.66993" lon="3.7404">
        <ele>113.9</ele>
        <time>2019-07-07T06:56:04Z</time>
      </trkpt>
      <trkpt lat="43.66996" lon="3.74039">
        <ele>114.2</ele>
        <time>2019-07-07T06:56:06Z</time>
      </trkpt>
      <trkpt lat="43.67" lon="3.74039">
        <ele>114.4</ele>
        <time>2019-07-07T06:56:08Z</time>
      </trkpt>
      <trkpt lat="43.67002" lon="3.74042">
        <ele>115.1</ele>
        <time>2019-07-07T06:56:11Z</time>
      </trkpt>
      <trkpt lat="43.67005" lon="3.74043">
        <ele>115.4</ele>
        <time>2019-07-07T06:56:12Z</time>
      </trkpt>
      <trkpt lat="43.67007" lon="3.74046">
        <ele>115.8</ele>
        <time>2019-07-07T06:56:14Z</time>
      </trkpt>
      <trkpt lat="43.67007" lon="3.74052">
        <ele>116.3</ele>
        <time>2019-07-07T06:56:17Z</time>
      </trkpt>
      <trkpt lat="43.67005" lon="3.74056">
        <ele>116.7</ele>
        <time>2019-07-07T06:56:19Z</time>
      </trkpt>
      <trkpt lat="43.67003" lon="3.74062">
        <ele>116.9</ele>
        <time>2019-07-07T06:56:22Z</time>
      </trkpt>
      <trkpt lat="43.67" lon="3.74067">
        <ele>117</ele>
        <time>2019-07-07T06:56:24Z</time>
      </trkpt>
      <trkpt lat="43.66999" lon="3.74071">
        <ele>117.5</ele>
        <time>2019-07-07T06:56:26Z</time>
      </trkpt>
      <trkpt lat="43.66999" lon="3.74075">
        <ele>117.9</ele>
        <time>2019-07-07T06:56:29Z</time>
      </trkpt>
      <trkpt lat="43.66995" lon="3.74079">
        <ele>117.7</ele>
        <time>2019-07-07T06:56:33Z</time>
      </trkpt>
      <trkpt lat="43.66994" lon="3.74084">
        <ele>118.2</ele>
        <time>2019-07-07T06:56:36Z</time>
      </trkpt>
      <trkpt lat="43.66993" lon="3.74087">
        <ele>118.7</ele>
        <time>2019-07-07T06:56:40Z</time>
      </trkpt>
      <trkpt lat="43.66991" lon="3.74091">
        <ele>118.8</ele>
        <time>2019-07-07T06:56:42Z</time>
      </trkpt>
      <trkpt lat="43.66992" lon="3.74096">
        <ele>119.2</ele>
        <time>2019-07-07T06:56:46Z</time>
      </trkpt>
      <trkpt lat="43.66991" lon="3.74099">
        <ele>119.6</ele>
        <time>2019-07-07T06:56:48Z</time>
      </trkpt>
      <trkpt lat="43.66993" lon="3.741">
        <ele>120</ele>
        <time>2019-07-07T06:56:52Z</time>
      </trkpt>
      <trkpt lat="43.66994" lon="3.74105">
        <ele>120.4</ele>
        <time>2019-07-07T06:56:55Z</time>
      </trkpt>
      <trkpt lat="43.66999" lon="3.74106">
        <ele>121.3</ele>
        <time>2019-07-07T06:56:57Z</time>
      </trkpt>
      <trkpt lat="43.67002" lon="3.74105">
        <ele>121.8</ele>
        <time>2019-07-07T06:57:00Z</time>
      </trkpt>
      <trkpt lat="43.67005" lon="3.74106">
        <ele>122.7</ele>
        <time>2019-07-07T06:57:04Z</time>
      </trkpt>
      <trkpt lat="43.67009" lon="3.74108">
        <ele>123.1</ele>
        <time>2019-07-07T06:57:07Z</time>
      </trkpt>
      <trkpt lat="43.67012" lon="3.74108">
        <ele>123.5</ele>
        <time>2019-07-07T06:57:09Z</time>
      </trkpt>
      <trkpt lat="43.67015" lon="3.74109">
        <ele>124</ele>
        <time>2019-07-07T06:57:11Z</time>
      </trkpt>
      <trkpt lat="43.67017" lon="3.74111">
        <ele>125</ele>
        <time>2019-07-07T06:57:13Z</time>
      </trkpt>
      <trkpt lat="43.67021" lon="3.74114">
        <ele>125.6</ele>
        <time>2019-07-07T06:57:17Z</time>
      </trkpt>
      <trkpt lat="43.67025" lon="3.74114">
        <ele>126.2</ele>
        <time>2019-07-07T06:57:20Z</time>
      </trkpt>
      <trkpt lat="43.67028" lon="3.74114">
        <ele>126.9</ele>
        <time>2019-07-07T06:57:22Z</time>
      </trkpt>
      <trkpt lat="43.67032" lon="3.74114">
        <ele>127.6</ele>
        <time>2019-07-07T06:57:25Z</time>
      </trkpt>
      <trkpt lat="43.67036" lon="3.74118">
        <ele>129.5</ele>
        <time>2019-07-07T06:57:27Z</time>
      </trkpt>
      <trkpt lat="43.6704" lon="3.7412">
        <ele>130.9</ele>
        <time>2019-07-07T06:57:29Z</time>
      </trkpt>
      <trkpt lat="43.67042" lon="3.74123">
        <ele>131.6</ele>
        <time>2019-07-07T06:57:31Z</time>
      </trkpt>
      <trkpt lat="43.67045" lon="3.74122">
        <ele>132.4</ele>
        <time>2019-07-07T06:57:34Z</time>
      </trkpt>
      <trkpt lat="43.67048" lon="3.74124">
        <ele>133.9</ele>
        <time>2019-07-07T06:57:36Z</time>
      </trkpt>
      <trkpt lat="43.6705" lon="3.74125">
        <ele>133.9</ele>
        <time>2019-07-07T06:57:39Z</time>
      </trkpt>
      <trkpt lat="43.67052" lon="3.74129">
        <ele>135.4</ele>
        <time>2019-07-07T06:57:41Z</time>
      </trkpt>
      <trkpt lat="43.67055" lon="3.74132">
        <ele>137</ele>
        <time>2019-07-07T06:57:43Z</time>
      </trkpt>
      <trkpt lat="43.67057" lon="3.74135">
        <ele>137.9</ele>
        <time>2019-07-07T06:57:46Z</time>
      </trkpt>
      <trkpt lat="43.6706" lon="3.74136">
        <ele>138.8</ele>
        <time>2019-07-07T06:57:49Z</time>
      </trkpt>
      <trkpt lat="43.67063" lon="3.74139">
        <ele>139.4</ele>
        <time>2019-07-07T06:57:50Z</time>
      </trkpt>
      <trkpt lat="43.67066" lon="3.74142">
        <ele>140.9</ele>
        <time>2019-07-07T06:57:52Z</time>
      </trkpt>
      <trkpt lat="43.67069" lon="3.74145">
        <ele>142.2</ele>
        <time>2019-07-07T06:57:54Z</time>
      </trkpt>
      <trkpt lat="43.67071" lon="3.74149">
        <ele>143.4</ele>
        <time>2019-07-07T06:57:58Z</time>
      </trkpt>
      <trkpt lat="43.67074" lon="3.74152">
        <ele>144.1</ele>
        <time>2019-07-07T06:58:01Z</time>
      </trkpt>
      <trkpt lat="43.67076" lon="3.74154">
        <ele>145.2</ele>
        <time>2019-07-07T06:58:04Z</time>
      </trkpt>
      <trkpt lat="43.67079" lon="3.74156">
        <ele>145.2</ele>
        <time>2019-07-07T06:58:06Z</time>
      </trkpt>
      <trkpt lat="43.67081" lon="3.74159">
        <ele>146.4</ele>
        <time>2019-07-07T06:58:07Z</time>
      </trkpt>
      <trkpt lat="43.67084" lon="3.74161">
        <ele>147.2</ele>
        <time>2019-07-07T06:58:09Z</time>
      </trkpt>
      <trkpt lat="43.67087" lon="3.74161">
        <ele>148</ele>
        <time>2019-07-07T06:58:11Z</time>
      </trkpt>
      <trkpt lat="43.6709" lon="3.74163">
        <ele>149.1</ele>
        <time>2019-07-07T06:58:15Z</time>
      </trkpt>
      <trkpt lat="43.67093" lon="3.74166">
        <ele>149.8</ele>
        <time>2019-07-07T06:58:18Z</time>
      </trkpt>
      <trkpt lat="43.67096" lon="3.74166">
        <ele>150.5</ele>
        <time>2019-07-07T06:58:21Z</time>
      </trkpt>
      <trkpt lat="43.67099" lon="3.74167">
        <ele>151.4</ele>
        <time>2019-07-07T06:58:23Z</time>
      </trkpt>
      <trkpt lat="43.67101" lon="3.7417">
        <ele>152</ele>
        <time>2019-07-07T06:58:25Z</time>
      </trkpt>
      <trkpt lat="43.67106" lon="3.74172">
        <ele>153</ele>
        <time>2019-07-07T06:58:27Z</time>
      </trkpt>
      <trkpt lat="43.67108" lon="3.74175">
        <ele>153.9</ele>
        <time>2019-07-07T06:58:29Z</time>
      </trkpt>
      <trkpt lat="43.67111" lon="3.74181">
        <ele>154.8</ele>
        <time>2019-07-07T06:58:31Z</time>
      </trkpt>
      <trkpt lat="43.67113" lon="3.74186">
        <ele>154.8</ele>
        <time>2019-07-07T06:58:33Z</time>
      </trkpt>
      <trkpt lat="43.67114" lon="3.74191">
        <ele>155.6</ele>
        <time>2019-07-07T06:58:34Z</time>
      </trkpt>
      <trkpt lat="43.67117" lon="3.74196">
        <ele>156.2</ele>
        <time>2019-07-07T06:58:36Z</time>
      </trkpt>
      <trkpt lat="43.67119" lon="3.74199">
        <ele>156.1</ele>
        <time>2019-07-07T06:58:39Z</time>
      </trkpt>
      <trkpt lat="43.67121" lon="3.74202">
        <ele>156.6</ele>
        <time>2019-07-07T06:58:42Z</time>
      </trkpt>
      <trkpt lat="43.67124" lon="3.74205">
        <ele>157</ele>
        <time>2019-07-07T06:58:44Z</time>
      </trkpt>
      <trkpt lat="43.67126" lon="3.74207">
        <ele>157.4</ele>
        <time>2019-07-07T06:58:46Z</time>
      </trkpt>
      <trkpt lat="43.67128" lon="3.74211">
        <ele>157.3</ele>
        <time>2019-07-07T06:58:48Z</time>
      </trkpt>
      <trkpt lat="43.67129" lon="3.74216">
        <ele>157.6</ele>
        <time>2019-07-07T06:58:51Z</time>
      </trkpt>
      <trkpt lat="43.67132" lon="3.74219">
        <ele>157.9</ele>
        <time>2019-07-07T06:58:54Z</time>
      </trkpt>
      <trkpt lat="43.67133" lon="3.74223">
        <ele>157.8</ele>
        <time>2019-07-07T06:58:56Z</time>
      </trkpt>
      <trkpt lat="43.67135" lon="3.74226">
        <ele>158.2</ele>
        <time>2019-07-07T06:59:06Z</time>
      </trkpt>
      <trkpt lat="43.67139" lon="3.74234">
        <ele>158.4</ele>
        <time>2019-07-07T07:03:18Z</time>
      </trkpt>
      <trkpt lat="43.6714" lon="3.74239">
        <ele>158.1</ele>
        <time>2019-07-07T07:03:22Z</time>
      </trkpt>
      <trkpt lat="43.67139" lon="3.74243">
        <ele>158.1</ele>
        <time>2019-07-07T07:03:24Z</time>
      </trkpt>
      <trkpt lat="43.67137" lon="3.74245">
        <ele>157.7</ele>
        <time>2019-07-07T07:03:25Z</time>
      </trkpt>
      <trkpt lat="43.67134" lon="3.74249">
        <ele>157.2</ele>
        <time>2019-07-07T07:03:26Z</time>
      </trkpt>
      <trkpt lat="43.67132" lon="3.74253">
        <ele>157.2</ele>
        <time>2019-07-07T07:03:27Z</time>
      </trkpt>
      <trkpt lat="43.6713" lon="3.7426">
        <ele>156.7</ele>
        <time>2019-07-07T07:03:28Z</time>
      </trkpt>
      <trkpt lat="43.67128" lon="3.74267">
        <ele>156.2</ele>
        <time>2019-07-07T07:03:29Z</time>
      </trkpt>
      <trkpt lat="43.67126" lon="3.74273">
        <ele>156.1</ele>
        <time>2019-07-07T07:03:30Z</time>
      </trkpt>
      <trkpt lat="43.67122" lon="3.7428">
        <ele>155.1</ele>
        <time>2019-07-07T07:03:31Z</time>
      </trkpt>
      <trkpt lat="43.67118" lon="3.74286">
        <ele>154.4</ele>
        <time>2019-07-07T07:03:32Z</time>
      </trkpt>
      <trkpt lat="43.67115" lon="3.74295">
        <ele>153.7</ele>
        <time>2019-07-07T07:03:33Z</time>
      </trkpt>
      <trkpt lat="43.67113" lon="3.74301">
        <ele>152.9</ele>
        <time>2019-07-07T07:03:34Z</time>
      </trkpt>
      <trkpt lat="43.6711" lon="3.74307">
        <ele>152.8</ele>
        <time>2019-07-07T07:03:35Z</time>
      </trkpt>
      <trkpt lat="43.67111" lon="3.74311">
        <ele>153.1</ele>
        <time>2019-07-07T07:03:36Z</time>
      </trkpt>
      <trkpt lat="43.67114" lon="3.74315">
        <ele>153.5</ele>
        <time>2019-07-07T07:03:38Z</time>
      </trkpt>
      <trkpt lat="43.67111" lon="3.74317">
        <ele>153.9</ele>
        <time>2019-07-07T07:03:41Z</time>
      </trkpt>
      <trkpt lat="43.67114" lon="3.74321">
        <ele>154.4</ele>
        <time>2019-07-07T07:04:03Z</time>
      </trkpt>
      <trkpt lat="43.67116" lon="3.74324">
        <ele>154.8</ele>
        <time>2019-07-07T07:04:05Z</time>
      </trkpt>
      <trkpt lat="43.67118" lon="3.74328">
        <ele>155.1</ele>
        <time>2019-07-07T07:04:06Z</time>
      </trkpt>
      <trkpt lat="43.67119" lon="3.74331">
        <ele>155.4</ele>
        <time>2019-07-07T07:04:07Z</time>
      </trkpt>
      <trkpt lat="43.67123" lon="3.74334">
        <ele>155.9</ele>
        <time>2019-07-07T07:04:10Z</time>
      </trkpt>
      <trkpt lat="43.67124" lon="3.74338">
        <ele>156.6</ele>
        <time>2019-07-07T07:04:12Z</time>
      </trkpt>
      <trkpt lat="43.67128" lon="3.74337">
        <ele>157.3</ele>
        <time>2019-07-07T07:04:14Z</time>
      </trkpt>
      <trkpt lat="43.67131" lon="3.74337">
        <ele>157.9</ele>
        <time>2019-07-07T07:04:16Z</time>
      </trkpt>
      <trkpt lat="43.67134" lon="3.74335">
        <ele>158.5</ele>
        <time>2019-07-07T07:04:18Z</time>
      </trkpt>
      <trkpt lat="43.67139" lon="3.74337">
        <ele>159.3</ele>
        <time>2019-07-07T07:04:21Z</time>
      </trkpt>
      <trkpt lat="43.67143" lon="3.74339">
        <ele>159.8</ele>
        <time>2019-07-07T07:04:23Z</time>
      </trkpt>
      <trkpt lat="43.67146" lon="3.74337">
        <ele>160.4</ele>
        <time>2019-07-07T07:04:26Z</time>
      </trkpt>
      <trkpt lat="43.67149" lon="3.7434">
        <ele>160.9</ele>
        <time>2019-07-07T07:04:28Z</time>
      </trkpt>
      <trkpt lat="43.67153" lon="3.7434">
        <ele>161.5</ele>
        <time>2019-07-07T07:04:30Z</time>
      </trkpt>
      <trkpt lat="43.67154" lon="3.74336">
        <ele>162.1</ele>
        <time>2019-07-07T07:04:32Z</time>
      </trkpt>
      <trkpt lat="43.67157" lon="3.74337">
        <ele>162.6</ele>
        <time>2019-07-07T07:04:34Z</time>
      </trkpt>
      <trkpt lat="43.6716" lon="3.74336">
        <ele>163.3</ele>
        <time>2019-07-07T07:04:36Z</time>
      </trkpt>
      <trkpt lat="43.67163" lon="3.74335">
        <ele>163.8</ele>
        <time>2019-07-07T07:04:38Z</time>
      </trkpt>
      <trkpt lat="43.67166" lon="3.7433">
        <ele>164.6</ele>
        <time>2019-07-07T07:04:40Z</time>
      </trkpt>
      <trkpt lat="43.67168" lon="3.74332">
        <ele>165</ele>
        <time>2019-07-07T07:04:42Z</time>
      </trkpt>
      <trkpt lat="43.67172" lon="3.74329">
        <ele>165.7</ele>
        <time>2019-07-07T07:04:44Z</time>
      </trkpt>
      <trkpt lat="43.67175" lon="3.74327">
        <ele>166.1</ele>
        <time>2019-07-07T07:04:46Z</time>
      </trkpt>
      <trkpt lat="43.67177" lon="3.74324">
        <ele>166.5</ele>
        <time>2019-07-07T07:04:48Z</time>
      </trkpt>
      <trkpt lat="43.6718" lon="3.74324">
        <ele>166.7</ele>
        <time>2019-07-07T07:04:49Z</time>
      </trkpt>
      <trkpt lat="43.67182" lon="3.74321">
        <ele>167</ele>
        <time>2019-07-07T07:04:51Z</time>
      </trkpt>
      <trkpt lat="43.67186" lon="3.74319">
        <ele>167.4</ele>
        <time>2019-07-07T07:04:53Z</time>
      </trkpt>
      <trkpt lat="43.67189" lon="3.74318">
        <ele>167.8</ele>
        <time>2019-07-07T07:04:55Z</time>
      </trkpt>
      <trkpt lat="43.67193" lon="3.74317">
        <ele>168.3</ele>
        <time>2019-07-07T07:04:57Z</time>
      </trkpt>
      <trkpt lat="43.67197" lon="3.74317">
        <ele>168.5</ele>
        <time>2019-07-07T07:04:59Z</time>
      </trkpt>
      <trkpt lat="43.67201" lon="3.74315">
        <ele>168.7</ele>
        <time>2019-07-07T07:05:01Z</time>
      </trkpt>
      <trkpt lat="43.67205" lon="3.74314">
        <ele>169</ele>
        <time>2019-07-07T07:05:03Z</time>
      </trkpt>
      <trkpt lat="43.67209" lon="3.74311">
        <ele>169.2</ele>
        <time>2019-07-07T07:05:06Z</time>
      </trkpt>
      <trkpt lat="43.67211" lon="3.74309">
        <ele>169.4</ele>
        <time>2019-07-07T07:05:09Z</time>
      </trkpt>
      <trkpt lat="43.67215" lon="3.74308">
        <ele>169.6</ele>
        <time>2019-07-07T07:05:11Z</time>
      </trkpt>
      <trkpt lat="43.6722" lon="3.74307">
        <ele>169.8</ele>
        <time>2019-07-07T07:05:13Z</time>
      </trkpt>
      <trkpt lat="43.67224" lon="3.74306">
        <ele>170.1</ele>
        <time>2019-07-07T07:05:14Z</time>
      </trkpt>
      <trkpt lat="43.67228" lon="3.74305">
        <ele>170.2</ele>
        <time>2019-07-07T07:05:15Z</time>
      </trkpt>
      <trkpt lat="43.67234" lon="3.74305">
        <ele>170.4</ele>
        <time>2019-07-07T07:05:16Z</time>
      </trkpt>
      <trkpt lat="43.67238" lon="3.74306">
        <ele>170.4</ele>
        <time>2019-07-07T07:05:17Z</time>
      </trkpt>
      <trkpt lat="43.6724" lon="3.74303">
        <ele>170.4</ele>
        <time>2019-07-07T07:05:18Z</time>
      </trkpt>
      <trkpt lat="43.67243" lon="3.743">
        <ele>170.5</ele>
        <time>2019-07-07T07:05:19Z</time>
      </trkpt>
      <trkpt lat="43.67247" lon="3.74295">
        <ele>170.5</ele>
        <time>2019-07-07T07:05:20Z</time>
      </trkpt>
      <trkpt lat="43.67251" lon="3.74291">
        <ele>170.5</ele>
        <time>2019-07-07T07:05:21Z</time>
      </trkpt>
      <trkpt lat="43.67256" lon="3.74289">
        <ele>170.6</ele>
        <time>2019-07-07T07:05:22Z</time>
      </trkpt>
      <trkpt lat="43.67261" lon="3.74285">
        <ele>170.6</ele>
        <time>2019-07-07T07:05:23Z</time>
      </trkpt>
      <trkpt lat="43.67265" lon="3.74281">
        <ele>170.7</ele>
        <time>2019-07-07T07:05:24Z</time>
      </trkpt>
      <trkpt lat="43.67268" lon="3.7428">
        <ele>170.7</ele>
        <time>2019-07-07T07:05:25Z</time>
      </trkpt>
      <trkpt lat="43.67274" lon="3.74277">
        <ele>170.8</ele>
        <time>2019-07-07T07:05:26Z</time>
      </trkpt>
      <trkpt lat="43.67279" lon="3.74277">
        <ele>170.9</ele>
        <time>2019-07-07T07:05:27Z</time>
      </trkpt>
      <trkpt lat="43.67283" lon="3.74277">
        <ele>170.9</ele>
        <time>2019-07-07T07:05:28Z</time>
      </trkpt>
      <trkpt lat="43.67288" lon="3.74277">
        <ele>171</ele>
        <time>2019-07-07T07:05:29Z</time>
      </trkpt>
      <trkpt lat="43.67293" lon="3.74283">
        <ele>170.8</ele>
        <time>2019-07-07T07:05:30Z</time>
      </trkpt>
      <trkpt lat="43.67297" lon="3.74287">
        <ele>170.3</ele>
        <time>2019-07-07T07:05:31Z</time>
      </trkpt>
      <trkpt lat="43.67303" lon="3.74292">
        <ele>169.7</ele>
        <time>2019-07-07T07:05:32Z</time>
      </trkpt>
      <trkpt lat="43.67307" lon="3.74295">
        <ele>169.4</ele>
        <time>2019-07-07T07:05:33Z</time>
      </trkpt>
      <trkpt lat="43.67311" lon="3.74299">
        <ele>168.9</ele>
        <time>2019-07-07T07:05:34Z</time>
      </trkpt>
      <trkpt lat="43.67316" lon="3.74303">
        <ele>168.5</ele>
        <time>2019-07-07T07:05:35Z</time>
      </trkpt>
      <trkpt lat="43.67322" lon="3.74304">
        <ele>168</ele>
        <time>2019-07-07T07:05:36Z</time>
      </trkpt>
      <trkpt lat="43.67328" lon="3.74306">
        <ele>167.5</ele>
        <time>2019-07-07T07:05:37Z</time>
      </trkpt>
      <trkpt lat="43.67335" lon="3.74311">
        <ele>167</ele>
        <time>2019-07-07T07:05:38Z</time>
      </trkpt>
      <trkpt lat="43.67341" lon="3.74312">
        <ele>166.5</ele>
        <time>2019-07-07T07:05:39Z</time>
      </trkpt>
      <trkpt lat="43.67346" lon="3.74314">
        <ele>166.1</ele>
        <time>2019-07-07T07:05:40Z</time>
      </trkpt>
      <trkpt lat="43.67351" lon="3.7431">
        <ele>165.6</ele>
        <time>2019-07-07T07:05:41Z</time>
      </trkpt>
      <trkpt lat="43.67356" lon="3.74308">
        <ele>165.3</ele>
        <time>2019-07-07T07:05:42Z</time>
      </trkpt>
      <trkpt lat="43.67361" lon="3.74307">
        <ele>164.9</ele>
        <time>2019-07-07T07:05:43Z</time>
      </trkpt>
      <trkpt lat="43.67366" lon="3.743">
        <ele>164.4</ele>
        <time>2019-07-07T07:05:44Z</time>
      </trkpt>
      <trkpt lat="43.67369" lon="3.74299">
        <ele>164.1</ele>
        <time>2019-07-07T07:05:45Z</time>
      </trkpt>
      <trkpt lat="43.67374" lon="3.74298">
        <ele>163.9</ele>
        <time>2019-07-07T07:05:46Z</time>
      </trkpt>
      <trkpt lat="43.67377" lon="3.74295">
        <ele>163.6</ele>
        <time>2019-07-07T07:05:47Z</time>
      </trkpt>
      <trkpt lat="43.67381" lon="3.74294">
        <ele>163.4</ele>
        <time>2019-07-07T07:05:48Z</time>
      </trkpt>
      <trkpt lat="43.67386" lon="3.74294">
        <ele>163.2</ele>
        <time>2019-07-07T07:05:49Z</time>
      </trkpt>
      <trkpt lat="43.6739" lon="3.74294">
        <ele>162.9</ele>
        <time>2019-07-07T07:05:50Z</time>
      </trkpt>
      <trkpt lat="43.67394" lon="3.74291">
        <ele>162.7</ele>
        <time>2019-07-07T07:05:51Z</time>
      </trkpt>
      <trkpt lat="43.67399" lon="3.74293">
        <ele>162.4</ele>
        <time>2019-07-07T07:05:52Z</time>
      </trkpt>
      <trkpt lat="43.67402" lon="3.74293">
        <ele>162.3</ele>
        <time>2019-07-07T07:05:53Z</time>
      </trkpt>
      <trkpt lat="43.67407" lon="3.74299">
        <ele>161.8</ele>
        <time>2019-07-07T07:05:54Z</time>
      </trkpt>
      <trkpt lat="43.6741" lon="3.74299">
        <ele>161.6</ele>
        <time>2019-07-07T07:05:55Z</time>
      </trkpt>
      <trkpt lat="43.67413" lon="3.74299">
        <ele>161.4</ele>
        <time>2019-07-07T07:05:56Z</time>
      </trkpt>
      <trkpt lat="43.67417" lon="3.74302">
        <ele>161.1</ele>
        <time>2019-07-07T07:05:57Z</time>
      </trkpt>
      <trkpt lat="43.67421" lon="3.74302">
        <ele>160.8</ele>
        <time>2019-07-07T07:05:58Z</time>
      </trkpt>
      <trkpt lat="43.67427" lon="3.74305">
        <ele>160.3</ele>
        <time>2019-07-07T07:05:59Z</time>
      </trkpt>
      <trkpt lat="43.67432" lon="3.74305">
        <ele>159.9</ele>
        <time>2019-07-07T07:06:00Z</time>
      </trkpt>
      <trkpt lat="43.67437" lon="3.74306">
        <ele>159.5</ele>
        <time>2019-07-07T07:06:01Z</time>
      </trkpt>
      <trkpt lat="43.67442" lon="3.74306">
        <ele>159.2</ele>
        <time>2019-07-07T07:06:02Z</time>
      </trkpt>
      <trkpt lat="43.67446" lon="3.74306">
        <ele>158.9</ele>
        <time>2019-07-07T07:06:03Z</time>
      </trkpt>
      <trkpt lat="43.6745" lon="3.74307">
        <ele>158.7</ele>
        <time>2019-07-07T07:06:04Z</time>
      </trkpt>
      <trkpt lat="43.67457" lon="3.74308">
        <ele>158.3</ele>
        <time>2019-07-07T07:06:05Z</time>
      </trkpt>
      <trkpt lat="43.67461" lon="3.74309">
        <ele>158.1</ele>
        <time>2019-07-07T07:06:06Z</time>
      </trkpt>
      <trkpt lat="43.67467" lon="3.74311">
        <ele>157.7</ele>
        <time>2019-07-07T07:06:07Z</time>
      </trkpt>
      <trkpt lat="43.67469" lon="3.74309">
        <ele>157.5</ele>
        <time>2019-07-07T07:06:08Z</time>
      </trkpt>
      <trkpt lat="43.67474" lon="3.74308">
        <ele>157.2</ele>
        <time>2019-07-07T07:06:09Z</time>
      </trkpt>
      <trkpt lat="43.67479" lon="3.7431">
        <ele>156.9</ele>
        <time>2019-07-07T07:06:10Z</time>
      </trkpt>
      <trkpt lat="43.67485" lon="3.74312">
        <ele>156.3</ele>
        <time>2019-07-07T07:06:11Z</time>
      </trkpt>
      <trkpt lat="43.6749" lon="3.74312">
        <ele>155.9</ele>
        <time>2019-07-07T07:06:12Z</time>
      </trkpt>
      <trkpt lat="43.67495" lon="3.74312">
        <ele>155.6</ele>
        <time>2019-07-07T07:06:13Z</time>
      </trkpt>
      <trkpt lat="43.67499" lon="3.74313">
        <ele>155.3</ele>
        <time>2019-07-07T07:06:14Z</time>
      </trkpt>
      <trkpt lat="43.67505" lon="3.74317">
        <ele>154.7</ele>
        <time>2019-07-07T07:06:15Z</time>
      </trkpt>
      <trkpt lat="43.6751" lon="3.74318">
        <ele>154.3</ele>
        <time>2019-07-07T07:06:16Z</time>
      </trkpt>
      <trkpt lat="43.67514" lon="3.74319">
        <ele>154</ele>
        <time>2019-07-07T07:06:17Z</time>
      </trkpt>
      <trkpt lat="43.67519" lon="3.74324">
        <ele>153.6</ele>
        <time>2019-07-07T07:06:18Z</time>
      </trkpt>
      <trkpt lat="43.67524" lon="3.74325">
        <ele>153.1</ele>
        <time>2019-07-07T07:06:19Z</time>
      </trkpt>
      <trkpt lat="43.6753" lon="3.74326">
        <ele>152.6</ele>
        <time>2019-07-07T07:06:20Z</time>
      </trkpt>
      <trkpt lat="43.67535" lon="3.74324">
        <ele>152.1</ele>
        <time>2019-07-07T07:06:21Z</time>
      </trkpt>
      <trkpt lat="43.67539" lon="3.74323">
        <ele>151.7</ele>
        <time>2019-07-07T07:06:22Z</time>
      </trkpt>
      <trkpt lat="43.67545" lon="3.74326">
        <ele>151.1</ele>
        <time>2019-07-07T07:06:23Z</time>
      </trkpt>
      <trkpt lat="43.67549" lon="3.74325">
        <ele>150.7</ele>
        <time>2019-07-07T07:06:24Z</time>
      </trkpt>
      <trkpt lat="43.67553" lon="3.74324">
        <ele>150.4</ele>
        <time>2019-07-07T07:06:25Z</time>
      </trkpt>
      <trkpt lat="43.67557" lon="3.74322">
        <ele>150.1</ele>
        <time>2019-07-07T07:06:26Z</time>
      </trkpt>
      <trkpt lat="43.67562" lon="3.74325">
        <ele>149.7</ele>
        <time>2019-07-07T07:06:27Z</time>
      </trkpt>
      <trkpt lat="43.67566" lon="3.74325">
        <ele>149.4</ele>
        <time>2019-07-07T07:06:28Z</time>
      </trkpt>
      <trkpt lat="43.6757" lon="3.74325">
        <ele>149.1</ele>
        <time>2019-07-07T07:06:29Z</time>
      </trkpt>
      <trkpt lat="43.67575" lon="3.74328">
        <ele>148.7</ele>
        <time>2019-07-07T07:06:30Z</time>
      </trkpt>
      <trkpt lat="43.67579" lon="3.74331">
        <ele>148.3</ele>
        <time>2019-07-07T07:06:31Z</time>
      </trkpt>
      <trkpt lat="43.67583" lon="3.74331">
        <ele>148</ele>
        <time>2019-07-07T07:06:32Z</time>
      </trkpt>
      <trkpt lat="43.67585" lon="3.74327">
        <ele>147.7</ele>
        <time>2019-07-07T07:06:33Z</time>
      </trkpt>
      <trkpt lat="43.67592" lon="3.74328">
        <ele>147.2</ele>
        <time>2019-07-07T07:06:35Z</time>
      </trkpt>
      <trkpt lat="43.67595" lon="3.74328">
        <ele>146.9</ele>
        <time>2019-07-07T07:06:36Z</time>
      </trkpt>
      <trkpt lat="43.67603" lon="3.74335">
        <ele>146</ele>
        <time>2019-07-07T07:06:37Z</time>
      </trkpt>
      <trkpt lat="43.67607" lon="3.74337">
        <ele>145.5</ele>
        <time>2019-07-07T07:06:38Z</time>
      </trkpt>
      <trkpt lat="43.67611" lon="3.74337">
        <ele>145.1</ele>
        <time>2019-07-07T07:06:39Z</time>
      </trkpt>
      <trkpt lat="43.67617" lon="3.7434">
        <ele>144.4</ele>
        <time>2019-07-07T07:06:40Z</time>
      </trkpt>
      <trkpt lat="43.67621" lon="3.74342">
        <ele>144</ele>
        <time>2019-07-07T07:06:41Z</time>
      </trkpt>
      <trkpt lat="43.67627" lon="3.74341">
        <ele>143.4</ele>
        <time>2019-07-07T07:06:42Z</time>
      </trkpt>
      <trkpt lat="43.67631" lon="3.7434">
        <ele>143</ele>
        <time>2019-07-07T07:06:43Z</time>
      </trkpt>
      <trkpt lat="43.67638" lon="3.74346">
        <ele>142.1</ele>
        <time>2019-07-07T07:06:44Z</time>
      </trkpt>
      <trkpt lat="43.67643" lon="3.74348">
        <ele>141.6</ele>
        <time>2019-07-07T07:06:45Z</time>
      </trkpt>
      <trkpt lat="43.67647" lon="3.74349">
        <ele>141.3</ele>
        <time>2019-07-07T07:06:46Z</time>
      </trkpt>
      <trkpt lat="43.67655" lon="3.74351">
        <ele>140.8</ele>
        <time>2019-07-07T07:06:47Z</time>
      </trkpt>
      <trkpt lat="43.67667" lon="3.74356">
        <ele>140.2</ele>
        <time>2019-07-07T07:06:49Z</time>
      </trkpt>
      <trkpt lat="43.67671" lon="3.74357">
        <ele>140.1</ele>
        <time>2019-07-07T07:06:50Z</time>
      </trkpt>
      <trkpt lat="43.67678" lon="3.7436">
        <ele>139.9</ele>
        <time>2019-07-07T07:06:51Z</time>
      </trkpt>
      <trkpt lat="43.67685" lon="3.74362">
        <ele>139.9</ele>
        <time>2019-07-07T07:06:52Z</time>
      </trkpt>
      <trkpt lat="43.6769" lon="3.74365">
        <ele>139.9</ele>
        <time>2019-07-07T07:06:53Z</time>
      </trkpt>
      <trkpt lat="43.67695" lon="3.74367">
        <ele>140</ele>
        <time>2019-07-07T07:06:54Z</time>
      </trkpt>
      <trkpt lat="43.67701" lon="3.74373">
        <ele>139.9</ele>
        <time>2019-07-07T07:06:56Z</time>
      </trkpt>
      <trkpt lat="43.67704" lon="3.74375">
        <ele>139.9</ele>
        <time>2019-07-07T07:06:57Z</time>
      </trkpt>
      <trkpt lat="43.6771" lon="3.74377">
        <ele>139.9</ele>
        <time>2019-07-07T07:06:59Z</time>
      </trkpt>
      <trkpt lat="43.67713" lon="3.74379">
        <ele>139.9</ele>
        <time>2019-07-07T07:07:00Z</time>
      </trkpt>
      <trkpt lat="43.67715" lon="3.74381">
        <ele>139.9</ele>
        <time>2019-07-07T07:07:01Z</time>
      </trkpt>
      <trkpt lat="43.67718" lon="3.74384">
        <ele>139.9</ele>
        <time>2019-07-07T07:07:02Z</time>
      </trkpt>
      <trkpt lat="43.67723" lon="3.74386">
        <ele>139.8</ele>
        <time>2019-07-07T07:07:04Z</time>
      </trkpt>
      <trkpt lat="43.67726" lon="3.74386">
        <ele>139.8</ele>
        <time>2019-07-07T07:07:06Z</time>
      </trkpt>
      <trkpt lat="43.6773" lon="3.7439">
        <ele>139.7</ele>
        <time>2019-07-07T07:07:08Z</time>
      </trkpt>
      <trkpt lat="43.67735" lon="3.74391">
        <ele>139.7</ele>
        <time>2019-07-07T07:07:10Z</time>
      </trkpt>
      <trkpt lat="43.6774" lon="3.74392">
        <ele>139.6</ele>
        <time>2019-07-07T07:07:12Z</time>
      </trkpt>
      <trkpt lat="43.67743" lon="3.74393">
        <ele>139.5</ele>
        <time>2019-07-07T07:07:13Z</time>
      </trkpt>
      <trkpt lat="43.67746" lon="3.74394">
        <ele>139.4</ele>
        <time>2019-07-07T07:07:14Z</time>
      </trkpt>
      <trkpt lat="43.67749" lon="3.74395">
        <ele>139.4</ele>
        <time>2019-07-07T07:07:15Z</time>
      </trkpt>
      <trkpt lat="43.67752" lon="3.74395">
        <ele>139.3</ele>
        <time>2019-07-07T07:07:17Z</time>
      </trkpt>
      <trkpt lat="43.67756" lon="3.744">
        <ele>139.1</ele>
        <time>2019-07-07T07:07:18Z</time>
      </trkpt>
      <trkpt lat="43.67758" lon="3.74403">
        <ele>139</ele>
        <time>2019-07-07T07:07:19Z</time>
      </trkpt>
      <trkpt lat="43.67762" lon="3.74406">
        <ele>138.9</ele>
        <time>2019-07-07T07:07:21Z</time>
      </trkpt>
      <trkpt lat="43.67768" lon="3.74408">
        <ele>138.8</ele>
        <time>2019-07-07T07:07:23Z</time>
      </trkpt>
      <trkpt lat="43.67771" lon="3.7441">
        <ele>138.7</ele>
        <time>2019-07-07T07:07:24Z</time>
      </trkpt>
      <trkpt lat="43.67775" lon="3.74414">
        <ele>138.4</ele>
        <time>2019-07-07T07:07:26Z</time>
      </trkpt>
      <trkpt lat="43.67778" lon="3.74415">
        <ele>138.3</ele>
        <time>2019-07-07T07:07:27Z</time>
      </trkpt>
      <trkpt lat="43.6778" lon="3.74416">
        <ele>138.2</ele>
        <time>2019-07-07T07:07:28Z</time>
      </trkpt>
      <trkpt lat="43.67784" lon="3.74417">
        <ele>138</ele>
        <time>2019-07-07T07:07:29Z</time>
      </trkpt>
      <trkpt lat="43.67787" lon="3.74418">
        <ele>137.9</ele>
        <time>2019-07-07T07:07:31Z</time>
      </trkpt>
      <trkpt lat="43.6779" lon="3.7442">
        <ele>137.7</ele>
        <time>2019-07-07T07:07:33Z</time>
      </trkpt>
      <trkpt lat="43.67795" lon="3.7442">
        <ele>137.4</ele>
        <time>2019-07-07T07:07:35Z</time>
      </trkpt>
      <trkpt lat="43.67798" lon="3.74419">
        <ele>137.2</ele>
        <time>2019-07-07T07:07:36Z</time>
      </trkpt>
      <trkpt lat="43.67805" lon="3.74417">
        <ele>136.6</ele>
        <time>2019-07-07T07:07:38Z</time>
      </trkpt>
      <trkpt lat="43.67809" lon="3.74414">
        <ele>136.4</ele>
        <time>2019-07-07T07:07:39Z</time>
      </trkpt>
      <trkpt lat="43.67813" lon="3.74412">
        <ele>136.2</ele>
        <time>2019-07-07T07:07:40Z</time>
      </trkpt>
      <trkpt lat="43.67823" lon="3.74405">
        <ele>135.9</ele>
        <time>2019-07-07T07:07:43Z</time>
      </trkpt>
      <trkpt lat="43.67827" lon="3.74403">
        <ele>135.8</ele>
        <time>2019-07-07T07:07:44Z</time>
      </trkpt>
      <trkpt lat="43.67831" lon="3.74404">
        <ele>135.8</ele>
        <time>2019-07-07T07:07:45Z</time>
      </trkpt>
      <trkpt lat="43.67838" lon="3.74403">
        <ele>135.6</ele>
        <time>2019-07-07T07:07:47Z</time>
      </trkpt>
      <trkpt lat="43.67843" lon="3.74401">
        <ele>135.5</ele>
        <time>2019-07-07T07:07:48Z</time>
      </trkpt>
      <trkpt lat="43.67848" lon="3.74398">
        <ele>135.4</ele>
        <time>2019-07-07T07:07:49Z</time>
      </trkpt>
      <trkpt lat="43.67852" lon="3.74395">
        <ele>135.4</ele>
        <time>2019-07-07T07:07:50Z</time>
      </trkpt>
      <trkpt lat="43.67856" lon="3.74393">
        <ele>135.2</ele>
        <time>2019-07-07T07:07:51Z</time>
      </trkpt>
      <trkpt lat="43.6786" lon="3.74391">
        <ele>135.2</ele>
        <time>2019-07-07T07:07:52Z</time>
      </trkpt>
      <trkpt lat="43.67864" lon="3.74389">
        <ele>135.1</ele>
        <time>2019-07-07T07:07:53Z</time>
      </trkpt>
      <trkpt lat="43.67867" lon="3.74386">
        <ele>135</ele>
        <time>2019-07-07T07:07:54Z</time>
      </trkpt>
      <trkpt lat="43.67868" lon="3.74383">
        <ele>135</ele>
        <time>2019-07-07T07:07:55Z</time>
      </trkpt>
      <trkpt lat="43.67872" lon="3.7438">
        <ele>135</ele>
        <time>2019-07-07T07:07:56Z</time>
      </trkpt>
      <trkpt lat="43.67876" lon="3.74376">
        <ele>135</ele>
        <time>2019-07-07T07:07:57Z</time>
      </trkpt>
      <trkpt lat="43.67878" lon="3.74373">
        <ele>135</ele>
        <time>2019-07-07T07:07:58Z</time>
      </trkpt>
      <trkpt lat="43.6788" lon="3.74371">
        <ele>135</ele>
        <time>2019-07-07T07:07:59Z</time>
      </trkpt>
      <trkpt lat="43.67884" lon="3.7437">
        <ele>134.9</ele>
        <time>2019-07-07T07:08:00Z</time>
      </trkpt>
      <trkpt lat="43.67887" lon="3.74367">
        <ele>134.9</ele>
        <time>2019-07-07T07:08:01Z</time>
      </trkpt>
      <trkpt lat="43.6789" lon="3.74364">
        <ele>134.8</ele>
        <time>2019-07-07T07:08:02Z</time>
      </trkpt>
      <trkpt lat="43.67892" lon="3.7436">
        <ele>134.7</ele>
        <time>2019-07-07T07:08:03Z</time>
      </trkpt>
      <trkpt lat="43.67894" lon="3.74357">
        <ele>134.5</ele>
        <time>2019-07-07T07:08:04Z</time>
      </trkpt>
      <trkpt lat="43.67898" lon="3.74352">
        <ele>134.3</ele>
        <time>2019-07-07T07:08:06Z</time>
      </trkpt>
      <trkpt lat="43.679" lon="3.74347">
        <ele>134.1</ele>
        <time>2019-07-07T07:08:08Z</time>
      </trkpt>
      <trkpt lat="43.67904" lon="3.74343">
        <ele>133.8</ele>
        <time>2019-07-07T07:08:10Z</time>
      </trkpt>
      <trkpt lat="43.67905" lon="3.74339">
        <ele>133.8</ele>
        <time>2019-07-07T07:08:11Z</time>
      </trkpt>
      <trkpt lat="43.67908" lon="3.74336">
        <ele>133.7</ele>
        <time>2019-07-07T07:08:12Z</time>
      </trkpt>
      <trkpt lat="43.67912" lon="3.74333">
        <ele>133.6</ele>
        <time>2019-07-07T07:08:14Z</time>
      </trkpt>
      <trkpt lat="43.67915" lon="3.74333">
        <ele>133.5</ele>
        <time>2019-07-07T07:08:16Z</time>
      </trkpt>
      <trkpt lat="43.67918" lon="3.74335">
        <ele>133.5</ele>
        <time>2019-07-07T07:08:19Z</time>
      </trkpt>
      <trkpt lat="43.67921" lon="3.74335">
        <ele>133.5</ele>
        <time>2019-07-07T07:09:26Z</time>
      </trkpt>
      <trkpt lat="43.67923" lon="3.74332">
        <ele>133.5</ele>
        <time>2019-07-07T07:09:29Z</time>
      </trkpt>
      <trkpt lat="43.67924" lon="3.74327">
        <ele>133.6</ele>
        <time>2019-07-07T07:09:31Z</time>
      </trkpt>
      <trkpt lat="43.67926" lon="3.74323">
        <ele>133.6</ele>
        <time>2019-07-07T07:09:33Z</time>
      </trkpt>
      <trkpt lat="43.6793" lon="3.74324">
        <ele>133.6</ele>
        <time>2019-07-07T07:09:45Z</time>
      </trkpt>
      <trkpt lat="43.67935" lon="3.74322">
        <ele>133.9</ele>
        <time>2019-07-07T07:09:48Z</time>
      </trkpt>
      <trkpt lat="43.67939" lon="3.74325">
        <ele>134.1</ele>
        <time>2019-07-07T07:09:51Z</time>
      </trkpt>
      <trkpt lat="43.67944" lon="3.74329">
        <ele>134.6</ele>
        <time>2019-07-07T07:10:13Z</time>
      </trkpt>
      <trkpt lat="43.67946" lon="3.74333">
        <ele>135.1</ele>
        <time>2019-07-07T07:10:15Z</time>
      </trkpt>
      <trkpt lat="43.67948" lon="3.74336">
        <ele>135.4</ele>
        <time>2019-07-07T07:10:17Z</time>
      </trkpt>
      <trkpt lat="43.67952" lon="3.74336">
        <ele>135.8</ele>
        <time>2019-07-07T07:10:19Z</time>
      </trkpt>
      <trkpt lat="43.67956" lon="3.74333">
        <ele>136</ele>
        <time>2019-07-07T07:10:21Z</time>
      </trkpt>
      <trkpt lat="43.67962" lon="3.74328">
        <ele>136.2</ele>
        <time>2019-07-07T07:10:23Z</time>
      </trkpt>
      <trkpt lat="43.67966" lon="3.74331">
        <ele>136.5</ele>
        <time>2019-07-07T07:10:24Z</time>
      </trkpt>
      <trkpt lat="43.6797" lon="3.7433">
        <ele>136.9</ele>
        <time>2019-07-07T07:10:26Z</time>
      </trkpt>
      <trkpt lat="43.67974" lon="3.74324">
        <ele>137.1</ele>
        <time>2019-07-07T07:10:29Z</time>
      </trkpt>
      <trkpt lat="43.67977" lon="3.74317">
        <ele>137.2</ele>
        <time>2019-07-07T07:10:31Z</time>
      </trkpt>
      <trkpt lat="43.67979" lon="3.74314">
        <ele>137.3</ele>
        <time>2019-07-07T07:10:32Z</time>
      </trkpt>
      <trkpt lat="43.67983" lon="3.7431">
        <ele>137.4</ele>
        <time>2019-07-07T07:10:34Z</time>
      </trkpt>
      <trkpt lat="43.67987" lon="3.74309">
        <ele>137.4</ele>
        <time>2019-07-07T07:10:36Z</time>
      </trkpt>
      <trkpt lat="43.67994" lon="3.74308">
        <ele>137.4</ele>
        <time>2019-07-07T07:10:37Z</time>
      </trkpt>
      <trkpt lat="43.68" lon="3.74308">
        <ele>138.1</ele>
        <time>2019-07-07T07:10:39Z</time>
      </trkpt>
      <trkpt lat="43.68004" lon="3.74307">
        <ele>138.3</ele>
        <time>2019-07-07T07:10:41Z</time>
      </trkpt>
      <trkpt lat="43.68007" lon="3.74304">
        <ele>138.2</ele>
        <time>2019-07-07T07:10:43Z</time>
      </trkpt>
      <trkpt lat="43.6801" lon="3.74304">
        <ele>138.1</ele>
        <time>2019-07-07T07:10:45Z</time>
      </trkpt>
      <trkpt lat="43.68012" lon="3.74301">
        <ele>138.3</ele>
        <time>2019-07-07T07:10:47Z</time>
      </trkpt>
      <trkpt lat="43.68014" lon="3.74305">
        <ele>138.6</ele>
        <time>2019-07-07T07:10:52Z</time>
      </trkpt>
      <trkpt lat="43.68016" lon="3.74303">
        <ele>138.8</ele>
        <time>2019-07-07T07:11:02Z</time>
      </trkpt>
      <trkpt lat="43.6802" lon="3.74303">
        <ele>139</ele>
        <time>2019-07-07T07:11:07Z</time>
      </trkpt>
      <trkpt lat="43.68022" lon="3.74302">
        <ele>139.1</ele>
        <time>2019-07-07T07:11:11Z</time>
      </trkpt>
      <trkpt lat="43.68028" lon="3.74299">
        <ele>137.9</ele>
        <time>2019-07-07T07:15:57Z</time>
      </trkpt>
      <trkpt lat="43.68028" lon="3.74294">
        <ele>137.9</ele>
        <time>2019-07-07T07:15:59Z</time>
      </trkpt>
      <trkpt lat="43.68029" lon="3.7429">
        <ele>137.9</ele>
        <time>2019-07-07T07:16:01Z</time>
      </trkpt>
      <trkpt lat="43.6803" lon="3.74286">
        <ele>137.9</ele>
        <time>2019-07-07T07:16:03Z</time>
      </trkpt>
      <trkpt lat="43.68032" lon="3.7428">
        <ele>137.9</ele>
        <time>2019-07-07T07:16:05Z</time>
      </trkpt>
      <trkpt lat="43.68035" lon="3.74278">
        <ele>137.9</ele>
        <time>2019-07-07T07:16:06Z</time>
      </trkpt>
      <trkpt lat="43.68038" lon="3.74273">
        <ele>137.9</ele>
        <time>2019-07-07T07:16:07Z</time>
      </trkpt>
      <trkpt lat="43.68043" lon="3.74272">
        <ele>137.9</ele>
        <time>2019-07-07T07:16:08Z</time>
      </trkpt>
      <trkpt lat="43.68046" lon="3.74272">
        <ele>137.9</ele>
        <time>2019-07-07T07:16:09Z</time>
      </trkpt>
      <trkpt lat="43.6805" lon="3.7427">
        <ele>137.9</ele>
        <time>2019-07-07T07:16:10Z</time>
      </trkpt>
      <trkpt lat="43.68052" lon="3.74267">
        <ele>137.9</ele>
        <time>2019-07-07T07:16:11Z</time>
      </trkpt>
      <trkpt lat="43.68056" lon="3.74265">
        <ele>137.9</ele>
        <time>2019-07-07T07:16:12Z</time>
      </trkpt>
      <trkpt lat="43.68059" lon="3.74265">
        <ele>137.9</ele>
        <time>2019-07-07T07:16:13Z</time>
      </trkpt>
      <trkpt lat="43.68061" lon="3.74258">
        <ele>138</ele>
        <time>2019-07-07T07:16:15Z</time>
      </trkpt>
      <trkpt lat="43.68064" lon="3.74254">
        <ele>138</ele>
        <time>2019-07-07T07:16:16Z</time>
      </trkpt>
      <trkpt lat="43.68069" lon="3.74255">
        <ele>138.1</ele>
        <time>2019-07-07T07:16:17Z</time>
      </trkpt>
      <trkpt lat="43.68075" lon="3.74256">
        <ele>138.3</ele>
        <time>2019-07-07T07:16:18Z</time>
      </trkpt>
      <trkpt lat="43.68081" lon="3.74254">
        <ele>138.4</ele>
        <time>2019-07-07T07:16:20Z</time>
      </trkpt>
      <trkpt lat="43.68083" lon="3.74247">
        <ele>138.7</ele>
        <time>2019-07-07T07:16:21Z</time>
      </trkpt>
      <trkpt lat="43.68086" lon="3.74246">
        <ele>138.9</ele>
        <time>2019-07-07T07:16:22Z</time>
      </trkpt>
      <trkpt lat="43.6809" lon="3.74242">
        <ele>139.1</ele>
        <time>2019-07-07T07:16:24Z</time>
      </trkpt>
      <trkpt lat="43.68097" lon="3.74241">
        <ele>139.4</ele>
        <time>2019-07-07T07:16:25Z</time>
      </trkpt>
      <trkpt lat="43.681" lon="3.74239">
        <ele>139.5</ele>
        <time>2019-07-07T07:16:26Z</time>
      </trkpt>
      <trkpt lat="43.68103" lon="3.74236">
        <ele>139.6</ele>
        <time>2019-07-07T07:16:27Z</time>
      </trkpt>
      <trkpt lat="43.68108" lon="3.74235">
        <ele>139.7</ele>
        <time>2019-07-07T07:16:28Z</time>
      </trkpt>
      <trkpt lat="43.68113" lon="3.7423">
        <ele>139.8</ele>
        <time>2019-07-07T07:16:30Z</time>
      </trkpt>
      <trkpt lat="43.68117" lon="3.74228">
        <ele>139.8</ele>
        <time>2019-07-07T07:16:31Z</time>
      </trkpt>
      <trkpt lat="43.6812" lon="3.74225">
        <ele>139.7</ele>
        <time>2019-07-07T07:16:32Z</time>
      </trkpt>
      <trkpt lat="43.68124" lon="3.74221">
        <ele>139.6</ele>
        <time>2019-07-07T07:16:34Z</time>
      </trkpt>
      <trkpt lat="43.68128" lon="3.74216">
        <ele>139.4</ele>
        <time>2019-07-07T07:16:35Z</time>
      </trkpt>
      <trkpt lat="43.68131" lon="3.74214">
        <ele>139.2</ele>
        <time>2019-07-07T07:16:36Z</time>
      </trkpt>
      <trkpt lat="43.68135" lon="3.74212">
        <ele>139</ele>
        <time>2019-07-07T07:16:37Z</time>
      </trkpt>
      <trkpt lat="43.68138" lon="3.7421">
        <ele>138.8</ele>
        <time>2019-07-07T07:16:38Z</time>
      </trkpt>
      <trkpt lat="43.68141" lon="3.74209">
        <ele>138.6</ele>
        <time>2019-07-07T07:16:39Z</time>
      </trkpt>
      <trkpt lat="43.68145" lon="3.74207">
        <ele>138.4</ele>
        <time>2019-07-07T07:16:40Z</time>
      </trkpt>
      <trkpt lat="43.68147" lon="3.74206">
        <ele>138.2</ele>
        <time>2019-07-07T07:16:41Z</time>
      </trkpt>
      <trkpt lat="43.68154" lon="3.74204">
        <ele>137.8</ele>
        <time>2019-07-07T07:16:42Z</time>
      </trkpt>
      <trkpt lat="43.6816" lon="3.74198">
        <ele>137.5</ele>
        <time>2019-07-07T07:16:43Z</time>
      </trkpt>
      <trkpt lat="43.68167" lon="3.74197">
        <ele>137.2</ele>
        <time>2019-07-07T07:16:44Z</time>
      </trkpt>
      <trkpt lat="43.6817" lon="3.74193">
        <ele>137</ele>
        <time>2019-07-07T07:16:45Z</time>
      </trkpt>
      <trkpt lat="43.68175" lon="3.74188">
        <ele>136.8</ele>
        <time>2019-07-07T07:16:46Z</time>
      </trkpt>
      <trkpt lat="43.68181" lon="3.74184">
        <ele>136.6</ele>
        <time>2019-07-07T07:16:47Z</time>
      </trkpt>
      <trkpt lat="43.68187" lon="3.7418">
        <ele>136.3</ele>
        <time>2019-07-07T07:16:48Z</time>
      </trkpt>
      <trkpt lat="43.68195" lon="3.74178">
        <ele>136</ele>
        <time>2019-07-07T07:16:49Z</time>
      </trkpt>
      <trkpt lat="43.68204" lon="3.74178">
        <ele>135.8</ele>
        <time>2019-07-07T07:16:50Z</time>
      </trkpt>
      <trkpt lat="43.68209" lon="3.74173">
        <ele>135.6</ele>
        <time>2019-07-07T07:16:51Z</time>
      </trkpt>
      <trkpt lat="43.68215" lon="3.74169">
        <ele>135.3</ele>
        <time>2019-07-07T07:16:52Z</time>
      </trkpt>
      <trkpt lat="43.68225" lon="3.74168">
        <ele>134.8</ele>
        <time>2019-07-07T07:16:53Z</time>
      </trkpt>
      <trkpt lat="43.68233" lon="3.74166">
        <ele>134.3</ele>
        <time>2019-07-07T07:16:54Z</time>
      </trkpt>
      <trkpt lat="43.6824" lon="3.74164">
        <ele>133.8</ele>
        <time>2019-07-07T07:16:55Z</time>
      </trkpt>
      <trkpt lat="43.68246" lon="3.74164">
        <ele>133.4</ele>
        <time>2019-07-07T07:16:56Z</time>
      </trkpt>
      <trkpt lat="43.68252" lon="3.74158">
        <ele>133</ele>
        <time>2019-07-07T07:16:57Z</time>
      </trkpt>
      <trkpt lat="43.68258" lon="3.74153">
        <ele>132.6</ele>
        <time>2019-07-07T07:16:58Z</time>
      </trkpt>
      <trkpt lat="43.68264" lon="3.74148">
        <ele>132.3</ele>
        <time>2019-07-07T07:16:59Z</time>
      </trkpt>
      <trkpt lat="43.68268" lon="3.7414">
        <ele>132.1</ele>
        <time>2019-07-07T07:17:00Z</time>
      </trkpt>
      <trkpt lat="43.68274" lon="3.74133">
        <ele>132</ele>
        <time>2019-07-07T07:17:01Z</time>
      </trkpt>
      <trkpt lat="43.68277" lon="3.74126">
        <ele>131.9</ele>
        <time>2019-07-07T07:17:02Z</time>
      </trkpt>
      <trkpt lat="43.68286" lon="3.74123">
        <ele>131.9</ele>
        <time>2019-07-07T07:17:03Z</time>
      </trkpt>
      <trkpt lat="43.6829" lon="3.74118">
        <ele>131.8</ele>
        <time>2019-07-07T07:17:04Z</time>
      </trkpt>
      <trkpt lat="43.68293" lon="3.74116">
        <ele>131.8</ele>
        <time>2019-07-07T07:17:05Z</time>
      </trkpt>
      <trkpt lat="43.683" lon="3.74118">
        <ele>131.7</ele>
        <time>2019-07-07T07:17:06Z</time>
      </trkpt>
      <trkpt lat="43.68308" lon="3.74118">
        <ele>131.6</ele>
        <time>2019-07-07T07:17:07Z</time>
      </trkpt>
      <trkpt lat="43.68312" lon="3.74122">
        <ele>131.4</ele>
        <time>2019-07-07T07:17:08Z</time>
      </trkpt>
      <trkpt lat="43.68318" lon="3.74126">
        <ele>130.9</ele>
        <time>2019-07-07T07:17:09Z</time>
      </trkpt>
      <trkpt lat="43.68322" lon="3.7413">
        <ele>130.6</ele>
        <time>2019-07-07T07:17:10Z</time>
      </trkpt>
      <trkpt lat="43.68327" lon="3.74134">
        <ele>129.9</ele>
        <time>2019-07-07T07:17:11Z</time>
      </trkpt>
      <trkpt lat="43.68334" lon="3.74138">
        <ele>130</ele>
        <time>2019-07-07T07:17:12Z</time>
      </trkpt>
      <trkpt lat="43.6834" lon="3.7414">
        <ele>130.1</ele>
        <time>2019-07-07T07:17:13Z</time>
      </trkpt>
      <trkpt lat="43.68347" lon="3.74146">
        <ele>130.2</ele>
        <time>2019-07-07T07:17:14Z</time>
      </trkpt>
      <trkpt lat="43.68353" lon="3.74146">
        <ele>130.3</ele>
        <time>2019-07-07T07:17:15Z</time>
      </trkpt>
      <trkpt lat="43.68359" lon="3.7415">
        <ele>130.4</ele>
        <time>2019-07-07T07:17:16Z</time>
      </trkpt>
      <trkpt lat="43.68364" lon="3.74156">
        <ele>130.5</ele>
        <time>2019-07-07T07:17:17Z</time>
      </trkpt>
      <trkpt lat="43.68369" lon="3.74157">
        <ele>130.6</ele>
        <time>2019-07-07T07:17:18Z</time>
      </trkpt>
      <trkpt lat="43.68373" lon="3.7416">
        <ele>130.7</ele>
        <time>2019-07-07T07:17:19Z</time>
      </trkpt>
      <trkpt lat="43.68375" lon="3.74164">
        <ele>130.7</ele>
        <time>2019-07-07T07:17:20Z</time>
      </trkpt>
      <trkpt lat="43.68376" lon="3.74169">
        <ele>130.8</ele>
        <time>2019-07-07T07:17:21Z</time>
      </trkpt>
      <trkpt lat="43.68379" lon="3.74185">
        <ele>131</ele>
        <time>2019-07-07T07:17:24Z</time>
      </trkpt>
      <trkpt lat="43.68379" lon="3.7419">
        <ele>131</ele>
        <time>2019-07-07T07:17:25Z</time>
      </trkpt>
      <trkpt lat="43.6838" lon="3.74195">
        <ele>131.1</ele>
        <time>2019-07-07T07:17:26Z</time>
      </trkpt>
      <trkpt lat="43.6838" lon="3.742">
        <ele>131.1</ele>
        <time>2019-07-07T07:17:27Z</time>
      </trkpt>
      <trkpt lat="43.6838" lon="3.74206">
        <ele>131.2</ele>
        <time>2019-07-07T07:17:28Z</time>
      </trkpt>
      <trkpt lat="43.68382" lon="3.74209">
        <ele>131.4</ele>
        <time>2019-07-07T07:17:30Z</time>
      </trkpt>
      <trkpt lat="43.68381" lon="3.74213">
        <ele>131.4</ele>
        <time>2019-07-07T07:17:32Z</time>
      </trkpt>
      <trkpt lat="43.68381" lon="3.7422">
        <ele>131.6</ele>
        <time>2019-07-07T07:17:34Z</time>
      </trkpt>
      <trkpt lat="43.68381" lon="3.74226">
        <ele>131.8</ele>
        <time>2019-07-07T07:17:36Z</time>
      </trkpt>
      <trkpt lat="43.68381" lon="3.7423">
        <ele>132</ele>
        <time>2019-07-07T07:17:37Z</time>
      </trkpt>
      <trkpt lat="43.68382" lon="3.74237">
        <ele>132.1</ele>
        <time>2019-07-07T07:17:39Z</time>
      </trkpt>
      <trkpt lat="43.68383" lon="3.74241">
        <ele>132.2</ele>
        <time>2019-07-07T07:17:40Z</time>
      </trkpt>
      <trkpt lat="43.68385" lon="3.74246">
        <ele>132.3</ele>
        <time>2019-07-07T07:17:42Z</time>
      </trkpt>
      <trkpt lat="43.68385" lon="3.7425">
        <ele>132.4</ele>
        <time>2019-07-07T07:17:43Z</time>
      </trkpt>
      <trkpt lat="43.68386" lon="3.74254">
        <ele>132.5</ele>
        <time>2019-07-07T07:17:44Z</time>
      </trkpt>
      <trkpt lat="43.68386" lon="3.74261">
        <ele>132.7</ele>
        <time>2019-07-07T07:17:46Z</time>
      </trkpt>
      <trkpt lat="43.68387" lon="3.74267">
        <ele>132.8</ele>
        <time>2019-07-07T07:17:48Z</time>
      </trkpt>
      <trkpt lat="43.68388" lon="3.74273">
        <ele>133.1</ele>
        <time>2019-07-07T07:17:50Z</time>
      </trkpt>
      <trkpt lat="43.68388" lon="3.7428">
        <ele>133.5</ele>
        <time>2019-07-07T07:17:52Z</time>
      </trkpt>
      <trkpt lat="43.68387" lon="3.74285">
        <ele>133.7</ele>
        <time>2019-07-07T07:17:53Z</time>
      </trkpt>
      <trkpt lat="43.68387" lon="3.74288">
        <ele>133.9</ele>
        <time>2019-07-07T07:17:54Z</time>
      </trkpt>
      <trkpt lat="43.68387" lon="3.74294">
        <ele>134.1</ele>
        <time>2019-07-07T07:17:56Z</time>
      </trkpt>
      <trkpt lat="43.68387" lon="3.74299">
        <ele>134.2</ele>
        <time>2019-07-07T07:17:57Z</time>
      </trkpt>
      <trkpt lat="43.68387" lon="3.74303">
        <ele>134.3</ele>
        <time>2019-07-07T07:17:58Z</time>
      </trkpt>
      <trkpt lat="43.68387" lon="3.74308">
        <ele>134.5</ele>
        <time>2019-07-07T07:17:59Z</time>
      </trkpt>
      <trkpt lat="43.68386" lon="3.74312">
        <ele>134.6</ele>
        <time>2019-07-07T07:18:00Z</time>
      </trkpt>
      <trkpt lat="43.68386" lon="3.74316">
        <ele>134.7</ele>
        <time>2019-07-07T07:18:01Z</time>
      </trkpt>
      <trkpt lat="43.68387" lon="3.74322">
        <ele>134.9</ele>
        <time>2019-07-07T07:18:02Z</time>
      </trkpt>
      <trkpt lat="43.68388" lon="3.74327">
        <ele>135.1</ele>
        <time>2019-07-07T07:18:03Z</time>
      </trkpt>
      <trkpt lat="43.68389" lon="3.74332">
        <ele>135.4</ele>
        <time>2019-07-07T07:18:05Z</time>
      </trkpt>
      <trkpt lat="43.6839" lon="3.74338">
        <ele>135.6</ele>
        <time>2019-07-07T07:18:07Z</time>
      </trkpt>
      <trkpt lat="43.68391" lon="3.74342">
        <ele>135.8</ele>
        <time>2019-07-07T07:18:08Z</time>
      </trkpt>
      <trkpt lat="43.68393" lon="3.74346">
        <ele>135.9</ele>
        <time>2019-07-07T07:18:09Z</time>
      </trkpt>
      <trkpt lat="43.68396" lon="3.74353">
        <ele>136.1</ele>
        <time>2019-07-07T07:18:11Z</time>
      </trkpt>
      <trkpt lat="43.68398" lon="3.74358">
        <ele>136.3</ele>
        <time>2019-07-07T07:18:13Z</time>
      </trkpt>
      <trkpt lat="43.68401" lon="3.74364">
        <ele>136.4</ele>
        <time>2019-07-07T07:18:15Z</time>
      </trkpt>
      <trkpt lat="43.68402" lon="3.74368">
        <ele>136.5</ele>
        <time>2019-07-07T07:18:16Z</time>
      </trkpt>
      <trkpt lat="43.68403" lon="3.74373">
        <ele>136.6</ele>
        <time>2019-07-07T07:18:18Z</time>
      </trkpt>
      <trkpt lat="43.68402" lon="3.74378">
        <ele>136.7</ele>
        <time>2019-07-07T07:18:20Z</time>
      </trkpt>
      <trkpt lat="43.68405" lon="3.74387">
        <ele>136.9</ele>
        <time>2019-07-07T07:18:22Z</time>
      </trkpt>
      <trkpt lat="43.68407" lon="3.74393">
        <ele>136.9</ele>
        <time>2019-07-07T07:18:23Z</time>
      </trkpt>
      <trkpt lat="43.68409" lon="3.74398">
        <ele>136.9</ele>
        <time>2019-07-07T07:18:24Z</time>
      </trkpt>
      <trkpt lat="43.68411" lon="3.74405">
        <ele>136.9</ele>
        <time>2019-07-07T07:18:25Z</time>
      </trkpt>
      <trkpt lat="43.68414" lon="3.74412">
        <ele>136.9</ele>
        <time>2019-07-07T07:18:26Z</time>
      </trkpt>
      <trkpt lat="43.68416" lon="3.7442">
        <ele>136.9</ele>
        <time>2019-07-07T07:18:27Z</time>
      </trkpt>
      <trkpt lat="43.6842" lon="3.74428">
        <ele>136.9</ele>
        <time>2019-07-07T07:18:28Z</time>
      </trkpt>
      <trkpt lat="43.68424" lon="3.74434">
        <ele>136.7</ele>
        <time>2019-07-07T07:18:29Z</time>
      </trkpt>
      <trkpt lat="43.68428" lon="3.74441">
        <ele>136.6</ele>
        <time>2019-07-07T07:18:30Z</time>
      </trkpt>
      <trkpt lat="43.68435" lon="3.74444">
        <ele>136.6</ele>
        <time>2019-07-07T07:18:31Z</time>
      </trkpt>
      <trkpt lat="43.68439" lon="3.74449">
        <ele>136.6</ele>
        <time>2019-07-07T07:18:32Z</time>
      </trkpt>
      <trkpt lat="43.68443" lon="3.74452">
        <ele>136.8</ele>
        <time>2019-07-07T07:18:33Z</time>
      </trkpt>
      <trkpt lat="43.68447" lon="3.74455">
        <ele>136.9</ele>
        <time>2019-07-07T07:18:34Z</time>
      </trkpt>
      <trkpt lat="43.68449" lon="3.74457">
        <ele>137</ele>
        <time>2019-07-07T07:18:35Z</time>
      </trkpt>
      <trkpt lat="43.68452" lon="3.7446">
        <ele>137.2</ele>
        <time>2019-07-07T07:18:36Z</time>
      </trkpt>
      <trkpt lat="43.68455" lon="3.74463">
        <ele>137.3</ele>
        <time>2019-07-07T07:18:37Z</time>
      </trkpt>
      <trkpt lat="43.68458" lon="3.74466">
        <ele>137.5</ele>
        <time>2019-07-07T07:18:38Z</time>
      </trkpt>
      <trkpt lat="43.6846" lon="3.74469">
        <ele>137.6</ele>
        <time>2019-07-07T07:18:39Z</time>
      </trkpt>
      <trkpt lat="43.68462" lon="3.74474">
        <ele>137.8</ele>
        <time>2019-07-07T07:18:41Z</time>
      </trkpt>
      <trkpt lat="43.68466" lon="3.74477">
        <ele>138.1</ele>
        <time>2019-07-07T07:18:43Z</time>
      </trkpt>
      <trkpt lat="43.68467" lon="3.74482">
        <ele>138.4</ele>
        <time>2019-07-07T07:18:44Z</time>
      </trkpt>
      <trkpt lat="43.68469" lon="3.74485">
        <ele>138.6</ele>
        <time>2019-07-07T07:18:45Z</time>
      </trkpt>
      <trkpt lat="43.6847" lon="3.74489">
        <ele>138.9</ele>
        <time>2019-07-07T07:18:46Z</time>
      </trkpt>
      <trkpt lat="43.68473" lon="3.74496">
        <ele>139.3</ele>
        <time>2019-07-07T07:18:48Z</time>
      </trkpt>
      <trkpt lat="43.68475" lon="3.74503">
        <ele>139.9</ele>
        <time>2019-07-07T07:18:50Z</time>
      </trkpt>
      <trkpt lat="43.68476" lon="3.74508">
        <ele>140.2</ele>
        <time>2019-07-07T07:18:51Z</time>
      </trkpt>
      <trkpt lat="43.68478" lon="3.74514">
        <ele>140.7</ele>
        <time>2019-07-07T07:18:53Z</time>
      </trkpt>
      <trkpt lat="43.6848" lon="3.74517">
        <ele>141</ele>
        <time>2019-07-07T07:18:55Z</time>
      </trkpt>
      <trkpt lat="43.68482" lon="3.74522">
        <ele>141.3</ele>
        <time>2019-07-07T07:18:57Z</time>
      </trkpt>
      <trkpt lat="43.68484" lon="3.74527">
        <ele>141.6</ele>
        <time>2019-07-07T07:18:59Z</time>
      </trkpt>
      <trkpt lat="43.68486" lon="3.74532">
        <ele>141.9</ele>
        <time>2019-07-07T07:19:01Z</time>
      </trkpt>
      <trkpt lat="43.68488" lon="3.74536">
        <ele>142.2</ele>
        <time>2019-07-07T07:19:03Z</time>
      </trkpt>
      <trkpt lat="43.6849" lon="3.7454">
        <ele>142.5</ele>
        <time>2019-07-07T07:19:05Z</time>
      </trkpt>
      <trkpt lat="43.68492" lon="3.74546">
        <ele>143.1</ele>
        <time>2019-07-07T07:19:06Z</time>
      </trkpt>
      <trkpt lat="43.68494" lon="3.74548">
        <ele>143.6</ele>
        <time>2019-07-07T07:19:08Z</time>
      </trkpt>
      <trkpt lat="43.68496" lon="3.74553">
        <ele>144.2</ele>
        <time>2019-07-07T07:19:10Z</time>
      </trkpt>
      <trkpt lat="43.68498" lon="3.74559">
        <ele>144.7</ele>
        <time>2019-07-07T07:19:12Z</time>
      </trkpt>
      <trkpt lat="43.685" lon="3.74562">
        <ele>145.2</ele>
        <time>2019-07-07T07:19:14Z</time>
      </trkpt>
      <trkpt lat="43.68501" lon="3.74567">
        <ele>145.6</ele>
        <time>2019-07-07T07:19:16Z</time>
      </trkpt>
      <trkpt lat="43.68503" lon="3.74572">
        <ele>146</ele>
        <time>2019-07-07T07:19:18Z</time>
      </trkpt>
      <trkpt lat="43.68503" lon="3.74578">
        <ele>146.5</ele>
        <time>2019-07-07T07:19:20Z</time>
      </trkpt>
      <trkpt lat="43.68506" lon="3.74582">
        <ele>146.9</ele>
        <time>2019-07-07T07:19:23Z</time>
      </trkpt>
      <trkpt lat="43.68507" lon="3.74586">
        <ele>147.3</ele>
        <time>2019-07-07T07:19:25Z</time>
      </trkpt>
      <trkpt lat="43.68509" lon="3.74591">
        <ele>147.6</ele>
        <time>2019-07-07T07:19:27Z</time>
      </trkpt>
      <trkpt lat="43.68509" lon="3.74595">
        <ele>147.8</ele>
        <time>2019-07-07T07:19:28Z</time>
      </trkpt>
      <trkpt lat="43.68511" lon="3.74599">
        <ele>148.1</ele>
        <time>2019-07-07T07:19:30Z</time>
      </trkpt>
      <trkpt lat="43.68513" lon="3.74602">
        <ele>148.3</ele>
        <time>2019-07-07T07:19:32Z</time>
      </trkpt>
      <trkpt lat="43.68513" lon="3.74606">
        <ele>148.6</ele>
        <time>2019-07-07T07:19:33Z</time>
      </trkpt>
      <trkpt lat="43.68512" lon="3.74611">
        <ele>148.8</ele>
        <time>2019-07-07T07:19:34Z</time>
      </trkpt>
      <trkpt lat="43.68514" lon="3.74616">
        <ele>149.1</ele>
        <time>2019-07-07T07:19:36Z</time>
      </trkpt>
      <trkpt lat="43.68515" lon="3.7462">
        <ele>149.3</ele>
        <time>2019-07-07T07:19:38Z</time>
      </trkpt>
      <trkpt lat="43.68517" lon="3.74624">
        <ele>149.5</ele>
        <time>2019-07-07T07:19:40Z</time>
      </trkpt>
      <trkpt lat="43.6852" lon="3.74628">
        <ele>149.8</ele>
        <time>2019-07-07T07:19:42Z</time>
      </trkpt>
      <trkpt lat="43.68522" lon="3.74633">
        <ele>150.1</ele>
        <time>2019-07-07T07:19:45Z</time>
      </trkpt>
      <trkpt lat="43.68527" lon="3.74637">
        <ele>150.4</ele>
        <time>2019-07-07T07:19:48Z</time>
      </trkpt>
      <trkpt lat="43.68527" lon="3.74644">
        <ele>150.7</ele>
        <time>2019-07-07T07:19:50Z</time>
      </trkpt>
      <trkpt lat="43.68531" lon="3.74648">
        <ele>151.1</ele>
        <time>2019-07-07T07:19:52Z</time>
      </trkpt>
      <trkpt lat="43.68531" lon="3.74654">
        <ele>151.5</ele>
        <time>2019-07-07T07:19:53Z</time>
      </trkpt>
      <trkpt lat="43.68535" lon="3.7466">
        <ele>152</ele>
        <time>2019-07-07T07:19:55Z</time>
      </trkpt>
      <trkpt lat="43.68537" lon="3.74664">
        <ele>152.3</ele>
        <time>2019-07-07T07:19:57Z</time>
      </trkpt>
      <trkpt lat="43.6854" lon="3.74667">
        <ele>152.8</ele>
        <time>2019-07-07T07:19:59Z</time>
      </trkpt>
      <trkpt lat="43.68542" lon="3.74671">
        <ele>153.1</ele>
        <time>2019-07-07T07:20:00Z</time>
      </trkpt>
      <trkpt lat="43.68545" lon="3.74675">
        <ele>154.3</ele>
        <time>2019-07-07T07:20:02Z</time>
      </trkpt>
      <trkpt lat="43.68548" lon="3.74678">
        <ele>154.4</ele>
        <time>2019-07-07T07:20:04Z</time>
      </trkpt>
      <trkpt lat="43.68553" lon="3.74678">
        <ele>154.5</ele>
        <time>2019-07-07T07:20:06Z</time>
      </trkpt>
      <trkpt lat="43.68556" lon="3.74679">
        <ele>154.6</ele>
        <time>2019-07-07T07:20:07Z</time>
      </trkpt>
      <trkpt lat="43.6856" lon="3.74678">
        <ele>155.5</ele>
        <time>2019-07-07T07:20:09Z</time>
      </trkpt>
      <trkpt lat="43.68563" lon="3.74678">
        <ele>155.7</ele>
        <time>2019-07-07T07:20:10Z</time>
      </trkpt>
      <trkpt lat="43.6857" lon="3.7467">
        <ele>156.2</ele>
        <time>2019-07-07T07:20:14Z</time>
      </trkpt>
      <trkpt lat="43.68574" lon="3.74668">
        <ele>156.6</ele>
        <time>2019-07-07T07:20:17Z</time>
      </trkpt>
      <trkpt lat="43.68577" lon="3.74663">
        <ele>156.9</ele>
        <time>2019-07-07T07:20:19Z</time>
      </trkpt>
      <trkpt lat="43.68579" lon="3.74661">
        <ele>157.2</ele>
        <time>2019-07-07T07:20:20Z</time>
      </trkpt>
      <trkpt lat="43.68582" lon="3.74663">
        <ele>157.5</ele>
        <time>2019-07-07T07:20:21Z</time>
      </trkpt>
      <trkpt lat="43.68586" lon="3.74662">
        <ele>157.8</ele>
        <time>2019-07-07T07:20:22Z</time>
      </trkpt>
      <trkpt lat="43.68589" lon="3.74664">
        <ele>158.1</ele>
        <time>2019-07-07T07:20:24Z</time>
      </trkpt>
      <trkpt lat="43.68593" lon="3.74666">
        <ele>158.4</ele>
        <time>2019-07-07T07:20:26Z</time>
      </trkpt>
      <trkpt lat="43.68596" lon="3.74669">
        <ele>158.7</ele>
        <time>2019-07-07T07:20:27Z</time>
      </trkpt>
      <trkpt lat="43.68598" lon="3.7467">
        <ele>159</ele>
        <time>2019-07-07T07:20:28Z</time>
      </trkpt>
      <trkpt lat="43.68602" lon="3.7467">
        <ele>159.3</ele>
        <time>2019-07-07T07:20:29Z</time>
      </trkpt>
      <trkpt lat="43.68606" lon="3.74671">
        <ele>159.7</ele>
        <time>2019-07-07T07:20:32Z</time>
      </trkpt>
      <trkpt lat="43.68609" lon="3.74673">
        <ele>160</ele>
        <time>2019-07-07T07:20:34Z</time>
      </trkpt>
      <trkpt lat="43.68612" lon="3.74673">
        <ele>160.2</ele>
        <time>2019-07-07T07:20:35Z</time>
      </trkpt>
      <trkpt lat="43.68614" lon="3.74675">
        <ele>160.4</ele>
        <time>2019-07-07T07:20:37Z</time>
      </trkpt>
      <trkpt lat="43.68619" lon="3.74677">
        <ele>160.7</ele>
        <time>2019-07-07T07:20:39Z</time>
      </trkpt>
      <trkpt lat="43.68623" lon="3.74678">
        <ele>161</ele>
        <time>2019-07-07T07:20:42Z</time>
      </trkpt>
      <trkpt lat="43.68626" lon="3.7468">
        <ele>161.2</ele>
        <time>2019-07-07T07:20:44Z</time>
      </trkpt>
      <trkpt lat="43.6863" lon="3.74681">
        <ele>161.5</ele>
        <time>2019-07-07T07:20:45Z</time>
      </trkpt>
      <trkpt lat="43.68633" lon="3.74683">
        <ele>161.7</ele>
        <time>2019-07-07T07:20:46Z</time>
      </trkpt>
      <trkpt lat="43.68638" lon="3.74684">
        <ele>162.1</ele>
        <time>2019-07-07T07:20:48Z</time>
      </trkpt>
      <trkpt lat="43.68643" lon="3.74686">
        <ele>162.4</ele>
        <time>2019-07-07T07:20:50Z</time>
      </trkpt>
      <trkpt lat="43.68646" lon="3.74686">
        <ele>162.6</ele>
        <time>2019-07-07T07:20:53Z</time>
      </trkpt>
      <trkpt lat="43.68651" lon="3.74685">
        <ele>163</ele>
        <time>2019-07-07T07:20:55Z</time>
      </trkpt>
      <trkpt lat="43.68657" lon="3.74686">
        <ele>163.4</ele>
        <time>2019-07-07T07:20:57Z</time>
      </trkpt>
      <trkpt lat="43.6866" lon="3.74688">
        <ele>163.6</ele>
        <time>2019-07-07T07:20:58Z</time>
      </trkpt>
      <trkpt lat="43.68666" lon="3.74693">
        <ele>164.3</ele>
        <time>2019-07-07T07:21:01Z</time>
      </trkpt>
      <trkpt lat="43.6867" lon="3.74695">
        <ele>164.7</ele>
        <time>2019-07-07T07:21:03Z</time>
      </trkpt>
      <trkpt lat="43.68674" lon="3.74697">
        <ele>165</ele>
        <time>2019-07-07T07:21:05Z</time>
      </trkpt>
      <trkpt lat="43.68678" lon="3.74699">
        <ele>165.3</ele>
        <time>2019-07-07T07:21:06Z</time>
      </trkpt>
      <trkpt lat="43.68682" lon="3.74701">
        <ele>165.6</ele>
        <time>2019-07-07T07:21:08Z</time>
      </trkpt>
      <trkpt lat="43.68685" lon="3.74702">
        <ele>165.8</ele>
        <time>2019-07-07T07:21:09Z</time>
      </trkpt>
      <trkpt lat="43.68689" lon="3.74704">
        <ele>166.1</ele>
        <time>2019-07-07T07:21:10Z</time>
      </trkpt>
      <trkpt lat="43.68693" lon="3.74703">
        <ele>166.4</ele>
        <time>2019-07-07T07:21:11Z</time>
      </trkpt>
      <trkpt lat="43.68697" lon="3.74704">
        <ele>166.9</ele>
        <time>2019-07-07T07:21:13Z</time>
      </trkpt>
      <trkpt lat="43.687" lon="3.74706">
        <ele>167.2</ele>
        <time>2019-07-07T07:21:15Z</time>
      </trkpt>
      <trkpt lat="43.68703" lon="3.74707">
        <ele>167.5</ele>
        <time>2019-07-07T07:21:17Z</time>
      </trkpt>
      <trkpt lat="43.68706" lon="3.7471">
        <ele>167.8</ele>
        <time>2019-07-07T07:21:19Z</time>
      </trkpt>
      <trkpt lat="43.68703" lon="3.74714">
        <ele>168.1</ele>
        <time>2019-07-07T07:21:22Z</time>
      </trkpt>
      <trkpt lat="43.68701" lon="3.7472">
        <ele>169.4</ele>
        <time>2019-07-07T07:21:24Z</time>
      </trkpt>
      <trkpt lat="43.68701" lon="3.74727">
        <ele>169.8</ele>
        <time>2019-07-07T07:21:25Z</time>
      </trkpt>
      <trkpt lat="43.68697" lon="3.74732">
        <ele>170.2</ele>
        <time>2019-07-07T07:21:26Z</time>
      </trkpt>
      <trkpt lat="43.68694" lon="3.74739">
        <ele>170.3</ele>
        <time>2019-07-07T07:21:27Z</time>
      </trkpt>
      <trkpt lat="43.68692" lon="3.74747">
        <ele>170.2</ele>
        <time>2019-07-07T07:21:28Z</time>
      </trkpt>
      <trkpt lat="43.68688" lon="3.74757">
        <ele>169.9</ele>
        <time>2019-07-07T07:21:29Z</time>
      </trkpt>
      <trkpt lat="43.68684" lon="3.74767">
        <ele>169.5</ele>
        <time>2019-07-07T07:21:30Z</time>
      </trkpt>
      <trkpt lat="43.68681" lon="3.74777">
        <ele>169.1</ele>
        <time>2019-07-07T07:21:31Z</time>
      </trkpt>
      <trkpt lat="43.68678" lon="3.74787">
        <ele>168.6</ele>
        <time>2019-07-07T07:21:32Z</time>
      </trkpt>
      <trkpt lat="43.68668" lon="3.74795">
        <ele>167.9</ele>
        <time>2019-07-07T07:21:33Z</time>
      </trkpt>
      <trkpt lat="43.68663" lon="3.74804">
        <ele>167.3</ele>
        <time>2019-07-07T07:21:34Z</time>
      </trkpt>
      <trkpt lat="43.68657" lon="3.74811">
        <ele>166.8</ele>
        <time>2019-07-07T07:21:35Z</time>
      </trkpt>
      <trkpt lat="43.68651" lon="3.74818">
        <ele>166.5</ele>
        <time>2019-07-07T07:21:36Z</time>
      </trkpt>
      <trkpt lat="43.68646" lon="3.74823">
        <ele>166.2</ele>
        <time>2019-07-07T07:21:37Z</time>
      </trkpt>
      <trkpt lat="43.68642" lon="3.74827">
        <ele>166.1</ele>
        <time>2019-07-07T07:21:38Z</time>
      </trkpt>
      <trkpt lat="43.68642" lon="3.74832">
        <ele>165.9</ele>
        <time>2019-07-07T07:21:42Z</time>
      </trkpt>
      <trkpt lat="43.68641" lon="3.74836">
        <ele>165.8</ele>
        <time>2019-07-07T07:21:46Z</time>
      </trkpt>
      <trkpt lat="43.6864" lon="3.74842">
        <ele>165.6</ele>
        <time>2019-07-07T07:21:49Z</time>
      </trkpt>
      <trkpt lat="43.68637" lon="3.74845">
        <ele>165.4</ele>
        <time>2019-07-07T07:21:50Z</time>
      </trkpt>
      <trkpt lat="43.68633" lon="3.74847">
        <ele>165.3</ele>
        <time>2019-07-07T07:21:51Z</time>
      </trkpt>
      <trkpt lat="43.68629" lon="3.74851">
        <ele>165.1</ele>
        <time>2019-07-07T07:21:52Z</time>
      </trkpt>
      <trkpt lat="43.68626" lon="3.74855">
        <ele>165</ele>
        <time>2019-07-07T07:21:53Z</time>
      </trkpt>
      <trkpt lat="43.68622" lon="3.74859">
        <ele>165</ele>
        <time>2019-07-07T07:21:54Z</time>
      </trkpt>
      <trkpt lat="43.68617" lon="3.74862">
        <ele>165.1</ele>
        <time>2019-07-07T07:21:55Z</time>
      </trkpt>
      <trkpt lat="43.68613" lon="3.74866">
        <ele>165.3</ele>
        <time>2019-07-07T07:21:56Z</time>
      </trkpt>
      <trkpt lat="43.6861" lon="3.74868">
        <ele>165.4</ele>
        <time>2019-07-07T07:21:57Z</time>
      </trkpt>
      <trkpt lat="43.68608" lon="3.74871">
        <ele>165.6</ele>
        <time>2019-07-07T07:21:58Z</time>
      </trkpt>
      <trkpt lat="43.68606" lon="3.74876">
        <ele>165.8</ele>
        <time>2019-07-07T07:22:00Z</time>
      </trkpt>
      <trkpt lat="43.68602" lon="3.74881">
        <ele>166.1</ele>
        <time>2019-07-07T07:22:02Z</time>
      </trkpt>
      <trkpt lat="43.68599" lon="3.74884">
        <ele>166.3</ele>
        <time>2019-07-07T07:22:04Z</time>
      </trkpt>
      <trkpt lat="43.68596" lon="3.74887">
        <ele>166.5</ele>
        <time>2019-07-07T07:22:06Z</time>
      </trkpt>
      <trkpt lat="43.68594" lon="3.7489">
        <ele>166.6</ele>
        <time>2019-07-07T07:22:08Z</time>
      </trkpt>
      <trkpt lat="43.68593" lon="3.74895">
        <ele>166.8</ele>
        <time>2019-07-07T07:22:10Z</time>
      </trkpt>
      <trkpt lat="43.68591" lon="3.74899">
        <ele>166.9</ele>
        <time>2019-07-07T07:22:11Z</time>
      </trkpt>
      <trkpt lat="43.6859" lon="3.74903">
        <ele>167</ele>
        <time>2019-07-07T07:22:12Z</time>
      </trkpt>
      <trkpt lat="43.68589" lon="3.74909">
        <ele>167.1</ele>
        <time>2019-07-07T07:22:14Z</time>
      </trkpt>
      <trkpt lat="43.68589" lon="3.74912">
        <ele>167.2</ele>
        <time>2019-07-07T07:22:15Z</time>
      </trkpt>
      <trkpt lat="43.68591" lon="3.74919">
        <ele>167.7</ele>
        <time>2019-07-07T07:22:17Z</time>
      </trkpt>
      <trkpt lat="43.68592" lon="3.74923">
        <ele>167.9</ele>
        <time>2019-07-07T07:22:18Z</time>
      </trkpt>
      <trkpt lat="43.68593" lon="3.74927">
        <ele>168.2</ele>
        <time>2019-07-07T07:22:19Z</time>
      </trkpt>
      <trkpt lat="43.68594" lon="3.74931">
        <ele>168.4</ele>
        <time>2019-07-07T07:22:20Z</time>
      </trkpt>
      <trkpt lat="43.68595" lon="3.74935">
        <ele>168.6</ele>
        <time>2019-07-07T07:22:21Z</time>
      </trkpt>
      <trkpt lat="43.68597" lon="3.74941">
        <ele>169</ele>
        <time>2019-07-07T07:22:23Z</time>
      </trkpt>
      <trkpt lat="43.68601" lon="3.74946">
        <ele>169.4</ele>
        <time>2019-07-07T07:22:25Z</time>
      </trkpt>
      <trkpt lat="43.68603" lon="3.74949">
        <ele>169.6</ele>
        <time>2019-07-07T07:22:26Z</time>
      </trkpt>
      <trkpt lat="43.68604" lon="3.74953">
        <ele>169.8</ele>
        <time>2019-07-07T07:22:27Z</time>
      </trkpt>
      <trkpt lat="43.68606" lon="3.7496">
        <ele>170.2</ele>
        <time>2019-07-07T07:22:29Z</time>
      </trkpt>
      <trkpt lat="43.6861" lon="3.74965">
        <ele>170.5</ele>
        <time>2019-07-07T07:22:31Z</time>
      </trkpt>
      <trkpt lat="43.68613" lon="3.74971">
        <ele>170.8</ele>
        <time>2019-07-07T07:22:33Z</time>
      </trkpt>
      <trkpt lat="43.68614" lon="3.74975">
        <ele>171</ele>
        <time>2019-07-07T07:22:34Z</time>
      </trkpt>
      <trkpt lat="43.68616" lon="3.74981">
        <ele>171.3</ele>
        <time>2019-07-07T07:22:36Z</time>
      </trkpt>
      <trkpt lat="43.68619" lon="3.74985">
        <ele>171.6</ele>
        <time>2019-07-07T07:22:38Z</time>
      </trkpt>
      <trkpt lat="43.68621" lon="3.74991">
        <ele>171.9</ele>
        <time>2019-07-07T07:22:40Z</time>
      </trkpt>
      <trkpt lat="43.6862" lon="3.74996">
        <ele>172.2</ele>
        <time>2019-07-07T07:22:42Z</time>
      </trkpt>
      <trkpt lat="43.68621" lon="3.75">
        <ele>172.4</ele>
        <time>2019-07-07T07:22:43Z</time>
      </trkpt>
      <trkpt lat="43.68623" lon="3.75006">
        <ele>172.7</ele>
        <time>2019-07-07T07:22:45Z</time>
      </trkpt>
      <trkpt lat="43.68625" lon="3.75012">
        <ele>173.1</ele>
        <time>2019-07-07T07:22:47Z</time>
      </trkpt>
      <trkpt lat="43.68626" lon="3.75015">
        <ele>173.3</ele>
        <time>2019-07-07T07:22:48Z</time>
      </trkpt>
      <trkpt lat="43.68628" lon="3.75022">
        <ele>173.7</ele>
        <time>2019-07-07T07:22:50Z</time>
      </trkpt>
      <trkpt lat="43.68629" lon="3.75026">
        <ele>174</ele>
        <time>2019-07-07T07:22:51Z</time>
      </trkpt>
      <trkpt lat="43.6863" lon="3.75031">
        <ele>174.3</ele>
        <time>2019-07-07T07:22:53Z</time>
      </trkpt>
      <trkpt lat="43.68631" lon="3.75037">
        <ele>174.6</ele>
        <time>2019-07-07T07:22:55Z</time>
      </trkpt>
      <trkpt lat="43.68634" lon="3.75043">
        <ele>175</ele>
        <time>2019-07-07T07:22:57Z</time>
      </trkpt>
      <trkpt lat="43.68636" lon="3.75049">
        <ele>175.3</ele>
        <time>2019-07-07T07:22:59Z</time>
      </trkpt>
      <trkpt lat="43.68636" lon="3.75054">
        <ele>175.5</ele>
        <time>2019-07-07T07:23:01Z</time>
      </trkpt>
      <trkpt lat="43.68637" lon="3.75062">
        <ele>176</ele>
        <time>2019-07-07T07:23:03Z</time>
      </trkpt>
      <trkpt lat="43.68637" lon="3.75067">
        <ele>176.2</ele>
        <time>2019-07-07T07:23:05Z</time>
      </trkpt>
      <trkpt lat="43.68638" lon="3.75072">
        <ele>176.5</ele>
        <time>2019-07-07T07:23:07Z</time>
      </trkpt>
      <trkpt lat="43.68638" lon="3.75076">
        <ele>176.7</ele>
        <time>2019-07-07T07:23:10Z</time>
      </trkpt>
      <trkpt lat="43.68637" lon="3.75082">
        <ele>177</ele>
        <time>2019-07-07T07:23:12Z</time>
      </trkpt>
      <trkpt lat="43.68633" lon="3.75086">
        <ele>177.3</ele>
        <time>2019-07-07T07:23:14Z</time>
      </trkpt>
      <trkpt lat="43.68631" lon="3.75091">
        <ele>177.5</ele>
        <time>2019-07-07T07:23:16Z</time>
      </trkpt>
      <trkpt lat="43.68628" lon="3.75096">
        <ele>177.8</ele>
        <time>2019-07-07T07:23:18Z</time>
      </trkpt>
      <trkpt lat="43.68624" lon="3.75098">
        <ele>178.1</ele>
        <time>2019-07-07T07:23:20Z</time>
      </trkpt>
      <trkpt lat="43.68623" lon="3.75103">
        <ele>178.4</ele>
        <time>2019-07-07T07:23:22Z</time>
      </trkpt>
      <trkpt lat="43.68623" lon="3.75108">
        <ele>178.6</ele>
        <time>2019-07-07T07:23:24Z</time>
      </trkpt>
      <trkpt lat="43.68621" lon="3.75111">
        <ele>179</ele>
        <time>2019-07-07T07:23:26Z</time>
      </trkpt>
      <trkpt lat="43.68623" lon="3.75115">
        <ele>179.1</ele>
        <time>2019-07-07T07:23:28Z</time>
      </trkpt>
      <trkpt lat="43.68626" lon="3.75115">
        <ele>179.3</ele>
        <time>2019-07-07T07:23:30Z</time>
      </trkpt>
      <trkpt lat="43.68629" lon="3.75115">
        <ele>179.5</ele>
        <time>2019-07-07T07:23:32Z</time>
      </trkpt>
      <trkpt lat="43.68633" lon="3.75116">
        <ele>179.8</ele>
        <time>2019-07-07T07:23:34Z</time>
      </trkpt>
      <trkpt lat="43.68636" lon="3.75117">
        <ele>180</ele>
        <time>2019-07-07T07:23:36Z</time>
      </trkpt>
      <trkpt lat="43.68639" lon="3.75117">
        <ele>180.3</ele>
        <time>2019-07-07T07:23:38Z</time>
      </trkpt>
      <trkpt lat="43.68642" lon="3.75116">
        <ele>180.5</ele>
        <time>2019-07-07T07:23:40Z</time>
      </trkpt>
      <trkpt lat="43.68645" lon="3.75113">
        <ele>180.8</ele>
        <time>2019-07-07T07:23:42Z</time>
      </trkpt>
      <trkpt lat="43.68648" lon="3.75115">
        <ele>181.1</ele>
        <time>2019-07-07T07:23:43Z</time>
      </trkpt>
      <trkpt lat="43.68651" lon="3.75115">
        <ele>181.5</ele>
        <time>2019-07-07T07:23:45Z</time>
      </trkpt>
      <trkpt lat="43.68654" lon="3.75115">
        <ele>181.7</ele>
        <time>2019-07-07T07:23:47Z</time>
      </trkpt>
      <trkpt lat="43.68657" lon="3.75115">
        <ele>182.1</ele>
        <time>2019-07-07T07:23:49Z</time>
      </trkpt>
      <trkpt lat="43.6866" lon="3.75117">
        <ele>182.5</ele>
        <time>2019-07-07T07:23:52Z</time>
      </trkpt>
      <trkpt lat="43.68663" lon="3.75118">
        <ele>182.9</ele>
        <time>2019-07-07T07:23:54Z</time>
      </trkpt>
      <trkpt lat="43.68668" lon="3.7512">
        <ele>183.4</ele>
        <time>2019-07-07T07:23:56Z</time>
      </trkpt>
      <trkpt lat="43.68671" lon="3.75121">
        <ele>183.8</ele>
        <time>2019-07-07T07:23:59Z</time>
      </trkpt>
      <trkpt lat="43.68673" lon="3.75122">
        <ele>184.1</ele>
        <time>2019-07-07T07:24:02Z</time>
      </trkpt>
      <trkpt lat="43.68676" lon="3.7512">
        <ele>184.5</ele>
        <time>2019-07-07T07:24:04Z</time>
      </trkpt>
      <trkpt lat="43.6868" lon="3.7512">
        <ele>185</ele>
        <time>2019-07-07T07:24:06Z</time>
      </trkpt>
      <trkpt lat="43.68684" lon="3.75121">
        <ele>185.7</ele>
        <time>2019-07-07T07:24:08Z</time>
      </trkpt>
      <trkpt lat="43.68688" lon="3.75122">
        <ele>186.2</ele>
        <time>2019-07-07T07:24:10Z</time>
      </trkpt>
      <trkpt lat="43.68691" lon="3.75123">
        <ele>186.7</ele>
        <time>2019-07-07T07:24:13Z</time>
      </trkpt>
      <trkpt lat="43.68695" lon="3.75125">
        <ele>187.2</ele>
        <time>2019-07-07T07:24:16Z</time>
      </trkpt>
      <trkpt lat="43.68698" lon="3.75126">
        <ele>187.6</ele>
        <time>2019-07-07T07:24:18Z</time>
      </trkpt>
      <trkpt lat="43.68701" lon="3.75126">
        <ele>188</ele>
        <time>2019-07-07T07:24:20Z</time>
      </trkpt>
      <trkpt lat="43.68704" lon="3.75128">
        <ele>188.3</ele>
        <time>2019-07-07T07:24:22Z</time>
      </trkpt>
      <trkpt lat="43.68708" lon="3.75131">
        <ele>188.6</ele>
        <time>2019-07-07T07:24:24Z</time>
      </trkpt>
      <trkpt lat="43.68711" lon="3.75132">
        <ele>188.7</ele>
        <time>2019-07-07T07:24:26Z</time>
      </trkpt>
      <trkpt lat="43.68715" lon="3.75134">
        <ele>188.8</ele>
        <time>2019-07-07T07:24:29Z</time>
      </trkpt>
      <trkpt lat="43.68718" lon="3.75138">
        <ele>188.8</ele>
        <time>2019-07-07T07:24:31Z</time>
      </trkpt>
      <trkpt lat="43.68721" lon="3.75141">
        <ele>188.8</ele>
        <time>2019-07-07T07:24:33Z</time>
      </trkpt>
      <trkpt lat="43.68723" lon="3.75144">
        <ele>188.7</ele>
        <time>2019-07-07T07:24:35Z</time>
      </trkpt>
      <trkpt lat="43.68728" lon="3.75148">
        <ele>188.5</ele>
        <time>2019-07-07T07:24:37Z</time>
      </trkpt>
      <trkpt lat="43.68731" lon="3.75153">
        <ele>188.4</ele>
        <time>2019-07-07T07:24:39Z</time>
      </trkpt>
      <trkpt lat="43.68734" lon="3.75155">
        <ele>188.3</ele>
        <time>2019-07-07T07:24:40Z</time>
      </trkpt>
      <trkpt lat="43.68736" lon="3.75157">
        <ele>188.2</ele>
        <time>2019-07-07T07:24:41Z</time>
      </trkpt>
      <trkpt lat="43.6874" lon="3.75159">
        <ele>188.1</ele>
        <time>2019-07-07T07:24:42Z</time>
      </trkpt>
      <trkpt lat="43.68743" lon="3.75163">
        <ele>188</ele>
        <time>2019-07-07T07:24:43Z</time>
      </trkpt>
      <trkpt lat="43.68746" lon="3.75168">
        <ele>188</ele>
        <time>2019-07-07T07:24:44Z</time>
      </trkpt>
      <trkpt lat="43.68748" lon="3.75173">
        <ele>188</ele>
        <time>2019-07-07T07:24:45Z</time>
      </trkpt>
      <trkpt lat="43.68752" lon="3.75175">
        <ele>188</ele>
        <time>2019-07-07T07:24:46Z</time>
      </trkpt>
      <trkpt lat="43.68755" lon="3.75181">
        <ele>188.1</ele>
        <time>2019-07-07T07:24:47Z</time>
      </trkpt>
      <trkpt lat="43.68758" lon="3.75186">
        <ele>188.2</ele>
        <time>2019-07-07T07:24:48Z</time>
      </trkpt>
      <trkpt lat="43.68761" lon="3.7519">
        <ele>188.3</ele>
        <time>2019-07-07T07:24:49Z</time>
      </trkpt>
      <trkpt lat="43.68765" lon="3.75193">
        <ele>188.5</ele>
        <time>2019-07-07T07:24:50Z</time>
      </trkpt>
      <trkpt lat="43.68767" lon="3.75196">
        <ele>188.6</ele>
        <time>2019-07-07T07:24:51Z</time>
      </trkpt>
      <trkpt lat="43.6877" lon="3.752">
        <ele>188.8</ele>
        <time>2019-07-07T07:24:52Z</time>
      </trkpt>
      <trkpt lat="43.68772" lon="3.75203">
        <ele>189</ele>
        <time>2019-07-07T07:24:53Z</time>
      </trkpt>
      <trkpt lat="43.68774" lon="3.75207">
        <ele>189.3</ele>
        <time>2019-07-07T07:24:54Z</time>
      </trkpt>
      <trkpt lat="43.68776" lon="3.7521">
        <ele>189.5</ele>
        <time>2019-07-07T07:24:55Z</time>
      </trkpt>
      <trkpt lat="43.68778" lon="3.75213">
        <ele>189.7</ele>
        <time>2019-07-07T07:24:56Z</time>
      </trkpt>
      <trkpt lat="43.6878" lon="3.75216">
        <ele>190</ele>
        <time>2019-07-07T07:24:57Z</time>
      </trkpt>
      <trkpt lat="43.68783" lon="3.75218">
        <ele>190.3</ele>
        <time>2019-07-07T07:24:58Z</time>
      </trkpt>
      <trkpt lat="43.68787" lon="3.75222">
        <ele>190.7</ele>
        <time>2019-07-07T07:25:00Z</time>
      </trkpt>
      <trkpt lat="43.68791" lon="3.75227">
        <ele>191</ele>
        <time>2019-07-07T07:25:02Z</time>
      </trkpt>
      <trkpt lat="43.68794" lon="3.75232">
        <ele>191.3</ele>
        <time>2019-07-07T07:25:04Z</time>
      </trkpt>
      <trkpt lat="43.68797" lon="3.75237">
        <ele>191.6</ele>
        <time>2019-07-07T07:25:06Z</time>
      </trkpt>
      <trkpt lat="43.68799" lon="3.75239">
        <ele>191.8</ele>
        <time>2019-07-07T07:25:08Z</time>
      </trkpt>
      <trkpt lat="43.68801" lon="3.75242">
        <ele>192</ele>
        <time>2019-07-07T07:25:09Z</time>
      </trkpt>
      <trkpt lat="43.68805" lon="3.75247">
        <ele>192.3</ele>
        <time>2019-07-07T07:25:11Z</time>
      </trkpt>
      <trkpt lat="43.68807" lon="3.75252">
        <ele>192.7</ele>
        <time>2019-07-07T07:25:13Z</time>
      </trkpt>
      <trkpt lat="43.68811" lon="3.75253">
        <ele>193</ele>
        <time>2019-07-07T07:25:14Z</time>
      </trkpt>
      <trkpt lat="43.68815" lon="3.75256">
        <ele>193.4</ele>
        <time>2019-07-07T07:25:16Z</time>
      </trkpt>
      <trkpt lat="43.6882" lon="3.75257">
        <ele>193.8</ele>
        <time>2019-07-07T07:25:18Z</time>
      </trkpt>
      <trkpt lat="43.68822" lon="3.7526">
        <ele>194.1</ele>
        <time>2019-07-07T07:25:19Z</time>
      </trkpt>
      <trkpt lat="43.68824" lon="3.75263">
        <ele>194.4</ele>
        <time>2019-07-07T07:25:21Z</time>
      </trkpt>
      <trkpt lat="43.68827" lon="3.75265">
        <ele>194.7</ele>
        <time>2019-07-07T07:25:23Z</time>
      </trkpt>
      <trkpt lat="43.68831" lon="3.75268">
        <ele>195</ele>
        <time>2019-07-07T07:25:25Z</time>
      </trkpt>
      <trkpt lat="43.68832" lon="3.75272">
        <ele>195.3</ele>
        <time>2019-07-07T07:25:27Z</time>
      </trkpt>
      <trkpt lat="43.68835" lon="3.75275">
        <ele>195.6</ele>
        <time>2019-07-07T07:25:29Z</time>
      </trkpt>
      <trkpt lat="43.68839" lon="3.75275">
        <ele>195.9</ele>
        <time>2019-07-07T07:25:31Z</time>
      </trkpt>
      <trkpt lat="43.68843" lon="3.75278">
        <ele>196.3</ele>
        <time>2019-07-07T07:25:33Z</time>
      </trkpt>
      <trkpt lat="43.68845" lon="3.7528">
        <ele>196.5</ele>
        <time>2019-07-07T07:25:34Z</time>
      </trkpt>
      <trkpt lat="43.68847" lon="3.75284">
        <ele>196.9</ele>
        <time>2019-07-07T07:25:36Z</time>
      </trkpt>
      <trkpt lat="43.68851" lon="3.75287">
        <ele>197.2</ele>
        <time>2019-07-07T07:25:38Z</time>
      </trkpt>
      <trkpt lat="43.68853" lon="3.75291">
        <ele>197.5</ele>
        <time>2019-07-07T07:25:40Z</time>
      </trkpt>
      <trkpt lat="43.68855" lon="3.75294">
        <ele>197.7</ele>
        <time>2019-07-07T07:25:42Z</time>
      </trkpt>
      <trkpt lat="43.68858" lon="3.75296">
        <ele>198</ele>
        <time>2019-07-07T07:25:44Z</time>
      </trkpt>
      <trkpt lat="43.6886" lon="3.75301">
        <ele>198.2</ele>
        <time>2019-07-07T07:25:46Z</time>
      </trkpt>
      <trkpt lat="43.68863" lon="3.75305">
        <ele>198.5</ele>
        <time>2019-07-07T07:25:48Z</time>
      </trkpt>
      <trkpt lat="43.68866" lon="3.75308">
        <ele>198.6</ele>
        <time>2019-07-07T07:25:50Z</time>
      </trkpt>
      <trkpt lat="43.68868" lon="3.75313">
        <ele>198.7</ele>
        <time>2019-07-07T07:25:52Z</time>
      </trkpt>
      <trkpt lat="43.6887" lon="3.75318">
        <ele>198.8</ele>
        <time>2019-07-07T07:25:54Z</time>
      </trkpt>
      <trkpt lat="43.68872" lon="3.75321">
        <ele>198.7</ele>
        <time>2019-07-07T07:25:56Z</time>
      </trkpt>
      <trkpt lat="43.68874" lon="3.75325">
        <ele>198.7</ele>
        <time>2019-07-07T07:25:58Z</time>
      </trkpt>
      <trkpt lat="43.68878" lon="3.75328">
        <ele>198.6</ele>
        <time>2019-07-07T07:26:00Z</time>
      </trkpt>
      <trkpt lat="43.68879" lon="3.75332">
        <ele>198.6</ele>
        <time>2019-07-07T07:26:01Z</time>
      </trkpt>
      <trkpt lat="43.68882" lon="3.75338">
        <ele>198.4</ele>
        <time>2019-07-07T07:26:03Z</time>
      </trkpt>
      <trkpt lat="43.68887" lon="3.75341">
        <ele>198.2</ele>
        <time>2019-07-07T07:26:05Z</time>
      </trkpt>
      <trkpt lat="43.6889" lon="3.75343">
        <ele>198.1</ele>
        <time>2019-07-07T07:26:06Z</time>
      </trkpt>
      <trkpt lat="43.68893" lon="3.75346">
        <ele>198</ele>
        <time>2019-07-07T07:26:07Z</time>
      </trkpt>
      <trkpt lat="43.68897" lon="3.75346">
        <ele>197.9</ele>
        <time>2019-07-07T07:26:08Z</time>
      </trkpt>
      <trkpt lat="43.68901" lon="3.75347">
        <ele>197.9</ele>
        <time>2019-07-07T07:26:09Z</time>
      </trkpt>
      <trkpt lat="43.68905" lon="3.75348">
        <ele>197.9</ele>
        <time>2019-07-07T07:26:10Z</time>
      </trkpt>
      <trkpt lat="43.6891" lon="3.75347">
        <ele>198</ele>
        <time>2019-07-07T07:26:11Z</time>
      </trkpt>
      <trkpt lat="43.68914" lon="3.75349">
        <ele>198.1</ele>
        <time>2019-07-07T07:26:12Z</time>
      </trkpt>
      <trkpt lat="43.68918" lon="3.75349">
        <ele>198.3</ele>
        <time>2019-07-07T07:26:13Z</time>
      </trkpt>
      <trkpt lat="43.68921" lon="3.75349">
        <ele>198.4</ele>
        <time>2019-07-07T07:26:14Z</time>
      </trkpt>
      <trkpt lat="43.68924" lon="3.7535">
        <ele>198.6</ele>
        <time>2019-07-07T07:26:15Z</time>
      </trkpt>
      <trkpt lat="43.68928" lon="3.75352">
        <ele>198.8</ele>
        <time>2019-07-07T07:26:16Z</time>
      </trkpt>
      <trkpt lat="43.6893" lon="3.75356">
        <ele>199</ele>
        <time>2019-07-07T07:26:17Z</time>
      </trkpt>
      <trkpt lat="43.68933" lon="3.75358">
        <ele>199.3</ele>
        <time>2019-07-07T07:26:18Z</time>
      </trkpt>
      <trkpt lat="43.68934" lon="3.75363">
        <ele>199.5</ele>
        <time>2019-07-07T07:26:19Z</time>
      </trkpt>
      <trkpt lat="43.68935" lon="3.75366">
        <ele>199.7</ele>
        <time>2019-07-07T07:26:20Z</time>
      </trkpt>
      <trkpt lat="43.68936" lon="3.75369">
        <ele>199.8</ele>
        <time>2019-07-07T07:26:23Z</time>
      </trkpt>
      <trkpt lat="43.68939" lon="3.75374">
        <ele>200</ele>
        <time>2019-07-07T07:26:27Z</time>
      </trkpt>
      <trkpt lat="43.68944" lon="3.75378">
        <ele>200.2</ele>
        <time>2019-07-07T07:26:29Z</time>
      </trkpt>
      <trkpt lat="43.68946" lon="3.75381">
        <ele>200.4</ele>
        <time>2019-07-07T07:26:30Z</time>
      </trkpt>
      <trkpt lat="43.68949" lon="3.75385">
        <ele>200.6</ele>
        <time>2019-07-07T07:26:32Z</time>
      </trkpt>
      <trkpt lat="43.68952" lon="3.75387">
        <ele>200.7</ele>
        <time>2019-07-07T07:26:34Z</time>
      </trkpt>
      <trkpt lat="43.68957" lon="3.75392">
        <ele>201</ele>
        <time>2019-07-07T07:26:36Z</time>
      </trkpt>
      <trkpt lat="43.6896" lon="3.75394">
        <ele>201.2</ele>
        <time>2019-07-07T07:26:37Z</time>
      </trkpt>
      <trkpt lat="43.68962" lon="3.75397">
        <ele>201.4</ele>
        <time>2019-07-07T07:26:38Z</time>
      </trkpt>
      <trkpt lat="43.68965" lon="3.75401">
        <ele>201.6</ele>
        <time>2019-07-07T07:26:40Z</time>
      </trkpt>
      <trkpt lat="43.68969" lon="3.75403">
        <ele>201.9</ele>
        <time>2019-07-07T07:26:42Z</time>
      </trkpt>
      <trkpt lat="43.68974" lon="3.75405">
        <ele>202.2</ele>
        <time>2019-07-07T07:26:44Z</time>
      </trkpt>
      <trkpt lat="43.68977" lon="3.7541">
        <ele>202.5</ele>
        <time>2019-07-07T07:26:46Z</time>
      </trkpt>
      <trkpt lat="43.68979" lon="3.75415">
        <ele>202.7</ele>
        <time>2019-07-07T07:26:48Z</time>
      </trkpt>
      <trkpt lat="43.68982" lon="3.75417">
        <ele>202.9</ele>
        <time>2019-07-07T07:26:49Z</time>
      </trkpt>
      <trkpt lat="43.68985" lon="3.75421">
        <ele>203.1</ele>
        <time>2019-07-07T07:26:51Z</time>
      </trkpt>
      <trkpt lat="43.68988" lon="3.75426">
        <ele>203.4</ele>
        <time>2019-07-07T07:26:54Z</time>
      </trkpt>
      <trkpt lat="43.68991" lon="3.75429">
        <ele>203.6</ele>
        <time>2019-07-07T07:26:56Z</time>
      </trkpt>
      <trkpt lat="43.68995" lon="3.75434">
        <ele>203.9</ele>
        <time>2019-07-07T07:26:58Z</time>
      </trkpt>
      <trkpt lat="43.68999" lon="3.75438">
        <ele>204.1</ele>
        <time>2019-07-07T07:27:00Z</time>
      </trkpt>
      <trkpt lat="43.69001" lon="3.75443">
        <ele>204.4</ele>
        <time>2019-07-07T07:27:02Z</time>
      </trkpt>
      <trkpt lat="43.69006" lon="3.75449">
        <ele>204.8</ele>
        <time>2019-07-07T07:27:04Z</time>
      </trkpt>
      <trkpt lat="43.69009" lon="3.75453">
        <ele>205</ele>
        <time>2019-07-07T07:27:06Z</time>
      </trkpt>
      <trkpt lat="43.69011" lon="3.75457">
        <ele>205.2</ele>
        <time>2019-07-07T07:27:08Z</time>
      </trkpt>
      <trkpt lat="43.69014" lon="3.75458">
        <ele>205.4</ele>
        <time>2019-07-07T07:27:09Z</time>
      </trkpt>
      <trkpt lat="43.69017" lon="3.75463">
        <ele>205.6</ele>
        <time>2019-07-07T07:27:11Z</time>
      </trkpt>
      <trkpt lat="43.69021" lon="3.75467">
        <ele>205.9</ele>
        <time>2019-07-07T07:27:13Z</time>
      </trkpt>
      <trkpt lat="43.69025" lon="3.75472">
        <ele>206.1</ele>
        <time>2019-07-07T07:27:15Z</time>
      </trkpt>
      <trkpt lat="43.69028" lon="3.75472">
        <ele>206.2</ele>
        <time>2019-07-07T07:27:16Z</time>
      </trkpt>
      <trkpt lat="43.69032" lon="3.75473">
        <ele>206.4</ele>
        <time>2019-07-07T07:27:18Z</time>
      </trkpt>
      <trkpt lat="43.69035" lon="3.75476">
        <ele>206.6</ele>
        <time>2019-07-07T07:27:19Z</time>
      </trkpt>
      <trkpt lat="43.69038" lon="3.75477">
        <ele>206.7</ele>
        <time>2019-07-07T07:27:21Z</time>
      </trkpt>
      <trkpt lat="43.69042" lon="3.75476">
        <ele>206.8</ele>
        <time>2019-07-07T07:27:23Z</time>
      </trkpt>
      <trkpt lat="43.69047" lon="3.75476">
        <ele>206.9</ele>
        <time>2019-07-07T07:27:25Z</time>
      </trkpt>
      <trkpt lat="43.6905" lon="3.75475">
        <ele>207</ele>
        <time>2019-07-07T07:27:26Z</time>
      </trkpt>
      <trkpt lat="43.69055" lon="3.75475">
        <ele>207.1</ele>
        <time>2019-07-07T07:27:28Z</time>
      </trkpt>
      <trkpt lat="43.69057" lon="3.75477">
        <ele>207.2</ele>
        <time>2019-07-07T07:27:30Z</time>
      </trkpt>
      <trkpt lat="43.6906" lon="3.75476">
        <ele>207.3</ele>
        <time>2019-07-07T07:27:31Z</time>
      </trkpt>
      <trkpt lat="43.69065" lon="3.75472">
        <ele>207.5</ele>
        <time>2019-07-07T07:27:33Z</time>
      </trkpt>
      <trkpt lat="43.69069" lon="3.7547">
        <ele>207.6</ele>
        <time>2019-07-07T07:27:35Z</time>
      </trkpt>
      <trkpt lat="43.69072" lon="3.75468">
        <ele>207.8</ele>
        <time>2019-07-07T07:27:37Z</time>
      </trkpt>
      <trkpt lat="43.69077" lon="3.75467">
        <ele>208.1</ele>
        <time>2019-07-07T07:27:40Z</time>
      </trkpt>
      <trkpt lat="43.69081" lon="3.75465">
        <ele>208.4</ele>
        <time>2019-07-07T07:27:42Z</time>
      </trkpt>
      <trkpt lat="43.69084" lon="3.75465">
        <ele>208.6</ele>
        <time>2019-07-07T07:27:43Z</time>
      </trkpt>
      <trkpt lat="43.69087" lon="3.75466">
        <ele>208.8</ele>
        <time>2019-07-07T07:27:45Z</time>
      </trkpt>
      <trkpt lat="43.69092" lon="3.75466">
        <ele>209.2</ele>
        <time>2019-07-07T07:27:47Z</time>
      </trkpt>
      <trkpt lat="43.69096" lon="3.75467">
        <ele>209.5</ele>
        <time>2019-07-07T07:27:49Z</time>
      </trkpt>
      <trkpt lat="43.69099" lon="3.75468">
        <ele>209.7</ele>
        <time>2019-07-07T07:27:50Z</time>
      </trkpt>
      <trkpt lat="43.69104" lon="3.75469">
        <ele>209.9</ele>
        <time>2019-07-07T07:27:52Z</time>
      </trkpt>
      <trkpt lat="43.69108" lon="3.75469">
        <ele>210.2</ele>
        <time>2019-07-07T07:27:54Z</time>
      </trkpt>
      <trkpt lat="43.69111" lon="3.75468">
        <ele>210.4</ele>
        <time>2019-07-07T07:27:56Z</time>
      </trkpt>
      <trkpt lat="43.69116" lon="3.7547">
        <ele>210.6</ele>
        <time>2019-07-07T07:27:58Z</time>
      </trkpt>
      <trkpt lat="43.69119" lon="3.75471">
        <ele>210.7</ele>
        <time>2019-07-07T07:27:59Z</time>
      </trkpt>
      <trkpt lat="43.69123" lon="3.75472">
        <ele>210.9</ele>
        <time>2019-07-07T07:28:01Z</time>
      </trkpt>
      <trkpt lat="43.69125" lon="3.75476">
        <ele>211.1</ele>
        <time>2019-07-07T07:28:02Z</time>
      </trkpt>
      <trkpt lat="43.6913" lon="3.75476">
        <ele>211.3</ele>
        <time>2019-07-07T07:28:04Z</time>
      </trkpt>
      <trkpt lat="43.69133" lon="3.75475">
        <ele>211.5</ele>
        <time>2019-07-07T07:28:05Z</time>
      </trkpt>
      <trkpt lat="43.69137" lon="3.75476">
        <ele>211.8</ele>
        <time>2019-07-07T07:28:07Z</time>
      </trkpt>
      <trkpt lat="43.69142" lon="3.75477">
        <ele>212.1</ele>
        <time>2019-07-07T07:28:09Z</time>
      </trkpt>
      <trkpt lat="43.69146" lon="3.75477">
        <ele>212.4</ele>
        <time>2019-07-07T07:28:11Z</time>
      </trkpt>
      <trkpt lat="43.6915" lon="3.75477">
        <ele>212.7</ele>
        <time>2019-07-07T07:28:13Z</time>
      </trkpt>
      <trkpt lat="43.69152" lon="3.75477">
        <ele>212.9</ele>
        <time>2019-07-07T07:28:15Z</time>
      </trkpt>
      <trkpt lat="43.69155" lon="3.75476">
        <ele>213.1</ele>
        <time>2019-07-07T07:28:16Z</time>
      </trkpt>
      <trkpt lat="43.69159" lon="3.75477">
        <ele>213.3</ele>
        <time>2019-07-07T07:28:18Z</time>
      </trkpt>
      <trkpt lat="43.69162" lon="3.75476">
        <ele>213.6</ele>
        <time>2019-07-07T07:28:20Z</time>
      </trkpt>
      <trkpt lat="43.69166" lon="3.75476">
        <ele>213.9</ele>
        <time>2019-07-07T07:28:22Z</time>
      </trkpt>
      <trkpt lat="43.69171" lon="3.75476">
        <ele>214.2</ele>
        <time>2019-07-07T07:28:24Z</time>
      </trkpt>
      <trkpt lat="43.69175" lon="3.75477">
        <ele>214.4</ele>
        <time>2019-07-07T07:28:26Z</time>
      </trkpt>
      <trkpt lat="43.69179" lon="3.75477">
        <ele>214.6</ele>
        <time>2019-07-07T07:28:28Z</time>
      </trkpt>
      <trkpt lat="43.69182" lon="3.75478">
        <ele>214.8</ele>
        <time>2019-07-07T07:28:30Z</time>
      </trkpt>
      <trkpt lat="43.69186" lon="3.75479">
        <ele>215.1</ele>
        <time>2019-07-07T07:28:32Z</time>
      </trkpt>
      <trkpt lat="43.6919" lon="3.75481">
        <ele>215.3</ele>
        <time>2019-07-07T07:28:34Z</time>
      </trkpt>
      <trkpt lat="43.69194" lon="3.75483">
        <ele>215.7</ele>
        <time>2019-07-07T07:28:36Z</time>
      </trkpt>
      <trkpt lat="43.692" lon="3.75483">
        <ele>216.1</ele>
        <time>2019-07-07T07:28:38Z</time>
      </trkpt>
      <trkpt lat="43.69203" lon="3.75485">
        <ele>216.4</ele>
        <time>2019-07-07T07:28:40Z</time>
      </trkpt>
      <trkpt lat="43.69207" lon="3.75485">
        <ele>216.7</ele>
        <time>2019-07-07T07:28:42Z</time>
      </trkpt>
      <trkpt lat="43.6921" lon="3.75487">
        <ele>217</ele>
        <time>2019-07-07T07:28:44Z</time>
      </trkpt>
      <trkpt lat="43.69214" lon="3.75488">
        <ele>217.3</ele>
        <time>2019-07-07T07:28:46Z</time>
      </trkpt>
      <trkpt lat="43.69216" lon="3.7549">
        <ele>217.6</ele>
        <time>2019-07-07T07:28:47Z</time>
      </trkpt>
      <trkpt lat="43.69221" lon="3.75492">
        <ele>217.9</ele>
        <time>2019-07-07T07:28:49Z</time>
      </trkpt>
      <trkpt lat="43.69224" lon="3.75492">
        <ele>218.2</ele>
        <time>2019-07-07T07:28:51Z</time>
      </trkpt>
      <trkpt lat="43.69226" lon="3.75495">
        <ele>218.5</ele>
        <time>2019-07-07T07:28:52Z</time>
      </trkpt>
      <trkpt lat="43.69229" lon="3.75497">
        <ele>218.7</ele>
        <time>2019-07-07T07:28:54Z</time>
      </trkpt>
      <trkpt lat="43.69232" lon="3.75499">
        <ele>219</ele>
        <time>2019-07-07T07:28:56Z</time>
      </trkpt>
      <trkpt lat="43.69235" lon="3.75504">
        <ele>219.4</ele>
        <time>2019-07-07T07:28:58Z</time>
      </trkpt>
      <trkpt lat="43.69238" lon="3.75508">
        <ele>219.8</ele>
        <time>2019-07-07T07:29:00Z</time>
      </trkpt>
      <trkpt lat="43.69241" lon="3.75512">
        <ele>220.2</ele>
        <time>2019-07-07T07:29:02Z</time>
      </trkpt>
      <trkpt lat="43.69243" lon="3.75516">
        <ele>220.5</ele>
        <time>2019-07-07T07:29:04Z</time>
      </trkpt>
      <trkpt lat="43.69246" lon="3.7552">
        <ele>221</ele>
        <time>2019-07-07T07:29:06Z</time>
      </trkpt>
      <trkpt lat="43.69248" lon="3.75523">
        <ele>221.3</ele>
        <time>2019-07-07T07:29:08Z</time>
      </trkpt>
      <trkpt lat="43.6925" lon="3.75525">
        <ele>221.7</ele>
        <time>2019-07-07T07:29:10Z</time>
      </trkpt>
      <trkpt lat="43.69254" lon="3.7553">
        <ele>222.3</ele>
        <time>2019-07-07T07:29:12Z</time>
      </trkpt>
      <trkpt lat="43.69258" lon="3.75533">
        <ele>222.9</ele>
        <time>2019-07-07T07:29:15Z</time>
      </trkpt>
      <trkpt lat="43.69261" lon="3.75536">
        <ele>223.4</ele>
        <time>2019-07-07T07:29:17Z</time>
      </trkpt>
      <trkpt lat="43.69262" lon="3.75543">
        <ele>224</ele>
        <time>2019-07-07T07:29:19Z</time>
      </trkpt>
      <trkpt lat="43.69264" lon="3.75547">
        <ele>224.5</ele>
        <time>2019-07-07T07:29:21Z</time>
      </trkpt>
      <trkpt lat="43.69266" lon="3.75554">
        <ele>225</ele>
        <time>2019-07-07T07:29:23Z</time>
      </trkpt>
      <trkpt lat="43.69268" lon="3.75559">
        <ele>225.5</ele>
        <time>2019-07-07T07:29:25Z</time>
      </trkpt>
      <trkpt lat="43.69268" lon="3.75566">
        <ele>225.9</ele>
        <time>2019-07-07T07:29:27Z</time>
      </trkpt>
      <trkpt lat="43.69269" lon="3.7557">
        <ele>226.2</ele>
        <time>2019-07-07T07:29:29Z</time>
      </trkpt>
      <trkpt lat="43.69271" lon="3.75575">
        <ele>226.7</ele>
        <time>2019-07-07T07:29:31Z</time>
      </trkpt>
      <trkpt lat="43.69274" lon="3.7558">
        <ele>227.2</ele>
        <time>2019-07-07T07:29:33Z</time>
      </trkpt>
      <trkpt lat="43.69277" lon="3.75584">
        <ele>227.6</ele>
        <time>2019-07-07T07:29:35Z</time>
      </trkpt>
      <trkpt lat="43.69279" lon="3.75587">
        <ele>228.1</ele>
        <time>2019-07-07T07:29:37Z</time>
      </trkpt>
      <trkpt lat="43.69281" lon="3.75592">
        <ele>228.5</ele>
        <time>2019-07-07T07:29:39Z</time>
      </trkpt>
      <trkpt lat="43.69284" lon="3.75596">
        <ele>229</ele>
        <time>2019-07-07T07:29:41Z</time>
      </trkpt>
      <trkpt lat="43.69286" lon="3.756">
        <ele>229.3</ele>
        <time>2019-07-07T07:29:43Z</time>
      </trkpt>
      <trkpt lat="43.69288" lon="3.75604">
        <ele>229.6</ele>
        <time>2019-07-07T07:29:45Z</time>
      </trkpt>
      <trkpt lat="43.6929" lon="3.75608">
        <ele>230</ele>
        <time>2019-07-07T07:29:47Z</time>
      </trkpt>
      <trkpt lat="43.69291" lon="3.75615">
        <ele>230.5</ele>
        <time>2019-07-07T07:29:49Z</time>
      </trkpt>
      <trkpt lat="43.69291" lon="3.7562">
        <ele>230.8</ele>
        <time>2019-07-07T07:29:51Z</time>
      </trkpt>
      <trkpt lat="43.69291" lon="3.75626">
        <ele>231.1</ele>
        <time>2019-07-07T07:29:53Z</time>
      </trkpt>
      <trkpt lat="43.69292" lon="3.75631">
        <ele>231.5</ele>
        <time>2019-07-07T07:29:55Z</time>
      </trkpt>
      <trkpt lat="43.69292" lon="3.75638">
        <ele>231.9</ele>
        <time>2019-07-07T07:29:57Z</time>
      </trkpt>
      <trkpt lat="43.69292" lon="3.75644">
        <ele>232.2</ele>
        <time>2019-07-07T07:29:59Z</time>
      </trkpt>
      <trkpt lat="43.69292" lon="3.75649">
        <ele>232.5</ele>
        <time>2019-07-07T07:30:01Z</time>
      </trkpt>
      <trkpt lat="43.6929" lon="3.75655">
        <ele>232.8</ele>
        <time>2019-07-07T07:30:03Z</time>
      </trkpt>
      <trkpt lat="43.69289" lon="3.75661">
        <ele>233.1</ele>
        <time>2019-07-07T07:30:05Z</time>
      </trkpt>
      <trkpt lat="43.6929" lon="3.75665">
        <ele>233.3</ele>
        <time>2019-07-07T07:30:06Z</time>
      </trkpt>
      <trkpt lat="43.69288" lon="3.75671">
        <ele>233.6</ele>
        <time>2019-07-07T07:30:08Z</time>
      </trkpt>
      <trkpt lat="43.69288" lon="3.75675">
        <ele>233.7</ele>
        <time>2019-07-07T07:30:09Z</time>
      </trkpt>
      <trkpt lat="43.69288" lon="3.75681">
        <ele>234</ele>
        <time>2019-07-07T07:30:11Z</time>
      </trkpt>
      <trkpt lat="43.69289" lon="3.75688">
        <ele>234.3</ele>
        <time>2019-07-07T07:30:13Z</time>
      </trkpt>
      <trkpt lat="43.69289" lon="3.75692">
        <ele>234.5</ele>
        <time>2019-07-07T07:30:15Z</time>
      </trkpt>
      <trkpt lat="43.69289" lon="3.75698">
        <ele>234.7</ele>
        <time>2019-07-07T07:30:17Z</time>
      </trkpt>
      <trkpt lat="43.69291" lon="3.75703">
        <ele>234.9</ele>
        <time>2019-07-07T07:30:19Z</time>
      </trkpt>
      <trkpt lat="43.69292" lon="3.75708">
        <ele>235.1</ele>
        <time>2019-07-07T07:30:21Z</time>
      </trkpt>
      <trkpt lat="43.69292" lon="3.75712">
        <ele>235.3</ele>
        <time>2019-07-07T07:30:22Z</time>
      </trkpt>
      <trkpt lat="43.69293" lon="3.75717">
        <ele>235.5</ele>
        <time>2019-07-07T07:30:24Z</time>
      </trkpt>
      <trkpt lat="43.69294" lon="3.75723">
        <ele>235.8</ele>
        <time>2019-07-07T07:30:26Z</time>
      </trkpt>
      <trkpt lat="43.69295" lon="3.75728">
        <ele>236</ele>
        <time>2019-07-07T07:30:27Z</time>
      </trkpt>
      <trkpt lat="43.69297" lon="3.75734">
        <ele>236.3</ele>
        <time>2019-07-07T07:30:29Z</time>
      </trkpt>
      <trkpt lat="43.69298" lon="3.75737">
        <ele>236.4</ele>
        <time>2019-07-07T07:30:30Z</time>
      </trkpt>
      <trkpt lat="43.69299" lon="3.75745">
        <ele>236.7</ele>
        <time>2019-07-07T07:30:32Z</time>
      </trkpt>
      <trkpt lat="43.693" lon="3.75749">
        <ele>236.9</ele>
        <time>2019-07-07T07:30:34Z</time>
      </trkpt>
      <trkpt lat="43.69299" lon="3.75754">
        <ele>237.1</ele>
        <time>2019-07-07T07:30:36Z</time>
      </trkpt>
      <trkpt lat="43.69299" lon="3.75759">
        <ele>237.3</ele>
        <time>2019-07-07T07:30:38Z</time>
      </trkpt>
      <trkpt lat="43.693" lon="3.75765">
        <ele>237.6</ele>
        <time>2019-07-07T07:30:40Z</time>
      </trkpt>
      <trkpt lat="43.693" lon="3.75772">
        <ele>237.9</ele>
        <time>2019-07-07T07:30:42Z</time>
      </trkpt>
      <trkpt lat="43.69301" lon="3.75779">
        <ele>238.3</ele>
        <time>2019-07-07T07:30:44Z</time>
      </trkpt>
      <trkpt lat="43.69302" lon="3.75784">
        <ele>238.5</ele>
        <time>2019-07-07T07:30:46Z</time>
      </trkpt>
      <trkpt lat="43.69304" lon="3.75789">
        <ele>238.7</ele>
        <time>2019-07-07T07:30:48Z</time>
      </trkpt>
      <trkpt lat="43.69307" lon="3.75794">
        <ele>238.9</ele>
        <time>2019-07-07T07:30:50Z</time>
      </trkpt>
      <trkpt lat="43.69307" lon="3.75799">
        <ele>239.1</ele>
        <time>2019-07-07T07:30:52Z</time>
      </trkpt>
      <trkpt lat="43.69311" lon="3.75804">
        <ele>239.4</ele>
        <time>2019-07-07T07:30:54Z</time>
      </trkpt>
      <trkpt lat="43.69313" lon="3.75808">
        <ele>239.6</ele>
        <time>2019-07-07T07:30:55Z</time>
      </trkpt>
      <trkpt lat="43.69314" lon="3.75812">
        <ele>239.7</ele>
        <time>2019-07-07T07:30:56Z</time>
      </trkpt>
      <trkpt lat="43.69316" lon="3.75815">
        <ele>239.8</ele>
        <time>2019-07-07T07:30:57Z</time>
      </trkpt>
      <trkpt lat="43.69319" lon="3.75821">
        <ele>240.1</ele>
        <time>2019-07-07T07:30:59Z</time>
      </trkpt>
      <trkpt lat="43.69321" lon="3.75826">
        <ele>240.2</ele>
        <time>2019-07-07T07:31:01Z</time>
      </trkpt>
      <trkpt lat="43.69323" lon="3.75834">
        <ele>240.5</ele>
        <time>2019-07-07T07:31:03Z</time>
      </trkpt>
      <trkpt lat="43.6933" lon="3.75848">
        <ele>241.1</ele>
        <time>2019-07-07T07:31:09Z</time>
      </trkpt>
      <trkpt lat="43.69331" lon="3.75854">
        <ele>241.3</ele>
        <time>2019-07-07T07:31:11Z</time>
      </trkpt>
      <trkpt lat="43.69328" lon="3.75856">
        <ele>241.4</ele>
        <time>2019-07-07T07:31:12Z</time>
      </trkpt>
      <trkpt lat="43.69326" lon="3.75859">
        <ele>243.8</ele>
        <time>2019-07-07T07:31:14Z</time>
      </trkpt>
      <trkpt lat="43.69322" lon="3.75859">
        <ele>244.2</ele>
        <time>2019-07-07T07:31:16Z</time>
      </trkpt>
      <trkpt lat="43.69319" lon="3.75857">
        <ele>244.5</ele>
        <time>2019-07-07T07:31:17Z</time>
      </trkpt>
      <trkpt lat="43.69316" lon="3.75856">
        <ele>245</ele>
        <time>2019-07-07T07:31:19Z</time>
      </trkpt>
      <trkpt lat="43.69312" lon="3.75856">
        <ele>245.3</ele>
        <time>2019-07-07T07:31:21Z</time>
      </trkpt>
      <trkpt lat="43.69308" lon="3.75854">
        <ele>245.8</ele>
        <time>2019-07-07T07:31:23Z</time>
      </trkpt>
      <trkpt lat="43.69305" lon="3.75853">
        <ele>246.1</ele>
        <time>2019-07-07T07:31:25Z</time>
      </trkpt>
      <trkpt lat="43.69301" lon="3.75853">
        <ele>246.5</ele>
        <time>2019-07-07T07:31:28Z</time>
      </trkpt>
      <trkpt lat="43.69298" lon="3.75853">
        <ele>246.8</ele>
        <time>2019-07-07T07:31:30Z</time>
      </trkpt>
      <trkpt lat="43.69293" lon="3.75852">
        <ele>247.3</ele>
        <time>2019-07-07T07:31:32Z</time>
      </trkpt>
      <trkpt lat="43.69291" lon="3.75852">
        <ele>247.6</ele>
        <time>2019-07-07T07:31:34Z</time>
      </trkpt>
      <trkpt lat="43.69287" lon="3.75852">
        <ele>248</ele>
        <time>2019-07-07T07:31:36Z</time>
      </trkpt>
      <trkpt lat="43.69283" lon="3.75849">
        <ele>248.6</ele>
        <time>2019-07-07T07:31:38Z</time>
      </trkpt>
      <trkpt lat="43.69279" lon="3.75849">
        <ele>249</ele>
        <time>2019-07-07T07:31:40Z</time>
      </trkpt>
      <trkpt lat="43.69276" lon="3.75849">
        <ele>249.4</ele>
        <time>2019-07-07T07:31:42Z</time>
      </trkpt>
      <trkpt lat="43.69272" lon="3.75849">
        <ele>249.8</ele>
        <time>2019-07-07T07:31:44Z</time>
      </trkpt>
      <trkpt lat="43.69268" lon="3.75846">
        <ele>250.3</ele>
        <time>2019-07-07T07:31:46Z</time>
      </trkpt>
      <trkpt lat="43.69264" lon="3.75846">
        <ele>250.8</ele>
        <time>2019-07-07T07:31:48Z</time>
      </trkpt>
      <trkpt lat="43.6926" lon="3.75845">
        <ele>251.3</ele>
        <time>2019-07-07T07:31:50Z</time>
      </trkpt>
      <trkpt lat="43.69256" lon="3.75842">
        <ele>251.8</ele>
        <time>2019-07-07T07:31:52Z</time>
      </trkpt>
      <trkpt lat="43.69252" lon="3.75841">
        <ele>252.3</ele>
        <time>2019-07-07T07:31:54Z</time>
      </trkpt>
      <trkpt lat="43.69249" lon="3.75836">
        <ele>252.8</ele>
        <time>2019-07-07T07:31:56Z</time>
      </trkpt>
      <trkpt lat="43.69245" lon="3.75833">
        <ele>253.3</ele>
        <time>2019-07-07T07:31:58Z</time>
      </trkpt>
      <trkpt lat="43.69242" lon="3.75829">
        <ele>253.8</ele>
        <time>2019-07-07T07:32:00Z</time>
      </trkpt>
      <trkpt lat="43.69237" lon="3.75826">
        <ele>254.3</ele>
        <time>2019-07-07T07:32:02Z</time>
      </trkpt>
      <trkpt lat="43.69234" lon="3.75825">
        <ele>254.7</ele>
        <time>2019-07-07T07:32:03Z</time>
      </trkpt>
      <trkpt lat="43.69232" lon="3.75822">
        <ele>255</ele>
        <time>2019-07-07T07:32:04Z</time>
      </trkpt>
      <trkpt lat="43.69229" lon="3.75821">
        <ele>255.3</ele>
        <time>2019-07-07T07:32:06Z</time>
      </trkpt>
      <trkpt lat="43.69226" lon="3.7582">
        <ele>255.6</ele>
        <time>2019-07-07T07:32:08Z</time>
      </trkpt>
      <trkpt lat="43.69223" lon="3.75817">
        <ele>256</ele>
        <time>2019-07-07T07:32:10Z</time>
      </trkpt>
      <trkpt lat="43.69219" lon="3.75814">
        <ele>256.4</ele>
        <time>2019-07-07T07:32:12Z</time>
      </trkpt>
      <trkpt lat="43.69216" lon="3.75812">
        <ele>256.8</ele>
        <time>2019-07-07T07:32:13Z</time>
      </trkpt>
      <trkpt lat="43.69212" lon="3.7581">
        <ele>257.2</ele>
        <time>2019-07-07T07:32:15Z</time>
      </trkpt>
      <trkpt lat="43.69208" lon="3.75807">
        <ele>257.5</ele>
        <time>2019-07-07T07:32:17Z</time>
      </trkpt>
      <trkpt lat="43.69203" lon="3.75805">
        <ele>258</ele>
        <time>2019-07-07T07:32:19Z</time>
      </trkpt>
      <trkpt lat="43.692" lon="3.75804">
        <ele>258.4</ele>
        <time>2019-07-07T07:32:21Z</time>
      </trkpt>
      <trkpt lat="43.69196" lon="3.75801">
        <ele>258.8</ele>
        <time>2019-07-07T07:32:23Z</time>
      </trkpt>
      <trkpt lat="43.69191" lon="3.758">
        <ele>259.3</ele>
        <time>2019-07-07T07:32:25Z</time>
      </trkpt>
      <trkpt lat="43.69188" lon="3.75799">
        <ele>259.6</ele>
        <time>2019-07-07T07:32:27Z</time>
      </trkpt>
      <trkpt lat="43.69183" lon="3.75797">
        <ele>260</ele>
        <time>2019-07-07T07:32:29Z</time>
      </trkpt>
      <trkpt lat="43.6918" lon="3.75799">
        <ele>260.3</ele>
        <time>2019-07-07T07:32:31Z</time>
      </trkpt>
      <trkpt lat="43.69176" lon="3.75802">
        <ele>260.6</ele>
        <time>2019-07-07T07:32:33Z</time>
      </trkpt>
      <trkpt lat="43.69173" lon="3.75806">
        <ele>260.9</ele>
        <time>2019-07-07T07:32:35Z</time>
      </trkpt>
      <trkpt lat="43.69171" lon="3.75808">
        <ele>261.2</ele>
        <time>2019-07-07T07:32:36Z</time>
      </trkpt>
      <trkpt lat="43.69169" lon="3.75812">
        <ele>261.6</ele>
        <time>2019-07-07T07:32:37Z</time>
      </trkpt>
      <trkpt lat="43.69171" lon="3.75816">
        <ele>262.1</ele>
        <time>2019-07-07T07:32:39Z</time>
      </trkpt>
      <trkpt lat="43.69172" lon="3.75821">
        <ele>262.6</ele>
        <time>2019-07-07T07:32:41Z</time>
      </trkpt>
      <trkpt lat="43.69174" lon="3.75825">
        <ele>263</ele>
        <time>2019-07-07T07:32:43Z</time>
      </trkpt>
      <trkpt lat="43.69177" lon="3.7583">
        <ele>263.6</ele>
        <time>2019-07-07T07:32:45Z</time>
      </trkpt>
      <trkpt lat="43.6918" lon="3.75834">
        <ele>263.9</ele>
        <time>2019-07-07T07:32:47Z</time>
      </trkpt>
      <trkpt lat="43.69184" lon="3.75835">
        <ele>264.3</ele>
        <time>2019-07-07T07:32:49Z</time>
      </trkpt>
      <trkpt lat="43.69186" lon="3.75841">
        <ele>264.8</ele>
        <time>2019-07-07T07:32:51Z</time>
      </trkpt>
      <trkpt lat="43.69187" lon="3.75848">
        <ele>265.3</ele>
        <time>2019-07-07T07:32:53Z</time>
      </trkpt>
      <trkpt lat="43.69189" lon="3.75854">
        <ele>265.7</ele>
        <time>2019-07-07T07:32:55Z</time>
      </trkpt>
      <trkpt lat="43.69189" lon="3.75857">
        <ele>265.9</ele>
        <time>2019-07-07T07:32:56Z</time>
      </trkpt>
      <trkpt lat="43.69191" lon="3.75861">
        <ele>266.3</ele>
        <time>2019-07-07T07:32:57Z</time>
      </trkpt>
      <trkpt lat="43.69192" lon="3.75867">
        <ele>266.7</ele>
        <time>2019-07-07T07:32:59Z</time>
      </trkpt>
      <trkpt lat="43.69191" lon="3.75871">
        <ele>266.9</ele>
        <time>2019-07-07T07:33:01Z</time>
      </trkpt>
      <trkpt lat="43.69191" lon="3.75876">
        <ele>267.1</ele>
        <time>2019-07-07T07:33:03Z</time>
      </trkpt>
      <trkpt lat="43.69191" lon="3.75882">
        <ele>267.4</ele>
        <time>2019-07-07T07:33:05Z</time>
      </trkpt>
      <trkpt lat="43.69189" lon="3.75887">
        <ele>267.6</ele>
        <time>2019-07-07T07:33:07Z</time>
      </trkpt>
      <trkpt lat="43.69189" lon="3.75894">
        <ele>267.8</ele>
        <time>2019-07-07T07:33:09Z</time>
      </trkpt>
      <trkpt lat="43.69185" lon="3.75899">
        <ele>268</ele>
        <time>2019-07-07T07:33:11Z</time>
      </trkpt>
      <trkpt lat="43.69182" lon="3.75905">
        <ele>268.2</ele>
        <time>2019-07-07T07:33:13Z</time>
      </trkpt>
      <trkpt lat="43.6918" lon="3.75908">
        <ele>268.3</ele>
        <time>2019-07-07T07:33:15Z</time>
      </trkpt>
      <trkpt lat="43.69178" lon="3.75912">
        <ele>268.4</ele>
        <time>2019-07-07T07:33:17Z</time>
      </trkpt>
      <trkpt lat="43.69175" lon="3.75914">
        <ele>268.5</ele>
        <time>2019-07-07T07:33:18Z</time>
      </trkpt>
      <trkpt lat="43.69174" lon="3.75918">
        <ele>268.6</ele>
        <time>2019-07-07T07:33:20Z</time>
      </trkpt>
      <trkpt lat="43.69172" lon="3.75922">
        <ele>268.8</ele>
        <time>2019-07-07T07:33:22Z</time>
      </trkpt>
      <trkpt lat="43.6917" lon="3.75924">
        <ele>268.9</ele>
        <time>2019-07-07T07:33:24Z</time>
      </trkpt>
      <trkpt lat="43.69167" lon="3.75928">
        <ele>269</ele>
        <time>2019-07-07T07:33:26Z</time>
      </trkpt>
      <trkpt lat="43.69162" lon="3.75933">
        <ele>269.3</ele>
        <time>2019-07-07T07:33:28Z</time>
      </trkpt>
      <trkpt lat="43.69158" lon="3.75937">
        <ele>269.5</ele>
        <time>2019-07-07T07:33:30Z</time>
      </trkpt>
      <trkpt lat="43.69157" lon="3.75941">
        <ele>269.6</ele>
        <time>2019-07-07T07:33:32Z</time>
      </trkpt>
      <trkpt lat="43.69156" lon="3.75944">
        <ele>269.7</ele>
        <time>2019-07-07T07:33:34Z</time>
      </trkpt>
      <trkpt lat="43.69153" lon="3.75947">
        <ele>269.8</ele>
        <time>2019-07-07T07:33:36Z</time>
      </trkpt>
      <trkpt lat="43.69151" lon="3.7595">
        <ele>269.9</ele>
        <time>2019-07-07T07:33:39Z</time>
      </trkpt>
      <trkpt lat="43.69148" lon="3.75953">
        <ele>270.1</ele>
        <time>2019-07-07T07:33:41Z</time>
      </trkpt>
      <trkpt lat="43.69146" lon="3.75956">
        <ele>270.2</ele>
        <time>2019-07-07T07:33:44Z</time>
      </trkpt>
      <trkpt lat="43.69143" lon="3.75959">
        <ele>270.3</ele>
        <time>2019-07-07T07:33:46Z</time>
      </trkpt>
      <trkpt lat="43.6914" lon="3.75961">
        <ele>270.4</ele>
        <time>2019-07-07T07:33:49Z</time>
      </trkpt>
      <trkpt lat="43.69137" lon="3.75965">
        <ele>270.5</ele>
        <time>2019-07-07T07:33:52Z</time>
      </trkpt>
      <trkpt lat="43.69134" lon="3.75967">
        <ele>270.6</ele>
        <time>2019-07-07T07:33:54Z</time>
      </trkpt>
      <trkpt lat="43.6913" lon="3.75969">
        <ele>270.6</ele>
        <time>2019-07-07T07:33:56Z</time>
      </trkpt>
      <trkpt lat="43.69127" lon="3.75969">
        <ele>270.7</ele>
        <time>2019-07-07T07:33:57Z</time>
      </trkpt>
      <trkpt lat="43.69123" lon="3.75971">
        <ele>270.7</ele>
        <time>2019-07-07T07:34:00Z</time>
      </trkpt>
      <trkpt lat="43.6912" lon="3.75973">
        <ele>270.7</ele>
        <time>2019-07-07T07:34:02Z</time>
      </trkpt>
      <trkpt lat="43.69117" lon="3.75976">
        <ele>270.7</ele>
        <time>2019-07-07T07:34:04Z</time>
      </trkpt>
      <trkpt lat="43.69115" lon="3.75979">
        <ele>270.7</ele>
        <time>2019-07-07T07:34:07Z</time>
      </trkpt>
      <trkpt lat="43.69113" lon="3.75982">
        <ele>270.6</ele>
        <time>2019-07-07T07:34:08Z</time>
      </trkpt>
      <trkpt lat="43.6911" lon="3.75984">
        <ele>270.6</ele>
        <time>2019-07-07T07:34:09Z</time>
      </trkpt>
      <trkpt lat="43.69107" lon="3.7599">
        <ele>270.4</ele>
        <time>2019-07-07T07:34:11Z</time>
      </trkpt>
      <trkpt lat="43.69104" lon="3.75994">
        <ele>270.2</ele>
        <time>2019-07-07T07:34:13Z</time>
      </trkpt>
      <trkpt lat="43.69098" lon="3.75998">
        <ele>269.9</ele>
        <time>2019-07-07T07:34:15Z</time>
      </trkpt>
      <trkpt lat="43.69093" lon="3.76002">
        <ele>269.5</ele>
        <time>2019-07-07T07:34:17Z</time>
      </trkpt>
      <trkpt lat="43.6909" lon="3.76004">
        <ele>269.3</ele>
        <time>2019-07-07T07:34:18Z</time>
      </trkpt>
      <trkpt lat="43.69086" lon="3.76005">
        <ele>269</ele>
        <time>2019-07-07T07:34:19Z</time>
      </trkpt>
      <trkpt lat="43.69083" lon="3.76007">
        <ele>268.7</ele>
        <time>2019-07-07T07:34:20Z</time>
      </trkpt>
      <trkpt lat="43.69077" lon="3.76008">
        <ele>268.2</ele>
        <time>2019-07-07T07:34:22Z</time>
      </trkpt>
      <trkpt lat="43.69072" lon="3.76008">
        <ele>268.2</ele>
        <time>2019-07-07T07:34:24Z</time>
      </trkpt>
      <trkpt lat="43.69068" lon="3.76006">
        <ele>268.2</ele>
        <time>2019-07-07T07:34:26Z</time>
      </trkpt>
      <trkpt lat="43.69062" lon="3.76005">
        <ele>268.2</ele>
        <time>2019-07-07T07:34:28Z</time>
      </trkpt>
      <trkpt lat="43.69058" lon="3.76005">
        <ele>268.2</ele>
        <time>2019-07-07T07:34:29Z</time>
      </trkpt>
      <trkpt lat="43.69055" lon="3.76006">
        <ele>268.2</ele>
        <time>2019-07-07T07:34:30Z</time>
      </trkpt>
      <trkpt lat="43.69051" lon="3.76006">
        <ele>268.2</ele>
        <time>2019-07-07T07:34:31Z</time>
      </trkpt>
      <trkpt lat="43.69046" lon="3.76007">
        <ele>268.2</ele>
        <time>2019-07-07T07:34:33Z</time>
      </trkpt>
      <trkpt lat="43.69041" lon="3.76009">
        <ele>268.2</ele>
        <time>2019-07-07T07:34:34Z</time>
      </trkpt>
      <trkpt lat="43.69038" lon="3.76012">
        <ele>268.2</ele>
        <time>2019-07-07T07:34:35Z</time>
      </trkpt>
      <trkpt lat="43.69035" lon="3.76015">
        <ele>268.3</ele>
        <time>2019-07-07T07:34:36Z</time>
      </trkpt>
      <trkpt lat="43.69032" lon="3.76017">
        <ele>268.4</ele>
        <time>2019-07-07T07:34:37Z</time>
      </trkpt>
      <trkpt lat="43.69028" lon="3.76018">
        <ele>268.5</ele>
        <time>2019-07-07T07:34:38Z</time>
      </trkpt>
      <trkpt lat="43.69026" lon="3.76021">
        <ele>268.6</ele>
        <time>2019-07-07T07:34:39Z</time>
      </trkpt>
      <trkpt lat="43.69023" lon="3.76024">
        <ele>268.7</ele>
        <time>2019-07-07T07:34:40Z</time>
      </trkpt>
      <trkpt lat="43.69018" lon="3.76027">
        <ele>269</ele>
        <time>2019-07-07T07:34:42Z</time>
      </trkpt>
      <trkpt lat="43.69014" lon="3.76029">
        <ele>269.3</ele>
        <time>2019-07-07T07:34:43Z</time>
      </trkpt>
      <trkpt lat="43.6901" lon="3.76031">
        <ele>269.5</ele>
        <time>2019-07-07T07:34:44Z</time>
      </trkpt>
      <trkpt lat="43.69007" lon="3.76032">
        <ele>269.7</ele>
        <time>2019-07-07T07:34:45Z</time>
      </trkpt>
      <trkpt lat="43.69002" lon="3.76034">
        <ele>270</ele>
        <time>2019-07-07T07:34:46Z</time>
      </trkpt>
      <trkpt lat="43.68999" lon="3.76035">
        <ele>270.2</ele>
        <time>2019-07-07T07:34:47Z</time>
      </trkpt>
      <trkpt lat="43.68995" lon="3.76036">
        <ele>270.4</ele>
        <time>2019-07-07T07:34:48Z</time>
      </trkpt>
      <trkpt lat="43.68992" lon="3.76038">
        <ele>270.6</ele>
        <time>2019-07-07T07:34:50Z</time>
      </trkpt>
      <trkpt lat="43.68988" lon="3.7604">
        <ele>270.8</ele>
        <time>2019-07-07T07:34:51Z</time>
      </trkpt>
      <trkpt lat="43.68986" lon="3.76041">
        <ele>271</ele>
        <time>2019-07-07T07:34:52Z</time>
      </trkpt>
      <trkpt lat="43.68983" lon="3.76042">
        <ele>271.2</ele>
        <time>2019-07-07T07:34:53Z</time>
      </trkpt>
      <trkpt lat="43.6898" lon="3.76043">
        <ele>271.4</ele>
        <time>2019-07-07T07:34:54Z</time>
      </trkpt>
      <trkpt lat="43.68978" lon="3.76045">
        <ele>271.5</ele>
        <time>2019-07-07T07:34:55Z</time>
      </trkpt>
      <trkpt lat="43.68972" lon="3.76047">
        <ele>271.7</ele>
        <time>2019-07-07T07:34:57Z</time>
      </trkpt>
      <trkpt lat="43.68968" lon="3.76048">
        <ele>271.8</ele>
        <time>2019-07-07T07:34:58Z</time>
      </trkpt>
      <trkpt lat="43.68965" lon="3.76051">
        <ele>271.9</ele>
        <time>2019-07-07T07:35:00Z</time>
      </trkpt>
      <trkpt lat="43.68962" lon="3.76053">
        <ele>272</ele>
        <time>2019-07-07T07:35:01Z</time>
      </trkpt>
      <trkpt lat="43.68958" lon="3.76056">
        <ele>272</ele>
        <time>2019-07-07T07:35:03Z</time>
      </trkpt>
      <trkpt lat="43.68953" lon="3.76057">
        <ele>272.1</ele>
        <time>2019-07-07T07:35:05Z</time>
      </trkpt>
      <trkpt lat="43.68951" lon="3.76061">
        <ele>272.1</ele>
        <time>2019-07-07T07:35:07Z</time>
      </trkpt>
      <trkpt lat="43.68947" lon="3.76065">
        <ele>272.1</ele>
        <time>2019-07-07T07:35:09Z</time>
      </trkpt>
      <trkpt lat="43.68944" lon="3.76067">
        <ele>272.1</ele>
        <time>2019-07-07T07:35:10Z</time>
      </trkpt>
      <trkpt lat="43.68942" lon="3.76068">
        <ele>272.1</ele>
        <time>2019-07-07T07:35:11Z</time>
      </trkpt>
      <trkpt lat="43.68937" lon="3.76072">
        <ele>272.2</ele>
        <time>2019-07-07T07:35:13Z</time>
      </trkpt>
      <trkpt lat="43.68932" lon="3.76075">
        <ele>272.2</ele>
        <time>2019-07-07T07:35:15Z</time>
      </trkpt>
      <trkpt lat="43.68929" lon="3.76076">
        <ele>272.2</ele>
        <time>2019-07-07T07:35:16Z</time>
      </trkpt>
      <trkpt lat="43.68926" lon="3.76078">
        <ele>272.2</ele>
        <time>2019-07-07T07:35:17Z</time>
      </trkpt>
      <trkpt lat="43.68923" lon="3.76079">
        <ele>272.2</ele>
        <time>2019-07-07T07:35:18Z</time>
      </trkpt>
      <trkpt lat="43.68918" lon="3.76081">
        <ele>272.2</ele>
        <time>2019-07-07T07:35:20Z</time>
      </trkpt>
      <trkpt lat="43.68915" lon="3.76081">
        <ele>272.2</ele>
        <time>2019-07-07T07:35:21Z</time>
      </trkpt>
      <trkpt lat="43.68912" lon="3.76084">
        <ele>272.2</ele>
        <time>2019-07-07T07:35:23Z</time>
      </trkpt>
      <trkpt lat="43.68907" lon="3.76084">
        <ele>272.2</ele>
        <time>2019-07-07T07:35:24Z</time>
      </trkpt>
      <trkpt lat="43.68904" lon="3.76084">
        <ele>272.2</ele>
        <time>2019-07-07T07:35:25Z</time>
      </trkpt>
      <trkpt lat="43.68901" lon="3.76083">
        <ele>272.2</ele>
        <time>2019-07-07T07:35:26Z</time>
      </trkpt>
      <trkpt lat="43.68898" lon="3.76084">
        <ele>272.2</ele>
        <time>2019-07-07T07:35:27Z</time>
      </trkpt>
      <trkpt lat="43.68892" lon="3.76084">
        <ele>272.2</ele>
        <time>2019-07-07T07:35:29Z</time>
      </trkpt>
      <trkpt lat="43.68885" lon="3.76085">
        <ele>272.2</ele>
        <time>2019-07-07T07:35:31Z</time>
      </trkpt>
      <trkpt lat="43.6888" lon="3.76085">
        <ele>272.2</ele>
        <time>2019-07-07T07:35:33Z</time>
      </trkpt>
      <trkpt lat="43.68874" lon="3.76084">
        <ele>272.2</ele>
        <time>2019-07-07T07:35:34Z</time>
      </trkpt>
      <trkpt lat="43.68871" lon="3.76085">
        <ele>272.2</ele>
        <time>2019-07-07T07:35:35Z</time>
      </trkpt>
      <trkpt lat="43.68867" lon="3.76085">
        <ele>272.2</ele>
        <time>2019-07-07T07:35:36Z</time>
      </trkpt>
      <trkpt lat="43.68864" lon="3.76085">
        <ele>272.2</ele>
        <time>2019-07-07T07:35:37Z</time>
      </trkpt>
      <trkpt lat="43.68861" lon="3.76085">
        <ele>272.2</ele>
        <time>2019-07-07T07:35:38Z</time>
      </trkpt>
      <trkpt lat="43.68858" lon="3.76084">
        <ele>272.2</ele>
        <time>2019-07-07T07:35:39Z</time>
      </trkpt>
      <trkpt lat="43.68854" lon="3.76086">
        <ele>272.2</ele>
        <time>2019-07-07T07:35:40Z</time>
      </trkpt>
      <trkpt lat="43.68851" lon="3.76086">
        <ele>272.2</ele>
        <time>2019-07-07T07:35:41Z</time>
      </trkpt>
      <trkpt lat="43.68845" lon="3.76086">
        <ele>272.2</ele>
        <time>2019-07-07T07:35:43Z</time>
      </trkpt>
      <trkpt lat="43.68842" lon="3.76086">
        <ele>272.2</ele>
        <time>2019-07-07T07:35:44Z</time>
      </trkpt>
      <trkpt lat="43.68837" lon="3.76086">
        <ele>272.2</ele>
        <time>2019-07-07T07:35:45Z</time>
      </trkpt>
      <trkpt lat="43.68833" lon="3.76085">
        <ele>272.2</ele>
        <time>2019-07-07T07:35:46Z</time>
      </trkpt>
      <trkpt lat="43.6883" lon="3.76084">
        <ele>272.2</ele>
        <time>2019-07-07T07:35:47Z</time>
      </trkpt>
      <trkpt lat="43.68827" lon="3.76082">
        <ele>272.1</ele>
        <time>2019-07-07T07:35:48Z</time>
      </trkpt>
      <trkpt lat="43.68824" lon="3.76079">
        <ele>272</ele>
        <time>2019-07-07T07:35:49Z</time>
      </trkpt>
      <trkpt lat="43.68821" lon="3.76075">
        <ele>271.9</ele>
        <time>2019-07-07T07:35:50Z</time>
      </trkpt>
      <trkpt lat="43.68819" lon="3.76069">
        <ele>271.8</ele>
        <time>2019-07-07T07:35:51Z</time>
      </trkpt>
      <trkpt lat="43.68817" lon="3.76064">
        <ele>271.7</ele>
        <time>2019-07-07T07:35:52Z</time>
      </trkpt>
      <trkpt lat="43.68816" lon="3.7606">
        <ele>271.7</ele>
        <time>2019-07-07T07:35:53Z</time>
      </trkpt>
      <trkpt lat="43.68815" lon="3.76056">
        <ele>271.6</ele>
        <time>2019-07-07T07:35:54Z</time>
      </trkpt>
      <trkpt lat="43.68815" lon="3.76052">
        <ele>271.5</ele>
        <time>2019-07-07T07:35:55Z</time>
      </trkpt>
      <trkpt lat="43.68815" lon="3.76047">
        <ele>271.4</ele>
        <time>2019-07-07T07:35:56Z</time>
      </trkpt>
      <trkpt lat="43.68816" lon="3.76043">
        <ele>271.4</ele>
        <time>2019-07-07T07:35:57Z</time>
      </trkpt>
      <trkpt lat="43.68815" lon="3.76039">
        <ele>271.3</ele>
        <time>2019-07-07T07:35:58Z</time>
      </trkpt>
      <trkpt lat="43.68812" lon="3.76028">
        <ele>271.2</ele>
        <time>2019-07-07T07:36:01Z</time>
      </trkpt>
      <trkpt lat="43.68812" lon="3.76024">
        <ele>271.1</ele>
        <time>2019-07-07T07:36:02Z</time>
      </trkpt>
      <trkpt lat="43.68811" lon="3.7602">
        <ele>271.1</ele>
        <time>2019-07-07T07:36:03Z</time>
      </trkpt>
      <trkpt lat="43.68807" lon="3.76012">
        <ele>271</ele>
        <time>2019-07-07T07:36:05Z</time>
      </trkpt>
      <trkpt lat="43.68806" lon="3.76008">
        <ele>271</ele>
        <time>2019-07-07T07:36:06Z</time>
      </trkpt>
      <trkpt lat="43.68802" lon="3.76004">
        <ele>270.9</ele>
        <time>2019-07-07T07:36:07Z</time>
      </trkpt>
      <trkpt lat="43.68799" lon="3.76">
        <ele>270.8</ele>
        <time>2019-07-07T07:36:08Z</time>
      </trkpt>
      <trkpt lat="43.68796" lon="3.75997">
        <ele>270.6</ele>
        <time>2019-07-07T07:36:09Z</time>
      </trkpt>
      <trkpt lat="43.68794" lon="3.75992">
        <ele>270.4</ele>
        <time>2019-07-07T07:36:10Z</time>
      </trkpt>
      <trkpt lat="43.68792" lon="3.75988">
        <ele>270.3</ele>
        <time>2019-07-07T07:36:11Z</time>
      </trkpt>
      <trkpt lat="43.68789" lon="3.75984">
        <ele>270.1</ele>
        <time>2019-07-07T07:36:12Z</time>
      </trkpt>
      <trkpt lat="43.68785" lon="3.75981">
        <ele>269.9</ele>
        <time>2019-07-07T07:36:13Z</time>
      </trkpt>
      <trkpt lat="43.68783" lon="3.75978">
        <ele>269.7</ele>
        <time>2019-07-07T07:36:14Z</time>
      </trkpt>
      <trkpt lat="43.6878" lon="3.75974">
        <ele>269.5</ele>
        <time>2019-07-07T07:36:15Z</time>
      </trkpt>
      <trkpt lat="43.68777" lon="3.7597">
        <ele>269.4</ele>
        <time>2019-07-07T07:36:16Z</time>
      </trkpt>
      <trkpt lat="43.68775" lon="3.75966">
        <ele>269.2</ele>
        <time>2019-07-07T07:36:17Z</time>
      </trkpt>
      <trkpt lat="43.68772" lon="3.75961">
        <ele>269.1</ele>
        <time>2019-07-07T07:36:18Z</time>
      </trkpt>
      <trkpt lat="43.68769" lon="3.75956">
        <ele>269</ele>
        <time>2019-07-07T07:36:19Z</time>
      </trkpt>
      <trkpt lat="43.68767" lon="3.7595">
        <ele>268.9</ele>
        <time>2019-07-07T07:36:20Z</time>
      </trkpt>
      <trkpt lat="43.68767" lon="3.7594">
        <ele>268.8</ele>
        <time>2019-07-07T07:36:22Z</time>
      </trkpt>
      <trkpt lat="43.68766" lon="3.75934">
        <ele>268.8</ele>
        <time>2019-07-07T07:36:23Z</time>
      </trkpt>
      <trkpt lat="43.68765" lon="3.7593">
        <ele>268.8</ele>
        <time>2019-07-07T07:36:24Z</time>
      </trkpt>
      <trkpt lat="43.68765" lon="3.75924">
        <ele>268.8</ele>
        <time>2019-07-07T07:36:25Z</time>
      </trkpt>
      <trkpt lat="43.68763" lon="3.75919">
        <ele>268.8</ele>
        <time>2019-07-07T07:36:26Z</time>
      </trkpt>
      <trkpt lat="43.68763" lon="3.75914">
        <ele>268.8</ele>
        <time>2019-07-07T07:36:27Z</time>
      </trkpt>
      <trkpt lat="43.68762" lon="3.7591">
        <ele>268.8</ele>
        <time>2019-07-07T07:36:28Z</time>
      </trkpt>
      <trkpt lat="43.68761" lon="3.75906">
        <ele>268.9</ele>
        <time>2019-07-07T07:36:29Z</time>
      </trkpt>
      <trkpt lat="43.6876" lon="3.75901">
        <ele>268.9</ele>
        <time>2019-07-07T07:36:30Z</time>
      </trkpt>
      <trkpt lat="43.68757" lon="3.75898">
        <ele>268.9</ele>
        <time>2019-07-07T07:36:31Z</time>
      </trkpt>
      <trkpt lat="43.68755" lon="3.75893">
        <ele>268.9</ele>
        <time>2019-07-07T07:36:32Z</time>
      </trkpt>
      <trkpt lat="43.68754" lon="3.75889">
        <ele>268.9</ele>
        <time>2019-07-07T07:36:33Z</time>
      </trkpt>
      <trkpt lat="43.68753" lon="3.75885">
        <ele>268.9</ele>
        <time>2019-07-07T07:36:34Z</time>
      </trkpt>
      <trkpt lat="43.68752" lon="3.7588">
        <ele>268.9</ele>
        <time>2019-07-07T07:36:35Z</time>
      </trkpt>
      <trkpt lat="43.68749" lon="3.75876">
        <ele>268.9</ele>
        <time>2019-07-07T07:36:36Z</time>
      </trkpt>
      <trkpt lat="43.68747" lon="3.75872">
        <ele>268.9</ele>
        <time>2019-07-07T07:36:37Z</time>
      </trkpt>
      <trkpt lat="43.68745" lon="3.75869">
        <ele>268.8</ele>
        <time>2019-07-07T07:36:38Z</time>
      </trkpt>
      <trkpt lat="43.68742" lon="3.75865">
        <ele>268.8</ele>
        <time>2019-07-07T07:36:39Z</time>
      </trkpt>
      <trkpt lat="43.6874" lon="3.75861">
        <ele>268.8</ele>
        <time>2019-07-07T07:36:40Z</time>
      </trkpt>
      <trkpt lat="43.68737" lon="3.75857">
        <ele>268.7</ele>
        <time>2019-07-07T07:36:41Z</time>
      </trkpt>
      <trkpt lat="43.68733" lon="3.75854">
        <ele>268.7</ele>
        <time>2019-07-07T07:36:42Z</time>
      </trkpt>
      <trkpt lat="43.68729" lon="3.75852">
        <ele>268.7</ele>
        <time>2019-07-07T07:36:43Z</time>
      </trkpt>
      <trkpt lat="43.68725" lon="3.75849">
        <ele>268.6</ele>
        <time>2019-07-07T07:36:44Z</time>
      </trkpt>
      <trkpt lat="43.68721" lon="3.75845">
        <ele>268.6</ele>
        <time>2019-07-07T07:36:45Z</time>
      </trkpt>
      <trkpt lat="43.68718" lon="3.75842">
        <ele>268.6</ele>
        <time>2019-07-07T07:36:46Z</time>
      </trkpt>
      <trkpt lat="43.68714" lon="3.75838">
        <ele>268.6</ele>
        <time>2019-07-07T07:36:47Z</time>
      </trkpt>
      <trkpt lat="43.68711" lon="3.75833">
        <ele>268.5</ele>
        <time>2019-07-07T07:36:48Z</time>
      </trkpt>
      <trkpt lat="43.68708" lon="3.7583">
        <ele>268.5</ele>
        <time>2019-07-07T07:36:49Z</time>
      </trkpt>
      <trkpt lat="43.68704" lon="3.75826">
        <ele>268.6</ele>
        <time>2019-07-07T07:36:50Z</time>
      </trkpt>
      <trkpt lat="43.68701" lon="3.75822">
        <ele>268.6</ele>
        <time>2019-07-07T07:36:51Z</time>
      </trkpt>
      <trkpt lat="43.68699" lon="3.75818">
        <ele>268.6</ele>
        <time>2019-07-07T07:36:52Z</time>
      </trkpt>
      <trkpt lat="43.68695" lon="3.75813">
        <ele>268.6</ele>
        <time>2019-07-07T07:36:53Z</time>
      </trkpt>
      <trkpt lat="43.68691" lon="3.75809">
        <ele>268.7</ele>
        <time>2019-07-07T07:36:54Z</time>
      </trkpt>
      <trkpt lat="43.68686" lon="3.75807">
        <ele>268.7</ele>
        <time>2019-07-07T07:36:55Z</time>
      </trkpt>
      <trkpt lat="43.68681" lon="3.75805">
        <ele>268.8</ele>
        <time>2019-07-07T07:36:56Z</time>
      </trkpt>
      <trkpt lat="43.68676" lon="3.75804">
        <ele>268.9</ele>
        <time>2019-07-07T07:36:57Z</time>
      </trkpt>
      <trkpt lat="43.68671" lon="3.75803">
        <ele>269.1</ele>
        <time>2019-07-07T07:36:58Z</time>
      </trkpt>
      <trkpt lat="43.68665" lon="3.75805">
        <ele>269.4</ele>
        <time>2019-07-07T07:36:59Z</time>
      </trkpt>
      <trkpt lat="43.68659" lon="3.75806">
        <ele>269.6</ele>
        <time>2019-07-07T07:37:00Z</time>
      </trkpt>
      <trkpt lat="43.68652" lon="3.75809">
        <ele>269.9</ele>
        <time>2019-07-07T07:37:01Z</time>
      </trkpt>
      <trkpt lat="43.68646" lon="3.75811">
        <ele>270.2</ele>
        <time>2019-07-07T07:37:02Z</time>
      </trkpt>
      <trkpt lat="43.6864" lon="3.75815">
        <ele>270.4</ele>
        <time>2019-07-07T07:37:03Z</time>
      </trkpt>
      <trkpt lat="43.68635" lon="3.75818">
        <ele>270.6</ele>
        <time>2019-07-07T07:37:04Z</time>
      </trkpt>
      <trkpt lat="43.68629" lon="3.75821">
        <ele>270.9</ele>
        <time>2019-07-07T07:37:05Z</time>
      </trkpt>
      <trkpt lat="43.68625" lon="3.75826">
        <ele>271.2</ele>
        <time>2019-07-07T07:37:06Z</time>
      </trkpt>
      <trkpt lat="43.68621" lon="3.75831">
        <ele>271</ele>
        <time>2019-07-07T07:37:07Z</time>
      </trkpt>
      <trkpt lat="43.68619" lon="3.75837">
        <ele>270.9</ele>
        <time>2019-07-07T07:37:08Z</time>
      </trkpt>
      <trkpt lat="43.68622" lon="3.75842">
        <ele>270.8</ele>
        <time>2019-07-07T07:37:09Z</time>
      </trkpt>
      <trkpt lat="43.68624" lon="3.75846">
        <ele>270.6</ele>
        <time>2019-07-07T07:37:10Z</time>
      </trkpt>
      <trkpt lat="43.68627" lon="3.75849">
        <ele>270.5</ele>
        <time>2019-07-07T07:37:11Z</time>
      </trkpt>
      <trkpt lat="43.68628" lon="3.75853">
        <ele>270.3</ele>
        <time>2019-07-07T07:37:12Z</time>
      </trkpt>
      <trkpt lat="43.6863" lon="3.75856">
        <ele>270.1</ele>
        <time>2019-07-07T07:37:13Z</time>
      </trkpt>
      <trkpt lat="43.68636" lon="3.7586">
        <ele>269.7</ele>
        <time>2019-07-07T07:37:14Z</time>
      </trkpt>
      <trkpt lat="43.6864" lon="3.75865">
        <ele>269.3</ele>
        <time>2019-07-07T07:37:15Z</time>
      </trkpt>
      <trkpt lat="43.68644" lon="3.75869">
        <ele>269</ele>
        <time>2019-07-07T07:37:16Z</time>
      </trkpt>
      <trkpt lat="43.68647" lon="3.7587">
        <ele>268.8</ele>
        <time>2019-07-07T07:37:17Z</time>
      </trkpt>
      <trkpt lat="43.68652" lon="3.7587">
        <ele>268.3</ele>
        <time>2019-07-07T07:37:18Z</time>
      </trkpt>
      <trkpt lat="43.68655" lon="3.75871">
        <ele>267.9</ele>
        <time>2019-07-07T07:37:19Z</time>
      </trkpt>
      <trkpt lat="43.68659" lon="3.75873">
        <ele>267.3</ele>
        <time>2019-07-07T07:37:20Z</time>
      </trkpt>
      <trkpt lat="43.68662" lon="3.75878">
        <ele>266.6</ele>
        <time>2019-07-07T07:37:21Z</time>
      </trkpt>
      <trkpt lat="43.68664" lon="3.75882">
        <ele>266.2</ele>
        <time>2019-07-07T07:37:22Z</time>
      </trkpt>
      <trkpt lat="43.68662" lon="3.75888">
        <ele>265.6</ele>
        <time>2019-07-07T07:37:23Z</time>
      </trkpt>
      <trkpt lat="43.68661" lon="3.75893">
        <ele>265.2</ele>
        <time>2019-07-07T07:37:24Z</time>
      </trkpt>
      <trkpt lat="43.68658" lon="3.75898">
        <ele>264.6</ele>
        <time>2019-07-07T07:37:25Z</time>
      </trkpt>
      <trkpt lat="43.68659" lon="3.75905">
        <ele>263.8</ele>
        <time>2019-07-07T07:37:26Z</time>
      </trkpt>
      <trkpt lat="43.6866" lon="3.75912">
        <ele>263</ele>
        <time>2019-07-07T07:37:27Z</time>
      </trkpt>
      <trkpt lat="43.68656" lon="3.75922">
        <ele>261.8</ele>
        <time>2019-07-07T07:37:28Z</time>
      </trkpt>
      <trkpt lat="43.68656" lon="3.7593">
        <ele>261</ele>
        <time>2019-07-07T07:37:29Z</time>
      </trkpt>
      <trkpt lat="43.68655" lon="3.75938">
        <ele>260.4</ele>
        <time>2019-07-07T07:37:30Z</time>
      </trkpt>
      <trkpt lat="43.68656" lon="3.75947">
        <ele>259.6</ele>
        <time>2019-07-07T07:37:31Z</time>
      </trkpt>
      <trkpt lat="43.68657" lon="3.75952">
        <ele>259.1</ele>
        <time>2019-07-07T07:37:32Z</time>
      </trkpt>
      <trkpt lat="43.68658" lon="3.75959">
        <ele>258.4</ele>
        <time>2019-07-07T07:37:33Z</time>
      </trkpt>
      <trkpt lat="43.68657" lon="3.75966">
        <ele>257.7</ele>
        <time>2019-07-07T07:37:34Z</time>
      </trkpt>
      <trkpt lat="43.68656" lon="3.75976">
        <ele>256.9</ele>
        <time>2019-07-07T07:37:35Z</time>
      </trkpt>
      <trkpt lat="43.68654" lon="3.75982">
        <ele>256.3</ele>
        <time>2019-07-07T07:37:36Z</time>
      </trkpt>
      <trkpt lat="43.68654" lon="3.7599">
        <ele>255.7</ele>
        <time>2019-07-07T07:37:37Z</time>
      </trkpt>
      <trkpt lat="43.68654" lon="3.75999">
        <ele>255</ele>
        <time>2019-07-07T07:37:38Z</time>
      </trkpt>
      <trkpt lat="43.68653" lon="3.76008">
        <ele>254.2</ele>
        <time>2019-07-07T07:37:39Z</time>
      </trkpt>
      <trkpt lat="43.68651" lon="3.76015">
        <ele>253.6</ele>
        <time>2019-07-07T07:37:40Z</time>
      </trkpt>
      <trkpt lat="43.68649" lon="3.76023">
        <ele>252.9</ele>
        <time>2019-07-07T07:37:41Z</time>
      </trkpt>
      <trkpt lat="43.6865" lon="3.76031">
        <ele>251.9</ele>
        <time>2019-07-07T07:37:42Z</time>
      </trkpt>
      <trkpt lat="43.68649" lon="3.76042">
        <ele>251</ele>
        <time>2019-07-07T07:37:43Z</time>
      </trkpt>
      <trkpt lat="43.68647" lon="3.76052">
        <ele>249.9</ele>
        <time>2019-07-07T07:37:44Z</time>
      </trkpt>
      <trkpt lat="43.68643" lon="3.76061">
        <ele>248.9</ele>
        <time>2019-07-07T07:37:45Z</time>
      </trkpt>
      <trkpt lat="43.68638" lon="3.76068">
        <ele>247.9</ele>
        <time>2019-07-07T07:37:46Z</time>
      </trkpt>
      <trkpt lat="43.68637" lon="3.76078">
        <ele>247.1</ele>
        <time>2019-07-07T07:37:47Z</time>
      </trkpt>
      <trkpt lat="43.68635" lon="3.76083">
        <ele>246.6</ele>
        <time>2019-07-07T07:37:48Z</time>
      </trkpt>
      <trkpt lat="43.68635" lon="3.7609">
        <ele>245.9</ele>
        <time>2019-07-07T07:37:49Z</time>
      </trkpt>
      <trkpt lat="43.68634" lon="3.76097">
        <ele>245.2</ele>
        <time>2019-07-07T07:37:50Z</time>
      </trkpt>
      <trkpt lat="43.68634" lon="3.76105">
        <ele>244.4</ele>
        <time>2019-07-07T07:37:51Z</time>
      </trkpt>
      <trkpt lat="43.68635" lon="3.76112">
        <ele>243.7</ele>
        <time>2019-07-07T07:37:52Z</time>
      </trkpt>
      <trkpt lat="43.68637" lon="3.76119">
        <ele>243</ele>
        <time>2019-07-07T07:37:53Z</time>
      </trkpt>
      <trkpt lat="43.68641" lon="3.76129">
        <ele>242</ele>
        <time>2019-07-07T07:37:54Z</time>
      </trkpt>
      <trkpt lat="43.68642" lon="3.76135">
        <ele>241.2</ele>
        <time>2019-07-07T07:37:55Z</time>
      </trkpt>
      <trkpt lat="43.68644" lon="3.76141">
        <ele>240.4</ele>
        <time>2019-07-07T07:37:56Z</time>
      </trkpt>
      <trkpt lat="43.68648" lon="3.76148">
        <ele>239.5</ele>
        <time>2019-07-07T07:37:57Z</time>
      </trkpt>
      <trkpt lat="43.6865" lon="3.76153">
        <ele>239</ele>
        <time>2019-07-07T07:37:58Z</time>
      </trkpt>
      <trkpt lat="43.6865" lon="3.7616">
        <ele>238.6</ele>
        <time>2019-07-07T07:37:59Z</time>
      </trkpt>
      <trkpt lat="43.68652" lon="3.76167">
        <ele>238</ele>
        <time>2019-07-07T07:38:00Z</time>
      </trkpt>
      <trkpt lat="43.68654" lon="3.76173">
        <ele>237.4</ele>
        <time>2019-07-07T07:38:01Z</time>
      </trkpt>
      <trkpt lat="43.68655" lon="3.76185">
        <ele>236.2</ele>
        <time>2019-07-07T07:38:02Z</time>
      </trkpt>
      <trkpt lat="43.68659" lon="3.76193">
        <ele>235.3</ele>
        <time>2019-07-07T07:38:03Z</time>
      </trkpt>
      <trkpt lat="43.68658" lon="3.762">
        <ele>234.7</ele>
        <time>2019-07-07T07:38:04Z</time>
      </trkpt>
      <trkpt lat="43.68659" lon="3.76206">
        <ele>234.3</ele>
        <time>2019-07-07T07:38:05Z</time>
      </trkpt>
      <trkpt lat="43.6866" lon="3.76216">
        <ele>233.4</ele>
        <time>2019-07-07T07:38:06Z</time>
      </trkpt>
      <trkpt lat="43.68661" lon="3.76225">
        <ele>232.7</ele>
        <time>2019-07-07T07:38:07Z</time>
      </trkpt>
      <trkpt lat="43.68659" lon="3.76233">
        <ele>232.1</ele>
        <time>2019-07-07T07:38:08Z</time>
      </trkpt>
      <trkpt lat="43.68658" lon="3.76245">
        <ele>230.9</ele>
        <time>2019-07-07T07:38:09Z</time>
      </trkpt>
      <trkpt lat="43.68657" lon="3.76252">
        <ele>230.3</ele>
        <time>2019-07-07T07:38:10Z</time>
      </trkpt>
      <trkpt lat="43.68656" lon="3.76259">
        <ele>229.6</ele>
        <time>2019-07-07T07:38:11Z</time>
      </trkpt>
      <trkpt lat="43.68656" lon="3.76273">
        <ele>228.3</ele>
        <time>2019-07-07T07:38:12Z</time>
      </trkpt>
      <trkpt lat="43.68657" lon="3.76288">
        <ele>226.7</ele>
        <time>2019-07-07T07:38:13Z</time>
      </trkpt>
      <trkpt lat="43.68656" lon="3.76298">
        <ele>225.8</ele>
        <time>2019-07-07T07:38:14Z</time>
      </trkpt>
      <trkpt lat="43.68656" lon="3.76308">
        <ele>224.9</ele>
        <time>2019-07-07T07:38:15Z</time>
      </trkpt>
      <trkpt lat="43.68655" lon="3.76319">
        <ele>224.3</ele>
        <time>2019-07-07T07:38:16Z</time>
      </trkpt>
      <trkpt lat="43.68654" lon="3.7633">
        <ele>223.8</ele>
        <time>2019-07-07T07:38:17Z</time>
      </trkpt>
      <trkpt lat="43.68654" lon="3.76341">
        <ele>223.2</ele>
        <time>2019-07-07T07:38:18Z</time>
      </trkpt>
      <trkpt lat="43.68651" lon="3.7635">
        <ele>222.5</ele>
        <time>2019-07-07T07:38:19Z</time>
      </trkpt>
      <trkpt lat="43.6865" lon="3.76359">
        <ele>221.9</ele>
        <time>2019-07-07T07:38:20Z</time>
      </trkpt>
      <trkpt lat="43.68649" lon="3.76367">
        <ele>221.2</ele>
        <time>2019-07-07T07:38:21Z</time>
      </trkpt>
      <trkpt lat="43.68649" lon="3.76376">
        <ele>220.5</ele>
        <time>2019-07-07T07:38:22Z</time>
      </trkpt>
      <trkpt lat="43.68646" lon="3.76384">
        <ele>219.9</ele>
        <time>2019-07-07T07:38:23Z</time>
      </trkpt>
      <trkpt lat="43.68647" lon="3.76394">
        <ele>219.4</ele>
        <time>2019-07-07T07:38:24Z</time>
      </trkpt>
      <trkpt lat="43.68647" lon="3.76401">
        <ele>218.9</ele>
        <time>2019-07-07T07:38:25Z</time>
      </trkpt>
      <trkpt lat="43.6865" lon="3.76408">
        <ele>218.3</ele>
        <time>2019-07-07T07:38:26Z</time>
      </trkpt>
      <trkpt lat="43.6865" lon="3.76415">
        <ele>217.9</ele>
        <time>2019-07-07T07:38:27Z</time>
      </trkpt>
      <trkpt lat="43.68652" lon="3.76422">
        <ele>217.5</ele>
        <time>2019-07-07T07:38:28Z</time>
      </trkpt>
      <trkpt lat="43.68649" lon="3.76429">
        <ele>217.1</ele>
        <time>2019-07-07T07:38:29Z</time>
      </trkpt>
      <trkpt lat="43.68648" lon="3.76436">
        <ele>216.6</ele>
        <time>2019-07-07T07:38:30Z</time>
      </trkpt>
      <trkpt lat="43.68649" lon="3.76442">
        <ele>216.3</ele>
        <time>2019-07-07T07:38:31Z</time>
      </trkpt>
      <trkpt lat="43.68649" lon="3.76447">
        <ele>215.9</ele>
        <time>2019-07-07T07:38:32Z</time>
      </trkpt>
      <trkpt lat="43.6865" lon="3.76453">
        <ele>215.4</ele>
        <time>2019-07-07T07:38:33Z</time>
      </trkpt>
      <trkpt lat="43.68649" lon="3.76459">
        <ele>215</ele>
        <time>2019-07-07T07:38:34Z</time>
      </trkpt>
      <trkpt lat="43.68649" lon="3.76466">
        <ele>214.5</ele>
        <time>2019-07-07T07:38:35Z</time>
      </trkpt>
      <trkpt lat="43.6865" lon="3.76472">
        <ele>214</ele>
        <time>2019-07-07T07:38:36Z</time>
      </trkpt>
      <trkpt lat="43.68649" lon="3.76478">
        <ele>213.5</ele>
        <time>2019-07-07T07:38:37Z</time>
      </trkpt>
      <trkpt lat="43.68649" lon="3.76484">
        <ele>212.8</ele>
        <time>2019-07-07T07:38:38Z</time>
      </trkpt>
      <trkpt lat="43.68646" lon="3.76489">
        <ele>212.1</ele>
        <time>2019-07-07T07:38:39Z</time>
      </trkpt>
      <trkpt lat="43.68644" lon="3.76495">
        <ele>211.5</ele>
        <time>2019-07-07T07:38:40Z</time>
      </trkpt>
      <trkpt lat="43.68639" lon="3.76501">
        <ele>210.6</ele>
        <time>2019-07-07T07:38:41Z</time>
      </trkpt>
      <trkpt lat="43.68634" lon="3.76508">
        <ele>209.8</ele>
        <time>2019-07-07T07:38:42Z</time>
      </trkpt>
      <trkpt lat="43.68634" lon="3.76513">
        <ele>209.4</ele>
        <time>2019-07-07T07:38:45Z</time>
      </trkpt>
      <trkpt lat="43.6863" lon="3.76517">
        <ele>208.8</ele>
        <time>2019-07-07T07:38:47Z</time>
      </trkpt>
      <trkpt lat="43.68628" lon="3.76521">
        <ele>208.5</ele>
        <time>2019-07-07T07:38:48Z</time>
      </trkpt>
      <trkpt lat="43.68626" lon="3.76524">
        <ele>208.3</ele>
        <time>2019-07-07T07:38:49Z</time>
      </trkpt>
      <trkpt lat="43.68623" lon="3.76527">
        <ele>208</ele>
        <time>2019-07-07T07:38:50Z</time>
      </trkpt>
      <trkpt lat="43.68621" lon="3.76532">
        <ele>207.7</ele>
        <time>2019-07-07T07:38:51Z</time>
      </trkpt>
      <trkpt lat="43.68622" lon="3.76538">
        <ele>207.4</ele>
        <time>2019-07-07T07:38:52Z</time>
      </trkpt>
      <trkpt lat="43.68617" lon="3.76544">
        <ele>206.7</ele>
        <time>2019-07-07T07:38:53Z</time>
      </trkpt>
      <trkpt lat="43.68612" lon="3.7655">
        <ele>206.1</ele>
        <time>2019-07-07T07:38:54Z</time>
      </trkpt>
      <trkpt lat="43.68608" lon="3.76555">
        <ele>205.4</ele>
        <time>2019-07-07T07:38:55Z</time>
      </trkpt>
      <trkpt lat="43.68604" lon="3.76562">
        <ele>204.7</ele>
        <time>2019-07-07T07:38:56Z</time>
      </trkpt>
      <trkpt lat="43.68601" lon="3.76568">
        <ele>202.8</ele>
        <time>2019-07-07T07:38:57Z</time>
      </trkpt>
      <trkpt lat="43.686" lon="3.76575">
        <ele>202</ele>
        <time>2019-07-07T07:38:58Z</time>
      </trkpt>
      <trkpt lat="43.686" lon="3.76581">
        <ele>201.4</ele>
        <time>2019-07-07T07:38:59Z</time>
      </trkpt>
      <trkpt lat="43.68599" lon="3.76586">
        <ele>200.8</ele>
        <time>2019-07-07T07:39:00Z</time>
      </trkpt>
      <trkpt lat="43.68599" lon="3.7659">
        <ele>200.3</ele>
        <time>2019-07-07T07:39:01Z</time>
      </trkpt>
      <trkpt lat="43.68597" lon="3.76595">
        <ele>199.7</ele>
        <time>2019-07-07T07:39:03Z</time>
      </trkpt>
      <trkpt lat="43.68593" lon="3.76601">
        <ele>198.5</ele>
        <time>2019-07-07T07:39:05Z</time>
      </trkpt>
      <trkpt lat="43.68591" lon="3.76603">
        <ele>198.1</ele>
        <time>2019-07-07T07:39:14Z</time>
      </trkpt>
      <trkpt lat="43.68589" lon="3.76605">
        <ele>197.7</ele>
        <time>2019-07-07T07:39:39Z</time>
      </trkpt>
      <trkpt lat="43.68586" lon="3.76607">
        <ele>197.2</ele>
        <time>2019-07-07T07:39:44Z</time>
      </trkpt>
      <trkpt lat="43.68584" lon="3.7661">
        <ele>196.8</ele>
        <time>2019-07-07T07:40:11Z</time>
      </trkpt>
      <trkpt lat="43.68582" lon="3.76612">
        <ele>196.4</ele>
        <time>2019-07-07T07:40:12Z</time>
      </trkpt>
      <trkpt lat="43.68578" lon="3.76615">
        <ele>195.7</ele>
        <time>2019-07-07T07:40:13Z</time>
      </trkpt>
      <trkpt lat="43.68574" lon="3.76618">
        <ele>195.1</ele>
        <time>2019-07-07T07:40:14Z</time>
      </trkpt>
      <trkpt lat="43.6857" lon="3.76621">
        <ele>194.4</ele>
        <time>2019-07-07T07:40:15Z</time>
      </trkpt>
      <trkpt lat="43.68567" lon="3.76625">
        <ele>193.7</ele>
        <time>2019-07-07T07:40:16Z</time>
      </trkpt>
      <trkpt lat="43.68561" lon="3.76629">
        <ele>192.7</ele>
        <time>2019-07-07T07:40:17Z</time>
      </trkpt>
      <trkpt lat="43.68554" lon="3.76632">
        <ele>191.8</ele>
        <time>2019-07-07T07:40:18Z</time>
      </trkpt>
      <trkpt lat="43.68548" lon="3.76634">
        <ele>191.1</ele>
        <time>2019-07-07T07:40:19Z</time>
      </trkpt>
      <trkpt lat="43.68544" lon="3.76637">
        <ele>190.5</ele>
        <time>2019-07-07T07:40:20Z</time>
      </trkpt>
      <trkpt lat="43.68539" lon="3.76637">
        <ele>190</ele>
        <time>2019-07-07T07:40:21Z</time>
      </trkpt>
      <trkpt lat="43.68534" lon="3.76637">
        <ele>189.4</ele>
        <time>2019-07-07T07:40:22Z</time>
      </trkpt>
      <trkpt lat="43.68527" lon="3.76638">
        <ele>188.8</ele>
        <time>2019-07-07T07:40:23Z</time>
      </trkpt>
      <trkpt lat="43.68522" lon="3.7664">
        <ele>188.3</ele>
        <time>2019-07-07T07:40:24Z</time>
      </trkpt>
      <trkpt lat="43.68515" lon="3.76644">
        <ele>187.2</ele>
        <time>2019-07-07T07:40:25Z</time>
      </trkpt>
      <trkpt lat="43.68507" lon="3.76646">
        <ele>185.5</ele>
        <time>2019-07-07T07:40:26Z</time>
      </trkpt>
      <trkpt lat="43.68502" lon="3.76653">
        <ele>184.6</ele>
        <time>2019-07-07T07:40:27Z</time>
      </trkpt>
      <trkpt lat="43.68495" lon="3.76656">
        <ele>183.7</ele>
        <time>2019-07-07T07:40:28Z</time>
      </trkpt>
      <trkpt lat="43.68488" lon="3.76658">
        <ele>182.7</ele>
        <time>2019-07-07T07:40:29Z</time>
      </trkpt>
      <trkpt lat="43.68482" lon="3.76662">
        <ele>181.9</ele>
        <time>2019-07-07T07:40:30Z</time>
      </trkpt>
      <trkpt lat="43.68479" lon="3.76668">
        <ele>181.3</ele>
        <time>2019-07-07T07:40:31Z</time>
      </trkpt>
      <trkpt lat="43.68476" lon="3.76676">
        <ele>180.6</ele>
        <time>2019-07-07T07:40:32Z</time>
      </trkpt>
      <trkpt lat="43.68475" lon="3.76684">
        <ele>180</ele>
        <time>2019-07-07T07:40:33Z</time>
      </trkpt>
      <trkpt lat="43.68472" lon="3.76693">
        <ele>179</ele>
        <time>2019-07-07T07:40:34Z</time>
      </trkpt>
      <trkpt lat="43.68469" lon="3.76701">
        <ele>178</ele>
        <time>2019-07-07T07:40:35Z</time>
      </trkpt>
      <trkpt lat="43.68467" lon="3.76709">
        <ele>177.2</ele>
        <time>2019-07-07T07:40:36Z</time>
      </trkpt>
      <trkpt lat="43.68464" lon="3.76717">
        <ele>176.4</ele>
        <time>2019-07-07T07:40:37Z</time>
      </trkpt>
      <trkpt lat="43.6846" lon="3.76723">
        <ele>175.5</ele>
        <time>2019-07-07T07:40:38Z</time>
      </trkpt>
      <trkpt lat="43.68454" lon="3.76729">
        <ele>174.4</ele>
        <time>2019-07-07T07:40:39Z</time>
      </trkpt>
      <trkpt lat="43.68448" lon="3.76732">
        <ele>173.3</ele>
        <time>2019-07-07T07:40:40Z</time>
      </trkpt>
      <trkpt lat="43.68442" lon="3.76736">
        <ele>172.4</ele>
        <time>2019-07-07T07:40:41Z</time>
      </trkpt>
      <trkpt lat="43.68436" lon="3.76741">
        <ele>171.5</ele>
        <time>2019-07-07T07:40:42Z</time>
      </trkpt>
      <trkpt lat="43.68431" lon="3.76746">
        <ele>170.9</ele>
        <time>2019-07-07T07:40:43Z</time>
      </trkpt>
      <trkpt lat="43.68426" lon="3.76751">
        <ele>170.2</ele>
        <time>2019-07-07T07:40:44Z</time>
      </trkpt>
      <trkpt lat="43.68422" lon="3.76758">
        <ele>169.7</ele>
        <time>2019-07-07T07:40:45Z</time>
      </trkpt>
      <trkpt lat="43.68419" lon="3.76763">
        <ele>169.1</ele>
        <time>2019-07-07T07:40:46Z</time>
      </trkpt>
      <trkpt lat="43.68414" lon="3.76765">
        <ele>168.6</ele>
        <time>2019-07-07T07:40:47Z</time>
      </trkpt>
      <trkpt lat="43.6841" lon="3.7677">
        <ele>168.1</ele>
        <time>2019-07-07T07:40:49Z</time>
      </trkpt>
      <trkpt lat="43.68403" lon="3.76771">
        <ele>167.4</ele>
        <time>2019-07-07T07:40:50Z</time>
      </trkpt>
      <trkpt lat="43.68394" lon="3.76773">
        <ele>166.6</ele>
        <time>2019-07-07T07:40:51Z</time>
      </trkpt>
      <trkpt lat="43.6839" lon="3.76778">
        <ele>166.1</ele>
        <time>2019-07-07T07:40:52Z</time>
      </trkpt>
      <trkpt lat="43.68384" lon="3.76777">
        <ele>165.4</ele>
        <time>2019-07-07T07:40:53Z</time>
      </trkpt>
      <trkpt lat="43.68381" lon="3.76779">
        <ele>165.2</ele>
        <time>2019-07-07T07:40:54Z</time>
      </trkpt>
      <trkpt lat="43.68375" lon="3.76781">
        <ele>164.9</ele>
        <time>2019-07-07T07:40:55Z</time>
      </trkpt>
      <trkpt lat="43.6837" lon="3.76781">
        <ele>164.6</ele>
        <time>2019-07-07T07:40:56Z</time>
      </trkpt>
      <trkpt lat="43.68363" lon="3.76782">
        <ele>164.2</ele>
        <time>2019-07-07T07:40:57Z</time>
      </trkpt>
      <trkpt lat="43.68357" lon="3.76782">
        <ele>163.6</ele>
        <time>2019-07-07T07:40:58Z</time>
      </trkpt>
      <trkpt lat="43.68351" lon="3.76783">
        <ele>163.2</ele>
        <time>2019-07-07T07:40:59Z</time>
      </trkpt>
      <trkpt lat="43.68346" lon="3.76783">
        <ele>162.9</ele>
        <time>2019-07-07T07:41:00Z</time>
      </trkpt>
      <trkpt lat="43.68341" lon="3.76783">
        <ele>162.6</ele>
        <time>2019-07-07T07:41:01Z</time>
      </trkpt>
      <trkpt lat="43.68335" lon="3.76784">
        <ele>162.3</ele>
        <time>2019-07-07T07:41:02Z</time>
      </trkpt>
      <trkpt lat="43.6833" lon="3.76785">
        <ele>162.1</ele>
        <time>2019-07-07T07:41:03Z</time>
      </trkpt>
      <trkpt lat="43.68325" lon="3.76788">
        <ele>161.8</ele>
        <time>2019-07-07T07:41:04Z</time>
      </trkpt>
      <trkpt lat="43.6832" lon="3.7679">
        <ele>161.4</ele>
        <time>2019-07-07T07:41:05Z</time>
      </trkpt>
      <trkpt lat="43.68315" lon="3.76793">
        <ele>161.1</ele>
        <time>2019-07-07T07:41:06Z</time>
      </trkpt>
      <trkpt lat="43.68308" lon="3.76795">
        <ele>160.8</ele>
        <time>2019-07-07T07:41:07Z</time>
      </trkpt>
      <trkpt lat="43.68304" lon="3.76796">
        <ele>160.5</ele>
        <time>2019-07-07T07:41:08Z</time>
      </trkpt>
      <trkpt lat="43.68299" lon="3.76799">
        <ele>160.2</ele>
        <time>2019-07-07T07:41:09Z</time>
      </trkpt>
      <trkpt lat="43.68295" lon="3.76802">
        <ele>159.9</ele>
        <time>2019-07-07T07:41:10Z</time>
      </trkpt>
      <trkpt lat="43.6829" lon="3.76804">
        <ele>159.7</ele>
        <time>2019-07-07T07:41:11Z</time>
      </trkpt>
      <trkpt lat="43.68285" lon="3.76803">
        <ele>159.4</ele>
        <time>2019-07-07T07:41:12Z</time>
      </trkpt>
      <trkpt lat="43.6828" lon="3.76803">
        <ele>159.1</ele>
        <time>2019-07-07T07:41:13Z</time>
      </trkpt>
      <trkpt lat="43.68274" lon="3.76803">
        <ele>158.9</ele>
        <time>2019-07-07T07:41:14Z</time>
      </trkpt>
      <trkpt lat="43.6827" lon="3.76802">
        <ele>158.7</ele>
        <time>2019-07-07T07:41:15Z</time>
      </trkpt>
      <trkpt lat="43.68266" lon="3.76803">
        <ele>158.5</ele>
        <time>2019-07-07T07:41:16Z</time>
      </trkpt>
      <trkpt lat="43.68261" lon="3.76803">
        <ele>158.3</ele>
        <time>2019-07-07T07:41:17Z</time>
      </trkpt>
      <trkpt lat="43.68257" lon="3.76804">
        <ele>158.1</ele>
        <time>2019-07-07T07:41:18Z</time>
      </trkpt>
      <trkpt lat="43.68253" lon="3.76806">
        <ele>157.5</ele>
        <time>2019-07-07T07:41:19Z</time>
      </trkpt>
      <trkpt lat="43.68249" lon="3.76808">
        <ele>157.4</ele>
        <time>2019-07-07T07:41:20Z</time>
      </trkpt>
      <trkpt lat="43.68246" lon="3.7681">
        <ele>157.3</ele>
        <time>2019-07-07T07:41:21Z</time>
      </trkpt>
      <trkpt lat="43.68244" lon="3.76814">
        <ele>157.2</ele>
        <time>2019-07-07T07:41:22Z</time>
      </trkpt>
      <trkpt lat="43.6824" lon="3.76816">
        <ele>157</ele>
        <time>2019-07-07T07:41:23Z</time>
      </trkpt>
      <trkpt lat="43.68236" lon="3.76819">
        <ele>156.9</ele>
        <time>2019-07-07T07:41:24Z</time>
      </trkpt>
      <trkpt lat="43.68231" lon="3.7682">
        <ele>156.8</ele>
        <time>2019-07-07T07:41:25Z</time>
      </trkpt>
      <trkpt lat="43.68226" lon="3.76822">
        <ele>156.6</ele>
        <time>2019-07-07T07:41:26Z</time>
      </trkpt>
      <trkpt lat="43.68221" lon="3.76825">
        <ele>156.5</ele>
        <time>2019-07-07T07:41:27Z</time>
      </trkpt>
      <trkpt lat="43.68217" lon="3.76827">
        <ele>156.3</ele>
        <time>2019-07-07T07:41:28Z</time>
      </trkpt>
      <trkpt lat="43.68213" lon="3.76828">
        <ele>156.1</ele>
        <time>2019-07-07T07:41:29Z</time>
      </trkpt>
      <trkpt lat="43.68209" lon="3.7683">
        <ele>156.1</ele>
        <time>2019-07-07T07:41:30Z</time>
      </trkpt>
      <trkpt lat="43.68205" lon="3.76831">
        <ele>156.1</ele>
        <time>2019-07-07T07:41:31Z</time>
      </trkpt>
      <trkpt lat="43.68202" lon="3.76834">
        <ele>156.1</ele>
        <time>2019-07-07T07:41:32Z</time>
      </trkpt>
      <trkpt lat="43.68199" lon="3.76835">
        <ele>156.1</ele>
        <time>2019-07-07T07:41:33Z</time>
      </trkpt>
      <trkpt lat="43.68196" lon="3.76838">
        <ele>156</ele>
        <time>2019-07-07T07:41:34Z</time>
      </trkpt>
      <trkpt lat="43.68193" lon="3.76838">
        <ele>156.1</ele>
        <time>2019-07-07T07:41:35Z</time>
      </trkpt>
      <trkpt lat="43.68189" lon="3.7684">
        <ele>156.4</ele>
        <time>2019-07-07T07:41:36Z</time>
      </trkpt>
      <trkpt lat="43.68186" lon="3.76841">
        <ele>156.8</ele>
        <time>2019-07-07T07:41:37Z</time>
      </trkpt>
      <trkpt lat="43.68183" lon="3.76843">
        <ele>157.1</ele>
        <time>2019-07-07T07:41:38Z</time>
      </trkpt>
      <trkpt lat="43.68183" lon="3.76848">
        <ele>157.5</ele>
        <time>2019-07-07T07:41:40Z</time>
      </trkpt>
      <trkpt lat="43.68182" lon="3.76854">
        <ele>158.1</ele>
        <time>2019-07-07T07:41:42Z</time>
      </trkpt>
      <trkpt lat="43.68182" lon="3.76859">
        <ele>158.4</ele>
        <time>2019-07-07T07:41:44Z</time>
      </trkpt>
      <trkpt lat="43.6818" lon="3.76864">
        <ele>158.8</ele>
        <time>2019-07-07T07:41:46Z</time>
      </trkpt>
      <trkpt lat="43.68177" lon="3.76866">
        <ele>159.1</ele>
        <time>2019-07-07T07:41:47Z</time>
      </trkpt>
      <trkpt lat="43.68176" lon="3.7687">
        <ele>159.3</ele>
        <time>2019-07-07T07:41:49Z</time>
      </trkpt>
      <trkpt lat="43.68175" lon="3.76875">
        <ele>159.6</ele>
        <time>2019-07-07T07:41:51Z</time>
      </trkpt>
      <trkpt lat="43.68174" lon="3.7688">
        <ele>159.8</ele>
        <time>2019-07-07T07:41:53Z</time>
      </trkpt>
      <trkpt lat="43.68174" lon="3.76885">
        <ele>160.1</ele>
        <time>2019-07-07T07:41:55Z</time>
      </trkpt>
      <trkpt lat="43.68172" lon="3.76888">
        <ele>160.3</ele>
        <time>2019-07-07T07:41:57Z</time>
      </trkpt>
      <trkpt lat="43.68169" lon="3.76892">
        <ele>160.5</ele>
        <time>2019-07-07T07:42:00Z</time>
      </trkpt>
      <trkpt lat="43.68167" lon="3.76895">
        <ele>160.7</ele>
        <time>2019-07-07T07:42:02Z</time>
      </trkpt>
      <trkpt lat="43.68165" lon="3.76898">
        <ele>160.8</ele>
        <time>2019-07-07T07:42:04Z</time>
      </trkpt>
      <trkpt lat="43.68162" lon="3.76902">
        <ele>161</ele>
        <time>2019-07-07T07:42:06Z</time>
      </trkpt>
      <trkpt lat="43.68158" lon="3.76906">
        <ele>161.2</ele>
        <time>2019-07-07T07:42:08Z</time>
      </trkpt>
      <trkpt lat="43.68157" lon="3.76911">
        <ele>161.3</ele>
        <time>2019-07-07T07:42:10Z</time>
      </trkpt>
      <trkpt lat="43.68155" lon="3.76915">
        <ele>161.5</ele>
        <time>2019-07-07T07:42:12Z</time>
      </trkpt>
      <trkpt lat="43.68153" lon="3.7692">
        <ele>161.6</ele>
        <time>2019-07-07T07:42:14Z</time>
      </trkpt>
      <trkpt lat="43.6815" lon="3.76925">
        <ele>161.8</ele>
        <time>2019-07-07T07:42:16Z</time>
      </trkpt>
      <trkpt lat="43.68147" lon="3.7693">
        <ele>162</ele>
        <time>2019-07-07T07:42:18Z</time>
      </trkpt>
      <trkpt lat="43.68145" lon="3.76934">
        <ele>162.2</ele>
        <time>2019-07-07T07:42:20Z</time>
      </trkpt>
      <trkpt lat="43.68142" lon="3.76939">
        <ele>162.5</ele>
        <time>2019-07-07T07:42:22Z</time>
      </trkpt>
      <trkpt lat="43.68139" lon="3.76943">
        <ele>162.7</ele>
        <time>2019-07-07T07:42:24Z</time>
      </trkpt>
      <trkpt lat="43.68136" lon="3.76948">
        <ele>163</ele>
        <time>2019-07-07T07:42:26Z</time>
      </trkpt>
      <trkpt lat="43.68134" lon="3.76953">
        <ele>163.2</ele>
        <time>2019-07-07T07:42:28Z</time>
      </trkpt>
      <trkpt lat="43.6813" lon="3.76957">
        <ele>163.4</ele>
        <time>2019-07-07T07:42:30Z</time>
      </trkpt>
      <trkpt lat="43.68126" lon="3.76961">
        <ele>163.6</ele>
        <time>2019-07-07T07:42:32Z</time>
      </trkpt>
      <trkpt lat="43.68124" lon="3.76966">
        <ele>163.6</ele>
        <time>2019-07-07T07:42:34Z</time>
      </trkpt>
      <trkpt lat="43.6812" lon="3.76971">
        <ele>163.5</ele>
        <time>2019-07-07T07:42:36Z</time>
      </trkpt>
      <trkpt lat="43.68118" lon="3.76976">
        <ele>163.2</ele>
        <time>2019-07-07T07:42:38Z</time>
      </trkpt>
      <trkpt lat="43.68116" lon="3.76979">
        <ele>163.1</ele>
        <time>2019-07-07T07:42:39Z</time>
      </trkpt>
      <trkpt lat="43.68114" lon="3.76984">
        <ele>162.8</ele>
        <time>2019-07-07T07:42:41Z</time>
      </trkpt>
      <trkpt lat="43.68111" lon="3.76987">
        <ele>162.6</ele>
        <time>2019-07-07T07:42:43Z</time>
      </trkpt>
      <trkpt lat="43.68108" lon="3.76989">
        <ele>162.3</ele>
        <time>2019-07-07T07:42:44Z</time>
      </trkpt>
      <trkpt lat="43.68106" lon="3.76993">
        <ele>162.1</ele>
        <time>2019-07-07T07:42:45Z</time>
      </trkpt>
      <trkpt lat="43.68105" lon="3.76997">
        <ele>162</ele>
        <time>2019-07-07T07:42:46Z</time>
      </trkpt>
      <trkpt lat="43.68101" lon="3.76999">
        <ele>161.8</ele>
        <time>2019-07-07T07:42:47Z</time>
      </trkpt>
      <trkpt lat="43.68099" lon="3.77002">
        <ele>161.6</ele>
        <time>2019-07-07T07:42:48Z</time>
      </trkpt>
      <trkpt lat="43.68097" lon="3.77006">
        <ele>161.5</ele>
        <time>2019-07-07T07:42:49Z</time>
      </trkpt>
      <trkpt lat="43.68095" lon="3.7701">
        <ele>161.2</ele>
        <time>2019-07-07T07:42:50Z</time>
      </trkpt>
      <trkpt lat="43.68093" lon="3.77014">
        <ele>161</ele>
        <time>2019-07-07T07:42:51Z</time>
      </trkpt>
      <trkpt lat="43.6809" lon="3.77018">
        <ele>160.8</ele>
        <time>2019-07-07T07:42:52Z</time>
      </trkpt>
      <trkpt lat="43.68087" lon="3.77022">
        <ele>160.6</ele>
        <time>2019-07-07T07:42:53Z</time>
      </trkpt>
      <trkpt lat="43.68085" lon="3.77025">
        <ele>160.3</ele>
        <time>2019-07-07T07:42:54Z</time>
      </trkpt>
      <trkpt lat="43.68084" lon="3.77028">
        <ele>160</ele>
        <time>2019-07-07T07:42:55Z</time>
      </trkpt>
      <trkpt lat="43.68081" lon="3.77032">
        <ele>159.7</ele>
        <time>2019-07-07T07:42:56Z</time>
      </trkpt>
      <trkpt lat="43.68078" lon="3.77037">
        <ele>159.3</ele>
        <time>2019-07-07T07:42:57Z</time>
      </trkpt>
      <trkpt lat="43.68076" lon="3.77042">
        <ele>158.9</ele>
        <time>2019-07-07T07:42:58Z</time>
      </trkpt>
      <trkpt lat="43.68072" lon="3.77047">
        <ele>158.5</ele>
        <time>2019-07-07T07:42:59Z</time>
      </trkpt>
      <trkpt lat="43.6807" lon="3.77052">
        <ele>158.2</ele>
        <time>2019-07-07T07:43:00Z</time>
      </trkpt>
      <trkpt lat="43.68067" lon="3.77056">
        <ele>157.7</ele>
        <time>2019-07-07T07:43:01Z</time>
      </trkpt>
      <trkpt lat="43.68064" lon="3.77061">
        <ele>157.3</ele>
        <time>2019-07-07T07:43:02Z</time>
      </trkpt>
      <trkpt lat="43.6806" lon="3.77066">
        <ele>156.9</ele>
        <time>2019-07-07T07:43:03Z</time>
      </trkpt>
      <trkpt lat="43.68058" lon="3.77072">
        <ele>156.5</ele>
        <time>2019-07-07T07:43:04Z</time>
      </trkpt>
      <trkpt lat="43.68055" lon="3.77078">
        <ele>156.1</ele>
        <time>2019-07-07T07:43:05Z</time>
      </trkpt>
      <trkpt lat="43.68053" lon="3.77085">
        <ele>155.9</ele>
        <time>2019-07-07T07:43:06Z</time>
      </trkpt>
      <trkpt lat="43.68052" lon="3.77091">
        <ele>155.6</ele>
        <time>2019-07-07T07:43:07Z</time>
      </trkpt>
      <trkpt lat="43.68051" lon="3.77098">
        <ele>155.5</ele>
        <time>2019-07-07T07:43:08Z</time>
      </trkpt>
      <trkpt lat="43.6805" lon="3.77105">
        <ele>155.4</ele>
        <time>2019-07-07T07:43:09Z</time>
      </trkpt>
      <trkpt lat="43.6805" lon="3.77111">
        <ele>155.5</ele>
        <time>2019-07-07T07:43:10Z</time>
      </trkpt>
      <trkpt lat="43.6805" lon="3.77119">
        <ele>155.6</ele>
        <time>2019-07-07T07:43:11Z</time>
      </trkpt>
      <trkpt lat="43.68051" lon="3.77124">
        <ele>155.6</ele>
        <time>2019-07-07T07:43:12Z</time>
      </trkpt>
      <trkpt lat="43.68051" lon="3.77129">
        <ele>155.7</ele>
        <time>2019-07-07T07:43:13Z</time>
      </trkpt>
      <trkpt lat="43.68052" lon="3.77134">
        <ele>155.8</ele>
        <time>2019-07-07T07:43:14Z</time>
      </trkpt>
      <trkpt lat="43.68053" lon="3.77139">
        <ele>155.8</ele>
        <time>2019-07-07T07:43:15Z</time>
      </trkpt>
      <trkpt lat="43.68054" lon="3.77144">
        <ele>155.8</ele>
        <time>2019-07-07T07:43:16Z</time>
      </trkpt>
      <trkpt lat="43.68054" lon="3.77149">
        <ele>155.7</ele>
        <time>2019-07-07T07:43:17Z</time>
      </trkpt>
      <trkpt lat="43.68055" lon="3.77154">
        <ele>155.6</ele>
        <time>2019-07-07T07:43:18Z</time>
      </trkpt>
      <trkpt lat="43.68056" lon="3.77159">
        <ele>155.4</ele>
        <time>2019-07-07T07:43:19Z</time>
      </trkpt>
      <trkpt lat="43.68056" lon="3.77163">
        <ele>155.2</ele>
        <time>2019-07-07T07:43:20Z</time>
      </trkpt>
      <trkpt lat="43.68056" lon="3.77168">
        <ele>154.9</ele>
        <time>2019-07-07T07:43:21Z</time>
      </trkpt>
      <trkpt lat="43.68056" lon="3.77174">
        <ele>154.6</ele>
        <time>2019-07-07T07:43:22Z</time>
      </trkpt>
      <trkpt lat="43.68055" lon="3.77179">
        <ele>154.3</ele>
        <time>2019-07-07T07:43:23Z</time>
      </trkpt>
      <trkpt lat="43.68056" lon="3.77185">
        <ele>154</ele>
        <time>2019-07-07T07:43:24Z</time>
      </trkpt>
      <trkpt lat="43.68055" lon="3.77191">
        <ele>153.7</ele>
        <time>2019-07-07T07:43:25Z</time>
      </trkpt>
      <trkpt lat="43.68054" lon="3.77197">
        <ele>153.4</ele>
        <time>2019-07-07T07:43:26Z</time>
      </trkpt>
      <trkpt lat="43.68053" lon="3.77204">
        <ele>153</ele>
        <time>2019-07-07T07:43:27Z</time>
      </trkpt>
      <trkpt lat="43.68053" lon="3.77211">
        <ele>152.7</ele>
        <time>2019-07-07T07:43:28Z</time>
      </trkpt>
      <trkpt lat="43.68053" lon="3.77217">
        <ele>152.6</ele>
        <time>2019-07-07T07:43:29Z</time>
      </trkpt>
      <trkpt lat="43.68054" lon="3.77223">
        <ele>152.7</ele>
        <time>2019-07-07T07:43:30Z</time>
      </trkpt>
      <trkpt lat="43.68055" lon="3.77229">
        <ele>153</ele>
        <time>2019-07-07T07:43:31Z</time>
      </trkpt>
      <trkpt lat="43.68055" lon="3.77234">
        <ele>153.3</ele>
        <time>2019-07-07T07:43:32Z</time>
      </trkpt>
      <trkpt lat="43.68055" lon="3.7724">
        <ele>153.8</ele>
        <time>2019-07-07T07:43:33Z</time>
      </trkpt>
      <trkpt lat="43.68056" lon="3.77246">
        <ele>154.4</ele>
        <time>2019-07-07T07:43:34Z</time>
      </trkpt>
      <trkpt lat="43.68058" lon="3.77252">
        <ele>154.9</ele>
        <time>2019-07-07T07:43:35Z</time>
      </trkpt>
      <trkpt lat="43.6806" lon="3.77257">
        <ele>155.7</ele>
        <time>2019-07-07T07:43:36Z</time>
      </trkpt>
      <trkpt lat="43.68063" lon="3.77263">
        <ele>156.6</ele>
        <time>2019-07-07T07:43:38Z</time>
      </trkpt>
      <trkpt lat="43.68066" lon="3.77267">
        <ele>156.8</ele>
        <time>2019-07-07T07:43:40Z</time>
      </trkpt>
      <trkpt lat="43.68068" lon="3.77269">
        <ele>156.9</ele>
        <time>2019-07-07T07:43:41Z</time>
      </trkpt>
      <trkpt lat="43.68071" lon="3.77271">
        <ele>157</ele>
        <time>2019-07-07T07:43:42Z</time>
      </trkpt>
      <trkpt lat="43.68076" lon="3.77278">
        <ele>157.1</ele>
        <time>2019-07-07T07:43:44Z</time>
      </trkpt>
      <trkpt lat="43.68076" lon="3.77283">
        <ele>157.1</ele>
        <time>2019-07-07T07:43:46Z</time>
      </trkpt>
      <trkpt lat="43.68078" lon="3.77284">
        <ele>157.1</ele>
        <time>2019-07-07T07:43:47Z</time>
      </trkpt>
      <trkpt lat="43.68081" lon="3.77286">
        <ele>157.1</ele>
        <time>2019-07-07T07:43:48Z</time>
      </trkpt>
      <trkpt lat="43.68083" lon="3.77289">
        <ele>157.1</ele>
        <time>2019-07-07T07:43:49Z</time>
      </trkpt>
      <trkpt lat="43.68086" lon="3.77291">
        <ele>157.1</ele>
        <time>2019-07-07T07:43:50Z</time>
      </trkpt>
      <trkpt lat="43.6809" lon="3.77293">
        <ele>157.1</ele>
        <time>2019-07-07T07:43:52Z</time>
      </trkpt>
      <trkpt lat="43.68095" lon="3.77298">
        <ele>157</ele>
        <time>2019-07-07T07:43:54Z</time>
      </trkpt>
      <trkpt lat="43.68098" lon="3.77302">
        <ele>156.9</ele>
        <time>2019-07-07T07:43:56Z</time>
      </trkpt>
      <trkpt lat="43.68102" lon="3.77304">
        <ele>156.8</ele>
        <time>2019-07-07T07:43:58Z</time>
      </trkpt>
      <trkpt lat="43.68105" lon="3.77308">
        <ele>156.5</ele>
        <time>2019-07-07T07:44:00Z</time>
      </trkpt>
      <trkpt lat="43.68108" lon="3.77312">
        <ele>156.3</ele>
        <time>2019-07-07T07:44:02Z</time>
      </trkpt>
      <trkpt lat="43.68111" lon="3.77316">
        <ele>156</ele>
        <time>2019-07-07T07:44:05Z</time>
      </trkpt>
      <trkpt lat="43.68113" lon="3.77319">
        <ele>155.7</ele>
        <time>2019-07-07T07:44:07Z</time>
      </trkpt>
      <trkpt lat="43.68116" lon="3.77322">
        <ele>155.4</ele>
        <time>2019-07-07T07:44:11Z</time>
      </trkpt>
      <trkpt lat="43.68118" lon="3.77323">
        <ele>155.1</ele>
        <time>2019-07-07T07:44:56Z</time>
      </trkpt>
      <trkpt lat="43.68122" lon="3.77325">
        <ele>154.8</ele>
        <time>2019-07-07T07:46:35Z</time>
      </trkpt>
      <trkpt lat="43.68126" lon="3.7733">
        <ele>154.3</ele>
        <time>2019-07-07T07:46:37Z</time>
      </trkpt>
      <trkpt lat="43.68129" lon="3.77334">
        <ele>153.9</ele>
        <time>2019-07-07T07:46:39Z</time>
      </trkpt>
      <trkpt lat="43.68134" lon="3.77334">
        <ele>153.5</ele>
        <time>2019-07-07T07:46:42Z</time>
      </trkpt>
      <trkpt lat="43.68132" lon="3.77337">
        <ele>153.2</ele>
        <time>2019-07-07T07:46:44Z</time>
      </trkpt>
      <trkpt lat="43.68136" lon="3.77338">
        <ele>152.9</ele>
        <time>2019-07-07T07:48:33Z</time>
      </trkpt>
      <trkpt lat="43.68139" lon="3.7734">
        <ele>152.6</ele>
        <time>2019-07-07T07:48:35Z</time>
      </trkpt>
      <trkpt lat="43.68142" lon="3.77345">
        <ele>152.2</ele>
        <time>2019-07-07T07:48:36Z</time>
      </trkpt>
      <trkpt lat="43.68145" lon="3.77349">
        <ele>152</ele>
        <time>2019-07-07T07:48:37Z</time>
      </trkpt>
      <trkpt lat="43.68148" lon="3.77351">
        <ele>151.8</ele>
        <time>2019-07-07T07:48:38Z</time>
      </trkpt>
      <trkpt lat="43.68151" lon="3.77355">
        <ele>151.5</ele>
        <time>2019-07-07T07:48:39Z</time>
      </trkpt>
      <trkpt lat="43.68153" lon="3.77355">
        <ele>151.3</ele>
        <time>2019-07-07T07:48:40Z</time>
      </trkpt>
      <trkpt lat="43.68156" lon="3.77356">
        <ele>151.1</ele>
        <time>2019-07-07T07:48:41Z</time>
      </trkpt>
      <trkpt lat="43.68159" lon="3.77357">
        <ele>150.9</ele>
        <time>2019-07-07T07:48:42Z</time>
      </trkpt>
      <trkpt lat="43.68162" lon="3.77358">
        <ele>150.7</ele>
        <time>2019-07-07T07:48:43Z</time>
      </trkpt>
      <trkpt lat="43.68166" lon="3.77359">
        <ele>150.4</ele>
        <time>2019-07-07T07:48:44Z</time>
      </trkpt>
      <trkpt lat="43.68169" lon="3.77361">
        <ele>150.2</ele>
        <time>2019-07-07T07:48:45Z</time>
      </trkpt>
      <trkpt lat="43.68172" lon="3.77361">
        <ele>150</ele>
        <time>2019-07-07T07:48:46Z</time>
      </trkpt>
      <trkpt lat="43.68176" lon="3.7736">
        <ele>149.6</ele>
        <time>2019-07-07T07:48:47Z</time>
      </trkpt>
      <trkpt lat="43.68179" lon="3.7736">
        <ele>149.3</ele>
        <time>2019-07-07T07:48:48Z</time>
      </trkpt>
      <trkpt lat="43.68184" lon="3.77363">
        <ele>148.9</ele>
        <time>2019-07-07T07:48:49Z</time>
      </trkpt>
      <trkpt lat="43.68188" lon="3.77366">
        <ele>148.5</ele>
        <time>2019-07-07T07:48:50Z</time>
      </trkpt>
      <trkpt lat="43.68193" lon="3.77367">
        <ele>148</ele>
        <time>2019-07-07T07:48:51Z</time>
      </trkpt>
      <trkpt lat="43.68197" lon="3.7737">
        <ele>147.5</ele>
        <time>2019-07-07T07:48:52Z</time>
      </trkpt>
      <trkpt lat="43.68202" lon="3.77371">
        <ele>147.1</ele>
        <time>2019-07-07T07:48:53Z</time>
      </trkpt>
      <trkpt lat="43.68206" lon="3.77374">
        <ele>146.5</ele>
        <time>2019-07-07T07:48:54Z</time>
      </trkpt>
      <trkpt lat="43.6821" lon="3.77376">
        <ele>146.1</ele>
        <time>2019-07-07T07:48:55Z</time>
      </trkpt>
      <trkpt lat="43.68216" lon="3.77379">
        <ele>145.5</ele>
        <time>2019-07-07T07:48:56Z</time>
      </trkpt>
      <trkpt lat="43.68221" lon="3.77382">
        <ele>144.9</ele>
        <time>2019-07-07T07:48:57Z</time>
      </trkpt>
      <trkpt lat="43.68227" lon="3.77388">
        <ele>144.2</ele>
        <time>2019-07-07T07:48:58Z</time>
      </trkpt>
      <trkpt lat="43.68233" lon="3.77393">
        <ele>143.6</ele>
        <time>2019-07-07T07:48:59Z</time>
      </trkpt>
      <trkpt lat="43.68239" lon="3.77399">
        <ele>142.9</ele>
        <time>2019-07-07T07:49:00Z</time>
      </trkpt>
      <trkpt lat="43.68244" lon="3.77405">
        <ele>142.3</ele>
        <time>2019-07-07T07:49:01Z</time>
      </trkpt>
      <trkpt lat="43.68249" lon="3.77409">
        <ele>141.8</ele>
        <time>2019-07-07T07:49:02Z</time>
      </trkpt>
      <trkpt lat="43.68255" lon="3.77414">
        <ele>141.2</ele>
        <time>2019-07-07T07:49:03Z</time>
      </trkpt>
      <trkpt lat="43.6826" lon="3.77419">
        <ele>140.6</ele>
        <time>2019-07-07T07:49:04Z</time>
      </trkpt>
      <trkpt lat="43.68266" lon="3.77424">
        <ele>140</ele>
        <time>2019-07-07T07:49:05Z</time>
      </trkpt>
      <trkpt lat="43.68272" lon="3.77429">
        <ele>139.5</ele>
        <time>2019-07-07T07:49:06Z</time>
      </trkpt>
      <trkpt lat="43.68278" lon="3.77434">
        <ele>139</ele>
        <time>2019-07-07T07:49:07Z</time>
      </trkpt>
      <trkpt lat="43.68283" lon="3.7744">
        <ele>138.6</ele>
        <time>2019-07-07T07:49:08Z</time>
      </trkpt>
      <trkpt lat="43.68288" lon="3.77448">
        <ele>137.9</ele>
        <time>2019-07-07T07:49:09Z</time>
      </trkpt>
      <trkpt lat="43.68294" lon="3.77453">
        <ele>137.4</ele>
        <time>2019-07-07T07:49:10Z</time>
      </trkpt>
      <trkpt lat="43.68298" lon="3.77459">
        <ele>136.8</ele>
        <time>2019-07-07T07:49:11Z</time>
      </trkpt>
      <trkpt lat="43.68303" lon="3.77464">
        <ele>136.2</ele>
        <time>2019-07-07T07:49:12Z</time>
      </trkpt>
      <trkpt lat="43.68308" lon="3.77469">
        <ele>135.6</ele>
        <time>2019-07-07T07:49:13Z</time>
      </trkpt>
      <trkpt lat="43.68312" lon="3.77473">
        <ele>135</ele>
        <time>2019-07-07T07:49:14Z</time>
      </trkpt>
      <trkpt lat="43.68317" lon="3.77481">
        <ele>134.3</ele>
        <time>2019-07-07T07:49:15Z</time>
      </trkpt>
      <trkpt lat="43.68322" lon="3.77486">
        <ele>133.8</ele>
        <time>2019-07-07T07:49:16Z</time>
      </trkpt>
      <trkpt lat="43.68327" lon="3.77492">
        <ele>133.4</ele>
        <time>2019-07-07T07:49:17Z</time>
      </trkpt>
      <trkpt lat="43.6833" lon="3.77496">
        <ele>133.1</ele>
        <time>2019-07-07T07:49:18Z</time>
      </trkpt>
      <trkpt lat="43.68335" lon="3.77498">
        <ele>132.6</ele>
        <time>2019-07-07T07:49:19Z</time>
      </trkpt>
      <trkpt lat="43.6834" lon="3.77501">
        <ele>132</ele>
        <time>2019-07-07T07:49:20Z</time>
      </trkpt>
      <trkpt lat="43.68346" lon="3.77502">
        <ele>131.4</ele>
        <time>2019-07-07T07:49:21Z</time>
      </trkpt>
      <trkpt lat="43.68351" lon="3.77506">
        <ele>130.6</ele>
        <time>2019-07-07T07:49:22Z</time>
      </trkpt>
      <trkpt lat="43.68357" lon="3.77509">
        <ele>129.8</ele>
        <time>2019-07-07T07:49:23Z</time>
      </trkpt>
      <trkpt lat="43.68364" lon="3.77511">
        <ele>128.8</ele>
        <time>2019-07-07T07:49:24Z</time>
      </trkpt>
      <trkpt lat="43.6837" lon="3.77513">
        <ele>127.9</ele>
        <time>2019-07-07T07:49:25Z</time>
      </trkpt>
      <trkpt lat="43.68376" lon="3.77515">
        <ele>127</ele>
        <time>2019-07-07T07:49:26Z</time>
      </trkpt>
      <trkpt lat="43.68382" lon="3.77516">
        <ele>126</ele>
        <time>2019-07-07T07:49:27Z</time>
      </trkpt>
      <trkpt lat="43.68389" lon="3.77519">
        <ele>124.8</ele>
        <time>2019-07-07T07:49:28Z</time>
      </trkpt>
      <trkpt lat="43.68397" lon="3.77522">
        <ele>123.7</ele>
        <time>2019-07-07T07:49:29Z</time>
      </trkpt>
      <trkpt lat="43.68404" lon="3.77526">
        <ele>122.7</ele>
        <time>2019-07-07T07:49:30Z</time>
      </trkpt>
      <trkpt lat="43.6841" lon="3.77531">
        <ele>122</ele>
        <time>2019-07-07T07:49:31Z</time>
      </trkpt>
      <trkpt lat="43.68418" lon="3.77535">
        <ele>121.6</ele>
        <time>2019-07-07T07:49:32Z</time>
      </trkpt>
      <trkpt lat="43.68424" lon="3.77538">
        <ele>121.4</ele>
        <time>2019-07-07T07:49:33Z</time>
      </trkpt>
      <trkpt lat="43.68432" lon="3.77541">
        <ele>121.5</ele>
        <time>2019-07-07T07:49:34Z</time>
      </trkpt>
      <trkpt lat="43.68439" lon="3.77544">
        <ele>121.8</ele>
        <time>2019-07-07T07:49:35Z</time>
      </trkpt>
      <trkpt lat="43.68447" lon="3.77545">
        <ele>122.4</ele>
        <time>2019-07-07T07:49:36Z</time>
      </trkpt>
      <trkpt lat="43.68455" lon="3.77548">
        <ele>123.2</ele>
        <time>2019-07-07T07:49:37Z</time>
      </trkpt>
      <trkpt lat="43.6846" lon="3.77548">
        <ele>123.8</ele>
        <time>2019-07-07T07:49:38Z</time>
      </trkpt>
      <trkpt lat="43.68466" lon="3.77548">
        <ele>124.6</ele>
        <time>2019-07-07T07:49:39Z</time>
      </trkpt>
      <trkpt lat="43.6847" lon="3.77548">
        <ele>125</ele>
        <time>2019-07-07T07:49:41Z</time>
      </trkpt>
      <trkpt lat="43.68473" lon="3.77556">
        <ele>125.2</ele>
        <time>2019-07-07T07:49:43Z</time>
      </trkpt>
      <trkpt lat="43.68474" lon="3.77563">
        <ele>125.1</ele>
        <time>2019-07-07T07:49:45Z</time>
      </trkpt>
      <trkpt lat="43.68473" lon="3.77569">
        <ele>125</ele>
        <time>2019-07-07T07:50:00Z</time>
      </trkpt>
      <trkpt lat="43.68474" lon="3.77575">
        <ele>124.9</ele>
        <time>2019-07-07T07:50:02Z</time>
      </trkpt>
      <trkpt lat="43.68474" lon="3.77582">
        <ele>124.7</ele>
        <time>2019-07-07T07:50:04Z</time>
      </trkpt>
      <trkpt lat="43.68474" lon="3.77586">
        <ele>124.6</ele>
        <time>2019-07-07T07:50:05Z</time>
      </trkpt>
      <trkpt lat="43.68474" lon="3.77594">
        <ele>124.1</ele>
        <time>2019-07-07T07:50:07Z</time>
      </trkpt>
      <trkpt lat="43.68474" lon="3.77599">
        <ele>123.8</ele>
        <time>2019-07-07T07:50:08Z</time>
      </trkpt>
      <trkpt lat="43.68474" lon="3.77605">
        <ele>123.3</ele>
        <time>2019-07-07T07:50:09Z</time>
      </trkpt>
      <trkpt lat="43.68473" lon="3.7761">
        <ele>122.9</ele>
        <time>2019-07-07T07:50:10Z</time>
      </trkpt>
      <trkpt lat="43.68473" lon="3.77616">
        <ele>122.4</ele>
        <time>2019-07-07T07:50:11Z</time>
      </trkpt>
      <trkpt lat="43.68473" lon="3.77621">
        <ele>121.9</ele>
        <time>2019-07-07T07:50:12Z</time>
      </trkpt>
      <trkpt lat="43.68473" lon="3.77628">
        <ele>121.4</ele>
        <time>2019-07-07T07:50:13Z</time>
      </trkpt>
      <trkpt lat="43.68473" lon="3.77635">
        <ele>121</ele>
        <time>2019-07-07T07:50:14Z</time>
      </trkpt>
      <trkpt lat="43.68473" lon="3.77642">
        <ele>120.7</ele>
        <time>2019-07-07T07:50:15Z</time>
      </trkpt>
      <trkpt lat="43.68473" lon="3.77649">
        <ele>120.5</ele>
        <time>2019-07-07T07:50:16Z</time>
      </trkpt>
      <trkpt lat="43.68474" lon="3.77656">
        <ele>120.3</ele>
        <time>2019-07-07T07:50:17Z</time>
      </trkpt>
      <trkpt lat="43.68473" lon="3.77662">
        <ele>120.2</ele>
        <time>2019-07-07T07:50:18Z</time>
      </trkpt>
      <trkpt lat="43.68473" lon="3.7767">
        <ele>120</ele>
        <time>2019-07-07T07:50:19Z</time>
      </trkpt>
      <trkpt lat="43.68472" lon="3.77678">
        <ele>119.8</ele>
        <time>2019-07-07T07:50:20Z</time>
      </trkpt>
      <trkpt lat="43.68472" lon="3.77686">
        <ele>119.6</ele>
        <time>2019-07-07T07:50:21Z</time>
      </trkpt>
      <trkpt lat="43.68472" lon="3.77693">
        <ele>119.4</ele>
        <time>2019-07-07T07:50:22Z</time>
      </trkpt>
      <trkpt lat="43.6847" lon="3.777">
        <ele>119.2</ele>
        <time>2019-07-07T07:50:23Z</time>
      </trkpt>
      <trkpt lat="43.6847" lon="3.77708">
        <ele>119</ele>
        <time>2019-07-07T07:50:24Z</time>
      </trkpt>
      <trkpt lat="43.6847" lon="3.77716">
        <ele>118.7</ele>
        <time>2019-07-07T07:50:25Z</time>
      </trkpt>
      <trkpt lat="43.68469" lon="3.77724">
        <ele>118.5</ele>
        <time>2019-07-07T07:50:26Z</time>
      </trkpt>
      <trkpt lat="43.68468" lon="3.77732">
        <ele>118.3</ele>
        <time>2019-07-07T07:50:27Z</time>
      </trkpt>
      <trkpt lat="43.68468" lon="3.7774">
        <ele>118.1</ele>
        <time>2019-07-07T07:50:28Z</time>
      </trkpt>
      <trkpt lat="43.68466" lon="3.77748">
        <ele>118</ele>
        <time>2019-07-07T07:50:29Z</time>
      </trkpt>
      <trkpt lat="43.68462" lon="3.77755">
        <ele>117.9</ele>
        <time>2019-07-07T07:50:30Z</time>
      </trkpt>
      <trkpt lat="43.68459" lon="3.77761">
        <ele>117.7</ele>
        <time>2019-07-07T07:50:31Z</time>
      </trkpt>
      <trkpt lat="43.68457" lon="3.77768">
        <ele>117.6</ele>
        <time>2019-07-07T07:50:32Z</time>
      </trkpt>
      <trkpt lat="43.68454" lon="3.77774">
        <ele>117.4</ele>
        <time>2019-07-07T07:50:33Z</time>
      </trkpt>
      <trkpt lat="43.68452" lon="3.77781">
        <ele>117.2</ele>
        <time>2019-07-07T07:50:34Z</time>
      </trkpt>
      <trkpt lat="43.68449" lon="3.77788">
        <ele>117.1</ele>
        <time>2019-07-07T07:50:35Z</time>
      </trkpt>
      <trkpt lat="43.68446" lon="3.77794">
        <ele>116.9</ele>
        <time>2019-07-07T07:50:36Z</time>
      </trkpt>
      <trkpt lat="43.68444" lon="3.77801">
        <ele>116.8</ele>
        <time>2019-07-07T07:50:37Z</time>
      </trkpt>
      <trkpt lat="43.68441" lon="3.77808">
        <ele>116.7</ele>
        <time>2019-07-07T07:50:38Z</time>
      </trkpt>
      <trkpt lat="43.68439" lon="3.77815">
        <ele>116.7</ele>
        <time>2019-07-07T07:50:39Z</time>
      </trkpt>
      <trkpt lat="43.68436" lon="3.77822">
        <ele>116.5</ele>
        <time>2019-07-07T07:50:40Z</time>
      </trkpt>
      <trkpt lat="43.68434" lon="3.77829">
        <ele>116.4</ele>
        <time>2019-07-07T07:50:41Z</time>
      </trkpt>
      <trkpt lat="43.68432" lon="3.77835">
        <ele>116.3</ele>
        <time>2019-07-07T07:50:42Z</time>
      </trkpt>
      <trkpt lat="43.68428" lon="3.77842">
        <ele>116.1</ele>
        <time>2019-07-07T07:50:43Z</time>
      </trkpt>
      <trkpt lat="43.68426" lon="3.77849">
        <ele>115.9</ele>
        <time>2019-07-07T07:50:44Z</time>
      </trkpt>
      <trkpt lat="43.68424" lon="3.77855">
        <ele>115.8</ele>
        <time>2019-07-07T07:50:45Z</time>
      </trkpt>
      <trkpt lat="43.68419" lon="3.77862">
        <ele>115.6</ele>
        <time>2019-07-07T07:50:46Z</time>
      </trkpt>
      <trkpt lat="43.68417" lon="3.77868">
        <ele>115.5</ele>
        <time>2019-07-07T07:50:47Z</time>
      </trkpt>
      <trkpt lat="43.68414" lon="3.77875">
        <ele>115.2</ele>
        <time>2019-07-07T07:50:48Z</time>
      </trkpt>
      <trkpt lat="43.68412" lon="3.77882">
        <ele>115</ele>
        <time>2019-07-07T07:50:49Z</time>
      </trkpt>
      <trkpt lat="43.6841" lon="3.77888">
        <ele>114.7</ele>
        <time>2019-07-07T07:50:50Z</time>
      </trkpt>
      <trkpt lat="43.68409" lon="3.77895">
        <ele>114.4</ele>
        <time>2019-07-07T07:50:51Z</time>
      </trkpt>
      <trkpt lat="43.68407" lon="3.77901">
        <ele>114.1</ele>
        <time>2019-07-07T07:50:52Z</time>
      </trkpt>
      <trkpt lat="43.68404" lon="3.77907">
        <ele>113.7</ele>
        <time>2019-07-07T07:50:53Z</time>
      </trkpt>
      <trkpt lat="43.684" lon="3.77913">
        <ele>113.3</ele>
        <time>2019-07-07T07:50:54Z</time>
      </trkpt>
      <trkpt lat="43.68398" lon="3.77919">
        <ele>113.2</ele>
        <time>2019-07-07T07:50:55Z</time>
      </trkpt>
      <trkpt lat="43.68396" lon="3.77925">
        <ele>113</ele>
        <time>2019-07-07T07:50:56Z</time>
      </trkpt>
      <trkpt lat="43.68392" lon="3.7793">
        <ele>112.9</ele>
        <time>2019-07-07T07:50:57Z</time>
      </trkpt>
      <trkpt lat="43.68389" lon="3.77937">
        <ele>112.7</ele>
        <time>2019-07-07T07:50:58Z</time>
      </trkpt>
      <trkpt lat="43.68385" lon="3.77943">
        <ele>112.5</ele>
        <time>2019-07-07T07:50:59Z</time>
      </trkpt>
      <trkpt lat="43.68382" lon="3.77949">
        <ele>112.4</ele>
        <time>2019-07-07T07:51:00Z</time>
      </trkpt>
      <trkpt lat="43.6838" lon="3.77955">
        <ele>112.3</ele>
        <time>2019-07-07T07:51:01Z</time>
      </trkpt>
      <trkpt lat="43.68376" lon="3.7796">
        <ele>112.2</ele>
        <time>2019-07-07T07:51:02Z</time>
      </trkpt>
      <trkpt lat="43.68374" lon="3.77965">
        <ele>112.1</ele>
        <time>2019-07-07T07:51:03Z</time>
      </trkpt>
      <trkpt lat="43.6837" lon="3.77971">
        <ele>112</ele>
        <time>2019-07-07T07:51:04Z</time>
      </trkpt>
      <trkpt lat="43.68367" lon="3.77977">
        <ele>111.9</ele>
        <time>2019-07-07T07:51:05Z</time>
      </trkpt>
      <trkpt lat="43.68364" lon="3.77982">
        <ele>111.8</ele>
        <time>2019-07-07T07:51:06Z</time>
      </trkpt>
      <trkpt lat="43.68362" lon="3.77988">
        <ele>111.7</ele>
        <time>2019-07-07T07:51:07Z</time>
      </trkpt>
      <trkpt lat="43.6836" lon="3.77991">
        <ele>111.6</ele>
        <time>2019-07-07T07:51:08Z</time>
      </trkpt>
      <trkpt lat="43.68361" lon="3.77996">
        <ele>111.6</ele>
        <time>2019-07-07T07:51:09Z</time>
      </trkpt>
      <trkpt lat="43.68363" lon="3.78001">
        <ele>112.5</ele>
        <time>2019-07-07T07:51:10Z</time>
      </trkpt>
      <trkpt lat="43.68366" lon="3.78005">
        <ele>112.4</ele>
        <time>2019-07-07T07:51:11Z</time>
      </trkpt>
      <trkpt lat="43.68369" lon="3.78011">
        <ele>112.3</ele>
        <time>2019-07-07T07:51:12Z</time>
      </trkpt>
      <trkpt lat="43.68371" lon="3.78017">
        <ele>112.2</ele>
        <time>2019-07-07T07:51:13Z</time>
      </trkpt>
      <trkpt lat="43.68372" lon="3.78021">
        <ele>112.2</ele>
        <time>2019-07-07T07:51:14Z</time>
      </trkpt>
      <trkpt lat="43.68371" lon="3.78026">
        <ele>112.2</ele>
        <time>2019-07-07T07:51:15Z</time>
      </trkpt>
      <trkpt lat="43.6837" lon="3.7803">
        <ele>112.2</ele>
        <time>2019-07-07T07:51:16Z</time>
      </trkpt>
      <trkpt lat="43.68367" lon="3.78034">
        <ele>112.2</ele>
        <time>2019-07-07T07:51:17Z</time>
      </trkpt>
      <trkpt lat="43.68364" lon="3.78038">
        <ele>112.2</ele>
        <time>2019-07-07T07:51:18Z</time>
      </trkpt>
      <trkpt lat="43.68361" lon="3.78043">
        <ele>112.2</ele>
        <time>2019-07-07T07:51:19Z</time>
      </trkpt>
      <trkpt lat="43.68357" lon="3.78047">
        <ele>112.1</ele>
        <time>2019-07-07T07:51:20Z</time>
      </trkpt>
      <trkpt lat="43.68354" lon="3.78052">
        <ele>112.1</ele>
        <time>2019-07-07T07:51:21Z</time>
      </trkpt>
      <trkpt lat="43.6835" lon="3.78056">
        <ele>112.1</ele>
        <time>2019-07-07T07:51:22Z</time>
      </trkpt>
      <trkpt lat="43.68349" lon="3.78063">
        <ele>112.1</ele>
        <time>2019-07-07T07:51:23Z</time>
      </trkpt>
      <trkpt lat="43.68347" lon="3.78069">
        <ele>112.1</ele>
        <time>2019-07-07T07:51:24Z</time>
      </trkpt>
      <trkpt lat="43.68346" lon="3.78076">
        <ele>112</ele>
        <time>2019-07-07T07:51:25Z</time>
      </trkpt>
      <trkpt lat="43.68345" lon="3.78082">
        <ele>112</ele>
        <time>2019-07-07T07:51:26Z</time>
      </trkpt>
      <trkpt lat="43.68344" lon="3.78088">
        <ele>111.9</ele>
        <time>2019-07-07T07:51:27Z</time>
      </trkpt>
      <trkpt lat="43.68342" lon="3.78096">
        <ele>111.8</ele>
        <time>2019-07-07T07:51:28Z</time>
      </trkpt>
      <trkpt lat="43.68344" lon="3.78104">
        <ele>111.8</ele>
        <time>2019-07-07T07:51:29Z</time>
      </trkpt>
      <trkpt lat="43.68347" lon="3.7811">
        <ele>111.7</ele>
        <time>2019-07-07T07:51:30Z</time>
      </trkpt>
      <trkpt lat="43.6835" lon="3.78117">
        <ele>111.7</ele>
        <time>2019-07-07T07:51:31Z</time>
      </trkpt>
      <trkpt lat="43.68354" lon="3.78123">
        <ele>111.7</ele>
        <time>2019-07-07T07:51:32Z</time>
      </trkpt>
      <trkpt lat="43.68357" lon="3.7813">
        <ele>111.7</ele>
        <time>2019-07-07T07:51:33Z</time>
      </trkpt>
      <trkpt lat="43.6836" lon="3.78138">
        <ele>111.7</ele>
        <time>2019-07-07T07:51:34Z</time>
      </trkpt>
      <trkpt lat="43.68363" lon="3.78144">
        <ele>111.7</ele>
        <time>2019-07-07T07:51:35Z</time>
      </trkpt>
      <trkpt lat="43.68367" lon="3.7815">
        <ele>111.7</ele>
        <time>2019-07-07T07:51:36Z</time>
      </trkpt>
      <trkpt lat="43.6837" lon="3.78156">
        <ele>111.7</ele>
        <time>2019-07-07T07:51:37Z</time>
      </trkpt>
      <trkpt lat="43.68372" lon="3.78163">
        <ele>111.7</ele>
        <time>2019-07-07T07:51:38Z</time>
      </trkpt>
      <trkpt lat="43.68375" lon="3.78169">
        <ele>111.7</ele>
        <time>2019-07-07T07:51:39Z</time>
      </trkpt>
      <trkpt lat="43.68377" lon="3.78175">
        <ele>111.7</ele>
        <time>2019-07-07T07:51:40Z</time>
      </trkpt>
      <trkpt lat="43.6838" lon="3.78182">
        <ele>111.6</ele>
        <time>2019-07-07T07:51:41Z</time>
      </trkpt>
      <trkpt lat="43.6838" lon="3.78189">
        <ele>111.6</ele>
        <time>2019-07-07T07:51:42Z</time>
      </trkpt>
      <trkpt lat="43.68381" lon="3.78198">
        <ele>111.4</ele>
        <time>2019-07-07T07:51:43Z</time>
      </trkpt>
      <trkpt lat="43.68381" lon="3.78206">
        <ele>111.3</ele>
        <time>2019-07-07T07:51:44Z</time>
      </trkpt>
      <trkpt lat="43.6838" lon="3.78215">
        <ele>111</ele>
        <time>2019-07-07T07:51:45Z</time>
      </trkpt>
      <trkpt lat="43.68379" lon="3.78225">
        <ele>110.7</ele>
        <time>2019-07-07T07:51:46Z</time>
      </trkpt>
      <trkpt lat="43.68377" lon="3.78233">
        <ele>110.5</ele>
        <time>2019-07-07T07:51:47Z</time>
      </trkpt>
      <trkpt lat="43.68376" lon="3.78242">
        <ele>110.3</ele>
        <time>2019-07-07T07:51:48Z</time>
      </trkpt>
      <trkpt lat="43.68373" lon="3.7825">
        <ele>110</ele>
        <time>2019-07-07T07:51:49Z</time>
      </trkpt>
      <trkpt lat="43.6837" lon="3.78258">
        <ele>109.7</ele>
        <time>2019-07-07T07:51:50Z</time>
      </trkpt>
      <trkpt lat="43.68366" lon="3.78267">
        <ele>109.4</ele>
        <time>2019-07-07T07:51:51Z</time>
      </trkpt>
      <trkpt lat="43.68362" lon="3.78275">
        <ele>109.1</ele>
        <time>2019-07-07T07:51:52Z</time>
      </trkpt>
      <trkpt lat="43.68358" lon="3.78281">
        <ele>109</ele>
        <time>2019-07-07T07:51:53Z</time>
      </trkpt>
      <trkpt lat="43.68355" lon="3.78287">
        <ele>108.9</ele>
        <time>2019-07-07T07:51:54Z</time>
      </trkpt>
      <trkpt lat="43.6835" lon="3.78294">
        <ele>108.8</ele>
        <time>2019-07-07T07:51:55Z</time>
      </trkpt>
      <trkpt lat="43.68345" lon="3.78299">
        <ele>108.8</ele>
        <time>2019-07-07T07:51:56Z</time>
      </trkpt>
      <trkpt lat="43.6834" lon="3.78305">
        <ele>108.7</ele>
        <time>2019-07-07T07:51:57Z</time>
      </trkpt>
      <trkpt lat="43.68336" lon="3.7831">
        <ele>108.7</ele>
        <time>2019-07-07T07:51:58Z</time>
      </trkpt>
      <trkpt lat="43.68332" lon="3.78315">
        <ele>108.5</ele>
        <time>2019-07-07T07:51:59Z</time>
      </trkpt>
      <trkpt lat="43.68324" lon="3.78316">
        <ele>108.3</ele>
        <time>2019-07-07T07:52:00Z</time>
      </trkpt>
      <trkpt lat="43.68319" lon="3.78319">
        <ele>108.1</ele>
        <time>2019-07-07T07:52:01Z</time>
      </trkpt>
      <trkpt lat="43.68316" lon="3.78321">
        <ele>108</ele>
        <time>2019-07-07T07:52:02Z</time>
      </trkpt>
      <trkpt lat="43.68314" lon="3.78324">
        <ele>107.9</ele>
        <time>2019-07-07T07:52:03Z</time>
      </trkpt>
      <trkpt lat="43.68308" lon="3.78327">
        <ele>107.6</ele>
        <time>2019-07-07T07:52:04Z</time>
      </trkpt>
      <trkpt lat="43.68302" lon="3.78331">
        <ele>107.4</ele>
        <time>2019-07-07T07:52:05Z</time>
      </trkpt>
      <trkpt lat="43.68298" lon="3.78339">
        <ele>107.3</ele>
        <time>2019-07-07T07:52:06Z</time>
      </trkpt>
      <trkpt lat="43.68293" lon="3.78343">
        <ele>107.2</ele>
        <time>2019-07-07T07:52:07Z</time>
      </trkpt>
      <trkpt lat="43.68285" lon="3.78343">
        <ele>107.2</ele>
        <time>2019-07-07T07:52:08Z</time>
      </trkpt>
      <trkpt lat="43.68279" lon="3.78347">
        <ele>107.1</ele>
        <time>2019-07-07T07:52:09Z</time>
      </trkpt>
      <trkpt lat="43.68272" lon="3.7835">
        <ele>107.1</ele>
        <time>2019-07-07T07:52:10Z</time>
      </trkpt>
      <trkpt lat="43.68265" lon="3.78354">
        <ele>106.9</ele>
        <time>2019-07-07T07:52:11Z</time>
      </trkpt>
      <trkpt lat="43.68258" lon="3.7836">
        <ele>106.7</ele>
        <time>2019-07-07T07:52:12Z</time>
      </trkpt>
      <trkpt lat="43.68252" lon="3.78367">
        <ele>106.5</ele>
        <time>2019-07-07T07:52:13Z</time>
      </trkpt>
      <trkpt lat="43.68245" lon="3.78372">
        <ele>106.3</ele>
        <time>2019-07-07T07:52:14Z</time>
      </trkpt>
      <trkpt lat="43.68238" lon="3.78378">
        <ele>106</ele>
        <time>2019-07-07T07:52:15Z</time>
      </trkpt>
      <trkpt lat="43.68232" lon="3.78383">
        <ele>105.8</ele>
        <time>2019-07-07T07:52:16Z</time>
      </trkpt>
      <trkpt lat="43.68225" lon="3.78389">
        <ele>105.6</ele>
        <time>2019-07-07T07:52:17Z</time>
      </trkpt>
      <trkpt lat="43.68219" lon="3.78395">
        <ele>105.3</ele>
        <time>2019-07-07T07:52:18Z</time>
      </trkpt>
      <trkpt lat="43.68214" lon="3.78401">
        <ele>105.1</ele>
        <time>2019-07-07T07:52:19Z</time>
      </trkpt>
      <trkpt lat="43.68209" lon="3.78407">
        <ele>104.8</ele>
        <time>2019-07-07T07:52:20Z</time>
      </trkpt>
      <trkpt lat="43.68205" lon="3.78413">
        <ele>104.5</ele>
        <time>2019-07-07T07:52:21Z</time>
      </trkpt>
      <trkpt lat="43.68203" lon="3.78418">
        <ele>104.2</ele>
        <time>2019-07-07T07:52:22Z</time>
      </trkpt>
      <trkpt lat="43.682" lon="3.78424">
        <ele>103.9</ele>
        <time>2019-07-07T07:52:23Z</time>
      </trkpt>
      <trkpt lat="43.68197" lon="3.7843">
        <ele>103.4</ele>
        <time>2019-07-07T07:52:24Z</time>
      </trkpt>
      <trkpt lat="43.68195" lon="3.78435">
        <ele>102.5</ele>
        <time>2019-07-07T07:52:25Z</time>
      </trkpt>
      <trkpt lat="43.68195" lon="3.78439">
        <ele>102.5</ele>
        <time>2019-07-07T07:52:26Z</time>
      </trkpt>
      <trkpt lat="43.68194" lon="3.78444">
        <ele>102.5</ele>
        <time>2019-07-07T07:52:28Z</time>
      </trkpt>
      <trkpt lat="43.68196" lon="3.78447">
        <ele>102.5</ele>
        <time>2019-07-07T07:52:30Z</time>
      </trkpt>
      <trkpt lat="43.682" lon="3.7845">
        <ele>102.5</ele>
        <time>2019-07-07T07:52:34Z</time>
      </trkpt>
      <trkpt lat="43.68202" lon="3.78451">
        <ele>102.5</ele>
        <time>2019-07-07T07:52:36Z</time>
      </trkpt>
      <trkpt lat="43.68205" lon="3.78452">
        <ele>102.6</ele>
        <time>2019-07-07T07:52:39Z</time>
      </trkpt>
      <trkpt lat="43.68208" lon="3.78453">
        <ele>102.6</ele>
        <time>2019-07-07T07:52:41Z</time>
      </trkpt>
      <trkpt lat="43.68211" lon="3.78452">
        <ele>102.6</ele>
        <time>2019-07-07T07:52:44Z</time>
      </trkpt>
      <trkpt lat="43.68214" lon="3.78451">
        <ele>102.7</ele>
        <time>2019-07-07T07:52:47Z</time>
      </trkpt>
      <trkpt lat="43.68218" lon="3.78453">
        <ele>102.8</ele>
        <time>2019-07-07T07:52:50Z</time>
      </trkpt>
      <trkpt lat="43.6822" lon="3.78457">
        <ele>102.9</ele>
        <time>2019-07-07T07:52:52Z</time>
      </trkpt>
      <trkpt lat="43.68223" lon="3.78456">
        <ele>103</ele>
        <time>2019-07-07T07:52:53Z</time>
      </trkpt>
      <trkpt lat="43.68225" lon="3.7846">
        <ele>103.2</ele>
        <time>2019-07-07T07:52:55Z</time>
      </trkpt>
      <trkpt lat="43.6823" lon="3.78461">
        <ele>103.4</ele>
        <time>2019-07-07T07:52:57Z</time>
      </trkpt>
      <trkpt lat="43.68235" lon="3.7846">
        <ele>103.7</ele>
        <time>2019-07-07T07:52:59Z</time>
      </trkpt>
      <trkpt lat="43.68237" lon="3.78465">
        <ele>103.9</ele>
        <time>2019-07-07T07:53:02Z</time>
      </trkpt>
      <trkpt lat="43.68239" lon="3.78468">
        <ele>104.1</ele>
        <time>2019-07-07T07:53:03Z</time>
      </trkpt>
      <trkpt lat="43.68243" lon="3.78467">
        <ele>104.5</ele>
        <time>2019-07-07T07:53:04Z</time>
      </trkpt>
      <trkpt lat="43.68246" lon="3.78468">
        <ele>104.7</ele>
        <time>2019-07-07T07:53:05Z</time>
      </trkpt>
      <trkpt lat="43.6825" lon="3.78469">
        <ele>105</ele>
        <time>2019-07-07T07:53:07Z</time>
      </trkpt>
      <trkpt lat="43.68254" lon="3.78472">
        <ele>105.4</ele>
        <time>2019-07-07T07:53:10Z</time>
      </trkpt>
      <trkpt lat="43.68258" lon="3.78473">
        <ele>106</ele>
        <time>2019-07-07T07:53:13Z</time>
      </trkpt>
      <trkpt lat="43.68261" lon="3.78475">
        <ele>106.5</ele>
        <time>2019-07-07T07:53:15Z</time>
      </trkpt>
      <trkpt lat="43.68265" lon="3.78472">
        <ele>107.1</ele>
        <time>2019-07-07T07:53:16Z</time>
      </trkpt>
      <trkpt lat="43.68268" lon="3.78475">
        <ele>107.7</ele>
        <time>2019-07-07T07:53:19Z</time>
      </trkpt>
      <trkpt lat="43.68272" lon="3.78478">
        <ele>108.3</ele>
        <time>2019-07-07T07:53:21Z</time>
      </trkpt>
      <trkpt lat="43.68274" lon="3.78482">
        <ele>108.8</ele>
        <time>2019-07-07T07:53:23Z</time>
      </trkpt>
      <trkpt lat="43.68278" lon="3.78484">
        <ele>109.2</ele>
        <time>2019-07-07T07:53:25Z</time>
      </trkpt>
      <trkpt lat="43.68282" lon="3.78486">
        <ele>109.6</ele>
        <time>2019-07-07T07:53:27Z</time>
      </trkpt>
      <trkpt lat="43.68285" lon="3.78486">
        <ele>109.9</ele>
        <time>2019-07-07T07:53:28Z</time>
      </trkpt>
      <trkpt lat="43.68288" lon="3.78489">
        <ele>110.2</ele>
        <time>2019-07-07T07:53:31Z</time>
      </trkpt>
      <trkpt lat="43.68291" lon="3.78492">
        <ele>110.5</ele>
        <time>2019-07-07T07:53:33Z</time>
      </trkpt>
      <trkpt lat="43.68294" lon="3.78493">
        <ele>110.8</ele>
        <time>2019-07-07T07:53:35Z</time>
      </trkpt>
      <trkpt lat="43.68292" lon="3.78497">
        <ele>111</ele>
        <time>2019-07-07T07:53:37Z</time>
      </trkpt>
      <trkpt lat="43.68294" lon="3.78494">
        <ele>111.2</ele>
        <time>2019-07-07T07:53:38Z</time>
      </trkpt>
      <trkpt lat="43.68298" lon="3.78495">
        <ele>111.4</ele>
        <time>2019-07-07T07:53:42Z</time>
      </trkpt>
      <trkpt lat="43.68301" lon="3.78498">
        <ele>111.7</ele>
        <time>2019-07-07T07:53:44Z</time>
      </trkpt>
      <trkpt lat="43.68305" lon="3.78499">
        <ele>112</ele>
        <time>2019-07-07T07:53:46Z</time>
      </trkpt>
      <trkpt lat="43.68308" lon="3.78499">
        <ele>112.3</ele>
        <time>2019-07-07T07:53:51Z</time>
      </trkpt>
      <trkpt lat="43.68313" lon="3.78499">
        <ele>112.7</ele>
        <time>2019-07-07T07:53:55Z</time>
      </trkpt>
      <trkpt lat="43.68317" lon="3.785">
        <ele>113</ele>
        <time>2019-07-07T07:54:00Z</time>
      </trkpt>
      <trkpt lat="43.6832" lon="3.78498">
        <ele>113.3</ele>
        <time>2019-07-07T07:54:01Z</time>
      </trkpt>
      <trkpt lat="43.68323" lon="3.78496">
        <ele>113.6</ele>
        <time>2019-07-07T07:54:03Z</time>
      </trkpt>
      <trkpt lat="43.68325" lon="3.78492">
        <ele>113.9</ele>
        <time>2019-07-07T07:54:05Z</time>
      </trkpt>
      <trkpt lat="43.68329" lon="3.78489">
        <ele>114.3</ele>
        <time>2019-07-07T07:54:07Z</time>
      </trkpt>
      <trkpt lat="43.6833" lon="3.78485">
        <ele>114.6</ele>
        <time>2019-07-07T07:54:10Z</time>
      </trkpt>
      <trkpt lat="43.68334" lon="3.78484">
        <ele>114.9</ele>
        <time>2019-07-07T07:54:12Z</time>
      </trkpt>
      <trkpt lat="43.68338" lon="3.78484">
        <ele>115.2</ele>
        <time>2019-07-07T07:54:14Z</time>
      </trkpt>
      <trkpt lat="43.68343" lon="3.78484">
        <ele>115.5</ele>
        <time>2019-07-07T07:54:16Z</time>
      </trkpt>
      <trkpt lat="43.68346" lon="3.78489">
        <ele>115.8</ele>
        <time>2019-07-07T07:54:18Z</time>
      </trkpt>
      <trkpt lat="43.68351" lon="3.78493">
        <ele>116</ele>
        <time>2019-07-07T07:54:20Z</time>
      </trkpt>
      <trkpt lat="43.68353" lon="3.78498">
        <ele>116.2</ele>
        <time>2019-07-07T07:54:22Z</time>
      </trkpt>
      <trkpt lat="43.68354" lon="3.78504">
        <ele>116.4</ele>
        <time>2019-07-07T07:54:24Z</time>
      </trkpt>
      <trkpt lat="43.68353" lon="3.7851">
        <ele>116.6</ele>
        <time>2019-07-07T07:54:26Z</time>
      </trkpt>
      <trkpt lat="43.68353" lon="3.78515">
        <ele>116.7</ele>
        <time>2019-07-07T07:54:28Z</time>
      </trkpt>
      <trkpt lat="43.68354" lon="3.78521">
        <ele>116.9</ele>
        <time>2019-07-07T07:54:30Z</time>
      </trkpt>
      <trkpt lat="43.68355" lon="3.78527">
        <ele>117.2</ele>
        <time>2019-07-07T07:54:32Z</time>
      </trkpt>
      <trkpt lat="43.68356" lon="3.78532">
        <ele>117.4</ele>
        <time>2019-07-07T07:54:34Z</time>
      </trkpt>
      <trkpt lat="43.68357" lon="3.78537">
        <ele>117.6</ele>
        <time>2019-07-07T07:54:36Z</time>
      </trkpt>
      <trkpt lat="43.68359" lon="3.78541">
        <ele>117.8</ele>
        <time>2019-07-07T07:54:38Z</time>
      </trkpt>
      <trkpt lat="43.68361" lon="3.78545">
        <ele>118</ele>
        <time>2019-07-07T07:54:40Z</time>
      </trkpt>
      <trkpt lat="43.68363" lon="3.78549">
        <ele>118.2</ele>
        <time>2019-07-07T07:54:42Z</time>
      </trkpt>
      <trkpt lat="43.68365" lon="3.78552">
        <ele>118.4</ele>
        <time>2019-07-07T07:54:45Z</time>
      </trkpt>
      <trkpt lat="43.68367" lon="3.78557">
        <ele>118.8</ele>
        <time>2019-07-07T07:54:48Z</time>
      </trkpt>
      <trkpt lat="43.6837" lon="3.7856">
        <ele>119.3</ele>
        <time>2019-07-07T07:54:50Z</time>
      </trkpt>
      <trkpt lat="43.68372" lon="3.78563">
        <ele>119.7</ele>
        <time>2019-07-07T07:54:53Z</time>
      </trkpt>
      <trkpt lat="43.68375" lon="3.78567">
        <ele>120.2</ele>
        <time>2019-07-07T07:54:55Z</time>
      </trkpt>
      <trkpt lat="43.68375" lon="3.78575">
        <ele>120.9</ele>
        <time>2019-07-07T07:54:58Z</time>
      </trkpt>
      <trkpt lat="43.68377" lon="3.78577">
        <ele>121.2</ele>
        <time>2019-07-07T07:55:00Z</time>
      </trkpt>
      <trkpt lat="43.6838" lon="3.78579">
        <ele>121.5</ele>
        <time>2019-07-07T07:55:02Z</time>
      </trkpt>
      <trkpt lat="43.68379" lon="3.78582">
        <ele>121.7</ele>
        <time>2019-07-07T07:55:04Z</time>
      </trkpt>
      <trkpt lat="43.68381" lon="3.78579">
        <ele>121.9</ele>
        <time>2019-07-07T07:55:07Z</time>
      </trkpt>
      <trkpt lat="43.68379" lon="3.78574">
        <ele>122.2</ele>
        <time>2019-07-07T07:55:09Z</time>
      </trkpt>
      <trkpt lat="43.68378" lon="3.7857">
        <ele>122.4</ele>
        <time>2019-07-07T07:55:12Z</time>
      </trkpt>
      <trkpt lat="43.68376" lon="3.78567">
        <ele>122.6</ele>
        <time>2019-07-07T07:55:15Z</time>
      </trkpt>
      <trkpt lat="43.68376" lon="3.78563">
        <ele>126.5</ele>
        <time>2019-07-07T07:55:18Z</time>
      </trkpt>
      <trkpt lat="43.68377" lon="3.78556">
        <ele>126.9</ele>
        <time>2019-07-07T07:55:22Z</time>
      </trkpt>
      <trkpt lat="43.68378" lon="3.78551">
        <ele>127.2</ele>
        <time>2019-07-07T07:55:24Z</time>
      </trkpt>
      <trkpt lat="43.6838" lon="3.78547">
        <ele>127.5</ele>
        <time>2019-07-07T07:55:26Z</time>
      </trkpt>
      <trkpt lat="43.68376" lon="3.78545">
        <ele>127.9</ele>
        <time>2019-07-07T07:55:27Z</time>
      </trkpt>
      <trkpt lat="43.68375" lon="3.7854">
        <ele>128.2</ele>
        <time>2019-07-07T07:55:30Z</time>
      </trkpt>
      <trkpt lat="43.68373" lon="3.78536">
        <ele>128.6</ele>
        <time>2019-07-07T07:55:32Z</time>
      </trkpt>
      <trkpt lat="43.68373" lon="3.78533">
        <ele>128.9</ele>
        <time>2019-07-07T07:55:34Z</time>
      </trkpt>
      <trkpt lat="43.68374" lon="3.78528">
        <ele>129.3</ele>
        <time>2019-07-07T07:55:36Z</time>
      </trkpt>
      <trkpt lat="43.68375" lon="3.78521">
        <ele>129.8</ele>
        <time>2019-07-07T07:55:40Z</time>
      </trkpt>
      <trkpt lat="43.68378" lon="3.7852">
        <ele>130.1</ele>
        <time>2019-07-07T07:55:42Z</time>
      </trkpt>
      <trkpt lat="43.6838" lon="3.78516">
        <ele>130.4</ele>
        <time>2019-07-07T07:55:43Z</time>
      </trkpt>
      <trkpt lat="43.68382" lon="3.78514">
        <ele>130.7</ele>
        <time>2019-07-07T07:55:44Z</time>
      </trkpt>
      <trkpt lat="43.68386" lon="3.78509">
        <ele>131.3</ele>
        <time>2019-07-07T07:55:46Z</time>
      </trkpt>
      <trkpt lat="43.68388" lon="3.785">
        <ele>131.9</ele>
        <time>2019-07-07T07:55:48Z</time>
      </trkpt>
      <trkpt lat="43.6839" lon="3.78497">
        <ele>132.1</ele>
        <time>2019-07-07T07:55:50Z</time>
      </trkpt>
      <trkpt lat="43.68392" lon="3.78492">
        <ele>132.5</ele>
        <time>2019-07-07T07:55:51Z</time>
      </trkpt>
      <trkpt lat="43.68395" lon="3.78488">
        <ele>133</ele>
        <time>2019-07-07T07:55:54Z</time>
      </trkpt>
      <trkpt lat="43.684" lon="3.78485">
        <ele>133.5</ele>
        <time>2019-07-07T07:55:56Z</time>
      </trkpt>
      <trkpt lat="43.68401" lon="3.78481">
        <ele>133.9</ele>
        <time>2019-07-07T07:55:57Z</time>
      </trkpt>
      <trkpt lat="43.68405" lon="3.78481">
        <ele>134.2</ele>
        <time>2019-07-07T07:56:00Z</time>
      </trkpt>
      <trkpt lat="43.68408" lon="3.78479">
        <ele>134.5</ele>
        <time>2019-07-07T07:56:02Z</time>
      </trkpt>
      <trkpt lat="43.68412" lon="3.78477">
        <ele>134.8</ele>
        <time>2019-07-07T07:56:04Z</time>
      </trkpt>
      <trkpt lat="43.68415" lon="3.78476">
        <ele>135.1</ele>
        <time>2019-07-07T07:56:06Z</time>
      </trkpt>
      <trkpt lat="43.6842" lon="3.78478">
        <ele>135.4</ele>
        <time>2019-07-07T07:56:08Z</time>
      </trkpt>
      <trkpt lat="43.68424" lon="3.78477">
        <ele>135.6</ele>
        <time>2019-07-07T07:56:10Z</time>
      </trkpt>
      <trkpt lat="43.68427" lon="3.78475">
        <ele>135.8</ele>
        <time>2019-07-07T07:56:12Z</time>
      </trkpt>
      <trkpt lat="43.68432" lon="3.78475">
        <ele>136.1</ele>
        <time>2019-07-07T07:56:14Z</time>
      </trkpt>
      <trkpt lat="43.68435" lon="3.78474">
        <ele>136.4</ele>
        <time>2019-07-07T07:56:16Z</time>
      </trkpt>
      <trkpt lat="43.68438" lon="3.7847">
        <ele>136.7</ele>
        <time>2019-07-07T07:56:18Z</time>
      </trkpt>
      <trkpt lat="43.6844" lon="3.78467">
        <ele>137.1</ele>
        <time>2019-07-07T07:56:20Z</time>
      </trkpt>
      <trkpt lat="43.68444" lon="3.78466">
        <ele>137.4</ele>
        <time>2019-07-07T07:56:22Z</time>
      </trkpt>
      <trkpt lat="43.68448" lon="3.78465">
        <ele>137.7</ele>
        <time>2019-07-07T07:56:24Z</time>
      </trkpt>
      <trkpt lat="43.68451" lon="3.78464">
        <ele>138</ele>
        <time>2019-07-07T07:56:26Z</time>
      </trkpt>
      <trkpt lat="43.68454" lon="3.78465">
        <ele>138.2</ele>
        <time>2019-07-07T07:56:28Z</time>
      </trkpt>
      <trkpt lat="43.68457" lon="3.78462">
        <ele>138.4</ele>
        <time>2019-07-07T07:56:30Z</time>
      </trkpt>
      <trkpt lat="43.6846" lon="3.78462">
        <ele>138.7</ele>
        <time>2019-07-07T07:56:32Z</time>
      </trkpt>
      <trkpt lat="43.68463" lon="3.78462">
        <ele>139</ele>
        <time>2019-07-07T07:56:36Z</time>
      </trkpt>
      <trkpt lat="43.68465" lon="3.7846">
        <ele>139.2</ele>
        <time>2019-07-07T07:56:38Z</time>
      </trkpt>
      <trkpt lat="43.68468" lon="3.78458">
        <ele>139.4</ele>
        <time>2019-07-07T07:56:40Z</time>
      </trkpt>
      <trkpt lat="43.6847" lon="3.78454">
        <ele>139.6</ele>
        <time>2019-07-07T07:56:43Z</time>
      </trkpt>
      <trkpt lat="43.68467" lon="3.78456">
        <ele>139.9</ele>
        <time>2019-07-07T07:56:46Z</time>
      </trkpt>
      <trkpt lat="43.68464" lon="3.78453">
        <ele>140.1</ele>
        <time>2019-07-07T07:56:50Z</time>
      </trkpt>
      <trkpt lat="43.68461" lon="3.78452">
        <ele>140.4</ele>
        <time>2019-07-07T07:56:53Z</time>
      </trkpt>
      <trkpt lat="43.68457" lon="3.78449">
        <ele>140.6</ele>
        <time>2019-07-07T07:56:56Z</time>
      </trkpt>
      <trkpt lat="43.68455" lon="3.78445">
        <ele>140.9</ele>
        <time>2019-07-07T07:56:59Z</time>
      </trkpt>
      <trkpt lat="43.68452" lon="3.78441">
        <ele>141.1</ele>
        <time>2019-07-07T07:57:01Z</time>
      </trkpt>
      <trkpt lat="43.6845" lon="3.78438">
        <ele>141.3</ele>
        <time>2019-07-07T07:57:04Z</time>
      </trkpt>
      <trkpt lat="43.68447" lon="3.78435">
        <ele>141.5</ele>
        <time>2019-07-07T07:57:06Z</time>
      </trkpt>
      <trkpt lat="43.68448" lon="3.7843">
        <ele>141.5</ele>
        <time>2019-07-07T07:57:08Z</time>
      </trkpt>
      <trkpt lat="43.68447" lon="3.78425">
        <ele>141.6</ele>
        <time>2019-07-07T07:57:10Z</time>
      </trkpt>
      <trkpt lat="43.68446" lon="3.78421">
        <ele>141.6</ele>
        <time>2019-07-07T07:57:12Z</time>
      </trkpt>
      <trkpt lat="43.68444" lon="3.78415">
        <ele>141.7</ele>
        <time>2019-07-07T07:57:14Z</time>
      </trkpt>
      <trkpt lat="43.68443" lon="3.7841">
        <ele>141.8</ele>
        <time>2019-07-07T07:57:16Z</time>
      </trkpt>
      <trkpt lat="43.6844" lon="3.78409">
        <ele>141.8</ele>
        <time>2019-07-07T07:57:17Z</time>
      </trkpt>
      <trkpt lat="43.6844" lon="3.78405">
        <ele>141.9</ele>
        <time>2019-07-07T07:57:19Z</time>
      </trkpt>
      <trkpt lat="43.68441" lon="3.78401">
        <ele>142.1</ele>
        <time>2019-07-07T07:57:21Z</time>
      </trkpt>
      <trkpt lat="43.68443" lon="3.78396">
        <ele>142.2</ele>
        <time>2019-07-07T07:57:23Z</time>
      </trkpt>
      <trkpt lat="43.68443" lon="3.78391">
        <ele>142.4</ele>
        <time>2019-07-07T07:57:25Z</time>
      </trkpt>
      <trkpt lat="43.68444" lon="3.78387">
        <ele>142.5</ele>
        <time>2019-07-07T07:57:26Z</time>
      </trkpt>
      <trkpt lat="43.68446" lon="3.78384">
        <ele>142.6</ele>
        <time>2019-07-07T07:57:27Z</time>
      </trkpt>
      <trkpt lat="43.68446" lon="3.7838">
        <ele>142.7</ele>
        <time>2019-07-07T07:57:30Z</time>
      </trkpt>
      <trkpt lat="43.68448" lon="3.78377">
        <ele>142.8</ele>
        <time>2019-07-07T07:57:31Z</time>
      </trkpt>
      <trkpt lat="43.68451" lon="3.78373">
        <ele>143</ele>
        <time>2019-07-07T07:57:32Z</time>
      </trkpt>
      <trkpt lat="43.68455" lon="3.78372">
        <ele>143.3</ele>
        <time>2019-07-07T07:57:34Z</time>
      </trkpt>
      <trkpt lat="43.68458" lon="3.7837">
        <ele>143.7</ele>
        <time>2019-07-07T07:57:35Z</time>
      </trkpt>
      <trkpt lat="43.68462" lon="3.78372">
        <ele>144.4</ele>
        <time>2019-07-07T07:57:37Z</time>
      </trkpt>
      <trkpt lat="43.68467" lon="3.78372">
        <ele>145.1</ele>
        <time>2019-07-07T07:57:39Z</time>
      </trkpt>
      <trkpt lat="43.6847" lon="3.78373">
        <ele>145.6</ele>
        <time>2019-07-07T07:57:41Z</time>
      </trkpt>
      <trkpt lat="43.68474" lon="3.78374">
        <ele>146.2</ele>
        <time>2019-07-07T07:57:45Z</time>
      </trkpt>
      <trkpt lat="43.68477" lon="3.78378">
        <ele>146.7</ele>
        <time>2019-07-07T07:57:47Z</time>
      </trkpt>
      <trkpt lat="43.68481" lon="3.7838">
        <ele>147.4</ele>
        <time>2019-07-07T07:57:51Z</time>
      </trkpt>
      <trkpt lat="43.68485" lon="3.7838">
        <ele>147.9</ele>
        <time>2019-07-07T07:57:53Z</time>
      </trkpt>
      <trkpt lat="43.68487" lon="3.78384">
        <ele>148.4</ele>
        <time>2019-07-07T07:57:55Z</time>
      </trkpt>
      <trkpt lat="43.68491" lon="3.78385">
        <ele>148.9</ele>
        <time>2019-07-07T07:57:57Z</time>
      </trkpt>
      <trkpt lat="43.68494" lon="3.78384">
        <ele>149.3</ele>
        <time>2019-07-07T07:57:59Z</time>
      </trkpt>
      <trkpt lat="43.68496" lon="3.78381">
        <ele>149.7</ele>
        <time>2019-07-07T07:58:01Z</time>
      </trkpt>
      <trkpt lat="43.685" lon="3.78382">
        <ele>150.2</ele>
        <time>2019-07-07T07:58:03Z</time>
      </trkpt>
      <trkpt lat="43.68504" lon="3.78381">
        <ele>150.7</ele>
        <time>2019-07-07T07:58:05Z</time>
      </trkpt>
      <trkpt lat="43.68508" lon="3.78385">
        <ele>151.3</ele>
        <time>2019-07-07T07:58:07Z</time>
      </trkpt>
      <trkpt lat="43.68512" lon="3.78385">
        <ele>151.8</ele>
        <time>2019-07-07T07:58:09Z</time>
      </trkpt>
      <trkpt lat="43.68516" lon="3.78386">
        <ele>152.3</ele>
        <time>2019-07-07T07:58:11Z</time>
      </trkpt>
      <trkpt lat="43.68519" lon="3.78387">
        <ele>152.7</ele>
        <time>2019-07-07T07:58:13Z</time>
      </trkpt>
      <trkpt lat="43.68522" lon="3.78388">
        <ele>153.1</ele>
        <time>2019-07-07T07:58:16Z</time>
      </trkpt>
      <trkpt lat="43.68526" lon="3.78388">
        <ele>153.5</ele>
        <time>2019-07-07T07:58:18Z</time>
      </trkpt>
      <trkpt lat="43.6853" lon="3.78388">
        <ele>154</ele>
        <time>2019-07-07T07:58:20Z</time>
      </trkpt>
      <trkpt lat="43.68532" lon="3.78388">
        <ele>154.3</ele>
        <time>2019-07-07T07:58:22Z</time>
      </trkpt>
      <trkpt lat="43.68536" lon="3.78389">
        <ele>154.6</ele>
        <time>2019-07-07T07:58:24Z</time>
      </trkpt>
      <trkpt lat="43.6854" lon="3.78388">
        <ele>155.1</ele>
        <time>2019-07-07T07:58:26Z</time>
      </trkpt>
      <trkpt lat="43.68543" lon="3.78388">
        <ele>155.5</ele>
        <time>2019-07-07T07:58:28Z</time>
      </trkpt>
      <trkpt lat="43.68547" lon="3.78386">
        <ele>155.9</ele>
        <time>2019-07-07T07:58:30Z</time>
      </trkpt>
      <trkpt lat="43.68552" lon="3.78389">
        <ele>156.4</ele>
        <time>2019-07-07T07:58:33Z</time>
      </trkpt>
      <trkpt lat="43.68555" lon="3.78389">
        <ele>156.7</ele>
        <time>2019-07-07T07:58:34Z</time>
      </trkpt>
      <trkpt lat="43.68558" lon="3.78387">
        <ele>157.1</ele>
        <time>2019-07-07T07:58:36Z</time>
      </trkpt>
      <trkpt lat="43.6856" lon="3.78385">
        <ele>157.4</ele>
        <time>2019-07-07T07:58:37Z</time>
      </trkpt>
      <trkpt lat="43.68564" lon="3.78382">
        <ele>157.9</ele>
        <time>2019-07-07T07:58:39Z</time>
      </trkpt>
      <trkpt lat="43.68568" lon="3.78383">
        <ele>158.3</ele>
        <time>2019-07-07T07:58:41Z</time>
      </trkpt>
      <trkpt lat="43.68571" lon="3.78383">
        <ele>158.6</ele>
        <time>2019-07-07T07:58:43Z</time>
      </trkpt>
      <trkpt lat="43.68574" lon="3.78384">
        <ele>159</ele>
        <time>2019-07-07T07:58:45Z</time>
      </trkpt>
      <trkpt lat="43.68578" lon="3.78385">
        <ele>159.4</ele>
        <time>2019-07-07T07:58:47Z</time>
      </trkpt>
      <trkpt lat="43.6858" lon="3.7839">
        <ele>159.8</ele>
        <time>2019-07-07T07:58:49Z</time>
      </trkpt>
      <trkpt lat="43.68583" lon="3.78392">
        <ele>160.1</ele>
        <time>2019-07-07T07:58:51Z</time>
      </trkpt>
      <trkpt lat="43.68585" lon="3.78399">
        <ele>160.6</ele>
        <time>2019-07-07T07:58:53Z</time>
      </trkpt>
      <trkpt lat="43.68588" lon="3.78403">
        <ele>160.9</ele>
        <time>2019-07-07T07:58:55Z</time>
      </trkpt>
      <trkpt lat="43.68591" lon="3.78408">
        <ele>161.3</ele>
        <time>2019-07-07T07:58:57Z</time>
      </trkpt>
      <trkpt lat="43.68592" lon="3.78412">
        <ele>161.6</ele>
        <time>2019-07-07T07:58:58Z</time>
      </trkpt>
      <trkpt lat="43.68593" lon="3.78415">
        <ele>161.9</ele>
        <time>2019-07-07T07:58:59Z</time>
      </trkpt>
      <trkpt lat="43.68594" lon="3.7842">
        <ele>162.2</ele>
        <time>2019-07-07T07:59:00Z</time>
      </trkpt>
      <trkpt lat="43.68594" lon="3.78426">
        <ele>162.6</ele>
        <time>2019-07-07T07:59:01Z</time>
      </trkpt>
      <trkpt lat="43.68594" lon="3.7843">
        <ele>163</ele>
        <time>2019-07-07T07:59:03Z</time>
      </trkpt>
      <trkpt lat="43.68595" lon="3.78437">
        <ele>163.4</ele>
        <time>2019-07-07T07:59:05Z</time>
      </trkpt>
      <trkpt lat="43.68596" lon="3.78443">
        <ele>163.8</ele>
        <time>2019-07-07T07:59:07Z</time>
      </trkpt>
      <trkpt lat="43.68597" lon="3.78447">
        <ele>164.1</ele>
        <time>2019-07-07T07:59:09Z</time>
      </trkpt>
      <trkpt lat="43.686" lon="3.78452">
        <ele>164.4</ele>
        <time>2019-07-07T07:59:11Z</time>
      </trkpt>
      <trkpt lat="43.68603" lon="3.78456">
        <ele>164.7</ele>
        <time>2019-07-07T07:59:13Z</time>
      </trkpt>
      <trkpt lat="43.68603" lon="3.7846">
        <ele>165</ele>
        <time>2019-07-07T07:59:14Z</time>
      </trkpt>
      <trkpt lat="43.68604" lon="3.78464">
        <ele>165.1</ele>
        <time>2019-07-07T07:59:18Z</time>
      </trkpt>
      <trkpt lat="43.68607" lon="3.78467">
        <ele>165.2</ele>
        <time>2019-07-07T07:59:20Z</time>
      </trkpt>
      <trkpt lat="43.68611" lon="3.7847">
        <ele>165.3</ele>
        <time>2019-07-07T07:59:22Z</time>
      </trkpt>
      <trkpt lat="43.68613" lon="3.78472">
        <ele>165.4</ele>
        <time>2019-07-07T07:59:24Z</time>
      </trkpt>
      <trkpt lat="43.68617" lon="3.78474">
        <ele>165.5</ele>
        <time>2019-07-07T07:59:26Z</time>
      </trkpt>
      <trkpt lat="43.6862" lon="3.78476">
        <ele>165.5</ele>
        <time>2019-07-07T07:59:28Z</time>
      </trkpt>
      <trkpt lat="43.68625" lon="3.78474">
        <ele>165.6</ele>
        <time>2019-07-07T07:59:30Z</time>
      </trkpt>
      <trkpt lat="43.68628" lon="3.78476">
        <ele>165.6</ele>
        <time>2019-07-07T07:59:31Z</time>
      </trkpt>
      <trkpt lat="43.68632" lon="3.78475">
        <ele>165.5</ele>
        <time>2019-07-07T07:59:34Z</time>
      </trkpt>
      <trkpt lat="43.68634" lon="3.78475">
        <ele>165.5</ele>
        <time>2019-07-07T07:59:36Z</time>
      </trkpt>
      <trkpt lat="43.68638" lon="3.78477">
        <ele>165.4</ele>
        <time>2019-07-07T07:59:37Z</time>
      </trkpt>
      <trkpt lat="43.68642" lon="3.78478">
        <ele>165.3</ele>
        <time>2019-07-07T07:59:39Z</time>
      </trkpt>
      <trkpt lat="43.68644" lon="3.78482">
        <ele>165.2</ele>
        <time>2019-07-07T07:59:40Z</time>
      </trkpt>
      <trkpt lat="43.68648" lon="3.78484">
        <ele>165</ele>
        <time>2019-07-07T07:59:42Z</time>
      </trkpt>
      <trkpt lat="43.68652" lon="3.78487">
        <ele>164.9</ele>
        <time>2019-07-07T07:59:43Z</time>
      </trkpt>
      <trkpt lat="43.68657" lon="3.78489">
        <ele>164.7</ele>
        <time>2019-07-07T07:59:45Z</time>
      </trkpt>
      <trkpt lat="43.6866" lon="3.78489">
        <ele>164.5</ele>
        <time>2019-07-07T07:59:46Z</time>
      </trkpt>
      <trkpt lat="43.68663" lon="3.78491">
        <ele>164.4</ele>
        <time>2019-07-07T07:59:47Z</time>
      </trkpt>
      <trkpt lat="43.68666" lon="3.78492">
        <ele>164.3</ele>
        <time>2019-07-07T07:59:48Z</time>
      </trkpt>
      <trkpt lat="43.68671" lon="3.78491">
        <ele>164.1</ele>
        <time>2019-07-07T07:59:50Z</time>
      </trkpt>
      <trkpt lat="43.68675" lon="3.78492">
        <ele>164</ele>
        <time>2019-07-07T07:59:51Z</time>
      </trkpt>
      <trkpt lat="43.68679" lon="3.78493">
        <ele>163.8</ele>
        <time>2019-07-07T07:59:52Z</time>
      </trkpt>
      <trkpt lat="43.68683" lon="3.78495">
        <ele>163.7</ele>
        <time>2019-07-07T07:59:53Z</time>
      </trkpt>
      <trkpt lat="43.68687" lon="3.78497">
        <ele>163.5</ele>
        <time>2019-07-07T07:59:54Z</time>
      </trkpt>
      <trkpt lat="43.6869" lon="3.785">
        <ele>163.4</ele>
        <time>2019-07-07T07:59:55Z</time>
      </trkpt>
      <trkpt lat="43.68693" lon="3.78501">
        <ele>163.3</ele>
        <time>2019-07-07T07:59:56Z</time>
      </trkpt>
      <trkpt lat="43.68697" lon="3.785">
        <ele>163.1</ele>
        <time>2019-07-07T07:59:57Z</time>
      </trkpt>
      <trkpt lat="43.68701" lon="3.78503">
        <ele>163</ele>
        <time>2019-07-07T07:59:58Z</time>
      </trkpt>
      <trkpt lat="43.68707" lon="3.78507">
        <ele>162.9</ele>
        <time>2019-07-07T07:59:59Z</time>
      </trkpt>
      <trkpt lat="43.68711" lon="3.78507">
        <ele>162.8</ele>
        <time>2019-07-07T08:00:00Z</time>
      </trkpt>
      <trkpt lat="43.68717" lon="3.78509">
        <ele>162.7</ele>
        <time>2019-07-07T08:00:01Z</time>
      </trkpt>
      <trkpt lat="43.68721" lon="3.7851">
        <ele>162.7</ele>
        <time>2019-07-07T08:00:02Z</time>
      </trkpt>
      <trkpt lat="43.68725" lon="3.78512">
        <ele>162.6</ele>
        <time>2019-07-07T08:00:03Z</time>
      </trkpt>
      <trkpt lat="43.6873" lon="3.78514">
        <ele>162.5</ele>
        <time>2019-07-07T08:00:04Z</time>
      </trkpt>
      <trkpt lat="43.68733" lon="3.78515">
        <ele>162.5</ele>
        <time>2019-07-07T08:00:05Z</time>
      </trkpt>
      <trkpt lat="43.68736" lon="3.78516">
        <ele>162.5</ele>
        <time>2019-07-07T08:00:06Z</time>
      </trkpt>
      <trkpt lat="43.6874" lon="3.78515">
        <ele>162.4</ele>
        <time>2019-07-07T08:00:07Z</time>
      </trkpt>
      <trkpt lat="43.68745" lon="3.78514">
        <ele>162.4</ele>
        <time>2019-07-07T08:00:08Z</time>
      </trkpt>
      <trkpt lat="43.68749" lon="3.78515">
        <ele>162.4</ele>
        <time>2019-07-07T08:00:09Z</time>
      </trkpt>
      <trkpt lat="43.68753" lon="3.78515">
        <ele>162.4</ele>
        <time>2019-07-07T08:00:10Z</time>
      </trkpt>
      <trkpt lat="43.68757" lon="3.78515">
        <ele>162.4</ele>
        <time>2019-07-07T08:00:11Z</time>
      </trkpt>
      <trkpt lat="43.68761" lon="3.78516">
        <ele>162.4</ele>
        <time>2019-07-07T08:00:12Z</time>
      </trkpt>
      <trkpt lat="43.68765" lon="3.78517">
        <ele>162.3</ele>
        <time>2019-07-07T08:00:13Z</time>
      </trkpt>
      <trkpt lat="43.68769" lon="3.7852">
        <ele>162.2</ele>
        <time>2019-07-07T08:00:14Z</time>
      </trkpt>
      <trkpt lat="43.68773" lon="3.78521">
        <ele>162.1</ele>
        <time>2019-07-07T08:00:15Z</time>
      </trkpt>
      <trkpt lat="43.68777" lon="3.78521">
        <ele>162</ele>
        <time>2019-07-07T08:00:16Z</time>
      </trkpt>
      <trkpt lat="43.68781" lon="3.78523">
        <ele>161.8</ele>
        <time>2019-07-07T08:00:17Z</time>
      </trkpt>
      <trkpt lat="43.68785" lon="3.78526">
        <ele>161.6</ele>
        <time>2019-07-07T08:00:18Z</time>
      </trkpt>
      <trkpt lat="43.68789" lon="3.78529">
        <ele>161.3</ele>
        <time>2019-07-07T08:00:19Z</time>
      </trkpt>
      <trkpt lat="43.68793" lon="3.7853">
        <ele>161.1</ele>
        <time>2019-07-07T08:00:20Z</time>
      </trkpt>
      <trkpt lat="43.68797" lon="3.78532">
        <ele>160.9</ele>
        <time>2019-07-07T08:00:21Z</time>
      </trkpt>
      <trkpt lat="43.688" lon="3.78533">
        <ele>160.8</ele>
        <time>2019-07-07T08:00:22Z</time>
      </trkpt>
      <trkpt lat="43.68804" lon="3.78535">
        <ele>160.7</ele>
        <time>2019-07-07T08:00:23Z</time>
      </trkpt>
      <trkpt lat="43.6881" lon="3.78535">
        <ele>160.5</ele>
        <time>2019-07-07T08:00:25Z</time>
      </trkpt>
      <trkpt lat="43.68813" lon="3.78537">
        <ele>160.4</ele>
        <time>2019-07-07T08:00:26Z</time>
      </trkpt>
      <trkpt lat="43.68815" lon="3.7854">
        <ele>160.3</ele>
        <time>2019-07-07T08:00:27Z</time>
      </trkpt>
      <trkpt lat="43.68821" lon="3.78545">
        <ele>160.3</ele>
        <time>2019-07-07T08:00:29Z</time>
      </trkpt>
      <trkpt lat="43.68823" lon="3.78548">
        <ele>160.4</ele>
        <time>2019-07-07T08:00:30Z</time>
      </trkpt>
      <trkpt lat="43.68824" lon="3.78553">
        <ele>160.6</ele>
        <time>2019-07-07T08:00:31Z</time>
      </trkpt>
      <trkpt lat="43.68825" lon="3.78557">
        <ele>160.8</ele>
        <time>2019-07-07T08:00:32Z</time>
      </trkpt>
      <trkpt lat="43.68825" lon="3.78562">
        <ele>161</ele>
        <time>2019-07-07T08:00:33Z</time>
      </trkpt>
      <trkpt lat="43.68826" lon="3.78568">
        <ele>161.1</ele>
        <time>2019-07-07T08:00:34Z</time>
      </trkpt>
      <trkpt lat="43.68826" lon="3.78573">
        <ele>161.3</ele>
        <time>2019-07-07T08:00:35Z</time>
      </trkpt>
      <trkpt lat="43.68827" lon="3.78579">
        <ele>161.5</ele>
        <time>2019-07-07T08:00:36Z</time>
      </trkpt>
      <trkpt lat="43.68827" lon="3.78585">
        <ele>161.6</ele>
        <time>2019-07-07T08:00:37Z</time>
      </trkpt>
      <trkpt lat="43.68829" lon="3.78591">
        <ele>161.8</ele>
        <time>2019-07-07T08:00:38Z</time>
      </trkpt>
      <trkpt lat="43.68829" lon="3.78598">
        <ele>162</ele>
        <time>2019-07-07T08:00:39Z</time>
      </trkpt>
      <trkpt lat="43.6883" lon="3.78605">
        <ele>162.2</ele>
        <time>2019-07-07T08:00:40Z</time>
      </trkpt>
      <trkpt lat="43.6883" lon="3.78613">
        <ele>162.4</ele>
        <time>2019-07-07T08:00:41Z</time>
      </trkpt>
      <trkpt lat="43.6883" lon="3.78619">
        <ele>162.5</ele>
        <time>2019-07-07T08:00:42Z</time>
      </trkpt>
      <trkpt lat="43.6883" lon="3.78626">
        <ele>162.7</ele>
        <time>2019-07-07T08:00:43Z</time>
      </trkpt>
      <trkpt lat="43.68831" lon="3.78633">
        <ele>162.9</ele>
        <time>2019-07-07T08:00:44Z</time>
      </trkpt>
      <trkpt lat="43.68831" lon="3.78639">
        <ele>163.1</ele>
        <time>2019-07-07T08:00:45Z</time>
      </trkpt>
      <trkpt lat="43.68831" lon="3.78645">
        <ele>163.3</ele>
        <time>2019-07-07T08:00:46Z</time>
      </trkpt>
      <trkpt lat="43.68832" lon="3.78653">
        <ele>163.6</ele>
        <time>2019-07-07T08:00:47Z</time>
      </trkpt>
      <trkpt lat="43.68832" lon="3.78661">
        <ele>163.9</ele>
        <time>2019-07-07T08:00:48Z</time>
      </trkpt>
      <trkpt lat="43.68832" lon="3.78668">
        <ele>164.3</ele>
        <time>2019-07-07T08:00:49Z</time>
      </trkpt>
      <trkpt lat="43.68832" lon="3.78675">
        <ele>164.6</ele>
        <time>2019-07-07T08:00:50Z</time>
      </trkpt>
      <trkpt lat="43.68832" lon="3.78682">
        <ele>165.1</ele>
        <time>2019-07-07T08:00:51Z</time>
      </trkpt>
      <trkpt lat="43.68833" lon="3.78689">
        <ele>165.5</ele>
        <time>2019-07-07T08:00:52Z</time>
      </trkpt>
      <trkpt lat="43.68833" lon="3.78695">
        <ele>166</ele>
        <time>2019-07-07T08:00:53Z</time>
      </trkpt>
      <trkpt lat="43.68834" lon="3.78701">
        <ele>166.4</ele>
        <time>2019-07-07T08:00:54Z</time>
      </trkpt>
      <trkpt lat="43.68834" lon="3.78708">
        <ele>167.1</ele>
        <time>2019-07-07T08:00:55Z</time>
      </trkpt>
      <trkpt lat="43.68835" lon="3.78714">
        <ele>167.7</ele>
        <time>2019-07-07T08:00:56Z</time>
      </trkpt>
      <trkpt lat="43.68837" lon="3.7872">
        <ele>168.2</ele>
        <time>2019-07-07T08:00:57Z</time>
      </trkpt>
      <trkpt lat="43.68838" lon="3.78725">
        <ele>169.3</ele>
        <time>2019-07-07T08:00:58Z</time>
      </trkpt>
      <trkpt lat="43.68839" lon="3.78731">
        <ele>169.6</ele>
        <time>2019-07-07T08:00:59Z</time>
      </trkpt>
      <trkpt lat="43.68841" lon="3.78736">
        <ele>169.8</ele>
        <time>2019-07-07T08:01:00Z</time>
      </trkpt>
      <trkpt lat="43.68844" lon="3.78739">
        <ele>170</ele>
        <time>2019-07-07T08:01:01Z</time>
      </trkpt>
      <trkpt lat="43.68847" lon="3.78742">
        <ele>170.2</ele>
        <time>2019-07-07T08:01:02Z</time>
      </trkpt>
      <trkpt lat="43.6885" lon="3.78745">
        <ele>170.4</ele>
        <time>2019-07-07T08:01:03Z</time>
      </trkpt>
      <trkpt lat="43.68853" lon="3.78747">
        <ele>170.6</ele>
        <time>2019-07-07T08:01:04Z</time>
      </trkpt>
      <trkpt lat="43.68857" lon="3.78749">
        <ele>170.7</ele>
        <time>2019-07-07T08:01:05Z</time>
      </trkpt>
      <trkpt lat="43.6886" lon="3.78751">
        <ele>170.9</ele>
        <time>2019-07-07T08:01:06Z</time>
      </trkpt>
      <trkpt lat="43.68864" lon="3.78753">
        <ele>171.1</ele>
        <time>2019-07-07T08:01:07Z</time>
      </trkpt>
      <trkpt lat="43.68868" lon="3.78752">
        <ele>171.2</ele>
        <time>2019-07-07T08:01:08Z</time>
      </trkpt>
      <trkpt lat="43.68872" lon="3.78752">
        <ele>171.4</ele>
        <time>2019-07-07T08:01:09Z</time>
      </trkpt>
      <trkpt lat="43.68876" lon="3.78752">
        <ele>171.5</ele>
        <time>2019-07-07T08:01:10Z</time>
      </trkpt>
      <trkpt lat="43.68881" lon="3.78753">
        <ele>171.7</ele>
        <time>2019-07-07T08:01:11Z</time>
      </trkpt>
      <trkpt lat="43.68885" lon="3.78753">
        <ele>171.8</ele>
        <time>2019-07-07T08:01:12Z</time>
      </trkpt>
      <trkpt lat="43.68889" lon="3.78755">
        <ele>172</ele>
        <time>2019-07-07T08:01:13Z</time>
      </trkpt>
      <trkpt lat="43.68893" lon="3.78755">
        <ele>172.1</ele>
        <time>2019-07-07T08:01:14Z</time>
      </trkpt>
      <trkpt lat="43.68897" lon="3.78756">
        <ele>172.4</ele>
        <time>2019-07-07T08:01:15Z</time>
      </trkpt>
      <trkpt lat="43.68901" lon="3.78757">
        <ele>172.5</ele>
        <time>2019-07-07T08:01:16Z</time>
      </trkpt>
      <trkpt lat="43.68906" lon="3.7876">
        <ele>172.6</ele>
        <time>2019-07-07T08:01:17Z</time>
      </trkpt>
      <trkpt lat="43.6891" lon="3.78762">
        <ele>172.7</ele>
        <time>2019-07-07T08:01:18Z</time>
      </trkpt>
      <trkpt lat="43.68915" lon="3.78763">
        <ele>172.8</ele>
        <time>2019-07-07T08:01:19Z</time>
      </trkpt>
      <trkpt lat="43.68918" lon="3.78766">
        <ele>172.9</ele>
        <time>2019-07-07T08:01:20Z</time>
      </trkpt>
      <trkpt lat="43.68923" lon="3.78768">
        <ele>172.9</ele>
        <time>2019-07-07T08:01:21Z</time>
      </trkpt>
      <trkpt lat="43.68926" lon="3.78772">
        <ele>173</ele>
        <time>2019-07-07T08:01:22Z</time>
      </trkpt>
      <trkpt lat="43.68929" lon="3.78777">
        <ele>173</ele>
        <time>2019-07-07T08:01:23Z</time>
      </trkpt>
      <trkpt lat="43.68933" lon="3.7878">
        <ele>173.1</ele>
        <time>2019-07-07T08:01:24Z</time>
      </trkpt>
      <trkpt lat="43.68938" lon="3.78784">
        <ele>173.1</ele>
        <time>2019-07-07T08:01:25Z</time>
      </trkpt>
      <trkpt lat="43.68942" lon="3.78789">
        <ele>173.1</ele>
        <time>2019-07-07T08:01:26Z</time>
      </trkpt>
      <trkpt lat="43.68944" lon="3.78794">
        <ele>173.2</ele>
        <time>2019-07-07T08:01:27Z</time>
      </trkpt>
      <trkpt lat="43.68948" lon="3.78799">
        <ele>173.2</ele>
        <time>2019-07-07T08:01:28Z</time>
      </trkpt>
      <trkpt lat="43.68952" lon="3.78805">
        <ele>173.2</ele>
        <time>2019-07-07T08:01:29Z</time>
      </trkpt>
      <trkpt lat="43.68956" lon="3.78811">
        <ele>173.2</ele>
        <time>2019-07-07T08:01:30Z</time>
      </trkpt>
      <trkpt lat="43.68958" lon="3.78817">
        <ele>173.2</ele>
        <time>2019-07-07T08:01:31Z</time>
      </trkpt>
      <trkpt lat="43.68961" lon="3.78822">
        <ele>173.2</ele>
        <time>2019-07-07T08:01:32Z</time>
      </trkpt>
      <trkpt lat="43.68963" lon="3.78828">
        <ele>173.3</ele>
        <time>2019-07-07T08:01:33Z</time>
      </trkpt>
      <trkpt lat="43.68966" lon="3.78834">
        <ele>173.3</ele>
        <time>2019-07-07T08:01:34Z</time>
      </trkpt>
      <trkpt lat="43.68968" lon="3.7884">
        <ele>173.3</ele>
        <time>2019-07-07T08:01:35Z</time>
      </trkpt>
      <trkpt lat="43.68971" lon="3.78847">
        <ele>173.3</ele>
        <time>2019-07-07T08:01:36Z</time>
      </trkpt>
      <trkpt lat="43.68973" lon="3.78854">
        <ele>173.3</ele>
        <time>2019-07-07T08:01:37Z</time>
      </trkpt>
      <trkpt lat="43.68974" lon="3.7886">
        <ele>173.3</ele>
        <time>2019-07-07T08:01:38Z</time>
      </trkpt>
      <trkpt lat="43.68976" lon="3.78868">
        <ele>173.3</ele>
        <time>2019-07-07T08:01:39Z</time>
      </trkpt>
      <trkpt lat="43.68977" lon="3.78874">
        <ele>173.4</ele>
        <time>2019-07-07T08:01:40Z</time>
      </trkpt>
      <trkpt lat="43.68978" lon="3.78879">
        <ele>173.4</ele>
        <time>2019-07-07T08:01:41Z</time>
      </trkpt>
      <trkpt lat="43.68979" lon="3.78886">
        <ele>173.4</ele>
        <time>2019-07-07T08:01:42Z</time>
      </trkpt>
      <trkpt lat="43.68981" lon="3.78893">
        <ele>173.4</ele>
        <time>2019-07-07T08:01:43Z</time>
      </trkpt>
      <trkpt lat="43.68982" lon="3.789">
        <ele>173.4</ele>
        <time>2019-07-07T08:01:44Z</time>
      </trkpt>
      <trkpt lat="43.68984" lon="3.78907">
        <ele>173.4</ele>
        <time>2019-07-07T08:01:45Z</time>
      </trkpt>
      <trkpt lat="43.68986" lon="3.78914">
        <ele>173.4</ele>
        <time>2019-07-07T08:01:46Z</time>
      </trkpt>
      <trkpt lat="43.68988" lon="3.78921">
        <ele>173.4</ele>
        <time>2019-07-07T08:01:47Z</time>
      </trkpt>
      <trkpt lat="43.6899" lon="3.78928">
        <ele>173.3</ele>
        <time>2019-07-07T08:01:48Z</time>
      </trkpt>
      <trkpt lat="43.68991" lon="3.78934">
        <ele>173.2</ele>
        <time>2019-07-07T08:01:49Z</time>
      </trkpt>
      <trkpt lat="43.68994" lon="3.78941">
        <ele>173.2</ele>
        <time>2019-07-07T08:01:50Z</time>
      </trkpt>
      <trkpt lat="43.68996" lon="3.78946">
        <ele>173.2</ele>
        <time>2019-07-07T08:01:51Z</time>
      </trkpt>
      <trkpt lat="43.68998" lon="3.78954">
        <ele>173.3</ele>
        <time>2019-07-07T08:01:52Z</time>
      </trkpt>
      <trkpt lat="43.69001" lon="3.78961">
        <ele>172.9</ele>
        <time>2019-07-07T08:01:53Z</time>
      </trkpt>
      <trkpt lat="43.69002" lon="3.78968">
        <ele>172.8</ele>
        <time>2019-07-07T08:01:54Z</time>
      </trkpt>
      <trkpt lat="43.69003" lon="3.78975">
        <ele>172.9</ele>
        <time>2019-07-07T08:01:55Z</time>
      </trkpt>
      <trkpt lat="43.69005" lon="3.78981">
        <ele>173.1</ele>
        <time>2019-07-07T08:01:56Z</time>
      </trkpt>
      <trkpt lat="43.69006" lon="3.78989">
        <ele>173.4</ele>
        <time>2019-07-07T08:01:57Z</time>
      </trkpt>
      <trkpt lat="43.69007" lon="3.78996">
        <ele>173.6</ele>
        <time>2019-07-07T08:01:58Z</time>
      </trkpt>
      <trkpt lat="43.69009" lon="3.79004">
        <ele>173.8</ele>
        <time>2019-07-07T08:01:59Z</time>
      </trkpt>
      <trkpt lat="43.69011" lon="3.79011">
        <ele>173.9</ele>
        <time>2019-07-07T08:02:00Z</time>
      </trkpt>
      <trkpt lat="43.69013" lon="3.79017">
        <ele>174.1</ele>
        <time>2019-07-07T08:02:01Z</time>
      </trkpt>
      <trkpt lat="43.69013" lon="3.79024">
        <ele>174.2</ele>
        <time>2019-07-07T08:02:02Z</time>
      </trkpt>
      <trkpt lat="43.69015" lon="3.79031">
        <ele>174.4</ele>
        <time>2019-07-07T08:02:03Z</time>
      </trkpt>
      <trkpt lat="43.69016" lon="3.79037">
        <ele>174.3</ele>
        <time>2019-07-07T08:02:04Z</time>
      </trkpt>
      <trkpt lat="43.69016" lon="3.79045">
        <ele>174.1</ele>
        <time>2019-07-07T08:02:05Z</time>
      </trkpt>
      <trkpt lat="43.69015" lon="3.79053">
        <ele>174</ele>
        <time>2019-07-07T08:02:06Z</time>
      </trkpt>
      <trkpt lat="43.69015" lon="3.79061">
        <ele>174</ele>
        <time>2019-07-07T08:02:07Z</time>
      </trkpt>
      <trkpt lat="43.69013" lon="3.79068">
        <ele>174.1</ele>
        <time>2019-07-07T08:02:08Z</time>
      </trkpt>
      <trkpt lat="43.69012" lon="3.79076">
        <ele>174.2</ele>
        <time>2019-07-07T08:02:09Z</time>
      </trkpt>
      <trkpt lat="43.69013" lon="3.79085">
        <ele>174.5</ele>
        <time>2019-07-07T08:02:10Z</time>
      </trkpt>
      <trkpt lat="43.69012" lon="3.79094">
        <ele>174.8</ele>
        <time>2019-07-07T08:02:11Z</time>
      </trkpt>
      <trkpt lat="43.69011" lon="3.79101">
        <ele>175</ele>
        <time>2019-07-07T08:02:12Z</time>
      </trkpt>
      <trkpt lat="43.6901" lon="3.79109">
        <ele>174.9</ele>
        <time>2019-07-07T08:02:13Z</time>
      </trkpt>
      <trkpt lat="43.69009" lon="3.79117">
        <ele>174.8</ele>
        <time>2019-07-07T08:02:14Z</time>
      </trkpt>
      <trkpt lat="43.69009" lon="3.79122">
        <ele>174.7</ele>
        <time>2019-07-07T08:02:15Z</time>
      </trkpt>
      <trkpt lat="43.69009" lon="3.79126">
        <ele>174.6</ele>
        <time>2019-07-07T08:02:16Z</time>
      </trkpt>
      <trkpt lat="43.69008" lon="3.7913">
        <ele>174.5</ele>
        <time>2019-07-07T08:02:17Z</time>
      </trkpt>
      <trkpt lat="43.69006" lon="3.79136">
        <ele>174.2</ele>
        <time>2019-07-07T08:02:19Z</time>
      </trkpt>
      <trkpt lat="43.69005" lon="3.7914">
        <ele>174.1</ele>
        <time>2019-07-07T08:02:20Z</time>
      </trkpt>
      <trkpt lat="43.69003" lon="3.79146">
        <ele>173.8</ele>
        <time>2019-07-07T08:02:22Z</time>
      </trkpt>
      <trkpt lat="43.69001" lon="3.7915">
        <ele>173.7</ele>
        <time>2019-07-07T08:02:23Z</time>
      </trkpt>
      <trkpt lat="43.68999" lon="3.79153">
        <ele>173.6</ele>
        <time>2019-07-07T08:02:24Z</time>
      </trkpt>
      <trkpt lat="43.68998" lon="3.79158">
        <ele>173.5</ele>
        <time>2019-07-07T08:02:25Z</time>
      </trkpt>
      <trkpt lat="43.68996" lon="3.79162">
        <ele>173.4</ele>
        <time>2019-07-07T08:02:26Z</time>
      </trkpt>
      <trkpt lat="43.68994" lon="3.79166">
        <ele>173.3</ele>
        <time>2019-07-07T08:02:27Z</time>
      </trkpt>
      <trkpt lat="43.68992" lon="3.79171">
        <ele>173.2</ele>
        <time>2019-07-07T08:02:28Z</time>
      </trkpt>
      <trkpt lat="43.68992" lon="3.79176">
        <ele>173</ele>
        <time>2019-07-07T08:02:29Z</time>
      </trkpt>
      <trkpt lat="43.6899" lon="3.79181">
        <ele>172.8</ele>
        <time>2019-07-07T08:02:30Z</time>
      </trkpt>
      <trkpt lat="43.68987" lon="3.79186">
        <ele>172.5</ele>
        <time>2019-07-07T08:02:31Z</time>
      </trkpt>
      <trkpt lat="43.68986" lon="3.79191">
        <ele>172.2</ele>
        <time>2019-07-07T08:02:32Z</time>
      </trkpt>
      <trkpt lat="43.68982" lon="3.79196">
        <ele>171.8</ele>
        <time>2019-07-07T08:02:33Z</time>
      </trkpt>
      <trkpt lat="43.68978" lon="3.79198">
        <ele>171.2</ele>
        <time>2019-07-07T08:02:34Z</time>
      </trkpt>
      <trkpt lat="43.68973" lon="3.792">
        <ele>170.3</ele>
        <time>2019-07-07T08:02:35Z</time>
      </trkpt>
      <trkpt lat="43.68967" lon="3.79203">
        <ele>169.5</ele>
        <time>2019-07-07T08:02:36Z</time>
      </trkpt>
      <trkpt lat="43.68962" lon="3.79206">
        <ele>168.6</ele>
        <time>2019-07-07T08:02:37Z</time>
      </trkpt>
      <trkpt lat="43.68955" lon="3.79209">
        <ele>167.8</ele>
        <time>2019-07-07T08:02:38Z</time>
      </trkpt>
      <trkpt lat="43.6895" lon="3.79211">
        <ele>166.9</ele>
        <time>2019-07-07T08:02:39Z</time>
      </trkpt>
      <trkpt lat="43.68945" lon="3.79215">
        <ele>166.4</ele>
        <time>2019-07-07T08:02:40Z</time>
      </trkpt>
      <trkpt lat="43.68938" lon="3.79219">
        <ele>165.5</ele>
        <time>2019-07-07T08:02:41Z</time>
      </trkpt>
      <trkpt lat="43.68933" lon="3.79222">
        <ele>164.7</ele>
        <time>2019-07-07T08:02:42Z</time>
      </trkpt>
      <trkpt lat="43.68925" lon="3.79226">
        <ele>163.6</ele>
        <time>2019-07-07T08:02:43Z</time>
      </trkpt>
      <trkpt lat="43.68919" lon="3.7923">
        <ele>162.9</ele>
        <time>2019-07-07T08:02:44Z</time>
      </trkpt>
      <trkpt lat="43.68913" lon="3.79234">
        <ele>162.6</ele>
        <time>2019-07-07T08:02:45Z</time>
      </trkpt>
      <trkpt lat="43.68908" lon="3.79238">
        <ele>162</ele>
        <time>2019-07-07T08:02:46Z</time>
      </trkpt>
      <trkpt lat="43.68902" lon="3.79242">
        <ele>161.4</ele>
        <time>2019-07-07T08:02:47Z</time>
      </trkpt>
      <trkpt lat="43.68896" lon="3.79246">
        <ele>160.8</ele>
        <time>2019-07-07T08:02:48Z</time>
      </trkpt>
      <trkpt lat="43.68889" lon="3.7925">
        <ele>160.2</ele>
        <time>2019-07-07T08:02:49Z</time>
      </trkpt>
      <trkpt lat="43.68884" lon="3.79252">
        <ele>159.6</ele>
        <time>2019-07-07T08:02:50Z</time>
      </trkpt>
      <trkpt lat="43.68879" lon="3.79256">
        <ele>159</ele>
        <time>2019-07-07T08:02:51Z</time>
      </trkpt>
      <trkpt lat="43.68873" lon="3.7926">
        <ele>158.7</ele>
        <time>2019-07-07T08:02:52Z</time>
      </trkpt>
      <trkpt lat="43.68868" lon="3.79263">
        <ele>158.2</ele>
        <time>2019-07-07T08:02:53Z</time>
      </trkpt>
      <trkpt lat="43.68863" lon="3.79266">
        <ele>157.7</ele>
        <time>2019-07-07T08:02:54Z</time>
      </trkpt>
      <trkpt lat="43.68858" lon="3.79269">
        <ele>157.6</ele>
        <time>2019-07-07T08:02:55Z</time>
      </trkpt>
      <trkpt lat="43.68853" lon="3.79271">
        <ele>156.9</ele>
        <time>2019-07-07T08:02:56Z</time>
      </trkpt>
      <trkpt lat="43.68848" lon="3.79274">
        <ele>157</ele>
        <time>2019-07-07T08:02:57Z</time>
      </trkpt>
      <trkpt lat="43.68845" lon="3.79278">
        <ele>157.1</ele>
        <time>2019-07-07T08:02:58Z</time>
      </trkpt>
      <trkpt lat="43.68841" lon="3.79283">
        <ele>157</ele>
        <time>2019-07-07T08:02:59Z</time>
      </trkpt>
      <trkpt lat="43.68839" lon="3.79287">
        <ele>157.4</ele>
        <time>2019-07-07T08:03:00Z</time>
      </trkpt>
      <trkpt lat="43.68837" lon="3.7929">
        <ele>157.1</ele>
        <time>2019-07-07T08:03:01Z</time>
      </trkpt>
      <trkpt lat="43.68833" lon="3.79292">
        <ele>157.1</ele>
        <time>2019-07-07T08:03:02Z</time>
      </trkpt>
      <trkpt lat="43.68831" lon="3.79295">
        <ele>157.1</ele>
        <time>2019-07-07T08:03:03Z</time>
      </trkpt>
      <trkpt lat="43.68825" lon="3.79296">
        <ele>156.5</ele>
        <time>2019-07-07T08:03:05Z</time>
      </trkpt>
      <trkpt lat="43.68822" lon="3.79299">
        <ele>156.5</ele>
        <time>2019-07-07T08:03:06Z</time>
      </trkpt>
      <trkpt lat="43.68819" lon="3.79302">
        <ele>156.2</ele>
        <time>2019-07-07T08:03:07Z</time>
      </trkpt>
      <trkpt lat="43.68816" lon="3.79303">
        <ele>156.2</ele>
        <time>2019-07-07T08:03:08Z</time>
      </trkpt>
      <trkpt lat="43.6881" lon="3.79307">
        <ele>155.6</ele>
        <time>2019-07-07T08:03:10Z</time>
      </trkpt>
      <trkpt lat="43.68807" lon="3.79309">
        <ele>155.6</ele>
        <time>2019-07-07T08:03:11Z</time>
      </trkpt>
      <trkpt lat="43.68805" lon="3.79311">
        <ele>155.3</ele>
        <time>2019-07-07T08:03:12Z</time>
      </trkpt>
      <trkpt lat="43.68801" lon="3.79315">
        <ele>155.2</ele>
        <time>2019-07-07T08:03:14Z</time>
      </trkpt>
      <trkpt lat="43.68798" lon="3.79317">
        <ele>155.1</ele>
        <time>2019-07-07T08:03:15Z</time>
      </trkpt>
      <trkpt lat="43.68794" lon="3.79318">
        <ele>154.7</ele>
        <time>2019-07-07T08:03:16Z</time>
      </trkpt>
      <trkpt lat="43.68791" lon="3.7932">
        <ele>154.3</ele>
        <time>2019-07-07T08:03:17Z</time>
      </trkpt>
      <trkpt lat="43.68788" lon="3.79323">
        <ele>154.1</ele>
        <time>2019-07-07T08:03:18Z</time>
      </trkpt>
      <trkpt lat="43.68786" lon="3.79325">
        <ele>154.1</ele>
        <time>2019-07-07T08:03:19Z</time>
      </trkpt>
      <trkpt lat="43.68784" lon="3.79327">
        <ele>153.7</ele>
        <time>2019-07-07T08:03:20Z</time>
      </trkpt>
      <trkpt lat="43.68781" lon="3.7933">
        <ele>153.1</ele>
        <time>2019-07-07T08:03:21Z</time>
      </trkpt>
      <trkpt lat="43.68778" lon="3.79333">
        <ele>152.6</ele>
        <time>2019-07-07T08:03:22Z</time>
      </trkpt>
      <trkpt lat="43.68774" lon="3.79336">
        <ele>151.9</ele>
        <time>2019-07-07T08:03:23Z</time>
      </trkpt>
      <trkpt lat="43.68772" lon="3.79338">
        <ele>151</ele>
        <time>2019-07-07T08:03:24Z</time>
      </trkpt>
      <trkpt lat="43.68769" lon="3.79341">
        <ele>150.4</ele>
        <time>2019-07-07T08:03:25Z</time>
      </trkpt>
      <trkpt lat="43.68766" lon="3.79344">
        <ele>149.4</ele>
        <time>2019-07-07T08:03:27Z</time>
      </trkpt>
      <trkpt lat="43.68763" lon="3.79344">
        <ele>148.8</ele>
        <time>2019-07-07T08:03:34Z</time>
      </trkpt>
      <trkpt lat="43.68759" lon="3.79344">
        <ele>148.1</ele>
        <time>2019-07-07T08:03:42Z</time>
      </trkpt>
      <trkpt lat="43.68757" lon="3.79347">
        <ele>147</ele>
        <time>2019-07-07T08:03:47Z</time>
      </trkpt>
      <trkpt lat="43.68755" lon="3.79351">
        <ele>145.8</ele>
        <time>2019-07-07T08:03:48Z</time>
      </trkpt>
      <trkpt lat="43.68752" lon="3.79357">
        <ele>145.1</ele>
        <time>2019-07-07T08:03:50Z</time>
      </trkpt>
      <trkpt lat="43.68752" lon="3.79363">
        <ele>144.4</ele>
        <time>2019-07-07T08:03:51Z</time>
      </trkpt>
      <trkpt lat="43.68751" lon="3.79368">
        <ele>142.8</ele>
        <time>2019-07-07T08:03:52Z</time>
      </trkpt>
      <trkpt lat="43.6875" lon="3.79381">
        <ele>141.3</ele>
        <time>2019-07-07T08:03:54Z</time>
      </trkpt>
      <trkpt lat="43.68749" lon="3.79386">
        <ele>140.8</ele>
        <time>2019-07-07T08:03:55Z</time>
      </trkpt>
      <trkpt lat="43.68748" lon="3.79391">
        <ele>140.4</ele>
        <time>2019-07-07T08:03:56Z</time>
      </trkpt>
      <trkpt lat="43.68745" lon="3.79396">
        <ele>139.9</ele>
        <time>2019-07-07T08:03:57Z</time>
      </trkpt>
      <trkpt lat="43.68744" lon="3.79402">
        <ele>139.3</ele>
        <time>2019-07-07T08:03:58Z</time>
      </trkpt>
      <trkpt lat="43.68742" lon="3.79407">
        <ele>138.8</ele>
        <time>2019-07-07T08:03:59Z</time>
      </trkpt>
      <trkpt lat="43.68741" lon="3.79413">
        <ele>138.3</ele>
        <time>2019-07-07T08:04:00Z</time>
      </trkpt>
      <trkpt lat="43.68743" lon="3.7942">
        <ele>137.7</ele>
        <time>2019-07-07T08:04:01Z</time>
      </trkpt>
      <trkpt lat="43.68745" lon="3.79426">
        <ele>137.2</ele>
        <time>2019-07-07T08:04:02Z</time>
      </trkpt>
      <trkpt lat="43.68744" lon="3.7943">
        <ele>136.7</ele>
        <time>2019-07-07T08:04:03Z</time>
      </trkpt>
      <trkpt lat="43.68739" lon="3.79438">
        <ele>135.5</ele>
        <time>2019-07-07T08:04:05Z</time>
      </trkpt>
      <trkpt lat="43.68737" lon="3.79441">
        <ele>135</ele>
        <time>2019-07-07T08:04:06Z</time>
      </trkpt>
      <trkpt lat="43.68734" lon="3.79446">
        <ele>134.5</ele>
        <time>2019-07-07T08:04:07Z</time>
      </trkpt>
      <trkpt lat="43.68732" lon="3.7945">
        <ele>134</ele>
        <time>2019-07-07T08:04:08Z</time>
      </trkpt>
      <trkpt lat="43.6873" lon="3.79456">
        <ele>133.5</ele>
        <time>2019-07-07T08:04:09Z</time>
      </trkpt>
      <trkpt lat="43.68729" lon="3.79461">
        <ele>133.2</ele>
        <time>2019-07-07T08:04:10Z</time>
      </trkpt>
      <trkpt lat="43.68725" lon="3.79463">
        <ele>132.8</ele>
        <time>2019-07-07T08:04:11Z</time>
      </trkpt>
      <trkpt lat="43.68723" lon="3.79466">
        <ele>132.7</ele>
        <time>2019-07-07T08:04:13Z</time>
      </trkpt>
      <trkpt lat="43.68717" lon="3.79472">
        <ele>132</ele>
        <time>2019-07-07T08:04:15Z</time>
      </trkpt>
      <trkpt lat="43.68716" lon="3.79475">
        <ele>131.6</ele>
        <time>2019-07-07T08:04:16Z</time>
      </trkpt>
      <trkpt lat="43.68713" lon="3.79478">
        <ele>131.6</ele>
        <time>2019-07-07T08:04:17Z</time>
      </trkpt>
      <trkpt lat="43.68712" lon="3.79482">
        <ele>131.2</ele>
        <time>2019-07-07T08:04:18Z</time>
      </trkpt>
      <trkpt lat="43.68707" lon="3.79484">
        <ele>130.8</ele>
        <time>2019-07-07T08:04:19Z</time>
      </trkpt>
      <trkpt lat="43.68703" lon="3.79486">
        <ele>130.8</ele>
        <time>2019-07-07T08:04:20Z</time>
      </trkpt>
      <trkpt lat="43.68698" lon="3.79487">
        <ele>130.7</ele>
        <time>2019-07-07T08:04:21Z</time>
      </trkpt>
      <trkpt lat="43.68693" lon="3.79488">
        <ele>130.3</ele>
        <time>2019-07-07T08:04:22Z</time>
      </trkpt>
      <trkpt lat="43.68687" lon="3.79488">
        <ele>130.6</ele>
        <time>2019-07-07T08:04:23Z</time>
      </trkpt>
      <trkpt lat="43.68682" lon="3.7949">
        <ele>130.2</ele>
        <time>2019-07-07T08:04:24Z</time>
      </trkpt>
      <trkpt lat="43.68677" lon="3.79491">
        <ele>130.1</ele>
        <time>2019-07-07T08:04:25Z</time>
      </trkpt>
      <trkpt lat="43.68673" lon="3.79493">
        <ele>129.7</ele>
        <time>2019-07-07T08:04:26Z</time>
      </trkpt>
      <trkpt lat="43.68669" lon="3.79494">
        <ele>129.6</ele>
        <time>2019-07-07T08:04:27Z</time>
      </trkpt>
      <trkpt lat="43.68665" lon="3.79495">
        <ele>129.5</ele>
        <time>2019-07-07T08:04:28Z</time>
      </trkpt>
      <trkpt lat="43.68661" lon="3.79497">
        <ele>129.1</ele>
        <time>2019-07-07T08:04:29Z</time>
      </trkpt>
      <trkpt lat="43.68656" lon="3.79499">
        <ele>128.9</ele>
        <time>2019-07-07T08:04:30Z</time>
      </trkpt>
      <trkpt lat="43.68651" lon="3.795">
        <ele>128.8</ele>
        <time>2019-07-07T08:04:31Z</time>
      </trkpt>
      <trkpt lat="43.68646" lon="3.795">
        <ele>128.4</ele>
        <time>2019-07-07T08:04:32Z</time>
      </trkpt>
      <trkpt lat="43.68642" lon="3.79501">
        <ele>128.2</ele>
        <time>2019-07-07T08:04:33Z</time>
      </trkpt>
      <trkpt lat="43.68638" lon="3.79502">
        <ele>128.1</ele>
        <time>2019-07-07T08:04:34Z</time>
      </trkpt>
      <trkpt lat="43.68633" lon="3.79501">
        <ele>127.8</ele>
        <time>2019-07-07T08:04:35Z</time>
      </trkpt>
      <trkpt lat="43.68628" lon="3.79498">
        <ele>127.9</ele>
        <time>2019-07-07T08:04:36Z</time>
      </trkpt>
      <trkpt lat="43.68625" lon="3.79495">
        <ele>127.9</ele>
        <time>2019-07-07T08:04:37Z</time>
      </trkpt>
      <trkpt lat="43.68618" lon="3.79496">
        <ele>127.6</ele>
        <time>2019-07-07T08:04:39Z</time>
      </trkpt>
      <trkpt lat="43.68614" lon="3.79494">
        <ele>127.3</ele>
        <time>2019-07-07T08:04:40Z</time>
      </trkpt>
      <trkpt lat="43.68612" lon="3.79491">
        <ele>127.4</ele>
        <time>2019-07-07T08:04:41Z</time>
      </trkpt>
      <trkpt lat="43.68609" lon="3.79491">
        <ele>127.1</ele>
        <time>2019-07-07T08:04:42Z</time>
      </trkpt>
      <trkpt lat="43.68605" lon="3.79488">
        <ele>126.9</ele>
        <time>2019-07-07T08:04:44Z</time>
      </trkpt>
      <trkpt lat="43.686" lon="3.79487">
        <ele>127</ele>
        <time>2019-07-07T08:04:46Z</time>
      </trkpt>
      <trkpt lat="43.68595" lon="3.79489">
        <ele>126.2</ele>
        <time>2019-07-07T08:04:47Z</time>
      </trkpt>
      <trkpt lat="43.6859" lon="3.7949">
        <ele>125.7</ele>
        <time>2019-07-07T08:04:48Z</time>
      </trkpt>
      <trkpt lat="43.68586" lon="3.79491">
        <ele>125.4</ele>
        <time>2019-07-07T08:04:49Z</time>
      </trkpt>
      <trkpt lat="43.68584" lon="3.79494">
        <ele>124.6</ele>
        <time>2019-07-07T08:04:50Z</time>
      </trkpt>
      <trkpt lat="43.68588" lon="3.79497">
        <ele>124.7</ele>
        <time>2019-07-07T08:04:51Z</time>
      </trkpt>
      <trkpt lat="43.68589" lon="3.79504">
        <ele>124.2</ele>
        <time>2019-07-07T08:04:53Z</time>
      </trkpt>
      <trkpt lat="43.68593" lon="3.79509">
        <ele>123.6</ele>
        <time>2019-07-07T08:04:55Z</time>
      </trkpt>
      <trkpt lat="43.68596" lon="3.7951">
        <ele>123.8</ele>
        <time>2019-07-07T08:04:56Z</time>
      </trkpt>
      <trkpt lat="43.68599" lon="3.79511">
        <ele>124</ele>
        <time>2019-07-07T08:04:57Z</time>
      </trkpt>
      <trkpt lat="43.68602" lon="3.79513">
        <ele>124.1</ele>
        <time>2019-07-07T08:04:58Z</time>
      </trkpt>
      <trkpt lat="43.68605" lon="3.79513">
        <ele>124.3</ele>
        <time>2019-07-07T08:04:59Z</time>
      </trkpt>
      <trkpt lat="43.68609" lon="3.79514">
        <ele>124.1</ele>
        <time>2019-07-07T08:05:00Z</time>
      </trkpt>
      <trkpt lat="43.68613" lon="3.79515">
        <ele>124.6</ele>
        <time>2019-07-07T08:05:02Z</time>
      </trkpt>
      <trkpt lat="43.68615" lon="3.79521">
        <ele>124.2</ele>
        <time>2019-07-07T08:05:04Z</time>
      </trkpt>
      <trkpt lat="43.68616" lon="3.79525">
        <ele>124.1</ele>
        <time>2019-07-07T08:05:05Z</time>
      </trkpt>
      <trkpt lat="43.68616" lon="3.7953">
        <ele>123.8</ele>
        <time>2019-07-07T08:05:06Z</time>
      </trkpt>
      <trkpt lat="43.68616" lon="3.79533">
        <ele>123.5</ele>
        <time>2019-07-07T08:05:07Z</time>
      </trkpt>
      <trkpt lat="43.68616" lon="3.79544">
        <ele>123</ele>
        <time>2019-07-07T08:05:09Z</time>
      </trkpt>
      <trkpt lat="43.68617" lon="3.7955">
        <ele>122.7</ele>
        <time>2019-07-07T08:05:10Z</time>
      </trkpt>
      <trkpt lat="43.68618" lon="3.79557">
        <ele>122.4</ele>
        <time>2019-07-07T08:05:11Z</time>
      </trkpt>
      <trkpt lat="43.68618" lon="3.7956">
        <ele>122.3</ele>
        <time>2019-07-07T08:05:12Z</time>
      </trkpt>
      <trkpt lat="43.68619" lon="3.79564">
        <ele>122.2</ele>
        <time>2019-07-07T08:05:13Z</time>
      </trkpt>
      <trkpt lat="43.68621" lon="3.79567">
        <ele>122</ele>
        <time>2019-07-07T08:05:14Z</time>
      </trkpt>
      <trkpt lat="43.68623" lon="3.79571">
        <ele>121.8</ele>
        <time>2019-07-07T08:05:15Z</time>
      </trkpt>
      <trkpt lat="43.68623" lon="3.79578">
        <ele>121.5</ele>
        <time>2019-07-07T08:05:16Z</time>
      </trkpt>
      <trkpt lat="43.68626" lon="3.79581">
        <ele>121.4</ele>
        <time>2019-07-07T08:05:17Z</time>
      </trkpt>
      <trkpt lat="43.68628" lon="3.79584">
        <ele>121.3</ele>
        <time>2019-07-07T08:05:18Z</time>
      </trkpt>
      <trkpt lat="43.68631" lon="3.7959">
        <ele>121</ele>
        <time>2019-07-07T08:05:19Z</time>
      </trkpt>
      <trkpt lat="43.68635" lon="3.79594">
        <ele>121.2</ele>
        <time>2019-07-07T08:05:20Z</time>
      </trkpt>
      <trkpt lat="43.68636" lon="3.79598">
        <ele>121</ele>
        <time>2019-07-07T08:05:21Z</time>
      </trkpt>
      <trkpt lat="43.6864" lon="3.79601">
        <ele>121.1</ele>
        <time>2019-07-07T08:05:22Z</time>
      </trkpt>
      <trkpt lat="43.68646" lon="3.79606">
        <ele>121.3</ele>
        <time>2019-07-07T08:05:23Z</time>
      </trkpt>
      <trkpt lat="43.68649" lon="3.79608">
        <ele>121.2</ele>
        <time>2019-07-07T08:05:24Z</time>
      </trkpt>
      <trkpt lat="43.68646" lon="3.79613">
        <ele>120.9</ele>
        <time>2019-07-07T08:05:25Z</time>
      </trkpt>
      <trkpt lat="43.68645" lon="3.79617">
        <ele>120.8</ele>
        <time>2019-07-07T08:05:26Z</time>
      </trkpt>
      <trkpt lat="43.68643" lon="3.7962">
        <ele>120.6</ele>
        <time>2019-07-07T08:05:27Z</time>
      </trkpt>
      <trkpt lat="43.6864" lon="3.79626">
        <ele>120.3</ele>
        <time>2019-07-07T08:05:29Z</time>
      </trkpt>
      <trkpt lat="43.68643" lon="3.79632">
        <ele>120.1</ele>
        <time>2019-07-07T08:05:31Z</time>
      </trkpt>
      <trkpt lat="43.68644" lon="3.79636">
        <ele>120.1</ele>
        <time>2019-07-07T08:05:32Z</time>
      </trkpt>
      <trkpt lat="43.68648" lon="3.79638">
        <ele>120</ele>
        <time>2019-07-07T08:05:33Z</time>
      </trkpt>
      <trkpt lat="43.68653" lon="3.79638">
        <ele>120.2</ele>
        <time>2019-07-07T08:05:34Z</time>
      </trkpt>
      <trkpt lat="43.68656" lon="3.79641">
        <ele>120.2</ele>
        <time>2019-07-07T08:05:35Z</time>
      </trkpt>
      <trkpt lat="43.6866" lon="3.79645">
        <ele>120.1</ele>
        <time>2019-07-07T08:05:36Z</time>
      </trkpt>
      <trkpt lat="43.68661" lon="3.7965">
        <ele>120</ele>
        <time>2019-07-07T08:05:37Z</time>
      </trkpt>
      <trkpt lat="43.68662" lon="3.79656">
        <ele>119.9</ele>
        <time>2019-07-07T08:05:38Z</time>
      </trkpt>
      <trkpt lat="43.68661" lon="3.7966">
        <ele>119.8</ele>
        <time>2019-07-07T08:05:39Z</time>
      </trkpt>
      <trkpt lat="43.68656" lon="3.79668">
        <ele>119.6</ele>
        <time>2019-07-07T08:05:41Z</time>
      </trkpt>
      <trkpt lat="43.68653" lon="3.79672">
        <ele>119.4</ele>
        <time>2019-07-07T08:05:42Z</time>
      </trkpt>
      <trkpt lat="43.6865" lon="3.79676">
        <ele>119.3</ele>
        <time>2019-07-07T08:05:43Z</time>
      </trkpt>
      <trkpt lat="43.68647" lon="3.79681">
        <ele>119.1</ele>
        <time>2019-07-07T08:05:44Z</time>
      </trkpt>
      <trkpt lat="43.68644" lon="3.79684">
        <ele>118.9</ele>
        <time>2019-07-07T08:05:45Z</time>
      </trkpt>
      <trkpt lat="43.68641" lon="3.79688">
        <ele>118.8</ele>
        <time>2019-07-07T08:05:46Z</time>
      </trkpt>
      <trkpt lat="43.68638" lon="3.79691">
        <ele>118.7</ele>
        <time>2019-07-07T08:05:47Z</time>
      </trkpt>
      <trkpt lat="43.68635" lon="3.79694">
        <ele>118.6</ele>
        <time>2019-07-07T08:05:48Z</time>
      </trkpt>
      <trkpt lat="43.68632" lon="3.79696">
        <ele>118.5</ele>
        <time>2019-07-07T08:05:49Z</time>
      </trkpt>
      <trkpt lat="43.6863" lon="3.79698">
        <ele>118.5</ele>
        <time>2019-07-07T08:05:50Z</time>
      </trkpt>
      <trkpt lat="43.68627" lon="3.79702">
        <ele>118.4</ele>
        <time>2019-07-07T08:05:51Z</time>
      </trkpt>
      <trkpt lat="43.68624" lon="3.79706">
        <ele>118.3</ele>
        <time>2019-07-07T08:05:52Z</time>
      </trkpt>
      <trkpt lat="43.68621" lon="3.7971">
        <ele>118.2</ele>
        <time>2019-07-07T08:05:53Z</time>
      </trkpt>
      <trkpt lat="43.68619" lon="3.79713">
        <ele>118.1</ele>
        <time>2019-07-07T08:05:54Z</time>
      </trkpt>
      <trkpt lat="43.68616" lon="3.79717">
        <ele>118</ele>
        <time>2019-07-07T08:05:55Z</time>
      </trkpt>
      <trkpt lat="43.68613" lon="3.7972">
        <ele>117.9</ele>
        <time>2019-07-07T08:05:56Z</time>
      </trkpt>
      <trkpt lat="43.6861" lon="3.79724">
        <ele>117.8</ele>
        <time>2019-07-07T08:05:57Z</time>
      </trkpt>
      <trkpt lat="43.68607" lon="3.79727">
        <ele>117.6</ele>
        <time>2019-07-07T08:05:58Z</time>
      </trkpt>
      <trkpt lat="43.68604" lon="3.7973">
        <ele>117.6</ele>
        <time>2019-07-07T08:05:59Z</time>
      </trkpt>
      <trkpt lat="43.68602" lon="3.79734">
        <ele>117.5</ele>
        <time>2019-07-07T08:06:00Z</time>
      </trkpt>
      <trkpt lat="43.68599" lon="3.79739">
        <ele>117.3</ele>
        <time>2019-07-07T08:06:02Z</time>
      </trkpt>
      <trkpt lat="43.68595" lon="3.79743">
        <ele>117.2</ele>
        <time>2019-07-07T08:06:04Z</time>
      </trkpt>
      <trkpt lat="43.68594" lon="3.79747">
        <ele>117.1</ele>
        <time>2019-07-07T08:06:06Z</time>
      </trkpt>
      <trkpt lat="43.6859" lon="3.7975">
        <ele>117</ele>
        <time>2019-07-07T08:07:34Z</time>
      </trkpt>
      <trkpt lat="43.68586" lon="3.79748">
        <ele>116.8</ele>
        <time>2019-07-07T08:07:53Z</time>
      </trkpt>
      <trkpt lat="43.68582" lon="3.79747">
        <ele>116.6</ele>
        <time>2019-07-07T08:07:55Z</time>
      </trkpt>
      <trkpt lat="43.6858" lon="3.79746">
        <ele>116.4</ele>
        <time>2019-07-07T08:07:56Z</time>
      </trkpt>
      <trkpt lat="43.68573" lon="3.79744">
        <ele>115.5</ele>
        <time>2019-07-07T08:07:58Z</time>
      </trkpt>
      <trkpt lat="43.6857" lon="3.79741">
        <ele>115.3</ele>
        <time>2019-07-07T08:07:59Z</time>
      </trkpt>
      <trkpt lat="43.68567" lon="3.79738">
        <ele>115</ele>
        <time>2019-07-07T08:08:00Z</time>
      </trkpt>
      <trkpt lat="43.68563" lon="3.79736">
        <ele>114.7</ele>
        <time>2019-07-07T08:08:01Z</time>
      </trkpt>
      <trkpt lat="43.68559" lon="3.79734">
        <ele>114.4</ele>
        <time>2019-07-07T08:08:02Z</time>
      </trkpt>
      <trkpt lat="43.68554" lon="3.79731">
        <ele>114.1</ele>
        <time>2019-07-07T08:08:03Z</time>
      </trkpt>
      <trkpt lat="43.6855" lon="3.79728">
        <ele>113.8</ele>
        <time>2019-07-07T08:08:04Z</time>
      </trkpt>
      <trkpt lat="43.68545" lon="3.79724">
        <ele>113.5</ele>
        <time>2019-07-07T08:08:05Z</time>
      </trkpt>
      <trkpt lat="43.6854" lon="3.79721">
        <ele>113.1</ele>
        <time>2019-07-07T08:08:06Z</time>
      </trkpt>
      <trkpt lat="43.68534" lon="3.79718">
        <ele>112.8</ele>
        <time>2019-07-07T08:08:07Z</time>
      </trkpt>
      <trkpt lat="43.68528" lon="3.79715">
        <ele>112.5</ele>
        <time>2019-07-07T08:08:08Z</time>
      </trkpt>
      <trkpt lat="43.68522" lon="3.79711">
        <ele>112.2</ele>
        <time>2019-07-07T08:08:09Z</time>
      </trkpt>
      <trkpt lat="43.68516" lon="3.79708">
        <ele>111.9</ele>
        <time>2019-07-07T08:08:10Z</time>
      </trkpt>
      <trkpt lat="43.6851" lon="3.79704">
        <ele>111.4</ele>
        <time>2019-07-07T08:08:11Z</time>
      </trkpt>
      <trkpt lat="43.68504" lon="3.79701">
        <ele>111.1</ele>
        <time>2019-07-07T08:08:12Z</time>
      </trkpt>
      <trkpt lat="43.68497" lon="3.79697">
        <ele>110.6</ele>
        <time>2019-07-07T08:08:13Z</time>
      </trkpt>
      <trkpt lat="43.68491" lon="3.79692">
        <ele>110.2</ele>
        <time>2019-07-07T08:08:14Z</time>
      </trkpt>
      <trkpt lat="43.68484" lon="3.79688">
        <ele>109.8</ele>
        <time>2019-07-07T08:08:15Z</time>
      </trkpt>
      <trkpt lat="43.68478" lon="3.79683">
        <ele>109.5</ele>
        <time>2019-07-07T08:08:16Z</time>
      </trkpt>
      <trkpt lat="43.68472" lon="3.79678">
        <ele>109.1</ele>
        <time>2019-07-07T08:08:17Z</time>
      </trkpt>
      <trkpt lat="43.68465" lon="3.79672">
        <ele>108.7</ele>
        <time>2019-07-07T08:08:18Z</time>
      </trkpt>
      <trkpt lat="43.68459" lon="3.79666">
        <ele>108.4</ele>
        <time>2019-07-07T08:08:19Z</time>
      </trkpt>
      <trkpt lat="43.68452" lon="3.79656">
        <ele>107.9</ele>
        <time>2019-07-07T08:08:20Z</time>
      </trkpt>
      <trkpt lat="43.68446" lon="3.79648">
        <ele>107.5</ele>
        <time>2019-07-07T08:08:21Z</time>
      </trkpt>
      <trkpt lat="43.68439" lon="3.79642">
        <ele>107</ele>
        <time>2019-07-07T08:08:22Z</time>
      </trkpt>
      <trkpt lat="43.68432" lon="3.79636">
        <ele>106.6</ele>
        <time>2019-07-07T08:08:23Z</time>
      </trkpt>
      <trkpt lat="43.68425" lon="3.79629">
        <ele>106.2</ele>
        <time>2019-07-07T08:08:24Z</time>
      </trkpt>
      <trkpt lat="43.68418" lon="3.79622">
        <ele>105.8</ele>
        <time>2019-07-07T08:08:25Z</time>
      </trkpt>
      <trkpt lat="43.68411" lon="3.79616">
        <ele>105.4</ele>
        <time>2019-07-07T08:08:26Z</time>
      </trkpt>
      <trkpt lat="43.68406" lon="3.7961">
        <ele>105.2</ele>
        <time>2019-07-07T08:08:27Z</time>
      </trkpt>
      <trkpt lat="43.68401" lon="3.79607">
        <ele>104.9</ele>
        <time>2019-07-07T08:08:28Z</time>
      </trkpt>
      <trkpt lat="43.68396" lon="3.79603">
        <ele>104.7</ele>
        <time>2019-07-07T08:08:29Z</time>
      </trkpt>
      <trkpt lat="43.6839" lon="3.79607">
        <ele>104.5</ele>
        <time>2019-07-07T08:08:30Z</time>
      </trkpt>
      <trkpt lat="43.68384" lon="3.7961">
        <ele>104.4</ele>
        <time>2019-07-07T08:08:31Z</time>
      </trkpt>
      <trkpt lat="43.68378" lon="3.79614">
        <ele>104.3</ele>
        <time>2019-07-07T08:08:32Z</time>
      </trkpt>
      <trkpt lat="43.68373" lon="3.79617">
        <ele>104.3</ele>
        <time>2019-07-07T08:08:33Z</time>
      </trkpt>
      <trkpt lat="43.68366" lon="3.79622">
        <ele>104.2</ele>
        <time>2019-07-07T08:08:34Z</time>
      </trkpt>
      <trkpt lat="43.6836" lon="3.79626">
        <ele>104</ele>
        <time>2019-07-07T08:08:35Z</time>
      </trkpt>
      <trkpt lat="43.68358" lon="3.7963">
        <ele>103.9</ele>
        <time>2019-07-07T08:08:36Z</time>
      </trkpt>
      <trkpt lat="43.68353" lon="3.79634">
        <ele>103.8</ele>
        <time>2019-07-07T08:08:37Z</time>
      </trkpt>
      <trkpt lat="43.68348" lon="3.79637">
        <ele>103.6</ele>
        <time>2019-07-07T08:08:38Z</time>
      </trkpt>
      <trkpt lat="43.68344" lon="3.79641">
        <ele>103.4</ele>
        <time>2019-07-07T08:08:39Z</time>
      </trkpt>
      <trkpt lat="43.68339" lon="3.79645">
        <ele>103.1</ele>
        <time>2019-07-07T08:08:40Z</time>
      </trkpt>
      <trkpt lat="43.68334" lon="3.79649">
        <ele>102.9</ele>
        <time>2019-07-07T08:08:41Z</time>
      </trkpt>
      <trkpt lat="43.68327" lon="3.79652">
        <ele>102.5</ele>
        <time>2019-07-07T08:08:42Z</time>
      </trkpt>
      <trkpt lat="43.68322" lon="3.79656">
        <ele>102.4</ele>
        <time>2019-07-07T08:08:43Z</time>
      </trkpt>
      <trkpt lat="43.68317" lon="3.79661">
        <ele>102.3</ele>
        <time>2019-07-07T08:08:44Z</time>
      </trkpt>
      <trkpt lat="43.6831" lon="3.79664">
        <ele>102.3</ele>
        <time>2019-07-07T08:08:45Z</time>
      </trkpt>
      <trkpt lat="43.68304" lon="3.79665">
        <ele>102.4</ele>
        <time>2019-07-07T08:08:46Z</time>
      </trkpt>
      <trkpt lat="43.68298" lon="3.79666">
        <ele>102.6</ele>
        <time>2019-07-07T08:08:47Z</time>
      </trkpt>
      <trkpt lat="43.68292" lon="3.79667">
        <ele>102.7</ele>
        <time>2019-07-07T08:08:48Z</time>
      </trkpt>
      <trkpt lat="43.68287" lon="3.79666">
        <ele>102.9</ele>
        <time>2019-07-07T08:08:49Z</time>
      </trkpt>
      <trkpt lat="43.68281" lon="3.79667">
        <ele>103.2</ele>
        <time>2019-07-07T08:08:50Z</time>
      </trkpt>
      <trkpt lat="43.68273" lon="3.79669">
        <ele>103.6</ele>
        <time>2019-07-07T08:08:52Z</time>
      </trkpt>
      <trkpt lat="43.68269" lon="3.7967">
        <ele>103.8</ele>
        <time>2019-07-07T08:08:53Z</time>
      </trkpt>
      <trkpt lat="43.68266" lon="3.79669">
        <ele>104</ele>
        <time>2019-07-07T08:08:54Z</time>
      </trkpt>
      <trkpt lat="43.68262" lon="3.7967">
        <ele>104.1</ele>
        <time>2019-07-07T08:08:55Z</time>
      </trkpt>
      <trkpt lat="43.68258" lon="3.7967">
        <ele>104.3</ele>
        <time>2019-07-07T08:08:56Z</time>
      </trkpt>
      <trkpt lat="43.68255" lon="3.7967">
        <ele>104.4</ele>
        <time>2019-07-07T08:08:57Z</time>
      </trkpt>
      <trkpt lat="43.68252" lon="3.7967">
        <ele>104.5</ele>
        <time>2019-07-07T08:08:58Z</time>
      </trkpt>
      <trkpt lat="43.68248" lon="3.79672">
        <ele>104.7</ele>
        <time>2019-07-07T08:08:59Z</time>
      </trkpt>
      <trkpt lat="43.68245" lon="3.79672">
        <ele>104.8</ele>
        <time>2019-07-07T08:09:00Z</time>
      </trkpt>
      <trkpt lat="43.68241" lon="3.79671">
        <ele>104.9</ele>
        <time>2019-07-07T08:09:01Z</time>
      </trkpt>
      <trkpt lat="43.68237" lon="3.79671">
        <ele>104.9</ele>
        <time>2019-07-07T08:09:02Z</time>
      </trkpt>
      <trkpt lat="43.68233" lon="3.79671">
        <ele>104.9</ele>
        <time>2019-07-07T08:09:03Z</time>
      </trkpt>
      <trkpt lat="43.68228" lon="3.79671">
        <ele>105</ele>
        <time>2019-07-07T08:09:04Z</time>
      </trkpt>
      <trkpt lat="43.68223" lon="3.79671">
        <ele>105</ele>
        <time>2019-07-07T08:09:05Z</time>
      </trkpt>
      <trkpt lat="43.68218" lon="3.79673">
        <ele>105</ele>
        <time>2019-07-07T08:09:06Z</time>
      </trkpt>
      <trkpt lat="43.68213" lon="3.79675">
        <ele>104.9</ele>
        <time>2019-07-07T08:09:07Z</time>
      </trkpt>
      <trkpt lat="43.68209" lon="3.79677">
        <ele>104.8</ele>
        <time>2019-07-07T08:09:08Z</time>
      </trkpt>
      <trkpt lat="43.68204" lon="3.79678">
        <ele>104.7</ele>
        <time>2019-07-07T08:09:09Z</time>
      </trkpt>
      <trkpt lat="43.68201" lon="3.79678">
        <ele>104.7</ele>
        <time>2019-07-07T08:09:10Z</time>
      </trkpt>
      <trkpt lat="43.68197" lon="3.79679">
        <ele>104.6</ele>
        <time>2019-07-07T08:09:11Z</time>
      </trkpt>
      <trkpt lat="43.68192" lon="3.79679">
        <ele>104.4</ele>
        <time>2019-07-07T08:09:12Z</time>
      </trkpt>
      <trkpt lat="43.68187" lon="3.7968">
        <ele>104.3</ele>
        <time>2019-07-07T08:09:13Z</time>
      </trkpt>
      <trkpt lat="43.68182" lon="3.79681">
        <ele>104.3</ele>
        <time>2019-07-07T08:09:14Z</time>
      </trkpt>
      <trkpt lat="43.68177" lon="3.79683">
        <ele>104.3</ele>
        <time>2019-07-07T08:09:15Z</time>
      </trkpt>
      <trkpt lat="43.68175" lon="3.79687">
        <ele>104.4</ele>
        <time>2019-07-07T08:09:16Z</time>
      </trkpt>
      <trkpt lat="43.68172" lon="3.79692">
        <ele>104.4</ele>
        <time>2019-07-07T08:09:17Z</time>
      </trkpt>
      <trkpt lat="43.6817" lon="3.79698">
        <ele>104.5</ele>
        <time>2019-07-07T08:09:18Z</time>
      </trkpt>
      <trkpt lat="43.68168" lon="3.79702">
        <ele>104.6</ele>
        <time>2019-07-07T08:09:19Z</time>
      </trkpt>
      <trkpt lat="43.68167" lon="3.79708">
        <ele>104.8</ele>
        <time>2019-07-07T08:09:20Z</time>
      </trkpt>
      <trkpt lat="43.68168" lon="3.79714">
        <ele>104.9</ele>
        <time>2019-07-07T08:09:21Z</time>
      </trkpt>
      <trkpt lat="43.68168" lon="3.7972">
        <ele>105.1</ele>
        <time>2019-07-07T08:09:22Z</time>
      </trkpt>
      <trkpt lat="43.68167" lon="3.79726">
        <ele>105.2</ele>
        <time>2019-07-07T08:09:23Z</time>
      </trkpt>
      <trkpt lat="43.68167" lon="3.79731">
        <ele>105.2</ele>
        <time>2019-07-07T08:09:24Z</time>
      </trkpt>
      <trkpt lat="43.68167" lon="3.79736">
        <ele>105.3</ele>
        <time>2019-07-07T08:09:25Z</time>
      </trkpt>
      <trkpt lat="43.68165" lon="3.79742">
        <ele>105.5</ele>
        <time>2019-07-07T08:09:26Z</time>
      </trkpt>
      <trkpt lat="43.68164" lon="3.79747">
        <ele>105.6</ele>
        <time>2019-07-07T08:09:27Z</time>
      </trkpt>
      <trkpt lat="43.68161" lon="3.79752">
        <ele>105.7</ele>
        <time>2019-07-07T08:09:28Z</time>
      </trkpt>
      <trkpt lat="43.68158" lon="3.79757">
        <ele>105.8</ele>
        <time>2019-07-07T08:09:29Z</time>
      </trkpt>
      <trkpt lat="43.68157" lon="3.79763">
        <ele>105.9</ele>
        <time>2019-07-07T08:09:30Z</time>
      </trkpt>
      <trkpt lat="43.68156" lon="3.79769">
        <ele>106.1</ele>
        <time>2019-07-07T08:09:31Z</time>
      </trkpt>
      <trkpt lat="43.68155" lon="3.79775">
        <ele>106.1</ele>
        <time>2019-07-07T08:09:32Z</time>
      </trkpt>
      <trkpt lat="43.68154" lon="3.79779">
        <ele>106.2</ele>
        <time>2019-07-07T08:09:33Z</time>
      </trkpt>
      <trkpt lat="43.68154" lon="3.79784">
        <ele>106.3</ele>
        <time>2019-07-07T08:09:34Z</time>
      </trkpt>
      <trkpt lat="43.68154" lon="3.79789">
        <ele>106.3</ele>
        <time>2019-07-07T08:09:35Z</time>
      </trkpt>
      <trkpt lat="43.68154" lon="3.79794">
        <ele>106.4</ele>
        <time>2019-07-07T08:09:36Z</time>
      </trkpt>
      <trkpt lat="43.68153" lon="3.79799">
        <ele>106.4</ele>
        <time>2019-07-07T08:09:37Z</time>
      </trkpt>
      <trkpt lat="43.68152" lon="3.79803">
        <ele>106.6</ele>
        <time>2019-07-07T08:09:38Z</time>
      </trkpt>
      <trkpt lat="43.68151" lon="3.79808">
        <ele>106.6</ele>
        <time>2019-07-07T08:09:39Z</time>
      </trkpt>
      <trkpt lat="43.6815" lon="3.79812">
        <ele>106.8</ele>
        <time>2019-07-07T08:09:40Z</time>
      </trkpt>
      <trkpt lat="43.68149" lon="3.79816">
        <ele>106.8</ele>
        <time>2019-07-07T08:09:41Z</time>
      </trkpt>
      <trkpt lat="43.68147" lon="3.7982">
        <ele>106.9</ele>
        <time>2019-07-07T08:09:42Z</time>
      </trkpt>
      <trkpt lat="43.68146" lon="3.79829">
        <ele>107.2</ele>
        <time>2019-07-07T08:09:44Z</time>
      </trkpt>
      <trkpt lat="43.68146" lon="3.79833">
        <ele>107.3</ele>
        <time>2019-07-07T08:09:45Z</time>
      </trkpt>
      <trkpt lat="43.68146" lon="3.79838">
        <ele>107.3</ele>
        <time>2019-07-07T08:09:46Z</time>
      </trkpt>
      <trkpt lat="43.68145" lon="3.79843">
        <ele>107.4</ele>
        <time>2019-07-07T08:09:47Z</time>
      </trkpt>
      <trkpt lat="43.68144" lon="3.79848">
        <ele>107.7</ele>
        <time>2019-07-07T08:09:48Z</time>
      </trkpt>
      <trkpt lat="43.68143" lon="3.79852">
        <ele>107.9</ele>
        <time>2019-07-07T08:09:49Z</time>
      </trkpt>
      <trkpt lat="43.68142" lon="3.79857">
        <ele>108</ele>
        <time>2019-07-07T08:09:50Z</time>
      </trkpt>
      <trkpt lat="43.68141" lon="3.79861">
        <ele>108.1</ele>
        <time>2019-07-07T08:09:51Z</time>
      </trkpt>
      <trkpt lat="43.6814" lon="3.79866">
        <ele>108.4</ele>
        <time>2019-07-07T08:09:52Z</time>
      </trkpt>
      <trkpt lat="43.68139" lon="3.7987">
        <ele>108.5</ele>
        <time>2019-07-07T08:09:53Z</time>
      </trkpt>
      <trkpt lat="43.68139" lon="3.79874">
        <ele>108.6</ele>
        <time>2019-07-07T08:09:54Z</time>
      </trkpt>
      <trkpt lat="43.68137" lon="3.79879">
        <ele>108.9</ele>
        <time>2019-07-07T08:09:55Z</time>
      </trkpt>
      <trkpt lat="43.68136" lon="3.79883">
        <ele>109</ele>
        <time>2019-07-07T08:09:56Z</time>
      </trkpt>
      <trkpt lat="43.68136" lon="3.79889">
        <ele>109.1</ele>
        <time>2019-07-07T08:09:57Z</time>
      </trkpt>
      <trkpt lat="43.68134" lon="3.79895">
        <ele>109.1</ele>
        <time>2019-07-07T08:09:58Z</time>
      </trkpt>
      <trkpt lat="43.68133" lon="3.799">
        <ele>109.5</ele>
        <time>2019-07-07T08:09:59Z</time>
      </trkpt>
      <trkpt lat="43.68133" lon="3.79905">
        <ele>109.5</ele>
        <time>2019-07-07T08:10:00Z</time>
      </trkpt>
      <trkpt lat="43.68131" lon="3.79911">
        <ele>109.6</ele>
        <time>2019-07-07T08:10:01Z</time>
      </trkpt>
      <trkpt lat="43.68131" lon="3.79916">
        <ele>109.8</ele>
        <time>2019-07-07T08:10:02Z</time>
      </trkpt>
      <trkpt lat="43.68129" lon="3.79923">
        <ele>110.1</ele>
        <time>2019-07-07T08:10:04Z</time>
      </trkpt>
      <trkpt lat="43.68127" lon="3.79928">
        <ele>110.3</ele>
        <time>2019-07-07T08:10:05Z</time>
      </trkpt>
      <trkpt lat="43.68126" lon="3.79933">
        <ele>110.4</ele>
        <time>2019-07-07T08:10:06Z</time>
      </trkpt>
      <trkpt lat="43.68125" lon="3.79938">
        <ele>110.6</ele>
        <time>2019-07-07T08:10:07Z</time>
      </trkpt>
      <trkpt lat="43.68123" lon="3.79942">
        <ele>110.7</ele>
        <time>2019-07-07T08:10:08Z</time>
      </trkpt>
      <trkpt lat="43.68123" lon="3.79947">
        <ele>110.8</ele>
        <time>2019-07-07T08:10:09Z</time>
      </trkpt>
      <trkpt lat="43.68124" lon="3.79951">
        <ele>111</ele>
        <time>2019-07-07T08:10:10Z</time>
      </trkpt>
      <trkpt lat="43.68125" lon="3.79959">
        <ele>111.1</ele>
        <time>2019-07-07T08:10:12Z</time>
      </trkpt>
      <trkpt lat="43.68125" lon="3.79963">
        <ele>111.2</ele>
        <time>2019-07-07T08:10:13Z</time>
      </trkpt>
      <trkpt lat="43.68124" lon="3.79968">
        <ele>111.2</ele>
        <time>2019-07-07T08:10:14Z</time>
      </trkpt>
      <trkpt lat="43.68123" lon="3.79973">
        <ele>111.5</ele>
        <time>2019-07-07T08:10:15Z</time>
      </trkpt>
      <trkpt lat="43.68122" lon="3.79977">
        <ele>111.4</ele>
        <time>2019-07-07T08:10:16Z</time>
      </trkpt>
      <trkpt lat="43.68119" lon="3.79981">
        <ele>111.6</ele>
        <time>2019-07-07T08:10:18Z</time>
      </trkpt>
      <trkpt lat="43.68117" lon="3.79983">
        <ele>111.6</ele>
        <time>2019-07-07T08:10:19Z</time>
      </trkpt>
      <trkpt lat="43.68112" lon="3.79985">
        <ele>111.6</ele>
        <time>2019-07-07T08:10:21Z</time>
      </trkpt>
      <trkpt lat="43.68109" lon="3.79985">
        <ele>111.5</ele>
        <time>2019-07-07T08:10:22Z</time>
      </trkpt>
      <trkpt lat="43.68106" lon="3.79988">
        <ele>111.6</ele>
        <time>2019-07-07T08:10:23Z</time>
      </trkpt>
      <trkpt lat="43.68103" lon="3.79989">
        <ele>111.6</ele>
        <time>2019-07-07T08:10:24Z</time>
      </trkpt>
      <trkpt lat="43.681" lon="3.79991">
        <ele>111.6</ele>
        <time>2019-07-07T08:10:25Z</time>
      </trkpt>
      <trkpt lat="43.68097" lon="3.79994">
        <ele>111.6</ele>
        <time>2019-07-07T08:10:26Z</time>
      </trkpt>
      <trkpt lat="43.68095" lon="3.79997">
        <ele>111.8</ele>
        <time>2019-07-07T08:10:27Z</time>
      </trkpt>
      <trkpt lat="43.68094" lon="3.80005">
        <ele>112.1</ele>
        <time>2019-07-07T08:10:29Z</time>
      </trkpt>
      <trkpt lat="43.68092" lon="3.80009">
        <ele>112.2</ele>
        <time>2019-07-07T08:10:30Z</time>
      </trkpt>
      <trkpt lat="43.6809" lon="3.80012">
        <ele>112.4</ele>
        <time>2019-07-07T08:10:31Z</time>
      </trkpt>
      <trkpt lat="43.68087" lon="3.80014">
        <ele>112.5</ele>
        <time>2019-07-07T08:10:32Z</time>
      </trkpt>
      <trkpt lat="43.68085" lon="3.80016">
        <ele>112.6</ele>
        <time>2019-07-07T08:10:33Z</time>
      </trkpt>
      <trkpt lat="43.68083" lon="3.80019">
        <ele>112.7</ele>
        <time>2019-07-07T08:10:34Z</time>
      </trkpt>
      <trkpt lat="43.68082" lon="3.80023">
        <ele>112.7</ele>
        <time>2019-07-07T08:10:35Z</time>
      </trkpt>
      <trkpt lat="43.68082" lon="3.80027">
        <ele>112.8</ele>
        <time>2019-07-07T08:10:36Z</time>
      </trkpt>
      <trkpt lat="43.68082" lon="3.80031">
        <ele>112.9</ele>
        <time>2019-07-07T08:10:37Z</time>
      </trkpt>
      <trkpt lat="43.68084" lon="3.80037">
        <ele>113</ele>
        <time>2019-07-07T08:10:38Z</time>
      </trkpt>
      <trkpt lat="43.68085" lon="3.80043">
        <ele>113</ele>
        <time>2019-07-07T08:10:39Z</time>
      </trkpt>
      <trkpt lat="43.68086" lon="3.80048">
        <ele>113.1</ele>
        <time>2019-07-07T08:10:40Z</time>
      </trkpt>
      <trkpt lat="43.68084" lon="3.80054">
        <ele>113.1</ele>
        <time>2019-07-07T08:10:41Z</time>
      </trkpt>
      <trkpt lat="43.6808" lon="3.80058">
        <ele>113.2</ele>
        <time>2019-07-07T08:10:42Z</time>
      </trkpt>
      <trkpt lat="43.6808" lon="3.80063">
        <ele>113.2</ele>
        <time>2019-07-07T08:10:43Z</time>
      </trkpt>
      <trkpt lat="43.68079" lon="3.8007">
        <ele>113.2</ele>
        <time>2019-07-07T08:10:44Z</time>
      </trkpt>
      <trkpt lat="43.68077" lon="3.80077">
        <ele>113.1</ele>
        <time>2019-07-07T08:10:45Z</time>
      </trkpt>
      <trkpt lat="43.68072" lon="3.80086">
        <ele>112.7</ele>
        <time>2019-07-07T08:10:46Z</time>
      </trkpt>
      <trkpt lat="43.68062" lon="3.80093">
        <ele>111.8</ele>
        <time>2019-07-07T08:10:47Z</time>
      </trkpt>
      <trkpt lat="43.68059" lon="3.80102">
        <ele>110.7</ele>
        <time>2019-07-07T08:10:48Z</time>
      </trkpt>
      <trkpt lat="43.68056" lon="3.80108">
        <ele>110.4</ele>
        <time>2019-07-07T08:10:49Z</time>
      </trkpt>
      <trkpt lat="43.68055" lon="3.80118">
        <ele>110.1</ele>
        <time>2019-07-07T08:10:50Z</time>
      </trkpt>
      <trkpt lat="43.68056" lon="3.80128">
        <ele>109.8</ele>
        <time>2019-07-07T08:10:51Z</time>
      </trkpt>
      <trkpt lat="43.68054" lon="3.80138">
        <ele>109.5</ele>
        <time>2019-07-07T08:10:52Z</time>
      </trkpt>
      <trkpt lat="43.68051" lon="3.80149">
        <ele>109.2</ele>
        <time>2019-07-07T08:10:53Z</time>
      </trkpt>
      <trkpt lat="43.68049" lon="3.8016">
        <ele>108.8</ele>
        <time>2019-07-07T08:10:54Z</time>
      </trkpt>
      <trkpt lat="43.68046" lon="3.80171">
        <ele>108.2</ele>
        <time>2019-07-07T08:10:55Z</time>
      </trkpt>
      <trkpt lat="43.68043" lon="3.80181">
        <ele>107.9</ele>
        <time>2019-07-07T08:10:56Z</time>
      </trkpt>
      <trkpt lat="43.68042" lon="3.80192">
        <ele>107.5</ele>
        <time>2019-07-07T08:10:57Z</time>
      </trkpt>
      <trkpt lat="43.68038" lon="3.80203">
        <ele>107</ele>
        <time>2019-07-07T08:10:58Z</time>
      </trkpt>
      <trkpt lat="43.68035" lon="3.80213">
        <ele>106.5</ele>
        <time>2019-07-07T08:10:59Z</time>
      </trkpt>
      <trkpt lat="43.68033" lon="3.80225">
        <ele>106</ele>
        <time>2019-07-07T08:11:00Z</time>
      </trkpt>
      <trkpt lat="43.68032" lon="3.80238">
        <ele>105.5</ele>
        <time>2019-07-07T08:11:01Z</time>
      </trkpt>
      <trkpt lat="43.68029" lon="3.8025">
        <ele>105</ele>
        <time>2019-07-07T08:11:02Z</time>
      </trkpt>
      <trkpt lat="43.68025" lon="3.80262">
        <ele>104.4</ele>
        <time>2019-07-07T08:11:03Z</time>
      </trkpt>
      <trkpt lat="43.68023" lon="3.80275">
        <ele>103.8</ele>
        <time>2019-07-07T08:11:04Z</time>
      </trkpt>
      <trkpt lat="43.68019" lon="3.803">
        <ele>102.8</ele>
        <time>2019-07-07T08:11:06Z</time>
      </trkpt>
      <trkpt lat="43.68018" lon="3.80311">
        <ele>102.6</ele>
        <time>2019-07-07T08:11:07Z</time>
      </trkpt>
      <trkpt lat="43.68018" lon="3.80321">
        <ele>102.4</ele>
        <time>2019-07-07T08:11:08Z</time>
      </trkpt>
      <trkpt lat="43.68016" lon="3.80329">
        <ele>102.2</ele>
        <time>2019-07-07T08:11:09Z</time>
      </trkpt>
      <trkpt lat="43.68015" lon="3.80338">
        <ele>102.1</ele>
        <time>2019-07-07T08:11:10Z</time>
      </trkpt>
      <trkpt lat="43.68014" lon="3.80347">
        <ele>101.9</ele>
        <time>2019-07-07T08:11:11Z</time>
      </trkpt>
      <trkpt lat="43.68009" lon="3.80358">
        <ele>100.6</ele>
        <time>2019-07-07T08:11:12Z</time>
      </trkpt>
      <trkpt lat="43.68007" lon="3.80369">
        <ele>99.5</ele>
        <time>2019-07-07T08:11:13Z</time>
      </trkpt>
      <trkpt lat="43.68004" lon="3.80378">
        <ele>99.2</ele>
        <time>2019-07-07T08:11:14Z</time>
      </trkpt>
      <trkpt lat="43.68005" lon="3.80389">
        <ele>98.9</ele>
        <time>2019-07-07T08:11:15Z</time>
      </trkpt>
      <trkpt lat="43.68003" lon="3.80399">
        <ele>98.6</ele>
        <time>2019-07-07T08:11:16Z</time>
      </trkpt>
      <trkpt lat="43.68001" lon="3.80403">
        <ele>98.5</ele>
        <time>2019-07-07T08:11:17Z</time>
      </trkpt>
      <trkpt lat="43.68" lon="3.80406">
        <ele>98.3</ele>
        <time>2019-07-07T08:11:18Z</time>
      </trkpt>
      <trkpt lat="43.67999" lon="3.8041">
        <ele>97.3</ele>
        <time>2019-07-07T08:11:19Z</time>
      </trkpt>
      <trkpt lat="43.68005" lon="3.8041">
        <ele>97.4</ele>
        <time>2019-07-07T08:11:20Z</time>
      </trkpt>
      <trkpt lat="43.68012" lon="3.80411">
        <ele>97.6</ele>
        <time>2019-07-07T08:11:22Z</time>
      </trkpt>
      <trkpt lat="43.68015" lon="3.80413">
        <ele>97.7</ele>
        <time>2019-07-07T08:11:23Z</time>
      </trkpt>
      <trkpt lat="43.68018" lon="3.80415">
        <ele>97.8</ele>
        <time>2019-07-07T08:11:24Z</time>
      </trkpt>
      <trkpt lat="43.68021" lon="3.80417">
        <ele>97.9</ele>
        <time>2019-07-07T08:11:25Z</time>
      </trkpt>
      <trkpt lat="43.68025" lon="3.80422">
        <ele>98</ele>
        <time>2019-07-07T08:11:26Z</time>
      </trkpt>
      <trkpt lat="43.68028" lon="3.80423">
        <ele>98.1</ele>
        <time>2019-07-07T08:11:27Z</time>
      </trkpt>
      <trkpt lat="43.68033" lon="3.80425">
        <ele>98.2</ele>
        <time>2019-07-07T08:11:28Z</time>
      </trkpt>
      <trkpt lat="43.68038" lon="3.80427">
        <ele>98.2</ele>
        <time>2019-07-07T08:11:29Z</time>
      </trkpt>
      <trkpt lat="43.68041" lon="3.80429">
        <ele>98.3</ele>
        <time>2019-07-07T08:11:30Z</time>
      </trkpt>
      <trkpt lat="43.68045" lon="3.8043">
        <ele>98.4</ele>
        <time>2019-07-07T08:11:31Z</time>
      </trkpt>
      <trkpt lat="43.68048" lon="3.80431">
        <ele>98.4</ele>
        <time>2019-07-07T08:11:32Z</time>
      </trkpt>
      <trkpt lat="43.68051" lon="3.80431">
        <ele>98.5</ele>
        <time>2019-07-07T08:11:33Z</time>
      </trkpt>
      <trkpt lat="43.68054" lon="3.80432">
        <ele>98.5</ele>
        <time>2019-07-07T08:11:34Z</time>
      </trkpt>
      <trkpt lat="43.68058" lon="3.80433">
        <ele>98.6</ele>
        <time>2019-07-07T08:11:35Z</time>
      </trkpt>
      <trkpt lat="43.68061" lon="3.80436">
        <ele>98.6</ele>
        <time>2019-07-07T08:11:36Z</time>
      </trkpt>
      <trkpt lat="43.68065" lon="3.80438">
        <ele>98.6</ele>
        <time>2019-07-07T08:11:37Z</time>
      </trkpt>
      <trkpt lat="43.6807" lon="3.80439">
        <ele>98.7</ele>
        <time>2019-07-07T08:11:38Z</time>
      </trkpt>
      <trkpt lat="43.68074" lon="3.80441">
        <ele>98.8</ele>
        <time>2019-07-07T08:11:39Z</time>
      </trkpt>
      <trkpt lat="43.68078" lon="3.80443">
        <ele>98.8</ele>
        <time>2019-07-07T08:11:40Z</time>
      </trkpt>
      <trkpt lat="43.68082" lon="3.80446">
        <ele>98.9</ele>
        <time>2019-07-07T08:11:41Z</time>
      </trkpt>
      <trkpt lat="43.68085" lon="3.80446">
        <ele>98.9</ele>
        <time>2019-07-07T08:11:42Z</time>
      </trkpt>
      <trkpt lat="43.68091" lon="3.80446">
        <ele>99</ele>
        <time>2019-07-07T08:11:43Z</time>
      </trkpt>
      <trkpt lat="43.68096" lon="3.80448">
        <ele>99.1</ele>
        <time>2019-07-07T08:11:44Z</time>
      </trkpt>
      <trkpt lat="43.681" lon="3.80449">
        <ele>99.2</ele>
        <time>2019-07-07T08:11:45Z</time>
      </trkpt>
      <trkpt lat="43.68104" lon="3.80449">
        <ele>99.2</ele>
        <time>2019-07-07T08:11:46Z</time>
      </trkpt>
      <trkpt lat="43.68108" lon="3.80451">
        <ele>99.3</ele>
        <time>2019-07-07T08:11:47Z</time>
      </trkpt>
      <trkpt lat="43.68112" lon="3.80452">
        <ele>99.4</ele>
        <time>2019-07-07T08:11:48Z</time>
      </trkpt>
      <trkpt lat="43.68115" lon="3.80453">
        <ele>99.4</ele>
        <time>2019-07-07T08:11:49Z</time>
      </trkpt>
      <trkpt lat="43.68118" lon="3.80455">
        <ele>99.5</ele>
        <time>2019-07-07T08:11:50Z</time>
      </trkpt>
      <trkpt lat="43.68123" lon="3.80456">
        <ele>99.5</ele>
        <time>2019-07-07T08:11:51Z</time>
      </trkpt>
      <trkpt lat="43.68127" lon="3.80458">
        <ele>99.6</ele>
        <time>2019-07-07T08:11:52Z</time>
      </trkpt>
      <trkpt lat="43.68132" lon="3.8046">
        <ele>99.6</ele>
        <time>2019-07-07T08:11:53Z</time>
      </trkpt>
      <trkpt lat="43.68135" lon="3.80461">
        <ele>99.7</ele>
        <time>2019-07-07T08:11:54Z</time>
      </trkpt>
      <trkpt lat="43.68139" lon="3.80463">
        <ele>99.7</ele>
        <time>2019-07-07T08:11:55Z</time>
      </trkpt>
      <trkpt lat="43.68144" lon="3.80463">
        <ele>99.8</ele>
        <time>2019-07-07T08:11:56Z</time>
      </trkpt>
      <trkpt lat="43.68148" lon="3.80466">
        <ele>99.9</ele>
        <time>2019-07-07T08:11:57Z</time>
      </trkpt>
      <trkpt lat="43.68152" lon="3.80467">
        <ele>99.7</ele>
        <time>2019-07-07T08:11:58Z</time>
      </trkpt>
      <trkpt lat="43.68155" lon="3.8047">
        <ele>99.8</ele>
        <time>2019-07-07T08:11:59Z</time>
      </trkpt>
      <trkpt lat="43.68159" lon="3.80469">
        <ele>100</ele>
        <time>2019-07-07T08:12:00Z</time>
      </trkpt>
      <trkpt lat="43.68163" lon="3.80471">
        <ele>99.8</ele>
        <time>2019-07-07T08:12:01Z</time>
      </trkpt>
      <trkpt lat="43.68167" lon="3.80473">
        <ele>100</ele>
        <time>2019-07-07T08:12:02Z</time>
      </trkpt>
      <trkpt lat="43.68171" lon="3.80475">
        <ele>100</ele>
        <time>2019-07-07T08:12:03Z</time>
      </trkpt>
      <trkpt lat="43.68174" lon="3.80477">
        <ele>100.1</ele>
        <time>2019-07-07T08:12:04Z</time>
      </trkpt>
      <trkpt lat="43.68177" lon="3.80477">
        <ele>100.1</ele>
        <time>2019-07-07T08:12:05Z</time>
      </trkpt>
      <trkpt lat="43.68181" lon="3.80478">
        <ele>100.1</ele>
        <time>2019-07-07T08:12:06Z</time>
      </trkpt>
      <trkpt lat="43.68185" lon="3.80478">
        <ele>100.2</ele>
        <time>2019-07-07T08:12:07Z</time>
      </trkpt>
      <trkpt lat="43.68189" lon="3.80479">
        <ele>100.2</ele>
        <time>2019-07-07T08:12:08Z</time>
      </trkpt>
      <trkpt lat="43.68192" lon="3.8048">
        <ele>100.2</ele>
        <time>2019-07-07T08:12:09Z</time>
      </trkpt>
      <trkpt lat="43.68196" lon="3.80481">
        <ele>100.2</ele>
        <time>2019-07-07T08:12:10Z</time>
      </trkpt>
      <trkpt lat="43.682" lon="3.80482">
        <ele>100.3</ele>
        <time>2019-07-07T08:12:11Z</time>
      </trkpt>
      <trkpt lat="43.68203" lon="3.80483">
        <ele>100.3</ele>
        <time>2019-07-07T08:12:12Z</time>
      </trkpt>
      <trkpt lat="43.68206" lon="3.80483">
        <ele>100.3</ele>
        <time>2019-07-07T08:12:13Z</time>
      </trkpt>
      <trkpt lat="43.68209" lon="3.80484">
        <ele>100.3</ele>
        <time>2019-07-07T08:12:14Z</time>
      </trkpt>
      <trkpt lat="43.68213" lon="3.80484">
        <ele>100.4</ele>
        <time>2019-07-07T08:12:16Z</time>
      </trkpt>
      <trkpt lat="43.68217" lon="3.80484">
        <ele>100.4</ele>
        <time>2019-07-07T08:12:18Z</time>
      </trkpt>
      <trkpt lat="43.68221" lon="3.80484">
        <ele>100.4</ele>
        <time>2019-07-07T08:12:20Z</time>
      </trkpt>
      <trkpt lat="43.68224" lon="3.80485">
        <ele>100.5</ele>
        <time>2019-07-07T08:12:21Z</time>
      </trkpt>
      <trkpt lat="43.68227" lon="3.80487">
        <ele>100.2</ele>
        <time>2019-07-07T08:12:22Z</time>
      </trkpt>
      <trkpt lat="43.6823" lon="3.8049">
        <ele>100</ele>
        <time>2019-07-07T08:12:23Z</time>
      </trkpt>
      <trkpt lat="43.68232" lon="3.80493">
        <ele>99.8</ele>
        <time>2019-07-07T08:12:24Z</time>
      </trkpt>
      <trkpt lat="43.68235" lon="3.80493">
        <ele>99.6</ele>
        <time>2019-07-07T08:12:25Z</time>
      </trkpt>
      <trkpt lat="43.68238" lon="3.80494">
        <ele>99.4</ele>
        <time>2019-07-07T08:12:26Z</time>
      </trkpt>
      <trkpt lat="43.68237" lon="3.80498">
        <ele>99.3</ele>
        <time>2019-07-07T08:12:27Z</time>
      </trkpt>
      <trkpt lat="43.68234" lon="3.80503">
        <ele>99.1</ele>
        <time>2019-07-07T08:12:29Z</time>
      </trkpt>
      <trkpt lat="43.68231" lon="3.80507">
        <ele>98.8</ele>
        <time>2019-07-07T08:12:31Z</time>
      </trkpt>
      <trkpt lat="43.68229" lon="3.8051">
        <ele>98.7</ele>
        <time>2019-07-07T08:12:32Z</time>
      </trkpt>
      <trkpt lat="43.68227" lon="3.80514">
        <ele>98.5</ele>
        <time>2019-07-07T08:12:33Z</time>
      </trkpt>
      <trkpt lat="43.68228" lon="3.80521">
        <ele>98.3</ele>
        <time>2019-07-07T08:12:34Z</time>
      </trkpt>
      <trkpt lat="43.68227" lon="3.80527">
        <ele>98.1</ele>
        <time>2019-07-07T08:12:35Z</time>
      </trkpt>
      <trkpt lat="43.68227" lon="3.80534">
        <ele>97.8</ele>
        <time>2019-07-07T08:12:36Z</time>
      </trkpt>
      <trkpt lat="43.68226" lon="3.80542">
        <ele>97.5</ele>
        <time>2019-07-07T08:12:37Z</time>
      </trkpt>
      <trkpt lat="43.68225" lon="3.8055">
        <ele>97.2</ele>
        <time>2019-07-07T08:12:38Z</time>
      </trkpt>
      <trkpt lat="43.68224" lon="3.8056">
        <ele>96.9</ele>
        <time>2019-07-07T08:12:39Z</time>
      </trkpt>
      <trkpt lat="43.68224" lon="3.8057">
        <ele>96.6</ele>
        <time>2019-07-07T08:12:40Z</time>
      </trkpt>
      <trkpt lat="43.68222" lon="3.80581">
        <ele>96</ele>
        <time>2019-07-07T08:12:41Z</time>
      </trkpt>
      <trkpt lat="43.6822" lon="3.80592">
        <ele>95.6</ele>
        <time>2019-07-07T08:12:42Z</time>
      </trkpt>
      <trkpt lat="43.68219" lon="3.80603">
        <ele>95.2</ele>
        <time>2019-07-07T08:12:43Z</time>
      </trkpt>
      <trkpt lat="43.68218" lon="3.80614">
        <ele>94.8</ele>
        <time>2019-07-07T08:12:44Z</time>
      </trkpt>
      <trkpt lat="43.68216" lon="3.80625">
        <ele>94.7</ele>
        <time>2019-07-07T08:12:45Z</time>
      </trkpt>
      <trkpt lat="43.68216" lon="3.80637">
        <ele>94.6</ele>
        <time>2019-07-07T08:12:46Z</time>
      </trkpt>
      <trkpt lat="43.68215" lon="3.80647">
        <ele>94.5</ele>
        <time>2019-07-07T08:12:47Z</time>
      </trkpt>
      <trkpt lat="43.68216" lon="3.80659">
        <ele>94.4</ele>
        <time>2019-07-07T08:12:48Z</time>
      </trkpt>
      <trkpt lat="43.68217" lon="3.80668">
        <ele>94.4</ele>
        <time>2019-07-07T08:12:49Z</time>
      </trkpt>
      <trkpt lat="43.68217" lon="3.80679">
        <ele>94.3</ele>
        <time>2019-07-07T08:12:50Z</time>
      </trkpt>
      <trkpt lat="43.68216" lon="3.80691">
        <ele>94.3</ele>
        <time>2019-07-07T08:12:51Z</time>
      </trkpt>
      <trkpt lat="43.68214" lon="3.80702">
        <ele>94.2</ele>
        <time>2019-07-07T08:12:52Z</time>
      </trkpt>
      <trkpt lat="43.68211" lon="3.80713">
        <ele>94.2</ele>
        <time>2019-07-07T08:12:53Z</time>
      </trkpt>
      <trkpt lat="43.68208" lon="3.80723">
        <ele>94.2</ele>
        <time>2019-07-07T08:12:54Z</time>
      </trkpt>
      <trkpt lat="43.68204" lon="3.8073">
        <ele>94.2</ele>
        <time>2019-07-07T08:12:55Z</time>
      </trkpt>
      <trkpt lat="43.68201" lon="3.80736">
        <ele>94.2</ele>
        <time>2019-07-07T08:12:56Z</time>
      </trkpt>
      <trkpt lat="43.6819" lon="3.80737">
        <ele>94.1</ele>
        <time>2019-07-07T08:12:57Z</time>
      </trkpt>
      <trkpt lat="43.68182" lon="3.80741">
        <ele>94.1</ele>
        <time>2019-07-07T08:12:58Z</time>
      </trkpt>
      <trkpt lat="43.68174" lon="3.80744">
        <ele>94.1</ele>
        <time>2019-07-07T08:12:59Z</time>
      </trkpt>
      <trkpt lat="43.68166" lon="3.80746">
        <ele>94.1</ele>
        <time>2019-07-07T08:13:00Z</time>
      </trkpt>
      <trkpt lat="43.6816" lon="3.80745">
        <ele>94.1</ele>
        <time>2019-07-07T08:13:01Z</time>
      </trkpt>
      <trkpt lat="43.68153" lon="3.80749">
        <ele>94.1</ele>
        <time>2019-07-07T08:13:02Z</time>
      </trkpt>
      <trkpt lat="43.68146" lon="3.80752">
        <ele>94</ele>
        <time>2019-07-07T08:13:03Z</time>
      </trkpt>
      <trkpt lat="43.68139" lon="3.80753">
        <ele>94</ele>
        <time>2019-07-07T08:13:04Z</time>
      </trkpt>
      <trkpt lat="43.68133" lon="3.80754">
        <ele>94</ele>
        <time>2019-07-07T08:13:05Z</time>
      </trkpt>
      <trkpt lat="43.68128" lon="3.80755">
        <ele>94</ele>
        <time>2019-07-07T08:13:06Z</time>
      </trkpt>
      <trkpt lat="43.68122" lon="3.80756">
        <ele>94</ele>
        <time>2019-07-07T08:13:07Z</time>
      </trkpt>
      <trkpt lat="43.68115" lon="3.80756">
        <ele>94.1</ele>
        <time>2019-07-07T08:13:08Z</time>
      </trkpt>
      <trkpt lat="43.68109" lon="3.80755">
        <ele>94.1</ele>
        <time>2019-07-07T08:13:09Z</time>
      </trkpt>
      <trkpt lat="43.68103" lon="3.80755">
        <ele>94.1</ele>
        <time>2019-07-07T08:13:10Z</time>
      </trkpt>
      <trkpt lat="43.68096" lon="3.80753">
        <ele>94.3</ele>
        <time>2019-07-07T08:13:11Z</time>
      </trkpt>
      <trkpt lat="43.68091" lon="3.80753">
        <ele>94.4</ele>
        <time>2019-07-07T08:13:12Z</time>
      </trkpt>
      <trkpt lat="43.68086" lon="3.80754">
        <ele>94.6</ele>
        <time>2019-07-07T08:13:13Z</time>
      </trkpt>
      <trkpt lat="43.68082" lon="3.80755">
        <ele>94.7</ele>
        <time>2019-07-07T08:13:14Z</time>
      </trkpt>
      <trkpt lat="43.68077" lon="3.80754">
        <ele>94.9</ele>
        <time>2019-07-07T08:13:15Z</time>
      </trkpt>
      <trkpt lat="43.68072" lon="3.80755">
        <ele>95.1</ele>
        <time>2019-07-07T08:13:16Z</time>
      </trkpt>
      <trkpt lat="43.68067" lon="3.80756">
        <ele>95.3</ele>
        <time>2019-07-07T08:13:17Z</time>
      </trkpt>
      <trkpt lat="43.68066" lon="3.80762">
        <ele>95.5</ele>
        <time>2019-07-07T08:13:18Z</time>
      </trkpt>
      <trkpt lat="43.68064" lon="3.80766">
        <ele>95.6</ele>
        <time>2019-07-07T08:13:19Z</time>
      </trkpt>
      <trkpt lat="43.68063" lon="3.80773">
        <ele>95.8</ele>
        <time>2019-07-07T08:13:20Z</time>
      </trkpt>
      <trkpt lat="43.68062" lon="3.80779">
        <ele>95.9</ele>
        <time>2019-07-07T08:13:21Z</time>
      </trkpt>
      <trkpt lat="43.68061" lon="3.80785">
        <ele>96</ele>
        <time>2019-07-07T08:13:22Z</time>
      </trkpt>
      <trkpt lat="43.68059" lon="3.80792">
        <ele>96.2</ele>
        <time>2019-07-07T08:13:23Z</time>
      </trkpt>
      <trkpt lat="43.68057" lon="3.80798">
        <ele>96.3</ele>
        <time>2019-07-07T08:13:24Z</time>
      </trkpt>
      <trkpt lat="43.68056" lon="3.80803">
        <ele>96.5</ele>
        <time>2019-07-07T08:13:25Z</time>
      </trkpt>
      <trkpt lat="43.68056" lon="3.80809">
        <ele>96.6</ele>
        <time>2019-07-07T08:13:26Z</time>
      </trkpt>
      <trkpt lat="43.68055" lon="3.80814">
        <ele>96.7</ele>
        <time>2019-07-07T08:13:27Z</time>
      </trkpt>
      <trkpt lat="43.68053" lon="3.80821">
        <ele>96.9</ele>
        <time>2019-07-07T08:13:28Z</time>
      </trkpt>
      <trkpt lat="43.6805" lon="3.80827">
        <ele>97.1</ele>
        <time>2019-07-07T08:13:29Z</time>
      </trkpt>
      <trkpt lat="43.68048" lon="3.80833">
        <ele>97.3</ele>
        <time>2019-07-07T08:13:30Z</time>
      </trkpt>
      <trkpt lat="43.68045" lon="3.80837">
        <ele>97.5</ele>
        <time>2019-07-07T08:13:31Z</time>
      </trkpt>
      <trkpt lat="43.68043" lon="3.80843">
        <ele>97.7</ele>
        <time>2019-07-07T08:13:32Z</time>
      </trkpt>
      <trkpt lat="43.68044" lon="3.8085">
        <ele>97.9</ele>
        <time>2019-07-07T08:13:33Z</time>
      </trkpt>
      <trkpt lat="43.68043" lon="3.80856">
        <ele>98.1</ele>
        <time>2019-07-07T08:13:34Z</time>
      </trkpt>
      <trkpt lat="43.68043" lon="3.80862">
        <ele>98.3</ele>
        <time>2019-07-07T08:13:35Z</time>
      </trkpt>
      <trkpt lat="43.68042" lon="3.80868">
        <ele>98.5</ele>
        <time>2019-07-07T08:13:36Z</time>
      </trkpt>
      <trkpt lat="43.6804" lon="3.80873">
        <ele>98.7</ele>
        <time>2019-07-07T08:13:37Z</time>
      </trkpt>
      <trkpt lat="43.68039" lon="3.80879">
        <ele>98.9</ele>
        <time>2019-07-07T08:13:38Z</time>
      </trkpt>
      <trkpt lat="43.6804" lon="3.80883">
        <ele>99</ele>
        <time>2019-07-07T08:13:39Z</time>
      </trkpt>
      <trkpt lat="43.68041" lon="3.80888">
        <ele>99.1</ele>
        <time>2019-07-07T08:13:40Z</time>
      </trkpt>
      <trkpt lat="43.68038" lon="3.80894">
        <ele>99.2</ele>
        <time>2019-07-07T08:13:41Z</time>
      </trkpt>
      <trkpt lat="43.68038" lon="3.809">
        <ele>99.4</ele>
        <time>2019-07-07T08:13:42Z</time>
      </trkpt>
      <trkpt lat="43.68037" lon="3.80905">
        <ele>99.5</ele>
        <time>2019-07-07T08:13:43Z</time>
      </trkpt>
      <trkpt lat="43.68036" lon="3.80909">
        <ele>99.6</ele>
        <time>2019-07-07T08:13:44Z</time>
      </trkpt>
      <trkpt lat="43.68033" lon="3.80914">
        <ele>99.8</ele>
        <time>2019-07-07T08:13:45Z</time>
      </trkpt>
      <trkpt lat="43.68031" lon="3.80918">
        <ele>99.8</ele>
        <time>2019-07-07T08:13:46Z</time>
      </trkpt>
      <trkpt lat="43.6803" lon="3.80921">
        <ele>99.9</ele>
        <time>2019-07-07T08:13:47Z</time>
      </trkpt>
      <trkpt lat="43.68028" lon="3.80925">
        <ele>99.9</ele>
        <time>2019-07-07T08:13:48Z</time>
      </trkpt>
      <trkpt lat="43.68027" lon="3.80928">
        <ele>99.9</ele>
        <time>2019-07-07T08:13:49Z</time>
      </trkpt>
      <trkpt lat="43.68025" lon="3.80933">
        <ele>99.9</ele>
        <time>2019-07-07T08:13:51Z</time>
      </trkpt>
      <trkpt lat="43.68021" lon="3.80935">
        <ele>99.9</ele>
        <time>2019-07-07T08:13:53Z</time>
      </trkpt>
      <trkpt lat="43.68017" lon="3.80938">
        <ele>99.9</ele>
        <time>2019-07-07T08:13:55Z</time>
      </trkpt>
      <trkpt lat="43.68016" lon="3.80943">
        <ele>99.9</ele>
        <time>2019-07-07T08:13:57Z</time>
      </trkpt>
      <trkpt lat="43.68014" lon="3.80947">
        <ele>99.9</ele>
        <time>2019-07-07T08:13:58Z</time>
      </trkpt>
      <trkpt lat="43.68013" lon="3.80951">
        <ele>100</ele>
        <time>2019-07-07T08:13:59Z</time>
      </trkpt>
      <trkpt lat="43.68016" lon="3.80954">
        <ele>100</ele>
        <time>2019-07-07T08:14:01Z</time>
      </trkpt>
      <trkpt lat="43.68019" lon="3.80958">
        <ele>100</ele>
        <time>2019-07-07T08:14:02Z</time>
      </trkpt>
      <trkpt lat="43.68021" lon="3.80963">
        <ele>100</ele>
        <time>2019-07-07T08:14:03Z</time>
      </trkpt>
      <trkpt lat="43.68024" lon="3.80966">
        <ele>100.1</ele>
        <time>2019-07-07T08:14:04Z</time>
      </trkpt>
      <trkpt lat="43.68026" lon="3.80969">
        <ele>100.1</ele>
        <time>2019-07-07T08:14:05Z</time>
      </trkpt>
      <trkpt lat="43.68029" lon="3.80973">
        <ele>100.2</ele>
        <time>2019-07-07T08:14:06Z</time>
      </trkpt>
      <trkpt lat="43.68031" lon="3.80974">
        <ele>100.2</ele>
        <time>2019-07-07T08:14:07Z</time>
      </trkpt>
      <trkpt lat="43.68033" lon="3.80979">
        <ele>100.6</ele>
        <time>2019-07-07T08:14:08Z</time>
      </trkpt>
      <trkpt lat="43.68035" lon="3.80984">
        <ele>100.7</ele>
        <time>2019-07-07T08:14:09Z</time>
      </trkpt>
      <trkpt lat="43.68036" lon="3.80989">
        <ele>100.8</ele>
        <time>2019-07-07T08:14:10Z</time>
      </trkpt>
      <trkpt lat="43.68037" lon="3.80994">
        <ele>101.1</ele>
        <time>2019-07-07T08:14:11Z</time>
      </trkpt>
      <trkpt lat="43.68038" lon="3.80999">
        <ele>101.3</ele>
        <time>2019-07-07T08:14:12Z</time>
      </trkpt>
      <trkpt lat="43.68039" lon="3.81004">
        <ele>101.5</ele>
        <time>2019-07-07T08:14:13Z</time>
      </trkpt>
      <trkpt lat="43.68038" lon="3.81009">
        <ele>101.7</ele>
        <time>2019-07-07T08:14:14Z</time>
      </trkpt>
      <trkpt lat="43.68038" lon="3.81014">
        <ele>101.9</ele>
        <time>2019-07-07T08:14:15Z</time>
      </trkpt>
      <trkpt lat="43.68037" lon="3.81019">
        <ele>102</ele>
        <time>2019-07-07T08:14:16Z</time>
      </trkpt>
      <trkpt lat="43.68036" lon="3.81023">
        <ele>102.2</ele>
        <time>2019-07-07T08:14:17Z</time>
      </trkpt>
      <trkpt lat="43.68035" lon="3.81029">
        <ele>102.3</ele>
        <time>2019-07-07T08:14:18Z</time>
      </trkpt>
      <trkpt lat="43.68034" lon="3.81033">
        <ele>102.4</ele>
        <time>2019-07-07T08:14:19Z</time>
      </trkpt>
      <trkpt lat="43.68033" lon="3.81038">
        <ele>102.5</ele>
        <time>2019-07-07T08:14:20Z</time>
      </trkpt>
      <trkpt lat="43.68033" lon="3.81043">
        <ele>102.6</ele>
        <time>2019-07-07T08:14:21Z</time>
      </trkpt>
      <trkpt lat="43.68033" lon="3.8105">
        <ele>102.7</ele>
        <time>2019-07-07T08:14:23Z</time>
      </trkpt>
      <trkpt lat="43.68031" lon="3.81059">
        <ele>102.9</ele>
        <time>2019-07-07T08:14:25Z</time>
      </trkpt>
      <trkpt lat="43.6803" lon="3.81063">
        <ele>102.9</ele>
        <time>2019-07-07T08:14:26Z</time>
      </trkpt>
      <trkpt lat="43.68028" lon="3.8107">
        <ele>103.2</ele>
        <time>2019-07-07T08:14:28Z</time>
      </trkpt>
      <trkpt lat="43.68027" lon="3.81075">
        <ele>103.3</ele>
        <time>2019-07-07T08:14:29Z</time>
      </trkpt>
      <trkpt lat="43.68026" lon="3.81079">
        <ele>103.5</ele>
        <time>2019-07-07T08:14:30Z</time>
      </trkpt>
      <trkpt lat="43.68025" lon="3.81082">
        <ele>103.6</ele>
        <time>2019-07-07T08:14:31Z</time>
      </trkpt>
      <trkpt lat="43.68023" lon="3.81089">
        <ele>104</ele>
        <time>2019-07-07T08:14:33Z</time>
      </trkpt>
      <trkpt lat="43.68021" lon="3.81095">
        <ele>104.3</ele>
        <time>2019-07-07T08:14:35Z</time>
      </trkpt>
      <trkpt lat="43.68019" lon="3.81102">
        <ele>105.2</ele>
        <time>2019-07-07T08:14:37Z</time>
      </trkpt>
      <trkpt lat="43.68018" lon="3.81107">
        <ele>105.5</ele>
        <time>2019-07-07T08:14:39Z</time>
      </trkpt>
      <trkpt lat="43.68018" lon="3.81114">
        <ele>106.2</ele>
        <time>2019-07-07T08:14:41Z</time>
      </trkpt>
      <trkpt lat="43.68015" lon="3.8112">
        <ele>106.9</ele>
        <time>2019-07-07T08:14:43Z</time>
      </trkpt>
      <trkpt lat="43.68012" lon="3.81123">
        <ele>107.3</ele>
        <time>2019-07-07T08:14:44Z</time>
      </trkpt>
      <trkpt lat="43.68011" lon="3.81128">
        <ele>107.7</ele>
        <time>2019-07-07T08:14:46Z</time>
      </trkpt>
      <trkpt lat="43.68011" lon="3.81137">
        <ele>108.3</ele>
        <time>2019-07-07T08:14:49Z</time>
      </trkpt>
      <trkpt lat="43.68011" lon="3.81142">
        <ele>108.8</ele>
        <time>2019-07-07T08:14:50Z</time>
      </trkpt>
      <trkpt lat="43.68011" lon="3.81148">
        <ele>109.2</ele>
        <time>2019-07-07T08:14:52Z</time>
      </trkpt>
      <trkpt lat="43.68009" lon="3.81153">
        <ele>109.5</ele>
        <time>2019-07-07T08:14:54Z</time>
      </trkpt>
      <trkpt lat="43.68008" lon="3.81157">
        <ele>109.7</ele>
        <time>2019-07-07T08:14:55Z</time>
      </trkpt>
      <trkpt lat="43.68005" lon="3.81163">
        <ele>109.9</ele>
        <time>2019-07-07T08:14:57Z</time>
      </trkpt>
      <trkpt lat="43.68005" lon="3.81167">
        <ele>110.4</ele>
        <time>2019-07-07T08:14:58Z</time>
      </trkpt>
      <trkpt lat="43.68003" lon="3.81171">
        <ele>110.8</ele>
        <time>2019-07-07T08:14:59Z</time>
      </trkpt>
      <trkpt lat="43.68003" lon="3.81175">
        <ele>111.3</ele>
        <time>2019-07-07T08:15:00Z</time>
      </trkpt>
      <trkpt lat="43.68002" lon="3.81179">
        <ele>112.4</ele>
        <time>2019-07-07T08:15:01Z</time>
      </trkpt>
      <trkpt lat="43.68002" lon="3.81186">
        <ele>112.7</ele>
        <time>2019-07-07T08:15:03Z</time>
      </trkpt>
      <trkpt lat="43.68004" lon="3.81192">
        <ele>112.9</ele>
        <time>2019-07-07T08:15:05Z</time>
      </trkpt>
      <trkpt lat="43.68003" lon="3.81197">
        <ele>112.2</ele>
        <time>2019-07-07T08:15:07Z</time>
      </trkpt>
      <trkpt lat="43.68005" lon="3.81203">
        <ele>111.4</ele>
        <time>2019-07-07T08:15:09Z</time>
      </trkpt>
      <trkpt lat="43.68006" lon="3.81209">
        <ele>110.9</ele>
        <time>2019-07-07T08:15:11Z</time>
      </trkpt>
      <trkpt lat="43.68009" lon="3.81215">
        <ele>111.1</ele>
        <time>2019-07-07T08:15:13Z</time>
      </trkpt>
      <trkpt lat="43.68008" lon="3.81221">
        <ele>111.2</ele>
        <time>2019-07-07T08:15:15Z</time>
      </trkpt>
      <trkpt lat="43.68009" lon="3.81225">
        <ele>111.3</ele>
        <time>2019-07-07T08:15:27Z</time>
      </trkpt>
      <trkpt lat="43.68007" lon="3.81228">
        <ele>111.4</ele>
        <time>2019-07-07T08:19:52Z</time>
      </trkpt>
      <trkpt lat="43.68002" lon="3.81229">
        <ele>111.6</ele>
        <time>2019-07-07T08:19:55Z</time>
      </trkpt>
      <trkpt lat="43.68" lon="3.81233">
        <ele>111.8</ele>
        <time>2019-07-07T08:19:57Z</time>
      </trkpt>
      <trkpt lat="43.67998" lon="3.81237">
        <ele>111.9</ele>
        <time>2019-07-07T08:19:59Z</time>
      </trkpt>
      <trkpt lat="43.67996" lon="3.81239">
        <ele>112</ele>
        <time>2019-07-07T08:20:00Z</time>
      </trkpt>
      <trkpt lat="43.67992" lon="3.81244">
        <ele>112.3</ele>
        <time>2019-07-07T08:20:02Z</time>
      </trkpt>
      <trkpt lat="43.6799" lon="3.8125">
        <ele>112.5</ele>
        <time>2019-07-07T08:20:04Z</time>
      </trkpt>
      <trkpt lat="43.67989" lon="3.81255">
        <ele>112.7</ele>
        <time>2019-07-07T08:20:06Z</time>
      </trkpt>
      <trkpt lat="43.67983" lon="3.81261">
        <ele>113</ele>
        <time>2019-07-07T08:20:08Z</time>
      </trkpt>
      <trkpt lat="43.67982" lon="3.81265">
        <ele>113.2</ele>
        <time>2019-07-07T08:20:09Z</time>
      </trkpt>
      <trkpt lat="43.6798" lon="3.8127">
        <ele>113.4</ele>
        <time>2019-07-07T08:20:10Z</time>
      </trkpt>
      <trkpt lat="43.67977" lon="3.81275">
        <ele>113.6</ele>
        <time>2019-07-07T08:20:12Z</time>
      </trkpt>
      <trkpt lat="43.67974" lon="3.81279">
        <ele>113.8</ele>
        <time>2019-07-07T08:20:13Z</time>
      </trkpt>
      <trkpt lat="43.67973" lon="3.81283">
        <ele>113.9</ele>
        <time>2019-07-07T08:20:14Z</time>
      </trkpt>
      <trkpt lat="43.67971" lon="3.81288">
        <ele>114.1</ele>
        <time>2019-07-07T08:20:16Z</time>
      </trkpt>
      <trkpt lat="43.67966" lon="3.81291">
        <ele>114.2</ele>
        <time>2019-07-07T08:20:17Z</time>
      </trkpt>
      <trkpt lat="43.67968" lon="3.81298">
        <ele>114.4</ele>
        <time>2019-07-07T08:20:19Z</time>
      </trkpt>
      <trkpt lat="43.67966" lon="3.81305">
        <ele>114.6</ele>
        <time>2019-07-07T08:20:21Z</time>
      </trkpt>
      <trkpt lat="43.67963" lon="3.81311">
        <ele>114.8</ele>
        <time>2019-07-07T08:20:23Z</time>
      </trkpt>
      <trkpt lat="43.67958" lon="3.81315">
        <ele>115</ele>
        <time>2019-07-07T08:20:24Z</time>
      </trkpt>
      <trkpt lat="43.67959" lon="3.81319">
        <ele>115.1</ele>
        <time>2019-07-07T08:20:25Z</time>
      </trkpt>
      <trkpt lat="43.67961" lon="3.81323">
        <ele>115.2</ele>
        <time>2019-07-07T08:20:26Z</time>
      </trkpt>
      <trkpt lat="43.67958" lon="3.81328">
        <ele>115.3</ele>
        <time>2019-07-07T08:20:27Z</time>
      </trkpt>
      <trkpt lat="43.67958" lon="3.81332">
        <ele>115.4</ele>
        <time>2019-07-07T08:20:28Z</time>
      </trkpt>
      <trkpt lat="43.67958" lon="3.81337">
        <ele>115.5</ele>
        <time>2019-07-07T08:20:29Z</time>
      </trkpt>
      <trkpt lat="43.67958" lon="3.8134">
        <ele>115.6</ele>
        <time>2019-07-07T08:20:30Z</time>
      </trkpt>
      <trkpt lat="43.67958" lon="3.81344">
        <ele>115.8</ele>
        <time>2019-07-07T08:20:31Z</time>
      </trkpt>
      <trkpt lat="43.67957" lon="3.81351">
        <ele>116</ele>
        <time>2019-07-07T08:20:33Z</time>
      </trkpt>
      <trkpt lat="43.67956" lon="3.81355">
        <ele>116.1</ele>
        <time>2019-07-07T08:20:34Z</time>
      </trkpt>
      <trkpt lat="43.67955" lon="3.81359">
        <ele>116.2</ele>
        <time>2019-07-07T08:20:35Z</time>
      </trkpt>
      <trkpt lat="43.67951" lon="3.81365">
        <ele>116.5</ele>
        <time>2019-07-07T08:20:37Z</time>
      </trkpt>
      <trkpt lat="43.67951" lon="3.81372">
        <ele>116.8</ele>
        <time>2019-07-07T08:20:39Z</time>
      </trkpt>
      <trkpt lat="43.67951" lon="3.8138">
        <ele>117.1</ele>
        <time>2019-07-07T08:20:40Z</time>
      </trkpt>
      <trkpt lat="43.6795" lon="3.81384">
        <ele>117.2</ele>
        <time>2019-07-07T08:20:41Z</time>
      </trkpt>
      <trkpt lat="43.67953" lon="3.81388">
        <ele>117.4</ele>
        <time>2019-07-07T08:20:43Z</time>
      </trkpt>
      <trkpt lat="43.67954" lon="3.81393">
        <ele>117.5</ele>
        <time>2019-07-07T08:20:44Z</time>
      </trkpt>
      <trkpt lat="43.67955" lon="3.81396">
        <ele>117.6</ele>
        <time>2019-07-07T08:20:46Z</time>
      </trkpt>
      <trkpt lat="43.67954" lon="3.814">
        <ele>117.7</ele>
        <time>2019-07-07T08:20:47Z</time>
      </trkpt>
      <trkpt lat="43.67954" lon="3.81404">
        <ele>117.8</ele>
        <time>2019-07-07T08:20:48Z</time>
      </trkpt>
      <trkpt lat="43.67952" lon="3.8141">
        <ele>118</ele>
        <time>2019-07-07T08:20:49Z</time>
      </trkpt>
      <trkpt lat="43.67952" lon="3.81414">
        <ele>118.1</ele>
        <time>2019-07-07T08:20:50Z</time>
      </trkpt>
      <trkpt lat="43.6795" lon="3.81419">
        <ele>118.3</ele>
        <time>2019-07-07T08:20:52Z</time>
      </trkpt>
      <trkpt lat="43.6795" lon="3.81423">
        <ele>118.4</ele>
        <time>2019-07-07T08:20:53Z</time>
      </trkpt>
      <trkpt lat="43.6795" lon="3.81428">
        <ele>118.6</ele>
        <time>2019-07-07T08:20:54Z</time>
      </trkpt>
      <trkpt lat="43.67949" lon="3.81432">
        <ele>118.8</ele>
        <time>2019-07-07T08:20:55Z</time>
      </trkpt>
      <trkpt lat="43.67949" lon="3.81436">
        <ele>118.9</ele>
        <time>2019-07-07T08:20:56Z</time>
      </trkpt>
      <trkpt lat="43.67947" lon="3.81439">
        <ele>119.2</ele>
        <time>2019-07-07T08:20:57Z</time>
      </trkpt>
      <trkpt lat="43.67948" lon="3.81447">
        <ele>119.4</ele>
        <time>2019-07-07T08:20:59Z</time>
      </trkpt>
      <trkpt lat="43.67946" lon="3.81451">
        <ele>119.5</ele>
        <time>2019-07-07T08:21:00Z</time>
      </trkpt>
      <trkpt lat="43.67948" lon="3.81457">
        <ele>119.7</ele>
        <time>2019-07-07T08:21:01Z</time>
      </trkpt>
      <trkpt lat="43.67947" lon="3.81461">
        <ele>119.8</ele>
        <time>2019-07-07T08:21:02Z</time>
      </trkpt>
      <trkpt lat="43.67946" lon="3.81464">
        <ele>119.9</ele>
        <time>2019-07-07T08:21:03Z</time>
      </trkpt>
      <trkpt lat="43.67946" lon="3.81468">
        <ele>120</ele>
        <time>2019-07-07T08:21:04Z</time>
      </trkpt>
      <trkpt lat="43.67945" lon="3.81472">
        <ele>120.2</ele>
        <time>2019-07-07T08:21:05Z</time>
      </trkpt>
      <trkpt lat="43.67945" lon="3.81477">
        <ele>120.3</ele>
        <time>2019-07-07T08:21:06Z</time>
      </trkpt>
      <trkpt lat="43.67945" lon="3.81481">
        <ele>120.5</ele>
        <time>2019-07-07T08:21:07Z</time>
      </trkpt>
      <trkpt lat="43.67946" lon="3.81485">
        <ele>120.6</ele>
        <time>2019-07-07T08:21:08Z</time>
      </trkpt>
      <trkpt lat="43.67944" lon="3.81487">
        <ele>120.8</ele>
        <time>2019-07-07T08:21:09Z</time>
      </trkpt>
      <trkpt lat="43.67944" lon="3.81492">
        <ele>121</ele>
        <time>2019-07-07T08:21:10Z</time>
      </trkpt>
      <trkpt lat="43.6795" lon="3.81496">
        <ele>121.3</ele>
        <time>2019-07-07T08:21:11Z</time>
      </trkpt>
      <trkpt lat="43.67949" lon="3.81501">
        <ele>121.5</ele>
        <time>2019-07-07T08:21:12Z</time>
      </trkpt>
      <trkpt lat="43.67948" lon="3.81505">
        <ele>121.6</ele>
        <time>2019-07-07T08:21:13Z</time>
      </trkpt>
      <trkpt lat="43.67947" lon="3.81508">
        <ele>121.7</ele>
        <time>2019-07-07T08:21:14Z</time>
      </trkpt>
      <trkpt lat="43.67947" lon="3.81512">
        <ele>121.9</ele>
        <time>2019-07-07T08:21:15Z</time>
      </trkpt>
      <trkpt lat="43.67948" lon="3.81517">
        <ele>122.1</ele>
        <time>2019-07-07T08:21:16Z</time>
      </trkpt>
      <trkpt lat="43.67946" lon="3.81523">
        <ele>122.4</ele>
        <time>2019-07-07T08:21:17Z</time>
      </trkpt>
      <trkpt lat="43.67945" lon="3.81526">
        <ele>122.6</ele>
        <time>2019-07-07T08:21:18Z</time>
      </trkpt>
      <trkpt lat="43.6794" lon="3.81529">
        <ele>123</ele>
        <time>2019-07-07T08:21:19Z</time>
      </trkpt>
      <trkpt lat="43.67938" lon="3.81531">
        <ele>123.3</ele>
        <time>2019-07-07T08:21:20Z</time>
      </trkpt>
      <trkpt lat="43.67936" lon="3.81535">
        <ele>123.6</ele>
        <time>2019-07-07T08:21:21Z</time>
      </trkpt>
      <trkpt lat="43.67935" lon="3.81539">
        <ele>124</ele>
        <time>2019-07-07T08:21:22Z</time>
      </trkpt>
      <trkpt lat="43.67935" lon="3.81543">
        <ele>124.4</ele>
        <time>2019-07-07T08:21:23Z</time>
      </trkpt>
      <trkpt lat="43.67933" lon="3.81547">
        <ele>124.7</ele>
        <time>2019-07-07T08:21:24Z</time>
      </trkpt>
      <trkpt lat="43.67932" lon="3.81552">
        <ele>124.9</ele>
        <time>2019-07-07T08:21:25Z</time>
      </trkpt>
      <trkpt lat="43.67928" lon="3.81556">
        <ele>125.1</ele>
        <time>2019-07-07T08:21:26Z</time>
      </trkpt>
      <trkpt lat="43.67926" lon="3.81565">
        <ele>125.3</ele>
        <time>2019-07-07T08:21:28Z</time>
      </trkpt>
      <trkpt lat="43.67924" lon="3.81568">
        <ele>125.5</ele>
        <time>2019-07-07T08:21:29Z</time>
      </trkpt>
      <trkpt lat="43.67924" lon="3.81573">
        <ele>125.6</ele>
        <time>2019-07-07T08:21:30Z</time>
      </trkpt>
      <trkpt lat="43.67924" lon="3.81578">
        <ele>125.8</ele>
        <time>2019-07-07T08:21:31Z</time>
      </trkpt>
      <trkpt lat="43.67923" lon="3.81582">
        <ele>125.9</ele>
        <time>2019-07-07T08:21:32Z</time>
      </trkpt>
      <trkpt lat="43.67923" lon="3.81587">
        <ele>126</ele>
        <time>2019-07-07T08:21:33Z</time>
      </trkpt>
      <trkpt lat="43.67923" lon="3.81591">
        <ele>126.1</ele>
        <time>2019-07-07T08:21:34Z</time>
      </trkpt>
      <trkpt lat="43.67922" lon="3.81596">
        <ele>126.2</ele>
        <time>2019-07-07T08:21:35Z</time>
      </trkpt>
      <trkpt lat="43.67922" lon="3.81601">
        <ele>126.2</ele>
        <time>2019-07-07T08:21:36Z</time>
      </trkpt>
      <trkpt lat="43.67921" lon="3.81606">
        <ele>126.3</ele>
        <time>2019-07-07T08:21:37Z</time>
      </trkpt>
      <trkpt lat="43.67918" lon="3.81608">
        <ele>126.3</ele>
        <time>2019-07-07T08:21:38Z</time>
      </trkpt>
      <trkpt lat="43.67917" lon="3.81613">
        <ele>126.3</ele>
        <time>2019-07-07T08:21:40Z</time>
      </trkpt>
      <trkpt lat="43.67914" lon="3.81617">
        <ele>126.2</ele>
        <time>2019-07-07T08:21:42Z</time>
      </trkpt>
      <trkpt lat="43.67911" lon="3.81617">
        <ele>126.1</ele>
        <time>2019-07-07T08:21:43Z</time>
      </trkpt>
      <trkpt lat="43.67907" lon="3.81618">
        <ele>125.9</ele>
        <time>2019-07-07T08:21:44Z</time>
      </trkpt>
      <trkpt lat="43.67894" lon="3.81616">
        <ele>125.4</ele>
        <time>2019-07-07T08:21:46Z</time>
      </trkpt>
      <trkpt lat="43.6789" lon="3.81617">
        <ele>125.3</ele>
        <time>2019-07-07T08:21:47Z</time>
      </trkpt>
      <trkpt lat="43.6788" lon="3.81621">
        <ele>124.9</ele>
        <time>2019-07-07T08:21:48Z</time>
      </trkpt>
      <trkpt lat="43.67875" lon="3.81624">
        <ele>124.7</ele>
        <time>2019-07-07T08:21:49Z</time>
      </trkpt>
      <trkpt lat="43.67871" lon="3.81628">
        <ele>124.5</ele>
        <time>2019-07-07T08:21:50Z</time>
      </trkpt>
      <trkpt lat="43.67865" lon="3.81632">
        <ele>123.9</ele>
        <time>2019-07-07T08:21:51Z</time>
      </trkpt>
      <trkpt lat="43.67859" lon="3.81636">
        <ele>123.6</ele>
        <time>2019-07-07T08:21:52Z</time>
      </trkpt>
      <trkpt lat="43.67854" lon="3.8164">
        <ele>123.4</ele>
        <time>2019-07-07T08:21:53Z</time>
      </trkpt>
      <trkpt lat="43.67846" lon="3.81642">
        <ele>123.1</ele>
        <time>2019-07-07T08:21:54Z</time>
      </trkpt>
      <trkpt lat="43.6784" lon="3.81645">
        <ele>122.8</ele>
        <time>2019-07-07T08:21:55Z</time>
      </trkpt>
      <trkpt lat="43.67836" lon="3.81648">
        <ele>122.6</ele>
        <time>2019-07-07T08:21:56Z</time>
      </trkpt>
      <trkpt lat="43.6783" lon="3.81652">
        <ele>122.2</ele>
        <time>2019-07-07T08:21:57Z</time>
      </trkpt>
      <trkpt lat="43.67825" lon="3.81656">
        <ele>121.8</ele>
        <time>2019-07-07T08:21:58Z</time>
      </trkpt>
      <trkpt lat="43.67818" lon="3.81663">
        <ele>121.4</ele>
        <time>2019-07-07T08:21:59Z</time>
      </trkpt>
      <trkpt lat="43.67811" lon="3.81666">
        <ele>121.2</ele>
        <time>2019-07-07T08:22:00Z</time>
      </trkpt>
      <trkpt lat="43.67805" lon="3.8167">
        <ele>121.2</ele>
        <time>2019-07-07T08:22:01Z</time>
      </trkpt>
      <trkpt lat="43.67799" lon="3.81674">
        <ele>121.1</ele>
        <time>2019-07-07T08:22:02Z</time>
      </trkpt>
      <trkpt lat="43.67793" lon="3.81678">
        <ele>121.1</ele>
        <time>2019-07-07T08:22:03Z</time>
      </trkpt>
      <trkpt lat="43.67789" lon="3.81681">
        <ele>121</ele>
        <time>2019-07-07T08:22:04Z</time>
      </trkpt>
      <trkpt lat="43.67783" lon="3.81685">
        <ele>120.9</ele>
        <time>2019-07-07T08:22:05Z</time>
      </trkpt>
      <trkpt lat="43.67778" lon="3.81688">
        <ele>120.7</ele>
        <time>2019-07-07T08:22:06Z</time>
      </trkpt>
      <trkpt lat="43.67773" lon="3.81691">
        <ele>120.4</ele>
        <time>2019-07-07T08:22:07Z</time>
      </trkpt>
      <trkpt lat="43.67767" lon="3.81694">
        <ele>120</ele>
        <time>2019-07-07T08:22:08Z</time>
      </trkpt>
      <trkpt lat="43.67761" lon="3.81697">
        <ele>119.6</ele>
        <time>2019-07-07T08:22:09Z</time>
      </trkpt>
      <trkpt lat="43.67756" lon="3.817">
        <ele>119.3</ele>
        <time>2019-07-07T08:22:10Z</time>
      </trkpt>
      <trkpt lat="43.67752" lon="3.81704">
        <ele>119</ele>
        <time>2019-07-07T08:22:11Z</time>
      </trkpt>
      <trkpt lat="43.67746" lon="3.81707">
        <ele>118.9</ele>
        <time>2019-07-07T08:22:12Z</time>
      </trkpt>
      <trkpt lat="43.67737" lon="3.8171">
        <ele>118.8</ele>
        <time>2019-07-07T08:22:13Z</time>
      </trkpt>
      <trkpt lat="43.67731" lon="3.81713">
        <ele>118.8</ele>
        <time>2019-07-07T08:22:14Z</time>
      </trkpt>
      <trkpt lat="43.67728" lon="3.81717">
        <ele>118.8</ele>
        <time>2019-07-07T08:22:15Z</time>
      </trkpt>
      <trkpt lat="43.67722" lon="3.8172">
        <ele>118.7</ele>
        <time>2019-07-07T08:22:16Z</time>
      </trkpt>
      <trkpt lat="43.67716" lon="3.81723">
        <ele>118.7</ele>
        <time>2019-07-07T08:22:17Z</time>
      </trkpt>
      <trkpt lat="43.67711" lon="3.81726">
        <ele>118.7</ele>
        <time>2019-07-07T08:22:18Z</time>
      </trkpt>
      <trkpt lat="43.67707" lon="3.81729">
        <ele>118.7</ele>
        <time>2019-07-07T08:22:19Z</time>
      </trkpt>
      <trkpt lat="43.67702" lon="3.81732">
        <ele>118.6</ele>
        <time>2019-07-07T08:22:20Z</time>
      </trkpt>
      <trkpt lat="43.67697" lon="3.81734">
        <ele>118.6</ele>
        <time>2019-07-07T08:22:21Z</time>
      </trkpt>
      <trkpt lat="43.67697" lon="3.81738">
        <ele>118.6</ele>
        <time>2019-07-07T08:22:23Z</time>
      </trkpt>
      <trkpt lat="43.677" lon="3.81739">
        <ele>118.5</ele>
        <time>2019-07-07T08:22:27Z</time>
      </trkpt>
      <trkpt lat="43.67703" lon="3.8174">
        <ele>116.2</ele>
        <time>2019-07-07T08:22:39Z</time>
      </trkpt>
      <trkpt lat="43.67706" lon="3.81741">
        <ele>116.2</ele>
        <time>2019-07-07T08:22:43Z</time>
      </trkpt>
      <trkpt lat="43.67709" lon="3.81742">
        <ele>116.2</ele>
        <time>2019-07-07T08:22:44Z</time>
      </trkpt>
      <trkpt lat="43.67712" lon="3.81741">
        <ele>116.2</ele>
        <time>2019-07-07T08:22:45Z</time>
      </trkpt>
      <trkpt lat="43.67717" lon="3.81742">
        <ele>116.1</ele>
        <time>2019-07-07T08:22:46Z</time>
      </trkpt>
      <trkpt lat="43.67721" lon="3.81742">
        <ele>116.1</ele>
        <time>2019-07-07T08:22:47Z</time>
      </trkpt>
      <trkpt lat="43.67725" lon="3.81743">
        <ele>116</ele>
        <time>2019-07-07T08:22:48Z</time>
      </trkpt>
      <trkpt lat="43.67729" lon="3.81745">
        <ele>116</ele>
        <time>2019-07-07T08:22:49Z</time>
      </trkpt>
      <trkpt lat="43.67732" lon="3.81746">
        <ele>115.9</ele>
        <time>2019-07-07T08:22:50Z</time>
      </trkpt>
      <trkpt lat="43.67736" lon="3.81749">
        <ele>115.8</ele>
        <time>2019-07-07T08:22:51Z</time>
      </trkpt>
      <trkpt lat="43.6774" lon="3.81753">
        <ele>115.8</ele>
        <time>2019-07-07T08:22:52Z</time>
      </trkpt>
      <trkpt lat="43.67744" lon="3.81757">
        <ele>115.9</ele>
        <time>2019-07-07T08:22:53Z</time>
      </trkpt>
      <trkpt lat="43.67748" lon="3.81757">
        <ele>115.9</ele>
        <time>2019-07-07T08:22:54Z</time>
      </trkpt>
      <trkpt lat="43.67754" lon="3.81758">
        <ele>115.8</ele>
        <time>2019-07-07T08:22:55Z</time>
      </trkpt>
      <trkpt lat="43.67759" lon="3.81756">
        <ele>115.7</ele>
        <time>2019-07-07T08:22:56Z</time>
      </trkpt>
      <trkpt lat="43.67764" lon="3.81756">
        <ele>115.5</ele>
        <time>2019-07-07T08:22:57Z</time>
      </trkpt>
      <trkpt lat="43.67768" lon="3.81759">
        <ele>115.3</ele>
        <time>2019-07-07T08:22:58Z</time>
      </trkpt>
      <trkpt lat="43.67774" lon="3.8176">
        <ele>115</ele>
        <time>2019-07-07T08:22:59Z</time>
      </trkpt>
      <trkpt lat="43.67779" lon="3.81761">
        <ele>114.8</ele>
        <time>2019-07-07T08:23:00Z</time>
      </trkpt>
      <trkpt lat="43.67785" lon="3.81764">
        <ele>114.4</ele>
        <time>2019-07-07T08:23:01Z</time>
      </trkpt>
      <trkpt lat="43.67792" lon="3.81767">
        <ele>114.1</ele>
        <time>2019-07-07T08:23:02Z</time>
      </trkpt>
      <trkpt lat="43.67798" lon="3.81769">
        <ele>113.7</ele>
        <time>2019-07-07T08:23:03Z</time>
      </trkpt>
      <trkpt lat="43.67805" lon="3.81772">
        <ele>113.5</ele>
        <time>2019-07-07T08:23:04Z</time>
      </trkpt>
      <trkpt lat="43.67811" lon="3.81776">
        <ele>113.4</ele>
        <time>2019-07-07T08:23:05Z</time>
      </trkpt>
      <trkpt lat="43.67818" lon="3.8178">
        <ele>113.3</ele>
        <time>2019-07-07T08:23:06Z</time>
      </trkpt>
      <trkpt lat="43.67825" lon="3.81785">
        <ele>113.2</ele>
        <time>2019-07-07T08:23:07Z</time>
      </trkpt>
      <trkpt lat="43.67834" lon="3.81791">
        <ele>113.1</ele>
        <time>2019-07-07T08:23:08Z</time>
      </trkpt>
      <trkpt lat="43.6784" lon="3.81796">
        <ele>112.8</ele>
        <time>2019-07-07T08:23:09Z</time>
      </trkpt>
      <trkpt lat="43.67848" lon="3.81803">
        <ele>112.2</ele>
        <time>2019-07-07T08:23:10Z</time>
      </trkpt>
      <trkpt lat="43.67856" lon="3.8181">
        <ele>111.7</ele>
        <time>2019-07-07T08:23:11Z</time>
      </trkpt>
      <trkpt lat="43.67863" lon="3.81816">
        <ele>111.3</ele>
        <time>2019-07-07T08:23:12Z</time>
      </trkpt>
      <trkpt lat="43.6787" lon="3.81823">
        <ele>111</ele>
        <time>2019-07-07T08:23:13Z</time>
      </trkpt>
      <trkpt lat="43.67876" lon="3.81831">
        <ele>110.7</ele>
        <time>2019-07-07T08:23:14Z</time>
      </trkpt>
      <trkpt lat="43.67882" lon="3.8184">
        <ele>110.5</ele>
        <time>2019-07-07T08:23:15Z</time>
      </trkpt>
      <trkpt lat="43.67887" lon="3.81849">
        <ele>110.2</ele>
        <time>2019-07-07T08:23:16Z</time>
      </trkpt>
      <trkpt lat="43.67891" lon="3.81859">
        <ele>109.9</ele>
        <time>2019-07-07T08:23:17Z</time>
      </trkpt>
      <trkpt lat="43.67896" lon="3.8187">
        <ele>109.5</ele>
        <time>2019-07-07T08:23:18Z</time>
      </trkpt>
      <trkpt lat="43.67899" lon="3.8188">
        <ele>109</ele>
        <time>2019-07-07T08:23:19Z</time>
      </trkpt>
      <trkpt lat="43.67903" lon="3.8189">
        <ele>108.4</ele>
        <time>2019-07-07T08:23:20Z</time>
      </trkpt>
      <trkpt lat="43.67907" lon="3.819">
        <ele>107.8</ele>
        <time>2019-07-07T08:23:21Z</time>
      </trkpt>
      <trkpt lat="43.67913" lon="3.81909">
        <ele>107.1</ele>
        <time>2019-07-07T08:23:22Z</time>
      </trkpt>
      <trkpt lat="43.67918" lon="3.81916">
        <ele>106.7</ele>
        <time>2019-07-07T08:23:23Z</time>
      </trkpt>
      <trkpt lat="43.67925" lon="3.81924">
        <ele>106.3</ele>
        <time>2019-07-07T08:23:24Z</time>
      </trkpt>
      <trkpt lat="43.67931" lon="3.81931">
        <ele>106</ele>
        <time>2019-07-07T08:23:25Z</time>
      </trkpt>
      <trkpt lat="43.67937" lon="3.81939">
        <ele>105.7</ele>
        <time>2019-07-07T08:23:26Z</time>
      </trkpt>
      <trkpt lat="43.67942" lon="3.81948">
        <ele>105.4</ele>
        <time>2019-07-07T08:23:27Z</time>
      </trkpt>
      <trkpt lat="43.67947" lon="3.81956">
        <ele>105.2</ele>
        <time>2019-07-07T08:23:28Z</time>
      </trkpt>
      <trkpt lat="43.67951" lon="3.81963">
        <ele>105</ele>
        <time>2019-07-07T08:23:29Z</time>
      </trkpt>
      <trkpt lat="43.67953" lon="3.81973">
        <ele>104.6</ele>
        <time>2019-07-07T08:23:30Z</time>
      </trkpt>
      <trkpt lat="43.67953" lon="3.81984">
        <ele>104.5</ele>
        <time>2019-07-07T08:23:31Z</time>
      </trkpt>
      <trkpt lat="43.67952" lon="3.81994">
        <ele>104.5</ele>
        <time>2019-07-07T08:23:32Z</time>
      </trkpt>
      <trkpt lat="43.67955" lon="3.82002">
        <ele>104.4</ele>
        <time>2019-07-07T08:23:33Z</time>
      </trkpt>
      <trkpt lat="43.67957" lon="3.82012">
        <ele>104.3</ele>
        <time>2019-07-07T08:23:34Z</time>
      </trkpt>
      <trkpt lat="43.67959" lon="3.82021">
        <ele>104.7</ele>
        <time>2019-07-07T08:23:35Z</time>
      </trkpt>
      <trkpt lat="43.67959" lon="3.8203">
        <ele>105</ele>
        <time>2019-07-07T08:23:36Z</time>
      </trkpt>
      <trkpt lat="43.67959" lon="3.8204">
        <ele>105.3</ele>
        <time>2019-07-07T08:23:37Z</time>
      </trkpt>
      <trkpt lat="43.67959" lon="3.8205">
        <ele>105.7</ele>
        <time>2019-07-07T08:23:38Z</time>
      </trkpt>
      <trkpt lat="43.67959" lon="3.8206">
        <ele>106.1</ele>
        <time>2019-07-07T08:23:39Z</time>
      </trkpt>
      <trkpt lat="43.67957" lon="3.82071">
        <ele>106.5</ele>
        <time>2019-07-07T08:23:40Z</time>
      </trkpt>
      <trkpt lat="43.67956" lon="3.82079">
        <ele>106.9</ele>
        <time>2019-07-07T08:23:41Z</time>
      </trkpt>
      <trkpt lat="43.67956" lon="3.82088">
        <ele>107.4</ele>
        <time>2019-07-07T08:23:42Z</time>
      </trkpt>
      <trkpt lat="43.67958" lon="3.82096">
        <ele>108</ele>
        <time>2019-07-07T08:23:43Z</time>
      </trkpt>
      <trkpt lat="43.67955" lon="3.82104">
        <ele>108.5</ele>
        <time>2019-07-07T08:23:44Z</time>
      </trkpt>
      <trkpt lat="43.67955" lon="3.82112">
        <ele>109</ele>
        <time>2019-07-07T08:23:45Z</time>
      </trkpt>
      <trkpt lat="43.67956" lon="3.8212">
        <ele>109.4</ele>
        <time>2019-07-07T08:23:46Z</time>
      </trkpt>
      <trkpt lat="43.67959" lon="3.82126">
        <ele>109.8</ele>
        <time>2019-07-07T08:23:47Z</time>
      </trkpt>
      <trkpt lat="43.67962" lon="3.82129">
        <ele>110</ele>
        <time>2019-07-07T08:23:48Z</time>
      </trkpt>
      <trkpt lat="43.67959" lon="3.82137">
        <ele>110.5</ele>
        <time>2019-07-07T08:23:49Z</time>
      </trkpt>
      <trkpt lat="43.67955" lon="3.82143">
        <ele>110.9</ele>
        <time>2019-07-07T08:23:50Z</time>
      </trkpt>
      <trkpt lat="43.67955" lon="3.8215">
        <ele>111.2</ele>
        <time>2019-07-07T08:23:51Z</time>
      </trkpt>
      <trkpt lat="43.67957" lon="3.82155">
        <ele>111.5</ele>
        <time>2019-07-07T08:23:52Z</time>
      </trkpt>
      <trkpt lat="43.67958" lon="3.8216">
        <ele>111.9</ele>
        <time>2019-07-07T08:23:53Z</time>
      </trkpt>
      <trkpt lat="43.67961" lon="3.82164">
        <ele>111.7</ele>
        <time>2019-07-07T08:23:54Z</time>
      </trkpt>
      <trkpt lat="43.67964" lon="3.82166">
        <ele>111.4</ele>
        <time>2019-07-07T08:23:55Z</time>
      </trkpt>
      <trkpt lat="43.67969" lon="3.82169">
        <ele>111</ele>
        <time>2019-07-07T08:23:56Z</time>
      </trkpt>
      <trkpt lat="43.67973" lon="3.82172">
        <ele>110.6</ele>
        <time>2019-07-07T08:23:57Z</time>
      </trkpt>
      <trkpt lat="43.67978" lon="3.82174">
        <ele>110.2</ele>
        <time>2019-07-07T08:23:58Z</time>
      </trkpt>
      <trkpt lat="43.67982" lon="3.82176">
        <ele>110</ele>
        <time>2019-07-07T08:23:59Z</time>
      </trkpt>
      <trkpt lat="43.67987" lon="3.82179">
        <ele>109.8</ele>
        <time>2019-07-07T08:24:00Z</time>
      </trkpt>
      <trkpt lat="43.67994" lon="3.8218">
        <ele>109.8</ele>
        <time>2019-07-07T08:24:01Z</time>
      </trkpt>
      <trkpt lat="43.68001" lon="3.8218">
        <ele>110</ele>
        <time>2019-07-07T08:24:02Z</time>
      </trkpt>
      <trkpt lat="43.68007" lon="3.8218">
        <ele>110.3</ele>
        <time>2019-07-07T08:24:03Z</time>
      </trkpt>
      <trkpt lat="43.68014" lon="3.82181">
        <ele>110.5</ele>
        <time>2019-07-07T08:24:04Z</time>
      </trkpt>
      <trkpt lat="43.68021" lon="3.82182">
        <ele>110.6</ele>
        <time>2019-07-07T08:24:05Z</time>
      </trkpt>
      <trkpt lat="43.68027" lon="3.82183">
        <ele>110.7</ele>
        <time>2019-07-07T08:24:06Z</time>
      </trkpt>
      <trkpt lat="43.68033" lon="3.82184">
        <ele>110.7</ele>
        <time>2019-07-07T08:24:07Z</time>
      </trkpt>
      <trkpt lat="43.68042" lon="3.82185">
        <ele>110.8</ele>
        <time>2019-07-07T08:24:08Z</time>
      </trkpt>
      <trkpt lat="43.68049" lon="3.82185">
        <ele>110.9</ele>
        <time>2019-07-07T08:24:09Z</time>
      </trkpt>
      <trkpt lat="43.68055" lon="3.82186">
        <ele>111.1</ele>
        <time>2019-07-07T08:24:10Z</time>
      </trkpt>
      <trkpt lat="43.68062" lon="3.82187">
        <ele>111.3</ele>
        <time>2019-07-07T08:24:11Z</time>
      </trkpt>
      <trkpt lat="43.68069" lon="3.82188">
        <ele>111.7</ele>
        <time>2019-07-07T08:24:12Z</time>
      </trkpt>
      <trkpt lat="43.68075" lon="3.82187">
        <ele>112.1</ele>
        <time>2019-07-07T08:24:13Z</time>
      </trkpt>
      <trkpt lat="43.68082" lon="3.82187">
        <ele>112.6</ele>
        <time>2019-07-07T08:24:14Z</time>
      </trkpt>
      <trkpt lat="43.68089" lon="3.82186">
        <ele>113</ele>
        <time>2019-07-07T08:24:15Z</time>
      </trkpt>
      <trkpt lat="43.68094" lon="3.82188">
        <ele>113.2</ele>
        <time>2019-07-07T08:24:16Z</time>
      </trkpt>
      <trkpt lat="43.68101" lon="3.8219">
        <ele>113.1</ele>
        <time>2019-07-07T08:24:17Z</time>
      </trkpt>
      <trkpt lat="43.68107" lon="3.8219">
        <ele>113</ele>
        <time>2019-07-07T08:24:18Z</time>
      </trkpt>
      <trkpt lat="43.68114" lon="3.8219">
        <ele>112.8</ele>
        <time>2019-07-07T08:24:19Z</time>
      </trkpt>
      <trkpt lat="43.6812" lon="3.82192">
        <ele>112.7</ele>
        <time>2019-07-07T08:24:20Z</time>
      </trkpt>
      <trkpt lat="43.68126" lon="3.82193">
        <ele>112.7</ele>
        <time>2019-07-07T08:24:21Z</time>
      </trkpt>
      <trkpt lat="43.6813" lon="3.82189">
        <ele>112.7</ele>
        <time>2019-07-07T08:24:22Z</time>
      </trkpt>
      <trkpt lat="43.68136" lon="3.82189">
        <ele>112.6</ele>
        <time>2019-07-07T08:24:23Z</time>
      </trkpt>
      <trkpt lat="43.68142" lon="3.82191">
        <ele>112.6</ele>
        <time>2019-07-07T08:24:24Z</time>
      </trkpt>
      <trkpt lat="43.68149" lon="3.82192">
        <ele>112.6</ele>
        <time>2019-07-07T08:24:25Z</time>
      </trkpt>
      <trkpt lat="43.68156" lon="3.82193">
        <ele>112.6</ele>
        <time>2019-07-07T08:24:26Z</time>
      </trkpt>
      <trkpt lat="43.68162" lon="3.82193">
        <ele>112.7</ele>
        <time>2019-07-07T08:24:27Z</time>
      </trkpt>
      <trkpt lat="43.68168" lon="3.82193">
        <ele>112.8</ele>
        <time>2019-07-07T08:24:28Z</time>
      </trkpt>
      <trkpt lat="43.68174" lon="3.82194">
        <ele>113</ele>
        <time>2019-07-07T08:24:29Z</time>
      </trkpt>
      <trkpt lat="43.68179" lon="3.82194">
        <ele>113.2</ele>
        <time>2019-07-07T08:24:30Z</time>
      </trkpt>
      <trkpt lat="43.68185" lon="3.82196">
        <ele>113.3</ele>
        <time>2019-07-07T08:24:31Z</time>
      </trkpt>
      <trkpt lat="43.6819" lon="3.82197">
        <ele>113.5</ele>
        <time>2019-07-07T08:24:32Z</time>
      </trkpt>
      <trkpt lat="43.68196" lon="3.82198">
        <ele>113.6</ele>
        <time>2019-07-07T08:24:33Z</time>
      </trkpt>
      <trkpt lat="43.68202" lon="3.82198">
        <ele>113.7</ele>
        <time>2019-07-07T08:24:34Z</time>
      </trkpt>
      <trkpt lat="43.68209" lon="3.82199">
        <ele>113.8</ele>
        <time>2019-07-07T08:24:35Z</time>
      </trkpt>
      <trkpt lat="43.68215" lon="3.82198">
        <ele>114</ele>
        <time>2019-07-07T08:24:36Z</time>
      </trkpt>
      <trkpt lat="43.6822" lon="3.82195">
        <ele>114.1</ele>
        <time>2019-07-07T08:24:37Z</time>
      </trkpt>
      <trkpt lat="43.68227" lon="3.82196">
        <ele>114.3</ele>
        <time>2019-07-07T08:24:38Z</time>
      </trkpt>
      <trkpt lat="43.68233" lon="3.82197">
        <ele>114.5</ele>
        <time>2019-07-07T08:24:39Z</time>
      </trkpt>
      <trkpt lat="43.6824" lon="3.82198">
        <ele>114.7</ele>
        <time>2019-07-07T08:24:40Z</time>
      </trkpt>
      <trkpt lat="43.68245" lon="3.822">
        <ele>114.9</ele>
        <time>2019-07-07T08:24:41Z</time>
      </trkpt>
      <trkpt lat="43.68251" lon="3.82201">
        <ele>115</ele>
        <time>2019-07-07T08:24:42Z</time>
      </trkpt>
      <trkpt lat="43.68257" lon="3.82201">
        <ele>114.9</ele>
        <time>2019-07-07T08:24:43Z</time>
      </trkpt>
      <trkpt lat="43.68263" lon="3.82202">
        <ele>114.8</ele>
        <time>2019-07-07T08:24:44Z</time>
      </trkpt>
      <trkpt lat="43.6827" lon="3.82203">
        <ele>114.5</ele>
        <time>2019-07-07T08:24:45Z</time>
      </trkpt>
      <trkpt lat="43.68275" lon="3.82203">
        <ele>114.3</ele>
        <time>2019-07-07T08:24:46Z</time>
      </trkpt>
      <trkpt lat="43.68281" lon="3.82205">
        <ele>114.2</ele>
        <time>2019-07-07T08:24:47Z</time>
      </trkpt>
      <trkpt lat="43.68288" lon="3.82206">
        <ele>114.1</ele>
        <time>2019-07-07T08:24:48Z</time>
      </trkpt>
      <trkpt lat="43.68295" lon="3.82207">
        <ele>114</ele>
        <time>2019-07-07T08:24:49Z</time>
      </trkpt>
      <trkpt lat="43.68301" lon="3.82206">
        <ele>113.9</ele>
        <time>2019-07-07T08:24:50Z</time>
      </trkpt>
      <trkpt lat="43.68306" lon="3.82208">
        <ele>113.7</ele>
        <time>2019-07-07T08:24:51Z</time>
      </trkpt>
      <trkpt lat="43.68311" lon="3.82209">
        <ele>113.5</ele>
        <time>2019-07-07T08:24:52Z</time>
      </trkpt>
      <trkpt lat="43.68317" lon="3.8221">
        <ele>113.3</ele>
        <time>2019-07-07T08:24:53Z</time>
      </trkpt>
      <trkpt lat="43.68323" lon="3.82211">
        <ele>113.1</ele>
        <time>2019-07-07T08:24:54Z</time>
      </trkpt>
      <trkpt lat="43.68329" lon="3.82213">
        <ele>112.9</ele>
        <time>2019-07-07T08:24:55Z</time>
      </trkpt>
      <trkpt lat="43.68334" lon="3.82215">
        <ele>112.7</ele>
        <time>2019-07-07T08:24:56Z</time>
      </trkpt>
      <trkpt lat="43.6834" lon="3.82216">
        <ele>112.4</ele>
        <time>2019-07-07T08:24:57Z</time>
      </trkpt>
      <trkpt lat="43.68345" lon="3.82217">
        <ele>112.3</ele>
        <time>2019-07-07T08:24:58Z</time>
      </trkpt>
      <trkpt lat="43.6835" lon="3.82218">
        <ele>112.1</ele>
        <time>2019-07-07T08:24:59Z</time>
      </trkpt>
      <trkpt lat="43.68357" lon="3.82221">
        <ele>112</ele>
        <time>2019-07-07T08:25:00Z</time>
      </trkpt>
      <trkpt lat="43.68361" lon="3.8222">
        <ele>111.8</ele>
        <time>2019-07-07T08:25:01Z</time>
      </trkpt>
      <trkpt lat="43.68367" lon="3.82221">
        <ele>111.6</ele>
        <time>2019-07-07T08:25:02Z</time>
      </trkpt>
      <trkpt lat="43.68373" lon="3.82223">
        <ele>111.4</ele>
        <time>2019-07-07T08:25:03Z</time>
      </trkpt>
      <trkpt lat="43.68379" lon="3.82223">
        <ele>111.2</ele>
        <time>2019-07-07T08:25:04Z</time>
      </trkpt>
      <trkpt lat="43.68386" lon="3.82224">
        <ele>111</ele>
        <time>2019-07-07T08:25:05Z</time>
      </trkpt>
      <trkpt lat="43.68391" lon="3.82226">
        <ele>110.9</ele>
        <time>2019-07-07T08:25:06Z</time>
      </trkpt>
      <trkpt lat="43.68397" lon="3.82227">
        <ele>110.9</ele>
        <time>2019-07-07T08:25:07Z</time>
      </trkpt>
      <trkpt lat="43.68402" lon="3.82229">
        <ele>111</ele>
        <time>2019-07-07T08:25:08Z</time>
      </trkpt>
      <trkpt lat="43.68407" lon="3.8223">
        <ele>111</ele>
        <time>2019-07-07T08:25:09Z</time>
      </trkpt>
      <trkpt lat="43.6841" lon="3.82233">
        <ele>111.1</ele>
        <time>2019-07-07T08:25:10Z</time>
      </trkpt>
      <trkpt lat="43.68414" lon="3.8223">
        <ele>111.1</ele>
        <time>2019-07-07T08:25:11Z</time>
      </trkpt>
      <trkpt lat="43.6842" lon="3.82231">
        <ele>111.2</ele>
        <time>2019-07-07T08:25:12Z</time>
      </trkpt>
      <trkpt lat="43.68425" lon="3.82233">
        <ele>111.1</ele>
        <time>2019-07-07T08:25:13Z</time>
      </trkpt>
      <trkpt lat="43.68432" lon="3.82235">
        <ele>111.1</ele>
        <time>2019-07-07T08:25:14Z</time>
      </trkpt>
      <trkpt lat="43.68439" lon="3.82235">
        <ele>111</ele>
        <time>2019-07-07T08:25:15Z</time>
      </trkpt>
      <trkpt lat="43.68445" lon="3.82237">
        <ele>110.9</ele>
        <time>2019-07-07T08:25:16Z</time>
      </trkpt>
      <trkpt lat="43.6845" lon="3.82238">
        <ele>110.8</ele>
        <time>2019-07-07T08:25:17Z</time>
      </trkpt>
      <trkpt lat="43.68455" lon="3.82238">
        <ele>110.7</ele>
        <time>2019-07-07T08:25:18Z</time>
      </trkpt>
      <trkpt lat="43.68461" lon="3.82239">
        <ele>110.6</ele>
        <time>2019-07-07T08:25:19Z</time>
      </trkpt>
      <trkpt lat="43.68467" lon="3.82241">
        <ele>110.3</ele>
        <time>2019-07-07T08:25:20Z</time>
      </trkpt>
      <trkpt lat="43.68473" lon="3.82241">
        <ele>110.1</ele>
        <time>2019-07-07T08:25:21Z</time>
      </trkpt>
      <trkpt lat="43.68478" lon="3.82242">
        <ele>109.8</ele>
        <time>2019-07-07T08:25:22Z</time>
      </trkpt>
      <trkpt lat="43.68483" lon="3.82244">
        <ele>109.6</ele>
        <time>2019-07-07T08:25:23Z</time>
      </trkpt>
      <trkpt lat="43.68488" lon="3.82246">
        <ele>109.4</ele>
        <time>2019-07-07T08:25:24Z</time>
      </trkpt>
      <trkpt lat="43.68493" lon="3.82249">
        <ele>109.2</ele>
        <time>2019-07-07T08:25:25Z</time>
      </trkpt>
      <trkpt lat="43.68497" lon="3.82253">
        <ele>109</ele>
        <time>2019-07-07T08:25:26Z</time>
      </trkpt>
      <trkpt lat="43.68502" lon="3.82256">
        <ele>108.9</ele>
        <time>2019-07-07T08:25:27Z</time>
      </trkpt>
      <trkpt lat="43.68508" lon="3.82258">
        <ele>108.8</ele>
        <time>2019-07-07T08:25:28Z</time>
      </trkpt>
      <trkpt lat="43.68512" lon="3.8226">
        <ele>108.7</ele>
        <time>2019-07-07T08:25:29Z</time>
      </trkpt>
      <trkpt lat="43.68518" lon="3.82261">
        <ele>108.6</ele>
        <time>2019-07-07T08:25:30Z</time>
      </trkpt>
      <trkpt lat="43.68523" lon="3.82263">
        <ele>108.4</ele>
        <time>2019-07-07T08:25:31Z</time>
      </trkpt>
      <trkpt lat="43.68527" lon="3.82267">
        <ele>108.2</ele>
        <time>2019-07-07T08:25:32Z</time>
      </trkpt>
      <trkpt lat="43.68532" lon="3.82269">
        <ele>108.1</ele>
        <time>2019-07-07T08:25:33Z</time>
      </trkpt>
      <trkpt lat="43.68537" lon="3.8227">
        <ele>107.9</ele>
        <time>2019-07-07T08:25:34Z</time>
      </trkpt>
      <trkpt lat="43.68542" lon="3.82272">
        <ele>107.6</ele>
        <time>2019-07-07T08:25:35Z</time>
      </trkpt>
      <trkpt lat="43.68547" lon="3.82275">
        <ele>107.3</ele>
        <time>2019-07-07T08:25:36Z</time>
      </trkpt>
      <trkpt lat="43.68552" lon="3.82278">
        <ele>107</ele>
        <time>2019-07-07T08:25:37Z</time>
      </trkpt>
      <trkpt lat="43.68557" lon="3.8228">
        <ele>106.7</ele>
        <time>2019-07-07T08:25:38Z</time>
      </trkpt>
      <trkpt lat="43.68562" lon="3.82281">
        <ele>106.4</ele>
        <time>2019-07-07T08:25:39Z</time>
      </trkpt>
      <trkpt lat="43.68565" lon="3.82284">
        <ele>106.3</ele>
        <time>2019-07-07T08:25:40Z</time>
      </trkpt>
      <trkpt lat="43.68569" lon="3.82285">
        <ele>106.1</ele>
        <time>2019-07-07T08:25:41Z</time>
      </trkpt>
      <trkpt lat="43.68575" lon="3.82287">
        <ele>106</ele>
        <time>2019-07-07T08:25:42Z</time>
      </trkpt>
      <trkpt lat="43.68579" lon="3.82289">
        <ele>106</ele>
        <time>2019-07-07T08:25:43Z</time>
      </trkpt>
      <trkpt lat="43.68586" lon="3.8229">
        <ele>106</ele>
        <time>2019-07-07T08:25:44Z</time>
      </trkpt>
      <trkpt lat="43.68591" lon="3.82292">
        <ele>105.9</ele>
        <time>2019-07-07T08:25:45Z</time>
      </trkpt>
      <trkpt lat="43.68596" lon="3.82293">
        <ele>105.9</ele>
        <time>2019-07-07T08:25:46Z</time>
      </trkpt>
      <trkpt lat="43.686" lon="3.82296">
        <ele>105.8</ele>
        <time>2019-07-07T08:25:47Z</time>
      </trkpt>
      <trkpt lat="43.68604" lon="3.82298">
        <ele>105.7</ele>
        <time>2019-07-07T08:25:48Z</time>
      </trkpt>
      <trkpt lat="43.6861" lon="3.823">
        <ele>105.5</ele>
        <time>2019-07-07T08:25:49Z</time>
      </trkpt>
      <trkpt lat="43.68614" lon="3.82302">
        <ele>105.4</ele>
        <time>2019-07-07T08:25:50Z</time>
      </trkpt>
      <trkpt lat="43.68619" lon="3.82303">
        <ele>105.4</ele>
        <time>2019-07-07T08:25:51Z</time>
      </trkpt>
      <trkpt lat="43.68623" lon="3.82302">
        <ele>105.3</ele>
        <time>2019-07-07T08:25:52Z</time>
      </trkpt>
      <trkpt lat="43.68628" lon="3.82303">
        <ele>105.3</ele>
        <time>2019-07-07T08:25:53Z</time>
      </trkpt>
      <trkpt lat="43.68631" lon="3.82304">
        <ele>105.2</ele>
        <time>2019-07-07T08:25:54Z</time>
      </trkpt>
      <trkpt lat="43.68634" lon="3.82305">
        <ele>105.2</ele>
        <time>2019-07-07T08:25:55Z</time>
      </trkpt>
      <trkpt lat="43.68639" lon="3.82306">
        <ele>105.1</ele>
        <time>2019-07-07T08:25:56Z</time>
      </trkpt>
      <trkpt lat="43.68642" lon="3.82307">
        <ele>105.1</ele>
        <time>2019-07-07T08:25:57Z</time>
      </trkpt>
      <trkpt lat="43.68645" lon="3.82309">
        <ele>105</ele>
        <time>2019-07-07T08:25:58Z</time>
      </trkpt>
      <trkpt lat="43.6865" lon="3.82311">
        <ele>104.8</ele>
        <time>2019-07-07T08:25:59Z</time>
      </trkpt>
      <trkpt lat="43.68654" lon="3.82312">
        <ele>104.7</ele>
        <time>2019-07-07T08:26:00Z</time>
      </trkpt>
      <trkpt lat="43.68657" lon="3.82315">
        <ele>104.5</ele>
        <time>2019-07-07T08:26:01Z</time>
      </trkpt>
      <trkpt lat="43.68661" lon="3.82317">
        <ele>104.4</ele>
        <time>2019-07-07T08:26:02Z</time>
      </trkpt>
      <trkpt lat="43.68666" lon="3.8232">
        <ele>104.2</ele>
        <time>2019-07-07T08:26:03Z</time>
      </trkpt>
      <trkpt lat="43.68668" lon="3.82321">
        <ele>104.1</ele>
        <time>2019-07-07T08:26:04Z</time>
      </trkpt>
      <trkpt lat="43.68672" lon="3.82322">
        <ele>104</ele>
        <time>2019-07-07T08:26:05Z</time>
      </trkpt>
      <trkpt lat="43.68677" lon="3.82324">
        <ele>103.8</ele>
        <time>2019-07-07T08:26:06Z</time>
      </trkpt>
      <trkpt lat="43.68681" lon="3.82327">
        <ele>103.7</ele>
        <time>2019-07-07T08:26:07Z</time>
      </trkpt>
      <trkpt lat="43.68684" lon="3.8233">
        <ele>103.6</ele>
        <time>2019-07-07T08:26:08Z</time>
      </trkpt>
      <trkpt lat="43.68687" lon="3.8233">
        <ele>103.6</ele>
        <time>2019-07-07T08:26:09Z</time>
      </trkpt>
      <trkpt lat="43.68691" lon="3.82333">
        <ele>103.5</ele>
        <time>2019-07-07T08:26:10Z</time>
      </trkpt>
      <trkpt lat="43.68695" lon="3.82336">
        <ele>103.3</ele>
        <time>2019-07-07T08:26:11Z</time>
      </trkpt>
      <trkpt lat="43.687" lon="3.82341">
        <ele>103.1</ele>
        <time>2019-07-07T08:26:12Z</time>
      </trkpt>
      <trkpt lat="43.68705" lon="3.82345">
        <ele>102.9</ele>
        <time>2019-07-07T08:26:13Z</time>
      </trkpt>
      <trkpt lat="43.68708" lon="3.82348">
        <ele>102.7</ele>
        <time>2019-07-07T08:26:14Z</time>
      </trkpt>
      <trkpt lat="43.68713" lon="3.82352">
        <ele>102.3</ele>
        <time>2019-07-07T08:26:15Z</time>
      </trkpt>
      <trkpt lat="43.68717" lon="3.82355">
        <ele>102</ele>
        <time>2019-07-07T08:26:16Z</time>
      </trkpt>
      <trkpt lat="43.6872" lon="3.8236">
        <ele>101.5</ele>
        <time>2019-07-07T08:26:17Z</time>
      </trkpt>
      <trkpt lat="43.68725" lon="3.82365">
        <ele>100.8</ele>
        <time>2019-07-07T08:26:18Z</time>
      </trkpt>
      <trkpt lat="43.68728" lon="3.8237">
        <ele>100.2</ele>
        <time>2019-07-07T08:26:19Z</time>
      </trkpt>
      <trkpt lat="43.68732" lon="3.82376">
        <ele>99.7</ele>
        <time>2019-07-07T08:26:20Z</time>
      </trkpt>
      <trkpt lat="43.68735" lon="3.8238">
        <ele>99.3</ele>
        <time>2019-07-07T08:26:21Z</time>
      </trkpt>
      <trkpt lat="43.68739" lon="3.82384">
        <ele>98.8</ele>
        <time>2019-07-07T08:26:22Z</time>
      </trkpt>
      <trkpt lat="43.68743" lon="3.8239">
        <ele>98.3</ele>
        <time>2019-07-07T08:26:23Z</time>
      </trkpt>
      <trkpt lat="43.68745" lon="3.82395">
        <ele>97.9</ele>
        <time>2019-07-07T08:26:24Z</time>
      </trkpt>
      <trkpt lat="43.68748" lon="3.82401">
        <ele>97.6</ele>
        <time>2019-07-07T08:26:25Z</time>
      </trkpt>
      <trkpt lat="43.6875" lon="3.82404">
        <ele>97.8</ele>
        <time>2019-07-07T08:26:26Z</time>
      </trkpt>
      <trkpt lat="43.68752" lon="3.82409">
        <ele>98</ele>
        <time>2019-07-07T08:26:27Z</time>
      </trkpt>
      <trkpt lat="43.68757" lon="3.82413">
        <ele>98.3</ele>
        <time>2019-07-07T08:26:28Z</time>
      </trkpt>
      <trkpt lat="43.68759" lon="3.82417">
        <ele>98.4</ele>
        <time>2019-07-07T08:26:29Z</time>
      </trkpt>
      <trkpt lat="43.68763" lon="3.8242">
        <ele>98.6</ele>
        <time>2019-07-07T08:26:30Z</time>
      </trkpt>
      <trkpt lat="43.68765" lon="3.82423">
        <ele>98.8</ele>
        <time>2019-07-07T08:26:31Z</time>
      </trkpt>
      <trkpt lat="43.68768" lon="3.82426">
        <ele>99</ele>
        <time>2019-07-07T08:26:32Z</time>
      </trkpt>
      <trkpt lat="43.6877" lon="3.82431">
        <ele>99.1</ele>
        <time>2019-07-07T08:26:33Z</time>
      </trkpt>
      <trkpt lat="43.68774" lon="3.82434">
        <ele>99.3</ele>
        <time>2019-07-07T08:26:34Z</time>
      </trkpt>
      <trkpt lat="43.68777" lon="3.82438">
        <ele>99.5</ele>
        <time>2019-07-07T08:26:35Z</time>
      </trkpt>
      <trkpt lat="43.6878" lon="3.8244">
        <ele>99.6</ele>
        <time>2019-07-07T08:26:36Z</time>
      </trkpt>
      <trkpt lat="43.68784" lon="3.82445">
        <ele>99.7</ele>
        <time>2019-07-07T08:26:38Z</time>
      </trkpt>
      <trkpt lat="43.68786" lon="3.82449">
        <ele>99.8</ele>
        <time>2019-07-07T08:26:39Z</time>
      </trkpt>
      <trkpt lat="43.68786" lon="3.82455">
        <ele>99.8</ele>
        <time>2019-07-07T08:26:41Z</time>
      </trkpt>
      <trkpt lat="43.68783" lon="3.82459">
        <ele>99.7</ele>
        <time>2019-07-07T08:26:43Z</time>
      </trkpt>
      <trkpt lat="43.6878" lon="3.82461">
        <ele>99.7</ele>
        <time>2019-07-07T08:26:44Z</time>
      </trkpt>
      <trkpt lat="43.68777" lon="3.82462">
        <ele>99.6</ele>
        <time>2019-07-07T08:26:45Z</time>
      </trkpt>
      <trkpt lat="43.68775" lon="3.82464">
        <ele>99.5</ele>
        <time>2019-07-07T08:26:46Z</time>
      </trkpt>
      <trkpt lat="43.68772" lon="3.82466">
        <ele>99.5</ele>
        <time>2019-07-07T08:26:47Z</time>
      </trkpt>
      <trkpt lat="43.6877" lon="3.82468">
        <ele>99.4</ele>
        <time>2019-07-07T08:26:48Z</time>
      </trkpt>
      <trkpt lat="43.6877" lon="3.82473">
        <ele>99.3</ele>
        <time>2019-07-07T08:26:50Z</time>
      </trkpt>
      <trkpt lat="43.68771" lon="3.82479">
        <ele>99.2</ele>
        <time>2019-07-07T08:26:52Z</time>
      </trkpt>
      <trkpt lat="43.6877" lon="3.82485">
        <ele>99.2</ele>
        <time>2019-07-07T08:26:54Z</time>
      </trkpt>
      <trkpt lat="43.68768" lon="3.82491">
        <ele>99.1</ele>
        <time>2019-07-07T08:26:56Z</time>
      </trkpt>
      <trkpt lat="43.68767" lon="3.82495">
        <ele>99</ele>
        <time>2019-07-07T08:26:57Z</time>
      </trkpt>
      <trkpt lat="43.68764" lon="3.82498">
        <ele>98.9</ele>
        <time>2019-07-07T08:26:58Z</time>
      </trkpt>
      <trkpt lat="43.6876" lon="3.82502">
        <ele>98.9</ele>
        <time>2019-07-07T08:26:59Z</time>
      </trkpt>
      <trkpt lat="43.68757" lon="3.82505">
        <ele>98.8</ele>
        <time>2019-07-07T08:27:00Z</time>
      </trkpt>
      <trkpt lat="43.68755" lon="3.82508">
        <ele>98.8</ele>
        <time>2019-07-07T08:27:01Z</time>
      </trkpt>
      <trkpt lat="43.68751" lon="3.82512">
        <ele>98.7</ele>
        <time>2019-07-07T08:27:02Z</time>
      </trkpt>
      <trkpt lat="43.68748" lon="3.82516">
        <ele>98.7</ele>
        <time>2019-07-07T08:27:03Z</time>
      </trkpt>
      <trkpt lat="43.68745" lon="3.82521">
        <ele>98.6</ele>
        <time>2019-07-07T08:27:04Z</time>
      </trkpt>
      <trkpt lat="43.68741" lon="3.82524">
        <ele>98.6</ele>
        <time>2019-07-07T08:27:05Z</time>
      </trkpt>
      <trkpt lat="43.68739" lon="3.82529">
        <ele>98.6</ele>
        <time>2019-07-07T08:27:06Z</time>
      </trkpt>
      <trkpt lat="43.68735" lon="3.82533">
        <ele>98.6</ele>
        <time>2019-07-07T08:27:07Z</time>
      </trkpt>
      <trkpt lat="43.68732" lon="3.82533">
        <ele>98.5</ele>
        <time>2019-07-07T08:27:08Z</time>
      </trkpt>
      <trkpt lat="43.68729" lon="3.82535">
        <ele>98.5</ele>
        <time>2019-07-07T08:27:09Z</time>
      </trkpt>
      <trkpt lat="43.68725" lon="3.8254">
        <ele>98.5</ele>
        <time>2019-07-07T08:27:10Z</time>
      </trkpt>
      <trkpt lat="43.6872" lon="3.82546">
        <ele>98.4</ele>
        <time>2019-07-07T08:27:11Z</time>
      </trkpt>
      <trkpt lat="43.68714" lon="3.8255">
        <ele>98.3</ele>
        <time>2019-07-07T08:27:12Z</time>
      </trkpt>
      <trkpt lat="43.68711" lon="3.82556">
        <ele>98.2</ele>
        <time>2019-07-07T08:27:13Z</time>
      </trkpt>
      <trkpt lat="43.68707" lon="3.8256">
        <ele>98.2</ele>
        <time>2019-07-07T08:27:14Z</time>
      </trkpt>
      <trkpt lat="43.68703" lon="3.82565">
        <ele>98.1</ele>
        <time>2019-07-07T08:27:15Z</time>
      </trkpt>
      <trkpt lat="43.68697" lon="3.82571">
        <ele>98</ele>
        <time>2019-07-07T08:27:16Z</time>
      </trkpt>
      <trkpt lat="43.68692" lon="3.82576">
        <ele>97.8</ele>
        <time>2019-07-07T08:27:17Z</time>
      </trkpt>
      <trkpt lat="43.68691" lon="3.82581">
        <ele>97.8</ele>
        <time>2019-07-07T08:27:18Z</time>
      </trkpt>
      <trkpt lat="43.68687" lon="3.82585">
        <ele>97.7</ele>
        <time>2019-07-07T08:27:19Z</time>
      </trkpt>
      <trkpt lat="43.68684" lon="3.82588">
        <ele>97.6</ele>
        <time>2019-07-07T08:27:20Z</time>
      </trkpt>
      <trkpt lat="43.6868" lon="3.82591">
        <ele>97.5</ele>
        <time>2019-07-07T08:27:21Z</time>
      </trkpt>
      <trkpt lat="43.68675" lon="3.82596">
        <ele>97.4</ele>
        <time>2019-07-07T08:27:22Z</time>
      </trkpt>
      <trkpt lat="43.6867" lon="3.82601">
        <ele>97.3</ele>
        <time>2019-07-07T08:27:23Z</time>
      </trkpt>
      <trkpt lat="43.68668" lon="3.82609">
        <ele>97.2</ele>
        <time>2019-07-07T08:27:24Z</time>
      </trkpt>
      <trkpt lat="43.68664" lon="3.82613">
        <ele>97</ele>
        <time>2019-07-07T08:27:25Z</time>
      </trkpt>
      <trkpt lat="43.68659" lon="3.82619">
        <ele>96.9</ele>
        <time>2019-07-07T08:27:26Z</time>
      </trkpt>
      <trkpt lat="43.68658" lon="3.82623">
        <ele>96.8</ele>
        <time>2019-07-07T08:27:27Z</time>
      </trkpt>
      <trkpt lat="43.68654" lon="3.82629">
        <ele>96.6</ele>
        <time>2019-07-07T08:27:28Z</time>
      </trkpt>
      <trkpt lat="43.68652" lon="3.82634">
        <ele>96.5</ele>
        <time>2019-07-07T08:27:29Z</time>
      </trkpt>
      <trkpt lat="43.68649" lon="3.82637">
        <ele>96.4</ele>
        <time>2019-07-07T08:27:30Z</time>
      </trkpt>
      <trkpt lat="43.68645" lon="3.8264">
        <ele>96.3</ele>
        <time>2019-07-07T08:27:31Z</time>
      </trkpt>
      <trkpt lat="43.68639" lon="3.82641">
        <ele>96.2</ele>
        <time>2019-07-07T08:27:32Z</time>
      </trkpt>
      <trkpt lat="43.68631" lon="3.82644">
        <ele>96</ele>
        <time>2019-07-07T08:27:33Z</time>
      </trkpt>
      <trkpt lat="43.68627" lon="3.82647">
        <ele>95.8</ele>
        <time>2019-07-07T08:27:34Z</time>
      </trkpt>
      <trkpt lat="43.68619" lon="3.82651">
        <ele>95.7</ele>
        <time>2019-07-07T08:27:35Z</time>
      </trkpt>
      <trkpt lat="43.68613" lon="3.82656">
        <ele>95.5</ele>
        <time>2019-07-07T08:27:36Z</time>
      </trkpt>
      <trkpt lat="43.68606" lon="3.82661">
        <ele>95.3</ele>
        <time>2019-07-07T08:27:37Z</time>
      </trkpt>
      <trkpt lat="43.68603" lon="3.82664">
        <ele>95.3</ele>
        <time>2019-07-07T08:27:38Z</time>
      </trkpt>
      <trkpt lat="43.68598" lon="3.8267">
        <ele>95.1</ele>
        <time>2019-07-07T08:27:39Z</time>
      </trkpt>
      <trkpt lat="43.68593" lon="3.82676">
        <ele>95</ele>
        <time>2019-07-07T08:27:41Z</time>
      </trkpt>
      <trkpt lat="43.68587" lon="3.8268">
        <ele>94.9</ele>
        <time>2019-07-07T08:27:42Z</time>
      </trkpt>
      <trkpt lat="43.68582" lon="3.82685">
        <ele>94.8</ele>
        <time>2019-07-07T08:27:43Z</time>
      </trkpt>
      <trkpt lat="43.68577" lon="3.82689">
        <ele>94.8</ele>
        <time>2019-07-07T08:27:44Z</time>
      </trkpt>
      <trkpt lat="43.68575" lon="3.82692">
        <ele>94.7</ele>
        <time>2019-07-07T08:27:45Z</time>
      </trkpt>
      <trkpt lat="43.68572" lon="3.82695">
        <ele>94.7</ele>
        <time>2019-07-07T08:27:46Z</time>
      </trkpt>
      <trkpt lat="43.68567" lon="3.827">
        <ele>94.7</ele>
        <time>2019-07-07T08:27:48Z</time>
      </trkpt>
      <trkpt lat="43.68566" lon="3.82704">
        <ele>94.8</ele>
        <time>2019-07-07T08:27:49Z</time>
      </trkpt>
      <trkpt lat="43.68563" lon="3.82707">
        <ele>94.9</ele>
        <time>2019-07-07T08:27:50Z</time>
      </trkpt>
      <trkpt lat="43.6856" lon="3.8271">
        <ele>95</ele>
        <time>2019-07-07T08:27:51Z</time>
      </trkpt>
      <trkpt lat="43.68562" lon="3.82716">
        <ele>95.1</ele>
        <time>2019-07-07T08:27:53Z</time>
      </trkpt>
      <trkpt lat="43.68567" lon="3.82723">
        <ele>95.3</ele>
        <time>2019-07-07T08:27:55Z</time>
      </trkpt>
      <trkpt lat="43.6857" lon="3.82729">
        <ele>95.4</ele>
        <time>2019-07-07T08:27:57Z</time>
      </trkpt>
      <trkpt lat="43.68573" lon="3.8273">
        <ele>95.5</ele>
        <time>2019-07-07T08:27:58Z</time>
      </trkpt>
      <trkpt lat="43.68576" lon="3.82733">
        <ele>95.5</ele>
        <time>2019-07-07T08:28:00Z</time>
      </trkpt>
      <trkpt lat="43.6858" lon="3.82735">
        <ele>95.6</ele>
        <time>2019-07-07T08:28:02Z</time>
      </trkpt>
      <trkpt lat="43.68585" lon="3.82739">
        <ele>95.6</ele>
        <time>2019-07-07T08:28:04Z</time>
      </trkpt>
      <trkpt lat="43.68588" lon="3.82743">
        <ele>95.7</ele>
        <time>2019-07-07T08:28:05Z</time>
      </trkpt>
      <trkpt lat="43.6859" lon="3.82746">
        <ele>95.7</ele>
        <time>2019-07-07T08:28:06Z</time>
      </trkpt>
      <trkpt lat="43.68592" lon="3.82752">
        <ele>95.7</ele>
        <time>2019-07-07T08:28:07Z</time>
      </trkpt>
      <trkpt lat="43.68594" lon="3.82755">
        <ele>95.7</ele>
        <time>2019-07-07T08:28:08Z</time>
      </trkpt>
      <trkpt lat="43.68594" lon="3.8276">
        <ele>95.7</ele>
        <time>2019-07-07T08:28:09Z</time>
      </trkpt>
      <trkpt lat="43.68594" lon="3.82765">
        <ele>95.7</ele>
        <time>2019-07-07T08:28:10Z</time>
      </trkpt>
      <trkpt lat="43.68594" lon="3.8277">
        <ele>95.7</ele>
        <time>2019-07-07T08:28:11Z</time>
      </trkpt>
      <trkpt lat="43.68593" lon="3.82775">
        <ele>95.8</ele>
        <time>2019-07-07T08:28:12Z</time>
      </trkpt>
      <trkpt lat="43.68591" lon="3.82782">
        <ele>95.9</ele>
        <time>2019-07-07T08:28:13Z</time>
      </trkpt>
      <trkpt lat="43.68591" lon="3.82786">
        <ele>96</ele>
        <time>2019-07-07T08:28:14Z</time>
      </trkpt>
      <trkpt lat="43.6859" lon="3.82792">
        <ele>96.2</ele>
        <time>2019-07-07T08:28:15Z</time>
      </trkpt>
      <trkpt lat="43.68589" lon="3.82797">
        <ele>96.4</ele>
        <time>2019-07-07T08:28:16Z</time>
      </trkpt>
      <trkpt lat="43.68588" lon="3.82801">
        <ele>96.5</ele>
        <time>2019-07-07T08:28:17Z</time>
      </trkpt>
      <trkpt lat="43.68589" lon="3.82808">
        <ele>96.7</ele>
        <time>2019-07-07T08:28:18Z</time>
      </trkpt>
      <trkpt lat="43.68587" lon="3.82812">
        <ele>97</ele>
        <time>2019-07-07T08:28:19Z</time>
      </trkpt>
      <trkpt lat="43.68587" lon="3.82819">
        <ele>97.2</ele>
        <time>2019-07-07T08:28:20Z</time>
      </trkpt>
      <trkpt lat="43.68584" lon="3.82825">
        <ele>97.5</ele>
        <time>2019-07-07T08:28:21Z</time>
      </trkpt>
      <trkpt lat="43.68583" lon="3.8283">
        <ele>97.7</ele>
        <time>2019-07-07T08:28:22Z</time>
      </trkpt>
      <trkpt lat="43.68585" lon="3.82835">
        <ele>97.9</ele>
        <time>2019-07-07T08:28:23Z</time>
      </trkpt>
      <trkpt lat="43.68588" lon="3.82839">
        <ele>98</ele>
        <time>2019-07-07T08:28:25Z</time>
      </trkpt>
      <trkpt lat="43.68588" lon="3.82844">
        <ele>98.2</ele>
        <time>2019-07-07T08:28:27Z</time>
      </trkpt>
      <trkpt lat="43.68586" lon="3.82852">
        <ele>98.4</ele>
        <time>2019-07-07T08:28:29Z</time>
      </trkpt>
      <trkpt lat="43.68583" lon="3.82856">
        <ele>98.6</ele>
        <time>2019-07-07T08:28:30Z</time>
      </trkpt>
      <trkpt lat="43.68581" lon="3.82859">
        <ele>98.7</ele>
        <time>2019-07-07T08:28:31Z</time>
      </trkpt>
      <trkpt lat="43.6858" lon="3.82863">
        <ele>98.8</ele>
        <time>2019-07-07T08:28:32Z</time>
      </trkpt>
      <trkpt lat="43.68579" lon="3.82867">
        <ele>98.9</ele>
        <time>2019-07-07T08:28:33Z</time>
      </trkpt>
      <trkpt lat="43.68578" lon="3.82874">
        <ele>99.1</ele>
        <time>2019-07-07T08:28:35Z</time>
      </trkpt>
      <trkpt lat="43.68577" lon="3.82877">
        <ele>99.2</ele>
        <time>2019-07-07T08:28:36Z</time>
      </trkpt>
      <trkpt lat="43.68569" lon="3.82879">
        <ele>99.5</ele>
        <time>2019-07-07T08:28:37Z</time>
      </trkpt>
      <trkpt lat="43.68564" lon="3.82882">
        <ele>99.4</ele>
        <time>2019-07-07T08:28:38Z</time>
      </trkpt>
      <trkpt lat="43.68558" lon="3.82886">
        <ele>99.3</ele>
        <time>2019-07-07T08:28:39Z</time>
      </trkpt>
      <trkpt lat="43.68553" lon="3.8289">
        <ele>99.2</ele>
        <time>2019-07-07T08:28:40Z</time>
      </trkpt>
      <trkpt lat="43.68547" lon="3.82894">
        <ele>98.8</ele>
        <time>2019-07-07T08:28:41Z</time>
      </trkpt>
      <trkpt lat="43.68541" lon="3.82898">
        <ele>98.4</ele>
        <time>2019-07-07T08:28:42Z</time>
      </trkpt>
      <trkpt lat="43.68535" lon="3.82901">
        <ele>98.2</ele>
        <time>2019-07-07T08:28:43Z</time>
      </trkpt>
      <trkpt lat="43.68531" lon="3.82905">
        <ele>97.9</ele>
        <time>2019-07-07T08:28:44Z</time>
      </trkpt>
      <trkpt lat="43.68525" lon="3.82909">
        <ele>97.7</ele>
        <time>2019-07-07T08:28:45Z</time>
      </trkpt>
      <trkpt lat="43.68521" lon="3.82912">
        <ele>97.6</ele>
        <time>2019-07-07T08:28:46Z</time>
      </trkpt>
      <trkpt lat="43.68515" lon="3.82914">
        <ele>97.4</ele>
        <time>2019-07-07T08:28:47Z</time>
      </trkpt>
      <trkpt lat="43.68511" lon="3.82914">
        <ele>97.2</ele>
        <time>2019-07-07T08:28:48Z</time>
      </trkpt>
      <trkpt lat="43.68507" lon="3.82917">
        <ele>97.1</ele>
        <time>2019-07-07T08:28:49Z</time>
      </trkpt>
      <trkpt lat="43.68502" lon="3.82922">
        <ele>96.9</ele>
        <time>2019-07-07T08:28:50Z</time>
      </trkpt>
      <trkpt lat="43.68497" lon="3.82926">
        <ele>96.7</ele>
        <time>2019-07-07T08:28:51Z</time>
      </trkpt>
      <trkpt lat="43.68491" lon="3.82928">
        <ele>96.6</ele>
        <time>2019-07-07T08:28:52Z</time>
      </trkpt>
      <trkpt lat="43.68483" lon="3.82932">
        <ele>96.3</ele>
        <time>2019-07-07T08:28:53Z</time>
      </trkpt>
      <trkpt lat="43.68479" lon="3.82935">
        <ele>96.2</ele>
        <time>2019-07-07T08:28:54Z</time>
      </trkpt>
      <trkpt lat="43.68476" lon="3.82935">
        <ele>96.1</ele>
        <time>2019-07-07T08:28:55Z</time>
      </trkpt>
      <trkpt lat="43.68472" lon="3.82931">
        <ele>95.9</ele>
        <time>2019-07-07T08:28:56Z</time>
      </trkpt>
      <trkpt lat="43.68469" lon="3.82932">
        <ele>95.8</ele>
        <time>2019-07-07T08:28:57Z</time>
      </trkpt>
      <trkpt lat="43.68467" lon="3.82935">
        <ele>95.7</ele>
        <time>2019-07-07T08:28:58Z</time>
      </trkpt>
      <trkpt lat="43.68463" lon="3.82936">
        <ele>95.6</ele>
        <time>2019-07-07T08:28:59Z</time>
      </trkpt>
      <trkpt lat="43.6846" lon="3.82937">
        <ele>95.5</ele>
        <time>2019-07-07T08:29:00Z</time>
      </trkpt>
      <trkpt lat="43.68458" lon="3.82941">
        <ele>95.4</ele>
        <time>2019-07-07T08:29:01Z</time>
      </trkpt>
      <trkpt lat="43.68455" lon="3.82943">
        <ele>95.3</ele>
        <time>2019-07-07T08:29:02Z</time>
      </trkpt>
      <trkpt lat="43.68453" lon="3.8295">
        <ele>95.2</ele>
        <time>2019-07-07T08:29:04Z</time>
      </trkpt>
      <trkpt lat="43.68449" lon="3.82952">
        <ele>95.1</ele>
        <time>2019-07-07T08:29:05Z</time>
      </trkpt>
      <trkpt lat="43.68447" lon="3.82957">
        <ele>95.1</ele>
        <time>2019-07-07T08:29:06Z</time>
      </trkpt>
      <trkpt lat="43.68443" lon="3.82962">
        <ele>95</ele>
        <time>2019-07-07T08:29:07Z</time>
      </trkpt>
      <trkpt lat="43.6844" lon="3.82965">
        <ele>95</ele>
        <time>2019-07-07T08:29:08Z</time>
      </trkpt>
      <trkpt lat="43.68436" lon="3.82971">
        <ele>95</ele>
        <time>2019-07-07T08:29:09Z</time>
      </trkpt>
      <trkpt lat="43.68433" lon="3.82976">
        <ele>95.1</ele>
        <time>2019-07-07T08:29:10Z</time>
      </trkpt>
      <trkpt lat="43.68429" lon="3.82981">
        <ele>95.1</ele>
        <time>2019-07-07T08:29:11Z</time>
      </trkpt>
      <trkpt lat="43.68426" lon="3.82985">
        <ele>95.1</ele>
        <time>2019-07-07T08:29:12Z</time>
      </trkpt>
      <trkpt lat="43.68421" lon="3.82989">
        <ele>95.2</ele>
        <time>2019-07-07T08:29:13Z</time>
      </trkpt>
      <trkpt lat="43.68419" lon="3.82994">
        <ele>95.2</ele>
        <time>2019-07-07T08:29:14Z</time>
      </trkpt>
      <trkpt lat="43.68416" lon="3.82999">
        <ele>95.3</ele>
        <time>2019-07-07T08:29:15Z</time>
      </trkpt>
      <trkpt lat="43.68414" lon="3.83003">
        <ele>95.3</ele>
        <time>2019-07-07T08:29:16Z</time>
      </trkpt>
      <trkpt lat="43.68412" lon="3.83007">
        <ele>95.3</ele>
        <time>2019-07-07T08:29:17Z</time>
      </trkpt>
      <trkpt lat="43.6841" lon="3.83011">
        <ele>95.3</ele>
        <time>2019-07-07T08:29:19Z</time>
      </trkpt>
      <trkpt lat="43.68408" lon="3.83017">
        <ele>95.2</ele>
        <time>2019-07-07T08:29:21Z</time>
      </trkpt>
      <trkpt lat="43.68408" lon="3.83027">
        <ele>95.1</ele>
        <time>2019-07-07T08:29:23Z</time>
      </trkpt>
      <trkpt lat="43.6841" lon="3.83032">
        <ele>95</ele>
        <time>2019-07-07T08:29:25Z</time>
      </trkpt>
      <trkpt lat="43.68411" lon="3.83039">
        <ele>94.8</ele>
        <time>2019-07-07T08:29:27Z</time>
      </trkpt>
      <trkpt lat="43.6841" lon="3.83043">
        <ele>94.6</ele>
        <time>2019-07-07T08:29:28Z</time>
      </trkpt>
      <trkpt lat="43.68405" lon="3.83048">
        <ele>94.2</ele>
        <time>2019-07-07T08:29:29Z</time>
      </trkpt>
      <trkpt lat="43.68402" lon="3.83053">
        <ele>94</ele>
        <time>2019-07-07T08:29:30Z</time>
      </trkpt>
      <trkpt lat="43.68402" lon="3.83059">
        <ele>93.7</ele>
        <time>2019-07-07T08:29:31Z</time>
      </trkpt>
      <trkpt lat="43.68401" lon="3.83067">
        <ele>93.3</ele>
        <time>2019-07-07T08:29:32Z</time>
      </trkpt>
      <trkpt lat="43.68398" lon="3.83076">
        <ele>92.8</ele>
        <time>2019-07-07T08:29:33Z</time>
      </trkpt>
      <trkpt lat="43.68394" lon="3.83084">
        <ele>92.4</ele>
        <time>2019-07-07T08:29:34Z</time>
      </trkpt>
      <trkpt lat="43.6839" lon="3.83092">
        <ele>92</ele>
        <time>2019-07-07T08:29:35Z</time>
      </trkpt>
      <trkpt lat="43.68384" lon="3.83101">
        <ele>91.5</ele>
        <time>2019-07-07T08:29:36Z</time>
      </trkpt>
      <trkpt lat="43.68382" lon="3.83109">
        <ele>91.3</ele>
        <time>2019-07-07T08:29:37Z</time>
      </trkpt>
      <trkpt lat="43.68381" lon="3.83115">
        <ele>91.2</ele>
        <time>2019-07-07T08:29:38Z</time>
      </trkpt>
      <trkpt lat="43.6838" lon="3.83121">
        <ele>91.1</ele>
        <time>2019-07-07T08:29:39Z</time>
      </trkpt>
      <trkpt lat="43.68381" lon="3.83127">
        <ele>91.1</ele>
        <time>2019-07-07T08:29:41Z</time>
      </trkpt>
      <trkpt lat="43.68379" lon="3.83136">
        <ele>91</ele>
        <time>2019-07-07T08:29:43Z</time>
      </trkpt>
      <trkpt lat="43.68378" lon="3.83142">
        <ele>90.9</ele>
        <time>2019-07-07T08:29:44Z</time>
      </trkpt>
      <trkpt lat="43.68374" lon="3.83148">
        <ele>90.8</ele>
        <time>2019-07-07T08:29:45Z</time>
      </trkpt>
      <trkpt lat="43.68374" lon="3.83155">
        <ele>90.8</ele>
        <time>2019-07-07T08:29:46Z</time>
      </trkpt>
      <trkpt lat="43.68371" lon="3.83162">
        <ele>90.7</ele>
        <time>2019-07-07T08:29:47Z</time>
      </trkpt>
      <trkpt lat="43.68369" lon="3.83169">
        <ele>90.6</ele>
        <time>2019-07-07T08:29:48Z</time>
      </trkpt>
      <trkpt lat="43.68368" lon="3.83174">
        <ele>90.6</ele>
        <time>2019-07-07T08:29:49Z</time>
      </trkpt>
      <trkpt lat="43.68365" lon="3.8318">
        <ele>90.6</ele>
        <time>2019-07-07T08:29:50Z</time>
      </trkpt>
      <trkpt lat="43.68363" lon="3.83185">
        <ele>90.5</ele>
        <time>2019-07-07T08:29:51Z</time>
      </trkpt>
      <trkpt lat="43.68363" lon="3.83192">
        <ele>90.5</ele>
        <time>2019-07-07T08:29:52Z</time>
      </trkpt>
      <trkpt lat="43.68366" lon="3.83199">
        <ele>90.5</ele>
        <time>2019-07-07T08:29:53Z</time>
      </trkpt>
      <trkpt lat="43.68365" lon="3.83207">
        <ele>90.5</ele>
        <time>2019-07-07T08:29:54Z</time>
      </trkpt>
      <trkpt lat="43.68364" lon="3.83215">
        <ele>90.5</ele>
        <time>2019-07-07T08:29:55Z</time>
      </trkpt>
      <trkpt lat="43.68359" lon="3.83223">
        <ele>90.5</ele>
        <time>2019-07-07T08:29:56Z</time>
      </trkpt>
      <trkpt lat="43.68358" lon="3.83231">
        <ele>90.5</ele>
        <time>2019-07-07T08:29:57Z</time>
      </trkpt>
      <trkpt lat="43.68356" lon="3.83238">
        <ele>90.5</ele>
        <time>2019-07-07T08:29:58Z</time>
      </trkpt>
      <trkpt lat="43.68353" lon="3.83248">
        <ele>90.5</ele>
        <time>2019-07-07T08:29:59Z</time>
      </trkpt>
      <trkpt lat="43.68351" lon="3.83256">
        <ele>90.5</ele>
        <time>2019-07-07T08:30:00Z</time>
      </trkpt>
      <trkpt lat="43.68347" lon="3.83264">
        <ele>90.5</ele>
        <time>2019-07-07T08:30:01Z</time>
      </trkpt>
      <trkpt lat="43.68344" lon="3.83271">
        <ele>90.5</ele>
        <time>2019-07-07T08:30:02Z</time>
      </trkpt>
      <trkpt lat="43.68341" lon="3.83279">
        <ele>90.5</ele>
        <time>2019-07-07T08:30:03Z</time>
      </trkpt>
      <trkpt lat="43.68338" lon="3.83288">
        <ele>90.4</ele>
        <time>2019-07-07T08:30:04Z</time>
      </trkpt>
      <trkpt lat="43.68336" lon="3.83298">
        <ele>90.3</ele>
        <time>2019-07-07T08:30:05Z</time>
      </trkpt>
      <trkpt lat="43.68333" lon="3.83304">
        <ele>90.2</ele>
        <time>2019-07-07T08:30:06Z</time>
      </trkpt>
      <trkpt lat="43.68328" lon="3.8331">
        <ele>90.2</ele>
        <time>2019-07-07T08:30:07Z</time>
      </trkpt>
      <trkpt lat="43.68326" lon="3.83316">
        <ele>90.1</ele>
        <time>2019-07-07T08:30:08Z</time>
      </trkpt>
      <trkpt lat="43.68322" lon="3.83321">
        <ele>90.1</ele>
        <time>2019-07-07T08:30:09Z</time>
      </trkpt>
      <trkpt lat="43.68323" lon="3.83327">
        <ele>90.1</ele>
        <time>2019-07-07T08:30:10Z</time>
      </trkpt>
      <trkpt lat="43.68321" lon="3.83332">
        <ele>90.1</ele>
        <time>2019-07-07T08:30:11Z</time>
      </trkpt>
      <trkpt lat="43.6832" lon="3.83339">
        <ele>90.2</ele>
        <time>2019-07-07T08:30:13Z</time>
      </trkpt>
      <trkpt lat="43.68314" lon="3.83342">
        <ele>90.2</ele>
        <time>2019-07-07T08:30:15Z</time>
      </trkpt>
      <trkpt lat="43.68311" lon="3.83346">
        <ele>90.3</ele>
        <time>2019-07-07T08:30:17Z</time>
      </trkpt>
      <trkpt lat="43.68308" lon="3.83345">
        <ele>90.3</ele>
        <time>2019-07-07T08:30:18Z</time>
      </trkpt>
      <trkpt lat="43.68303" lon="3.83346">
        <ele>90.4</ele>
        <time>2019-07-07T08:30:19Z</time>
      </trkpt>
      <trkpt lat="43.68299" lon="3.83344">
        <ele>90.5</ele>
        <time>2019-07-07T08:30:20Z</time>
      </trkpt>
      <trkpt lat="43.68295" lon="3.83344">
        <ele>90.5</ele>
        <time>2019-07-07T08:30:22Z</time>
      </trkpt>
      <trkpt lat="43.6829" lon="3.83345">
        <ele>90.8</ele>
        <time>2019-07-07T08:30:24Z</time>
      </trkpt>
      <trkpt lat="43.68287" lon="3.83343">
        <ele>90.9</ele>
        <time>2019-07-07T08:30:25Z</time>
      </trkpt>
      <trkpt lat="43.68284" lon="3.83338">
        <ele>91.1</ele>
        <time>2019-07-07T08:30:26Z</time>
      </trkpt>
      <trkpt lat="43.68281" lon="3.83335">
        <ele>91.2</ele>
        <time>2019-07-07T08:30:27Z</time>
      </trkpt>
      <trkpt lat="43.68278" lon="3.83331">
        <ele>91.4</ele>
        <time>2019-07-07T08:30:28Z</time>
      </trkpt>
      <trkpt lat="43.68276" lon="3.83325">
        <ele>91.5</ele>
        <time>2019-07-07T08:30:29Z</time>
      </trkpt>
      <trkpt lat="43.68272" lon="3.83319">
        <ele>91.7</ele>
        <time>2019-07-07T08:30:31Z</time>
      </trkpt>
      <trkpt lat="43.6827" lon="3.83318">
        <ele>91.8</ele>
        <time>2019-07-07T08:30:32Z</time>
      </trkpt>
      <trkpt lat="43.68266" lon="3.83321">
        <ele>92</ele>
        <time>2019-07-07T08:30:33Z</time>
      </trkpt>
      <trkpt lat="43.68263" lon="3.83319">
        <ele>92.4</ele>
        <time>2019-07-07T08:30:34Z</time>
      </trkpt>
      <trkpt lat="43.68261" lon="3.83323">
        <ele>92.4</ele>
        <time>2019-07-07T08:30:35Z</time>
      </trkpt>
      <trkpt lat="43.6826" lon="3.83329">
        <ele>92.3</ele>
        <time>2019-07-07T08:30:36Z</time>
      </trkpt>
      <trkpt lat="43.68257" lon="3.83335">
        <ele>92.3</ele>
        <time>2019-07-07T08:30:37Z</time>
      </trkpt>
      <trkpt lat="43.68256" lon="3.83339">
        <ele>92.3</ele>
        <time>2019-07-07T08:30:38Z</time>
      </trkpt>
      <trkpt lat="43.68252" lon="3.83344">
        <ele>92.3</ele>
        <time>2019-07-07T08:30:39Z</time>
      </trkpt>
      <trkpt lat="43.68248" lon="3.83349">
        <ele>92.3</ele>
        <time>2019-07-07T08:30:40Z</time>
      </trkpt>
      <trkpt lat="43.6824" lon="3.83353">
        <ele>92.3</ele>
        <time>2019-07-07T08:30:41Z</time>
      </trkpt>
      <trkpt lat="43.68234" lon="3.83357">
        <ele>92.2</ele>
        <time>2019-07-07T08:30:42Z</time>
      </trkpt>
      <trkpt lat="43.68229" lon="3.83362">
        <ele>92.2</ele>
        <time>2019-07-07T08:30:43Z</time>
      </trkpt>
      <trkpt lat="43.68224" lon="3.83367">
        <ele>92.1</ele>
        <time>2019-07-07T08:30:44Z</time>
      </trkpt>
      <trkpt lat="43.68218" lon="3.83372">
        <ele>92</ele>
        <time>2019-07-07T08:30:45Z</time>
      </trkpt>
      <trkpt lat="43.68212" lon="3.83377">
        <ele>91.9</ele>
        <time>2019-07-07T08:30:46Z</time>
      </trkpt>
      <trkpt lat="43.68207" lon="3.83382">
        <ele>91.8</ele>
        <time>2019-07-07T08:30:47Z</time>
      </trkpt>
      <trkpt lat="43.68203" lon="3.83388">
        <ele>91.7</ele>
        <time>2019-07-07T08:30:48Z</time>
      </trkpt>
      <trkpt lat="43.682" lon="3.83394">
        <ele>91.6</ele>
        <time>2019-07-07T08:30:49Z</time>
      </trkpt>
      <trkpt lat="43.68197" lon="3.83402">
        <ele>91.5</ele>
        <time>2019-07-07T08:30:50Z</time>
      </trkpt>
      <trkpt lat="43.68193" lon="3.83408">
        <ele>91.4</ele>
        <time>2019-07-07T08:30:51Z</time>
      </trkpt>
      <trkpt lat="43.6819" lon="3.83416">
        <ele>91.3</ele>
        <time>2019-07-07T08:30:52Z</time>
      </trkpt>
      <trkpt lat="43.68186" lon="3.83423">
        <ele>91.2</ele>
        <time>2019-07-07T08:30:53Z</time>
      </trkpt>
      <trkpt lat="43.68181" lon="3.8343">
        <ele>91</ele>
        <time>2019-07-07T08:30:54Z</time>
      </trkpt>
      <trkpt lat="43.68177" lon="3.83437">
        <ele>90.9</ele>
        <time>2019-07-07T08:30:55Z</time>
      </trkpt>
      <trkpt lat="43.68173" lon="3.83444">
        <ele>90.8</ele>
        <time>2019-07-07T08:30:56Z</time>
      </trkpt>
      <trkpt lat="43.6817" lon="3.83451">
        <ele>90.6</ele>
        <time>2019-07-07T08:30:57Z</time>
      </trkpt>
      <trkpt lat="43.68166" lon="3.83458">
        <ele>90.4</ele>
        <time>2019-07-07T08:30:58Z</time>
      </trkpt>
      <trkpt lat="43.68162" lon="3.83464">
        <ele>90.2</ele>
        <time>2019-07-07T08:30:59Z</time>
      </trkpt>
      <trkpt lat="43.68158" lon="3.8347">
        <ele>90.1</ele>
        <time>2019-07-07T08:31:00Z</time>
      </trkpt>
      <trkpt lat="43.68151" lon="3.83475">
        <ele>89.9</ele>
        <time>2019-07-07T08:31:01Z</time>
      </trkpt>
      <trkpt lat="43.68146" lon="3.83481">
        <ele>89.7</ele>
        <time>2019-07-07T08:31:02Z</time>
      </trkpt>
      <trkpt lat="43.68141" lon="3.83486">
        <ele>89.5</ele>
        <time>2019-07-07T08:31:03Z</time>
      </trkpt>
      <trkpt lat="43.68137" lon="3.83492">
        <ele>89.3</ele>
        <time>2019-07-07T08:31:04Z</time>
      </trkpt>
      <trkpt lat="43.68131" lon="3.83498">
        <ele>89.2</ele>
        <time>2019-07-07T08:31:05Z</time>
      </trkpt>
      <trkpt lat="43.68127" lon="3.83506">
        <ele>89.1</ele>
        <time>2019-07-07T08:31:06Z</time>
      </trkpt>
      <trkpt lat="43.68122" lon="3.83513">
        <ele>89</ele>
        <time>2019-07-07T08:31:07Z</time>
      </trkpt>
      <trkpt lat="43.68119" lon="3.8352">
        <ele>89</ele>
        <time>2019-07-07T08:31:08Z</time>
      </trkpt>
      <trkpt lat="43.68114" lon="3.83528">
        <ele>89</ele>
        <time>2019-07-07T08:31:09Z</time>
      </trkpt>
      <trkpt lat="43.68109" lon="3.83535">
        <ele>89</ele>
        <time>2019-07-07T08:31:10Z</time>
      </trkpt>
      <trkpt lat="43.68104" lon="3.83542">
        <ele>88.9</ele>
        <time>2019-07-07T08:31:11Z</time>
      </trkpt>
      <trkpt lat="43.68097" lon="3.83549">
        <ele>88.9</ele>
        <time>2019-07-07T08:31:12Z</time>
      </trkpt>
      <trkpt lat="43.68092" lon="3.83555">
        <ele>88.9</ele>
        <time>2019-07-07T08:31:13Z</time>
      </trkpt>
      <trkpt lat="43.68086" lon="3.83559">
        <ele>88.9</ele>
        <time>2019-07-07T08:31:14Z</time>
      </trkpt>
      <trkpt lat="43.68081" lon="3.83565">
        <ele>88.9</ele>
        <time>2019-07-07T08:31:15Z</time>
      </trkpt>
      <trkpt lat="43.68075" lon="3.8357">
        <ele>88.8</ele>
        <time>2019-07-07T08:31:16Z</time>
      </trkpt>
      <trkpt lat="43.68069" lon="3.83576">
        <ele>88.8</ele>
        <time>2019-07-07T08:31:17Z</time>
      </trkpt>
      <trkpt lat="43.68064" lon="3.83581">
        <ele>88.7</ele>
        <time>2019-07-07T08:31:18Z</time>
      </trkpt>
      <trkpt lat="43.68059" lon="3.83587">
        <ele>88.7</ele>
        <time>2019-07-07T08:31:19Z</time>
      </trkpt>
      <trkpt lat="43.68054" lon="3.83592">
        <ele>88.6</ele>
        <time>2019-07-07T08:31:20Z</time>
      </trkpt>
      <trkpt lat="43.68048" lon="3.83598">
        <ele>88.6</ele>
        <time>2019-07-07T08:31:21Z</time>
      </trkpt>
      <trkpt lat="43.68043" lon="3.83604">
        <ele>88.5</ele>
        <time>2019-07-07T08:31:22Z</time>
      </trkpt>
      <trkpt lat="43.68038" lon="3.8361">
        <ele>88.4</ele>
        <time>2019-07-07T08:31:23Z</time>
      </trkpt>
      <trkpt lat="43.68033" lon="3.83615">
        <ele>88.4</ele>
        <time>2019-07-07T08:31:24Z</time>
      </trkpt>
      <trkpt lat="43.68028" lon="3.83621">
        <ele>88.3</ele>
        <time>2019-07-07T08:31:25Z</time>
      </trkpt>
      <trkpt lat="43.68022" lon="3.83627">
        <ele>88.3</ele>
        <time>2019-07-07T08:31:26Z</time>
      </trkpt>
      <trkpt lat="43.68018" lon="3.83634">
        <ele>88.2</ele>
        <time>2019-07-07T08:31:27Z</time>
      </trkpt>
      <trkpt lat="43.68013" lon="3.8364">
        <ele>88.2</ele>
        <time>2019-07-07T08:31:28Z</time>
      </trkpt>
      <trkpt lat="43.68007" lon="3.83647">
        <ele>88.1</ele>
        <time>2019-07-07T08:31:29Z</time>
      </trkpt>
      <trkpt lat="43.68" lon="3.83653">
        <ele>88.1</ele>
        <time>2019-07-07T08:31:30Z</time>
      </trkpt>
      <trkpt lat="43.67994" lon="3.83659">
        <ele>88</ele>
        <time>2019-07-07T08:31:31Z</time>
      </trkpt>
      <trkpt lat="43.67989" lon="3.83666">
        <ele>87.9</ele>
        <time>2019-07-07T08:31:32Z</time>
      </trkpt>
      <trkpt lat="43.67987" lon="3.8367">
        <ele>87.9</ele>
        <time>2019-07-07T08:31:33Z</time>
      </trkpt>
      <trkpt lat="43.67981" lon="3.83678">
        <ele>87.8</ele>
        <time>2019-07-07T08:31:34Z</time>
      </trkpt>
      <trkpt lat="43.67978" lon="3.83684">
        <ele>87.7</ele>
        <time>2019-07-07T08:31:35Z</time>
      </trkpt>
      <trkpt lat="43.67975" lon="3.83691">
        <ele>87.6</ele>
        <time>2019-07-07T08:31:36Z</time>
      </trkpt>
      <trkpt lat="43.67971" lon="3.83698">
        <ele>87.6</ele>
        <time>2019-07-07T08:31:37Z</time>
      </trkpt>
      <trkpt lat="43.67966" lon="3.83703">
        <ele>87.6</ele>
        <time>2019-07-07T08:31:38Z</time>
      </trkpt>
      <trkpt lat="43.6796" lon="3.83706">
        <ele>87.6</ele>
        <time>2019-07-07T08:31:39Z</time>
      </trkpt>
      <trkpt lat="43.67955" lon="3.8371">
        <ele>87.5</ele>
        <time>2019-07-07T08:31:40Z</time>
      </trkpt>
      <trkpt lat="43.6795" lon="3.83714">
        <ele>87.5</ele>
        <time>2019-07-07T08:31:41Z</time>
      </trkpt>
      <trkpt lat="43.67946" lon="3.83721">
        <ele>87.4</ele>
        <time>2019-07-07T08:31:42Z</time>
      </trkpt>
      <trkpt lat="43.67941" lon="3.83727">
        <ele>87.4</ele>
        <time>2019-07-07T08:31:43Z</time>
      </trkpt>
      <trkpt lat="43.67936" lon="3.83732">
        <ele>87.4</ele>
        <time>2019-07-07T08:31:44Z</time>
      </trkpt>
      <trkpt lat="43.67931" lon="3.83738">
        <ele>87.4</ele>
        <time>2019-07-07T08:31:45Z</time>
      </trkpt>
      <trkpt lat="43.67926" lon="3.83742">
        <ele>87.3</ele>
        <time>2019-07-07T08:31:46Z</time>
      </trkpt>
      <trkpt lat="43.67921" lon="3.83745">
        <ele>87.3</ele>
        <time>2019-07-07T08:31:47Z</time>
      </trkpt>
      <trkpt lat="43.67914" lon="3.83749">
        <ele>87.3</ele>
        <time>2019-07-07T08:31:48Z</time>
      </trkpt>
      <trkpt lat="43.67909" lon="3.83754">
        <ele>87.3</ele>
        <time>2019-07-07T08:31:49Z</time>
      </trkpt>
      <trkpt lat="43.67903" lon="3.83758">
        <ele>87.3</ele>
        <time>2019-07-07T08:31:50Z</time>
      </trkpt>
      <trkpt lat="43.67897" lon="3.83762">
        <ele>87.2</ele>
        <time>2019-07-07T08:31:51Z</time>
      </trkpt>
      <trkpt lat="43.67893" lon="3.83766">
        <ele>87.2</ele>
        <time>2019-07-07T08:31:52Z</time>
      </trkpt>
      <trkpt lat="43.67887" lon="3.8377">
        <ele>87.2</ele>
        <time>2019-07-07T08:31:53Z</time>
      </trkpt>
      <trkpt lat="43.67882" lon="3.83773">
        <ele>87.1</ele>
        <time>2019-07-07T08:31:54Z</time>
      </trkpt>
      <trkpt lat="43.67874" lon="3.83775">
        <ele>87</ele>
        <time>2019-07-07T08:31:55Z</time>
      </trkpt>
      <trkpt lat="43.67868" lon="3.8378">
        <ele>86.9</ele>
        <time>2019-07-07T08:31:56Z</time>
      </trkpt>
      <trkpt lat="43.67865" lon="3.83784">
        <ele>86.8</ele>
        <time>2019-07-07T08:31:57Z</time>
      </trkpt>
      <trkpt lat="43.6786" lon="3.83788">
        <ele>86.7</ele>
        <time>2019-07-07T08:31:58Z</time>
      </trkpt>
      <trkpt lat="43.67854" lon="3.83792">
        <ele>86.5</ele>
        <time>2019-07-07T08:31:59Z</time>
      </trkpt>
      <trkpt lat="43.67851" lon="3.83796">
        <ele>86.4</ele>
        <time>2019-07-07T08:32:00Z</time>
      </trkpt>
      <trkpt lat="43.67846" lon="3.83796">
        <ele>86.3</ele>
        <time>2019-07-07T08:32:01Z</time>
      </trkpt>
      <trkpt lat="43.67842" lon="3.83799">
        <ele>86.2</ele>
        <time>2019-07-07T08:32:02Z</time>
      </trkpt>
      <trkpt lat="43.67838" lon="3.83802">
        <ele>86.1</ele>
        <time>2019-07-07T08:32:03Z</time>
      </trkpt>
      <trkpt lat="43.67833" lon="3.83805">
        <ele>85.9</ele>
        <time>2019-07-07T08:32:04Z</time>
      </trkpt>
      <trkpt lat="43.67825" lon="3.8381">
        <ele>85.7</ele>
        <time>2019-07-07T08:32:05Z</time>
      </trkpt>
      <trkpt lat="43.67821" lon="3.83816">
        <ele>85.4</ele>
        <time>2019-07-07T08:32:07Z</time>
      </trkpt>
      <trkpt lat="43.67818" lon="3.83823">
        <ele>85.2</ele>
        <time>2019-07-07T08:32:08Z</time>
      </trkpt>
      <trkpt lat="43.67817" lon="3.83831">
        <ele>84.4</ele>
        <time>2019-07-07T08:32:09Z</time>
      </trkpt>
      <trkpt lat="43.67815" lon="3.83838">
        <ele>84</ele>
        <time>2019-07-07T08:32:10Z</time>
      </trkpt>
      <trkpt lat="43.67813" lon="3.83844">
        <ele>83.7</ele>
        <time>2019-07-07T08:32:11Z</time>
      </trkpt>
      <trkpt lat="43.67811" lon="3.8385">
        <ele>83.3</ele>
        <time>2019-07-07T08:32:12Z</time>
      </trkpt>
      <trkpt lat="43.67808" lon="3.83856">
        <ele>82.9</ele>
        <time>2019-07-07T08:32:13Z</time>
      </trkpt>
      <trkpt lat="43.67806" lon="3.83863">
        <ele>82.6</ele>
        <time>2019-07-07T08:32:14Z</time>
      </trkpt>
      <trkpt lat="43.67804" lon="3.8387">
        <ele>82.4</ele>
        <time>2019-07-07T08:32:15Z</time>
      </trkpt>
      <trkpt lat="43.67802" lon="3.83877">
        <ele>82.2</ele>
        <time>2019-07-07T08:32:16Z</time>
      </trkpt>
      <trkpt lat="43.67795" lon="3.83882">
        <ele>82.1</ele>
        <time>2019-07-07T08:32:17Z</time>
      </trkpt>
      <trkpt lat="43.6779" lon="3.83887">
        <ele>82</ele>
        <time>2019-07-07T08:32:18Z</time>
      </trkpt>
      <trkpt lat="43.67784" lon="3.83888">
        <ele>82</ele>
        <time>2019-07-07T08:32:19Z</time>
      </trkpt>
      <trkpt lat="43.67778" lon="3.83892">
        <ele>81.8</ele>
        <time>2019-07-07T08:32:20Z</time>
      </trkpt>
      <trkpt lat="43.67773" lon="3.83894">
        <ele>81.7</ele>
        <time>2019-07-07T08:32:21Z</time>
      </trkpt>
      <trkpt lat="43.67768" lon="3.83899">
        <ele>81.6</ele>
        <time>2019-07-07T08:32:22Z</time>
      </trkpt>
      <trkpt lat="43.67763" lon="3.83905">
        <ele>81.3</ele>
        <time>2019-07-07T08:32:23Z</time>
      </trkpt>
      <trkpt lat="43.67758" lon="3.83911">
        <ele>81</ele>
        <time>2019-07-07T08:32:24Z</time>
      </trkpt>
      <trkpt lat="43.67754" lon="3.83917">
        <ele>80.8</ele>
        <time>2019-07-07T08:32:25Z</time>
      </trkpt>
      <trkpt lat="43.67748" lon="3.83924">
        <ele>80.6</ele>
        <time>2019-07-07T08:32:26Z</time>
      </trkpt>
      <trkpt lat="43.67745" lon="3.8393">
        <ele>80.5</ele>
        <time>2019-07-07T08:32:27Z</time>
      </trkpt>
      <trkpt lat="43.67741" lon="3.83937">
        <ele>80.3</ele>
        <time>2019-07-07T08:32:28Z</time>
      </trkpt>
      <trkpt lat="43.67738" lon="3.83944">
        <ele>80.2</ele>
        <time>2019-07-07T08:32:29Z</time>
      </trkpt>
      <trkpt lat="43.67736" lon="3.83953">
        <ele>80.4</ele>
        <time>2019-07-07T08:32:30Z</time>
      </trkpt>
      <trkpt lat="43.67735" lon="3.83962">
        <ele>80.5</ele>
        <time>2019-07-07T08:32:31Z</time>
      </trkpt>
      <trkpt lat="43.67735" lon="3.83971">
        <ele>81</ele>
        <time>2019-07-07T08:32:32Z</time>
      </trkpt>
      <trkpt lat="43.67739" lon="3.83978">
        <ele>81.6</ele>
        <time>2019-07-07T08:32:33Z</time>
      </trkpt>
      <trkpt lat="43.67741" lon="3.83986">
        <ele>82.1</ele>
        <time>2019-07-07T08:32:34Z</time>
      </trkpt>
      <trkpt lat="43.67743" lon="3.83992">
        <ele>82.5</ele>
        <time>2019-07-07T08:32:35Z</time>
      </trkpt>
      <trkpt lat="43.67744" lon="3.83998">
        <ele>82.8</ele>
        <time>2019-07-07T08:32:36Z</time>
      </trkpt>
      <trkpt lat="43.67745" lon="3.84004">
        <ele>83.3</ele>
        <time>2019-07-07T08:32:37Z</time>
      </trkpt>
      <trkpt lat="43.67745" lon="3.84009">
        <ele>83.6</ele>
        <time>2019-07-07T08:32:38Z</time>
      </trkpt>
      <trkpt lat="43.67746" lon="3.84013">
        <ele>83.8</ele>
        <time>2019-07-07T08:32:39Z</time>
      </trkpt>
      <trkpt lat="43.67748" lon="3.84017">
        <ele>84.1</ele>
        <time>2019-07-07T08:32:40Z</time>
      </trkpt>
      <trkpt lat="43.67747" lon="3.84023">
        <ele>84.4</ele>
        <time>2019-07-07T08:32:41Z</time>
      </trkpt>
      <trkpt lat="43.67749" lon="3.84027">
        <ele>84.7</ele>
        <time>2019-07-07T08:32:42Z</time>
      </trkpt>
      <trkpt lat="43.6775" lon="3.84031">
        <ele>84.9</ele>
        <time>2019-07-07T08:32:43Z</time>
      </trkpt>
      <trkpt lat="43.67751" lon="3.84035">
        <ele>85.2</ele>
        <time>2019-07-07T08:32:44Z</time>
      </trkpt>
      <trkpt lat="43.67752" lon="3.84041">
        <ele>85.4</ele>
        <time>2019-07-07T08:32:46Z</time>
      </trkpt>
      <trkpt lat="43.67749" lon="3.8405">
        <ele>85.8</ele>
        <time>2019-07-07T08:32:48Z</time>
      </trkpt>
      <trkpt lat="43.67747" lon="3.84056">
        <ele>86</ele>
        <time>2019-07-07T08:32:50Z</time>
      </trkpt>
      <trkpt lat="43.67738" lon="3.84059">
        <ele>85.7</ele>
        <time>2019-07-07T08:32:52Z</time>
      </trkpt>
      <trkpt lat="43.67733" lon="3.84061">
        <ele>85.6</ele>
        <time>2019-07-07T08:32:53Z</time>
      </trkpt>
      <trkpt lat="43.67728" lon="3.84062">
        <ele>85.5</ele>
        <time>2019-07-07T08:32:54Z</time>
      </trkpt>
      <trkpt lat="43.67725" lon="3.84065">
        <ele>85.4</ele>
        <time>2019-07-07T08:32:55Z</time>
      </trkpt>
      <trkpt lat="43.67721" lon="3.84067">
        <ele>85.3</ele>
        <time>2019-07-07T08:32:56Z</time>
      </trkpt>
      <trkpt lat="43.67717" lon="3.84069">
        <ele>85.1</ele>
        <time>2019-07-07T08:32:57Z</time>
      </trkpt>
      <trkpt lat="43.67712" lon="3.84071">
        <ele>85</ele>
        <time>2019-07-07T08:32:58Z</time>
      </trkpt>
      <trkpt lat="43.67708" lon="3.84072">
        <ele>84.8</ele>
        <time>2019-07-07T08:32:59Z</time>
      </trkpt>
      <trkpt lat="43.67703" lon="3.84075">
        <ele>84.6</ele>
        <time>2019-07-07T08:33:00Z</time>
      </trkpt>
      <trkpt lat="43.67699" lon="3.84078">
        <ele>84.5</ele>
        <time>2019-07-07T08:33:01Z</time>
      </trkpt>
      <trkpt lat="43.67697" lon="3.84083">
        <ele>84.4</ele>
        <time>2019-07-07T08:33:02Z</time>
      </trkpt>
      <trkpt lat="43.67693" lon="3.84086">
        <ele>84.3</ele>
        <time>2019-07-07T08:33:03Z</time>
      </trkpt>
      <trkpt lat="43.67691" lon="3.84088">
        <ele>84.3</ele>
        <time>2019-07-07T08:33:05Z</time>
      </trkpt>
      <trkpt lat="43.67686" lon="3.84093">
        <ele>84.2</ele>
        <time>2019-07-07T08:33:07Z</time>
      </trkpt>
      <trkpt lat="43.67685" lon="3.84097">
        <ele>84.2</ele>
        <time>2019-07-07T08:33:08Z</time>
      </trkpt>
      <trkpt lat="43.67682" lon="3.84101">
        <ele>84.2</ele>
        <time>2019-07-07T08:33:09Z</time>
      </trkpt>
      <trkpt lat="43.6768" lon="3.84105">
        <ele>84.2</ele>
        <time>2019-07-07T08:33:10Z</time>
      </trkpt>
      <trkpt lat="43.67674" lon="3.8411">
        <ele>84.3</ele>
        <time>2019-07-07T08:33:12Z</time>
      </trkpt>
      <trkpt lat="43.6767" lon="3.84114">
        <ele>84.3</ele>
        <time>2019-07-07T08:33:13Z</time>
      </trkpt>
      <trkpt lat="43.67669" lon="3.84118">
        <ele>84.4</ele>
        <time>2019-07-07T08:33:14Z</time>
      </trkpt>
      <trkpt lat="43.67666" lon="3.84121">
        <ele>84.5</ele>
        <time>2019-07-07T08:33:15Z</time>
      </trkpt>
      <trkpt lat="43.67663" lon="3.84127">
        <ele>84.6</ele>
        <time>2019-07-07T08:33:17Z</time>
      </trkpt>
      <trkpt lat="43.67659" lon="3.84129">
        <ele>84.8</ele>
        <time>2019-07-07T08:33:18Z</time>
      </trkpt>
      <trkpt lat="43.67656" lon="3.84134">
        <ele>85</ele>
        <time>2019-07-07T08:33:19Z</time>
      </trkpt>
      <trkpt lat="43.67655" lon="3.84138">
        <ele>85.1</ele>
        <time>2019-07-07T08:33:20Z</time>
      </trkpt>
      <trkpt lat="43.67653" lon="3.84141">
        <ele>85.2</ele>
        <time>2019-07-07T08:33:21Z</time>
      </trkpt>
      <trkpt lat="43.67651" lon="3.84144">
        <ele>85.3</ele>
        <time>2019-07-07T08:33:22Z</time>
      </trkpt>
      <trkpt lat="43.6765" lon="3.8415">
        <ele>85.5</ele>
        <time>2019-07-07T08:33:24Z</time>
      </trkpt>
      <trkpt lat="43.67649" lon="3.84157">
        <ele>85.7</ele>
        <time>2019-07-07T08:33:26Z</time>
      </trkpt>
      <trkpt lat="43.67644" lon="3.8416">
        <ele>85.9</ele>
        <time>2019-07-07T08:33:27Z</time>
      </trkpt>
      <trkpt lat="43.67644" lon="3.84165">
        <ele>86</ele>
        <time>2019-07-07T08:33:29Z</time>
      </trkpt>
      <trkpt lat="43.67641" lon="3.84166">
        <ele>86.1</ele>
        <time>2019-07-07T08:33:30Z</time>
      </trkpt>
      <trkpt lat="43.6764" lon="3.84173">
        <ele>86.2</ele>
        <time>2019-07-07T08:33:32Z</time>
      </trkpt>
      <trkpt lat="43.67639" lon="3.84177">
        <ele>86.2</ele>
        <time>2019-07-07T08:33:33Z</time>
      </trkpt>
      <trkpt lat="43.67639" lon="3.84181">
        <ele>86.2</ele>
        <time>2019-07-07T08:33:34Z</time>
      </trkpt>
      <trkpt lat="43.6764" lon="3.84186">
        <ele>86.2</ele>
        <time>2019-07-07T08:33:36Z</time>
      </trkpt>
      <trkpt lat="43.67638" lon="3.84189">
        <ele>86.4</ele>
        <time>2019-07-07T08:33:37Z</time>
      </trkpt>
      <trkpt lat="43.67634" lon="3.84192">
        <ele>86.5</ele>
        <time>2019-07-07T08:33:38Z</time>
      </trkpt>
      <trkpt lat="43.67633" lon="3.84196">
        <ele>86.7</ele>
        <time>2019-07-07T08:33:39Z</time>
      </trkpt>
      <trkpt lat="43.6763" lon="3.842">
        <ele>86.9</ele>
        <time>2019-07-07T08:33:40Z</time>
      </trkpt>
      <trkpt lat="43.67631" lon="3.84204">
        <ele>87</ele>
        <time>2019-07-07T08:33:41Z</time>
      </trkpt>
      <trkpt lat="43.67633" lon="3.84209">
        <ele>87.2</ele>
        <time>2019-07-07T08:33:42Z</time>
      </trkpt>
      <trkpt lat="43.6763" lon="3.84216">
        <ele>87.9</ele>
        <time>2019-07-07T08:33:44Z</time>
      </trkpt>
      <trkpt lat="43.67624" lon="3.84222">
        <ele>88.1</ele>
        <time>2019-07-07T08:33:46Z</time>
      </trkpt>
      <trkpt lat="43.67622" lon="3.84225">
        <ele>88.1</ele>
        <time>2019-07-07T08:33:47Z</time>
      </trkpt>
      <trkpt lat="43.6762" lon="3.8423">
        <ele>88.2</ele>
        <time>2019-07-07T08:33:48Z</time>
      </trkpt>
      <trkpt lat="43.67618" lon="3.84233">
        <ele>88.3</ele>
        <time>2019-07-07T08:33:49Z</time>
      </trkpt>
      <trkpt lat="43.67617" lon="3.84236">
        <ele>88.4</ele>
        <time>2019-07-07T08:33:50Z</time>
      </trkpt>
      <trkpt lat="43.67611" lon="3.8424">
        <ele>88.7</ele>
        <time>2019-07-07T08:33:51Z</time>
      </trkpt>
      <trkpt lat="43.67608" lon="3.84243">
        <ele>88.9</ele>
        <time>2019-07-07T08:33:52Z</time>
      </trkpt>
      <trkpt lat="43.67606" lon="3.84247">
        <ele>89</ele>
        <time>2019-07-07T08:33:53Z</time>
      </trkpt>
      <trkpt lat="43.67604" lon="3.84252">
        <ele>89.2</ele>
        <time>2019-07-07T08:33:55Z</time>
      </trkpt>
      <trkpt lat="43.67603" lon="3.84255">
        <ele>89.3</ele>
        <time>2019-07-07T08:33:56Z</time>
      </trkpt>
      <trkpt lat="43.67602" lon="3.84259">
        <ele>89.5</ele>
        <time>2019-07-07T08:33:57Z</time>
      </trkpt>
      <trkpt lat="43.676" lon="3.84266">
        <ele>89.7</ele>
        <time>2019-07-07T08:33:59Z</time>
      </trkpt>
      <trkpt lat="43.67598" lon="3.84273">
        <ele>89.9</ele>
        <time>2019-07-07T08:34:01Z</time>
      </trkpt>
      <trkpt lat="43.67595" lon="3.84278">
        <ele>90.1</ele>
        <time>2019-07-07T08:34:02Z</time>
      </trkpt>
      <trkpt lat="43.67592" lon="3.84284">
        <ele>90.3</ele>
        <time>2019-07-07T08:34:04Z</time>
      </trkpt>
      <trkpt lat="43.67591" lon="3.84288">
        <ele>90.4</ele>
        <time>2019-07-07T08:34:05Z</time>
      </trkpt>
      <trkpt lat="43.67587" lon="3.84294">
        <ele>90.6</ele>
        <time>2019-07-07T08:34:06Z</time>
      </trkpt>
      <trkpt lat="43.67586" lon="3.84299">
        <ele>90.8</ele>
        <time>2019-07-07T08:34:07Z</time>
      </trkpt>
      <trkpt lat="43.67584" lon="3.84304">
        <ele>91</ele>
        <time>2019-07-07T08:34:08Z</time>
      </trkpt>
      <trkpt lat="43.67582" lon="3.84307">
        <ele>91.1</ele>
        <time>2019-07-07T08:34:09Z</time>
      </trkpt>
      <trkpt lat="43.67579" lon="3.84312">
        <ele>91.3</ele>
        <time>2019-07-07T08:34:10Z</time>
      </trkpt>
      <trkpt lat="43.67577" lon="3.84316">
        <ele>91.5</ele>
        <time>2019-07-07T08:34:11Z</time>
      </trkpt>
      <trkpt lat="43.67575" lon="3.84321">
        <ele>91.9</ele>
        <time>2019-07-07T08:34:12Z</time>
      </trkpt>
      <trkpt lat="43.67573" lon="3.84326">
        <ele>92.2</ele>
        <time>2019-07-07T08:34:13Z</time>
      </trkpt>
      <trkpt lat="43.67575" lon="3.8433">
        <ele>92.5</ele>
        <time>2019-07-07T08:34:14Z</time>
      </trkpt>
      <trkpt lat="43.67574" lon="3.84334">
        <ele>92.7</ele>
        <time>2019-07-07T08:34:15Z</time>
      </trkpt>
      <trkpt lat="43.67571" lon="3.8434">
        <ele>93.1</ele>
        <time>2019-07-07T08:34:16Z</time>
      </trkpt>
      <trkpt lat="43.67568" lon="3.84346">
        <ele>93.5</ele>
        <time>2019-07-07T08:34:17Z</time>
      </trkpt>
      <trkpt lat="43.67565" lon="3.84351">
        <ele>93.9</ele>
        <time>2019-07-07T08:34:18Z</time>
      </trkpt>
      <trkpt lat="43.67564" lon="3.84357">
        <ele>94.2</ele>
        <time>2019-07-07T08:34:19Z</time>
      </trkpt>
      <trkpt lat="43.67562" lon="3.84362">
        <ele>94.5</ele>
        <time>2019-07-07T08:34:20Z</time>
      </trkpt>
      <trkpt lat="43.6756" lon="3.84367">
        <ele>94.6</ele>
        <time>2019-07-07T08:34:21Z</time>
      </trkpt>
      <trkpt lat="43.67558" lon="3.84373">
        <ele>94.7</ele>
        <time>2019-07-07T08:34:22Z</time>
      </trkpt>
      <trkpt lat="43.6756" lon="3.84379">
        <ele>94.8</ele>
        <time>2019-07-07T08:34:23Z</time>
      </trkpt>
      <trkpt lat="43.67558" lon="3.84383">
        <ele>94.8</ele>
        <time>2019-07-07T08:34:24Z</time>
      </trkpt>
      <trkpt lat="43.67558" lon="3.84388">
        <ele>94.8</ele>
        <time>2019-07-07T08:34:25Z</time>
      </trkpt>
      <trkpt lat="43.67557" lon="3.84393">
        <ele>94.8</ele>
        <time>2019-07-07T08:34:26Z</time>
      </trkpt>
      <trkpt lat="43.67556" lon="3.84398">
        <ele>94.8</ele>
        <time>2019-07-07T08:34:27Z</time>
      </trkpt>
      <trkpt lat="43.67551" lon="3.84401">
        <ele>94.8</ele>
        <time>2019-07-07T08:34:28Z</time>
      </trkpt>
      <trkpt lat="43.67549" lon="3.84407">
        <ele>94.8</ele>
        <time>2019-07-07T08:34:29Z</time>
      </trkpt>
      <trkpt lat="43.67549" lon="3.84411">
        <ele>94.8</ele>
        <time>2019-07-07T08:34:30Z</time>
      </trkpt>
      <trkpt lat="43.67548" lon="3.84415">
        <ele>94.8</ele>
        <time>2019-07-07T08:34:31Z</time>
      </trkpt>
      <trkpt lat="43.6755" lon="3.84418">
        <ele>94.8</ele>
        <time>2019-07-07T08:34:33Z</time>
      </trkpt>
      <trkpt lat="43.67543" lon="3.84421">
        <ele>94.8</ele>
        <time>2019-07-07T08:34:36Z</time>
      </trkpt>
      <trkpt lat="43.6754" lon="3.84424">
        <ele>94.7</ele>
        <time>2019-07-07T08:34:38Z</time>
      </trkpt>
      <trkpt lat="43.67537" lon="3.8443">
        <ele>94.6</ele>
        <time>2019-07-07T08:34:40Z</time>
      </trkpt>
      <trkpt lat="43.67533" lon="3.84437">
        <ele>94.6</ele>
        <time>2019-07-07T08:34:42Z</time>
      </trkpt>
      <trkpt lat="43.6753" lon="3.8444">
        <ele>94.5</ele>
        <time>2019-07-07T08:34:43Z</time>
      </trkpt>
      <trkpt lat="43.67528" lon="3.84444">
        <ele>94.5</ele>
        <time>2019-07-07T08:34:44Z</time>
      </trkpt>
      <trkpt lat="43.67526" lon="3.84448">
        <ele>94.5</ele>
        <time>2019-07-07T08:34:45Z</time>
      </trkpt>
      <trkpt lat="43.67525" lon="3.84453">
        <ele>94.4</ele>
        <time>2019-07-07T08:34:46Z</time>
      </trkpt>
      <trkpt lat="43.67523" lon="3.84458">
        <ele>94.4</ele>
        <time>2019-07-07T08:34:47Z</time>
      </trkpt>
      <trkpt lat="43.67521" lon="3.84463">
        <ele>93.6</ele>
        <time>2019-07-07T08:34:48Z</time>
      </trkpt>
      <trkpt lat="43.67519" lon="3.84468">
        <ele>93.4</ele>
        <time>2019-07-07T08:34:49Z</time>
      </trkpt>
      <trkpt lat="43.67516" lon="3.84473">
        <ele>93.2</ele>
        <time>2019-07-07T08:34:50Z</time>
      </trkpt>
      <trkpt lat="43.67512" lon="3.84478">
        <ele>93</ele>
        <time>2019-07-07T08:34:51Z</time>
      </trkpt>
      <trkpt lat="43.67508" lon="3.84482">
        <ele>92.8</ele>
        <time>2019-07-07T08:34:52Z</time>
      </trkpt>
      <trkpt lat="43.67505" lon="3.84486">
        <ele>92.7</ele>
        <time>2019-07-07T08:34:53Z</time>
      </trkpt>
      <trkpt lat="43.67502" lon="3.84492">
        <ele>92.5</ele>
        <time>2019-07-07T08:34:55Z</time>
      </trkpt>
      <trkpt lat="43.675" lon="3.84497">
        <ele>92.4</ele>
        <time>2019-07-07T08:34:56Z</time>
      </trkpt>
      <trkpt lat="43.67495" lon="3.84502">
        <ele>92.3</ele>
        <time>2019-07-07T08:34:57Z</time>
      </trkpt>
      <trkpt lat="43.67492" lon="3.84509">
        <ele>92.1</ele>
        <time>2019-07-07T08:34:58Z</time>
      </trkpt>
      <trkpt lat="43.67488" lon="3.84515">
        <ele>92</ele>
        <time>2019-07-07T08:34:59Z</time>
      </trkpt>
      <trkpt lat="43.67484" lon="3.84521">
        <ele>91.8</ele>
        <time>2019-07-07T08:35:00Z</time>
      </trkpt>
      <trkpt lat="43.67479" lon="3.84529">
        <ele>91.7</ele>
        <time>2019-07-07T08:35:01Z</time>
      </trkpt>
      <trkpt lat="43.67476" lon="3.84535">
        <ele>91.6</ele>
        <time>2019-07-07T08:35:02Z</time>
      </trkpt>
      <trkpt lat="43.67473" lon="3.84541">
        <ele>91.5</ele>
        <time>2019-07-07T08:35:03Z</time>
      </trkpt>
      <trkpt lat="43.67471" lon="3.84547">
        <ele>91.4</ele>
        <time>2019-07-07T08:35:04Z</time>
      </trkpt>
      <trkpt lat="43.67467" lon="3.84553">
        <ele>91.3</ele>
        <time>2019-07-07T08:35:05Z</time>
      </trkpt>
      <trkpt lat="43.67462" lon="3.84558">
        <ele>91.1</ele>
        <time>2019-07-07T08:35:06Z</time>
      </trkpt>
      <trkpt lat="43.67455" lon="3.84563">
        <ele>90.7</ele>
        <time>2019-07-07T08:35:07Z</time>
      </trkpt>
      <trkpt lat="43.6745" lon="3.84568">
        <ele>90.3</ele>
        <time>2019-07-07T08:35:08Z</time>
      </trkpt>
      <trkpt lat="43.67446" lon="3.84573">
        <ele>90</ele>
        <time>2019-07-07T08:35:09Z</time>
      </trkpt>
      <trkpt lat="43.67446" lon="3.84579">
        <ele>89.6</ele>
        <time>2019-07-07T08:35:10Z</time>
      </trkpt>
      <trkpt lat="43.67443" lon="3.84584">
        <ele>89.3</ele>
        <time>2019-07-07T08:35:11Z</time>
      </trkpt>
      <trkpt lat="43.6744" lon="3.84588">
        <ele>88.9</ele>
        <time>2019-07-07T08:35:12Z</time>
      </trkpt>
      <trkpt lat="43.67439" lon="3.84594">
        <ele>88.6</ele>
        <time>2019-07-07T08:35:13Z</time>
      </trkpt>
      <trkpt lat="43.67437" lon="3.84599">
        <ele>88.2</ele>
        <time>2019-07-07T08:35:14Z</time>
      </trkpt>
      <trkpt lat="43.67435" lon="3.84605">
        <ele>87.9</ele>
        <time>2019-07-07T08:35:15Z</time>
      </trkpt>
      <trkpt lat="43.67434" lon="3.84609">
        <ele>87.9</ele>
        <time>2019-07-07T08:35:16Z</time>
      </trkpt>
      <trkpt lat="43.67432" lon="3.84615">
        <ele>87.9</ele>
        <time>2019-07-07T08:35:17Z</time>
      </trkpt>
      <trkpt lat="43.67432" lon="3.84619">
        <ele>88</ele>
        <time>2019-07-07T08:35:18Z</time>
      </trkpt>
      <trkpt lat="43.67431" lon="3.84623">
        <ele>88.1</ele>
        <time>2019-07-07T08:35:19Z</time>
      </trkpt>
      <trkpt lat="43.67428" lon="3.84628">
        <ele>88.2</ele>
        <time>2019-07-07T08:35:20Z</time>
      </trkpt>
      <trkpt lat="43.67426" lon="3.84633">
        <ele>88.3</ele>
        <time>2019-07-07T08:35:21Z</time>
      </trkpt>
      <trkpt lat="43.67425" lon="3.84638">
        <ele>88.3</ele>
        <time>2019-07-07T08:35:22Z</time>
      </trkpt>
      <trkpt lat="43.67423" lon="3.84643">
        <ele>88.4</ele>
        <time>2019-07-07T08:35:23Z</time>
      </trkpt>
      <trkpt lat="43.67421" lon="3.84648">
        <ele>88.4</ele>
        <time>2019-07-07T08:35:24Z</time>
      </trkpt>
      <trkpt lat="43.67418" lon="3.84653">
        <ele>88.5</ele>
        <time>2019-07-07T08:35:25Z</time>
      </trkpt>
      <trkpt lat="43.67416" lon="3.84657">
        <ele>88.6</ele>
        <time>2019-07-07T08:35:26Z</time>
      </trkpt>
      <trkpt lat="43.67414" lon="3.84661">
        <ele>88.7</ele>
        <time>2019-07-07T08:35:27Z</time>
      </trkpt>
      <trkpt lat="43.67414" lon="3.84665">
        <ele>88.8</ele>
        <time>2019-07-07T08:35:28Z</time>
      </trkpt>
      <trkpt lat="43.67412" lon="3.84669">
        <ele>88.8</ele>
        <time>2019-07-07T08:35:29Z</time>
      </trkpt>
      <trkpt lat="43.6741" lon="3.84673">
        <ele>88.8</ele>
        <time>2019-07-07T08:35:30Z</time>
      </trkpt>
      <trkpt lat="43.67407" lon="3.84676">
        <ele>88.9</ele>
        <time>2019-07-07T08:35:31Z</time>
      </trkpt>
      <trkpt lat="43.67404" lon="3.84679">
        <ele>89.1</ele>
        <time>2019-07-07T08:35:32Z</time>
      </trkpt>
      <trkpt lat="43.67401" lon="3.84681">
        <ele>89.3</ele>
        <time>2019-07-07T08:35:33Z</time>
      </trkpt>
      <trkpt lat="43.67398" lon="3.84686">
        <ele>89.1</ele>
        <time>2019-07-07T08:35:35Z</time>
      </trkpt>
      <trkpt lat="43.67399" lon="3.8469">
        <ele>88.9</ele>
        <time>2019-07-07T08:35:36Z</time>
      </trkpt>
      <trkpt lat="43.67399" lon="3.84694">
        <ele>88.8</ele>
        <time>2019-07-07T08:35:37Z</time>
      </trkpt>
      <trkpt lat="43.67401" lon="3.84699">
        <ele>88.6</ele>
        <time>2019-07-07T08:35:38Z</time>
      </trkpt>
      <trkpt lat="43.67405" lon="3.84704">
        <ele>88.4</ele>
        <time>2019-07-07T08:35:39Z</time>
      </trkpt>
      <trkpt lat="43.67404" lon="3.84709">
        <ele>88.3</ele>
        <time>2019-07-07T08:35:40Z</time>
      </trkpt>
      <trkpt lat="43.67404" lon="3.84713">
        <ele>88.2</ele>
        <time>2019-07-07T08:35:41Z</time>
      </trkpt>
      <trkpt lat="43.67403" lon="3.84719">
        <ele>88.1</ele>
        <time>2019-07-07T08:35:42Z</time>
      </trkpt>
      <trkpt lat="43.67402" lon="3.84724">
        <ele>88.1</ele>
        <time>2019-07-07T08:35:43Z</time>
      </trkpt>
      <trkpt lat="43.67401" lon="3.84729">
        <ele>88</ele>
        <time>2019-07-07T08:35:44Z</time>
      </trkpt>
      <trkpt lat="43.67402" lon="3.84734">
        <ele>87.9</ele>
        <time>2019-07-07T08:35:45Z</time>
      </trkpt>
      <trkpt lat="43.67399" lon="3.84739">
        <ele>87.9</ele>
        <time>2019-07-07T08:35:46Z</time>
      </trkpt>
      <trkpt lat="43.674" lon="3.84747">
        <ele>87.7</ele>
        <time>2019-07-07T08:35:48Z</time>
      </trkpt>
      <trkpt lat="43.67403" lon="3.84751">
        <ele>87.5</ele>
        <time>2019-07-07T08:35:49Z</time>
      </trkpt>
      <trkpt lat="43.67406" lon="3.84756">
        <ele>87.4</ele>
        <time>2019-07-07T08:35:50Z</time>
      </trkpt>
      <trkpt lat="43.67409" lon="3.84759">
        <ele>87.2</ele>
        <time>2019-07-07T08:35:51Z</time>
      </trkpt>
      <trkpt lat="43.67409" lon="3.84763">
        <ele>87.1</ele>
        <time>2019-07-07T08:35:52Z</time>
      </trkpt>
      <trkpt lat="43.67411" lon="3.84767">
        <ele>86.9</ele>
        <time>2019-07-07T08:35:53Z</time>
      </trkpt>
      <trkpt lat="43.67414" lon="3.84773">
        <ele>86.7</ele>
        <time>2019-07-07T08:35:54Z</time>
      </trkpt>
      <trkpt lat="43.67415" lon="3.84777">
        <ele>86.5</ele>
        <time>2019-07-07T08:35:55Z</time>
      </trkpt>
      <trkpt lat="43.67418" lon="3.84781">
        <ele>86.3</ele>
        <time>2019-07-07T08:35:56Z</time>
      </trkpt>
      <trkpt lat="43.6742" lon="3.84785">
        <ele>86.1</ele>
        <time>2019-07-07T08:35:57Z</time>
      </trkpt>
      <trkpt lat="43.67424" lon="3.84789">
        <ele>85.9</ele>
        <time>2019-07-07T08:35:58Z</time>
      </trkpt>
      <trkpt lat="43.67426" lon="3.84793">
        <ele>85.8</ele>
        <time>2019-07-07T08:35:59Z</time>
      </trkpt>
      <trkpt lat="43.67429" lon="3.84796">
        <ele>85.6</ele>
        <time>2019-07-07T08:36:00Z</time>
      </trkpt>
      <trkpt lat="43.67432" lon="3.848">
        <ele>85.4</ele>
        <time>2019-07-07T08:36:01Z</time>
      </trkpt>
      <trkpt lat="43.67435" lon="3.84803">
        <ele>85.3</ele>
        <time>2019-07-07T08:36:02Z</time>
      </trkpt>
      <trkpt lat="43.67437" lon="3.84808">
        <ele>85.1</ele>
        <time>2019-07-07T08:36:03Z</time>
      </trkpt>
      <trkpt lat="43.67441" lon="3.84811">
        <ele>84.9</ele>
        <time>2019-07-07T08:36:04Z</time>
      </trkpt>
      <trkpt lat="43.67445" lon="3.84814">
        <ele>84.8</ele>
        <time>2019-07-07T08:36:05Z</time>
      </trkpt>
      <trkpt lat="43.67448" lon="3.84817">
        <ele>84.7</ele>
        <time>2019-07-07T08:36:06Z</time>
      </trkpt>
      <trkpt lat="43.67447" lon="3.84822">
        <ele>84.6</ele>
        <time>2019-07-07T08:36:07Z</time>
      </trkpt>
      <trkpt lat="43.67449" lon="3.84826">
        <ele>84.5</ele>
        <time>2019-07-07T08:36:09Z</time>
      </trkpt>
      <trkpt lat="43.6745" lon="3.8483">
        <ele>84.5</ele>
        <time>2019-07-07T08:36:10Z</time>
      </trkpt>
      <trkpt lat="43.67455" lon="3.84837">
        <ele>84.4</ele>
        <time>2019-07-07T08:36:11Z</time>
      </trkpt>
      <trkpt lat="43.67456" lon="3.84841">
        <ele>84.4</ele>
        <time>2019-07-07T08:36:13Z</time>
      </trkpt>
      <trkpt lat="43.67459" lon="3.84845">
        <ele>84.4</ele>
        <time>2019-07-07T08:36:14Z</time>
      </trkpt>
      <trkpt lat="43.67462" lon="3.84852">
        <ele>84.5</ele>
        <time>2019-07-07T08:36:16Z</time>
      </trkpt>
      <trkpt lat="43.67461" lon="3.8486">
        <ele>84.5</ele>
        <time>2019-07-07T08:36:18Z</time>
      </trkpt>
      <trkpt lat="43.67464" lon="3.84866">
        <ele>84.5</ele>
        <time>2019-07-07T08:36:19Z</time>
      </trkpt>
      <trkpt lat="43.67464" lon="3.84871">
        <ele>84.5</ele>
        <time>2019-07-07T08:36:20Z</time>
      </trkpt>
      <trkpt lat="43.67467" lon="3.8488">
        <ele>84.4</ele>
        <time>2019-07-07T08:36:22Z</time>
      </trkpt>
      <trkpt lat="43.67469" lon="3.84883">
        <ele>84.3</ele>
        <time>2019-07-07T08:36:23Z</time>
      </trkpt>
      <trkpt lat="43.67469" lon="3.84887">
        <ele>84.3</ele>
        <time>2019-07-07T08:36:24Z</time>
      </trkpt>
      <trkpt lat="43.67471" lon="3.84894">
        <ele>84.2</ele>
        <time>2019-07-07T08:36:26Z</time>
      </trkpt>
      <trkpt lat="43.67473" lon="3.84897">
        <ele>84.2</ele>
        <time>2019-07-07T08:36:27Z</time>
      </trkpt>
      <trkpt lat="43.67473" lon="3.84902">
        <ele>84.2</ele>
        <time>2019-07-07T08:36:28Z</time>
      </trkpt>
      <trkpt lat="43.67472" lon="3.84909">
        <ele>84.2</ele>
        <time>2019-07-07T08:36:29Z</time>
      </trkpt>
      <trkpt lat="43.67473" lon="3.84912">
        <ele>84.2</ele>
        <time>2019-07-07T08:36:30Z</time>
      </trkpt>
      <trkpt lat="43.67477" lon="3.84916">
        <ele>84.1</ele>
        <time>2019-07-07T08:36:31Z</time>
      </trkpt>
      <trkpt lat="43.67478" lon="3.84921">
        <ele>84.1</ele>
        <time>2019-07-07T08:36:32Z</time>
      </trkpt>
      <trkpt lat="43.67475" lon="3.84925">
        <ele>84</ele>
        <time>2019-07-07T08:36:33Z</time>
      </trkpt>
      <trkpt lat="43.67474" lon="3.8493">
        <ele>83.9</ele>
        <time>2019-07-07T08:36:34Z</time>
      </trkpt>
      <trkpt lat="43.67474" lon="3.84936">
        <ele>83.9</ele>
        <time>2019-07-07T08:36:36Z</time>
      </trkpt>
      <trkpt lat="43.67476" lon="3.84938">
        <ele>83.8</ele>
        <time>2019-07-07T08:36:37Z</time>
      </trkpt>
      <trkpt lat="43.67474" lon="3.84944">
        <ele>83.8</ele>
        <time>2019-07-07T08:36:39Z</time>
      </trkpt>
      <trkpt lat="43.67477" lon="3.84948">
        <ele>83.7</ele>
        <time>2019-07-07T08:36:40Z</time>
      </trkpt>
      <trkpt lat="43.67477" lon="3.84951">
        <ele>83.7</ele>
        <time>2019-07-07T08:36:41Z</time>
      </trkpt>
      <trkpt lat="43.67479" lon="3.84955">
        <ele>83.7</ele>
        <time>2019-07-07T08:36:42Z</time>
      </trkpt>
      <trkpt lat="43.67482" lon="3.84962">
        <ele>83.6</ele>
        <time>2019-07-07T08:36:43Z</time>
      </trkpt>
      <trkpt lat="43.67484" lon="3.84968">
        <ele>83.6</ele>
        <time>2019-07-07T08:36:45Z</time>
      </trkpt>
      <trkpt lat="43.67486" lon="3.84973">
        <ele>83.4</ele>
        <time>2019-07-07T08:36:46Z</time>
      </trkpt>
      <trkpt lat="43.6749" lon="3.84975">
        <ele>83.3</ele>
        <time>2019-07-07T08:36:47Z</time>
      </trkpt>
      <trkpt lat="43.67493" lon="3.84978">
        <ele>83.2</ele>
        <time>2019-07-07T08:36:48Z</time>
      </trkpt>
      <trkpt lat="43.67494" lon="3.84982">
        <ele>83.1</ele>
        <time>2019-07-07T08:36:49Z</time>
      </trkpt>
      <trkpt lat="43.67496" lon="3.84988">
        <ele>83</ele>
        <time>2019-07-07T08:36:51Z</time>
      </trkpt>
      <trkpt lat="43.67498" lon="3.84992">
        <ele>82.9</ele>
        <time>2019-07-07T08:36:52Z</time>
      </trkpt>
      <trkpt lat="43.67499" lon="3.84997">
        <ele>82.8</ele>
        <time>2019-07-07T08:36:53Z</time>
      </trkpt>
      <trkpt lat="43.67501" lon="3.85001">
        <ele>82.7</ele>
        <time>2019-07-07T08:36:54Z</time>
      </trkpt>
      <trkpt lat="43.67503" lon="3.85006">
        <ele>82.7</ele>
        <time>2019-07-07T08:36:55Z</time>
      </trkpt>
      <trkpt lat="43.67505" lon="3.8501">
        <ele>82.7</ele>
        <time>2019-07-07T08:36:56Z</time>
      </trkpt>
      <trkpt lat="43.67505" lon="3.85014">
        <ele>82.7</ele>
        <time>2019-07-07T08:36:57Z</time>
      </trkpt>
      <trkpt lat="43.67502" lon="3.85018">
        <ele>82.7</ele>
        <time>2019-07-07T08:36:58Z</time>
      </trkpt>
      <trkpt lat="43.67503" lon="3.85022">
        <ele>82.7</ele>
        <time>2019-07-07T08:36:59Z</time>
      </trkpt>
      <trkpt lat="43.67503" lon="3.85026">
        <ele>82.7</ele>
        <time>2019-07-07T08:37:04Z</time>
      </trkpt>
    </trkseg>
  </trk>
</gpx>